<?xml version="1.0" encoding="UTF-8" standalone="no" ?>
<gpx xmlns="http://www.topografix.com/GPX/1/1" xmlns:xsi="http://www.w3.org/2001/XMLSchema-instance" xsi:schemaLocation="http://www.topografix.com/GPX/1/1 http://www.topografix.com/GPX/1/1/gpx.xsd" version="1.1" creator="VisuGPX - https://www.visugpx.com">
  <metadata>
    <name>Remiencourt </name>
  </metadata>
  <trk>
    <name><![CDATA[Remiencourt _1]]></name>
    <trkseg>
      <trkpt lat="49.78177" lon="2.38234">
        <ele>46.9</ele>
        <time>2023-10-11T11:57:10Z</time>
      </trkpt>
      <trkpt lat="49.78178" lon="2.38232">
        <ele>46.9</ele>
        <time>2023-10-11T11:57:11Z</time>
      </trkpt>
      <trkpt lat="49.78178" lon="2.38232">
        <ele>46.9</ele>
        <time>2023-10-11T11:57:13Z</time>
      </trkpt>
      <trkpt lat="49.78178" lon="2.38232">
        <ele>46.9</ele>
        <time>2023-10-11T11:57:14Z</time>
      </trkpt>
      <trkpt lat="49.78178" lon="2.38232">
        <ele>46.9</ele>
        <time>2023-10-11T11:57:15Z</time>
      </trkpt>
      <trkpt lat="49.78178" lon="2.38232">
        <ele>46.9</ele>
        <time>2023-10-11T11:57:16Z</time>
      </trkpt>
      <trkpt lat="49.78178" lon="2.38232">
        <ele>46.9</ele>
        <time>2023-10-11T11:57:18Z</time>
      </trkpt>
      <trkpt lat="49.78178" lon="2.38232">
        <ele>46.9</ele>
        <time>2023-10-11T11:57:19Z</time>
      </trkpt>
      <trkpt lat="49.78178" lon="2.38232">
        <ele>46.9</ele>
        <time>2023-10-11T11:57:20Z</time>
      </trkpt>
      <trkpt lat="49.78173" lon="2.38229">
        <ele>46.9</ele>
        <time>2023-10-11T11:57:43Z</time>
      </trkpt>
      <trkpt lat="49.78172" lon="2.38231">
        <ele>47</ele>
        <time>2023-10-11T11:57:44Z</time>
      </trkpt>
      <trkpt lat="49.78171" lon="2.38234">
        <ele>47</ele>
        <time>2023-10-11T11:57:45Z</time>
      </trkpt>
      <trkpt lat="49.7817" lon="2.38234">
        <ele>47</ele>
        <time>2023-10-11T11:57:47Z</time>
      </trkpt>
      <trkpt lat="49.7817" lon="2.38234">
        <ele>47</ele>
        <time>2023-10-11T11:57:48Z</time>
      </trkpt>
      <trkpt lat="49.7817" lon="2.38234">
        <ele>47</ele>
        <time>2023-10-11T11:57:49Z</time>
      </trkpt>
      <trkpt lat="49.7817" lon="2.38234">
        <ele>47</ele>
        <time>2023-10-11T11:57:50Z</time>
      </trkpt>
      <trkpt lat="49.7817" lon="2.38234">
        <ele>47</ele>
        <time>2023-10-11T11:57:51Z</time>
      </trkpt>
      <trkpt lat="49.7817" lon="2.38234">
        <ele>47</ele>
        <time>2023-10-11T11:57:52Z</time>
      </trkpt>
      <trkpt lat="49.7817" lon="2.38233">
        <ele>47</ele>
        <time>2023-10-11T11:57:53Z</time>
      </trkpt>
      <trkpt lat="49.7817" lon="2.38233">
        <ele>47</ele>
        <time>2023-10-11T11:57:55Z</time>
      </trkpt>
      <trkpt lat="49.7817" lon="2.38233">
        <ele>47</ele>
        <time>2023-10-11T11:57:56Z</time>
      </trkpt>
      <trkpt lat="49.7817" lon="2.38233">
        <ele>47</ele>
        <time>2023-10-11T11:57:57Z</time>
      </trkpt>
      <trkpt lat="49.7817" lon="2.38233">
        <ele>47</ele>
        <time>2023-10-11T11:57:58Z</time>
      </trkpt>
      <trkpt lat="49.7817" lon="2.38233">
        <ele>47</ele>
        <time>2023-10-11T11:57:59Z</time>
      </trkpt>
      <trkpt lat="49.7817" lon="2.38233">
        <ele>47</ele>
        <time>2023-10-11T11:58:00Z</time>
      </trkpt>
      <trkpt lat="49.7817" lon="2.38233">
        <ele>47</ele>
        <time>2023-10-11T11:58:01Z</time>
      </trkpt>
      <trkpt lat="49.7817" lon="2.38233">
        <ele>47</ele>
        <time>2023-10-11T11:58:02Z</time>
      </trkpt>
      <trkpt lat="49.7817" lon="2.38233">
        <ele>47</ele>
        <time>2023-10-11T11:58:04Z</time>
      </trkpt>
      <trkpt lat="49.78174" lon="2.38232">
        <ele>47</ele>
        <time>2023-10-11T12:00:56Z</time>
      </trkpt>
      <trkpt lat="49.78175" lon="2.38231">
        <ele>47</ele>
        <time>2023-10-11T12:00:57Z</time>
      </trkpt>
      <trkpt lat="49.78176" lon="2.38229">
        <ele>47</ele>
        <time>2023-10-11T12:00:58Z</time>
      </trkpt>
      <trkpt lat="49.78176" lon="2.38227">
        <ele>47</ele>
        <time>2023-10-11T12:01:00Z</time>
      </trkpt>
      <trkpt lat="49.78177" lon="2.38226">
        <ele>47</ele>
        <time>2023-10-11T12:01:01Z</time>
      </trkpt>
      <trkpt lat="49.78177" lon="2.38226">
        <ele>47</ele>
        <time>2023-10-11T12:01:02Z</time>
      </trkpt>
      <trkpt lat="49.78177" lon="2.38225">
        <ele>47</ele>
        <time>2023-10-11T12:01:03Z</time>
      </trkpt>
      <trkpt lat="49.78177" lon="2.38225">
        <ele>47</ele>
        <time>2023-10-11T12:01:04Z</time>
      </trkpt>
      <trkpt lat="49.78177" lon="2.38225">
        <ele>47</ele>
        <time>2023-10-11T12:01:05Z</time>
      </trkpt>
      <trkpt lat="49.78178" lon="2.38224">
        <ele>47</ele>
        <time>2023-10-11T12:01:06Z</time>
      </trkpt>
      <trkpt lat="49.78178" lon="2.38223">
        <ele>47</ele>
        <time>2023-10-11T12:01:08Z</time>
      </trkpt>
      <trkpt lat="49.78178" lon="2.38223">
        <ele>47</ele>
        <time>2023-10-11T12:01:09Z</time>
      </trkpt>
      <trkpt lat="49.78178" lon="2.38222">
        <ele>47</ele>
        <time>2023-10-11T12:01:10Z</time>
      </trkpt>
      <trkpt lat="49.78179" lon="2.38221">
        <ele>47</ele>
        <time>2023-10-11T12:01:11Z</time>
      </trkpt>
      <trkpt lat="49.78179" lon="2.3822">
        <ele>47</ele>
        <time>2023-10-11T12:01:12Z</time>
      </trkpt>
      <trkpt lat="49.78179" lon="2.38219">
        <ele>47</ele>
        <time>2023-10-11T12:01:13Z</time>
      </trkpt>
      <trkpt lat="49.78179" lon="2.38218">
        <ele>47</ele>
        <time>2023-10-11T12:01:14Z</time>
      </trkpt>
      <trkpt lat="49.78179" lon="2.38217">
        <ele>47</ele>
        <time>2023-10-11T12:01:15Z</time>
      </trkpt>
      <trkpt lat="49.78179" lon="2.38216">
        <ele>47</ele>
        <time>2023-10-11T12:01:16Z</time>
      </trkpt>
      <trkpt lat="49.78179" lon="2.38215">
        <ele>47</ele>
        <time>2023-10-11T12:01:17Z</time>
      </trkpt>
      <trkpt lat="49.78179" lon="2.38214">
        <ele>47</ele>
        <time>2023-10-11T12:01:18Z</time>
      </trkpt>
      <trkpt lat="49.78179" lon="2.38213">
        <ele>47</ele>
        <time>2023-10-11T12:01:19Z</time>
      </trkpt>
      <trkpt lat="49.78178" lon="2.38212">
        <ele>47</ele>
        <time>2023-10-11T12:01:20Z</time>
      </trkpt>
      <trkpt lat="49.78178" lon="2.3821">
        <ele>47</ele>
        <time>2023-10-11T12:01:21Z</time>
      </trkpt>
      <trkpt lat="49.78178" lon="2.38209">
        <ele>47</ele>
        <time>2023-10-11T12:01:22Z</time>
      </trkpt>
      <trkpt lat="49.78178" lon="2.38208">
        <ele>47</ele>
        <time>2023-10-11T12:01:23Z</time>
      </trkpt>
      <trkpt lat="49.78178" lon="2.38206">
        <ele>47</ele>
        <time>2023-10-11T12:01:24Z</time>
      </trkpt>
      <trkpt lat="49.78178" lon="2.38205">
        <ele>47</ele>
        <time>2023-10-11T12:01:25Z</time>
      </trkpt>
      <trkpt lat="49.78178" lon="2.38205">
        <ele>47</ele>
        <time>2023-10-11T12:01:26Z</time>
      </trkpt>
      <trkpt lat="49.78178" lon="2.38204">
        <ele>47</ele>
        <time>2023-10-11T12:01:27Z</time>
      </trkpt>
      <trkpt lat="49.78178" lon="2.38203">
        <ele>47</ele>
        <time>2023-10-11T12:01:28Z</time>
      </trkpt>
      <trkpt lat="49.78178" lon="2.38202">
        <ele>47</ele>
        <time>2023-10-11T12:01:29Z</time>
      </trkpt>
      <trkpt lat="49.78178" lon="2.382">
        <ele>47</ele>
        <time>2023-10-11T12:01:30Z</time>
      </trkpt>
      <trkpt lat="49.78177" lon="2.38198">
        <ele>46.9</ele>
        <time>2023-10-11T12:01:31Z</time>
      </trkpt>
      <trkpt lat="49.78176" lon="2.38195">
        <ele>46.9</ele>
        <time>2023-10-11T12:01:32Z</time>
      </trkpt>
      <trkpt lat="49.78176" lon="2.38194">
        <ele>46.9</ele>
        <time>2023-10-11T12:01:33Z</time>
      </trkpt>
      <trkpt lat="49.78176" lon="2.38192">
        <ele>46.9</ele>
        <time>2023-10-11T12:01:34Z</time>
      </trkpt>
      <trkpt lat="49.78175" lon="2.38191">
        <ele>46.7</ele>
        <time>2023-10-11T12:01:35Z</time>
      </trkpt>
      <trkpt lat="49.78175" lon="2.3819">
        <ele>46.6</ele>
        <time>2023-10-11T12:01:36Z</time>
      </trkpt>
      <trkpt lat="49.78175" lon="2.38188">
        <ele>46.5</ele>
        <time>2023-10-11T12:01:37Z</time>
      </trkpt>
      <trkpt lat="49.78175" lon="2.38187">
        <ele>46.5</ele>
        <time>2023-10-11T12:01:38Z</time>
      </trkpt>
      <trkpt lat="49.78175" lon="2.38186">
        <ele>46.4</ele>
        <time>2023-10-11T12:01:39Z</time>
      </trkpt>
      <trkpt lat="49.78175" lon="2.38185">
        <ele>46.4</ele>
        <time>2023-10-11T12:01:40Z</time>
      </trkpt>
      <trkpt lat="49.78175" lon="2.38184">
        <ele>46.3</ele>
        <time>2023-10-11T12:01:41Z</time>
      </trkpt>
      <trkpt lat="49.78175" lon="2.38183">
        <ele>46.3</ele>
        <time>2023-10-11T12:01:42Z</time>
      </trkpt>
      <trkpt lat="49.78175" lon="2.38182">
        <ele>46.2</ele>
        <time>2023-10-11T12:01:43Z</time>
      </trkpt>
      <trkpt lat="49.78175" lon="2.38181">
        <ele>46.2</ele>
        <time>2023-10-11T12:01:44Z</time>
      </trkpt>
      <trkpt lat="49.78175" lon="2.3818">
        <ele>46.1</ele>
        <time>2023-10-11T12:01:45Z</time>
      </trkpt>
      <trkpt lat="49.78175" lon="2.38179">
        <ele>46.1</ele>
        <time>2023-10-11T12:01:46Z</time>
      </trkpt>
      <trkpt lat="49.78175" lon="2.38178">
        <ele>46</ele>
        <time>2023-10-11T12:01:47Z</time>
      </trkpt>
      <trkpt lat="49.78175" lon="2.38177">
        <ele>46</ele>
        <time>2023-10-11T12:01:48Z</time>
      </trkpt>
      <trkpt lat="49.78175" lon="2.38175">
        <ele>45.9</ele>
        <time>2023-10-11T12:01:49Z</time>
      </trkpt>
      <trkpt lat="49.78175" lon="2.38174">
        <ele>45.9</ele>
        <time>2023-10-11T12:01:50Z</time>
      </trkpt>
      <trkpt lat="49.78176" lon="2.3817">
        <ele>45.7</ele>
        <time>2023-10-11T12:01:51Z</time>
      </trkpt>
      <trkpt lat="49.78176" lon="2.38169">
        <ele>45.6</ele>
        <time>2023-10-11T12:01:52Z</time>
      </trkpt>
      <trkpt lat="49.78176" lon="2.38167">
        <ele>45.5</ele>
        <time>2023-10-11T12:01:53Z</time>
      </trkpt>
      <trkpt lat="49.78176" lon="2.38164">
        <ele>45.4</ele>
        <time>2023-10-11T12:01:54Z</time>
      </trkpt>
      <trkpt lat="49.78177" lon="2.38162">
        <ele>45.3</ele>
        <time>2023-10-11T12:01:55Z</time>
      </trkpt>
      <trkpt lat="49.78177" lon="2.38159">
        <ele>45.2</ele>
        <time>2023-10-11T12:01:56Z</time>
      </trkpt>
      <trkpt lat="49.78177" lon="2.38157">
        <ele>45.1</ele>
        <time>2023-10-11T12:01:57Z</time>
      </trkpt>
      <trkpt lat="49.78178" lon="2.38154">
        <ele>44.9</ele>
        <time>2023-10-11T12:01:58Z</time>
      </trkpt>
      <trkpt lat="49.78178" lon="2.38153">
        <ele>44.9</ele>
        <time>2023-10-11T12:01:59Z</time>
      </trkpt>
      <trkpt lat="49.78179" lon="2.38152">
        <ele>44.8</ele>
        <time>2023-10-11T12:02:00Z</time>
      </trkpt>
      <trkpt lat="49.78179" lon="2.3815">
        <ele>44.8</ele>
        <time>2023-10-11T12:02:01Z</time>
      </trkpt>
      <trkpt lat="49.78179" lon="2.38149">
        <ele>44.7</ele>
        <time>2023-10-11T12:02:02Z</time>
      </trkpt>
      <trkpt lat="49.7818" lon="2.38148">
        <ele>44.6</ele>
        <time>2023-10-11T12:02:03Z</time>
      </trkpt>
      <trkpt lat="49.7818" lon="2.38147">
        <ele>44.6</ele>
        <time>2023-10-11T12:02:04Z</time>
      </trkpt>
      <trkpt lat="49.78181" lon="2.38145">
        <ele>44.5</ele>
        <time>2023-10-11T12:02:05Z</time>
      </trkpt>
      <trkpt lat="49.78181" lon="2.38144">
        <ele>44.4</ele>
        <time>2023-10-11T12:02:06Z</time>
      </trkpt>
      <trkpt lat="49.78182" lon="2.38142">
        <ele>44.4</ele>
        <time>2023-10-11T12:02:07Z</time>
      </trkpt>
      <trkpt lat="49.78182" lon="2.38141">
        <ele>44.3</ele>
        <time>2023-10-11T12:02:08Z</time>
      </trkpt>
      <trkpt lat="49.78183" lon="2.3814">
        <ele>44.2</ele>
        <time>2023-10-11T12:02:09Z</time>
      </trkpt>
      <trkpt lat="49.78183" lon="2.38139">
        <ele>44.2</ele>
        <time>2023-10-11T12:02:10Z</time>
      </trkpt>
      <trkpt lat="49.78184" lon="2.38137">
        <ele>44.1</ele>
        <time>2023-10-11T12:02:11Z</time>
      </trkpt>
      <trkpt lat="49.78185" lon="2.38136">
        <ele>44</ele>
        <time>2023-10-11T12:02:12Z</time>
      </trkpt>
      <trkpt lat="49.78185" lon="2.38135">
        <ele>44</ele>
        <time>2023-10-11T12:02:13Z</time>
      </trkpt>
      <trkpt lat="49.78186" lon="2.38134">
        <ele>43.9</ele>
        <time>2023-10-11T12:02:14Z</time>
      </trkpt>
      <trkpt lat="49.78187" lon="2.38132">
        <ele>43.8</ele>
        <time>2023-10-11T12:02:15Z</time>
      </trkpt>
      <trkpt lat="49.78187" lon="2.38131">
        <ele>43.8</ele>
        <time>2023-10-11T12:02:16Z</time>
      </trkpt>
      <trkpt lat="49.78188" lon="2.38129">
        <ele>43.7</ele>
        <time>2023-10-11T12:02:17Z</time>
      </trkpt>
      <trkpt lat="49.78188" lon="2.38128">
        <ele>43.6</ele>
        <time>2023-10-11T12:02:18Z</time>
      </trkpt>
      <trkpt lat="49.78189" lon="2.38126">
        <ele>43.6</ele>
        <time>2023-10-11T12:02:19Z</time>
      </trkpt>
      <trkpt lat="49.78189" lon="2.38124">
        <ele>43.5</ele>
        <time>2023-10-11T12:02:20Z</time>
      </trkpt>
      <trkpt lat="49.78189" lon="2.38122">
        <ele>43.3</ele>
        <time>2023-10-11T12:02:21Z</time>
      </trkpt>
      <trkpt lat="49.78189" lon="2.38121">
        <ele>43.3</ele>
        <time>2023-10-11T12:02:22Z</time>
      </trkpt>
      <trkpt lat="49.78189" lon="2.38119">
        <ele>43.3</ele>
        <time>2023-10-11T12:02:23Z</time>
      </trkpt>
      <trkpt lat="49.78189" lon="2.38118">
        <ele>43.3</ele>
        <time>2023-10-11T12:02:24Z</time>
      </trkpt>
      <trkpt lat="49.78188" lon="2.38117">
        <ele>43.3</ele>
        <time>2023-10-11T12:02:25Z</time>
      </trkpt>
      <trkpt lat="49.78188" lon="2.38115">
        <ele>43.2</ele>
        <time>2023-10-11T12:02:26Z</time>
      </trkpt>
      <trkpt lat="49.78188" lon="2.38114">
        <ele>43.2</ele>
        <time>2023-10-11T12:02:27Z</time>
      </trkpt>
      <trkpt lat="49.78188" lon="2.38113">
        <ele>43.2</ele>
        <time>2023-10-11T12:02:28Z</time>
      </trkpt>
      <trkpt lat="49.78187" lon="2.38111">
        <ele>43.2</ele>
        <time>2023-10-11T12:02:29Z</time>
      </trkpt>
      <trkpt lat="49.78187" lon="2.3811">
        <ele>43.2</ele>
        <time>2023-10-11T12:02:30Z</time>
      </trkpt>
      <trkpt lat="49.78187" lon="2.38109">
        <ele>43.2</ele>
        <time>2023-10-11T12:02:31Z</time>
      </trkpt>
      <trkpt lat="49.78186" lon="2.38108">
        <ele>43.1</ele>
        <time>2023-10-11T12:02:32Z</time>
      </trkpt>
      <trkpt lat="49.78186" lon="2.38106">
        <ele>43.1</ele>
        <time>2023-10-11T12:02:33Z</time>
      </trkpt>
      <trkpt lat="49.78186" lon="2.38105">
        <ele>43.1</ele>
        <time>2023-10-11T12:02:34Z</time>
      </trkpt>
      <trkpt lat="49.78186" lon="2.38103">
        <ele>43.1</ele>
        <time>2023-10-11T12:02:35Z</time>
      </trkpt>
      <trkpt lat="49.78186" lon="2.38102">
        <ele>43.1</ele>
        <time>2023-10-11T12:02:36Z</time>
      </trkpt>
      <trkpt lat="49.78185" lon="2.381">
        <ele>43</ele>
        <time>2023-10-11T12:02:37Z</time>
      </trkpt>
      <trkpt lat="49.78185" lon="2.38098">
        <ele>43</ele>
        <time>2023-10-11T12:02:38Z</time>
      </trkpt>
      <trkpt lat="49.78185" lon="2.38097">
        <ele>43</ele>
        <time>2023-10-11T12:02:39Z</time>
      </trkpt>
      <trkpt lat="49.78184" lon="2.38096">
        <ele>43</ele>
        <time>2023-10-11T12:02:40Z</time>
      </trkpt>
      <trkpt lat="49.78184" lon="2.38095">
        <ele>43</ele>
        <time>2023-10-11T12:02:41Z</time>
      </trkpt>
      <trkpt lat="49.78183" lon="2.38093">
        <ele>43</ele>
        <time>2023-10-11T12:02:42Z</time>
      </trkpt>
      <trkpt lat="49.78182" lon="2.38092">
        <ele>42.9</ele>
        <time>2023-10-11T12:02:43Z</time>
      </trkpt>
      <trkpt lat="49.78182" lon="2.3809">
        <ele>42.9</ele>
        <time>2023-10-11T12:02:44Z</time>
      </trkpt>
      <trkpt lat="49.78181" lon="2.38089">
        <ele>42.9</ele>
        <time>2023-10-11T12:02:45Z</time>
      </trkpt>
      <trkpt lat="49.78181" lon="2.38088">
        <ele>42.9</ele>
        <time>2023-10-11T12:02:46Z</time>
      </trkpt>
      <trkpt lat="49.7818" lon="2.38085">
        <ele>42.9</ele>
        <time>2023-10-11T12:02:47Z</time>
      </trkpt>
      <trkpt lat="49.7818" lon="2.38083">
        <ele>42.9</ele>
        <time>2023-10-11T12:02:49Z</time>
      </trkpt>
      <trkpt lat="49.7818" lon="2.38082">
        <ele>42.8</ele>
        <time>2023-10-11T12:02:50Z</time>
      </trkpt>
      <trkpt lat="49.78179" lon="2.38081">
        <ele>42.8</ele>
        <time>2023-10-11T12:02:51Z</time>
      </trkpt>
      <trkpt lat="49.78179" lon="2.38079">
        <ele>42.8</ele>
        <time>2023-10-11T12:02:52Z</time>
      </trkpt>
      <trkpt lat="49.78178" lon="2.38078">
        <ele>42.8</ele>
        <time>2023-10-11T12:02:53Z</time>
      </trkpt>
      <trkpt lat="49.78178" lon="2.38077">
        <ele>42.8</ele>
        <time>2023-10-11T12:02:54Z</time>
      </trkpt>
      <trkpt lat="49.78178" lon="2.38076">
        <ele>42.8</ele>
        <time>2023-10-11T12:02:55Z</time>
      </trkpt>
      <trkpt lat="49.78177" lon="2.38075">
        <ele>42.8</ele>
        <time>2023-10-11T12:02:56Z</time>
      </trkpt>
      <trkpt lat="49.78177" lon="2.38074">
        <ele>42.8</ele>
        <time>2023-10-11T12:02:57Z</time>
      </trkpt>
      <trkpt lat="49.78177" lon="2.38073">
        <ele>42.7</ele>
        <time>2023-10-11T12:02:58Z</time>
      </trkpt>
      <trkpt lat="49.78176" lon="2.38071">
        <ele>42.7</ele>
        <time>2023-10-11T12:02:59Z</time>
      </trkpt>
      <trkpt lat="49.78176" lon="2.3807">
        <ele>42.7</ele>
        <time>2023-10-11T12:03:00Z</time>
      </trkpt>
      <trkpt lat="49.78176" lon="2.38068">
        <ele>42.7</ele>
        <time>2023-10-11T12:03:01Z</time>
      </trkpt>
      <trkpt lat="49.78176" lon="2.38067">
        <ele>42.7</ele>
        <time>2023-10-11T12:03:02Z</time>
      </trkpt>
      <trkpt lat="49.78175" lon="2.38065">
        <ele>42.7</ele>
        <time>2023-10-11T12:03:03Z</time>
      </trkpt>
      <trkpt lat="49.78175" lon="2.38064">
        <ele>42.7</ele>
        <time>2023-10-11T12:03:04Z</time>
      </trkpt>
      <trkpt lat="49.78175" lon="2.38063">
        <ele>42.6</ele>
        <time>2023-10-11T12:03:05Z</time>
      </trkpt>
      <trkpt lat="49.78174" lon="2.38061">
        <ele>42.6</ele>
        <time>2023-10-11T12:03:06Z</time>
      </trkpt>
      <trkpt lat="49.78174" lon="2.38059">
        <ele>42.6</ele>
        <time>2023-10-11T12:03:07Z</time>
      </trkpt>
      <trkpt lat="49.78174" lon="2.38058">
        <ele>42.6</ele>
        <time>2023-10-11T12:03:08Z</time>
      </trkpt>
      <trkpt lat="49.78174" lon="2.38056">
        <ele>42.6</ele>
        <time>2023-10-11T12:03:09Z</time>
      </trkpt>
      <trkpt lat="49.78173" lon="2.38054">
        <ele>42.6</ele>
        <time>2023-10-11T12:03:10Z</time>
      </trkpt>
      <trkpt lat="49.78173" lon="2.38053">
        <ele>42.6</ele>
        <time>2023-10-11T12:03:11Z</time>
      </trkpt>
      <trkpt lat="49.78173" lon="2.38051">
        <ele>42.6</ele>
        <time>2023-10-11T12:03:12Z</time>
      </trkpt>
      <trkpt lat="49.78173" lon="2.38049">
        <ele>42.5</ele>
        <time>2023-10-11T12:03:13Z</time>
      </trkpt>
      <trkpt lat="49.78173" lon="2.38047">
        <ele>42.5</ele>
        <time>2023-10-11T12:03:14Z</time>
      </trkpt>
      <trkpt lat="49.78173" lon="2.38046">
        <ele>42.5</ele>
        <time>2023-10-11T12:03:15Z</time>
      </trkpt>
      <trkpt lat="49.78173" lon="2.38044">
        <ele>42.5</ele>
        <time>2023-10-11T12:03:16Z</time>
      </trkpt>
      <trkpt lat="49.78173" lon="2.38042">
        <ele>42.5</ele>
        <time>2023-10-11T12:03:17Z</time>
      </trkpt>
      <trkpt lat="49.78172" lon="2.38041">
        <ele>42.5</ele>
        <time>2023-10-11T12:03:18Z</time>
      </trkpt>
      <trkpt lat="49.78172" lon="2.38039">
        <ele>42.5</ele>
        <time>2023-10-11T12:03:19Z</time>
      </trkpt>
      <trkpt lat="49.78172" lon="2.38038">
        <ele>42.5</ele>
        <time>2023-10-11T12:03:20Z</time>
      </trkpt>
      <trkpt lat="49.78172" lon="2.38036">
        <ele>42.5</ele>
        <time>2023-10-11T12:03:21Z</time>
      </trkpt>
      <trkpt lat="49.78171" lon="2.38035">
        <ele>42.5</ele>
        <time>2023-10-11T12:03:22Z</time>
      </trkpt>
      <trkpt lat="49.78171" lon="2.38034">
        <ele>42.5</ele>
        <time>2023-10-11T12:03:23Z</time>
      </trkpt>
      <trkpt lat="49.78171" lon="2.38033">
        <ele>42.5</ele>
        <time>2023-10-11T12:03:24Z</time>
      </trkpt>
      <trkpt lat="49.78171" lon="2.38032">
        <ele>42.5</ele>
        <time>2023-10-11T12:03:25Z</time>
      </trkpt>
      <trkpt lat="49.7817" lon="2.38031">
        <ele>42.5</ele>
        <time>2023-10-11T12:03:26Z</time>
      </trkpt>
      <trkpt lat="49.7817" lon="2.3803">
        <ele>42.4</ele>
        <time>2023-10-11T12:03:27Z</time>
      </trkpt>
      <trkpt lat="49.78169" lon="2.38029">
        <ele>42.4</ele>
        <time>2023-10-11T12:03:28Z</time>
      </trkpt>
      <trkpt lat="49.78168" lon="2.38028">
        <ele>42.4</ele>
        <time>2023-10-11T12:03:29Z</time>
      </trkpt>
      <trkpt lat="49.78168" lon="2.38027">
        <ele>42.4</ele>
        <time>2023-10-11T12:03:30Z</time>
      </trkpt>
      <trkpt lat="49.78167" lon="2.38026">
        <ele>42.4</ele>
        <time>2023-10-11T12:03:31Z</time>
      </trkpt>
      <trkpt lat="49.78167" lon="2.38025">
        <ele>42.4</ele>
        <time>2023-10-11T12:03:32Z</time>
      </trkpt>
      <trkpt lat="49.78166" lon="2.38024">
        <ele>42.4</ele>
        <time>2023-10-11T12:03:33Z</time>
      </trkpt>
      <trkpt lat="49.78166" lon="2.38023">
        <ele>42.4</ele>
        <time>2023-10-11T12:03:34Z</time>
      </trkpt>
      <trkpt lat="49.78165" lon="2.38021">
        <ele>42.4</ele>
        <time>2023-10-11T12:03:35Z</time>
      </trkpt>
      <trkpt lat="49.78165" lon="2.3802">
        <ele>42.4</ele>
        <time>2023-10-11T12:03:36Z</time>
      </trkpt>
      <trkpt lat="49.78164" lon="2.38018">
        <ele>42.4</ele>
        <time>2023-10-11T12:03:37Z</time>
      </trkpt>
      <trkpt lat="49.78164" lon="2.38017">
        <ele>42.4</ele>
        <time>2023-10-11T12:03:38Z</time>
      </trkpt>
      <trkpt lat="49.78164" lon="2.38016">
        <ele>42.4</ele>
        <time>2023-10-11T12:03:39Z</time>
      </trkpt>
      <trkpt lat="49.78163" lon="2.38015">
        <ele>42.4</ele>
        <time>2023-10-11T12:03:40Z</time>
      </trkpt>
      <trkpt lat="49.78163" lon="2.38013">
        <ele>42.4</ele>
        <time>2023-10-11T12:03:41Z</time>
      </trkpt>
      <trkpt lat="49.78162" lon="2.3801">
        <ele>42.4</ele>
        <time>2023-10-11T12:03:42Z</time>
      </trkpt>
      <trkpt lat="49.78162" lon="2.38009">
        <ele>42.4</ele>
        <time>2023-10-11T12:03:44Z</time>
      </trkpt>
      <trkpt lat="49.78162" lon="2.38007">
        <ele>42.4</ele>
        <time>2023-10-11T12:03:45Z</time>
      </trkpt>
      <trkpt lat="49.78162" lon="2.38006">
        <ele>42.4</ele>
        <time>2023-10-11T12:03:46Z</time>
      </trkpt>
      <trkpt lat="49.78161" lon="2.38005">
        <ele>42.4</ele>
        <time>2023-10-11T12:03:47Z</time>
      </trkpt>
      <trkpt lat="49.78161" lon="2.38003">
        <ele>42.4</ele>
        <time>2023-10-11T12:03:48Z</time>
      </trkpt>
      <trkpt lat="49.78161" lon="2.38002">
        <ele>42.4</ele>
        <time>2023-10-11T12:03:49Z</time>
      </trkpt>
      <trkpt lat="49.7816" lon="2.38">
        <ele>42.4</ele>
        <time>2023-10-11T12:03:50Z</time>
      </trkpt>
      <trkpt lat="49.7816" lon="2.37999">
        <ele>42.4</ele>
        <time>2023-10-11T12:03:51Z</time>
      </trkpt>
      <trkpt lat="49.78159" lon="2.37997">
        <ele>42.4</ele>
        <time>2023-10-11T12:03:52Z</time>
      </trkpt>
      <trkpt lat="49.78159" lon="2.37996">
        <ele>42.4</ele>
        <time>2023-10-11T12:03:53Z</time>
      </trkpt>
      <trkpt lat="49.78159" lon="2.37994">
        <ele>42.4</ele>
        <time>2023-10-11T12:03:54Z</time>
      </trkpt>
      <trkpt lat="49.78158" lon="2.37993">
        <ele>42.4</ele>
        <time>2023-10-11T12:03:55Z</time>
      </trkpt>
      <trkpt lat="49.78158" lon="2.37991">
        <ele>42.4</ele>
        <time>2023-10-11T12:03:56Z</time>
      </trkpt>
      <trkpt lat="49.78158" lon="2.3799">
        <ele>42.4</ele>
        <time>2023-10-11T12:03:57Z</time>
      </trkpt>
      <trkpt lat="49.78158" lon="2.37988">
        <ele>42.4</ele>
        <time>2023-10-11T12:03:58Z</time>
      </trkpt>
      <trkpt lat="49.78158" lon="2.37987">
        <ele>42.4</ele>
        <time>2023-10-11T12:03:59Z</time>
      </trkpt>
      <trkpt lat="49.78158" lon="2.37986">
        <ele>42.4</ele>
        <time>2023-10-11T12:04:00Z</time>
      </trkpt>
      <trkpt lat="49.78158" lon="2.37984">
        <ele>42.4</ele>
        <time>2023-10-11T12:04:01Z</time>
      </trkpt>
      <trkpt lat="49.78158" lon="2.37983">
        <ele>42.4</ele>
        <time>2023-10-11T12:04:02Z</time>
      </trkpt>
      <trkpt lat="49.78158" lon="2.37982">
        <ele>42.4</ele>
        <time>2023-10-11T12:04:03Z</time>
      </trkpt>
      <trkpt lat="49.78158" lon="2.37981">
        <ele>42.4</ele>
        <time>2023-10-11T12:04:04Z</time>
      </trkpt>
      <trkpt lat="49.78157" lon="2.3798">
        <ele>42.4</ele>
        <time>2023-10-11T12:04:05Z</time>
      </trkpt>
      <trkpt lat="49.78157" lon="2.37979">
        <ele>42.4</ele>
        <time>2023-10-11T12:04:06Z</time>
      </trkpt>
      <trkpt lat="49.78156" lon="2.37978">
        <ele>42.4</ele>
        <time>2023-10-11T12:04:07Z</time>
      </trkpt>
      <trkpt lat="49.78156" lon="2.37978">
        <ele>42.4</ele>
        <time>2023-10-11T12:04:08Z</time>
      </trkpt>
      <trkpt lat="49.78155" lon="2.37977">
        <ele>42.4</ele>
        <time>2023-10-11T12:04:09Z</time>
      </trkpt>
      <trkpt lat="49.78155" lon="2.37976">
        <ele>42.4</ele>
        <time>2023-10-11T12:04:10Z</time>
      </trkpt>
      <trkpt lat="49.78154" lon="2.37975">
        <ele>42.4</ele>
        <time>2023-10-11T12:04:11Z</time>
      </trkpt>
      <trkpt lat="49.78154" lon="2.37974">
        <ele>42.4</ele>
        <time>2023-10-11T12:04:12Z</time>
      </trkpt>
      <trkpt lat="49.78154" lon="2.37973">
        <ele>42.4</ele>
        <time>2023-10-11T12:04:13Z</time>
      </trkpt>
      <trkpt lat="49.78154" lon="2.37972">
        <ele>42.4</ele>
        <time>2023-10-11T12:04:14Z</time>
      </trkpt>
      <trkpt lat="49.78153" lon="2.37971">
        <ele>42.4</ele>
        <time>2023-10-11T12:04:15Z</time>
      </trkpt>
      <trkpt lat="49.78153" lon="2.3797">
        <ele>42.4</ele>
        <time>2023-10-11T12:04:16Z</time>
      </trkpt>
      <trkpt lat="49.78153" lon="2.37969">
        <ele>42.4</ele>
        <time>2023-10-11T12:04:17Z</time>
      </trkpt>
      <trkpt lat="49.78153" lon="2.37968">
        <ele>42.4</ele>
        <time>2023-10-11T12:04:18Z</time>
      </trkpt>
      <trkpt lat="49.78153" lon="2.37966">
        <ele>42.4</ele>
        <time>2023-10-11T12:04:19Z</time>
      </trkpt>
      <trkpt lat="49.78154" lon="2.37964">
        <ele>42.3</ele>
        <time>2023-10-11T12:04:20Z</time>
      </trkpt>
      <trkpt lat="49.78154" lon="2.37962">
        <ele>42.3</ele>
        <time>2023-10-11T12:04:21Z</time>
      </trkpt>
      <trkpt lat="49.78154" lon="2.37961">
        <ele>42.3</ele>
        <time>2023-10-11T12:04:22Z</time>
      </trkpt>
      <trkpt lat="49.78154" lon="2.37958">
        <ele>42.3</ele>
        <time>2023-10-11T12:04:23Z</time>
      </trkpt>
      <trkpt lat="49.78155" lon="2.37956">
        <ele>42.3</ele>
        <time>2023-10-11T12:04:24Z</time>
      </trkpt>
      <trkpt lat="49.78155" lon="2.37955">
        <ele>42.3</ele>
        <time>2023-10-11T12:04:25Z</time>
      </trkpt>
      <trkpt lat="49.78155" lon="2.37952">
        <ele>42.2</ele>
        <time>2023-10-11T12:04:26Z</time>
      </trkpt>
      <trkpt lat="49.78155" lon="2.3795">
        <ele>42.2</ele>
        <time>2023-10-11T12:04:27Z</time>
      </trkpt>
      <trkpt lat="49.78155" lon="2.37949">
        <ele>42.2</ele>
        <time>2023-10-11T12:04:28Z</time>
      </trkpt>
      <trkpt lat="49.78155" lon="2.37947">
        <ele>42.2</ele>
        <time>2023-10-11T12:04:29Z</time>
      </trkpt>
      <trkpt lat="49.78156" lon="2.37945">
        <ele>42.1</ele>
        <time>2023-10-11T12:04:30Z</time>
      </trkpt>
      <trkpt lat="49.78156" lon="2.37944">
        <ele>42.1</ele>
        <time>2023-10-11T12:04:31Z</time>
      </trkpt>
      <trkpt lat="49.78156" lon="2.37942">
        <ele>42.1</ele>
        <time>2023-10-11T12:04:32Z</time>
      </trkpt>
      <trkpt lat="49.78156" lon="2.3794">
        <ele>42.1</ele>
        <time>2023-10-11T12:04:33Z</time>
      </trkpt>
      <trkpt lat="49.78156" lon="2.37938">
        <ele>42</ele>
        <time>2023-10-11T12:04:34Z</time>
      </trkpt>
      <trkpt lat="49.78156" lon="2.37937">
        <ele>42</ele>
        <time>2023-10-11T12:04:35Z</time>
      </trkpt>
      <trkpt lat="49.78157" lon="2.37935">
        <ele>42</ele>
        <time>2023-10-11T12:04:36Z</time>
      </trkpt>
      <trkpt lat="49.78157" lon="2.37933">
        <ele>42</ele>
        <time>2023-10-11T12:04:37Z</time>
      </trkpt>
      <trkpt lat="49.78157" lon="2.37932">
        <ele>42</ele>
        <time>2023-10-11T12:04:38Z</time>
      </trkpt>
      <trkpt lat="49.78157" lon="2.3793">
        <ele>41.9</ele>
        <time>2023-10-11T12:04:39Z</time>
      </trkpt>
      <trkpt lat="49.78157" lon="2.37929">
        <ele>41.9</ele>
        <time>2023-10-11T12:04:40Z</time>
      </trkpt>
      <trkpt lat="49.78157" lon="2.37927">
        <ele>41.9</ele>
        <time>2023-10-11T12:04:41Z</time>
      </trkpt>
      <trkpt lat="49.78157" lon="2.37926">
        <ele>41.9</ele>
        <time>2023-10-11T12:04:42Z</time>
      </trkpt>
      <trkpt lat="49.78157" lon="2.37925">
        <ele>41.9</ele>
        <time>2023-10-11T12:04:43Z</time>
      </trkpt>
      <trkpt lat="49.78157" lon="2.37924">
        <ele>41.8</ele>
        <time>2023-10-11T12:04:44Z</time>
      </trkpt>
      <trkpt lat="49.78157" lon="2.37922">
        <ele>41.8</ele>
        <time>2023-10-11T12:04:45Z</time>
      </trkpt>
      <trkpt lat="49.78156" lon="2.37921">
        <ele>41.8</ele>
        <time>2023-10-11T12:04:46Z</time>
      </trkpt>
      <trkpt lat="49.78156" lon="2.3792">
        <ele>41.8</ele>
        <time>2023-10-11T12:04:47Z</time>
      </trkpt>
      <trkpt lat="49.78156" lon="2.37919">
        <ele>41.8</ele>
        <time>2023-10-11T12:04:48Z</time>
      </trkpt>
      <trkpt lat="49.78156" lon="2.37918">
        <ele>41.8</ele>
        <time>2023-10-11T12:04:49Z</time>
      </trkpt>
      <trkpt lat="49.78156" lon="2.37916">
        <ele>41.7</ele>
        <time>2023-10-11T12:04:50Z</time>
      </trkpt>
      <trkpt lat="49.78156" lon="2.37915">
        <ele>41.7</ele>
        <time>2023-10-11T12:04:51Z</time>
      </trkpt>
      <trkpt lat="49.78155" lon="2.37914">
        <ele>41.7</ele>
        <time>2023-10-11T12:04:52Z</time>
      </trkpt>
      <trkpt lat="49.78155" lon="2.37913">
        <ele>41.7</ele>
        <time>2023-10-11T12:04:53Z</time>
      </trkpt>
      <trkpt lat="49.78155" lon="2.37912">
        <ele>41.7</ele>
        <time>2023-10-11T12:04:54Z</time>
      </trkpt>
      <trkpt lat="49.78155" lon="2.3791">
        <ele>41.7</ele>
        <time>2023-10-11T12:04:55Z</time>
      </trkpt>
      <trkpt lat="49.78155" lon="2.37909">
        <ele>41.7</ele>
        <time>2023-10-11T12:04:56Z</time>
      </trkpt>
      <trkpt lat="49.78156" lon="2.37908">
        <ele>41.6</ele>
        <time>2023-10-11T12:04:57Z</time>
      </trkpt>
      <trkpt lat="49.78156" lon="2.37907">
        <ele>41.6</ele>
        <time>2023-10-11T12:04:58Z</time>
      </trkpt>
      <trkpt lat="49.78156" lon="2.37905">
        <ele>41.6</ele>
        <time>2023-10-11T12:04:59Z</time>
      </trkpt>
      <trkpt lat="49.78156" lon="2.37904">
        <ele>41.6</ele>
        <time>2023-10-11T12:05:00Z</time>
      </trkpt>
      <trkpt lat="49.78156" lon="2.37903">
        <ele>41.6</ele>
        <time>2023-10-11T12:05:01Z</time>
      </trkpt>
      <trkpt lat="49.78156" lon="2.37901">
        <ele>41.6</ele>
        <time>2023-10-11T12:05:02Z</time>
      </trkpt>
      <trkpt lat="49.78156" lon="2.379">
        <ele>41.6</ele>
        <time>2023-10-11T12:05:03Z</time>
      </trkpt>
      <trkpt lat="49.78156" lon="2.37898">
        <ele>41.5</ele>
        <time>2023-10-11T12:05:04Z</time>
      </trkpt>
      <trkpt lat="49.78157" lon="2.37896">
        <ele>41.5</ele>
        <time>2023-10-11T12:05:05Z</time>
      </trkpt>
      <trkpt lat="49.78157" lon="2.37895">
        <ele>41.5</ele>
        <time>2023-10-11T12:05:06Z</time>
      </trkpt>
      <trkpt lat="49.78157" lon="2.37893">
        <ele>41.5</ele>
        <time>2023-10-11T12:05:07Z</time>
      </trkpt>
      <trkpt lat="49.78157" lon="2.37892">
        <ele>41.5</ele>
        <time>2023-10-11T12:05:08Z</time>
      </trkpt>
      <trkpt lat="49.78157" lon="2.3789">
        <ele>41.5</ele>
        <time>2023-10-11T12:05:09Z</time>
      </trkpt>
      <trkpt lat="49.78158" lon="2.37887">
        <ele>41.4</ele>
        <time>2023-10-11T12:05:10Z</time>
      </trkpt>
      <trkpt lat="49.78158" lon="2.37885">
        <ele>41.4</ele>
        <time>2023-10-11T12:05:11Z</time>
      </trkpt>
      <trkpt lat="49.78158" lon="2.37884">
        <ele>41.4</ele>
        <time>2023-10-11T12:05:12Z</time>
      </trkpt>
      <trkpt lat="49.78159" lon="2.3788">
        <ele>41.4</ele>
        <time>2023-10-11T12:05:13Z</time>
      </trkpt>
      <trkpt lat="49.78159" lon="2.37878">
        <ele>41.4</ele>
        <time>2023-10-11T12:05:14Z</time>
      </trkpt>
      <trkpt lat="49.78159" lon="2.37876">
        <ele>41.4</ele>
        <time>2023-10-11T12:05:15Z</time>
      </trkpt>
      <trkpt lat="49.7816" lon="2.37873">
        <ele>41.3</ele>
        <time>2023-10-11T12:05:17Z</time>
      </trkpt>
      <trkpt lat="49.7816" lon="2.37871">
        <ele>41.3</ele>
        <time>2023-10-11T12:05:18Z</time>
      </trkpt>
      <trkpt lat="49.7816" lon="2.3787">
        <ele>41.3</ele>
        <time>2023-10-11T12:05:19Z</time>
      </trkpt>
      <trkpt lat="49.7816" lon="2.37869">
        <ele>41.3</ele>
        <time>2023-10-11T12:05:20Z</time>
      </trkpt>
      <trkpt lat="49.7816" lon="2.37867">
        <ele>41.3</ele>
        <time>2023-10-11T12:05:21Z</time>
      </trkpt>
      <trkpt lat="49.7816" lon="2.37865">
        <ele>41.3</ele>
        <time>2023-10-11T12:05:22Z</time>
      </trkpt>
      <trkpt lat="49.78161" lon="2.37864">
        <ele>41.3</ele>
        <time>2023-10-11T12:05:23Z</time>
      </trkpt>
      <trkpt lat="49.78161" lon="2.37862">
        <ele>41.3</ele>
        <time>2023-10-11T12:05:24Z</time>
      </trkpt>
      <trkpt lat="49.78161" lon="2.37861">
        <ele>41.3</ele>
        <time>2023-10-11T12:05:25Z</time>
      </trkpt>
      <trkpt lat="49.78162" lon="2.37859">
        <ele>41.3</ele>
        <time>2023-10-11T12:05:26Z</time>
      </trkpt>
      <trkpt lat="49.78162" lon="2.37858">
        <ele>41.3</ele>
        <time>2023-10-11T12:05:27Z</time>
      </trkpt>
      <trkpt lat="49.78162" lon="2.37857">
        <ele>41.3</ele>
        <time>2023-10-11T12:05:28Z</time>
      </trkpt>
      <trkpt lat="49.78162" lon="2.37855">
        <ele>41.3</ele>
        <time>2023-10-11T12:05:29Z</time>
      </trkpt>
      <trkpt lat="49.78162" lon="2.37854">
        <ele>41.3</ele>
        <time>2023-10-11T12:05:30Z</time>
      </trkpt>
      <trkpt lat="49.78163" lon="2.37853">
        <ele>41.3</ele>
        <time>2023-10-11T12:05:31Z</time>
      </trkpt>
      <trkpt lat="49.78163" lon="2.37851">
        <ele>41.3</ele>
        <time>2023-10-11T12:05:32Z</time>
      </trkpt>
      <trkpt lat="49.78163" lon="2.3785">
        <ele>41.3</ele>
        <time>2023-10-11T12:05:33Z</time>
      </trkpt>
      <trkpt lat="49.78163" lon="2.37848">
        <ele>41.3</ele>
        <time>2023-10-11T12:05:34Z</time>
      </trkpt>
      <trkpt lat="49.78163" lon="2.37847">
        <ele>41.3</ele>
        <time>2023-10-11T12:05:35Z</time>
      </trkpt>
      <trkpt lat="49.78163" lon="2.37846">
        <ele>41.3</ele>
        <time>2023-10-11T12:05:36Z</time>
      </trkpt>
      <trkpt lat="49.78163" lon="2.37844">
        <ele>41.3</ele>
        <time>2023-10-11T12:05:37Z</time>
      </trkpt>
      <trkpt lat="49.78164" lon="2.37843">
        <ele>41.3</ele>
        <time>2023-10-11T12:05:38Z</time>
      </trkpt>
      <trkpt lat="49.78164" lon="2.37841">
        <ele>41.3</ele>
        <time>2023-10-11T12:05:39Z</time>
      </trkpt>
      <trkpt lat="49.78164" lon="2.3784">
        <ele>41.3</ele>
        <time>2023-10-11T12:05:40Z</time>
      </trkpt>
      <trkpt lat="49.78164" lon="2.37838">
        <ele>41.3</ele>
        <time>2023-10-11T12:05:41Z</time>
      </trkpt>
      <trkpt lat="49.78164" lon="2.37837">
        <ele>41.3</ele>
        <time>2023-10-11T12:05:42Z</time>
      </trkpt>
      <trkpt lat="49.78164" lon="2.37836">
        <ele>41.3</ele>
        <time>2023-10-11T12:05:43Z</time>
      </trkpt>
      <trkpt lat="49.78164" lon="2.37834">
        <ele>41.3</ele>
        <time>2023-10-11T12:05:44Z</time>
      </trkpt>
      <trkpt lat="49.78164" lon="2.37833">
        <ele>41.2</ele>
        <time>2023-10-11T12:05:45Z</time>
      </trkpt>
      <trkpt lat="49.78164" lon="2.37831">
        <ele>41.2</ele>
        <time>2023-10-11T12:05:46Z</time>
      </trkpt>
      <trkpt lat="49.78164" lon="2.3783">
        <ele>41.2</ele>
        <time>2023-10-11T12:05:47Z</time>
      </trkpt>
      <trkpt lat="49.78164" lon="2.37828">
        <ele>41.2</ele>
        <time>2023-10-11T12:05:48Z</time>
      </trkpt>
      <trkpt lat="49.78164" lon="2.37827">
        <ele>41.2</ele>
        <time>2023-10-11T12:05:49Z</time>
      </trkpt>
      <trkpt lat="49.78164" lon="2.37825">
        <ele>41.2</ele>
        <time>2023-10-11T12:05:50Z</time>
      </trkpt>
      <trkpt lat="49.78165" lon="2.37823">
        <ele>41.2</ele>
        <time>2023-10-11T12:05:51Z</time>
      </trkpt>
      <trkpt lat="49.78165" lon="2.37822">
        <ele>41.2</ele>
        <time>2023-10-11T12:05:52Z</time>
      </trkpt>
      <trkpt lat="49.78165" lon="2.37821">
        <ele>41.2</ele>
        <time>2023-10-11T12:05:53Z</time>
      </trkpt>
      <trkpt lat="49.78165" lon="2.3782">
        <ele>41.2</ele>
        <time>2023-10-11T12:05:54Z</time>
      </trkpt>
      <trkpt lat="49.78165" lon="2.37818">
        <ele>41.2</ele>
        <time>2023-10-11T12:05:55Z</time>
      </trkpt>
      <trkpt lat="49.78164" lon="2.37816">
        <ele>41.2</ele>
        <time>2023-10-11T12:05:56Z</time>
      </trkpt>
      <trkpt lat="49.78164" lon="2.37815">
        <ele>41.2</ele>
        <time>2023-10-11T12:05:57Z</time>
      </trkpt>
      <trkpt lat="49.78164" lon="2.37813">
        <ele>41.2</ele>
        <time>2023-10-11T12:05:58Z</time>
      </trkpt>
      <trkpt lat="49.78164" lon="2.37812">
        <ele>41.2</ele>
        <time>2023-10-11T12:05:59Z</time>
      </trkpt>
      <trkpt lat="49.78164" lon="2.3781">
        <ele>41.2</ele>
        <time>2023-10-11T12:06:00Z</time>
      </trkpt>
      <trkpt lat="49.78164" lon="2.37809">
        <ele>41.2</ele>
        <time>2023-10-11T12:06:01Z</time>
      </trkpt>
      <trkpt lat="49.78164" lon="2.37807">
        <ele>41.2</ele>
        <time>2023-10-11T12:06:02Z</time>
      </trkpt>
      <trkpt lat="49.78164" lon="2.37806">
        <ele>41.2</ele>
        <time>2023-10-11T12:06:03Z</time>
      </trkpt>
      <trkpt lat="49.78163" lon="2.37804">
        <ele>41.2</ele>
        <time>2023-10-11T12:06:04Z</time>
      </trkpt>
      <trkpt lat="49.78163" lon="2.37802">
        <ele>41.2</ele>
        <time>2023-10-11T12:06:05Z</time>
      </trkpt>
      <trkpt lat="49.78163" lon="2.37801">
        <ele>41.2</ele>
        <time>2023-10-11T12:06:06Z</time>
      </trkpt>
      <trkpt lat="49.78163" lon="2.37799">
        <ele>41.1</ele>
        <time>2023-10-11T12:06:07Z</time>
      </trkpt>
      <trkpt lat="49.78163" lon="2.37798">
        <ele>41.1</ele>
        <time>2023-10-11T12:06:08Z</time>
      </trkpt>
      <trkpt lat="49.78162" lon="2.37796">
        <ele>41.1</ele>
        <time>2023-10-11T12:06:09Z</time>
      </trkpt>
      <trkpt lat="49.78162" lon="2.37794">
        <ele>41.1</ele>
        <time>2023-10-11T12:06:10Z</time>
      </trkpt>
      <trkpt lat="49.78162" lon="2.37793">
        <ele>41.1</ele>
        <time>2023-10-11T12:06:11Z</time>
      </trkpt>
      <trkpt lat="49.78162" lon="2.37791">
        <ele>41.1</ele>
        <time>2023-10-11T12:06:12Z</time>
      </trkpt>
      <trkpt lat="49.78161" lon="2.37788">
        <ele>41.1</ele>
        <time>2023-10-11T12:06:13Z</time>
      </trkpt>
      <trkpt lat="49.78161" lon="2.37787">
        <ele>41.1</ele>
        <time>2023-10-11T12:06:14Z</time>
      </trkpt>
      <trkpt lat="49.78161" lon="2.37785">
        <ele>41.1</ele>
        <time>2023-10-11T12:06:15Z</time>
      </trkpt>
      <trkpt lat="49.78161" lon="2.37784">
        <ele>41.1</ele>
        <time>2023-10-11T12:06:16Z</time>
      </trkpt>
      <trkpt lat="49.7816" lon="2.37782">
        <ele>41.1</ele>
        <time>2023-10-11T12:06:17Z</time>
      </trkpt>
      <trkpt lat="49.7816" lon="2.3778">
        <ele>41.1</ele>
        <time>2023-10-11T12:06:18Z</time>
      </trkpt>
      <trkpt lat="49.78159" lon="2.37777">
        <ele>41</ele>
        <time>2023-10-11T12:06:19Z</time>
      </trkpt>
      <trkpt lat="49.78159" lon="2.37776">
        <ele>41</ele>
        <time>2023-10-11T12:06:20Z</time>
      </trkpt>
      <trkpt lat="49.78159" lon="2.37774">
        <ele>41</ele>
        <time>2023-10-11T12:06:21Z</time>
      </trkpt>
      <trkpt lat="49.78159" lon="2.37771">
        <ele>41</ele>
        <time>2023-10-11T12:06:22Z</time>
      </trkpt>
      <trkpt lat="49.78159" lon="2.3777">
        <ele>41</ele>
        <time>2023-10-11T12:06:23Z</time>
      </trkpt>
      <trkpt lat="49.78159" lon="2.37768">
        <ele>41</ele>
        <time>2023-10-11T12:06:24Z</time>
      </trkpt>
      <trkpt lat="49.78159" lon="2.37765">
        <ele>41</ele>
        <time>2023-10-11T12:06:25Z</time>
      </trkpt>
      <trkpt lat="49.78158" lon="2.37764">
        <ele>41</ele>
        <time>2023-10-11T12:06:26Z</time>
      </trkpt>
      <trkpt lat="49.78158" lon="2.37762">
        <ele>41</ele>
        <time>2023-10-11T12:06:27Z</time>
      </trkpt>
      <trkpt lat="49.78158" lon="2.37761">
        <ele>41</ele>
        <time>2023-10-11T12:06:28Z</time>
      </trkpt>
      <trkpt lat="49.78158" lon="2.37759">
        <ele>41</ele>
        <time>2023-10-11T12:06:29Z</time>
      </trkpt>
      <trkpt lat="49.78158" lon="2.37757">
        <ele>41</ele>
        <time>2023-10-11T12:06:30Z</time>
      </trkpt>
      <trkpt lat="49.78158" lon="2.37755">
        <ele>41</ele>
        <time>2023-10-11T12:06:31Z</time>
      </trkpt>
      <trkpt lat="49.78158" lon="2.37754">
        <ele>41</ele>
        <time>2023-10-11T12:06:32Z</time>
      </trkpt>
      <trkpt lat="49.78157" lon="2.37752">
        <ele>41</ele>
        <time>2023-10-11T12:06:33Z</time>
      </trkpt>
      <trkpt lat="49.78157" lon="2.3775">
        <ele>41</ele>
        <time>2023-10-11T12:06:34Z</time>
      </trkpt>
      <trkpt lat="49.78157" lon="2.37749">
        <ele>41</ele>
        <time>2023-10-11T12:06:35Z</time>
      </trkpt>
      <trkpt lat="49.78157" lon="2.37747">
        <ele>41</ele>
        <time>2023-10-11T12:06:36Z</time>
      </trkpt>
      <trkpt lat="49.78157" lon="2.37745">
        <ele>41</ele>
        <time>2023-10-11T12:06:37Z</time>
      </trkpt>
      <trkpt lat="49.78156" lon="2.37743">
        <ele>41</ele>
        <time>2023-10-11T12:06:38Z</time>
      </trkpt>
      <trkpt lat="49.78156" lon="2.37742">
        <ele>41</ele>
        <time>2023-10-11T12:06:39Z</time>
      </trkpt>
      <trkpt lat="49.78156" lon="2.37739">
        <ele>41.1</ele>
        <time>2023-10-11T12:06:40Z</time>
      </trkpt>
      <trkpt lat="49.78156" lon="2.37737">
        <ele>41.1</ele>
        <time>2023-10-11T12:06:41Z</time>
      </trkpt>
      <trkpt lat="49.78156" lon="2.37736">
        <ele>41.1</ele>
        <time>2023-10-11T12:06:42Z</time>
      </trkpt>
      <trkpt lat="49.78156" lon="2.37734">
        <ele>41.1</ele>
        <time>2023-10-11T12:06:43Z</time>
      </trkpt>
      <trkpt lat="49.78155" lon="2.37732">
        <ele>41.1</ele>
        <time>2023-10-11T12:06:44Z</time>
      </trkpt>
      <trkpt lat="49.78155" lon="2.3773">
        <ele>41.1</ele>
        <time>2023-10-11T12:06:45Z</time>
      </trkpt>
      <trkpt lat="49.78154" lon="2.37728">
        <ele>41.1</ele>
        <time>2023-10-11T12:06:46Z</time>
      </trkpt>
      <trkpt lat="49.78154" lon="2.37725">
        <ele>41.1</ele>
        <time>2023-10-11T12:06:47Z</time>
      </trkpt>
      <trkpt lat="49.78153" lon="2.37724">
        <ele>41.1</ele>
        <time>2023-10-11T12:06:48Z</time>
      </trkpt>
      <trkpt lat="49.78153" lon="2.37722">
        <ele>41.1</ele>
        <time>2023-10-11T12:06:49Z</time>
      </trkpt>
      <trkpt lat="49.78152" lon="2.3772">
        <ele>41.2</ele>
        <time>2023-10-11T12:06:50Z</time>
      </trkpt>
      <trkpt lat="49.78152" lon="2.37718">
        <ele>41.2</ele>
        <time>2023-10-11T12:06:51Z</time>
      </trkpt>
      <trkpt lat="49.78151" lon="2.37717">
        <ele>41.2</ele>
        <time>2023-10-11T12:06:52Z</time>
      </trkpt>
      <trkpt lat="49.78151" lon="2.37716">
        <ele>41.2</ele>
        <time>2023-10-11T12:06:53Z</time>
      </trkpt>
      <trkpt lat="49.7815" lon="2.37714">
        <ele>41.2</ele>
        <time>2023-10-11T12:06:54Z</time>
      </trkpt>
      <trkpt lat="49.78149" lon="2.37712">
        <ele>41.2</ele>
        <time>2023-10-11T12:06:55Z</time>
      </trkpt>
      <trkpt lat="49.78148" lon="2.37711">
        <ele>41.2</ele>
        <time>2023-10-11T12:06:56Z</time>
      </trkpt>
      <trkpt lat="49.78148" lon="2.37709">
        <ele>41.2</ele>
        <time>2023-10-11T12:06:57Z</time>
      </trkpt>
      <trkpt lat="49.78147" lon="2.37708">
        <ele>41.2</ele>
        <time>2023-10-11T12:06:58Z</time>
      </trkpt>
      <trkpt lat="49.78146" lon="2.37707">
        <ele>41.2</ele>
        <time>2023-10-11T12:06:59Z</time>
      </trkpt>
      <trkpt lat="49.78145" lon="2.37706">
        <ele>41.2</ele>
        <time>2023-10-11T12:07:00Z</time>
      </trkpt>
      <trkpt lat="49.78145" lon="2.37704">
        <ele>41.3</ele>
        <time>2023-10-11T12:07:01Z</time>
      </trkpt>
      <trkpt lat="49.78144" lon="2.37703">
        <ele>41.3</ele>
        <time>2023-10-11T12:07:02Z</time>
      </trkpt>
      <trkpt lat="49.78143" lon="2.37702">
        <ele>41.3</ele>
        <time>2023-10-11T12:07:03Z</time>
      </trkpt>
      <trkpt lat="49.78142" lon="2.37701">
        <ele>41.3</ele>
        <time>2023-10-11T12:07:04Z</time>
      </trkpt>
      <trkpt lat="49.78141" lon="2.377">
        <ele>41.3</ele>
        <time>2023-10-11T12:07:05Z</time>
      </trkpt>
      <trkpt lat="49.7814" lon="2.377">
        <ele>41.3</ele>
        <time>2023-10-11T12:07:06Z</time>
      </trkpt>
      <trkpt lat="49.78139" lon="2.37698">
        <ele>41.3</ele>
        <time>2023-10-11T12:07:07Z</time>
      </trkpt>
      <trkpt lat="49.78138" lon="2.37697">
        <ele>41.3</ele>
        <time>2023-10-11T12:07:08Z</time>
      </trkpt>
      <trkpt lat="49.78137" lon="2.37697">
        <ele>41.3</ele>
        <time>2023-10-11T12:07:09Z</time>
      </trkpt>
      <trkpt lat="49.78136" lon="2.37695">
        <ele>41.3</ele>
        <time>2023-10-11T12:07:10Z</time>
      </trkpt>
      <trkpt lat="49.78135" lon="2.37694">
        <ele>41.3</ele>
        <time>2023-10-11T12:07:11Z</time>
      </trkpt>
      <trkpt lat="49.78133" lon="2.37692">
        <ele>41.3</ele>
        <time>2023-10-11T12:07:12Z</time>
      </trkpt>
      <trkpt lat="49.78132" lon="2.37692">
        <ele>41.3</ele>
        <time>2023-10-11T12:07:13Z</time>
      </trkpt>
      <trkpt lat="49.78132" lon="2.37691">
        <ele>41.4</ele>
        <time>2023-10-11T12:07:14Z</time>
      </trkpt>
      <trkpt lat="49.78131" lon="2.3769">
        <ele>41.4</ele>
        <time>2023-10-11T12:07:15Z</time>
      </trkpt>
      <trkpt lat="49.7813" lon="2.37689">
        <ele>41.4</ele>
        <time>2023-10-11T12:07:16Z</time>
      </trkpt>
      <trkpt lat="49.78129" lon="2.37688">
        <ele>41.4</ele>
        <time>2023-10-11T12:07:17Z</time>
      </trkpt>
      <trkpt lat="49.78127" lon="2.37687">
        <ele>41.4</ele>
        <time>2023-10-11T12:07:18Z</time>
      </trkpt>
      <trkpt lat="49.78127" lon="2.37686">
        <ele>41.4</ele>
        <time>2023-10-11T12:07:19Z</time>
      </trkpt>
      <trkpt lat="49.78126" lon="2.37685">
        <ele>41.4</ele>
        <time>2023-10-11T12:07:20Z</time>
      </trkpt>
      <trkpt lat="49.78124" lon="2.37684">
        <ele>41.4</ele>
        <time>2023-10-11T12:07:21Z</time>
      </trkpt>
      <trkpt lat="49.78123" lon="2.37683">
        <ele>41.4</ele>
        <time>2023-10-11T12:07:22Z</time>
      </trkpt>
      <trkpt lat="49.78123" lon="2.37683">
        <ele>41.4</ele>
        <time>2023-10-11T12:07:23Z</time>
      </trkpt>
      <trkpt lat="49.78121" lon="2.37682">
        <ele>41.4</ele>
        <time>2023-10-11T12:07:24Z</time>
      </trkpt>
      <trkpt lat="49.7812" lon="2.37681">
        <ele>41.4</ele>
        <time>2023-10-11T12:07:25Z</time>
      </trkpt>
      <trkpt lat="49.78119" lon="2.37681">
        <ele>41.4</ele>
        <time>2023-10-11T12:07:26Z</time>
      </trkpt>
      <trkpt lat="49.78118" lon="2.3768">
        <ele>41.4</ele>
        <time>2023-10-11T12:07:27Z</time>
      </trkpt>
      <trkpt lat="49.78117" lon="2.37679">
        <ele>41.4</ele>
        <time>2023-10-11T12:07:28Z</time>
      </trkpt>
      <trkpt lat="49.78115" lon="2.37678">
        <ele>41.4</ele>
        <time>2023-10-11T12:07:29Z</time>
      </trkpt>
      <trkpt lat="49.78114" lon="2.37677">
        <ele>41.4</ele>
        <time>2023-10-11T12:07:30Z</time>
      </trkpt>
      <trkpt lat="49.78112" lon="2.37676">
        <ele>41.4</ele>
        <time>2023-10-11T12:07:31Z</time>
      </trkpt>
      <trkpt lat="49.78112" lon="2.37675">
        <ele>41.4</ele>
        <time>2023-10-11T12:07:32Z</time>
      </trkpt>
      <trkpt lat="49.78111" lon="2.37674">
        <ele>41.4</ele>
        <time>2023-10-11T12:07:33Z</time>
      </trkpt>
      <trkpt lat="49.78109" lon="2.37673">
        <ele>41.4</ele>
        <time>2023-10-11T12:07:34Z</time>
      </trkpt>
      <trkpt lat="49.78108" lon="2.37672">
        <ele>41.4</ele>
        <time>2023-10-11T12:07:35Z</time>
      </trkpt>
      <trkpt lat="49.78107" lon="2.37672">
        <ele>41.4</ele>
        <time>2023-10-11T12:07:36Z</time>
      </trkpt>
      <trkpt lat="49.78105" lon="2.3767">
        <ele>41.5</ele>
        <time>2023-10-11T12:07:37Z</time>
      </trkpt>
      <trkpt lat="49.78104" lon="2.37669">
        <ele>41.5</ele>
        <time>2023-10-11T12:07:38Z</time>
      </trkpt>
      <trkpt lat="49.78103" lon="2.37668">
        <ele>41.5</ele>
        <time>2023-10-11T12:07:40Z</time>
      </trkpt>
      <trkpt lat="49.78102" lon="2.37666">
        <ele>41.5</ele>
        <time>2023-10-11T12:07:41Z</time>
      </trkpt>
      <trkpt lat="49.78101" lon="2.37665">
        <ele>41.5</ele>
        <time>2023-10-11T12:07:43Z</time>
      </trkpt>
      <trkpt lat="49.781" lon="2.37664">
        <ele>41.5</ele>
        <time>2023-10-11T12:07:44Z</time>
      </trkpt>
      <trkpt lat="49.78099" lon="2.37663">
        <ele>41.5</ele>
        <time>2023-10-11T12:07:45Z</time>
      </trkpt>
      <trkpt lat="49.78098" lon="2.37661">
        <ele>41.5</ele>
        <time>2023-10-11T12:07:46Z</time>
      </trkpt>
      <trkpt lat="49.78097" lon="2.3766">
        <ele>41.5</ele>
        <time>2023-10-11T12:07:47Z</time>
      </trkpt>
      <trkpt lat="49.78097" lon="2.37659">
        <ele>41.5</ele>
        <time>2023-10-11T12:07:48Z</time>
      </trkpt>
      <trkpt lat="49.78096" lon="2.37658">
        <ele>41.5</ele>
        <time>2023-10-11T12:07:49Z</time>
      </trkpt>
      <trkpt lat="49.78095" lon="2.37657">
        <ele>41.5</ele>
        <time>2023-10-11T12:07:50Z</time>
      </trkpt>
      <trkpt lat="49.78094" lon="2.37656">
        <ele>41.5</ele>
        <time>2023-10-11T12:07:51Z</time>
      </trkpt>
      <trkpt lat="49.78094" lon="2.37656">
        <ele>41.5</ele>
        <time>2023-10-11T12:07:52Z</time>
      </trkpt>
      <trkpt lat="49.78093" lon="2.37655">
        <ele>41.5</ele>
        <time>2023-10-11T12:07:53Z</time>
      </trkpt>
      <trkpt lat="49.78092" lon="2.37654">
        <ele>41.5</ele>
        <time>2023-10-11T12:07:54Z</time>
      </trkpt>
      <trkpt lat="49.78091" lon="2.37653">
        <ele>41.6</ele>
        <time>2023-10-11T12:07:55Z</time>
      </trkpt>
      <trkpt lat="49.78091" lon="2.37652">
        <ele>41.6</ele>
        <time>2023-10-11T12:07:56Z</time>
      </trkpt>
      <trkpt lat="49.7809" lon="2.37651">
        <ele>41.6</ele>
        <time>2023-10-11T12:07:57Z</time>
      </trkpt>
      <trkpt lat="49.78089" lon="2.3765">
        <ele>41.6</ele>
        <time>2023-10-11T12:07:58Z</time>
      </trkpt>
      <trkpt lat="49.78088" lon="2.37649">
        <ele>41.6</ele>
        <time>2023-10-11T12:07:59Z</time>
      </trkpt>
      <trkpt lat="49.78087" lon="2.37648">
        <ele>41.6</ele>
        <time>2023-10-11T12:08:00Z</time>
      </trkpt>
      <trkpt lat="49.78087" lon="2.37647">
        <ele>41.6</ele>
        <time>2023-10-11T12:08:01Z</time>
      </trkpt>
      <trkpt lat="49.78086" lon="2.37646">
        <ele>41.6</ele>
        <time>2023-10-11T12:08:02Z</time>
      </trkpt>
      <trkpt lat="49.78085" lon="2.37646">
        <ele>41.7</ele>
        <time>2023-10-11T12:08:03Z</time>
      </trkpt>
      <trkpt lat="49.78084" lon="2.37645">
        <ele>41.7</ele>
        <time>2023-10-11T12:08:04Z</time>
      </trkpt>
      <trkpt lat="49.78083" lon="2.37645">
        <ele>41.7</ele>
        <time>2023-10-11T12:08:05Z</time>
      </trkpt>
      <trkpt lat="49.78083" lon="2.37644">
        <ele>41.7</ele>
        <time>2023-10-11T12:08:06Z</time>
      </trkpt>
      <trkpt lat="49.78082" lon="2.37643">
        <ele>41.7</ele>
        <time>2023-10-11T12:08:07Z</time>
      </trkpt>
      <trkpt lat="49.78081" lon="2.37643">
        <ele>41.7</ele>
        <time>2023-10-11T12:08:08Z</time>
      </trkpt>
      <trkpt lat="49.7808" lon="2.37642">
        <ele>41.8</ele>
        <time>2023-10-11T12:08:09Z</time>
      </trkpt>
      <trkpt lat="49.78079" lon="2.37641">
        <ele>41.8</ele>
        <time>2023-10-11T12:08:10Z</time>
      </trkpt>
      <trkpt lat="49.78078" lon="2.3764">
        <ele>41.8</ele>
        <time>2023-10-11T12:08:11Z</time>
      </trkpt>
      <trkpt lat="49.78077" lon="2.37639">
        <ele>41.8</ele>
        <time>2023-10-11T12:08:12Z</time>
      </trkpt>
      <trkpt lat="49.78077" lon="2.37638">
        <ele>41.8</ele>
        <time>2023-10-11T12:08:13Z</time>
      </trkpt>
      <trkpt lat="49.78076" lon="2.37637">
        <ele>41.8</ele>
        <time>2023-10-11T12:08:14Z</time>
      </trkpt>
      <trkpt lat="49.78075" lon="2.37636">
        <ele>41.9</ele>
        <time>2023-10-11T12:08:15Z</time>
      </trkpt>
      <trkpt lat="49.78074" lon="2.37635">
        <ele>41.9</ele>
        <time>2023-10-11T12:08:16Z</time>
      </trkpt>
      <trkpt lat="49.78072" lon="2.37632">
        <ele>41.9</ele>
        <time>2023-10-11T12:08:17Z</time>
      </trkpt>
      <trkpt lat="49.78071" lon="2.3763">
        <ele>42</ele>
        <time>2023-10-11T12:08:19Z</time>
      </trkpt>
      <trkpt lat="49.7807" lon="2.37629">
        <ele>42</ele>
        <time>2023-10-11T12:08:20Z</time>
      </trkpt>
      <trkpt lat="49.78068" lon="2.37627">
        <ele>42</ele>
        <time>2023-10-11T12:08:21Z</time>
      </trkpt>
      <trkpt lat="49.78067" lon="2.37626">
        <ele>42</ele>
        <time>2023-10-11T12:08:22Z</time>
      </trkpt>
      <trkpt lat="49.78065" lon="2.37624">
        <ele>42</ele>
        <time>2023-10-11T12:08:24Z</time>
      </trkpt>
      <trkpt lat="49.78064" lon="2.37623">
        <ele>42.1</ele>
        <time>2023-10-11T12:08:26Z</time>
      </trkpt>
      <trkpt lat="49.78063" lon="2.37622">
        <ele>42.1</ele>
        <time>2023-10-11T12:08:27Z</time>
      </trkpt>
      <trkpt lat="49.78062" lon="2.37621">
        <ele>42.1</ele>
        <time>2023-10-11T12:08:28Z</time>
      </trkpt>
      <trkpt lat="49.78061" lon="2.3762">
        <ele>42.1</ele>
        <time>2023-10-11T12:08:29Z</time>
      </trkpt>
      <trkpt lat="49.7806" lon="2.37619">
        <ele>42.1</ele>
        <time>2023-10-11T12:08:30Z</time>
      </trkpt>
      <trkpt lat="49.78059" lon="2.37619">
        <ele>42.1</ele>
        <time>2023-10-11T12:08:31Z</time>
      </trkpt>
      <trkpt lat="49.78058" lon="2.37618">
        <ele>42.1</ele>
        <time>2023-10-11T12:08:32Z</time>
      </trkpt>
      <trkpt lat="49.78056" lon="2.37616">
        <ele>42.1</ele>
        <time>2023-10-11T12:08:33Z</time>
      </trkpt>
      <trkpt lat="49.78056" lon="2.37615">
        <ele>42.1</ele>
        <time>2023-10-11T12:08:34Z</time>
      </trkpt>
      <trkpt lat="49.78055" lon="2.37614">
        <ele>42.1</ele>
        <time>2023-10-11T12:08:35Z</time>
      </trkpt>
      <trkpt lat="49.78054" lon="2.37613">
        <ele>42.1</ele>
        <time>2023-10-11T12:08:36Z</time>
      </trkpt>
      <trkpt lat="49.78052" lon="2.37612">
        <ele>42.1</ele>
        <time>2023-10-11T12:08:37Z</time>
      </trkpt>
      <trkpt lat="49.78051" lon="2.37611">
        <ele>42.1</ele>
        <time>2023-10-11T12:08:38Z</time>
      </trkpt>
      <trkpt lat="49.7805" lon="2.37609">
        <ele>42.1</ele>
        <time>2023-10-11T12:08:39Z</time>
      </trkpt>
      <trkpt lat="49.78049" lon="2.37608">
        <ele>42.1</ele>
        <time>2023-10-11T12:08:40Z</time>
      </trkpt>
      <trkpt lat="49.78048" lon="2.37607">
        <ele>42.1</ele>
        <time>2023-10-11T12:08:41Z</time>
      </trkpt>
      <trkpt lat="49.78046" lon="2.37606">
        <ele>42.1</ele>
        <time>2023-10-11T12:08:42Z</time>
      </trkpt>
      <trkpt lat="49.78045" lon="2.37605">
        <ele>42.1</ele>
        <time>2023-10-11T12:08:43Z</time>
      </trkpt>
      <trkpt lat="49.78044" lon="2.37604">
        <ele>42.1</ele>
        <time>2023-10-11T12:08:44Z</time>
      </trkpt>
      <trkpt lat="49.78042" lon="2.37603">
        <ele>42.1</ele>
        <time>2023-10-11T12:08:45Z</time>
      </trkpt>
      <trkpt lat="49.78042" lon="2.37602">
        <ele>42.1</ele>
        <time>2023-10-11T12:08:46Z</time>
      </trkpt>
      <trkpt lat="49.78041" lon="2.37602">
        <ele>42.1</ele>
        <time>2023-10-11T12:08:47Z</time>
      </trkpt>
      <trkpt lat="49.78039" lon="2.37601">
        <ele>42.1</ele>
        <time>2023-10-11T12:08:48Z</time>
      </trkpt>
      <trkpt lat="49.78038" lon="2.37601">
        <ele>42.1</ele>
        <time>2023-10-11T12:08:49Z</time>
      </trkpt>
      <trkpt lat="49.78037" lon="2.37601">
        <ele>42.1</ele>
        <time>2023-10-11T12:08:50Z</time>
      </trkpt>
      <trkpt lat="49.78036" lon="2.37601">
        <ele>42.1</ele>
        <time>2023-10-11T12:08:51Z</time>
      </trkpt>
      <trkpt lat="49.78035" lon="2.376">
        <ele>42.1</ele>
        <time>2023-10-11T12:08:52Z</time>
      </trkpt>
      <trkpt lat="49.78034" lon="2.37599">
        <ele>42.1</ele>
        <time>2023-10-11T12:08:53Z</time>
      </trkpt>
      <trkpt lat="49.78033" lon="2.37598">
        <ele>42.1</ele>
        <time>2023-10-11T12:08:54Z</time>
      </trkpt>
      <trkpt lat="49.78033" lon="2.37597">
        <ele>42.2</ele>
        <time>2023-10-11T12:08:55Z</time>
      </trkpt>
      <trkpt lat="49.78032" lon="2.37596">
        <ele>42.2</ele>
        <time>2023-10-11T12:08:56Z</time>
      </trkpt>
      <trkpt lat="49.78032" lon="2.37595">
        <ele>42.2</ele>
        <time>2023-10-11T12:08:57Z</time>
      </trkpt>
      <trkpt lat="49.78031" lon="2.37593">
        <ele>42.2</ele>
        <time>2023-10-11T12:08:58Z</time>
      </trkpt>
      <trkpt lat="49.7803" lon="2.37592">
        <ele>42.2</ele>
        <time>2023-10-11T12:08:59Z</time>
      </trkpt>
      <trkpt lat="49.7803" lon="2.37591">
        <ele>42.2</ele>
        <time>2023-10-11T12:09:00Z</time>
      </trkpt>
      <trkpt lat="49.78029" lon="2.3759">
        <ele>42.2</ele>
        <time>2023-10-11T12:09:01Z</time>
      </trkpt>
      <trkpt lat="49.78029" lon="2.37589">
        <ele>42.3</ele>
        <time>2023-10-11T12:09:02Z</time>
      </trkpt>
      <trkpt lat="49.78029" lon="2.37589">
        <ele>42.3</ele>
        <time>2023-10-11T12:09:03Z</time>
      </trkpt>
      <trkpt lat="49.7803" lon="2.37588">
        <ele>42.3</ele>
        <time>2023-10-11T12:09:04Z</time>
      </trkpt>
      <trkpt lat="49.7803" lon="2.37588">
        <ele>42.3</ele>
        <time>2023-10-11T12:09:05Z</time>
      </trkpt>
      <trkpt lat="49.7803" lon="2.37588">
        <ele>42.3</ele>
        <time>2023-10-11T12:09:06Z</time>
      </trkpt>
      <trkpt lat="49.7803" lon="2.37588">
        <ele>42.3</ele>
        <time>2023-10-11T12:09:07Z</time>
      </trkpt>
      <trkpt lat="49.7803" lon="2.37588">
        <ele>42.3</ele>
        <time>2023-10-11T12:09:08Z</time>
      </trkpt>
      <trkpt lat="49.7803" lon="2.37588">
        <ele>42.3</ele>
        <time>2023-10-11T12:09:09Z</time>
      </trkpt>
      <trkpt lat="49.7803" lon="2.37588">
        <ele>42.3</ele>
        <time>2023-10-11T12:09:10Z</time>
      </trkpt>
      <trkpt lat="49.7803" lon="2.37588">
        <ele>42.3</ele>
        <time>2023-10-11T12:09:11Z</time>
      </trkpt>
      <trkpt lat="49.7803" lon="2.37588">
        <ele>42.3</ele>
        <time>2023-10-11T12:09:12Z</time>
      </trkpt>
      <trkpt lat="49.78031" lon="2.37588">
        <ele>42.3</ele>
        <time>2023-10-11T12:09:13Z</time>
      </trkpt>
      <trkpt lat="49.78031" lon="2.37588">
        <ele>42.3</ele>
        <time>2023-10-11T12:09:14Z</time>
      </trkpt>
      <trkpt lat="49.78031" lon="2.37588">
        <ele>42.3</ele>
        <time>2023-10-11T12:09:15Z</time>
      </trkpt>
      <trkpt lat="49.78031" lon="2.37588">
        <ele>42.3</ele>
        <time>2023-10-11T12:09:16Z</time>
      </trkpt>
      <trkpt lat="49.78031" lon="2.37588">
        <ele>42.3</ele>
        <time>2023-10-11T12:09:17Z</time>
      </trkpt>
      <trkpt lat="49.78031" lon="2.37588">
        <ele>42.3</ele>
        <time>2023-10-11T12:09:18Z</time>
      </trkpt>
      <trkpt lat="49.78031" lon="2.37588">
        <ele>42.3</ele>
        <time>2023-10-11T12:09:19Z</time>
      </trkpt>
      <trkpt lat="49.78032" lon="2.37587">
        <ele>42.4</ele>
        <time>2023-10-11T12:09:26Z</time>
      </trkpt>
      <trkpt lat="49.78032" lon="2.37586">
        <ele>42.4</ele>
        <time>2023-10-11T12:09:27Z</time>
      </trkpt>
      <trkpt lat="49.78032" lon="2.37585">
        <ele>42.4</ele>
        <time>2023-10-11T12:09:28Z</time>
      </trkpt>
      <trkpt lat="49.78032" lon="2.37585">
        <ele>42.4</ele>
        <time>2023-10-11T12:09:29Z</time>
      </trkpt>
      <trkpt lat="49.78031" lon="2.37583">
        <ele>42.4</ele>
        <time>2023-10-11T12:09:30Z</time>
      </trkpt>
      <trkpt lat="49.78031" lon="2.37583">
        <ele>42.4</ele>
        <time>2023-10-11T12:09:31Z</time>
      </trkpt>
      <trkpt lat="49.78031" lon="2.37583">
        <ele>42.4</ele>
        <time>2023-10-11T12:09:32Z</time>
      </trkpt>
      <trkpt lat="49.7803" lon="2.37582">
        <ele>42.5</ele>
        <time>2023-10-11T12:09:33Z</time>
      </trkpt>
      <trkpt lat="49.7803" lon="2.37582">
        <ele>42.5</ele>
        <time>2023-10-11T12:09:34Z</time>
      </trkpt>
      <trkpt lat="49.7803" lon="2.37582">
        <ele>42.5</ele>
        <time>2023-10-11T12:09:35Z</time>
      </trkpt>
      <trkpt lat="49.7803" lon="2.37581">
        <ele>42.5</ele>
        <time>2023-10-11T12:09:36Z</time>
      </trkpt>
      <trkpt lat="49.7803" lon="2.37581">
        <ele>42.5</ele>
        <time>2023-10-11T12:09:37Z</time>
      </trkpt>
      <trkpt lat="49.78029" lon="2.37581">
        <ele>42.5</ele>
        <time>2023-10-11T12:09:38Z</time>
      </trkpt>
      <trkpt lat="49.78029" lon="2.3758">
        <ele>42.5</ele>
        <time>2023-10-11T12:09:39Z</time>
      </trkpt>
      <trkpt lat="49.78028" lon="2.3758">
        <ele>42.5</ele>
        <time>2023-10-11T12:09:40Z</time>
      </trkpt>
      <trkpt lat="49.78028" lon="2.37579">
        <ele>42.5</ele>
        <time>2023-10-11T12:09:42Z</time>
      </trkpt>
      <trkpt lat="49.78028" lon="2.37579">
        <ele>42.5</ele>
        <time>2023-10-11T12:09:43Z</time>
      </trkpt>
      <trkpt lat="49.78028" lon="2.37579">
        <ele>42.6</ele>
        <time>2023-10-11T12:09:44Z</time>
      </trkpt>
      <trkpt lat="49.78027" lon="2.37578">
        <ele>42.6</ele>
        <time>2023-10-11T12:09:45Z</time>
      </trkpt>
      <trkpt lat="49.78027" lon="2.37578">
        <ele>42.6</ele>
        <time>2023-10-11T12:09:46Z</time>
      </trkpt>
      <trkpt lat="49.78026" lon="2.37577">
        <ele>42.6</ele>
        <time>2023-10-11T12:09:47Z</time>
      </trkpt>
      <trkpt lat="49.78026" lon="2.37577">
        <ele>42.6</ele>
        <time>2023-10-11T12:09:49Z</time>
      </trkpt>
      <trkpt lat="49.78025" lon="2.37576">
        <ele>42.6</ele>
        <time>2023-10-11T12:09:50Z</time>
      </trkpt>
      <trkpt lat="49.78025" lon="2.37576">
        <ele>42.6</ele>
        <time>2023-10-11T12:09:51Z</time>
      </trkpt>
      <trkpt lat="49.78024" lon="2.37575">
        <ele>42.7</ele>
        <time>2023-10-11T12:09:52Z</time>
      </trkpt>
      <trkpt lat="49.78024" lon="2.37574">
        <ele>42.7</ele>
        <time>2023-10-11T12:09:53Z</time>
      </trkpt>
      <trkpt lat="49.78023" lon="2.37573">
        <ele>42.7</ele>
        <time>2023-10-11T12:09:54Z</time>
      </trkpt>
      <trkpt lat="49.78022" lon="2.37572">
        <ele>42.7</ele>
        <time>2023-10-11T12:09:55Z</time>
      </trkpt>
      <trkpt lat="49.78022" lon="2.37571">
        <ele>42.7</ele>
        <time>2023-10-11T12:09:56Z</time>
      </trkpt>
      <trkpt lat="49.78021" lon="2.3757">
        <ele>42.7</ele>
        <time>2023-10-11T12:09:57Z</time>
      </trkpt>
      <trkpt lat="49.78021" lon="2.37569">
        <ele>42.8</ele>
        <time>2023-10-11T12:09:58Z</time>
      </trkpt>
      <trkpt lat="49.7802" lon="2.37567">
        <ele>42.8</ele>
        <time>2023-10-11T12:09:59Z</time>
      </trkpt>
      <trkpt lat="49.78019" lon="2.37565">
        <ele>42.8</ele>
        <time>2023-10-11T12:10:00Z</time>
      </trkpt>
      <trkpt lat="49.78019" lon="2.37563">
        <ele>42.8</ele>
        <time>2023-10-11T12:10:01Z</time>
      </trkpt>
      <trkpt lat="49.78019" lon="2.37562">
        <ele>42.8</ele>
        <time>2023-10-11T12:10:02Z</time>
      </trkpt>
      <trkpt lat="49.78018" lon="2.37559">
        <ele>42.9</ele>
        <time>2023-10-11T12:10:03Z</time>
      </trkpt>
      <trkpt lat="49.78018" lon="2.37558">
        <ele>42.9</ele>
        <time>2023-10-11T12:10:04Z</time>
      </trkpt>
      <trkpt lat="49.78017" lon="2.37556">
        <ele>42.9</ele>
        <time>2023-10-11T12:10:05Z</time>
      </trkpt>
      <trkpt lat="49.78016" lon="2.37555">
        <ele>42.9</ele>
        <time>2023-10-11T12:10:06Z</time>
      </trkpt>
      <trkpt lat="49.78016" lon="2.37553">
        <ele>42.9</ele>
        <time>2023-10-11T12:10:07Z</time>
      </trkpt>
      <trkpt lat="49.78015" lon="2.37551">
        <ele>42.9</ele>
        <time>2023-10-11T12:10:08Z</time>
      </trkpt>
      <trkpt lat="49.78014" lon="2.37549">
        <ele>42.9</ele>
        <time>2023-10-11T12:10:09Z</time>
      </trkpt>
      <trkpt lat="49.78013" lon="2.37548">
        <ele>42.9</ele>
        <time>2023-10-11T12:10:10Z</time>
      </trkpt>
      <trkpt lat="49.78011" lon="2.37545">
        <ele>42.9</ele>
        <time>2023-10-11T12:10:11Z</time>
      </trkpt>
      <trkpt lat="49.78009" lon="2.37543">
        <ele>42.9</ele>
        <time>2023-10-11T12:10:13Z</time>
      </trkpt>
      <trkpt lat="49.78009" lon="2.37542">
        <ele>42.9</ele>
        <time>2023-10-11T12:10:14Z</time>
      </trkpt>
      <trkpt lat="49.78007" lon="2.3754">
        <ele>42.9</ele>
        <time>2023-10-11T12:10:15Z</time>
      </trkpt>
      <trkpt lat="49.78006" lon="2.37539">
        <ele>42.9</ele>
        <time>2023-10-11T12:10:16Z</time>
      </trkpt>
      <trkpt lat="49.78006" lon="2.37538">
        <ele>42.9</ele>
        <time>2023-10-11T12:10:17Z</time>
      </trkpt>
      <trkpt lat="49.78004" lon="2.37536">
        <ele>42.9</ele>
        <time>2023-10-11T12:10:18Z</time>
      </trkpt>
      <trkpt lat="49.78004" lon="2.37535">
        <ele>42.9</ele>
        <time>2023-10-11T12:10:19Z</time>
      </trkpt>
      <trkpt lat="49.78003" lon="2.37534">
        <ele>42.9</ele>
        <time>2023-10-11T12:10:20Z</time>
      </trkpt>
      <trkpt lat="49.78002" lon="2.37533">
        <ele>42.9</ele>
        <time>2023-10-11T12:10:21Z</time>
      </trkpt>
      <trkpt lat="49.78001" lon="2.37531">
        <ele>42.9</ele>
        <time>2023-10-11T12:10:22Z</time>
      </trkpt>
      <trkpt lat="49.78" lon="2.3753">
        <ele>42.9</ele>
        <time>2023-10-11T12:10:24Z</time>
      </trkpt>
      <trkpt lat="49.77998" lon="2.37528">
        <ele>42.9</ele>
        <time>2023-10-11T12:10:25Z</time>
      </trkpt>
      <trkpt lat="49.77997" lon="2.37527">
        <ele>42.9</ele>
        <time>2023-10-11T12:10:26Z</time>
      </trkpt>
      <trkpt lat="49.77996" lon="2.37526">
        <ele>42.9</ele>
        <time>2023-10-11T12:10:28Z</time>
      </trkpt>
      <trkpt lat="49.77995" lon="2.37525">
        <ele>42.9</ele>
        <time>2023-10-11T12:10:29Z</time>
      </trkpt>
      <trkpt lat="49.77995" lon="2.37524">
        <ele>42.9</ele>
        <time>2023-10-11T12:10:30Z</time>
      </trkpt>
      <trkpt lat="49.77994" lon="2.37524">
        <ele>42.9</ele>
        <time>2023-10-11T12:10:31Z</time>
      </trkpt>
      <trkpt lat="49.77993" lon="2.37523">
        <ele>42.9</ele>
        <time>2023-10-11T12:10:32Z</time>
      </trkpt>
      <trkpt lat="49.77992" lon="2.37523">
        <ele>42.9</ele>
        <time>2023-10-11T12:10:33Z</time>
      </trkpt>
      <trkpt lat="49.7799" lon="2.37522">
        <ele>42.9</ele>
        <time>2023-10-11T12:10:34Z</time>
      </trkpt>
      <trkpt lat="49.77988" lon="2.37522">
        <ele>42.9</ele>
        <time>2023-10-11T12:10:36Z</time>
      </trkpt>
      <trkpt lat="49.77986" lon="2.37522">
        <ele>42.9</ele>
        <time>2023-10-11T12:10:37Z</time>
      </trkpt>
      <trkpt lat="49.77984" lon="2.37522">
        <ele>42.9</ele>
        <time>2023-10-11T12:10:39Z</time>
      </trkpt>
      <trkpt lat="49.77983" lon="2.37522">
        <ele>42.9</ele>
        <time>2023-10-11T12:10:40Z</time>
      </trkpt>
      <trkpt lat="49.77982" lon="2.37522">
        <ele>42.9</ele>
        <time>2023-10-11T12:10:41Z</time>
      </trkpt>
      <trkpt lat="49.77981" lon="2.37522">
        <ele>42.9</ele>
        <time>2023-10-11T12:10:42Z</time>
      </trkpt>
      <trkpt lat="49.77977" lon="2.37523">
        <ele>42.9</ele>
        <time>2023-10-11T12:10:43Z</time>
      </trkpt>
      <trkpt lat="49.77976" lon="2.37523">
        <ele>42.9</ele>
        <time>2023-10-11T12:10:45Z</time>
      </trkpt>
      <trkpt lat="49.77975" lon="2.37523">
        <ele>42.9</ele>
        <time>2023-10-11T12:10:46Z</time>
      </trkpt>
      <trkpt lat="49.77973" lon="2.37524">
        <ele>42.9</ele>
        <time>2023-10-11T12:10:47Z</time>
      </trkpt>
      <trkpt lat="49.77971" lon="2.37524">
        <ele>42.9</ele>
        <time>2023-10-11T12:10:48Z</time>
      </trkpt>
      <trkpt lat="49.7797" lon="2.37525">
        <ele>42.9</ele>
        <time>2023-10-11T12:10:49Z</time>
      </trkpt>
      <trkpt lat="49.77969" lon="2.37525">
        <ele>42.9</ele>
        <time>2023-10-11T12:10:50Z</time>
      </trkpt>
      <trkpt lat="49.77967" lon="2.37527">
        <ele>42.9</ele>
        <time>2023-10-11T12:10:51Z</time>
      </trkpt>
      <trkpt lat="49.77967" lon="2.37527">
        <ele>43</ele>
        <time>2023-10-11T12:10:52Z</time>
      </trkpt>
      <trkpt lat="49.77966" lon="2.37527">
        <ele>43</ele>
        <time>2023-10-11T12:10:53Z</time>
      </trkpt>
      <trkpt lat="49.77964" lon="2.37528">
        <ele>43</ele>
        <time>2023-10-11T12:10:54Z</time>
      </trkpt>
      <trkpt lat="49.77963" lon="2.37528">
        <ele>43</ele>
        <time>2023-10-11T12:10:55Z</time>
      </trkpt>
      <trkpt lat="49.77962" lon="2.37529">
        <ele>43</ele>
        <time>2023-10-11T12:10:56Z</time>
      </trkpt>
      <trkpt lat="49.77961" lon="2.37528">
        <ele>43</ele>
        <time>2023-10-11T12:10:57Z</time>
      </trkpt>
      <trkpt lat="49.7796" lon="2.37528">
        <ele>43</ele>
        <time>2023-10-11T12:10:58Z</time>
      </trkpt>
      <trkpt lat="49.77958" lon="2.37528">
        <ele>43</ele>
        <time>2023-10-11T12:10:59Z</time>
      </trkpt>
      <trkpt lat="49.77957" lon="2.37527">
        <ele>43</ele>
        <time>2023-10-11T12:11:00Z</time>
      </trkpt>
      <trkpt lat="49.77956" lon="2.37525">
        <ele>43</ele>
        <time>2023-10-11T12:11:01Z</time>
      </trkpt>
      <trkpt lat="49.77955" lon="2.37524">
        <ele>43</ele>
        <time>2023-10-11T12:11:02Z</time>
      </trkpt>
      <trkpt lat="49.77954" lon="2.37523">
        <ele>43.1</ele>
        <time>2023-10-11T12:11:03Z</time>
      </trkpt>
      <trkpt lat="49.77953" lon="2.37522">
        <ele>43.1</ele>
        <time>2023-10-11T12:11:04Z</time>
      </trkpt>
      <trkpt lat="49.77953" lon="2.37521">
        <ele>43.1</ele>
        <time>2023-10-11T12:11:05Z</time>
      </trkpt>
      <trkpt lat="49.77952" lon="2.37519">
        <ele>43.1</ele>
        <time>2023-10-11T12:11:06Z</time>
      </trkpt>
      <trkpt lat="49.77952" lon="2.37518">
        <ele>43.1</ele>
        <time>2023-10-11T12:11:07Z</time>
      </trkpt>
      <trkpt lat="49.77952" lon="2.37517">
        <ele>43.1</ele>
        <time>2023-10-11T12:11:08Z</time>
      </trkpt>
      <trkpt lat="49.77951" lon="2.37515">
        <ele>43.1</ele>
        <time>2023-10-11T12:11:09Z</time>
      </trkpt>
      <trkpt lat="49.77951" lon="2.37514">
        <ele>43.1</ele>
        <time>2023-10-11T12:11:10Z</time>
      </trkpt>
      <trkpt lat="49.77949" lon="2.37513">
        <ele>43.2</ele>
        <time>2023-10-11T12:11:11Z</time>
      </trkpt>
      <trkpt lat="49.77948" lon="2.37512">
        <ele>43.2</ele>
        <time>2023-10-11T12:11:13Z</time>
      </trkpt>
      <trkpt lat="49.77947" lon="2.37512">
        <ele>43.2</ele>
        <time>2023-10-11T12:11:14Z</time>
      </trkpt>
      <trkpt lat="49.77947" lon="2.37511">
        <ele>43.2</ele>
        <time>2023-10-11T12:11:15Z</time>
      </trkpt>
      <trkpt lat="49.77946" lon="2.37511">
        <ele>43.2</ele>
        <time>2023-10-11T12:11:16Z</time>
      </trkpt>
      <trkpt lat="49.77945" lon="2.37511">
        <ele>43.2</ele>
        <time>2023-10-11T12:11:17Z</time>
      </trkpt>
      <trkpt lat="49.77944" lon="2.3751">
        <ele>43.2</ele>
        <time>2023-10-11T12:11:18Z</time>
      </trkpt>
      <trkpt lat="49.77943" lon="2.37509">
        <ele>43.2</ele>
        <time>2023-10-11T12:11:19Z</time>
      </trkpt>
      <trkpt lat="49.77942" lon="2.37508">
        <ele>43.2</ele>
        <time>2023-10-11T12:11:20Z</time>
      </trkpt>
      <trkpt lat="49.77941" lon="2.37507">
        <ele>43.2</ele>
        <time>2023-10-11T12:11:21Z</time>
      </trkpt>
      <trkpt lat="49.77941" lon="2.37507">
        <ele>43.2</ele>
        <time>2023-10-11T12:11:22Z</time>
      </trkpt>
      <trkpt lat="49.7794" lon="2.37506">
        <ele>43.2</ele>
        <time>2023-10-11T12:11:23Z</time>
      </trkpt>
      <trkpt lat="49.7794" lon="2.37505">
        <ele>43.3</ele>
        <time>2023-10-11T12:11:24Z</time>
      </trkpt>
      <trkpt lat="49.77939" lon="2.37504">
        <ele>43.3</ele>
        <time>2023-10-11T12:11:25Z</time>
      </trkpt>
      <trkpt lat="49.77938" lon="2.37503">
        <ele>43.3</ele>
        <time>2023-10-11T12:11:26Z</time>
      </trkpt>
      <trkpt lat="49.77938" lon="2.37502">
        <ele>43.3</ele>
        <time>2023-10-11T12:11:27Z</time>
      </trkpt>
      <trkpt lat="49.77937" lon="2.37502">
        <ele>43.3</ele>
        <time>2023-10-11T12:11:28Z</time>
      </trkpt>
      <trkpt lat="49.77936" lon="2.37501">
        <ele>43.3</ele>
        <time>2023-10-11T12:11:29Z</time>
      </trkpt>
      <trkpt lat="49.77936" lon="2.37501">
        <ele>43.3</ele>
        <time>2023-10-11T12:11:30Z</time>
      </trkpt>
      <trkpt lat="49.77935" lon="2.375">
        <ele>43.3</ele>
        <time>2023-10-11T12:11:31Z</time>
      </trkpt>
      <trkpt lat="49.77934" lon="2.37499">
        <ele>43.3</ele>
        <time>2023-10-11T12:11:32Z</time>
      </trkpt>
      <trkpt lat="49.77934" lon="2.37498">
        <ele>43.3</ele>
        <time>2023-10-11T12:11:33Z</time>
      </trkpt>
      <trkpt lat="49.77933" lon="2.37497">
        <ele>43.3</ele>
        <time>2023-10-11T12:11:34Z</time>
      </trkpt>
      <trkpt lat="49.77933" lon="2.37496">
        <ele>43.3</ele>
        <time>2023-10-11T12:11:35Z</time>
      </trkpt>
      <trkpt lat="49.77932" lon="2.37495">
        <ele>43.3</ele>
        <time>2023-10-11T12:11:36Z</time>
      </trkpt>
      <trkpt lat="49.77932" lon="2.37494">
        <ele>43.3</ele>
        <time>2023-10-11T12:11:37Z</time>
      </trkpt>
      <trkpt lat="49.77931" lon="2.37494">
        <ele>43.3</ele>
        <time>2023-10-11T12:11:38Z</time>
      </trkpt>
      <trkpt lat="49.7793" lon="2.37493">
        <ele>43.3</ele>
        <time>2023-10-11T12:11:39Z</time>
      </trkpt>
      <trkpt lat="49.7793" lon="2.37492">
        <ele>43.3</ele>
        <time>2023-10-11T12:11:40Z</time>
      </trkpt>
      <trkpt lat="49.77929" lon="2.37492">
        <ele>43.3</ele>
        <time>2023-10-11T12:11:41Z</time>
      </trkpt>
      <trkpt lat="49.77928" lon="2.37491">
        <ele>43.3</ele>
        <time>2023-10-11T12:11:42Z</time>
      </trkpt>
      <trkpt lat="49.77928" lon="2.37491">
        <ele>43.3</ele>
        <time>2023-10-11T12:11:43Z</time>
      </trkpt>
      <trkpt lat="49.77928" lon="2.3749">
        <ele>43.3</ele>
        <time>2023-10-11T12:11:44Z</time>
      </trkpt>
      <trkpt lat="49.77927" lon="2.37489">
        <ele>43.3</ele>
        <time>2023-10-11T12:11:45Z</time>
      </trkpt>
      <trkpt lat="49.77927" lon="2.37489">
        <ele>43.3</ele>
        <time>2023-10-11T12:11:46Z</time>
      </trkpt>
      <trkpt lat="49.77926" lon="2.37488">
        <ele>43.3</ele>
        <time>2023-10-11T12:11:47Z</time>
      </trkpt>
      <trkpt lat="49.77925" lon="2.37488">
        <ele>43.3</ele>
        <time>2023-10-11T12:11:48Z</time>
      </trkpt>
      <trkpt lat="49.77924" lon="2.37487">
        <ele>43.3</ele>
        <time>2023-10-11T12:11:49Z</time>
      </trkpt>
      <trkpt lat="49.77923" lon="2.37486">
        <ele>43.3</ele>
        <time>2023-10-11T12:11:50Z</time>
      </trkpt>
      <trkpt lat="49.77922" lon="2.37486">
        <ele>43.3</ele>
        <time>2023-10-11T12:11:51Z</time>
      </trkpt>
      <trkpt lat="49.77921" lon="2.37485">
        <ele>43.3</ele>
        <time>2023-10-11T12:11:52Z</time>
      </trkpt>
      <trkpt lat="49.7792" lon="2.37484">
        <ele>43.3</ele>
        <time>2023-10-11T12:11:53Z</time>
      </trkpt>
      <trkpt lat="49.77919" lon="2.37482">
        <ele>43.3</ele>
        <time>2023-10-11T12:11:54Z</time>
      </trkpt>
      <trkpt lat="49.77919" lon="2.37481">
        <ele>43.3</ele>
        <time>2023-10-11T12:11:55Z</time>
      </trkpt>
      <trkpt lat="49.77918" lon="2.3748">
        <ele>43.3</ele>
        <time>2023-10-11T12:11:56Z</time>
      </trkpt>
      <trkpt lat="49.77917" lon="2.37479">
        <ele>43.4</ele>
        <time>2023-10-11T12:11:57Z</time>
      </trkpt>
      <trkpt lat="49.77916" lon="2.37478">
        <ele>43.4</ele>
        <time>2023-10-11T12:11:58Z</time>
      </trkpt>
      <trkpt lat="49.77916" lon="2.37477">
        <ele>43.4</ele>
        <time>2023-10-11T12:11:59Z</time>
      </trkpt>
      <trkpt lat="49.77915" lon="2.37476">
        <ele>43.4</ele>
        <time>2023-10-11T12:12:00Z</time>
      </trkpt>
      <trkpt lat="49.77914" lon="2.37475">
        <ele>43.4</ele>
        <time>2023-10-11T12:12:01Z</time>
      </trkpt>
      <trkpt lat="49.77914" lon="2.37474">
        <ele>43.4</ele>
        <time>2023-10-11T12:12:02Z</time>
      </trkpt>
      <trkpt lat="49.77913" lon="2.37472">
        <ele>43.4</ele>
        <time>2023-10-11T12:12:03Z</time>
      </trkpt>
      <trkpt lat="49.77912" lon="2.37471">
        <ele>43.4</ele>
        <time>2023-10-11T12:12:04Z</time>
      </trkpt>
      <trkpt lat="49.77911" lon="2.37469">
        <ele>43.4</ele>
        <time>2023-10-11T12:12:05Z</time>
      </trkpt>
      <trkpt lat="49.7791" lon="2.37468">
        <ele>43.4</ele>
        <time>2023-10-11T12:12:06Z</time>
      </trkpt>
      <trkpt lat="49.7791" lon="2.37466">
        <ele>43.4</ele>
        <time>2023-10-11T12:12:07Z</time>
      </trkpt>
      <trkpt lat="49.77909" lon="2.37465">
        <ele>43.4</ele>
        <time>2023-10-11T12:12:08Z</time>
      </trkpt>
      <trkpt lat="49.77908" lon="2.37463">
        <ele>43.4</ele>
        <time>2023-10-11T12:12:09Z</time>
      </trkpt>
      <trkpt lat="49.77907" lon="2.3746">
        <ele>43.4</ele>
        <time>2023-10-11T12:12:10Z</time>
      </trkpt>
      <trkpt lat="49.77906" lon="2.37459">
        <ele>43.4</ele>
        <time>2023-10-11T12:12:11Z</time>
      </trkpt>
      <trkpt lat="49.77905" lon="2.37457">
        <ele>43.4</ele>
        <time>2023-10-11T12:12:12Z</time>
      </trkpt>
      <trkpt lat="49.77904" lon="2.37456">
        <ele>43.4</ele>
        <time>2023-10-11T12:12:14Z</time>
      </trkpt>
      <trkpt lat="49.77903" lon="2.37456">
        <ele>43.4</ele>
        <time>2023-10-11T12:12:15Z</time>
      </trkpt>
      <trkpt lat="49.77902" lon="2.37456">
        <ele>43.4</ele>
        <time>2023-10-11T12:12:16Z</time>
      </trkpt>
      <trkpt lat="49.779" lon="2.37456">
        <ele>43.4</ele>
        <time>2023-10-11T12:12:17Z</time>
      </trkpt>
      <trkpt lat="49.77899" lon="2.37456">
        <ele>43.4</ele>
        <time>2023-10-11T12:12:18Z</time>
      </trkpt>
      <trkpt lat="49.77898" lon="2.37455">
        <ele>43.4</ele>
        <time>2023-10-11T12:12:19Z</time>
      </trkpt>
      <trkpt lat="49.77897" lon="2.37455">
        <ele>43.4</ele>
        <time>2023-10-11T12:12:20Z</time>
      </trkpt>
      <trkpt lat="49.77896" lon="2.37455">
        <ele>43.4</ele>
        <time>2023-10-11T12:12:21Z</time>
      </trkpt>
      <trkpt lat="49.77895" lon="2.37456">
        <ele>43.3</ele>
        <time>2023-10-11T12:12:22Z</time>
      </trkpt>
      <trkpt lat="49.77894" lon="2.37456">
        <ele>43.3</ele>
        <time>2023-10-11T12:12:23Z</time>
      </trkpt>
      <trkpt lat="49.77893" lon="2.37456">
        <ele>43.3</ele>
        <time>2023-10-11T12:12:24Z</time>
      </trkpt>
      <trkpt lat="49.77892" lon="2.37456">
        <ele>43.3</ele>
        <time>2023-10-11T12:12:25Z</time>
      </trkpt>
      <trkpt lat="49.77891" lon="2.37456">
        <ele>43.3</ele>
        <time>2023-10-11T12:12:26Z</time>
      </trkpt>
      <trkpt lat="49.7789" lon="2.37456">
        <ele>43.3</ele>
        <time>2023-10-11T12:12:27Z</time>
      </trkpt>
      <trkpt lat="49.77889" lon="2.37455">
        <ele>43.3</ele>
        <time>2023-10-11T12:12:28Z</time>
      </trkpt>
      <trkpt lat="49.77888" lon="2.37454">
        <ele>43.3</ele>
        <time>2023-10-11T12:12:29Z</time>
      </trkpt>
      <trkpt lat="49.77886" lon="2.37453">
        <ele>43.3</ele>
        <time>2023-10-11T12:12:30Z</time>
      </trkpt>
      <trkpt lat="49.77885" lon="2.37452">
        <ele>43.2</ele>
        <time>2023-10-11T12:12:32Z</time>
      </trkpt>
      <trkpt lat="49.77884" lon="2.37451">
        <ele>43.2</ele>
        <time>2023-10-11T12:12:33Z</time>
      </trkpt>
      <trkpt lat="49.77883" lon="2.3745">
        <ele>43.2</ele>
        <time>2023-10-11T12:12:34Z</time>
      </trkpt>
      <trkpt lat="49.77882" lon="2.37449">
        <ele>43.2</ele>
        <time>2023-10-11T12:12:35Z</time>
      </trkpt>
      <trkpt lat="49.77882" lon="2.37448">
        <ele>43.2</ele>
        <time>2023-10-11T12:12:36Z</time>
      </trkpt>
      <trkpt lat="49.77881" lon="2.37447">
        <ele>43.2</ele>
        <time>2023-10-11T12:12:37Z</time>
      </trkpt>
      <trkpt lat="49.7788" lon="2.37446">
        <ele>43.2</ele>
        <time>2023-10-11T12:12:38Z</time>
      </trkpt>
      <trkpt lat="49.7788" lon="2.37445">
        <ele>43.2</ele>
        <time>2023-10-11T12:12:39Z</time>
      </trkpt>
      <trkpt lat="49.77879" lon="2.37444">
        <ele>43.2</ele>
        <time>2023-10-11T12:12:40Z</time>
      </trkpt>
      <trkpt lat="49.77878" lon="2.37444">
        <ele>43.2</ele>
        <time>2023-10-11T12:12:41Z</time>
      </trkpt>
      <trkpt lat="49.77878" lon="2.37443">
        <ele>43.2</ele>
        <time>2023-10-11T12:12:42Z</time>
      </trkpt>
      <trkpt lat="49.77877" lon="2.37442">
        <ele>43.2</ele>
        <time>2023-10-11T12:12:43Z</time>
      </trkpt>
      <trkpt lat="49.77877" lon="2.37441">
        <ele>43.2</ele>
        <time>2023-10-11T12:12:44Z</time>
      </trkpt>
      <trkpt lat="49.77877" lon="2.37441">
        <ele>43.2</ele>
        <time>2023-10-11T12:12:45Z</time>
      </trkpt>
      <trkpt lat="49.77876" lon="2.3744">
        <ele>43.2</ele>
        <time>2023-10-11T12:12:46Z</time>
      </trkpt>
      <trkpt lat="49.77876" lon="2.37439">
        <ele>43.2</ele>
        <time>2023-10-11T12:12:47Z</time>
      </trkpt>
      <trkpt lat="49.77876" lon="2.37438">
        <ele>43.2</ele>
        <time>2023-10-11T12:12:48Z</time>
      </trkpt>
      <trkpt lat="49.77876" lon="2.37437">
        <ele>43.2</ele>
        <time>2023-10-11T12:12:49Z</time>
      </trkpt>
      <trkpt lat="49.77876" lon="2.37436">
        <ele>43.2</ele>
        <time>2023-10-11T12:12:50Z</time>
      </trkpt>
      <trkpt lat="49.77876" lon="2.37435">
        <ele>43.2</ele>
        <time>2023-10-11T12:12:51Z</time>
      </trkpt>
      <trkpt lat="49.77876" lon="2.37435">
        <ele>43.2</ele>
        <time>2023-10-11T12:12:52Z</time>
      </trkpt>
      <trkpt lat="49.77875" lon="2.37434">
        <ele>43.2</ele>
        <time>2023-10-11T12:12:53Z</time>
      </trkpt>
      <trkpt lat="49.77875" lon="2.37433">
        <ele>43.1</ele>
        <time>2023-10-11T12:12:54Z</time>
      </trkpt>
      <trkpt lat="49.77873" lon="2.37432">
        <ele>43.1</ele>
        <time>2023-10-11T12:12:55Z</time>
      </trkpt>
      <trkpt lat="49.77873" lon="2.37432">
        <ele>43.1</ele>
        <time>2023-10-11T12:12:56Z</time>
      </trkpt>
      <trkpt lat="49.77872" lon="2.37432">
        <ele>43.1</ele>
        <time>2023-10-11T12:12:57Z</time>
      </trkpt>
      <trkpt lat="49.77871" lon="2.37431">
        <ele>43.1</ele>
        <time>2023-10-11T12:12:58Z</time>
      </trkpt>
      <trkpt lat="49.77869" lon="2.3743">
        <ele>43.1</ele>
        <time>2023-10-11T12:12:59Z</time>
      </trkpt>
      <trkpt lat="49.77868" lon="2.3743">
        <ele>43.1</ele>
        <time>2023-10-11T12:13:00Z</time>
      </trkpt>
      <trkpt lat="49.77868" lon="2.37429">
        <ele>43.1</ele>
        <time>2023-10-11T12:13:01Z</time>
      </trkpt>
      <trkpt lat="49.77866" lon="2.37428">
        <ele>43.1</ele>
        <time>2023-10-11T12:13:02Z</time>
      </trkpt>
      <trkpt lat="49.77864" lon="2.37427">
        <ele>43.1</ele>
        <time>2023-10-11T12:13:04Z</time>
      </trkpt>
      <trkpt lat="49.77862" lon="2.37425">
        <ele>43.1</ele>
        <time>2023-10-11T12:13:05Z</time>
      </trkpt>
      <trkpt lat="49.77861" lon="2.37424">
        <ele>43.1</ele>
        <time>2023-10-11T12:13:06Z</time>
      </trkpt>
      <trkpt lat="49.7786" lon="2.37423">
        <ele>43.1</ele>
        <time>2023-10-11T12:13:07Z</time>
      </trkpt>
      <trkpt lat="49.77859" lon="2.37423">
        <ele>43.1</ele>
        <time>2023-10-11T12:13:09Z</time>
      </trkpt>
      <trkpt lat="49.77859" lon="2.37422">
        <ele>43.1</ele>
        <time>2023-10-11T12:13:10Z</time>
      </trkpt>
      <trkpt lat="49.77857" lon="2.37421">
        <ele>43.1</ele>
        <time>2023-10-11T12:13:11Z</time>
      </trkpt>
      <trkpt lat="49.77857" lon="2.3742">
        <ele>43.1</ele>
        <time>2023-10-11T12:13:12Z</time>
      </trkpt>
      <trkpt lat="49.77856" lon="2.37419">
        <ele>43.1</ele>
        <time>2023-10-11T12:13:13Z</time>
      </trkpt>
      <trkpt lat="49.77856" lon="2.37419">
        <ele>43.1</ele>
        <time>2023-10-11T12:13:14Z</time>
      </trkpt>
      <trkpt lat="49.77855" lon="2.37418">
        <ele>43.1</ele>
        <time>2023-10-11T12:13:15Z</time>
      </trkpt>
      <trkpt lat="49.77854" lon="2.37417">
        <ele>43.1</ele>
        <time>2023-10-11T12:13:16Z</time>
      </trkpt>
      <trkpt lat="49.77853" lon="2.37417">
        <ele>43.1</ele>
        <time>2023-10-11T12:13:17Z</time>
      </trkpt>
      <trkpt lat="49.77852" lon="2.37417">
        <ele>43.1</ele>
        <time>2023-10-11T12:13:18Z</time>
      </trkpt>
      <trkpt lat="49.77851" lon="2.37416">
        <ele>43.1</ele>
        <time>2023-10-11T12:13:19Z</time>
      </trkpt>
      <trkpt lat="49.77849" lon="2.37416">
        <ele>43.1</ele>
        <time>2023-10-11T12:13:20Z</time>
      </trkpt>
      <trkpt lat="49.77848" lon="2.37415">
        <ele>43.1</ele>
        <time>2023-10-11T12:13:21Z</time>
      </trkpt>
      <trkpt lat="49.77847" lon="2.37415">
        <ele>43.1</ele>
        <time>2023-10-11T12:13:22Z</time>
      </trkpt>
      <trkpt lat="49.77846" lon="2.37414">
        <ele>43.1</ele>
        <time>2023-10-11T12:13:23Z</time>
      </trkpt>
      <trkpt lat="49.77845" lon="2.37414">
        <ele>43.1</ele>
        <time>2023-10-11T12:13:24Z</time>
      </trkpt>
      <trkpt lat="49.77845" lon="2.37413">
        <ele>43.1</ele>
        <time>2023-10-11T12:13:25Z</time>
      </trkpt>
      <trkpt lat="49.77844" lon="2.37412">
        <ele>43.1</ele>
        <time>2023-10-11T12:13:26Z</time>
      </trkpt>
      <trkpt lat="49.77843" lon="2.37411">
        <ele>43.1</ele>
        <time>2023-10-11T12:13:27Z</time>
      </trkpt>
      <trkpt lat="49.77842" lon="2.37411">
        <ele>43.1</ele>
        <time>2023-10-11T12:13:28Z</time>
      </trkpt>
      <trkpt lat="49.77842" lon="2.3741">
        <ele>43.1</ele>
        <time>2023-10-11T12:13:29Z</time>
      </trkpt>
      <trkpt lat="49.77841" lon="2.37409">
        <ele>43.1</ele>
        <time>2023-10-11T12:13:30Z</time>
      </trkpt>
      <trkpt lat="49.7784" lon="2.37408">
        <ele>43.1</ele>
        <time>2023-10-11T12:13:31Z</time>
      </trkpt>
      <trkpt lat="49.7784" lon="2.37407">
        <ele>43.1</ele>
        <time>2023-10-11T12:13:32Z</time>
      </trkpt>
      <trkpt lat="49.77839" lon="2.37406">
        <ele>43.1</ele>
        <time>2023-10-11T12:13:33Z</time>
      </trkpt>
      <trkpt lat="49.77838" lon="2.37405">
        <ele>43.1</ele>
        <time>2023-10-11T12:13:34Z</time>
      </trkpt>
      <trkpt lat="49.77838" lon="2.37403">
        <ele>43.1</ele>
        <time>2023-10-11T12:13:35Z</time>
      </trkpt>
      <trkpt lat="49.77837" lon="2.37402">
        <ele>43.1</ele>
        <time>2023-10-11T12:13:36Z</time>
      </trkpt>
      <trkpt lat="49.77836" lon="2.37401">
        <ele>43.1</ele>
        <time>2023-10-11T12:13:37Z</time>
      </trkpt>
      <trkpt lat="49.77835" lon="2.374">
        <ele>43.2</ele>
        <time>2023-10-11T12:13:38Z</time>
      </trkpt>
      <trkpt lat="49.77834" lon="2.37399">
        <ele>43.2</ele>
        <time>2023-10-11T12:13:39Z</time>
      </trkpt>
      <trkpt lat="49.77833" lon="2.37397">
        <ele>43.2</ele>
        <time>2023-10-11T12:13:40Z</time>
      </trkpt>
      <trkpt lat="49.77833" lon="2.37396">
        <ele>43.2</ele>
        <time>2023-10-11T12:13:41Z</time>
      </trkpt>
      <trkpt lat="49.77832" lon="2.37395">
        <ele>43.2</ele>
        <time>2023-10-11T12:13:42Z</time>
      </trkpt>
      <trkpt lat="49.77831" lon="2.37394">
        <ele>43.2</ele>
        <time>2023-10-11T12:13:43Z</time>
      </trkpt>
      <trkpt lat="49.7783" lon="2.37393">
        <ele>43.2</ele>
        <time>2023-10-11T12:13:44Z</time>
      </trkpt>
      <trkpt lat="49.7783" lon="2.37392">
        <ele>43.2</ele>
        <time>2023-10-11T12:13:45Z</time>
      </trkpt>
      <trkpt lat="49.77829" lon="2.3739">
        <ele>43.2</ele>
        <time>2023-10-11T12:13:46Z</time>
      </trkpt>
      <trkpt lat="49.77829" lon="2.37389">
        <ele>43.2</ele>
        <time>2023-10-11T12:13:47Z</time>
      </trkpt>
      <trkpt lat="49.77828" lon="2.37387">
        <ele>43.2</ele>
        <time>2023-10-11T12:13:48Z</time>
      </trkpt>
      <trkpt lat="49.77828" lon="2.37386">
        <ele>43.2</ele>
        <time>2023-10-11T12:13:49Z</time>
      </trkpt>
      <trkpt lat="49.77827" lon="2.37385">
        <ele>43.2</ele>
        <time>2023-10-11T12:13:50Z</time>
      </trkpt>
      <trkpt lat="49.77827" lon="2.37384">
        <ele>43.3</ele>
        <time>2023-10-11T12:13:51Z</time>
      </trkpt>
      <trkpt lat="49.77826" lon="2.37382">
        <ele>43.3</ele>
        <time>2023-10-11T12:13:52Z</time>
      </trkpt>
      <trkpt lat="49.77825" lon="2.3738">
        <ele>43.3</ele>
        <time>2023-10-11T12:13:53Z</time>
      </trkpt>
      <trkpt lat="49.77825" lon="2.37379">
        <ele>43.3</ele>
        <time>2023-10-11T12:13:55Z</time>
      </trkpt>
      <trkpt lat="49.77824" lon="2.37378">
        <ele>43.3</ele>
        <time>2023-10-11T12:13:56Z</time>
      </trkpt>
      <trkpt lat="49.77823" lon="2.37377">
        <ele>43.3</ele>
        <time>2023-10-11T12:13:57Z</time>
      </trkpt>
      <trkpt lat="49.77823" lon="2.37376">
        <ele>43.3</ele>
        <time>2023-10-11T12:13:58Z</time>
      </trkpt>
      <trkpt lat="49.77822" lon="2.37374">
        <ele>43.3</ele>
        <time>2023-10-11T12:13:59Z</time>
      </trkpt>
      <trkpt lat="49.77822" lon="2.37373">
        <ele>43.3</ele>
        <time>2023-10-11T12:14:00Z</time>
      </trkpt>
      <trkpt lat="49.77821" lon="2.37372">
        <ele>43.3</ele>
        <time>2023-10-11T12:14:01Z</time>
      </trkpt>
      <trkpt lat="49.7782" lon="2.37371">
        <ele>43.3</ele>
        <time>2023-10-11T12:14:02Z</time>
      </trkpt>
      <trkpt lat="49.77819" lon="2.37369">
        <ele>43.3</ele>
        <time>2023-10-11T12:14:03Z</time>
      </trkpt>
      <trkpt lat="49.77817" lon="2.37368">
        <ele>43.3</ele>
        <time>2023-10-11T12:14:05Z</time>
      </trkpt>
      <trkpt lat="49.77817" lon="2.37368">
        <ele>43.3</ele>
        <time>2023-10-11T12:14:06Z</time>
      </trkpt>
      <trkpt lat="49.77816" lon="2.37367">
        <ele>43.3</ele>
        <time>2023-10-11T12:14:07Z</time>
      </trkpt>
      <trkpt lat="49.77816" lon="2.37366">
        <ele>43.3</ele>
        <time>2023-10-11T12:14:08Z</time>
      </trkpt>
      <trkpt lat="49.77815" lon="2.37365">
        <ele>43.3</ele>
        <time>2023-10-11T12:14:09Z</time>
      </trkpt>
      <trkpt lat="49.77814" lon="2.37364">
        <ele>43.3</ele>
        <time>2023-10-11T12:14:10Z</time>
      </trkpt>
      <trkpt lat="49.77814" lon="2.37362">
        <ele>43.3</ele>
        <time>2023-10-11T12:14:11Z</time>
      </trkpt>
      <trkpt lat="49.77813" lon="2.37361">
        <ele>43.3</ele>
        <time>2023-10-11T12:14:12Z</time>
      </trkpt>
      <trkpt lat="49.77813" lon="2.3736">
        <ele>43.3</ele>
        <time>2023-10-11T12:14:13Z</time>
      </trkpt>
      <trkpt lat="49.77813" lon="2.37359">
        <ele>43.3</ele>
        <time>2023-10-11T12:14:14Z</time>
      </trkpt>
      <trkpt lat="49.77812" lon="2.37358">
        <ele>43.3</ele>
        <time>2023-10-11T12:14:15Z</time>
      </trkpt>
      <trkpt lat="49.77811" lon="2.37357">
        <ele>43.3</ele>
        <time>2023-10-11T12:14:16Z</time>
      </trkpt>
      <trkpt lat="49.77811" lon="2.37356">
        <ele>43.3</ele>
        <time>2023-10-11T12:14:17Z</time>
      </trkpt>
      <trkpt lat="49.7781" lon="2.37355">
        <ele>43.3</ele>
        <time>2023-10-11T12:14:18Z</time>
      </trkpt>
      <trkpt lat="49.77809" lon="2.37354">
        <ele>43.3</ele>
        <time>2023-10-11T12:14:19Z</time>
      </trkpt>
      <trkpt lat="49.77808" lon="2.37353">
        <ele>43.3</ele>
        <time>2023-10-11T12:14:20Z</time>
      </trkpt>
      <trkpt lat="49.77808" lon="2.37352">
        <ele>43.3</ele>
        <time>2023-10-11T12:14:21Z</time>
      </trkpt>
      <trkpt lat="49.77807" lon="2.37351">
        <ele>43.3</ele>
        <time>2023-10-11T12:14:22Z</time>
      </trkpt>
      <trkpt lat="49.77806" lon="2.3735">
        <ele>43.3</ele>
        <time>2023-10-11T12:14:23Z</time>
      </trkpt>
      <trkpt lat="49.77805" lon="2.37349">
        <ele>43.3</ele>
        <time>2023-10-11T12:14:24Z</time>
      </trkpt>
      <trkpt lat="49.77805" lon="2.37348">
        <ele>43.3</ele>
        <time>2023-10-11T12:14:25Z</time>
      </trkpt>
      <trkpt lat="49.77803" lon="2.37347">
        <ele>43.3</ele>
        <time>2023-10-11T12:14:26Z</time>
      </trkpt>
      <trkpt lat="49.77802" lon="2.37346">
        <ele>43.3</ele>
        <time>2023-10-11T12:14:27Z</time>
      </trkpt>
      <trkpt lat="49.77801" lon="2.37345">
        <ele>43.3</ele>
        <time>2023-10-11T12:14:28Z</time>
      </trkpt>
      <trkpt lat="49.778" lon="2.37345">
        <ele>43.3</ele>
        <time>2023-10-11T12:14:29Z</time>
      </trkpt>
      <trkpt lat="49.77799" lon="2.37343">
        <ele>43.3</ele>
        <time>2023-10-11T12:14:30Z</time>
      </trkpt>
      <trkpt lat="49.77798" lon="2.37342">
        <ele>43.3</ele>
        <time>2023-10-11T12:14:31Z</time>
      </trkpt>
      <trkpt lat="49.77797" lon="2.37342">
        <ele>43.3</ele>
        <time>2023-10-11T12:14:32Z</time>
      </trkpt>
      <trkpt lat="49.77796" lon="2.37341">
        <ele>43.3</ele>
        <time>2023-10-11T12:14:33Z</time>
      </trkpt>
      <trkpt lat="49.77795" lon="2.3734">
        <ele>43.3</ele>
        <time>2023-10-11T12:14:34Z</time>
      </trkpt>
      <trkpt lat="49.77793" lon="2.37339">
        <ele>43.3</ele>
        <time>2023-10-11T12:14:35Z</time>
      </trkpt>
      <trkpt lat="49.77792" lon="2.37338">
        <ele>43.3</ele>
        <time>2023-10-11T12:14:36Z</time>
      </trkpt>
      <trkpt lat="49.77792" lon="2.37337">
        <ele>43.3</ele>
        <time>2023-10-11T12:14:37Z</time>
      </trkpt>
      <trkpt lat="49.77791" lon="2.37336">
        <ele>43.3</ele>
        <time>2023-10-11T12:14:38Z</time>
      </trkpt>
      <trkpt lat="49.7779" lon="2.37335">
        <ele>43.3</ele>
        <time>2023-10-11T12:14:39Z</time>
      </trkpt>
      <trkpt lat="49.77789" lon="2.37335">
        <ele>43.3</ele>
        <time>2023-10-11T12:14:40Z</time>
      </trkpt>
      <trkpt lat="49.77788" lon="2.37334">
        <ele>43.2</ele>
        <time>2023-10-11T12:14:41Z</time>
      </trkpt>
      <trkpt lat="49.77787" lon="2.37333">
        <ele>43.2</ele>
        <time>2023-10-11T12:14:42Z</time>
      </trkpt>
      <trkpt lat="49.77787" lon="2.37332">
        <ele>43.2</ele>
        <time>2023-10-11T12:14:43Z</time>
      </trkpt>
      <trkpt lat="49.77786" lon="2.37331">
        <ele>43.2</ele>
        <time>2023-10-11T12:14:44Z</time>
      </trkpt>
      <trkpt lat="49.77785" lon="2.3733">
        <ele>43.2</ele>
        <time>2023-10-11T12:14:45Z</time>
      </trkpt>
      <trkpt lat="49.77785" lon="2.37329">
        <ele>43.2</ele>
        <time>2023-10-11T12:14:46Z</time>
      </trkpt>
      <trkpt lat="49.77784" lon="2.37328">
        <ele>43.2</ele>
        <time>2023-10-11T12:14:47Z</time>
      </trkpt>
      <trkpt lat="49.77783" lon="2.37326">
        <ele>43.2</ele>
        <time>2023-10-11T12:14:48Z</time>
      </trkpt>
      <trkpt lat="49.77783" lon="2.37326">
        <ele>43.2</ele>
        <time>2023-10-11T12:14:49Z</time>
      </trkpt>
      <trkpt lat="49.77782" lon="2.37325">
        <ele>43.2</ele>
        <time>2023-10-11T12:14:50Z</time>
      </trkpt>
      <trkpt lat="49.77782" lon="2.37324">
        <ele>43.2</ele>
        <time>2023-10-11T12:14:51Z</time>
      </trkpt>
      <trkpt lat="49.77781" lon="2.37323">
        <ele>43.2</ele>
        <time>2023-10-11T12:14:52Z</time>
      </trkpt>
      <trkpt lat="49.7778" lon="2.37321">
        <ele>43.2</ele>
        <time>2023-10-11T12:14:53Z</time>
      </trkpt>
      <trkpt lat="49.7778" lon="2.3732">
        <ele>43.2</ele>
        <time>2023-10-11T12:14:54Z</time>
      </trkpt>
      <trkpt lat="49.77778" lon="2.37318">
        <ele>43.2</ele>
        <time>2023-10-11T12:14:55Z</time>
      </trkpt>
      <trkpt lat="49.77777" lon="2.37317">
        <ele>43.2</ele>
        <time>2023-10-11T12:14:56Z</time>
      </trkpt>
      <trkpt lat="49.77777" lon="2.37316">
        <ele>43.3</ele>
        <time>2023-10-11T12:14:57Z</time>
      </trkpt>
      <trkpt lat="49.77775" lon="2.37314">
        <ele>43.3</ele>
        <time>2023-10-11T12:14:58Z</time>
      </trkpt>
      <trkpt lat="49.77775" lon="2.37313">
        <ele>43.3</ele>
        <time>2023-10-11T12:14:59Z</time>
      </trkpt>
      <trkpt lat="49.77774" lon="2.37312">
        <ele>43.3</ele>
        <time>2023-10-11T12:15:00Z</time>
      </trkpt>
      <trkpt lat="49.77772" lon="2.3731">
        <ele>43.3</ele>
        <time>2023-10-11T12:15:01Z</time>
      </trkpt>
      <trkpt lat="49.77772" lon="2.37309">
        <ele>43.3</ele>
        <time>2023-10-11T12:15:02Z</time>
      </trkpt>
      <trkpt lat="49.77771" lon="2.37308">
        <ele>43.3</ele>
        <time>2023-10-11T12:15:03Z</time>
      </trkpt>
      <trkpt lat="49.77769" lon="2.37307">
        <ele>43.3</ele>
        <time>2023-10-11T12:15:04Z</time>
      </trkpt>
      <trkpt lat="49.77768" lon="2.37306">
        <ele>43.3</ele>
        <time>2023-10-11T12:15:05Z</time>
      </trkpt>
      <trkpt lat="49.77768" lon="2.37305">
        <ele>43.3</ele>
        <time>2023-10-11T12:15:06Z</time>
      </trkpt>
      <trkpt lat="49.77766" lon="2.37303">
        <ele>43.3</ele>
        <time>2023-10-11T12:15:07Z</time>
      </trkpt>
      <trkpt lat="49.77765" lon="2.37302">
        <ele>43.3</ele>
        <time>2023-10-11T12:15:08Z</time>
      </trkpt>
      <trkpt lat="49.77765" lon="2.37301">
        <ele>43.3</ele>
        <time>2023-10-11T12:15:09Z</time>
      </trkpt>
      <trkpt lat="49.77763" lon="2.37299">
        <ele>43.3</ele>
        <time>2023-10-11T12:15:10Z</time>
      </trkpt>
      <trkpt lat="49.77763" lon="2.37298">
        <ele>43.3</ele>
        <time>2023-10-11T12:15:11Z</time>
      </trkpt>
      <trkpt lat="49.77762" lon="2.37297">
        <ele>43.3</ele>
        <time>2023-10-11T12:15:12Z</time>
      </trkpt>
      <trkpt lat="49.77761" lon="2.37294">
        <ele>43.3</ele>
        <time>2023-10-11T12:15:13Z</time>
      </trkpt>
      <trkpt lat="49.7776" lon="2.37293">
        <ele>43.3</ele>
        <time>2023-10-11T12:15:14Z</time>
      </trkpt>
      <trkpt lat="49.7776" lon="2.37292">
        <ele>43.3</ele>
        <time>2023-10-11T12:15:15Z</time>
      </trkpt>
      <trkpt lat="49.77759" lon="2.37289">
        <ele>43.3</ele>
        <time>2023-10-11T12:15:16Z</time>
      </trkpt>
      <trkpt lat="49.77758" lon="2.37288">
        <ele>43.3</ele>
        <time>2023-10-11T12:15:17Z</time>
      </trkpt>
      <trkpt lat="49.77758" lon="2.37287">
        <ele>43.3</ele>
        <time>2023-10-11T12:15:18Z</time>
      </trkpt>
      <trkpt lat="49.77756" lon="2.37285">
        <ele>43.3</ele>
        <time>2023-10-11T12:15:19Z</time>
      </trkpt>
      <trkpt lat="49.77756" lon="2.37284">
        <ele>43.3</ele>
        <time>2023-10-11T12:15:20Z</time>
      </trkpt>
      <trkpt lat="49.77755" lon="2.37283">
        <ele>43.3</ele>
        <time>2023-10-11T12:15:21Z</time>
      </trkpt>
      <trkpt lat="49.77755" lon="2.37281">
        <ele>43.3</ele>
        <time>2023-10-11T12:15:22Z</time>
      </trkpt>
      <trkpt lat="49.77754" lon="2.3728">
        <ele>43.3</ele>
        <time>2023-10-11T12:15:23Z</time>
      </trkpt>
      <trkpt lat="49.77754" lon="2.37279">
        <ele>43.3</ele>
        <time>2023-10-11T12:15:24Z</time>
      </trkpt>
      <trkpt lat="49.77753" lon="2.37277">
        <ele>43.3</ele>
        <time>2023-10-11T12:15:25Z</time>
      </trkpt>
      <trkpt lat="49.77752" lon="2.37276">
        <ele>43.3</ele>
        <time>2023-10-11T12:15:26Z</time>
      </trkpt>
      <trkpt lat="49.77751" lon="2.37276">
        <ele>43.3</ele>
        <time>2023-10-11T12:15:27Z</time>
      </trkpt>
      <trkpt lat="49.7775" lon="2.37275">
        <ele>43.3</ele>
        <time>2023-10-11T12:15:28Z</time>
      </trkpt>
      <trkpt lat="49.7775" lon="2.37274">
        <ele>43.3</ele>
        <time>2023-10-11T12:15:29Z</time>
      </trkpt>
      <trkpt lat="49.77749" lon="2.37274">
        <ele>43.3</ele>
        <time>2023-10-11T12:15:30Z</time>
      </trkpt>
      <trkpt lat="49.77748" lon="2.37273">
        <ele>43.3</ele>
        <time>2023-10-11T12:15:31Z</time>
      </trkpt>
      <trkpt lat="49.77747" lon="2.37273">
        <ele>43.3</ele>
        <time>2023-10-11T12:15:32Z</time>
      </trkpt>
      <trkpt lat="49.77746" lon="2.37272">
        <ele>43.3</ele>
        <time>2023-10-11T12:15:33Z</time>
      </trkpt>
      <trkpt lat="49.77745" lon="2.37271">
        <ele>43.3</ele>
        <time>2023-10-11T12:15:34Z</time>
      </trkpt>
      <trkpt lat="49.77744" lon="2.37271">
        <ele>43.3</ele>
        <time>2023-10-11T12:15:35Z</time>
      </trkpt>
      <trkpt lat="49.77744" lon="2.3727">
        <ele>43.3</ele>
        <time>2023-10-11T12:15:36Z</time>
      </trkpt>
      <trkpt lat="49.77743" lon="2.37269">
        <ele>43.3</ele>
        <time>2023-10-11T12:15:37Z</time>
      </trkpt>
      <trkpt lat="49.77742" lon="2.37268">
        <ele>43.3</ele>
        <time>2023-10-11T12:15:38Z</time>
      </trkpt>
      <trkpt lat="49.77741" lon="2.37268">
        <ele>43.3</ele>
        <time>2023-10-11T12:15:39Z</time>
      </trkpt>
      <trkpt lat="49.77741" lon="2.37268">
        <ele>43.3</ele>
        <time>2023-10-11T12:15:40Z</time>
      </trkpt>
      <trkpt lat="49.7774" lon="2.37267">
        <ele>43.3</ele>
        <time>2023-10-11T12:15:41Z</time>
      </trkpt>
      <trkpt lat="49.77739" lon="2.37267">
        <ele>43.3</ele>
        <time>2023-10-11T12:15:42Z</time>
      </trkpt>
      <trkpt lat="49.77738" lon="2.37266">
        <ele>43.3</ele>
        <time>2023-10-11T12:15:43Z</time>
      </trkpt>
      <trkpt lat="49.77737" lon="2.37266">
        <ele>43.3</ele>
        <time>2023-10-11T12:15:44Z</time>
      </trkpt>
      <trkpt lat="49.77736" lon="2.37266">
        <ele>43.3</ele>
        <time>2023-10-11T12:15:45Z</time>
      </trkpt>
      <trkpt lat="49.77736" lon="2.37266">
        <ele>43.3</ele>
        <time>2023-10-11T12:15:46Z</time>
      </trkpt>
      <trkpt lat="49.77735" lon="2.37265">
        <ele>43.3</ele>
        <time>2023-10-11T12:15:47Z</time>
      </trkpt>
      <trkpt lat="49.77734" lon="2.37265">
        <ele>43.3</ele>
        <time>2023-10-11T12:15:48Z</time>
      </trkpt>
      <trkpt lat="49.77733" lon="2.37265">
        <ele>43.3</ele>
        <time>2023-10-11T12:15:49Z</time>
      </trkpt>
      <trkpt lat="49.77732" lon="2.37265">
        <ele>43.3</ele>
        <time>2023-10-11T12:15:50Z</time>
      </trkpt>
      <trkpt lat="49.77732" lon="2.37264">
        <ele>43.3</ele>
        <time>2023-10-11T12:15:51Z</time>
      </trkpt>
      <trkpt lat="49.77731" lon="2.37263">
        <ele>43.3</ele>
        <time>2023-10-11T12:15:52Z</time>
      </trkpt>
      <trkpt lat="49.7773" lon="2.37263">
        <ele>43.3</ele>
        <time>2023-10-11T12:15:53Z</time>
      </trkpt>
      <trkpt lat="49.7773" lon="2.37262">
        <ele>43.4</ele>
        <time>2023-10-11T12:15:54Z</time>
      </trkpt>
      <trkpt lat="49.7773" lon="2.37262">
        <ele>43.4</ele>
        <time>2023-10-11T12:15:55Z</time>
      </trkpt>
      <trkpt lat="49.77729" lon="2.37262">
        <ele>43.4</ele>
        <time>2023-10-11T12:15:56Z</time>
      </trkpt>
      <trkpt lat="49.77728" lon="2.37261">
        <ele>43.4</ele>
        <time>2023-10-11T12:15:57Z</time>
      </trkpt>
      <trkpt lat="49.77728" lon="2.37261">
        <ele>43.4</ele>
        <time>2023-10-11T12:15:58Z</time>
      </trkpt>
      <trkpt lat="49.77727" lon="2.37261">
        <ele>43.4</ele>
        <time>2023-10-11T12:15:59Z</time>
      </trkpt>
      <trkpt lat="49.77727" lon="2.3726">
        <ele>43.4</ele>
        <time>2023-10-11T12:16:00Z</time>
      </trkpt>
      <trkpt lat="49.77727" lon="2.37261">
        <ele>43.4</ele>
        <time>2023-10-11T12:16:01Z</time>
      </trkpt>
      <trkpt lat="49.77727" lon="2.37261">
        <ele>43.4</ele>
        <time>2023-10-11T12:16:02Z</time>
      </trkpt>
      <trkpt lat="49.77726" lon="2.3726">
        <ele>43.4</ele>
        <time>2023-10-11T12:16:03Z</time>
      </trkpt>
      <trkpt lat="49.77725" lon="2.3726">
        <ele>43.4</ele>
        <time>2023-10-11T12:16:04Z</time>
      </trkpt>
      <trkpt lat="49.77724" lon="2.3726">
        <ele>43.4</ele>
        <time>2023-10-11T12:16:05Z</time>
      </trkpt>
      <trkpt lat="49.77723" lon="2.3726">
        <ele>43.4</ele>
        <time>2023-10-11T12:16:06Z</time>
      </trkpt>
      <trkpt lat="49.77722" lon="2.3726">
        <ele>43.4</ele>
        <time>2023-10-11T12:16:07Z</time>
      </trkpt>
      <trkpt lat="49.77721" lon="2.37259">
        <ele>43.4</ele>
        <time>2023-10-11T12:16:08Z</time>
      </trkpt>
      <trkpt lat="49.77719" lon="2.37258">
        <ele>43.4</ele>
        <time>2023-10-11T12:16:09Z</time>
      </trkpt>
      <trkpt lat="49.77719" lon="2.37257">
        <ele>43.4</ele>
        <time>2023-10-11T12:16:10Z</time>
      </trkpt>
      <trkpt lat="49.77718" lon="2.37256">
        <ele>43.4</ele>
        <time>2023-10-11T12:16:11Z</time>
      </trkpt>
      <trkpt lat="49.77717" lon="2.37255">
        <ele>43.4</ele>
        <time>2023-10-11T12:16:12Z</time>
      </trkpt>
      <trkpt lat="49.77714" lon="2.37253">
        <ele>43.4</ele>
        <time>2023-10-11T12:16:13Z</time>
      </trkpt>
      <trkpt lat="49.77712" lon="2.37251">
        <ele>43.4</ele>
        <time>2023-10-11T12:16:15Z</time>
      </trkpt>
      <trkpt lat="49.77711" lon="2.3725">
        <ele>43.4</ele>
        <time>2023-10-11T12:16:16Z</time>
      </trkpt>
      <trkpt lat="49.7771" lon="2.3725">
        <ele>43.4</ele>
        <time>2023-10-11T12:16:17Z</time>
      </trkpt>
      <trkpt lat="49.77709" lon="2.3725">
        <ele>43.4</ele>
        <time>2023-10-11T12:16:18Z</time>
      </trkpt>
      <trkpt lat="49.77708" lon="2.37249">
        <ele>43.4</ele>
        <time>2023-10-11T12:16:19Z</time>
      </trkpt>
      <trkpt lat="49.77707" lon="2.37249">
        <ele>43.4</ele>
        <time>2023-10-11T12:16:20Z</time>
      </trkpt>
      <trkpt lat="49.77705" lon="2.37249">
        <ele>43.4</ele>
        <time>2023-10-11T12:16:21Z</time>
      </trkpt>
      <trkpt lat="49.77704" lon="2.37248">
        <ele>43.4</ele>
        <time>2023-10-11T12:16:22Z</time>
      </trkpt>
      <trkpt lat="49.77703" lon="2.37248">
        <ele>43.4</ele>
        <time>2023-10-11T12:16:23Z</time>
      </trkpt>
      <trkpt lat="49.77702" lon="2.37248">
        <ele>43.4</ele>
        <time>2023-10-11T12:16:24Z</time>
      </trkpt>
      <trkpt lat="49.77701" lon="2.37247">
        <ele>43.3</ele>
        <time>2023-10-11T12:16:25Z</time>
      </trkpt>
      <trkpt lat="49.77699" lon="2.37246">
        <ele>43.3</ele>
        <time>2023-10-11T12:16:26Z</time>
      </trkpt>
      <trkpt lat="49.77697" lon="2.37244">
        <ele>43.3</ele>
        <time>2023-10-11T12:16:27Z</time>
      </trkpt>
      <trkpt lat="49.77697" lon="2.37243">
        <ele>43.3</ele>
        <time>2023-10-11T12:16:28Z</time>
      </trkpt>
      <trkpt lat="49.77696" lon="2.37242">
        <ele>43.3</ele>
        <time>2023-10-11T12:16:29Z</time>
      </trkpt>
      <trkpt lat="49.77695" lon="2.37241">
        <ele>43.3</ele>
        <time>2023-10-11T12:16:30Z</time>
      </trkpt>
      <trkpt lat="49.77694" lon="2.3724">
        <ele>43.3</ele>
        <time>2023-10-11T12:16:31Z</time>
      </trkpt>
      <trkpt lat="49.77693" lon="2.37239">
        <ele>43.2</ele>
        <time>2023-10-11T12:16:32Z</time>
      </trkpt>
      <trkpt lat="49.77693" lon="2.37238">
        <ele>43.2</ele>
        <time>2023-10-11T12:16:33Z</time>
      </trkpt>
      <trkpt lat="49.77692" lon="2.37237">
        <ele>43.2</ele>
        <time>2023-10-11T12:16:34Z</time>
      </trkpt>
      <trkpt lat="49.77691" lon="2.37236">
        <ele>43.2</ele>
        <time>2023-10-11T12:16:35Z</time>
      </trkpt>
      <trkpt lat="49.77691" lon="2.37236">
        <ele>43.2</ele>
        <time>2023-10-11T12:16:36Z</time>
      </trkpt>
      <trkpt lat="49.7769" lon="2.37235">
        <ele>43.2</ele>
        <time>2023-10-11T12:16:37Z</time>
      </trkpt>
      <trkpt lat="49.7769" lon="2.37234">
        <ele>43.2</ele>
        <time>2023-10-11T12:16:38Z</time>
      </trkpt>
      <trkpt lat="49.77689" lon="2.37233">
        <ele>43.2</ele>
        <time>2023-10-11T12:16:39Z</time>
      </trkpt>
      <trkpt lat="49.77689" lon="2.37232">
        <ele>43.1</ele>
        <time>2023-10-11T12:16:40Z</time>
      </trkpt>
      <trkpt lat="49.77688" lon="2.37231">
        <ele>43.1</ele>
        <time>2023-10-11T12:16:41Z</time>
      </trkpt>
      <trkpt lat="49.77688" lon="2.3723">
        <ele>43.1</ele>
        <time>2023-10-11T12:16:42Z</time>
      </trkpt>
      <trkpt lat="49.77688" lon="2.37229">
        <ele>43.1</ele>
        <time>2023-10-11T12:16:43Z</time>
      </trkpt>
      <trkpt lat="49.77688" lon="2.37228">
        <ele>43.1</ele>
        <time>2023-10-11T12:16:44Z</time>
      </trkpt>
      <trkpt lat="49.77688" lon="2.37227">
        <ele>43.1</ele>
        <time>2023-10-11T12:16:45Z</time>
      </trkpt>
      <trkpt lat="49.77688" lon="2.37226">
        <ele>43.1</ele>
        <time>2023-10-11T12:16:46Z</time>
      </trkpt>
      <trkpt lat="49.77688" lon="2.37225">
        <ele>43.1</ele>
        <time>2023-10-11T12:16:47Z</time>
      </trkpt>
      <trkpt lat="49.77689" lon="2.37224">
        <ele>43.1</ele>
        <time>2023-10-11T12:16:48Z</time>
      </trkpt>
      <trkpt lat="49.77689" lon="2.37224">
        <ele>43</ele>
        <time>2023-10-11T12:16:49Z</time>
      </trkpt>
      <trkpt lat="49.77689" lon="2.37223">
        <ele>43</ele>
        <time>2023-10-11T12:16:50Z</time>
      </trkpt>
      <trkpt lat="49.77689" lon="2.37222">
        <ele>43</ele>
        <time>2023-10-11T12:16:51Z</time>
      </trkpt>
      <trkpt lat="49.77689" lon="2.37221">
        <ele>43</ele>
        <time>2023-10-11T12:16:52Z</time>
      </trkpt>
      <trkpt lat="49.7769" lon="2.3722">
        <ele>43</ele>
        <time>2023-10-11T12:16:53Z</time>
      </trkpt>
      <trkpt lat="49.7769" lon="2.37219">
        <ele>43</ele>
        <time>2023-10-11T12:16:54Z</time>
      </trkpt>
      <trkpt lat="49.7769" lon="2.37219">
        <ele>43</ele>
        <time>2023-10-11T12:16:55Z</time>
      </trkpt>
      <trkpt lat="49.7769" lon="2.37218">
        <ele>43</ele>
        <time>2023-10-11T12:16:56Z</time>
      </trkpt>
      <trkpt lat="49.7769" lon="2.37218">
        <ele>43</ele>
        <time>2023-10-11T12:16:57Z</time>
      </trkpt>
      <trkpt lat="49.7769" lon="2.37218">
        <ele>43</ele>
        <time>2023-10-11T12:16:58Z</time>
      </trkpt>
      <trkpt lat="49.77689" lon="2.37217">
        <ele>43</ele>
        <time>2023-10-11T12:16:59Z</time>
      </trkpt>
      <trkpt lat="49.77689" lon="2.37218">
        <ele>43</ele>
        <time>2023-10-11T12:17:00Z</time>
      </trkpt>
      <trkpt lat="49.77688" lon="2.37218">
        <ele>43</ele>
        <time>2023-10-11T12:17:01Z</time>
      </trkpt>
      <trkpt lat="49.77687" lon="2.37218">
        <ele>42.9</ele>
        <time>2023-10-11T12:17:02Z</time>
      </trkpt>
      <trkpt lat="49.77687" lon="2.37218">
        <ele>42.9</ele>
        <time>2023-10-11T12:17:03Z</time>
      </trkpt>
      <trkpt lat="49.77686" lon="2.37217">
        <ele>42.9</ele>
        <time>2023-10-11T12:17:04Z</time>
      </trkpt>
      <trkpt lat="49.77685" lon="2.37217">
        <ele>42.9</ele>
        <time>2023-10-11T12:17:05Z</time>
      </trkpt>
      <trkpt lat="49.77684" lon="2.37216">
        <ele>42.9</ele>
        <time>2023-10-11T12:17:06Z</time>
      </trkpt>
      <trkpt lat="49.77684" lon="2.37215">
        <ele>42.9</ele>
        <time>2023-10-11T12:17:07Z</time>
      </trkpt>
      <trkpt lat="49.77683" lon="2.37214">
        <ele>42.9</ele>
        <time>2023-10-11T12:17:08Z</time>
      </trkpt>
      <trkpt lat="49.77683" lon="2.37213">
        <ele>42.8</ele>
        <time>2023-10-11T12:17:09Z</time>
      </trkpt>
      <trkpt lat="49.77682" lon="2.37211">
        <ele>42.8</ele>
        <time>2023-10-11T12:17:10Z</time>
      </trkpt>
      <trkpt lat="49.77682" lon="2.37209">
        <ele>42.8</ele>
        <time>2023-10-11T12:17:11Z</time>
      </trkpt>
      <trkpt lat="49.77682" lon="2.37208">
        <ele>42.8</ele>
        <time>2023-10-11T12:17:12Z</time>
      </trkpt>
      <trkpt lat="49.77681" lon="2.37206">
        <ele>42.8</ele>
        <time>2023-10-11T12:17:13Z</time>
      </trkpt>
      <trkpt lat="49.77681" lon="2.37204">
        <ele>42.8</ele>
        <time>2023-10-11T12:17:14Z</time>
      </trkpt>
      <trkpt lat="49.7768" lon="2.37203">
        <ele>42.7</ele>
        <time>2023-10-11T12:17:15Z</time>
      </trkpt>
      <trkpt lat="49.7768" lon="2.37201">
        <ele>42.7</ele>
        <time>2023-10-11T12:17:16Z</time>
      </trkpt>
      <trkpt lat="49.77679" lon="2.372">
        <ele>42.7</ele>
        <time>2023-10-11T12:17:17Z</time>
      </trkpt>
      <trkpt lat="49.77678" lon="2.37199">
        <ele>42.7</ele>
        <time>2023-10-11T12:17:18Z</time>
      </trkpt>
      <trkpt lat="49.77678" lon="2.37197">
        <ele>42.7</ele>
        <time>2023-10-11T12:17:19Z</time>
      </trkpt>
      <trkpt lat="49.77677" lon="2.37196">
        <ele>42.7</ele>
        <time>2023-10-11T12:17:20Z</time>
      </trkpt>
      <trkpt lat="49.77676" lon="2.37195">
        <ele>42.7</ele>
        <time>2023-10-11T12:17:21Z</time>
      </trkpt>
      <trkpt lat="49.77675" lon="2.37193">
        <ele>42.6</ele>
        <time>2023-10-11T12:17:22Z</time>
      </trkpt>
      <trkpt lat="49.77674" lon="2.37192">
        <ele>42.6</ele>
        <time>2023-10-11T12:17:23Z</time>
      </trkpt>
      <trkpt lat="49.77673" lon="2.37191">
        <ele>42.6</ele>
        <time>2023-10-11T12:17:24Z</time>
      </trkpt>
      <trkpt lat="49.77673" lon="2.3719">
        <ele>42.6</ele>
        <time>2023-10-11T12:17:25Z</time>
      </trkpt>
      <trkpt lat="49.77671" lon="2.37189">
        <ele>42.6</ele>
        <time>2023-10-11T12:17:26Z</time>
      </trkpt>
      <trkpt lat="49.77671" lon="2.37188">
        <ele>42.6</ele>
        <time>2023-10-11T12:17:27Z</time>
      </trkpt>
      <trkpt lat="49.7767" lon="2.37187">
        <ele>42.6</ele>
        <time>2023-10-11T12:17:28Z</time>
      </trkpt>
      <trkpt lat="49.77669" lon="2.37185">
        <ele>42.5</ele>
        <time>2023-10-11T12:17:29Z</time>
      </trkpt>
      <trkpt lat="49.77668" lon="2.37184">
        <ele>42.5</ele>
        <time>2023-10-11T12:17:30Z</time>
      </trkpt>
      <trkpt lat="49.77668" lon="2.37183">
        <ele>42.5</ele>
        <time>2023-10-11T12:17:31Z</time>
      </trkpt>
      <trkpt lat="49.77667" lon="2.37181">
        <ele>42.5</ele>
        <time>2023-10-11T12:17:32Z</time>
      </trkpt>
      <trkpt lat="49.77666" lon="2.37179">
        <ele>42.5</ele>
        <time>2023-10-11T12:17:33Z</time>
      </trkpt>
      <trkpt lat="49.77666" lon="2.37178">
        <ele>42.5</ele>
        <time>2023-10-11T12:17:34Z</time>
      </trkpt>
      <trkpt lat="49.77665" lon="2.37177">
        <ele>42.5</ele>
        <time>2023-10-11T12:17:35Z</time>
      </trkpt>
      <trkpt lat="49.77665" lon="2.37175">
        <ele>42.4</ele>
        <time>2023-10-11T12:17:37Z</time>
      </trkpt>
      <trkpt lat="49.77664" lon="2.37174">
        <ele>42.4</ele>
        <time>2023-10-11T12:17:38Z</time>
      </trkpt>
      <trkpt lat="49.77663" lon="2.37172">
        <ele>42.4</ele>
        <time>2023-10-11T12:17:39Z</time>
      </trkpt>
      <trkpt lat="49.77663" lon="2.37171">
        <ele>42.4</ele>
        <time>2023-10-11T12:17:40Z</time>
      </trkpt>
      <trkpt lat="49.77663" lon="2.37169">
        <ele>42.4</ele>
        <time>2023-10-11T12:17:41Z</time>
      </trkpt>
      <trkpt lat="49.77662" lon="2.37168">
        <ele>42.4</ele>
        <time>2023-10-11T12:17:42Z</time>
      </trkpt>
      <trkpt lat="49.77662" lon="2.37166">
        <ele>42.4</ele>
        <time>2023-10-11T12:17:43Z</time>
      </trkpt>
      <trkpt lat="49.77661" lon="2.37164">
        <ele>42.4</ele>
        <time>2023-10-11T12:17:44Z</time>
      </trkpt>
      <trkpt lat="49.77661" lon="2.37161">
        <ele>42.4</ele>
        <time>2023-10-11T12:17:45Z</time>
      </trkpt>
      <trkpt lat="49.77661" lon="2.3716">
        <ele>42.4</ele>
        <time>2023-10-11T12:17:46Z</time>
      </trkpt>
      <trkpt lat="49.77661" lon="2.37158">
        <ele>42.4</ele>
        <time>2023-10-11T12:17:47Z</time>
      </trkpt>
      <trkpt lat="49.7766" lon="2.37156">
        <ele>42.4</ele>
        <time>2023-10-11T12:17:48Z</time>
      </trkpt>
      <trkpt lat="49.7766" lon="2.37154">
        <ele>42.4</ele>
        <time>2023-10-11T12:17:49Z</time>
      </trkpt>
      <trkpt lat="49.7766" lon="2.37152">
        <ele>42.4</ele>
        <time>2023-10-11T12:17:50Z</time>
      </trkpt>
      <trkpt lat="49.7766" lon="2.37149">
        <ele>42.4</ele>
        <time>2023-10-11T12:17:51Z</time>
      </trkpt>
      <trkpt lat="49.77659" lon="2.37147">
        <ele>42.4</ele>
        <time>2023-10-11T12:17:52Z</time>
      </trkpt>
      <trkpt lat="49.77659" lon="2.37144">
        <ele>42.4</ele>
        <time>2023-10-11T12:17:53Z</time>
      </trkpt>
      <trkpt lat="49.77659" lon="2.37142">
        <ele>42.4</ele>
        <time>2023-10-11T12:17:54Z</time>
      </trkpt>
      <trkpt lat="49.77659" lon="2.3714">
        <ele>42.4</ele>
        <time>2023-10-11T12:17:55Z</time>
      </trkpt>
      <trkpt lat="49.77659" lon="2.37137">
        <ele>42.4</ele>
        <time>2023-10-11T12:17:56Z</time>
      </trkpt>
      <trkpt lat="49.77659" lon="2.37136">
        <ele>42.4</ele>
        <time>2023-10-11T12:17:57Z</time>
      </trkpt>
      <trkpt lat="49.77658" lon="2.37134">
        <ele>42.4</ele>
        <time>2023-10-11T12:17:58Z</time>
      </trkpt>
      <trkpt lat="49.77658" lon="2.37132">
        <ele>42.4</ele>
        <time>2023-10-11T12:17:59Z</time>
      </trkpt>
      <trkpt lat="49.77658" lon="2.37131">
        <ele>42.4</ele>
        <time>2023-10-11T12:18:00Z</time>
      </trkpt>
      <trkpt lat="49.77658" lon="2.37129">
        <ele>42.4</ele>
        <time>2023-10-11T12:18:01Z</time>
      </trkpt>
      <trkpt lat="49.77657" lon="2.37127">
        <ele>42.4</ele>
        <time>2023-10-11T12:18:02Z</time>
      </trkpt>
      <trkpt lat="49.77657" lon="2.37126">
        <ele>42.4</ele>
        <time>2023-10-11T12:18:03Z</time>
      </trkpt>
      <trkpt lat="49.77657" lon="2.37125">
        <ele>42.4</ele>
        <time>2023-10-11T12:18:04Z</time>
      </trkpt>
      <trkpt lat="49.77657" lon="2.37123">
        <ele>42.4</ele>
        <time>2023-10-11T12:18:05Z</time>
      </trkpt>
      <trkpt lat="49.77656" lon="2.37121">
        <ele>42.5</ele>
        <time>2023-10-11T12:18:06Z</time>
      </trkpt>
      <trkpt lat="49.77656" lon="2.3712">
        <ele>42.5</ele>
        <time>2023-10-11T12:18:07Z</time>
      </trkpt>
      <trkpt lat="49.77655" lon="2.37117">
        <ele>42.5</ele>
        <time>2023-10-11T12:18:08Z</time>
      </trkpt>
      <trkpt lat="49.77655" lon="2.37116">
        <ele>42.5</ele>
        <time>2023-10-11T12:18:09Z</time>
      </trkpt>
      <trkpt lat="49.77655" lon="2.37114">
        <ele>42.5</ele>
        <time>2023-10-11T12:18:10Z</time>
      </trkpt>
      <trkpt lat="49.77655" lon="2.37113">
        <ele>42.5</ele>
        <time>2023-10-11T12:18:11Z</time>
      </trkpt>
      <trkpt lat="49.77654" lon="2.37111">
        <ele>42.5</ele>
        <time>2023-10-11T12:18:12Z</time>
      </trkpt>
      <trkpt lat="49.77654" lon="2.37109">
        <ele>42.5</ele>
        <time>2023-10-11T12:18:13Z</time>
      </trkpt>
      <trkpt lat="49.77654" lon="2.37108">
        <ele>42.5</ele>
        <time>2023-10-11T12:18:14Z</time>
      </trkpt>
      <trkpt lat="49.77653" lon="2.37106">
        <ele>42.5</ele>
        <time>2023-10-11T12:18:15Z</time>
      </trkpt>
      <trkpt lat="49.77653" lon="2.37104">
        <ele>42.5</ele>
        <time>2023-10-11T12:18:16Z</time>
      </trkpt>
      <trkpt lat="49.77652" lon="2.37101">
        <ele>42.5</ele>
        <time>2023-10-11T12:18:17Z</time>
      </trkpt>
      <trkpt lat="49.77652" lon="2.371">
        <ele>42.5</ele>
        <time>2023-10-11T12:18:18Z</time>
      </trkpt>
      <trkpt lat="49.77651" lon="2.37099">
        <ele>42.6</ele>
        <time>2023-10-11T12:18:19Z</time>
      </trkpt>
      <trkpt lat="49.77651" lon="2.37096">
        <ele>42.6</ele>
        <time>2023-10-11T12:18:20Z</time>
      </trkpt>
      <trkpt lat="49.7765" lon="2.37094">
        <ele>42.6</ele>
        <time>2023-10-11T12:18:21Z</time>
      </trkpt>
      <trkpt lat="49.7765" lon="2.37093">
        <ele>42.6</ele>
        <time>2023-10-11T12:18:22Z</time>
      </trkpt>
      <trkpt lat="49.77649" lon="2.3709">
        <ele>42.6</ele>
        <time>2023-10-11T12:18:23Z</time>
      </trkpt>
      <trkpt lat="49.77649" lon="2.37089">
        <ele>42.6</ele>
        <time>2023-10-11T12:18:24Z</time>
      </trkpt>
      <trkpt lat="49.77648" lon="2.37088">
        <ele>42.6</ele>
        <time>2023-10-11T12:18:25Z</time>
      </trkpt>
      <trkpt lat="49.77648" lon="2.37086">
        <ele>42.6</ele>
        <time>2023-10-11T12:18:26Z</time>
      </trkpt>
      <trkpt lat="49.77647" lon="2.37084">
        <ele>42.6</ele>
        <time>2023-10-11T12:18:27Z</time>
      </trkpt>
      <trkpt lat="49.77646" lon="2.37081">
        <ele>42.6</ele>
        <time>2023-10-11T12:18:28Z</time>
      </trkpt>
      <trkpt lat="49.77646" lon="2.3708">
        <ele>42.6</ele>
        <time>2023-10-11T12:18:29Z</time>
      </trkpt>
      <trkpt lat="49.77645" lon="2.37079">
        <ele>42.6</ele>
        <time>2023-10-11T12:18:30Z</time>
      </trkpt>
      <trkpt lat="49.77645" lon="2.37077">
        <ele>42.7</ele>
        <time>2023-10-11T12:18:31Z</time>
      </trkpt>
      <trkpt lat="49.77644" lon="2.37075">
        <ele>42.7</ele>
        <time>2023-10-11T12:18:32Z</time>
      </trkpt>
      <trkpt lat="49.77644" lon="2.37074">
        <ele>42.7</ele>
        <time>2023-10-11T12:18:33Z</time>
      </trkpt>
      <trkpt lat="49.77643" lon="2.37072">
        <ele>42.7</ele>
        <time>2023-10-11T12:18:34Z</time>
      </trkpt>
      <trkpt lat="49.77643" lon="2.37071">
        <ele>42.7</ele>
        <time>2023-10-11T12:18:35Z</time>
      </trkpt>
      <trkpt lat="49.77642" lon="2.37069">
        <ele>42.7</ele>
        <time>2023-10-11T12:18:36Z</time>
      </trkpt>
      <trkpt lat="49.77642" lon="2.37068">
        <ele>42.7</ele>
        <time>2023-10-11T12:18:37Z</time>
      </trkpt>
      <trkpt lat="49.77641" lon="2.37066">
        <ele>42.7</ele>
        <time>2023-10-11T12:18:38Z</time>
      </trkpt>
      <trkpt lat="49.77641" lon="2.37065">
        <ele>42.8</ele>
        <time>2023-10-11T12:18:39Z</time>
      </trkpt>
      <trkpt lat="49.7764" lon="2.37063">
        <ele>42.8</ele>
        <time>2023-10-11T12:18:40Z</time>
      </trkpt>
      <trkpt lat="49.7764" lon="2.37062">
        <ele>42.8</ele>
        <time>2023-10-11T12:18:41Z</time>
      </trkpt>
      <trkpt lat="49.77639" lon="2.37059">
        <ele>42.8</ele>
        <time>2023-10-11T12:18:42Z</time>
      </trkpt>
      <trkpt lat="49.77638" lon="2.37055">
        <ele>42.8</ele>
        <time>2023-10-11T12:18:44Z</time>
      </trkpt>
      <trkpt lat="49.77637" lon="2.37054">
        <ele>42.8</ele>
        <time>2023-10-11T12:18:45Z</time>
      </trkpt>
      <trkpt lat="49.77636" lon="2.37051">
        <ele>42.9</ele>
        <time>2023-10-11T12:18:47Z</time>
      </trkpt>
      <trkpt lat="49.77636" lon="2.3705">
        <ele>42.9</ele>
        <time>2023-10-11T12:18:48Z</time>
      </trkpt>
      <trkpt lat="49.77635" lon="2.37049">
        <ele>42.9</ele>
        <time>2023-10-11T12:18:49Z</time>
      </trkpt>
      <trkpt lat="49.77634" lon="2.37045">
        <ele>42.9</ele>
        <time>2023-10-11T12:18:50Z</time>
      </trkpt>
      <trkpt lat="49.77634" lon="2.37044">
        <ele>42.9</ele>
        <time>2023-10-11T12:18:52Z</time>
      </trkpt>
      <trkpt lat="49.77633" lon="2.37042">
        <ele>42.9</ele>
        <time>2023-10-11T12:18:53Z</time>
      </trkpt>
      <trkpt lat="49.77633" lon="2.37041">
        <ele>42.9</ele>
        <time>2023-10-11T12:18:54Z</time>
      </trkpt>
      <trkpt lat="49.77632" lon="2.37039">
        <ele>43</ele>
        <time>2023-10-11T12:18:55Z</time>
      </trkpt>
      <trkpt lat="49.77632" lon="2.37038">
        <ele>43</ele>
        <time>2023-10-11T12:18:56Z</time>
      </trkpt>
      <trkpt lat="49.77632" lon="2.37036">
        <ele>43</ele>
        <time>2023-10-11T12:18:57Z</time>
      </trkpt>
      <trkpt lat="49.77631" lon="2.37034">
        <ele>43</ele>
        <time>2023-10-11T12:18:58Z</time>
      </trkpt>
      <trkpt lat="49.77631" lon="2.37033">
        <ele>43</ele>
        <time>2023-10-11T12:18:59Z</time>
      </trkpt>
      <trkpt lat="49.7763" lon="2.37031">
        <ele>43</ele>
        <time>2023-10-11T12:19:00Z</time>
      </trkpt>
      <trkpt lat="49.7763" lon="2.3703">
        <ele>43</ele>
        <time>2023-10-11T12:19:01Z</time>
      </trkpt>
      <trkpt lat="49.77629" lon="2.37028">
        <ele>43</ele>
        <time>2023-10-11T12:19:02Z</time>
      </trkpt>
      <trkpt lat="49.77629" lon="2.37027">
        <ele>43.1</ele>
        <time>2023-10-11T12:19:03Z</time>
      </trkpt>
      <trkpt lat="49.77628" lon="2.37025">
        <ele>43.1</ele>
        <time>2023-10-11T12:19:04Z</time>
      </trkpt>
      <trkpt lat="49.77627" lon="2.37023">
        <ele>43.1</ele>
        <time>2023-10-11T12:19:05Z</time>
      </trkpt>
      <trkpt lat="49.77627" lon="2.37022">
        <ele>43.1</ele>
        <time>2023-10-11T12:19:06Z</time>
      </trkpt>
      <trkpt lat="49.77626" lon="2.3702">
        <ele>43.1</ele>
        <time>2023-10-11T12:19:07Z</time>
      </trkpt>
      <trkpt lat="49.77625" lon="2.37019">
        <ele>43.1</ele>
        <time>2023-10-11T12:19:08Z</time>
      </trkpt>
      <trkpt lat="49.77624" lon="2.37018">
        <ele>43.1</ele>
        <time>2023-10-11T12:19:09Z</time>
      </trkpt>
      <trkpt lat="49.77624" lon="2.37017">
        <ele>43.1</ele>
        <time>2023-10-11T12:19:10Z</time>
      </trkpt>
      <trkpt lat="49.77623" lon="2.37015">
        <ele>43.2</ele>
        <time>2023-10-11T12:19:11Z</time>
      </trkpt>
      <trkpt lat="49.77622" lon="2.37014">
        <ele>43.2</ele>
        <time>2023-10-11T12:19:12Z</time>
      </trkpt>
      <trkpt lat="49.77621" lon="2.37011">
        <ele>43.2</ele>
        <time>2023-10-11T12:19:13Z</time>
      </trkpt>
      <trkpt lat="49.7762" lon="2.37009">
        <ele>43.2</ele>
        <time>2023-10-11T12:19:14Z</time>
      </trkpt>
      <trkpt lat="49.7762" lon="2.37008">
        <ele>43.2</ele>
        <time>2023-10-11T12:19:15Z</time>
      </trkpt>
      <trkpt lat="49.77619" lon="2.37007">
        <ele>43.2</ele>
        <time>2023-10-11T12:19:17Z</time>
      </trkpt>
      <trkpt lat="49.77618" lon="2.37005">
        <ele>43.2</ele>
        <time>2023-10-11T12:19:18Z</time>
      </trkpt>
      <trkpt lat="49.77617" lon="2.37004">
        <ele>43.2</ele>
        <time>2023-10-11T12:19:19Z</time>
      </trkpt>
      <trkpt lat="49.77617" lon="2.37003">
        <ele>43.2</ele>
        <time>2023-10-11T12:19:20Z</time>
      </trkpt>
      <trkpt lat="49.77616" lon="2.37002">
        <ele>43.2</ele>
        <time>2023-10-11T12:19:21Z</time>
      </trkpt>
      <trkpt lat="49.77616" lon="2.37">
        <ele>43.2</ele>
        <time>2023-10-11T12:19:22Z</time>
      </trkpt>
      <trkpt lat="49.77615" lon="2.36999">
        <ele>43.3</ele>
        <time>2023-10-11T12:19:23Z</time>
      </trkpt>
      <trkpt lat="49.77615" lon="2.36998">
        <ele>43.3</ele>
        <time>2023-10-11T12:19:24Z</time>
      </trkpt>
      <trkpt lat="49.77614" lon="2.36996">
        <ele>43.3</ele>
        <time>2023-10-11T12:19:25Z</time>
      </trkpt>
      <trkpt lat="49.77614" lon="2.36995">
        <ele>43.3</ele>
        <time>2023-10-11T12:19:26Z</time>
      </trkpt>
      <trkpt lat="49.77614" lon="2.36994">
        <ele>43.3</ele>
        <time>2023-10-11T12:19:27Z</time>
      </trkpt>
      <trkpt lat="49.77613" lon="2.36992">
        <ele>43.3</ele>
        <time>2023-10-11T12:19:28Z</time>
      </trkpt>
      <trkpt lat="49.77613" lon="2.3699">
        <ele>43.3</ele>
        <time>2023-10-11T12:19:30Z</time>
      </trkpt>
      <trkpt lat="49.77613" lon="2.36989">
        <ele>43.3</ele>
        <time>2023-10-11T12:19:31Z</time>
      </trkpt>
      <trkpt lat="49.77613" lon="2.36988">
        <ele>43.3</ele>
        <time>2023-10-11T12:19:32Z</time>
      </trkpt>
      <trkpt lat="49.77612" lon="2.36987">
        <ele>43.3</ele>
        <time>2023-10-11T12:19:33Z</time>
      </trkpt>
      <trkpt lat="49.77612" lon="2.36986">
        <ele>43.3</ele>
        <time>2023-10-11T12:19:34Z</time>
      </trkpt>
      <trkpt lat="49.77612" lon="2.36986">
        <ele>43.3</ele>
        <time>2023-10-11T12:19:35Z</time>
      </trkpt>
      <trkpt lat="49.77613" lon="2.36985">
        <ele>43.3</ele>
        <time>2023-10-11T12:19:36Z</time>
      </trkpt>
      <trkpt lat="49.77613" lon="2.36984">
        <ele>43.3</ele>
        <time>2023-10-11T12:19:37Z</time>
      </trkpt>
      <trkpt lat="49.77613" lon="2.36983">
        <ele>43.3</ele>
        <time>2023-10-11T12:19:38Z</time>
      </trkpt>
      <trkpt lat="49.77613" lon="2.36982">
        <ele>43.3</ele>
        <time>2023-10-11T12:19:39Z</time>
      </trkpt>
      <trkpt lat="49.77613" lon="2.3698">
        <ele>43.3</ele>
        <time>2023-10-11T12:19:40Z</time>
      </trkpt>
      <trkpt lat="49.77613" lon="2.36979">
        <ele>43.3</ele>
        <time>2023-10-11T12:19:41Z</time>
      </trkpt>
      <trkpt lat="49.77613" lon="2.36977">
        <ele>43.3</ele>
        <time>2023-10-11T12:19:42Z</time>
      </trkpt>
      <trkpt lat="49.77613" lon="2.36976">
        <ele>43.3</ele>
        <time>2023-10-11T12:19:43Z</time>
      </trkpt>
      <trkpt lat="49.77613" lon="2.36974">
        <ele>43.3</ele>
        <time>2023-10-11T12:19:44Z</time>
      </trkpt>
      <trkpt lat="49.77613" lon="2.36973">
        <ele>43.3</ele>
        <time>2023-10-11T12:19:45Z</time>
      </trkpt>
      <trkpt lat="49.77613" lon="2.36973">
        <ele>43.3</ele>
        <time>2023-10-11T12:19:46Z</time>
      </trkpt>
      <trkpt lat="49.77613" lon="2.36972">
        <ele>43.3</ele>
        <time>2023-10-11T12:19:47Z</time>
      </trkpt>
      <trkpt lat="49.77613" lon="2.36972">
        <ele>43.3</ele>
        <time>2023-10-11T12:19:48Z</time>
      </trkpt>
      <trkpt lat="49.77613" lon="2.36971">
        <ele>43.3</ele>
        <time>2023-10-11T12:19:49Z</time>
      </trkpt>
      <trkpt lat="49.77613" lon="2.36971">
        <ele>43.3</ele>
        <time>2023-10-11T12:19:50Z</time>
      </trkpt>
      <trkpt lat="49.77613" lon="2.3697">
        <ele>43.3</ele>
        <time>2023-10-11T12:19:51Z</time>
      </trkpt>
      <trkpt lat="49.77613" lon="2.3697">
        <ele>43.3</ele>
        <time>2023-10-11T12:19:52Z</time>
      </trkpt>
      <trkpt lat="49.77613" lon="2.36969">
        <ele>43.3</ele>
        <time>2023-10-11T12:19:53Z</time>
      </trkpt>
      <trkpt lat="49.77614" lon="2.36969">
        <ele>43.3</ele>
        <time>2023-10-11T12:19:54Z</time>
      </trkpt>
      <trkpt lat="49.77614" lon="2.36968">
        <ele>43.3</ele>
        <time>2023-10-11T12:19:55Z</time>
      </trkpt>
      <trkpt lat="49.77614" lon="2.36968">
        <ele>43.3</ele>
        <time>2023-10-11T12:19:56Z</time>
      </trkpt>
      <trkpt lat="49.77614" lon="2.36967">
        <ele>43.3</ele>
        <time>2023-10-11T12:22:13Z</time>
      </trkpt>
      <trkpt lat="49.77614" lon="2.36966">
        <ele>43.3</ele>
        <time>2023-10-11T12:22:14Z</time>
      </trkpt>
      <trkpt lat="49.77614" lon="2.36966">
        <ele>43.3</ele>
        <time>2023-10-11T12:22:15Z</time>
      </trkpt>
      <trkpt lat="49.77614" lon="2.36965">
        <ele>43.3</ele>
        <time>2023-10-11T12:22:16Z</time>
      </trkpt>
      <trkpt lat="49.77614" lon="2.36965">
        <ele>43.3</ele>
        <time>2023-10-11T12:22:17Z</time>
      </trkpt>
      <trkpt lat="49.77614" lon="2.36964">
        <ele>43.3</ele>
        <time>2023-10-11T12:22:18Z</time>
      </trkpt>
      <trkpt lat="49.77614" lon="2.36964">
        <ele>43.3</ele>
        <time>2023-10-11T12:22:19Z</time>
      </trkpt>
      <trkpt lat="49.77614" lon="2.36963">
        <ele>43.3</ele>
        <time>2023-10-11T12:22:20Z</time>
      </trkpt>
      <trkpt lat="49.77614" lon="2.36963">
        <ele>43.3</ele>
        <time>2023-10-11T12:22:21Z</time>
      </trkpt>
      <trkpt lat="49.77614" lon="2.36962">
        <ele>43.3</ele>
        <time>2023-10-11T12:22:22Z</time>
      </trkpt>
      <trkpt lat="49.77614" lon="2.36962">
        <ele>43.3</ele>
        <time>2023-10-11T12:22:23Z</time>
      </trkpt>
      <trkpt lat="49.77614" lon="2.36961">
        <ele>43.3</ele>
        <time>2023-10-11T12:22:24Z</time>
      </trkpt>
      <trkpt lat="49.77615" lon="2.36961">
        <ele>43.3</ele>
        <time>2023-10-11T12:22:25Z</time>
      </trkpt>
      <trkpt lat="49.77615" lon="2.3696">
        <ele>44.2</ele>
        <time>2023-10-11T12:22:26Z</time>
      </trkpt>
      <trkpt lat="49.77615" lon="2.3696">
        <ele>44.2</ele>
        <time>2023-10-11T12:22:27Z</time>
      </trkpt>
      <trkpt lat="49.77615" lon="2.36959">
        <ele>44.2</ele>
        <time>2023-10-11T12:22:28Z</time>
      </trkpt>
      <trkpt lat="49.77615" lon="2.36959">
        <ele>44.2</ele>
        <time>2023-10-11T12:23:24Z</time>
      </trkpt>
      <trkpt lat="49.77615" lon="2.36958">
        <ele>44.2</ele>
        <time>2023-10-11T12:23:25Z</time>
      </trkpt>
      <trkpt lat="49.77615" lon="2.36958">
        <ele>44.2</ele>
        <time>2023-10-11T12:23:26Z</time>
      </trkpt>
      <trkpt lat="49.77615" lon="2.36957">
        <ele>44.2</ele>
        <time>2023-10-11T12:23:27Z</time>
      </trkpt>
      <trkpt lat="49.77616" lon="2.36955">
        <ele>44.2</ele>
        <time>2023-10-11T12:23:28Z</time>
      </trkpt>
      <trkpt lat="49.77616" lon="2.36953">
        <ele>44.2</ele>
        <time>2023-10-11T12:23:29Z</time>
      </trkpt>
      <trkpt lat="49.77617" lon="2.36951">
        <ele>44.2</ele>
        <time>2023-10-11T12:23:30Z</time>
      </trkpt>
      <trkpt lat="49.77617" lon="2.3695">
        <ele>44.2</ele>
        <time>2023-10-11T12:23:31Z</time>
      </trkpt>
      <trkpt lat="49.77617" lon="2.36948">
        <ele>44.2</ele>
        <time>2023-10-11T12:23:32Z</time>
      </trkpt>
      <trkpt lat="49.77617" lon="2.36947">
        <ele>44.2</ele>
        <time>2023-10-11T12:23:33Z</time>
      </trkpt>
      <trkpt lat="49.77617" lon="2.36947">
        <ele>44.2</ele>
        <time>2023-10-11T12:23:34Z</time>
      </trkpt>
      <trkpt lat="49.77617" lon="2.36946">
        <ele>44.4</ele>
        <time>2023-10-11T12:23:35Z</time>
      </trkpt>
      <trkpt lat="49.77617" lon="2.36946">
        <ele>44.4</ele>
        <time>2023-10-11T12:23:36Z</time>
      </trkpt>
      <trkpt lat="49.77617" lon="2.36946">
        <ele>44.4</ele>
        <time>2023-10-11T12:23:37Z</time>
      </trkpt>
      <trkpt lat="49.77617" lon="2.36946">
        <ele>44.4</ele>
        <time>2023-10-11T12:23:38Z</time>
      </trkpt>
      <trkpt lat="49.77617" lon="2.36945">
        <ele>44.4</ele>
        <time>2023-10-11T12:23:39Z</time>
      </trkpt>
      <trkpt lat="49.77617" lon="2.36945">
        <ele>44.4</ele>
        <time>2023-10-11T12:23:40Z</time>
      </trkpt>
      <trkpt lat="49.77617" lon="2.36944">
        <ele>44.4</ele>
        <time>2023-10-11T12:23:41Z</time>
      </trkpt>
      <trkpt lat="49.77617" lon="2.36944">
        <ele>44.4</ele>
        <time>2023-10-11T12:23:42Z</time>
      </trkpt>
      <trkpt lat="49.77617" lon="2.36943">
        <ele>44.4</ele>
        <time>2023-10-11T12:23:43Z</time>
      </trkpt>
      <trkpt lat="49.77617" lon="2.36943">
        <ele>44.4</ele>
        <time>2023-10-11T12:23:44Z</time>
      </trkpt>
      <trkpt lat="49.77617" lon="2.36943">
        <ele>44.4</ele>
        <time>2023-10-11T12:23:45Z</time>
      </trkpt>
      <trkpt lat="49.77617" lon="2.36943">
        <ele>44.4</ele>
        <time>2023-10-11T12:23:46Z</time>
      </trkpt>
      <trkpt lat="49.77617" lon="2.36943">
        <ele>44.4</ele>
        <time>2023-10-11T12:23:47Z</time>
      </trkpt>
      <trkpt lat="49.77617" lon="2.36943">
        <ele>44.4</ele>
        <time>2023-10-11T12:23:48Z</time>
      </trkpt>
      <trkpt lat="49.77617" lon="2.36943">
        <ele>44.4</ele>
        <time>2023-10-11T12:23:49Z</time>
      </trkpt>
      <trkpt lat="49.77617" lon="2.36943">
        <ele>44.4</ele>
        <time>2023-10-11T12:23:51Z</time>
      </trkpt>
      <trkpt lat="49.77617" lon="2.36943">
        <ele>44.4</ele>
        <time>2023-10-11T12:23:52Z</time>
      </trkpt>
      <trkpt lat="49.77617" lon="2.36943">
        <ele>44.4</ele>
        <time>2023-10-11T12:23:53Z</time>
      </trkpt>
      <trkpt lat="49.77617" lon="2.36943">
        <ele>44.4</ele>
        <time>2023-10-11T12:23:54Z</time>
      </trkpt>
      <trkpt lat="49.77617" lon="2.36942">
        <ele>44.4</ele>
        <time>2023-10-11T12:23:55Z</time>
      </trkpt>
      <trkpt lat="49.77618" lon="2.36942">
        <ele>44.4</ele>
        <time>2023-10-11T12:23:56Z</time>
      </trkpt>
      <trkpt lat="49.77618" lon="2.36942">
        <ele>44.4</ele>
        <time>2023-10-11T12:23:57Z</time>
      </trkpt>
      <trkpt lat="49.77618" lon="2.36942">
        <ele>44.4</ele>
        <time>2023-10-11T12:23:58Z</time>
      </trkpt>
      <trkpt lat="49.77618" lon="2.36942">
        <ele>44.4</ele>
        <time>2023-10-11T12:23:59Z</time>
      </trkpt>
      <trkpt lat="49.77618" lon="2.36941">
        <ele>44.4</ele>
        <time>2023-10-11T12:24:00Z</time>
      </trkpt>
      <trkpt lat="49.77618" lon="2.36941">
        <ele>44.4</ele>
        <time>2023-10-11T12:24:01Z</time>
      </trkpt>
      <trkpt lat="49.77618" lon="2.36941">
        <ele>44.4</ele>
        <time>2023-10-11T12:24:03Z</time>
      </trkpt>
      <trkpt lat="49.77619" lon="2.36941">
        <ele>44.4</ele>
        <time>2023-10-11T12:24:04Z</time>
      </trkpt>
      <trkpt lat="49.77619" lon="2.3694">
        <ele>44.4</ele>
        <time>2023-10-11T12:24:05Z</time>
      </trkpt>
      <trkpt lat="49.7762" lon="2.3694">
        <ele>44.4</ele>
        <time>2023-10-11T12:24:06Z</time>
      </trkpt>
      <trkpt lat="49.7762" lon="2.36939">
        <ele>44.4</ele>
        <time>2023-10-11T12:24:07Z</time>
      </trkpt>
      <trkpt lat="49.77621" lon="2.36939">
        <ele>44.4</ele>
        <time>2023-10-11T12:24:08Z</time>
      </trkpt>
      <trkpt lat="49.77622" lon="2.36939">
        <ele>44.4</ele>
        <time>2023-10-11T12:24:09Z</time>
      </trkpt>
      <trkpt lat="49.77623" lon="2.36938">
        <ele>44.4</ele>
        <time>2023-10-11T12:24:10Z</time>
      </trkpt>
      <trkpt lat="49.77624" lon="2.36938">
        <ele>44.4</ele>
        <time>2023-10-11T12:24:12Z</time>
      </trkpt>
      <trkpt lat="49.77625" lon="2.36938">
        <ele>44.4</ele>
        <time>2023-10-11T12:24:13Z</time>
      </trkpt>
      <trkpt lat="49.77626" lon="2.36937">
        <ele>44.5</ele>
        <time>2023-10-11T12:24:14Z</time>
      </trkpt>
      <trkpt lat="49.77626" lon="2.36937">
        <ele>44.5</ele>
        <time>2023-10-11T12:24:15Z</time>
      </trkpt>
      <trkpt lat="49.77627" lon="2.36937">
        <ele>44.5</ele>
        <time>2023-10-11T12:24:16Z</time>
      </trkpt>
      <trkpt lat="49.77628" lon="2.36936">
        <ele>44.5</ele>
        <time>2023-10-11T12:24:17Z</time>
      </trkpt>
      <trkpt lat="49.77629" lon="2.36936">
        <ele>44.5</ele>
        <time>2023-10-11T12:24:18Z</time>
      </trkpt>
      <trkpt lat="49.7763" lon="2.36936">
        <ele>44.5</ele>
        <time>2023-10-11T12:24:19Z</time>
      </trkpt>
      <trkpt lat="49.77631" lon="2.36935">
        <ele>44.5</ele>
        <time>2023-10-11T12:24:20Z</time>
      </trkpt>
      <trkpt lat="49.77631" lon="2.36935">
        <ele>44.5</ele>
        <time>2023-10-11T12:24:21Z</time>
      </trkpt>
      <trkpt lat="49.77633" lon="2.36935">
        <ele>44.5</ele>
        <time>2023-10-11T12:24:22Z</time>
      </trkpt>
      <trkpt lat="49.77634" lon="2.36934">
        <ele>44.5</ele>
        <time>2023-10-11T12:24:23Z</time>
      </trkpt>
      <trkpt lat="49.77637" lon="2.36932">
        <ele>44.7</ele>
        <time>2023-10-11T12:24:24Z</time>
      </trkpt>
      <trkpt lat="49.7764" lon="2.3693">
        <ele>44.7</ele>
        <time>2023-10-11T12:24:26Z</time>
      </trkpt>
      <trkpt lat="49.77641" lon="2.36929">
        <ele>44.8</ele>
        <time>2023-10-11T12:24:28Z</time>
      </trkpt>
      <trkpt lat="49.77643" lon="2.36928">
        <ele>44.8</ele>
        <time>2023-10-11T12:24:29Z</time>
      </trkpt>
      <trkpt lat="49.77644" lon="2.36928">
        <ele>44.8</ele>
        <time>2023-10-11T12:24:30Z</time>
      </trkpt>
      <trkpt lat="49.77645" lon="2.36927">
        <ele>44.8</ele>
        <time>2023-10-11T12:24:31Z</time>
      </trkpt>
      <trkpt lat="49.77645" lon="2.36926">
        <ele>44.9</ele>
        <time>2023-10-11T12:24:32Z</time>
      </trkpt>
      <trkpt lat="49.77646" lon="2.36926">
        <ele>44.9</ele>
        <time>2023-10-11T12:24:33Z</time>
      </trkpt>
      <trkpt lat="49.77647" lon="2.36925">
        <ele>44.9</ele>
        <time>2023-10-11T12:24:34Z</time>
      </trkpt>
      <trkpt lat="49.77648" lon="2.36924">
        <ele>44.9</ele>
        <time>2023-10-11T12:24:35Z</time>
      </trkpt>
      <trkpt lat="49.77649" lon="2.36923">
        <ele>45</ele>
        <time>2023-10-11T12:24:36Z</time>
      </trkpt>
      <trkpt lat="49.7765" lon="2.36922">
        <ele>45</ele>
        <time>2023-10-11T12:24:37Z</time>
      </trkpt>
      <trkpt lat="49.7765" lon="2.36922">
        <ele>45</ele>
        <time>2023-10-11T12:24:38Z</time>
      </trkpt>
      <trkpt lat="49.77651" lon="2.36921">
        <ele>45</ele>
        <time>2023-10-11T12:24:39Z</time>
      </trkpt>
      <trkpt lat="49.77652" lon="2.3692">
        <ele>45.1</ele>
        <time>2023-10-11T12:24:40Z</time>
      </trkpt>
      <trkpt lat="49.77653" lon="2.36919">
        <ele>45.1</ele>
        <time>2023-10-11T12:24:41Z</time>
      </trkpt>
      <trkpt lat="49.77654" lon="2.36918">
        <ele>45.1</ele>
        <time>2023-10-11T12:24:42Z</time>
      </trkpt>
      <trkpt lat="49.77654" lon="2.36917">
        <ele>45.1</ele>
        <time>2023-10-11T12:24:43Z</time>
      </trkpt>
      <trkpt lat="49.77655" lon="2.36917">
        <ele>45.2</ele>
        <time>2023-10-11T12:24:44Z</time>
      </trkpt>
      <trkpt lat="49.77656" lon="2.36916">
        <ele>45.2</ele>
        <time>2023-10-11T12:24:45Z</time>
      </trkpt>
      <trkpt lat="49.77657" lon="2.36915">
        <ele>45.2</ele>
        <time>2023-10-11T12:24:46Z</time>
      </trkpt>
      <trkpt lat="49.77657" lon="2.36914">
        <ele>45.2</ele>
        <time>2023-10-11T12:24:47Z</time>
      </trkpt>
      <trkpt lat="49.77658" lon="2.36913">
        <ele>45.2</ele>
        <time>2023-10-11T12:24:48Z</time>
      </trkpt>
      <trkpt lat="49.77659" lon="2.36912">
        <ele>45.3</ele>
        <time>2023-10-11T12:24:49Z</time>
      </trkpt>
      <trkpt lat="49.77659" lon="2.36911">
        <ele>45.3</ele>
        <time>2023-10-11T12:24:50Z</time>
      </trkpt>
      <trkpt lat="49.7766" lon="2.3691">
        <ele>45.3</ele>
        <time>2023-10-11T12:24:51Z</time>
      </trkpt>
      <trkpt lat="49.77661" lon="2.36909">
        <ele>45.3</ele>
        <time>2023-10-11T12:24:52Z</time>
      </trkpt>
      <trkpt lat="49.77661" lon="2.36908">
        <ele>45.4</ele>
        <time>2023-10-11T12:24:53Z</time>
      </trkpt>
      <trkpt lat="49.77662" lon="2.36907">
        <ele>45.4</ele>
        <time>2023-10-11T12:24:54Z</time>
      </trkpt>
      <trkpt lat="49.77662" lon="2.36906">
        <ele>45.4</ele>
        <time>2023-10-11T12:24:55Z</time>
      </trkpt>
      <trkpt lat="49.77663" lon="2.36906">
        <ele>45.4</ele>
        <time>2023-10-11T12:24:56Z</time>
      </trkpt>
      <trkpt lat="49.77663" lon="2.36905">
        <ele>45.5</ele>
        <time>2023-10-11T12:24:57Z</time>
      </trkpt>
      <trkpt lat="49.77664" lon="2.36904">
        <ele>45.5</ele>
        <time>2023-10-11T12:24:58Z</time>
      </trkpt>
      <trkpt lat="49.77665" lon="2.36903">
        <ele>45.5</ele>
        <time>2023-10-11T12:24:59Z</time>
      </trkpt>
      <trkpt lat="49.77665" lon="2.36902">
        <ele>45.5</ele>
        <time>2023-10-11T12:25:00Z</time>
      </trkpt>
      <trkpt lat="49.77665" lon="2.36902">
        <ele>45.5</ele>
        <time>2023-10-11T12:25:01Z</time>
      </trkpt>
      <trkpt lat="49.77665" lon="2.36902">
        <ele>45.5</ele>
        <time>2023-10-11T12:25:02Z</time>
      </trkpt>
      <trkpt lat="49.77665" lon="2.36903">
        <ele>45.5</ele>
        <time>2023-10-11T12:25:03Z</time>
      </trkpt>
      <trkpt lat="49.77665" lon="2.36903">
        <ele>45.5</ele>
        <time>2023-10-11T12:25:04Z</time>
      </trkpt>
      <trkpt lat="49.77665" lon="2.36902">
        <ele>45.5</ele>
        <time>2023-10-11T12:25:05Z</time>
      </trkpt>
      <trkpt lat="49.77666" lon="2.36902">
        <ele>45.6</ele>
        <time>2023-10-11T12:25:06Z</time>
      </trkpt>
      <trkpt lat="49.77666" lon="2.36901">
        <ele>45.6</ele>
        <time>2023-10-11T12:25:07Z</time>
      </trkpt>
      <trkpt lat="49.77667" lon="2.369">
        <ele>45.6</ele>
        <time>2023-10-11T12:25:08Z</time>
      </trkpt>
      <trkpt lat="49.77667" lon="2.36899">
        <ele>45.6</ele>
        <time>2023-10-11T12:25:09Z</time>
      </trkpt>
      <trkpt lat="49.77667" lon="2.36898">
        <ele>45.6</ele>
        <time>2023-10-11T12:25:10Z</time>
      </trkpt>
      <trkpt lat="49.77669" lon="2.36897">
        <ele>45.7</ele>
        <time>2023-10-11T12:25:11Z</time>
      </trkpt>
      <trkpt lat="49.77669" lon="2.36897">
        <ele>45.7</ele>
        <time>2023-10-11T12:25:13Z</time>
      </trkpt>
      <trkpt lat="49.7767" lon="2.36896">
        <ele>45.7</ele>
        <time>2023-10-11T12:25:14Z</time>
      </trkpt>
      <trkpt lat="49.7767" lon="2.36896">
        <ele>45.7</ele>
        <time>2023-10-11T12:25:15Z</time>
      </trkpt>
      <trkpt lat="49.7767" lon="2.36895">
        <ele>45.8</ele>
        <time>2023-10-11T12:25:16Z</time>
      </trkpt>
      <trkpt lat="49.77671" lon="2.36894">
        <ele>45.8</ele>
        <time>2023-10-11T12:25:17Z</time>
      </trkpt>
      <trkpt lat="49.77672" lon="2.36894">
        <ele>45.8</ele>
        <time>2023-10-11T12:25:18Z</time>
      </trkpt>
      <trkpt lat="49.77674" lon="2.36891">
        <ele>45.9</ele>
        <time>2023-10-11T12:25:19Z</time>
      </trkpt>
      <trkpt lat="49.77675" lon="2.3689">
        <ele>45.9</ele>
        <time>2023-10-11T12:25:21Z</time>
      </trkpt>
      <trkpt lat="49.77675" lon="2.36889">
        <ele>46</ele>
        <time>2023-10-11T12:25:22Z</time>
      </trkpt>
      <trkpt lat="49.77676" lon="2.36888">
        <ele>46</ele>
        <time>2023-10-11T12:25:23Z</time>
      </trkpt>
      <trkpt lat="49.77677" lon="2.36887">
        <ele>46</ele>
        <time>2023-10-11T12:25:24Z</time>
      </trkpt>
      <trkpt lat="49.77677" lon="2.36886">
        <ele>46.1</ele>
        <time>2023-10-11T12:25:25Z</time>
      </trkpt>
      <trkpt lat="49.77678" lon="2.36885">
        <ele>46.1</ele>
        <time>2023-10-11T12:25:26Z</time>
      </trkpt>
      <trkpt lat="49.77679" lon="2.36883">
        <ele>46.2</ele>
        <time>2023-10-11T12:25:27Z</time>
      </trkpt>
      <trkpt lat="49.7768" lon="2.36882">
        <ele>46.2</ele>
        <time>2023-10-11T12:25:28Z</time>
      </trkpt>
      <trkpt lat="49.77681" lon="2.36879">
        <ele>46.3</ele>
        <time>2023-10-11T12:25:30Z</time>
      </trkpt>
      <trkpt lat="49.77682" lon="2.36878">
        <ele>46.3</ele>
        <time>2023-10-11T12:25:32Z</time>
      </trkpt>
      <trkpt lat="49.77683" lon="2.36877">
        <ele>46.4</ele>
        <time>2023-10-11T12:25:33Z</time>
      </trkpt>
      <trkpt lat="49.77684" lon="2.36875">
        <ele>46.4</ele>
        <time>2023-10-11T12:25:34Z</time>
      </trkpt>
      <trkpt lat="49.77685" lon="2.36872">
        <ele>46.5</ele>
        <time>2023-10-11T12:25:36Z</time>
      </trkpt>
      <trkpt lat="49.77685" lon="2.36871">
        <ele>46.6</ele>
        <time>2023-10-11T12:25:38Z</time>
      </trkpt>
      <trkpt lat="49.77686" lon="2.3687">
        <ele>46.6</ele>
        <time>2023-10-11T12:25:39Z</time>
      </trkpt>
      <trkpt lat="49.77687" lon="2.36868">
        <ele>46.7</ele>
        <time>2023-10-11T12:25:40Z</time>
      </trkpt>
      <trkpt lat="49.77687" lon="2.36867">
        <ele>46.7</ele>
        <time>2023-10-11T12:25:42Z</time>
      </trkpt>
      <trkpt lat="49.77688" lon="2.36866">
        <ele>46.7</ele>
        <time>2023-10-11T12:25:43Z</time>
      </trkpt>
      <trkpt lat="49.77688" lon="2.36863">
        <ele>46.8</ele>
        <time>2023-10-11T12:25:44Z</time>
      </trkpt>
      <trkpt lat="49.77689" lon="2.36862">
        <ele>46.8</ele>
        <time>2023-10-11T12:25:45Z</time>
      </trkpt>
      <trkpt lat="49.77689" lon="2.36861">
        <ele>46.9</ele>
        <time>2023-10-11T12:25:46Z</time>
      </trkpt>
      <trkpt lat="49.77689" lon="2.3686">
        <ele>46.9</ele>
        <time>2023-10-11T12:25:47Z</time>
      </trkpt>
      <trkpt lat="49.77689" lon="2.36859">
        <ele>46.9</ele>
        <time>2023-10-11T12:25:48Z</time>
      </trkpt>
      <trkpt lat="49.7769" lon="2.36857">
        <ele>47</ele>
        <time>2023-10-11T12:25:49Z</time>
      </trkpt>
      <trkpt lat="49.7769" lon="2.36856">
        <ele>47</ele>
        <time>2023-10-11T12:25:50Z</time>
      </trkpt>
      <trkpt lat="49.7769" lon="2.36853">
        <ele>47.1</ele>
        <time>2023-10-11T12:25:51Z</time>
      </trkpt>
      <trkpt lat="49.7769" lon="2.36852">
        <ele>47.1</ele>
        <time>2023-10-11T12:25:53Z</time>
      </trkpt>
      <trkpt lat="49.77691" lon="2.3685">
        <ele>47.2</ele>
        <time>2023-10-11T12:25:54Z</time>
      </trkpt>
      <trkpt lat="49.77691" lon="2.36848">
        <ele>47.2</ele>
        <time>2023-10-11T12:25:55Z</time>
      </trkpt>
      <trkpt lat="49.77692" lon="2.36847">
        <ele>47.3</ele>
        <time>2023-10-11T12:25:56Z</time>
      </trkpt>
      <trkpt lat="49.77692" lon="2.36845">
        <ele>47.3</ele>
        <time>2023-10-11T12:25:57Z</time>
      </trkpt>
      <trkpt lat="49.77693" lon="2.36844">
        <ele>47.3</ele>
        <time>2023-10-11T12:25:58Z</time>
      </trkpt>
      <trkpt lat="49.77693" lon="2.36842">
        <ele>47.4</ele>
        <time>2023-10-11T12:25:59Z</time>
      </trkpt>
      <trkpt lat="49.77694" lon="2.36839">
        <ele>47.5</ele>
        <time>2023-10-11T12:26:00Z</time>
      </trkpt>
      <trkpt lat="49.77694" lon="2.36838">
        <ele>47.5</ele>
        <time>2023-10-11T12:26:01Z</time>
      </trkpt>
      <trkpt lat="49.77695" lon="2.36836">
        <ele>47.6</ele>
        <time>2023-10-11T12:26:03Z</time>
      </trkpt>
      <trkpt lat="49.77695" lon="2.36835">
        <ele>47.6</ele>
        <time>2023-10-11T12:26:04Z</time>
      </trkpt>
      <trkpt lat="49.77696" lon="2.36833">
        <ele>47.6</ele>
        <time>2023-10-11T12:26:05Z</time>
      </trkpt>
      <trkpt lat="49.77696" lon="2.36832">
        <ele>47.7</ele>
        <time>2023-10-11T12:26:06Z</time>
      </trkpt>
      <trkpt lat="49.77697" lon="2.36831">
        <ele>47.7</ele>
        <time>2023-10-11T12:26:07Z</time>
      </trkpt>
      <trkpt lat="49.77698" lon="2.36829">
        <ele>47.8</ele>
        <time>2023-10-11T12:26:08Z</time>
      </trkpt>
      <trkpt lat="49.77698" lon="2.36828">
        <ele>47.8</ele>
        <time>2023-10-11T12:26:09Z</time>
      </trkpt>
      <trkpt lat="49.77699" lon="2.36826">
        <ele>47.8</ele>
        <time>2023-10-11T12:26:10Z</time>
      </trkpt>
      <trkpt lat="49.77699" lon="2.36825">
        <ele>47.9</ele>
        <time>2023-10-11T12:26:11Z</time>
      </trkpt>
      <trkpt lat="49.777" lon="2.36822">
        <ele>47.9</ele>
        <time>2023-10-11T12:26:12Z</time>
      </trkpt>
      <trkpt lat="49.77701" lon="2.36821">
        <ele>48</ele>
        <time>2023-10-11T12:26:14Z</time>
      </trkpt>
      <trkpt lat="49.77702" lon="2.36819">
        <ele>48</ele>
        <time>2023-10-11T12:26:15Z</time>
      </trkpt>
      <trkpt lat="49.77702" lon="2.36818">
        <ele>48</ele>
        <time>2023-10-11T12:26:16Z</time>
      </trkpt>
      <trkpt lat="49.77703" lon="2.36817">
        <ele>48.1</ele>
        <time>2023-10-11T12:26:17Z</time>
      </trkpt>
      <trkpt lat="49.77703" lon="2.36815">
        <ele>48.1</ele>
        <time>2023-10-11T12:26:18Z</time>
      </trkpt>
      <trkpt lat="49.77704" lon="2.36814">
        <ele>48.1</ele>
        <time>2023-10-11T12:26:19Z</time>
      </trkpt>
      <trkpt lat="49.77705" lon="2.36813">
        <ele>48.2</ele>
        <time>2023-10-11T12:26:20Z</time>
      </trkpt>
      <trkpt lat="49.77705" lon="2.36812">
        <ele>48.2</ele>
        <time>2023-10-11T12:26:21Z</time>
      </trkpt>
      <trkpt lat="49.77706" lon="2.3681">
        <ele>48.2</ele>
        <time>2023-10-11T12:26:22Z</time>
      </trkpt>
      <trkpt lat="49.77707" lon="2.36809">
        <ele>48.3</ele>
        <time>2023-10-11T12:26:23Z</time>
      </trkpt>
      <trkpt lat="49.77707" lon="2.36808">
        <ele>48.3</ele>
        <time>2023-10-11T12:26:24Z</time>
      </trkpt>
      <trkpt lat="49.77708" lon="2.36807">
        <ele>48.3</ele>
        <time>2023-10-11T12:26:25Z</time>
      </trkpt>
      <trkpt lat="49.77709" lon="2.36806">
        <ele>48.4</ele>
        <time>2023-10-11T12:26:26Z</time>
      </trkpt>
      <trkpt lat="49.7771" lon="2.36805">
        <ele>48.4</ele>
        <time>2023-10-11T12:26:27Z</time>
      </trkpt>
      <trkpt lat="49.7771" lon="2.36803">
        <ele>48.4</ele>
        <time>2023-10-11T12:26:28Z</time>
      </trkpt>
      <trkpt lat="49.77711" lon="2.36802">
        <ele>48.5</ele>
        <time>2023-10-11T12:26:29Z</time>
      </trkpt>
      <trkpt lat="49.77712" lon="2.36801">
        <ele>48.5</ele>
        <time>2023-10-11T12:26:30Z</time>
      </trkpt>
      <trkpt lat="49.77713" lon="2.368">
        <ele>48.5</ele>
        <time>2023-10-11T12:26:31Z</time>
      </trkpt>
      <trkpt lat="49.77713" lon="2.36798">
        <ele>48.5</ele>
        <time>2023-10-11T12:26:32Z</time>
      </trkpt>
      <trkpt lat="49.77714" lon="2.36797">
        <ele>48.6</ele>
        <time>2023-10-11T12:26:33Z</time>
      </trkpt>
      <trkpt lat="49.77714" lon="2.36796">
        <ele>48.6</ele>
        <time>2023-10-11T12:26:34Z</time>
      </trkpt>
      <trkpt lat="49.77715" lon="2.36795">
        <ele>48.6</ele>
        <time>2023-10-11T12:26:35Z</time>
      </trkpt>
      <trkpt lat="49.77716" lon="2.36794">
        <ele>48.6</ele>
        <time>2023-10-11T12:26:36Z</time>
      </trkpt>
      <trkpt lat="49.77716" lon="2.36792">
        <ele>48.7</ele>
        <time>2023-10-11T12:26:37Z</time>
      </trkpt>
      <trkpt lat="49.77717" lon="2.36791">
        <ele>48.7</ele>
        <time>2023-10-11T12:26:38Z</time>
      </trkpt>
      <trkpt lat="49.77718" lon="2.3679">
        <ele>48.7</ele>
        <time>2023-10-11T12:26:39Z</time>
      </trkpt>
      <trkpt lat="49.77718" lon="2.36788">
        <ele>48.7</ele>
        <time>2023-10-11T12:26:40Z</time>
      </trkpt>
      <trkpt lat="49.77719" lon="2.36787">
        <ele>48.7</ele>
        <time>2023-10-11T12:26:41Z</time>
      </trkpt>
      <trkpt lat="49.77719" lon="2.36786">
        <ele>48.8</ele>
        <time>2023-10-11T12:26:42Z</time>
      </trkpt>
      <trkpt lat="49.7772" lon="2.36785">
        <ele>48.8</ele>
        <time>2023-10-11T12:26:43Z</time>
      </trkpt>
      <trkpt lat="49.77721" lon="2.36783">
        <ele>48.8</ele>
        <time>2023-10-11T12:26:44Z</time>
      </trkpt>
      <trkpt lat="49.77721" lon="2.36782">
        <ele>48.8</ele>
        <time>2023-10-11T12:26:45Z</time>
      </trkpt>
      <trkpt lat="49.77722" lon="2.3678">
        <ele>48.8</ele>
        <time>2023-10-11T12:26:46Z</time>
      </trkpt>
      <trkpt lat="49.77723" lon="2.36779">
        <ele>48.8</ele>
        <time>2023-10-11T12:26:47Z</time>
      </trkpt>
      <trkpt lat="49.77723" lon="2.36777">
        <ele>48.8</ele>
        <time>2023-10-11T12:26:48Z</time>
      </trkpt>
      <trkpt lat="49.77723" lon="2.36776">
        <ele>48.8</ele>
        <time>2023-10-11T12:26:49Z</time>
      </trkpt>
      <trkpt lat="49.77724" lon="2.36775">
        <ele>48.9</ele>
        <time>2023-10-11T12:26:50Z</time>
      </trkpt>
      <trkpt lat="49.77724" lon="2.36774">
        <ele>48.9</ele>
        <time>2023-10-11T12:26:51Z</time>
      </trkpt>
      <trkpt lat="49.77725" lon="2.36772">
        <ele>48.9</ele>
        <time>2023-10-11T12:26:52Z</time>
      </trkpt>
      <trkpt lat="49.77726" lon="2.36771">
        <ele>48.9</ele>
        <time>2023-10-11T12:26:53Z</time>
      </trkpt>
      <trkpt lat="49.77726" lon="2.36769">
        <ele>48.9</ele>
        <time>2023-10-11T12:26:54Z</time>
      </trkpt>
      <trkpt lat="49.77727" lon="2.36768">
        <ele>48.9</ele>
        <time>2023-10-11T12:26:55Z</time>
      </trkpt>
      <trkpt lat="49.77728" lon="2.36766">
        <ele>48.9</ele>
        <time>2023-10-11T12:26:56Z</time>
      </trkpt>
      <trkpt lat="49.77728" lon="2.36765">
        <ele>48.9</ele>
        <time>2023-10-11T12:26:57Z</time>
      </trkpt>
      <trkpt lat="49.77729" lon="2.36764">
        <ele>48.9</ele>
        <time>2023-10-11T12:26:58Z</time>
      </trkpt>
      <trkpt lat="49.7773" lon="2.36762">
        <ele>48.9</ele>
        <time>2023-10-11T12:26:59Z</time>
      </trkpt>
      <trkpt lat="49.7773" lon="2.36761">
        <ele>48.9</ele>
        <time>2023-10-11T12:27:00Z</time>
      </trkpt>
      <trkpt lat="49.77731" lon="2.3676">
        <ele>48.9</ele>
        <time>2023-10-11T12:27:01Z</time>
      </trkpt>
      <trkpt lat="49.77731" lon="2.36759">
        <ele>48.9</ele>
        <time>2023-10-11T12:27:02Z</time>
      </trkpt>
      <trkpt lat="49.77732" lon="2.36756">
        <ele>48.9</ele>
        <time>2023-10-11T12:27:03Z</time>
      </trkpt>
      <trkpt lat="49.77733" lon="2.36755">
        <ele>48.9</ele>
        <time>2023-10-11T12:27:04Z</time>
      </trkpt>
      <trkpt lat="49.77733" lon="2.36754">
        <ele>48.9</ele>
        <time>2023-10-11T12:27:05Z</time>
      </trkpt>
      <trkpt lat="49.77734" lon="2.36752">
        <ele>48.9</ele>
        <time>2023-10-11T12:27:06Z</time>
      </trkpt>
      <trkpt lat="49.77735" lon="2.36751">
        <ele>48.9</ele>
        <time>2023-10-11T12:27:07Z</time>
      </trkpt>
      <trkpt lat="49.77735" lon="2.3675">
        <ele>48.9</ele>
        <time>2023-10-11T12:27:08Z</time>
      </trkpt>
      <trkpt lat="49.77736" lon="2.36748">
        <ele>48.9</ele>
        <time>2023-10-11T12:27:09Z</time>
      </trkpt>
      <trkpt lat="49.77737" lon="2.36747">
        <ele>48.9</ele>
        <time>2023-10-11T12:27:10Z</time>
      </trkpt>
      <trkpt lat="49.77738" lon="2.36746">
        <ele>48.9</ele>
        <time>2023-10-11T12:27:11Z</time>
      </trkpt>
      <trkpt lat="49.77738" lon="2.36745">
        <ele>48.9</ele>
        <time>2023-10-11T12:27:12Z</time>
      </trkpt>
      <trkpt lat="49.77739" lon="2.36744">
        <ele>48.9</ele>
        <time>2023-10-11T12:27:13Z</time>
      </trkpt>
      <trkpt lat="49.7774" lon="2.36743">
        <ele>48.9</ele>
        <time>2023-10-11T12:27:14Z</time>
      </trkpt>
      <trkpt lat="49.77741" lon="2.36742">
        <ele>48.9</ele>
        <time>2023-10-11T12:27:15Z</time>
      </trkpt>
      <trkpt lat="49.77742" lon="2.36741">
        <ele>48.9</ele>
        <time>2023-10-11T12:27:16Z</time>
      </trkpt>
      <trkpt lat="49.77743" lon="2.36741">
        <ele>48.9</ele>
        <time>2023-10-11T12:27:17Z</time>
      </trkpt>
      <trkpt lat="49.77744" lon="2.3674">
        <ele>48.9</ele>
        <time>2023-10-11T12:27:18Z</time>
      </trkpt>
      <trkpt lat="49.77745" lon="2.3674">
        <ele>48.9</ele>
        <time>2023-10-11T12:27:19Z</time>
      </trkpt>
      <trkpt lat="49.77746" lon="2.3674">
        <ele>48.9</ele>
        <time>2023-10-11T12:27:20Z</time>
      </trkpt>
      <trkpt lat="49.77747" lon="2.36739">
        <ele>48.9</ele>
        <time>2023-10-11T12:27:21Z</time>
      </trkpt>
      <trkpt lat="49.77747" lon="2.36739">
        <ele>48.9</ele>
        <time>2023-10-11T12:27:22Z</time>
      </trkpt>
      <trkpt lat="49.77748" lon="2.36738">
        <ele>48.9</ele>
        <time>2023-10-11T12:27:23Z</time>
      </trkpt>
      <trkpt lat="49.77749" lon="2.36738">
        <ele>48.9</ele>
        <time>2023-10-11T12:27:24Z</time>
      </trkpt>
      <trkpt lat="49.7775" lon="2.36738">
        <ele>48.9</ele>
        <time>2023-10-11T12:27:25Z</time>
      </trkpt>
      <trkpt lat="49.77751" lon="2.36737">
        <ele>48.9</ele>
        <time>2023-10-11T12:27:26Z</time>
      </trkpt>
      <trkpt lat="49.77752" lon="2.36737">
        <ele>48.9</ele>
        <time>2023-10-11T12:27:27Z</time>
      </trkpt>
      <trkpt lat="49.77752" lon="2.36737">
        <ele>48.9</ele>
        <time>2023-10-11T12:27:28Z</time>
      </trkpt>
      <trkpt lat="49.77753" lon="2.36737">
        <ele>48.9</ele>
        <time>2023-10-11T12:27:29Z</time>
      </trkpt>
      <trkpt lat="49.77754" lon="2.36738">
        <ele>48.9</ele>
        <time>2023-10-11T12:27:30Z</time>
      </trkpt>
      <trkpt lat="49.77754" lon="2.36739">
        <ele>48.9</ele>
        <time>2023-10-11T12:27:31Z</time>
      </trkpt>
      <trkpt lat="49.77755" lon="2.3674">
        <ele>48.9</ele>
        <time>2023-10-11T12:27:32Z</time>
      </trkpt>
      <trkpt lat="49.77755" lon="2.3674">
        <ele>49</ele>
        <time>2023-10-11T12:27:33Z</time>
      </trkpt>
      <trkpt lat="49.77755" lon="2.36741">
        <ele>49</ele>
        <time>2023-10-11T12:27:34Z</time>
      </trkpt>
      <trkpt lat="49.77755" lon="2.36742">
        <ele>49</ele>
        <time>2023-10-11T12:27:35Z</time>
      </trkpt>
      <trkpt lat="49.77755" lon="2.36742">
        <ele>49</ele>
        <time>2023-10-11T12:27:36Z</time>
      </trkpt>
      <trkpt lat="49.77755" lon="2.36742">
        <ele>49</ele>
        <time>2023-10-11T12:27:37Z</time>
      </trkpt>
      <trkpt lat="49.77756" lon="2.36741">
        <ele>49</ele>
        <time>2023-10-11T12:27:38Z</time>
      </trkpt>
      <trkpt lat="49.77757" lon="2.36741">
        <ele>49</ele>
        <time>2023-10-11T12:27:39Z</time>
      </trkpt>
      <trkpt lat="49.77758" lon="2.3674">
        <ele>49</ele>
        <time>2023-10-11T12:27:40Z</time>
      </trkpt>
      <trkpt lat="49.77758" lon="2.36739">
        <ele>49</ele>
        <time>2023-10-11T12:27:41Z</time>
      </trkpt>
      <trkpt lat="49.77759" lon="2.36738">
        <ele>49</ele>
        <time>2023-10-11T12:27:42Z</time>
      </trkpt>
      <trkpt lat="49.77759" lon="2.36737">
        <ele>49</ele>
        <time>2023-10-11T12:27:43Z</time>
      </trkpt>
      <trkpt lat="49.77759" lon="2.36735">
        <ele>49</ele>
        <time>2023-10-11T12:27:44Z</time>
      </trkpt>
      <trkpt lat="49.7776" lon="2.36733">
        <ele>49</ele>
        <time>2023-10-11T12:27:45Z</time>
      </trkpt>
      <trkpt lat="49.7776" lon="2.36732">
        <ele>49</ele>
        <time>2023-10-11T12:27:46Z</time>
      </trkpt>
      <trkpt lat="49.7776" lon="2.3673">
        <ele>49</ele>
        <time>2023-10-11T12:27:47Z</time>
      </trkpt>
      <trkpt lat="49.7776" lon="2.36728">
        <ele>49</ele>
        <time>2023-10-11T12:27:48Z</time>
      </trkpt>
      <trkpt lat="49.7776" lon="2.36727">
        <ele>49</ele>
        <time>2023-10-11T12:27:49Z</time>
      </trkpt>
      <trkpt lat="49.77759" lon="2.36725">
        <ele>49</ele>
        <time>2023-10-11T12:27:50Z</time>
      </trkpt>
      <trkpt lat="49.77759" lon="2.36721">
        <ele>49</ele>
        <time>2023-10-11T12:27:51Z</time>
      </trkpt>
      <trkpt lat="49.77759" lon="2.36718">
        <ele>49</ele>
        <time>2023-10-11T12:27:53Z</time>
      </trkpt>
      <trkpt lat="49.77759" lon="2.36717">
        <ele>49</ele>
        <time>2023-10-11T12:27:54Z</time>
      </trkpt>
      <trkpt lat="49.77759" lon="2.36715">
        <ele>49</ele>
        <time>2023-10-11T12:27:55Z</time>
      </trkpt>
      <trkpt lat="49.77759" lon="2.36714">
        <ele>49</ele>
        <time>2023-10-11T12:27:56Z</time>
      </trkpt>
      <trkpt lat="49.77759" lon="2.36712">
        <ele>49.1</ele>
        <time>2023-10-11T12:27:57Z</time>
      </trkpt>
      <trkpt lat="49.77759" lon="2.36709">
        <ele>49.1</ele>
        <time>2023-10-11T12:27:58Z</time>
      </trkpt>
      <trkpt lat="49.77759" lon="2.36707">
        <ele>49.1</ele>
        <time>2023-10-11T12:28:00Z</time>
      </trkpt>
      <trkpt lat="49.77759" lon="2.36704">
        <ele>49.1</ele>
        <time>2023-10-11T12:28:01Z</time>
      </trkpt>
      <trkpt lat="49.77758" lon="2.36703">
        <ele>49.1</ele>
        <time>2023-10-11T12:28:03Z</time>
      </trkpt>
      <trkpt lat="49.77758" lon="2.36701">
        <ele>49.1</ele>
        <time>2023-10-11T12:28:04Z</time>
      </trkpt>
      <trkpt lat="49.77758" lon="2.36699">
        <ele>49.1</ele>
        <time>2023-10-11T12:28:05Z</time>
      </trkpt>
      <trkpt lat="49.77758" lon="2.36697">
        <ele>49.1</ele>
        <time>2023-10-11T12:28:06Z</time>
      </trkpt>
      <trkpt lat="49.77757" lon="2.36694">
        <ele>49.1</ele>
        <time>2023-10-11T12:28:07Z</time>
      </trkpt>
      <trkpt lat="49.77757" lon="2.36693">
        <ele>49.1</ele>
        <time>2023-10-11T12:28:08Z</time>
      </trkpt>
      <trkpt lat="49.77756" lon="2.36692">
        <ele>49.2</ele>
        <time>2023-10-11T12:28:09Z</time>
      </trkpt>
      <trkpt lat="49.77756" lon="2.3669">
        <ele>49.2</ele>
        <time>2023-10-11T12:28:10Z</time>
      </trkpt>
      <trkpt lat="49.77755" lon="2.36689">
        <ele>49.2</ele>
        <time>2023-10-11T12:28:11Z</time>
      </trkpt>
      <trkpt lat="49.77755" lon="2.36687">
        <ele>49.2</ele>
        <time>2023-10-11T12:28:12Z</time>
      </trkpt>
      <trkpt lat="49.77754" lon="2.36684">
        <ele>49.2</ele>
        <time>2023-10-11T12:28:13Z</time>
      </trkpt>
      <trkpt lat="49.77754" lon="2.36683">
        <ele>49.2</ele>
        <time>2023-10-11T12:28:14Z</time>
      </trkpt>
      <trkpt lat="49.77754" lon="2.36682">
        <ele>49.2</ele>
        <time>2023-10-11T12:28:15Z</time>
      </trkpt>
      <trkpt lat="49.77753" lon="2.3668">
        <ele>49.2</ele>
        <time>2023-10-11T12:28:16Z</time>
      </trkpt>
      <trkpt lat="49.77753" lon="2.36678">
        <ele>49.3</ele>
        <time>2023-10-11T12:28:17Z</time>
      </trkpt>
      <trkpt lat="49.77753" lon="2.36676">
        <ele>49.3</ele>
        <time>2023-10-11T12:28:18Z</time>
      </trkpt>
      <trkpt lat="49.77752" lon="2.36675">
        <ele>49.3</ele>
        <time>2023-10-11T12:28:19Z</time>
      </trkpt>
      <trkpt lat="49.77752" lon="2.36673">
        <ele>49.3</ele>
        <time>2023-10-11T12:28:20Z</time>
      </trkpt>
      <trkpt lat="49.77752" lon="2.36671">
        <ele>49.3</ele>
        <time>2023-10-11T12:28:21Z</time>
      </trkpt>
      <trkpt lat="49.77751" lon="2.3667">
        <ele>49.4</ele>
        <time>2023-10-11T12:28:22Z</time>
      </trkpt>
      <trkpt lat="49.77751" lon="2.36668">
        <ele>49.4</ele>
        <time>2023-10-11T12:28:23Z</time>
      </trkpt>
      <trkpt lat="49.77751" lon="2.36666">
        <ele>49.4</ele>
        <time>2023-10-11T12:28:24Z</time>
      </trkpt>
      <trkpt lat="49.7775" lon="2.36665">
        <ele>49.4</ele>
        <time>2023-10-11T12:28:25Z</time>
      </trkpt>
      <trkpt lat="49.7775" lon="2.36663">
        <ele>49.4</ele>
        <time>2023-10-11T12:28:26Z</time>
      </trkpt>
      <trkpt lat="49.77749" lon="2.36662">
        <ele>49.5</ele>
        <time>2023-10-11T12:28:27Z</time>
      </trkpt>
      <trkpt lat="49.77749" lon="2.3666">
        <ele>49.5</ele>
        <time>2023-10-11T12:28:28Z</time>
      </trkpt>
      <trkpt lat="49.77749" lon="2.36659">
        <ele>49.5</ele>
        <time>2023-10-11T12:28:29Z</time>
      </trkpt>
      <trkpt lat="49.77749" lon="2.36657">
        <ele>49.5</ele>
        <time>2023-10-11T12:28:30Z</time>
      </trkpt>
      <trkpt lat="49.77748" lon="2.36655">
        <ele>49.6</ele>
        <time>2023-10-11T12:28:31Z</time>
      </trkpt>
      <trkpt lat="49.77748" lon="2.36654">
        <ele>49.6</ele>
        <time>2023-10-11T12:28:32Z</time>
      </trkpt>
      <trkpt lat="49.77748" lon="2.36652">
        <ele>49.6</ele>
        <time>2023-10-11T12:28:33Z</time>
      </trkpt>
      <trkpt lat="49.77748" lon="2.36651">
        <ele>49.6</ele>
        <time>2023-10-11T12:28:34Z</time>
      </trkpt>
      <trkpt lat="49.77747" lon="2.36649">
        <ele>49.7</ele>
        <time>2023-10-11T12:28:35Z</time>
      </trkpt>
      <trkpt lat="49.77747" lon="2.36647">
        <ele>49.7</ele>
        <time>2023-10-11T12:28:36Z</time>
      </trkpt>
      <trkpt lat="49.77747" lon="2.36644">
        <ele>49.7</ele>
        <time>2023-10-11T12:28:37Z</time>
      </trkpt>
      <trkpt lat="49.77747" lon="2.36643">
        <ele>49.8</ele>
        <time>2023-10-11T12:28:38Z</time>
      </trkpt>
      <trkpt lat="49.77747" lon="2.36641">
        <ele>49.8</ele>
        <time>2023-10-11T12:28:39Z</time>
      </trkpt>
      <trkpt lat="49.77746" lon="2.3664">
        <ele>49.8</ele>
        <time>2023-10-11T12:28:40Z</time>
      </trkpt>
      <trkpt lat="49.77746" lon="2.36638">
        <ele>49.8</ele>
        <time>2023-10-11T12:28:41Z</time>
      </trkpt>
      <trkpt lat="49.77746" lon="2.36637">
        <ele>49.9</ele>
        <time>2023-10-11T12:28:42Z</time>
      </trkpt>
      <trkpt lat="49.77746" lon="2.36635">
        <ele>49.9</ele>
        <time>2023-10-11T12:28:43Z</time>
      </trkpt>
      <trkpt lat="49.77746" lon="2.36634">
        <ele>49.9</ele>
        <time>2023-10-11T12:28:44Z</time>
      </trkpt>
      <trkpt lat="49.77746" lon="2.36632">
        <ele>50</ele>
        <time>2023-10-11T12:28:45Z</time>
      </trkpt>
      <trkpt lat="49.77746" lon="2.3663">
        <ele>50</ele>
        <time>2023-10-11T12:28:46Z</time>
      </trkpt>
      <trkpt lat="49.77746" lon="2.36629">
        <ele>50</ele>
        <time>2023-10-11T12:28:47Z</time>
      </trkpt>
      <trkpt lat="49.77746" lon="2.36627">
        <ele>50</ele>
        <time>2023-10-11T12:28:48Z</time>
      </trkpt>
      <trkpt lat="49.77746" lon="2.36626">
        <ele>50.1</ele>
        <time>2023-10-11T12:28:49Z</time>
      </trkpt>
      <trkpt lat="49.77746" lon="2.36624">
        <ele>50.1</ele>
        <time>2023-10-11T12:28:50Z</time>
      </trkpt>
      <trkpt lat="49.77746" lon="2.36623">
        <ele>50.1</ele>
        <time>2023-10-11T12:28:51Z</time>
      </trkpt>
      <trkpt lat="49.77745" lon="2.36621">
        <ele>50.2</ele>
        <time>2023-10-11T12:28:52Z</time>
      </trkpt>
      <trkpt lat="49.77745" lon="2.36619">
        <ele>50.2</ele>
        <time>2023-10-11T12:28:53Z</time>
      </trkpt>
      <trkpt lat="49.77745" lon="2.36617">
        <ele>50.2</ele>
        <time>2023-10-11T12:28:54Z</time>
      </trkpt>
      <trkpt lat="49.77745" lon="2.36616">
        <ele>50.3</ele>
        <time>2023-10-11T12:28:55Z</time>
      </trkpt>
      <trkpt lat="49.77744" lon="2.36614">
        <ele>50.3</ele>
        <time>2023-10-11T12:28:56Z</time>
      </trkpt>
      <trkpt lat="49.77744" lon="2.36612">
        <ele>50.3</ele>
        <time>2023-10-11T12:28:57Z</time>
      </trkpt>
      <trkpt lat="49.77744" lon="2.36609">
        <ele>50.4</ele>
        <time>2023-10-11T12:28:58Z</time>
      </trkpt>
      <trkpt lat="49.77743" lon="2.36608">
        <ele>50.4</ele>
        <time>2023-10-11T12:28:59Z</time>
      </trkpt>
      <trkpt lat="49.77743" lon="2.36607">
        <ele>50.5</ele>
        <time>2023-10-11T12:29:00Z</time>
      </trkpt>
      <trkpt lat="49.77743" lon="2.36605">
        <ele>50.5</ele>
        <time>2023-10-11T12:29:01Z</time>
      </trkpt>
      <trkpt lat="49.77742" lon="2.36603">
        <ele>50.5</ele>
        <time>2023-10-11T12:29:02Z</time>
      </trkpt>
      <trkpt lat="49.77742" lon="2.36602">
        <ele>50.6</ele>
        <time>2023-10-11T12:29:03Z</time>
      </trkpt>
      <trkpt lat="49.77741" lon="2.366">
        <ele>50.6</ele>
        <time>2023-10-11T12:29:04Z</time>
      </trkpt>
      <trkpt lat="49.7774" lon="2.36597">
        <ele>50.7</ele>
        <time>2023-10-11T12:29:05Z</time>
      </trkpt>
      <trkpt lat="49.7774" lon="2.36595">
        <ele>50.7</ele>
        <time>2023-10-11T12:29:07Z</time>
      </trkpt>
      <trkpt lat="49.77739" lon="2.36594">
        <ele>50.7</ele>
        <time>2023-10-11T12:29:08Z</time>
      </trkpt>
      <trkpt lat="49.77739" lon="2.36592">
        <ele>50.8</ele>
        <time>2023-10-11T12:29:09Z</time>
      </trkpt>
      <trkpt lat="49.77739" lon="2.3659">
        <ele>50.8</ele>
        <time>2023-10-11T12:29:10Z</time>
      </trkpt>
      <trkpt lat="49.77738" lon="2.36589">
        <ele>50.9</ele>
        <time>2023-10-11T12:29:11Z</time>
      </trkpt>
      <trkpt lat="49.77738" lon="2.36587">
        <ele>50.9</ele>
        <time>2023-10-11T12:29:12Z</time>
      </trkpt>
      <trkpt lat="49.77737" lon="2.36586">
        <ele>50.9</ele>
        <time>2023-10-11T12:29:13Z</time>
      </trkpt>
      <trkpt lat="49.77737" lon="2.36585">
        <ele>51</ele>
        <time>2023-10-11T12:29:14Z</time>
      </trkpt>
      <trkpt lat="49.77737" lon="2.36583">
        <ele>51</ele>
        <time>2023-10-11T12:29:15Z</time>
      </trkpt>
      <trkpt lat="49.77736" lon="2.36581">
        <ele>51</ele>
        <time>2023-10-11T12:29:16Z</time>
      </trkpt>
      <trkpt lat="49.77736" lon="2.3658">
        <ele>51.1</ele>
        <time>2023-10-11T12:29:17Z</time>
      </trkpt>
      <trkpt lat="49.77735" lon="2.36578">
        <ele>51.1</ele>
        <time>2023-10-11T12:29:18Z</time>
      </trkpt>
      <trkpt lat="49.77735" lon="2.36577">
        <ele>51.2</ele>
        <time>2023-10-11T12:29:19Z</time>
      </trkpt>
      <trkpt lat="49.77734" lon="2.36576">
        <ele>51.2</ele>
        <time>2023-10-11T12:29:20Z</time>
      </trkpt>
      <trkpt lat="49.77734" lon="2.36574">
        <ele>51.2</ele>
        <time>2023-10-11T12:29:21Z</time>
      </trkpt>
      <trkpt lat="49.77734" lon="2.36573">
        <ele>51.3</ele>
        <time>2023-10-11T12:29:22Z</time>
      </trkpt>
      <trkpt lat="49.77733" lon="2.36571">
        <ele>51.3</ele>
        <time>2023-10-11T12:29:23Z</time>
      </trkpt>
      <trkpt lat="49.77733" lon="2.3657">
        <ele>51.3</ele>
        <time>2023-10-11T12:29:24Z</time>
      </trkpt>
      <trkpt lat="49.77733" lon="2.36568">
        <ele>51.4</ele>
        <time>2023-10-11T12:29:25Z</time>
      </trkpt>
      <trkpt lat="49.77733" lon="2.36567">
        <ele>51.4</ele>
        <time>2023-10-11T12:29:26Z</time>
      </trkpt>
      <trkpt lat="49.77733" lon="2.36566">
        <ele>51.4</ele>
        <time>2023-10-11T12:29:27Z</time>
      </trkpt>
      <trkpt lat="49.77732" lon="2.36564">
        <ele>51.5</ele>
        <time>2023-10-11T12:29:28Z</time>
      </trkpt>
      <trkpt lat="49.77732" lon="2.36563">
        <ele>51.5</ele>
        <time>2023-10-11T12:29:29Z</time>
      </trkpt>
      <trkpt lat="49.77732" lon="2.36561">
        <ele>51.5</ele>
        <time>2023-10-11T12:29:30Z</time>
      </trkpt>
      <trkpt lat="49.77731" lon="2.3656">
        <ele>51.6</ele>
        <time>2023-10-11T12:29:31Z</time>
      </trkpt>
      <trkpt lat="49.77731" lon="2.36557">
        <ele>51.6</ele>
        <time>2023-10-11T12:29:32Z</time>
      </trkpt>
      <trkpt lat="49.77731" lon="2.36556">
        <ele>51.7</ele>
        <time>2023-10-11T12:29:34Z</time>
      </trkpt>
      <trkpt lat="49.7773" lon="2.36554">
        <ele>51.7</ele>
        <time>2023-10-11T12:29:35Z</time>
      </trkpt>
      <trkpt lat="49.7773" lon="2.36553">
        <ele>51.7</ele>
        <time>2023-10-11T12:29:36Z</time>
      </trkpt>
      <trkpt lat="49.7773" lon="2.36552">
        <ele>51.8</ele>
        <time>2023-10-11T12:29:37Z</time>
      </trkpt>
      <trkpt lat="49.7773" lon="2.3655">
        <ele>51.8</ele>
        <time>2023-10-11T12:29:38Z</time>
      </trkpt>
      <trkpt lat="49.7773" lon="2.36549">
        <ele>51.9</ele>
        <time>2023-10-11T12:29:39Z</time>
      </trkpt>
      <trkpt lat="49.7773" lon="2.36547">
        <ele>51.9</ele>
        <time>2023-10-11T12:29:40Z</time>
      </trkpt>
      <trkpt lat="49.7773" lon="2.36546">
        <ele>51.9</ele>
        <time>2023-10-11T12:29:41Z</time>
      </trkpt>
      <trkpt lat="49.7773" lon="2.36545">
        <ele>52</ele>
        <time>2023-10-11T12:29:42Z</time>
      </trkpt>
      <trkpt lat="49.7773" lon="2.36544">
        <ele>52</ele>
        <time>2023-10-11T12:29:43Z</time>
      </trkpt>
      <trkpt lat="49.77729" lon="2.36542">
        <ele>52</ele>
        <time>2023-10-11T12:29:44Z</time>
      </trkpt>
      <trkpt lat="49.77729" lon="2.36541">
        <ele>52.1</ele>
        <time>2023-10-11T12:29:45Z</time>
      </trkpt>
      <trkpt lat="49.77729" lon="2.36539">
        <ele>52.1</ele>
        <time>2023-10-11T12:29:46Z</time>
      </trkpt>
      <trkpt lat="49.77729" lon="2.36538">
        <ele>52.2</ele>
        <time>2023-10-11T12:29:47Z</time>
      </trkpt>
      <trkpt lat="49.77729" lon="2.36536">
        <ele>52.2</ele>
        <time>2023-10-11T12:29:48Z</time>
      </trkpt>
      <trkpt lat="49.77729" lon="2.36535">
        <ele>52.2</ele>
        <time>2023-10-11T12:29:49Z</time>
      </trkpt>
      <trkpt lat="49.77728" lon="2.36534">
        <ele>52.3</ele>
        <time>2023-10-11T12:29:50Z</time>
      </trkpt>
      <trkpt lat="49.77728" lon="2.36532">
        <ele>52.3</ele>
        <time>2023-10-11T12:29:51Z</time>
      </trkpt>
      <trkpt lat="49.77728" lon="2.36531">
        <ele>52.4</ele>
        <time>2023-10-11T12:29:52Z</time>
      </trkpt>
      <trkpt lat="49.77728" lon="2.36529">
        <ele>52.4</ele>
        <time>2023-10-11T12:29:53Z</time>
      </trkpt>
      <trkpt lat="49.77727" lon="2.36528">
        <ele>52.5</ele>
        <time>2023-10-11T12:29:54Z</time>
      </trkpt>
      <trkpt lat="49.77727" lon="2.36526">
        <ele>52.5</ele>
        <time>2023-10-11T12:29:55Z</time>
      </trkpt>
      <trkpt lat="49.77727" lon="2.36525">
        <ele>52.5</ele>
        <time>2023-10-11T12:29:56Z</time>
      </trkpt>
      <trkpt lat="49.77727" lon="2.36524">
        <ele>52.6</ele>
        <time>2023-10-11T12:29:57Z</time>
      </trkpt>
      <trkpt lat="49.77727" lon="2.36523">
        <ele>52.6</ele>
        <time>2023-10-11T12:29:58Z</time>
      </trkpt>
      <trkpt lat="49.77726" lon="2.36521">
        <ele>52.7</ele>
        <time>2023-10-11T12:29:59Z</time>
      </trkpt>
      <trkpt lat="49.77726" lon="2.3652">
        <ele>52.7</ele>
        <time>2023-10-11T12:30:00Z</time>
      </trkpt>
      <trkpt lat="49.77726" lon="2.36518">
        <ele>52.8</ele>
        <time>2023-10-11T12:30:01Z</time>
      </trkpt>
      <trkpt lat="49.77726" lon="2.36517">
        <ele>52.8</ele>
        <time>2023-10-11T12:30:02Z</time>
      </trkpt>
      <trkpt lat="49.77726" lon="2.36515">
        <ele>52.8</ele>
        <time>2023-10-11T12:30:03Z</time>
      </trkpt>
      <trkpt lat="49.77725" lon="2.36514">
        <ele>52.9</ele>
        <time>2023-10-11T12:30:04Z</time>
      </trkpt>
      <trkpt lat="49.77725" lon="2.36513">
        <ele>52.9</ele>
        <time>2023-10-11T12:30:05Z</time>
      </trkpt>
      <trkpt lat="49.77725" lon="2.36512">
        <ele>52.9</ele>
        <time>2023-10-11T12:30:06Z</time>
      </trkpt>
      <trkpt lat="49.77725" lon="2.3651">
        <ele>53</ele>
        <time>2023-10-11T12:30:07Z</time>
      </trkpt>
      <trkpt lat="49.77725" lon="2.36508">
        <ele>53</ele>
        <time>2023-10-11T12:30:08Z</time>
      </trkpt>
      <trkpt lat="49.77725" lon="2.36506">
        <ele>53.1</ele>
        <time>2023-10-11T12:30:09Z</time>
      </trkpt>
      <trkpt lat="49.77725" lon="2.36505">
        <ele>53.2</ele>
        <time>2023-10-11T12:30:10Z</time>
      </trkpt>
      <trkpt lat="49.77725" lon="2.36504">
        <ele>53.2</ele>
        <time>2023-10-11T12:30:11Z</time>
      </trkpt>
      <trkpt lat="49.77725" lon="2.36503">
        <ele>53.2</ele>
        <time>2023-10-11T12:30:12Z</time>
      </trkpt>
      <trkpt lat="49.77725" lon="2.36501">
        <ele>53.3</ele>
        <time>2023-10-11T12:30:13Z</time>
      </trkpt>
      <trkpt lat="49.77725" lon="2.36499">
        <ele>53.3</ele>
        <time>2023-10-11T12:30:14Z</time>
      </trkpt>
      <trkpt lat="49.77725" lon="2.36497">
        <ele>53.4</ele>
        <time>2023-10-11T12:30:15Z</time>
      </trkpt>
      <trkpt lat="49.77725" lon="2.36495">
        <ele>53.4</ele>
        <time>2023-10-11T12:30:16Z</time>
      </trkpt>
      <trkpt lat="49.77725" lon="2.36493">
        <ele>53.5</ele>
        <time>2023-10-11T12:30:17Z</time>
      </trkpt>
      <trkpt lat="49.77725" lon="2.36492">
        <ele>53.6</ele>
        <time>2023-10-11T12:30:18Z</time>
      </trkpt>
      <trkpt lat="49.77725" lon="2.3649">
        <ele>53.6</ele>
        <time>2023-10-11T12:30:19Z</time>
      </trkpt>
      <trkpt lat="49.77725" lon="2.36488">
        <ele>53.7</ele>
        <time>2023-10-11T12:30:20Z</time>
      </trkpt>
      <trkpt lat="49.77725" lon="2.36486">
        <ele>53.7</ele>
        <time>2023-10-11T12:30:21Z</time>
      </trkpt>
      <trkpt lat="49.77725" lon="2.36485">
        <ele>53.8</ele>
        <time>2023-10-11T12:30:22Z</time>
      </trkpt>
      <trkpt lat="49.77725" lon="2.36483">
        <ele>53.9</ele>
        <time>2023-10-11T12:30:23Z</time>
      </trkpt>
      <trkpt lat="49.77725" lon="2.36481">
        <ele>53.9</ele>
        <time>2023-10-11T12:30:24Z</time>
      </trkpt>
      <trkpt lat="49.77725" lon="2.3648">
        <ele>54</ele>
        <time>2023-10-11T12:30:25Z</time>
      </trkpt>
      <trkpt lat="49.77725" lon="2.36478">
        <ele>54</ele>
        <time>2023-10-11T12:30:26Z</time>
      </trkpt>
      <trkpt lat="49.77724" lon="2.36477">
        <ele>54.1</ele>
        <time>2023-10-11T12:30:27Z</time>
      </trkpt>
      <trkpt lat="49.77724" lon="2.36475">
        <ele>54.2</ele>
        <time>2023-10-11T12:30:28Z</time>
      </trkpt>
      <trkpt lat="49.77723" lon="2.36474">
        <ele>54.2</ele>
        <time>2023-10-11T12:30:29Z</time>
      </trkpt>
      <trkpt lat="49.77722" lon="2.36471">
        <ele>54.4</ele>
        <time>2023-10-11T12:30:30Z</time>
      </trkpt>
      <trkpt lat="49.77722" lon="2.36469">
        <ele>54.4</ele>
        <time>2023-10-11T12:30:32Z</time>
      </trkpt>
      <trkpt lat="49.77721" lon="2.36468">
        <ele>54.5</ele>
        <time>2023-10-11T12:30:33Z</time>
      </trkpt>
      <trkpt lat="49.77721" lon="2.36466">
        <ele>54.6</ele>
        <time>2023-10-11T12:30:34Z</time>
      </trkpt>
      <trkpt lat="49.7772" lon="2.36464">
        <ele>54.6</ele>
        <time>2023-10-11T12:30:35Z</time>
      </trkpt>
      <trkpt lat="49.7772" lon="2.36463">
        <ele>54.7</ele>
        <time>2023-10-11T12:30:36Z</time>
      </trkpt>
      <trkpt lat="49.77719" lon="2.36461">
        <ele>54.8</ele>
        <time>2023-10-11T12:30:37Z</time>
      </trkpt>
      <trkpt lat="49.77719" lon="2.3646">
        <ele>54.8</ele>
        <time>2023-10-11T12:30:38Z</time>
      </trkpt>
      <trkpt lat="49.77718" lon="2.36458">
        <ele>54.9</ele>
        <time>2023-10-11T12:30:39Z</time>
      </trkpt>
      <trkpt lat="49.77718" lon="2.36457">
        <ele>55</ele>
        <time>2023-10-11T12:30:40Z</time>
      </trkpt>
      <trkpt lat="49.77717" lon="2.36455">
        <ele>55</ele>
        <time>2023-10-11T12:30:41Z</time>
      </trkpt>
      <trkpt lat="49.77717" lon="2.36454">
        <ele>55.1</ele>
        <time>2023-10-11T12:30:42Z</time>
      </trkpt>
      <trkpt lat="49.77716" lon="2.36453">
        <ele>55.1</ele>
        <time>2023-10-11T12:30:43Z</time>
      </trkpt>
      <trkpt lat="49.77716" lon="2.36452">
        <ele>55.2</ele>
        <time>2023-10-11T12:30:44Z</time>
      </trkpt>
      <trkpt lat="49.77715" lon="2.36451">
        <ele>55.3</ele>
        <time>2023-10-11T12:30:45Z</time>
      </trkpt>
      <trkpt lat="49.77715" lon="2.36449">
        <ele>55.3</ele>
        <time>2023-10-11T12:30:46Z</time>
      </trkpt>
      <trkpt lat="49.77715" lon="2.36448">
        <ele>55.4</ele>
        <time>2023-10-11T12:30:47Z</time>
      </trkpt>
      <trkpt lat="49.77714" lon="2.36446">
        <ele>55.5</ele>
        <time>2023-10-11T12:30:48Z</time>
      </trkpt>
      <trkpt lat="49.77714" lon="2.36445">
        <ele>55.5</ele>
        <time>2023-10-11T12:30:49Z</time>
      </trkpt>
      <trkpt lat="49.77713" lon="2.36444">
        <ele>55.6</ele>
        <time>2023-10-11T12:30:50Z</time>
      </trkpt>
      <trkpt lat="49.77713" lon="2.36443">
        <ele>55.6</ele>
        <time>2023-10-11T12:30:51Z</time>
      </trkpt>
      <trkpt lat="49.77712" lon="2.36441">
        <ele>55.7</ele>
        <time>2023-10-11T12:30:52Z</time>
      </trkpt>
      <trkpt lat="49.77712" lon="2.3644">
        <ele>55.8</ele>
        <time>2023-10-11T12:30:53Z</time>
      </trkpt>
      <trkpt lat="49.77711" lon="2.36438">
        <ele>55.8</ele>
        <time>2023-10-11T12:30:54Z</time>
      </trkpt>
      <trkpt lat="49.77711" lon="2.36437">
        <ele>55.9</ele>
        <time>2023-10-11T12:30:55Z</time>
      </trkpt>
      <trkpt lat="49.7771" lon="2.36436">
        <ele>56</ele>
        <time>2023-10-11T12:30:56Z</time>
      </trkpt>
      <trkpt lat="49.7771" lon="2.36434">
        <ele>56.1</ele>
        <time>2023-10-11T12:30:57Z</time>
      </trkpt>
      <trkpt lat="49.77709" lon="2.36432">
        <ele>56.2</ele>
        <time>2023-10-11T12:30:58Z</time>
      </trkpt>
      <trkpt lat="49.77709" lon="2.36431">
        <ele>56.2</ele>
        <time>2023-10-11T12:30:59Z</time>
      </trkpt>
      <trkpt lat="49.77708" lon="2.3643">
        <ele>56.3</ele>
        <time>2023-10-11T12:31:00Z</time>
      </trkpt>
      <trkpt lat="49.77708" lon="2.36427">
        <ele>56.4</ele>
        <time>2023-10-11T12:31:01Z</time>
      </trkpt>
      <trkpt lat="49.77707" lon="2.36425">
        <ele>56.5</ele>
        <time>2023-10-11T12:31:03Z</time>
      </trkpt>
      <trkpt lat="49.77707" lon="2.36423">
        <ele>56.6</ele>
        <time>2023-10-11T12:31:04Z</time>
      </trkpt>
      <trkpt lat="49.77706" lon="2.36422">
        <ele>56.7</ele>
        <time>2023-10-11T12:31:05Z</time>
      </trkpt>
      <trkpt lat="49.77705" lon="2.3642">
        <ele>56.8</ele>
        <time>2023-10-11T12:31:06Z</time>
      </trkpt>
      <trkpt lat="49.77705" lon="2.36419">
        <ele>56.8</ele>
        <time>2023-10-11T12:31:07Z</time>
      </trkpt>
      <trkpt lat="49.77704" lon="2.36417">
        <ele>56.9</ele>
        <time>2023-10-11T12:31:08Z</time>
      </trkpt>
      <trkpt lat="49.77704" lon="2.36416">
        <ele>57</ele>
        <time>2023-10-11T12:31:09Z</time>
      </trkpt>
      <trkpt lat="49.77702" lon="2.36413">
        <ele>57.2</ele>
        <time>2023-10-11T12:31:10Z</time>
      </trkpt>
      <trkpt lat="49.77701" lon="2.36409">
        <ele>57.3</ele>
        <time>2023-10-11T12:31:12Z</time>
      </trkpt>
      <trkpt lat="49.77701" lon="2.36408">
        <ele>57.4</ele>
        <time>2023-10-11T12:31:13Z</time>
      </trkpt>
      <trkpt lat="49.777" lon="2.36406">
        <ele>57.5</ele>
        <time>2023-10-11T12:31:15Z</time>
      </trkpt>
      <trkpt lat="49.777" lon="2.36404">
        <ele>57.6</ele>
        <time>2023-10-11T12:31:16Z</time>
      </trkpt>
      <trkpt lat="49.77699" lon="2.36401">
        <ele>57.7</ele>
        <time>2023-10-11T12:31:17Z</time>
      </trkpt>
      <trkpt lat="49.77698" lon="2.36397">
        <ele>57.9</ele>
        <time>2023-10-11T12:31:19Z</time>
      </trkpt>
      <trkpt lat="49.77698" lon="2.36396">
        <ele>58</ele>
        <time>2023-10-11T12:31:20Z</time>
      </trkpt>
      <trkpt lat="49.77698" lon="2.36394">
        <ele>58.1</ele>
        <time>2023-10-11T12:31:22Z</time>
      </trkpt>
      <trkpt lat="49.77697" lon="2.36392">
        <ele>58.2</ele>
        <time>2023-10-11T12:31:23Z</time>
      </trkpt>
      <trkpt lat="49.77696" lon="2.36389">
        <ele>58.3</ele>
        <time>2023-10-11T12:31:24Z</time>
      </trkpt>
      <trkpt lat="49.77696" lon="2.36388">
        <ele>58.4</ele>
        <time>2023-10-11T12:31:26Z</time>
      </trkpt>
      <trkpt lat="49.77696" lon="2.36386">
        <ele>58.5</ele>
        <time>2023-10-11T12:31:27Z</time>
      </trkpt>
      <trkpt lat="49.77695" lon="2.36385">
        <ele>58.6</ele>
        <time>2023-10-11T12:31:28Z</time>
      </trkpt>
      <trkpt lat="49.77695" lon="2.36383">
        <ele>58.6</ele>
        <time>2023-10-11T12:31:29Z</time>
      </trkpt>
      <trkpt lat="49.77694" lon="2.36382">
        <ele>58.7</ele>
        <time>2023-10-11T12:31:30Z</time>
      </trkpt>
      <trkpt lat="49.77694" lon="2.3638">
        <ele>58.8</ele>
        <time>2023-10-11T12:31:31Z</time>
      </trkpt>
      <trkpt lat="49.77693" lon="2.36379">
        <ele>58.9</ele>
        <time>2023-10-11T12:31:32Z</time>
      </trkpt>
      <trkpt lat="49.77693" lon="2.36377">
        <ele>59</ele>
        <time>2023-10-11T12:31:33Z</time>
      </trkpt>
      <trkpt lat="49.77692" lon="2.36374">
        <ele>59.1</ele>
        <time>2023-10-11T12:31:34Z</time>
      </trkpt>
      <trkpt lat="49.77691" lon="2.36373">
        <ele>59.2</ele>
        <time>2023-10-11T12:31:35Z</time>
      </trkpt>
      <trkpt lat="49.77691" lon="2.36372">
        <ele>59.3</ele>
        <time>2023-10-11T12:31:37Z</time>
      </trkpt>
      <trkpt lat="49.77691" lon="2.36371">
        <ele>59.3</ele>
        <time>2023-10-11T12:31:38Z</time>
      </trkpt>
      <trkpt lat="49.77691" lon="2.3637">
        <ele>59.4</ele>
        <time>2023-10-11T12:31:39Z</time>
      </trkpt>
      <trkpt lat="49.77691" lon="2.36368">
        <ele>59.5</ele>
        <time>2023-10-11T12:31:40Z</time>
      </trkpt>
      <trkpt lat="49.77691" lon="2.36367">
        <ele>59.5</ele>
        <time>2023-10-11T12:31:41Z</time>
      </trkpt>
      <trkpt lat="49.77691" lon="2.36367">
        <ele>59.6</ele>
        <time>2023-10-11T12:31:42Z</time>
      </trkpt>
      <trkpt lat="49.77691" lon="2.36366">
        <ele>59.6</ele>
        <time>2023-10-11T12:31:43Z</time>
      </trkpt>
      <trkpt lat="49.77691" lon="2.36364">
        <ele>59.7</ele>
        <time>2023-10-11T12:31:44Z</time>
      </trkpt>
      <trkpt lat="49.77691" lon="2.36363">
        <ele>59.8</ele>
        <time>2023-10-11T12:31:45Z</time>
      </trkpt>
      <trkpt lat="49.77691" lon="2.36362">
        <ele>59.8</ele>
        <time>2023-10-11T12:31:46Z</time>
      </trkpt>
      <trkpt lat="49.77691" lon="2.36361">
        <ele>59.9</ele>
        <time>2023-10-11T12:31:47Z</time>
      </trkpt>
      <trkpt lat="49.77691" lon="2.36359">
        <ele>60</ele>
        <time>2023-10-11T12:31:48Z</time>
      </trkpt>
      <trkpt lat="49.77691" lon="2.36358">
        <ele>60</ele>
        <time>2023-10-11T12:31:49Z</time>
      </trkpt>
      <trkpt lat="49.7769" lon="2.36356">
        <ele>60.1</ele>
        <time>2023-10-11T12:31:50Z</time>
      </trkpt>
      <trkpt lat="49.7769" lon="2.36355">
        <ele>60.2</ele>
        <time>2023-10-11T12:31:51Z</time>
      </trkpt>
      <trkpt lat="49.77689" lon="2.36354">
        <ele>60.3</ele>
        <time>2023-10-11T12:31:52Z</time>
      </trkpt>
      <trkpt lat="49.77688" lon="2.36352">
        <ele>60.5</ele>
        <time>2023-10-11T12:31:53Z</time>
      </trkpt>
      <trkpt lat="49.77688" lon="2.36351">
        <ele>60.5</ele>
        <time>2023-10-11T12:31:55Z</time>
      </trkpt>
      <trkpt lat="49.77688" lon="2.36349">
        <ele>60.6</ele>
        <time>2023-10-11T12:31:56Z</time>
      </trkpt>
      <trkpt lat="49.77688" lon="2.36348">
        <ele>60.7</ele>
        <time>2023-10-11T12:31:57Z</time>
      </trkpt>
      <trkpt lat="49.77688" lon="2.36346">
        <ele>60.8</ele>
        <time>2023-10-11T12:31:58Z</time>
      </trkpt>
      <trkpt lat="49.77688" lon="2.36345">
        <ele>60.9</ele>
        <time>2023-10-11T12:31:59Z</time>
      </trkpt>
      <trkpt lat="49.77688" lon="2.36343">
        <ele>61</ele>
        <time>2023-10-11T12:32:00Z</time>
      </trkpt>
      <trkpt lat="49.77688" lon="2.36341">
        <ele>61.1</ele>
        <time>2023-10-11T12:32:01Z</time>
      </trkpt>
      <trkpt lat="49.77688" lon="2.36339">
        <ele>61.2</ele>
        <time>2023-10-11T12:32:03Z</time>
      </trkpt>
      <trkpt lat="49.77688" lon="2.36338">
        <ele>61.3</ele>
        <time>2023-10-11T12:32:04Z</time>
      </trkpt>
      <trkpt lat="49.77688" lon="2.36337">
        <ele>61.4</ele>
        <time>2023-10-11T12:32:05Z</time>
      </trkpt>
      <trkpt lat="49.77688" lon="2.36335">
        <ele>61.4</ele>
        <time>2023-10-11T12:32:06Z</time>
      </trkpt>
      <trkpt lat="49.77688" lon="2.36334">
        <ele>61.5</ele>
        <time>2023-10-11T12:32:07Z</time>
      </trkpt>
      <trkpt lat="49.77688" lon="2.36333">
        <ele>61.6</ele>
        <time>2023-10-11T12:32:08Z</time>
      </trkpt>
      <trkpt lat="49.77688" lon="2.36332">
        <ele>61.7</ele>
        <time>2023-10-11T12:32:09Z</time>
      </trkpt>
      <trkpt lat="49.77688" lon="2.36331">
        <ele>61.7</ele>
        <time>2023-10-11T12:32:10Z</time>
      </trkpt>
      <trkpt lat="49.77688" lon="2.3633">
        <ele>61.8</ele>
        <time>2023-10-11T12:32:11Z</time>
      </trkpt>
      <trkpt lat="49.77687" lon="2.36329">
        <ele>61.9</ele>
        <time>2023-10-11T12:32:12Z</time>
      </trkpt>
      <trkpt lat="49.77687" lon="2.36328">
        <ele>61.9</ele>
        <time>2023-10-11T12:32:13Z</time>
      </trkpt>
      <trkpt lat="49.77686" lon="2.36327">
        <ele>62</ele>
        <time>2023-10-11T12:32:14Z</time>
      </trkpt>
      <trkpt lat="49.77686" lon="2.36326">
        <ele>62.1</ele>
        <time>2023-10-11T12:32:15Z</time>
      </trkpt>
      <trkpt lat="49.77685" lon="2.36324">
        <ele>62.2</ele>
        <time>2023-10-11T12:32:16Z</time>
      </trkpt>
      <trkpt lat="49.77685" lon="2.36323">
        <ele>62.3</ele>
        <time>2023-10-11T12:32:18Z</time>
      </trkpt>
      <trkpt lat="49.77684" lon="2.36322">
        <ele>62.4</ele>
        <time>2023-10-11T12:32:19Z</time>
      </trkpt>
      <trkpt lat="49.77684" lon="2.36321">
        <ele>62.4</ele>
        <time>2023-10-11T12:32:20Z</time>
      </trkpt>
      <trkpt lat="49.77684" lon="2.3632">
        <ele>62.5</ele>
        <time>2023-10-11T12:32:21Z</time>
      </trkpt>
      <trkpt lat="49.77684" lon="2.36319">
        <ele>62.6</ele>
        <time>2023-10-11T12:32:22Z</time>
      </trkpt>
      <trkpt lat="49.77684" lon="2.36318">
        <ele>62.6</ele>
        <time>2023-10-11T12:32:23Z</time>
      </trkpt>
      <trkpt lat="49.77683" lon="2.36317">
        <ele>62.7</ele>
        <time>2023-10-11T12:32:24Z</time>
      </trkpt>
      <trkpt lat="49.77683" lon="2.36316">
        <ele>62.8</ele>
        <time>2023-10-11T12:32:25Z</time>
      </trkpt>
      <trkpt lat="49.77683" lon="2.36315">
        <ele>62.8</ele>
        <time>2023-10-11T12:32:26Z</time>
      </trkpt>
      <trkpt lat="49.77683" lon="2.36314">
        <ele>62.9</ele>
        <time>2023-10-11T12:32:27Z</time>
      </trkpt>
      <trkpt lat="49.77683" lon="2.36313">
        <ele>63</ele>
        <time>2023-10-11T12:32:28Z</time>
      </trkpt>
      <trkpt lat="49.77683" lon="2.36312">
        <ele>63</ele>
        <time>2023-10-11T12:32:29Z</time>
      </trkpt>
      <trkpt lat="49.77682" lon="2.36311">
        <ele>63.1</ele>
        <time>2023-10-11T12:32:30Z</time>
      </trkpt>
      <trkpt lat="49.77682" lon="2.36309">
        <ele>63.2</ele>
        <time>2023-10-11T12:32:31Z</time>
      </trkpt>
      <trkpt lat="49.77681" lon="2.36306">
        <ele>63.4</ele>
        <time>2023-10-11T12:32:33Z</time>
      </trkpt>
      <trkpt lat="49.77681" lon="2.36305">
        <ele>63.5</ele>
        <time>2023-10-11T12:32:35Z</time>
      </trkpt>
      <trkpt lat="49.7768" lon="2.36304">
        <ele>63.6</ele>
        <time>2023-10-11T12:32:36Z</time>
      </trkpt>
      <trkpt lat="49.7768" lon="2.36302">
        <ele>63.7</ele>
        <time>2023-10-11T12:32:37Z</time>
      </trkpt>
      <trkpt lat="49.77679" lon="2.36301">
        <ele>63.8</ele>
        <time>2023-10-11T12:32:38Z</time>
      </trkpt>
      <trkpt lat="49.77679" lon="2.36299">
        <ele>63.9</ele>
        <time>2023-10-11T12:32:39Z</time>
      </trkpt>
      <trkpt lat="49.77678" lon="2.36298">
        <ele>63.9</ele>
        <time>2023-10-11T12:32:40Z</time>
      </trkpt>
      <trkpt lat="49.77678" lon="2.36297">
        <ele>64</ele>
        <time>2023-10-11T12:32:41Z</time>
      </trkpt>
      <trkpt lat="49.77678" lon="2.36295">
        <ele>64.1</ele>
        <time>2023-10-11T12:32:42Z</time>
      </trkpt>
      <trkpt lat="49.77678" lon="2.36294">
        <ele>64.2</ele>
        <time>2023-10-11T12:32:43Z</time>
      </trkpt>
      <trkpt lat="49.77678" lon="2.36293">
        <ele>64.2</ele>
        <time>2023-10-11T12:32:44Z</time>
      </trkpt>
      <trkpt lat="49.77677" lon="2.36291">
        <ele>64.3</ele>
        <time>2023-10-11T12:32:45Z</time>
      </trkpt>
      <trkpt lat="49.77677" lon="2.3629">
        <ele>64.4</ele>
        <time>2023-10-11T12:32:46Z</time>
      </trkpt>
      <trkpt lat="49.77677" lon="2.36289">
        <ele>64.5</ele>
        <time>2023-10-11T12:32:47Z</time>
      </trkpt>
      <trkpt lat="49.77677" lon="2.36287">
        <ele>64.5</ele>
        <time>2023-10-11T12:32:48Z</time>
      </trkpt>
      <trkpt lat="49.77677" lon="2.36286">
        <ele>64.6</ele>
        <time>2023-10-11T12:32:49Z</time>
      </trkpt>
      <trkpt lat="49.77677" lon="2.36285">
        <ele>64.6</ele>
        <time>2023-10-11T12:32:50Z</time>
      </trkpt>
      <trkpt lat="49.77676" lon="2.36284">
        <ele>64.7</ele>
        <time>2023-10-11T12:32:51Z</time>
      </trkpt>
      <trkpt lat="49.77676" lon="2.36283">
        <ele>64.8</ele>
        <time>2023-10-11T12:32:52Z</time>
      </trkpt>
      <trkpt lat="49.77676" lon="2.36282">
        <ele>64.8</ele>
        <time>2023-10-11T12:32:53Z</time>
      </trkpt>
      <trkpt lat="49.77676" lon="2.36282">
        <ele>64.9</ele>
        <time>2023-10-11T12:32:54Z</time>
      </trkpt>
      <trkpt lat="49.77675" lon="2.36281">
        <ele>64.9</ele>
        <time>2023-10-11T12:32:55Z</time>
      </trkpt>
      <trkpt lat="49.77675" lon="2.3628">
        <ele>65</ele>
        <time>2023-10-11T12:32:56Z</time>
      </trkpt>
      <trkpt lat="49.77675" lon="2.36279">
        <ele>65</ele>
        <time>2023-10-11T12:32:57Z</time>
      </trkpt>
      <trkpt lat="49.77675" lon="2.36278">
        <ele>65.1</ele>
        <time>2023-10-11T12:32:58Z</time>
      </trkpt>
      <trkpt lat="49.77674" lon="2.36277">
        <ele>65.1</ele>
        <time>2023-10-11T12:32:59Z</time>
      </trkpt>
      <trkpt lat="49.77674" lon="2.36276">
        <ele>65.2</ele>
        <time>2023-10-11T12:33:00Z</time>
      </trkpt>
      <trkpt lat="49.77673" lon="2.36275">
        <ele>65.3</ele>
        <time>2023-10-11T12:33:01Z</time>
      </trkpt>
      <trkpt lat="49.77673" lon="2.36274">
        <ele>65.3</ele>
        <time>2023-10-11T12:33:02Z</time>
      </trkpt>
      <trkpt lat="49.77672" lon="2.36273">
        <ele>65.4</ele>
        <time>2023-10-11T12:33:03Z</time>
      </trkpt>
      <trkpt lat="49.77672" lon="2.36272">
        <ele>65.4</ele>
        <time>2023-10-11T12:33:04Z</time>
      </trkpt>
      <trkpt lat="49.77672" lon="2.36271">
        <ele>65.5</ele>
        <time>2023-10-11T12:33:05Z</time>
      </trkpt>
      <trkpt lat="49.77671" lon="2.36269">
        <ele>65.6</ele>
        <time>2023-10-11T12:33:06Z</time>
      </trkpt>
      <trkpt lat="49.77671" lon="2.36268">
        <ele>65.6</ele>
        <time>2023-10-11T12:33:07Z</time>
      </trkpt>
      <trkpt lat="49.7767" lon="2.36267">
        <ele>65.7</ele>
        <time>2023-10-11T12:33:08Z</time>
      </trkpt>
      <trkpt lat="49.7767" lon="2.36266">
        <ele>65.8</ele>
        <time>2023-10-11T12:33:09Z</time>
      </trkpt>
      <trkpt lat="49.7767" lon="2.36265">
        <ele>65.8</ele>
        <time>2023-10-11T12:33:10Z</time>
      </trkpt>
      <trkpt lat="49.77669" lon="2.36263">
        <ele>65.9</ele>
        <time>2023-10-11T12:33:11Z</time>
      </trkpt>
      <trkpt lat="49.77669" lon="2.36262">
        <ele>66</ele>
        <time>2023-10-11T12:33:12Z</time>
      </trkpt>
      <trkpt lat="49.77669" lon="2.36261">
        <ele>66</ele>
        <time>2023-10-11T12:33:13Z</time>
      </trkpt>
      <trkpt lat="49.77668" lon="2.36259">
        <ele>66.1</ele>
        <time>2023-10-11T12:33:14Z</time>
      </trkpt>
      <trkpt lat="49.77668" lon="2.36258">
        <ele>66.2</ele>
        <time>2023-10-11T12:33:15Z</time>
      </trkpt>
      <trkpt lat="49.77668" lon="2.36256">
        <ele>66.3</ele>
        <time>2023-10-11T12:33:16Z</time>
      </trkpt>
      <trkpt lat="49.77667" lon="2.36255">
        <ele>66.3</ele>
        <time>2023-10-11T12:33:17Z</time>
      </trkpt>
      <trkpt lat="49.77667" lon="2.36253">
        <ele>66.4</ele>
        <time>2023-10-11T12:33:18Z</time>
      </trkpt>
      <trkpt lat="49.77666" lon="2.36252">
        <ele>66.5</ele>
        <time>2023-10-11T12:33:19Z</time>
      </trkpt>
      <trkpt lat="49.77666" lon="2.3625">
        <ele>66.6</ele>
        <time>2023-10-11T12:33:20Z</time>
      </trkpt>
      <trkpt lat="49.77665" lon="2.36248">
        <ele>66.7</ele>
        <time>2023-10-11T12:33:21Z</time>
      </trkpt>
      <trkpt lat="49.77665" lon="2.36246">
        <ele>66.7</ele>
        <time>2023-10-11T12:33:23Z</time>
      </trkpt>
      <trkpt lat="49.77665" lon="2.36245">
        <ele>66.8</ele>
        <time>2023-10-11T12:33:24Z</time>
      </trkpt>
      <trkpt lat="49.77664" lon="2.36244">
        <ele>66.9</ele>
        <time>2023-10-11T12:33:25Z</time>
      </trkpt>
      <trkpt lat="49.77664" lon="2.36242">
        <ele>66.9</ele>
        <time>2023-10-11T12:33:26Z</time>
      </trkpt>
      <trkpt lat="49.77664" lon="2.36241">
        <ele>67</ele>
        <time>2023-10-11T12:33:27Z</time>
      </trkpt>
      <trkpt lat="49.77663" lon="2.3624">
        <ele>67</ele>
        <time>2023-10-11T12:33:28Z</time>
      </trkpt>
      <trkpt lat="49.77663" lon="2.36238">
        <ele>67.1</ele>
        <time>2023-10-11T12:33:29Z</time>
      </trkpt>
      <trkpt lat="49.77662" lon="2.36237">
        <ele>67.2</ele>
        <time>2023-10-11T12:33:30Z</time>
      </trkpt>
      <trkpt lat="49.77662" lon="2.36235">
        <ele>67.3</ele>
        <time>2023-10-11T12:33:31Z</time>
      </trkpt>
      <trkpt lat="49.77661" lon="2.36234">
        <ele>67.3</ele>
        <time>2023-10-11T12:33:32Z</time>
      </trkpt>
      <trkpt lat="49.77661" lon="2.36233">
        <ele>67.4</ele>
        <time>2023-10-11T12:33:33Z</time>
      </trkpt>
      <trkpt lat="49.77661" lon="2.36231">
        <ele>67.4</ele>
        <time>2023-10-11T12:33:34Z</time>
      </trkpt>
      <trkpt lat="49.7766" lon="2.3623">
        <ele>67.5</ele>
        <time>2023-10-11T12:33:35Z</time>
      </trkpt>
      <trkpt lat="49.7766" lon="2.36229">
        <ele>67.5</ele>
        <time>2023-10-11T12:33:36Z</time>
      </trkpt>
      <trkpt lat="49.77659" lon="2.36228">
        <ele>67.6</ele>
        <time>2023-10-11T12:33:37Z</time>
      </trkpt>
      <trkpt lat="49.77658" lon="2.36226">
        <ele>67.7</ele>
        <time>2023-10-11T12:33:38Z</time>
      </trkpt>
      <trkpt lat="49.77658" lon="2.36224">
        <ele>67.8</ele>
        <time>2023-10-11T12:33:40Z</time>
      </trkpt>
      <trkpt lat="49.77657" lon="2.36223">
        <ele>67.8</ele>
        <time>2023-10-11T12:33:41Z</time>
      </trkpt>
      <trkpt lat="49.77657" lon="2.36221">
        <ele>68</ele>
        <time>2023-10-11T12:33:42Z</time>
      </trkpt>
      <trkpt lat="49.77656" lon="2.3622">
        <ele>68</ele>
        <time>2023-10-11T12:33:44Z</time>
      </trkpt>
      <trkpt lat="49.77656" lon="2.36218">
        <ele>68.1</ele>
        <time>2023-10-11T12:33:45Z</time>
      </trkpt>
      <trkpt lat="49.77656" lon="2.36217">
        <ele>68.1</ele>
        <time>2023-10-11T12:33:46Z</time>
      </trkpt>
      <trkpt lat="49.77655" lon="2.36216">
        <ele>68.2</ele>
        <time>2023-10-11T12:33:47Z</time>
      </trkpt>
      <trkpt lat="49.77655" lon="2.36215">
        <ele>68.3</ele>
        <time>2023-10-11T12:33:48Z</time>
      </trkpt>
      <trkpt lat="49.77654" lon="2.36214">
        <ele>68.3</ele>
        <time>2023-10-11T12:33:49Z</time>
      </trkpt>
      <trkpt lat="49.77654" lon="2.36212">
        <ele>68.4</ele>
        <time>2023-10-11T12:33:50Z</time>
      </trkpt>
      <trkpt lat="49.77654" lon="2.36211">
        <ele>68.4</ele>
        <time>2023-10-11T12:33:51Z</time>
      </trkpt>
      <trkpt lat="49.77653" lon="2.3621">
        <ele>68.5</ele>
        <time>2023-10-11T12:33:52Z</time>
      </trkpt>
      <trkpt lat="49.77653" lon="2.36209">
        <ele>68.6</ele>
        <time>2023-10-11T12:33:53Z</time>
      </trkpt>
      <trkpt lat="49.77652" lon="2.36206">
        <ele>68.7</ele>
        <time>2023-10-11T12:33:54Z</time>
      </trkpt>
      <trkpt lat="49.77652" lon="2.36205">
        <ele>68.7</ele>
        <time>2023-10-11T12:33:56Z</time>
      </trkpt>
      <trkpt lat="49.77652" lon="2.36204">
        <ele>68.8</ele>
        <time>2023-10-11T12:33:57Z</time>
      </trkpt>
      <trkpt lat="49.77651" lon="2.36202">
        <ele>68.9</ele>
        <time>2023-10-11T12:33:58Z</time>
      </trkpt>
      <trkpt lat="49.77651" lon="2.36201">
        <ele>68.9</ele>
        <time>2023-10-11T12:33:59Z</time>
      </trkpt>
      <trkpt lat="49.7765" lon="2.362">
        <ele>69</ele>
        <time>2023-10-11T12:34:00Z</time>
      </trkpt>
      <trkpt lat="49.7765" lon="2.36199">
        <ele>69.1</ele>
        <time>2023-10-11T12:34:01Z</time>
      </trkpt>
      <trkpt lat="49.7765" lon="2.36198">
        <ele>69.1</ele>
        <time>2023-10-11T12:34:02Z</time>
      </trkpt>
      <trkpt lat="49.77649" lon="2.36197">
        <ele>69.2</ele>
        <time>2023-10-11T12:34:03Z</time>
      </trkpt>
      <trkpt lat="49.77649" lon="2.36196">
        <ele>69.2</ele>
        <time>2023-10-11T12:34:04Z</time>
      </trkpt>
      <trkpt lat="49.77648" lon="2.36194">
        <ele>69.3</ele>
        <time>2023-10-11T12:34:05Z</time>
      </trkpt>
      <trkpt lat="49.77648" lon="2.36193">
        <ele>69.4</ele>
        <time>2023-10-11T12:34:06Z</time>
      </trkpt>
      <trkpt lat="49.77647" lon="2.36192">
        <ele>69.4</ele>
        <time>2023-10-11T12:34:07Z</time>
      </trkpt>
      <trkpt lat="49.77647" lon="2.36191">
        <ele>69.5</ele>
        <time>2023-10-11T12:34:08Z</time>
      </trkpt>
      <trkpt lat="49.77646" lon="2.36189">
        <ele>69.6</ele>
        <time>2023-10-11T12:34:09Z</time>
      </trkpt>
      <trkpt lat="49.77646" lon="2.36188">
        <ele>69.6</ele>
        <time>2023-10-11T12:34:10Z</time>
      </trkpt>
      <trkpt lat="49.77645" lon="2.36187">
        <ele>69.7</ele>
        <time>2023-10-11T12:34:11Z</time>
      </trkpt>
      <trkpt lat="49.77645" lon="2.36185">
        <ele>69.8</ele>
        <time>2023-10-11T12:34:12Z</time>
      </trkpt>
      <trkpt lat="49.77644" lon="2.36184">
        <ele>69.8</ele>
        <time>2023-10-11T12:34:13Z</time>
      </trkpt>
      <trkpt lat="49.77644" lon="2.36183">
        <ele>69.9</ele>
        <time>2023-10-11T12:34:14Z</time>
      </trkpt>
      <trkpt lat="49.77643" lon="2.36182">
        <ele>69.9</ele>
        <time>2023-10-11T12:34:15Z</time>
      </trkpt>
      <trkpt lat="49.77643" lon="2.36181">
        <ele>70</ele>
        <time>2023-10-11T12:34:16Z</time>
      </trkpt>
      <trkpt lat="49.77643" lon="2.3618">
        <ele>70.1</ele>
        <time>2023-10-11T12:34:17Z</time>
      </trkpt>
      <trkpt lat="49.77642" lon="2.36179">
        <ele>70.1</ele>
        <time>2023-10-11T12:34:18Z</time>
      </trkpt>
      <trkpt lat="49.77642" lon="2.36178">
        <ele>70.2</ele>
        <time>2023-10-11T12:34:19Z</time>
      </trkpt>
      <trkpt lat="49.77641" lon="2.36177">
        <ele>70.2</ele>
        <time>2023-10-11T12:34:20Z</time>
      </trkpt>
      <trkpt lat="49.77641" lon="2.36175">
        <ele>70.3</ele>
        <time>2023-10-11T12:34:21Z</time>
      </trkpt>
      <trkpt lat="49.7764" lon="2.36174">
        <ele>70.4</ele>
        <time>2023-10-11T12:34:22Z</time>
      </trkpt>
      <trkpt lat="49.7764" lon="2.36173">
        <ele>70.4</ele>
        <time>2023-10-11T12:34:23Z</time>
      </trkpt>
      <trkpt lat="49.77639" lon="2.36172">
        <ele>70.5</ele>
        <time>2023-10-11T12:34:24Z</time>
      </trkpt>
      <trkpt lat="49.77639" lon="2.36172">
        <ele>70.5</ele>
        <time>2023-10-11T12:34:25Z</time>
      </trkpt>
      <trkpt lat="49.77638" lon="2.36171">
        <ele>70.6</ele>
        <time>2023-10-11T12:34:26Z</time>
      </trkpt>
      <trkpt lat="49.77637" lon="2.3617">
        <ele>70.7</ele>
        <time>2023-10-11T12:34:27Z</time>
      </trkpt>
      <trkpt lat="49.77637" lon="2.36169">
        <ele>70.7</ele>
        <time>2023-10-11T12:34:28Z</time>
      </trkpt>
      <trkpt lat="49.77636" lon="2.36168">
        <ele>70.7</ele>
        <time>2023-10-11T12:34:29Z</time>
      </trkpt>
      <trkpt lat="49.77636" lon="2.36167">
        <ele>70.8</ele>
        <time>2023-10-11T12:34:30Z</time>
      </trkpt>
      <trkpt lat="49.77636" lon="2.36166">
        <ele>70.9</ele>
        <time>2023-10-11T12:34:31Z</time>
      </trkpt>
      <trkpt lat="49.77635" lon="2.36165">
        <ele>70.9</ele>
        <time>2023-10-11T12:34:32Z</time>
      </trkpt>
      <trkpt lat="49.77635" lon="2.36164">
        <ele>70.9</ele>
        <time>2023-10-11T12:34:33Z</time>
      </trkpt>
      <trkpt lat="49.77635" lon="2.36162">
        <ele>71</ele>
        <time>2023-10-11T12:34:34Z</time>
      </trkpt>
      <trkpt lat="49.77634" lon="2.36161">
        <ele>71.1</ele>
        <time>2023-10-11T12:34:35Z</time>
      </trkpt>
      <trkpt lat="49.77634" lon="2.3616">
        <ele>71.1</ele>
        <time>2023-10-11T12:34:36Z</time>
      </trkpt>
      <trkpt lat="49.77634" lon="2.36158">
        <ele>71.2</ele>
        <time>2023-10-11T12:34:37Z</time>
      </trkpt>
      <trkpt lat="49.77633" lon="2.36157">
        <ele>71.2</ele>
        <time>2023-10-11T12:34:38Z</time>
      </trkpt>
      <trkpt lat="49.77633" lon="2.36156">
        <ele>71.3</ele>
        <time>2023-10-11T12:34:39Z</time>
      </trkpt>
      <trkpt lat="49.77632" lon="2.36155">
        <ele>71.3</ele>
        <time>2023-10-11T12:34:40Z</time>
      </trkpt>
      <trkpt lat="49.77632" lon="2.36153">
        <ele>71.4</ele>
        <time>2023-10-11T12:34:41Z</time>
      </trkpt>
      <trkpt lat="49.77631" lon="2.36152">
        <ele>71.5</ele>
        <time>2023-10-11T12:34:42Z</time>
      </trkpt>
      <trkpt lat="49.77631" lon="2.3615">
        <ele>71.5</ele>
        <time>2023-10-11T12:34:43Z</time>
      </trkpt>
      <trkpt lat="49.77631" lon="2.36149">
        <ele>71.6</ele>
        <time>2023-10-11T12:34:44Z</time>
      </trkpt>
      <trkpt lat="49.7763" lon="2.36148">
        <ele>71.7</ele>
        <time>2023-10-11T12:34:45Z</time>
      </trkpt>
      <trkpt lat="49.7763" lon="2.36146">
        <ele>71.7</ele>
        <time>2023-10-11T12:34:46Z</time>
      </trkpt>
      <trkpt lat="49.77629" lon="2.36145">
        <ele>71.8</ele>
        <time>2023-10-11T12:34:47Z</time>
      </trkpt>
      <trkpt lat="49.77629" lon="2.36144">
        <ele>71.8</ele>
        <time>2023-10-11T12:34:48Z</time>
      </trkpt>
      <trkpt lat="49.77628" lon="2.36143">
        <ele>71.9</ele>
        <time>2023-10-11T12:34:49Z</time>
      </trkpt>
      <trkpt lat="49.77628" lon="2.36141">
        <ele>72</ele>
        <time>2023-10-11T12:34:50Z</time>
      </trkpt>
      <trkpt lat="49.77627" lon="2.3614">
        <ele>72</ele>
        <time>2023-10-11T12:34:51Z</time>
      </trkpt>
      <trkpt lat="49.77627" lon="2.36139">
        <ele>72.1</ele>
        <time>2023-10-11T12:34:52Z</time>
      </trkpt>
      <trkpt lat="49.77627" lon="2.36137">
        <ele>72.1</ele>
        <time>2023-10-11T12:34:53Z</time>
      </trkpt>
      <trkpt lat="49.77626" lon="2.36136">
        <ele>72.2</ele>
        <time>2023-10-11T12:34:54Z</time>
      </trkpt>
      <trkpt lat="49.77626" lon="2.36135">
        <ele>72.2</ele>
        <time>2023-10-11T12:34:55Z</time>
      </trkpt>
      <trkpt lat="49.77625" lon="2.36132">
        <ele>72.4</ele>
        <time>2023-10-11T12:34:56Z</time>
      </trkpt>
      <trkpt lat="49.77624" lon="2.3613">
        <ele>72.5</ele>
        <time>2023-10-11T12:34:58Z</time>
      </trkpt>
      <trkpt lat="49.77624" lon="2.36129">
        <ele>72.5</ele>
        <time>2023-10-11T12:34:59Z</time>
      </trkpt>
      <trkpt lat="49.77624" lon="2.36128">
        <ele>72.5</ele>
        <time>2023-10-11T12:35:00Z</time>
      </trkpt>
      <trkpt lat="49.77623" lon="2.36127">
        <ele>72.6</ele>
        <time>2023-10-11T12:35:01Z</time>
      </trkpt>
      <trkpt lat="49.77623" lon="2.36126">
        <ele>72.6</ele>
        <time>2023-10-11T12:35:02Z</time>
      </trkpt>
      <trkpt lat="49.77622" lon="2.36125">
        <ele>72.7</ele>
        <time>2023-10-11T12:35:03Z</time>
      </trkpt>
      <trkpt lat="49.77622" lon="2.36123">
        <ele>72.8</ele>
        <time>2023-10-11T12:35:04Z</time>
      </trkpt>
      <trkpt lat="49.77621" lon="2.36122">
        <ele>72.8</ele>
        <time>2023-10-11T12:35:05Z</time>
      </trkpt>
      <trkpt lat="49.77621" lon="2.3612">
        <ele>72.9</ele>
        <time>2023-10-11T12:35:06Z</time>
      </trkpt>
      <trkpt lat="49.77621" lon="2.36119">
        <ele>73</ele>
        <time>2023-10-11T12:35:07Z</time>
      </trkpt>
      <trkpt lat="49.7762" lon="2.36117">
        <ele>73</ele>
        <time>2023-10-11T12:35:08Z</time>
      </trkpt>
      <trkpt lat="49.7762" lon="2.36116">
        <ele>73.1</ele>
        <time>2023-10-11T12:35:09Z</time>
      </trkpt>
      <trkpt lat="49.7762" lon="2.36114">
        <ele>73.2</ele>
        <time>2023-10-11T12:35:10Z</time>
      </trkpt>
      <trkpt lat="49.77619" lon="2.36113">
        <ele>73.2</ele>
        <time>2023-10-11T12:35:11Z</time>
      </trkpt>
      <trkpt lat="49.77619" lon="2.36112">
        <ele>73.3</ele>
        <time>2023-10-11T12:35:12Z</time>
      </trkpt>
      <trkpt lat="49.77619" lon="2.3611">
        <ele>73.3</ele>
        <time>2023-10-11T12:35:13Z</time>
      </trkpt>
      <trkpt lat="49.77618" lon="2.36109">
        <ele>73.4</ele>
        <time>2023-10-11T12:35:14Z</time>
      </trkpt>
      <trkpt lat="49.77618" lon="2.36107">
        <ele>73.4</ele>
        <time>2023-10-11T12:35:15Z</time>
      </trkpt>
      <trkpt lat="49.77618" lon="2.36106">
        <ele>73.5</ele>
        <time>2023-10-11T12:35:16Z</time>
      </trkpt>
      <trkpt lat="49.77618" lon="2.36105">
        <ele>73.5</ele>
        <time>2023-10-11T12:35:17Z</time>
      </trkpt>
      <trkpt lat="49.77618" lon="2.36103">
        <ele>73.6</ele>
        <time>2023-10-11T12:35:18Z</time>
      </trkpt>
      <trkpt lat="49.77617" lon="2.36102">
        <ele>73.6</ele>
        <time>2023-10-11T12:35:19Z</time>
      </trkpt>
      <trkpt lat="49.77617" lon="2.361">
        <ele>73.7</ele>
        <time>2023-10-11T12:35:20Z</time>
      </trkpt>
      <trkpt lat="49.77617" lon="2.36099">
        <ele>73.8</ele>
        <time>2023-10-11T12:35:21Z</time>
      </trkpt>
      <trkpt lat="49.77616" lon="2.36098">
        <ele>73.8</ele>
        <time>2023-10-11T12:35:22Z</time>
      </trkpt>
      <trkpt lat="49.77616" lon="2.36096">
        <ele>73.9</ele>
        <time>2023-10-11T12:35:23Z</time>
      </trkpt>
      <trkpt lat="49.77616" lon="2.36095">
        <ele>73.9</ele>
        <time>2023-10-11T12:35:24Z</time>
      </trkpt>
      <trkpt lat="49.77615" lon="2.36093">
        <ele>74</ele>
        <time>2023-10-11T12:35:25Z</time>
      </trkpt>
      <trkpt lat="49.77615" lon="2.36092">
        <ele>74</ele>
        <time>2023-10-11T12:35:26Z</time>
      </trkpt>
      <trkpt lat="49.77615" lon="2.36091">
        <ele>74.1</ele>
        <time>2023-10-11T12:35:27Z</time>
      </trkpt>
      <trkpt lat="49.77614" lon="2.36089">
        <ele>74.1</ele>
        <time>2023-10-11T12:35:28Z</time>
      </trkpt>
      <trkpt lat="49.77614" lon="2.36088">
        <ele>74.2</ele>
        <time>2023-10-11T12:35:29Z</time>
      </trkpt>
      <trkpt lat="49.77614" lon="2.36087">
        <ele>74.2</ele>
        <time>2023-10-11T12:35:30Z</time>
      </trkpt>
      <trkpt lat="49.77613" lon="2.36085">
        <ele>74.3</ele>
        <time>2023-10-11T12:35:31Z</time>
      </trkpt>
      <trkpt lat="49.77613" lon="2.36084">
        <ele>74.4</ele>
        <time>2023-10-11T12:35:32Z</time>
      </trkpt>
      <trkpt lat="49.77612" lon="2.36082">
        <ele>74.4</ele>
        <time>2023-10-11T12:35:33Z</time>
      </trkpt>
      <trkpt lat="49.77612" lon="2.36081">
        <ele>74.5</ele>
        <time>2023-10-11T12:35:34Z</time>
      </trkpt>
      <trkpt lat="49.77612" lon="2.3608">
        <ele>74.5</ele>
        <time>2023-10-11T12:35:35Z</time>
      </trkpt>
      <trkpt lat="49.77611" lon="2.36078">
        <ele>74.6</ele>
        <time>2023-10-11T12:35:36Z</time>
      </trkpt>
      <trkpt lat="49.77611" lon="2.36076">
        <ele>74.6</ele>
        <time>2023-10-11T12:35:37Z</time>
      </trkpt>
      <trkpt lat="49.77611" lon="2.36075">
        <ele>74.7</ele>
        <time>2023-10-11T12:35:38Z</time>
      </trkpt>
      <trkpt lat="49.77611" lon="2.36073">
        <ele>74.8</ele>
        <time>2023-10-11T12:35:39Z</time>
      </trkpt>
      <trkpt lat="49.77611" lon="2.36072">
        <ele>74.8</ele>
        <time>2023-10-11T12:35:40Z</time>
      </trkpt>
      <trkpt lat="49.7761" lon="2.36069">
        <ele>74.9</ele>
        <time>2023-10-11T12:35:41Z</time>
      </trkpt>
      <trkpt lat="49.7761" lon="2.36067">
        <ele>75</ele>
        <time>2023-10-11T12:35:43Z</time>
      </trkpt>
      <trkpt lat="49.7761" lon="2.36066">
        <ele>75</ele>
        <time>2023-10-11T12:35:44Z</time>
      </trkpt>
      <trkpt lat="49.7761" lon="2.36065">
        <ele>75.1</ele>
        <time>2023-10-11T12:35:45Z</time>
      </trkpt>
      <trkpt lat="49.7761" lon="2.36063">
        <ele>75.1</ele>
        <time>2023-10-11T12:35:46Z</time>
      </trkpt>
      <trkpt lat="49.77609" lon="2.3606">
        <ele>75.2</ele>
        <time>2023-10-11T12:35:47Z</time>
      </trkpt>
      <trkpt lat="49.77609" lon="2.36058">
        <ele>75.3</ele>
        <time>2023-10-11T12:35:49Z</time>
      </trkpt>
      <trkpt lat="49.77609" lon="2.36057">
        <ele>75.4</ele>
        <time>2023-10-11T12:35:50Z</time>
      </trkpt>
      <trkpt lat="49.77609" lon="2.36055">
        <ele>75.4</ele>
        <time>2023-10-11T12:35:51Z</time>
      </trkpt>
      <trkpt lat="49.77609" lon="2.36054">
        <ele>75.5</ele>
        <time>2023-10-11T12:35:52Z</time>
      </trkpt>
      <trkpt lat="49.77609" lon="2.36052">
        <ele>75.5</ele>
        <time>2023-10-11T12:35:53Z</time>
      </trkpt>
      <trkpt lat="49.77609" lon="2.36051">
        <ele>75.6</ele>
        <time>2023-10-11T12:35:54Z</time>
      </trkpt>
      <trkpt lat="49.77609" lon="2.36049">
        <ele>75.6</ele>
        <time>2023-10-11T12:35:55Z</time>
      </trkpt>
      <trkpt lat="49.77608" lon="2.36047">
        <ele>75.7</ele>
        <time>2023-10-11T12:35:56Z</time>
      </trkpt>
      <trkpt lat="49.77608" lon="2.36046">
        <ele>75.7</ele>
        <time>2023-10-11T12:35:57Z</time>
      </trkpt>
      <trkpt lat="49.77608" lon="2.36045">
        <ele>75.8</ele>
        <time>2023-10-11T12:35:58Z</time>
      </trkpt>
      <trkpt lat="49.77608" lon="2.36043">
        <ele>75.9</ele>
        <time>2023-10-11T12:35:59Z</time>
      </trkpt>
      <trkpt lat="49.77607" lon="2.36042">
        <ele>75.9</ele>
        <time>2023-10-11T12:36:00Z</time>
      </trkpt>
      <trkpt lat="49.77607" lon="2.3604">
        <ele>76</ele>
        <time>2023-10-11T12:36:01Z</time>
      </trkpt>
      <trkpt lat="49.77607" lon="2.36038">
        <ele>76</ele>
        <time>2023-10-11T12:36:02Z</time>
      </trkpt>
      <trkpt lat="49.77606" lon="2.36037">
        <ele>76.1</ele>
        <time>2023-10-11T12:36:03Z</time>
      </trkpt>
      <trkpt lat="49.77606" lon="2.36035">
        <ele>76.1</ele>
        <time>2023-10-11T12:36:04Z</time>
      </trkpt>
      <trkpt lat="49.77605" lon="2.36034">
        <ele>76.2</ele>
        <time>2023-10-11T12:36:05Z</time>
      </trkpt>
      <trkpt lat="49.77605" lon="2.36032">
        <ele>76.3</ele>
        <time>2023-10-11T12:36:06Z</time>
      </trkpt>
      <trkpt lat="49.77605" lon="2.36031">
        <ele>76.3</ele>
        <time>2023-10-11T12:36:07Z</time>
      </trkpt>
      <trkpt lat="49.77604" lon="2.36029">
        <ele>76.4</ele>
        <time>2023-10-11T12:36:08Z</time>
      </trkpt>
      <trkpt lat="49.77604" lon="2.36028">
        <ele>76.4</ele>
        <time>2023-10-11T12:36:09Z</time>
      </trkpt>
      <trkpt lat="49.77603" lon="2.36027">
        <ele>76.5</ele>
        <time>2023-10-11T12:36:10Z</time>
      </trkpt>
      <trkpt lat="49.77603" lon="2.36025">
        <ele>76.6</ele>
        <time>2023-10-11T12:36:11Z</time>
      </trkpt>
      <trkpt lat="49.77603" lon="2.36024">
        <ele>76.6</ele>
        <time>2023-10-11T12:36:12Z</time>
      </trkpt>
      <trkpt lat="49.77602" lon="2.36022">
        <ele>76.7</ele>
        <time>2023-10-11T12:36:13Z</time>
      </trkpt>
      <trkpt lat="49.77602" lon="2.36021">
        <ele>76.7</ele>
        <time>2023-10-11T12:36:14Z</time>
      </trkpt>
      <trkpt lat="49.77601" lon="2.36019">
        <ele>76.8</ele>
        <time>2023-10-11T12:36:15Z</time>
      </trkpt>
      <trkpt lat="49.77601" lon="2.36016">
        <ele>76.9</ele>
        <time>2023-10-11T12:36:16Z</time>
      </trkpt>
      <trkpt lat="49.776" lon="2.36015">
        <ele>76.9</ele>
        <time>2023-10-11T12:36:18Z</time>
      </trkpt>
      <trkpt lat="49.776" lon="2.36014">
        <ele>77</ele>
        <time>2023-10-11T12:36:19Z</time>
      </trkpt>
      <trkpt lat="49.776" lon="2.36012">
        <ele>77</ele>
        <time>2023-10-11T12:36:20Z</time>
      </trkpt>
      <trkpt lat="49.77599" lon="2.36011">
        <ele>77.1</ele>
        <time>2023-10-11T12:36:21Z</time>
      </trkpt>
      <trkpt lat="49.77599" lon="2.36009">
        <ele>77.1</ele>
        <time>2023-10-11T12:36:22Z</time>
      </trkpt>
      <trkpt lat="49.77599" lon="2.36008">
        <ele>77.2</ele>
        <time>2023-10-11T12:36:23Z</time>
      </trkpt>
      <trkpt lat="49.77598" lon="2.36006">
        <ele>77.2</ele>
        <time>2023-10-11T12:36:24Z</time>
      </trkpt>
      <trkpt lat="49.77598" lon="2.36005">
        <ele>77.3</ele>
        <time>2023-10-11T12:36:25Z</time>
      </trkpt>
      <trkpt lat="49.77597" lon="2.36004">
        <ele>77.3</ele>
        <time>2023-10-11T12:36:26Z</time>
      </trkpt>
      <trkpt lat="49.77597" lon="2.36002">
        <ele>77.4</ele>
        <time>2023-10-11T12:36:27Z</time>
      </trkpt>
      <trkpt lat="49.77596" lon="2.36001">
        <ele>77.5</ele>
        <time>2023-10-11T12:36:28Z</time>
      </trkpt>
      <trkpt lat="49.77596" lon="2.35999">
        <ele>77.5</ele>
        <time>2023-10-11T12:36:29Z</time>
      </trkpt>
      <trkpt lat="49.77596" lon="2.35998">
        <ele>77.5</ele>
        <time>2023-10-11T12:36:30Z</time>
      </trkpt>
      <trkpt lat="49.77595" lon="2.35996">
        <ele>77.6</ele>
        <time>2023-10-11T12:36:31Z</time>
      </trkpt>
      <trkpt lat="49.77595" lon="2.35995">
        <ele>77.7</ele>
        <time>2023-10-11T12:36:32Z</time>
      </trkpt>
      <trkpt lat="49.77594" lon="2.35993">
        <ele>77.7</ele>
        <time>2023-10-11T12:36:33Z</time>
      </trkpt>
      <trkpt lat="49.77594" lon="2.35992">
        <ele>77.8</ele>
        <time>2023-10-11T12:36:34Z</time>
      </trkpt>
      <trkpt lat="49.77593" lon="2.35991">
        <ele>77.8</ele>
        <time>2023-10-11T12:36:35Z</time>
      </trkpt>
      <trkpt lat="49.77593" lon="2.35989">
        <ele>77.9</ele>
        <time>2023-10-11T12:36:36Z</time>
      </trkpt>
      <trkpt lat="49.77593" lon="2.35987">
        <ele>77.9</ele>
        <time>2023-10-11T12:36:37Z</time>
      </trkpt>
      <trkpt lat="49.77592" lon="2.35986">
        <ele>78</ele>
        <time>2023-10-11T12:36:38Z</time>
      </trkpt>
      <trkpt lat="49.77592" lon="2.35985">
        <ele>78</ele>
        <time>2023-10-11T12:36:39Z</time>
      </trkpt>
      <trkpt lat="49.77592" lon="2.35983">
        <ele>78</ele>
        <time>2023-10-11T12:36:40Z</time>
      </trkpt>
      <trkpt lat="49.77591" lon="2.35982">
        <ele>78.1</ele>
        <time>2023-10-11T12:36:41Z</time>
      </trkpt>
      <trkpt lat="49.77591" lon="2.35981">
        <ele>78.1</ele>
        <time>2023-10-11T12:36:42Z</time>
      </trkpt>
      <trkpt lat="49.7759" lon="2.35979">
        <ele>78.2</ele>
        <time>2023-10-11T12:36:43Z</time>
      </trkpt>
      <trkpt lat="49.7759" lon="2.35978">
        <ele>78.2</ele>
        <time>2023-10-11T12:36:44Z</time>
      </trkpt>
      <trkpt lat="49.7759" lon="2.35976">
        <ele>78.2</ele>
        <time>2023-10-11T12:36:45Z</time>
      </trkpt>
      <trkpt lat="49.77589" lon="2.35975">
        <ele>78.3</ele>
        <time>2023-10-11T12:36:46Z</time>
      </trkpt>
      <trkpt lat="49.77589" lon="2.35974">
        <ele>78.3</ele>
        <time>2023-10-11T12:36:47Z</time>
      </trkpt>
      <trkpt lat="49.77588" lon="2.35972">
        <ele>78.4</ele>
        <time>2023-10-11T12:36:48Z</time>
      </trkpt>
      <trkpt lat="49.77588" lon="2.35971">
        <ele>78.4</ele>
        <time>2023-10-11T12:36:49Z</time>
      </trkpt>
      <trkpt lat="49.77587" lon="2.35969">
        <ele>78.4</ele>
        <time>2023-10-11T12:36:50Z</time>
      </trkpt>
      <trkpt lat="49.77587" lon="2.35968">
        <ele>78.5</ele>
        <time>2023-10-11T12:36:51Z</time>
      </trkpt>
      <trkpt lat="49.77587" lon="2.35967">
        <ele>78.5</ele>
        <time>2023-10-11T12:36:52Z</time>
      </trkpt>
      <trkpt lat="49.77586" lon="2.35965">
        <ele>78.6</ele>
        <time>2023-10-11T12:36:53Z</time>
      </trkpt>
      <trkpt lat="49.77586" lon="2.35964">
        <ele>78.6</ele>
        <time>2023-10-11T12:36:54Z</time>
      </trkpt>
      <trkpt lat="49.77586" lon="2.35962">
        <ele>78.6</ele>
        <time>2023-10-11T12:36:55Z</time>
      </trkpt>
      <trkpt lat="49.77586" lon="2.35961">
        <ele>78.7</ele>
        <time>2023-10-11T12:36:56Z</time>
      </trkpt>
      <trkpt lat="49.77585" lon="2.3596">
        <ele>78.7</ele>
        <time>2023-10-11T12:36:57Z</time>
      </trkpt>
      <trkpt lat="49.77585" lon="2.35958">
        <ele>78.7</ele>
        <time>2023-10-11T12:36:58Z</time>
      </trkpt>
      <trkpt lat="49.77585" lon="2.35956">
        <ele>78.8</ele>
        <time>2023-10-11T12:36:59Z</time>
      </trkpt>
      <trkpt lat="49.77585" lon="2.35955">
        <ele>78.8</ele>
        <time>2023-10-11T12:37:00Z</time>
      </trkpt>
      <trkpt lat="49.77584" lon="2.35954">
        <ele>78.9</ele>
        <time>2023-10-11T12:37:01Z</time>
      </trkpt>
      <trkpt lat="49.77584" lon="2.35952">
        <ele>78.9</ele>
        <time>2023-10-11T12:37:02Z</time>
      </trkpt>
      <trkpt lat="49.77584" lon="2.35951">
        <ele>78.9</ele>
        <time>2023-10-11T12:37:03Z</time>
      </trkpt>
      <trkpt lat="49.77583" lon="2.35948">
        <ele>79</ele>
        <time>2023-10-11T12:37:04Z</time>
      </trkpt>
      <trkpt lat="49.77583" lon="2.35946">
        <ele>79</ele>
        <time>2023-10-11T12:37:06Z</time>
      </trkpt>
      <trkpt lat="49.77583" lon="2.35945">
        <ele>79.1</ele>
        <time>2023-10-11T12:37:07Z</time>
      </trkpt>
      <trkpt lat="49.77583" lon="2.35944">
        <ele>79.1</ele>
        <time>2023-10-11T12:37:08Z</time>
      </trkpt>
      <trkpt lat="49.77582" lon="2.35942">
        <ele>79.2</ele>
        <time>2023-10-11T12:37:09Z</time>
      </trkpt>
      <trkpt lat="49.77582" lon="2.35941">
        <ele>79.2</ele>
        <time>2023-10-11T12:37:10Z</time>
      </trkpt>
      <trkpt lat="49.77582" lon="2.35937">
        <ele>79.3</ele>
        <time>2023-10-11T12:37:11Z</time>
      </trkpt>
      <trkpt lat="49.77582" lon="2.35936">
        <ele>79.3</ele>
        <time>2023-10-11T12:37:13Z</time>
      </trkpt>
      <trkpt lat="49.77581" lon="2.35933">
        <ele>79.4</ele>
        <time>2023-10-11T12:37:14Z</time>
      </trkpt>
      <trkpt lat="49.77581" lon="2.35932">
        <ele>79.4</ele>
        <time>2023-10-11T12:37:16Z</time>
      </trkpt>
      <trkpt lat="49.77581" lon="2.3593">
        <ele>79.5</ele>
        <time>2023-10-11T12:37:17Z</time>
      </trkpt>
      <trkpt lat="49.7758" lon="2.35929">
        <ele>79.5</ele>
        <time>2023-10-11T12:37:18Z</time>
      </trkpt>
      <trkpt lat="49.7758" lon="2.35928">
        <ele>79.5</ele>
        <time>2023-10-11T12:37:19Z</time>
      </trkpt>
      <trkpt lat="49.7758" lon="2.35926">
        <ele>79.6</ele>
        <time>2023-10-11T12:37:20Z</time>
      </trkpt>
      <trkpt lat="49.77579" lon="2.35924">
        <ele>79.6</ele>
        <time>2023-10-11T12:37:21Z</time>
      </trkpt>
      <trkpt lat="49.77579" lon="2.35923">
        <ele>79.7</ele>
        <time>2023-10-11T12:37:22Z</time>
      </trkpt>
      <trkpt lat="49.77579" lon="2.35921">
        <ele>79.7</ele>
        <time>2023-10-11T12:37:23Z</time>
      </trkpt>
      <trkpt lat="49.77579" lon="2.3592">
        <ele>79.8</ele>
        <time>2023-10-11T12:37:24Z</time>
      </trkpt>
      <trkpt lat="49.77579" lon="2.35918">
        <ele>79.8</ele>
        <time>2023-10-11T12:37:25Z</time>
      </trkpt>
      <trkpt lat="49.77579" lon="2.35917">
        <ele>79.9</ele>
        <time>2023-10-11T12:37:26Z</time>
      </trkpt>
      <trkpt lat="49.77579" lon="2.35915">
        <ele>79.9</ele>
        <time>2023-10-11T12:37:27Z</time>
      </trkpt>
      <trkpt lat="49.77579" lon="2.35913">
        <ele>80</ele>
        <time>2023-10-11T12:37:28Z</time>
      </trkpt>
      <trkpt lat="49.77579" lon="2.35912">
        <ele>80</ele>
        <time>2023-10-11T12:37:29Z</time>
      </trkpt>
      <trkpt lat="49.77579" lon="2.3591">
        <ele>80.1</ele>
        <time>2023-10-11T12:37:30Z</time>
      </trkpt>
      <trkpt lat="49.77579" lon="2.35909">
        <ele>80.1</ele>
        <time>2023-10-11T12:37:31Z</time>
      </trkpt>
      <trkpt lat="49.77579" lon="2.35906">
        <ele>80.2</ele>
        <time>2023-10-11T12:37:32Z</time>
      </trkpt>
      <trkpt lat="49.7758" lon="2.35904">
        <ele>80.3</ele>
        <time>2023-10-11T12:37:34Z</time>
      </trkpt>
      <trkpt lat="49.7758" lon="2.35903">
        <ele>80.3</ele>
        <time>2023-10-11T12:37:35Z</time>
      </trkpt>
      <trkpt lat="49.7758" lon="2.35901">
        <ele>80.4</ele>
        <time>2023-10-11T12:37:36Z</time>
      </trkpt>
      <trkpt lat="49.77581" lon="2.359">
        <ele>80.4</ele>
        <time>2023-10-11T12:37:37Z</time>
      </trkpt>
      <trkpt lat="49.77581" lon="2.35898">
        <ele>80.5</ele>
        <time>2023-10-11T12:37:38Z</time>
      </trkpt>
      <trkpt lat="49.77581" lon="2.35897">
        <ele>80.5</ele>
        <time>2023-10-11T12:37:39Z</time>
      </trkpt>
      <trkpt lat="49.77582" lon="2.35895">
        <ele>80.6</ele>
        <time>2023-10-11T12:37:40Z</time>
      </trkpt>
      <trkpt lat="49.77582" lon="2.35894">
        <ele>80.6</ele>
        <time>2023-10-11T12:37:41Z</time>
      </trkpt>
      <trkpt lat="49.77583" lon="2.35892">
        <ele>80.7</ele>
        <time>2023-10-11T12:37:42Z</time>
      </trkpt>
      <trkpt lat="49.77583" lon="2.35891">
        <ele>80.8</ele>
        <time>2023-10-11T12:37:43Z</time>
      </trkpt>
      <trkpt lat="49.77584" lon="2.35889">
        <ele>80.8</ele>
        <time>2023-10-11T12:37:44Z</time>
      </trkpt>
      <trkpt lat="49.77584" lon="2.35888">
        <ele>80.9</ele>
        <time>2023-10-11T12:37:45Z</time>
      </trkpt>
      <trkpt lat="49.77584" lon="2.35887">
        <ele>80.9</ele>
        <time>2023-10-11T12:37:46Z</time>
      </trkpt>
      <trkpt lat="49.77585" lon="2.35886">
        <ele>81</ele>
        <time>2023-10-11T12:37:47Z</time>
      </trkpt>
      <trkpt lat="49.77585" lon="2.35884">
        <ele>81</ele>
        <time>2023-10-11T12:37:48Z</time>
      </trkpt>
      <trkpt lat="49.77586" lon="2.35883">
        <ele>81.1</ele>
        <time>2023-10-11T12:37:49Z</time>
      </trkpt>
      <trkpt lat="49.77586" lon="2.35882">
        <ele>81.1</ele>
        <time>2023-10-11T12:37:50Z</time>
      </trkpt>
      <trkpt lat="49.77587" lon="2.35881">
        <ele>81.2</ele>
        <time>2023-10-11T12:37:51Z</time>
      </trkpt>
      <trkpt lat="49.77587" lon="2.35879">
        <ele>81.2</ele>
        <time>2023-10-11T12:37:52Z</time>
      </trkpt>
      <trkpt lat="49.77588" lon="2.35878">
        <ele>81.3</ele>
        <time>2023-10-11T12:37:53Z</time>
      </trkpt>
      <trkpt lat="49.77588" lon="2.35877">
        <ele>81.4</ele>
        <time>2023-10-11T12:37:54Z</time>
      </trkpt>
      <trkpt lat="49.77589" lon="2.35875">
        <ele>81.4</ele>
        <time>2023-10-11T12:37:55Z</time>
      </trkpt>
      <trkpt lat="49.77589" lon="2.35874">
        <ele>81.5</ele>
        <time>2023-10-11T12:37:56Z</time>
      </trkpt>
      <trkpt lat="49.7759" lon="2.35873">
        <ele>81.5</ele>
        <time>2023-10-11T12:37:57Z</time>
      </trkpt>
      <trkpt lat="49.77591" lon="2.3587">
        <ele>81.7</ele>
        <time>2023-10-11T12:37:58Z</time>
      </trkpt>
      <trkpt lat="49.77591" lon="2.35869">
        <ele>81.7</ele>
        <time>2023-10-11T12:37:59Z</time>
      </trkpt>
      <trkpt lat="49.77592" lon="2.35868">
        <ele>81.8</ele>
        <time>2023-10-11T12:38:01Z</time>
      </trkpt>
      <trkpt lat="49.77593" lon="2.35866">
        <ele>81.9</ele>
        <time>2023-10-11T12:38:02Z</time>
      </trkpt>
      <trkpt lat="49.77593" lon="2.35864">
        <ele>82</ele>
        <time>2023-10-11T12:38:04Z</time>
      </trkpt>
      <trkpt lat="49.77594" lon="2.35863">
        <ele>82</ele>
        <time>2023-10-11T12:38:05Z</time>
      </trkpt>
      <trkpt lat="49.77594" lon="2.35863">
        <ele>82.1</ele>
        <time>2023-10-11T12:38:06Z</time>
      </trkpt>
      <trkpt lat="49.77594" lon="2.35862">
        <ele>82.1</ele>
        <time>2023-10-11T12:38:07Z</time>
      </trkpt>
      <trkpt lat="49.77595" lon="2.35861">
        <ele>82.2</ele>
        <time>2023-10-11T12:38:08Z</time>
      </trkpt>
      <trkpt lat="49.77595" lon="2.35859">
        <ele>82.2</ele>
        <time>2023-10-11T12:38:09Z</time>
      </trkpt>
      <trkpt lat="49.77596" lon="2.35858">
        <ele>82.3</ele>
        <time>2023-10-11T12:38:10Z</time>
      </trkpt>
      <trkpt lat="49.77596" lon="2.35857">
        <ele>82.4</ele>
        <time>2023-10-11T12:38:11Z</time>
      </trkpt>
      <trkpt lat="49.77597" lon="2.35855">
        <ele>82.5</ele>
        <time>2023-10-11T12:38:12Z</time>
      </trkpt>
      <trkpt lat="49.77598" lon="2.35855">
        <ele>82.5</ele>
        <time>2023-10-11T12:38:14Z</time>
      </trkpt>
      <trkpt lat="49.77598" lon="2.35854">
        <ele>82.5</ele>
        <time>2023-10-11T12:38:15Z</time>
      </trkpt>
      <trkpt lat="49.77598" lon="2.35854">
        <ele>82.5</ele>
        <time>2023-10-11T12:38:16Z</time>
      </trkpt>
      <trkpt lat="49.77598" lon="2.35854">
        <ele>82.6</ele>
        <time>2023-10-11T12:38:18Z</time>
      </trkpt>
      <trkpt lat="49.77598" lon="2.35854">
        <ele>82.6</ele>
        <time>2023-10-11T12:38:19Z</time>
      </trkpt>
      <trkpt lat="49.77598" lon="2.35854">
        <ele>82.6</ele>
        <time>2023-10-11T12:38:20Z</time>
      </trkpt>
      <trkpt lat="49.77597" lon="2.35854">
        <ele>82.6</ele>
        <time>2023-10-11T12:38:21Z</time>
      </trkpt>
      <trkpt lat="49.77597" lon="2.35854">
        <ele>82.6</ele>
        <time>2023-10-11T12:38:22Z</time>
      </trkpt>
      <trkpt lat="49.77597" lon="2.35854">
        <ele>82.6</ele>
        <time>2023-10-11T12:38:23Z</time>
      </trkpt>
      <trkpt lat="49.77597" lon="2.35855">
        <ele>82.6</ele>
        <time>2023-10-11T12:38:24Z</time>
      </trkpt>
      <trkpt lat="49.77597" lon="2.35855">
        <ele>82.7</ele>
        <time>2023-10-11T12:38:25Z</time>
      </trkpt>
      <trkpt lat="49.77597" lon="2.35855">
        <ele>82.7</ele>
        <time>2023-10-11T12:38:26Z</time>
      </trkpt>
      <trkpt lat="49.77597" lon="2.35855">
        <ele>82.7</ele>
        <time>2023-10-11T12:38:27Z</time>
      </trkpt>
      <trkpt lat="49.77597" lon="2.35855">
        <ele>82.7</ele>
        <time>2023-10-11T12:38:28Z</time>
      </trkpt>
      <trkpt lat="49.77597" lon="2.35855">
        <ele>82.7</ele>
        <time>2023-10-11T12:38:29Z</time>
      </trkpt>
      <trkpt lat="49.77597" lon="2.35855">
        <ele>82.7</ele>
        <time>2023-10-11T12:38:30Z</time>
      </trkpt>
      <trkpt lat="49.77597" lon="2.35855">
        <ele>82.7</ele>
        <time>2023-10-11T12:38:31Z</time>
      </trkpt>
      <trkpt lat="49.77597" lon="2.35855">
        <ele>82.7</ele>
        <time>2023-10-11T12:38:32Z</time>
      </trkpt>
      <trkpt lat="49.77597" lon="2.35855">
        <ele>82.7</ele>
        <time>2023-10-11T12:38:33Z</time>
      </trkpt>
      <trkpt lat="49.77598" lon="2.3585">
        <ele>82.9</ele>
        <time>2023-10-11T12:38:59Z</time>
      </trkpt>
      <trkpt lat="49.77599" lon="2.35849">
        <ele>83</ele>
        <time>2023-10-11T12:39:00Z</time>
      </trkpt>
      <trkpt lat="49.77599" lon="2.35848">
        <ele>83.1</ele>
        <time>2023-10-11T12:39:01Z</time>
      </trkpt>
      <trkpt lat="49.77599" lon="2.35846">
        <ele>83.1</ele>
        <time>2023-10-11T12:39:02Z</time>
      </trkpt>
      <trkpt lat="49.776" lon="2.35845">
        <ele>83.2</ele>
        <time>2023-10-11T12:39:03Z</time>
      </trkpt>
      <trkpt lat="49.776" lon="2.35844">
        <ele>83.3</ele>
        <time>2023-10-11T12:39:04Z</time>
      </trkpt>
      <trkpt lat="49.77601" lon="2.35843">
        <ele>83.3</ele>
        <time>2023-10-11T12:39:05Z</time>
      </trkpt>
      <trkpt lat="49.77602" lon="2.35841">
        <ele>83.5</ele>
        <time>2023-10-11T12:39:06Z</time>
      </trkpt>
      <trkpt lat="49.77603" lon="2.35839">
        <ele>83.5</ele>
        <time>2023-10-11T12:39:08Z</time>
      </trkpt>
      <trkpt lat="49.77603" lon="2.35838">
        <ele>83.6</ele>
        <time>2023-10-11T12:39:09Z</time>
      </trkpt>
      <trkpt lat="49.77604" lon="2.35837">
        <ele>83.7</ele>
        <time>2023-10-11T12:39:10Z</time>
      </trkpt>
      <trkpt lat="49.77604" lon="2.35835">
        <ele>83.8</ele>
        <time>2023-10-11T12:39:11Z</time>
      </trkpt>
      <trkpt lat="49.77605" lon="2.35834">
        <ele>83.8</ele>
        <time>2023-10-11T12:39:12Z</time>
      </trkpt>
      <trkpt lat="49.77605" lon="2.35833">
        <ele>83.9</ele>
        <time>2023-10-11T12:39:13Z</time>
      </trkpt>
      <trkpt lat="49.77606" lon="2.35832">
        <ele>84</ele>
        <time>2023-10-11T12:39:14Z</time>
      </trkpt>
      <trkpt lat="49.77607" lon="2.35831">
        <ele>84.1</ele>
        <time>2023-10-11T12:39:15Z</time>
      </trkpt>
      <trkpt lat="49.77607" lon="2.35829">
        <ele>84.2</ele>
        <time>2023-10-11T12:39:16Z</time>
      </trkpt>
      <trkpt lat="49.77608" lon="2.35828">
        <ele>84.2</ele>
        <time>2023-10-11T12:39:17Z</time>
      </trkpt>
      <trkpt lat="49.77609" lon="2.35827">
        <ele>84.3</ele>
        <time>2023-10-11T12:39:18Z</time>
      </trkpt>
      <trkpt lat="49.77609" lon="2.35827">
        <ele>84.4</ele>
        <time>2023-10-11T12:39:19Z</time>
      </trkpt>
      <trkpt lat="49.7761" lon="2.35826">
        <ele>84.4</ele>
        <time>2023-10-11T12:39:20Z</time>
      </trkpt>
      <trkpt lat="49.77611" lon="2.35825">
        <ele>84.5</ele>
        <time>2023-10-11T12:39:21Z</time>
      </trkpt>
      <trkpt lat="49.77612" lon="2.35823">
        <ele>84.6</ele>
        <time>2023-10-11T12:39:22Z</time>
      </trkpt>
      <trkpt lat="49.77613" lon="2.35822">
        <ele>84.8</ele>
        <time>2023-10-11T12:39:23Z</time>
      </trkpt>
      <trkpt lat="49.77614" lon="2.3582">
        <ele>84.9</ele>
        <time>2023-10-11T12:39:24Z</time>
      </trkpt>
      <trkpt lat="49.77615" lon="2.35819">
        <ele>85</ele>
        <time>2023-10-11T12:39:25Z</time>
      </trkpt>
      <trkpt lat="49.77616" lon="2.35817">
        <ele>85.1</ele>
        <time>2023-10-11T12:39:26Z</time>
      </trkpt>
      <trkpt lat="49.77616" lon="2.35816">
        <ele>85.2</ele>
        <time>2023-10-11T12:39:27Z</time>
      </trkpt>
      <trkpt lat="49.77617" lon="2.35814">
        <ele>85.3</ele>
        <time>2023-10-11T12:39:28Z</time>
      </trkpt>
      <trkpt lat="49.77618" lon="2.35813">
        <ele>85.4</ele>
        <time>2023-10-11T12:39:29Z</time>
      </trkpt>
      <trkpt lat="49.77619" lon="2.35812">
        <ele>85.5</ele>
        <time>2023-10-11T12:39:30Z</time>
      </trkpt>
      <trkpt lat="49.77619" lon="2.35811">
        <ele>85.5</ele>
        <time>2023-10-11T12:39:31Z</time>
      </trkpt>
      <trkpt lat="49.7762" lon="2.35809">
        <ele>85.6</ele>
        <time>2023-10-11T12:39:32Z</time>
      </trkpt>
      <trkpt lat="49.77621" lon="2.35808">
        <ele>85.7</ele>
        <time>2023-10-11T12:39:33Z</time>
      </trkpt>
      <trkpt lat="49.77621" lon="2.35806">
        <ele>85.8</ele>
        <time>2023-10-11T12:39:34Z</time>
      </trkpt>
      <trkpt lat="49.77622" lon="2.35805">
        <ele>85.9</ele>
        <time>2023-10-11T12:39:35Z</time>
      </trkpt>
      <trkpt lat="49.77623" lon="2.35804">
        <ele>86</ele>
        <time>2023-10-11T12:39:36Z</time>
      </trkpt>
      <trkpt lat="49.77623" lon="2.35803">
        <ele>86.1</ele>
        <time>2023-10-11T12:39:37Z</time>
      </trkpt>
      <trkpt lat="49.77624" lon="2.35801">
        <ele>86.2</ele>
        <time>2023-10-11T12:39:38Z</time>
      </trkpt>
      <trkpt lat="49.77625" lon="2.35799">
        <ele>86.4</ele>
        <time>2023-10-11T12:39:39Z</time>
      </trkpt>
      <trkpt lat="49.77626" lon="2.35797">
        <ele>86.4</ele>
        <time>2023-10-11T12:39:41Z</time>
      </trkpt>
      <trkpt lat="49.77626" lon="2.35796">
        <ele>86.5</ele>
        <time>2023-10-11T12:39:42Z</time>
      </trkpt>
      <trkpt lat="49.77628" lon="2.35794">
        <ele>86.7</ele>
        <time>2023-10-11T12:39:43Z</time>
      </trkpt>
      <trkpt lat="49.77628" lon="2.35793">
        <ele>86.7</ele>
        <time>2023-10-11T12:39:45Z</time>
      </trkpt>
      <trkpt lat="49.77629" lon="2.35792">
        <ele>86.8</ele>
        <time>2023-10-11T12:39:46Z</time>
      </trkpt>
      <trkpt lat="49.77629" lon="2.35791">
        <ele>86.8</ele>
        <time>2023-10-11T12:39:47Z</time>
      </trkpt>
      <trkpt lat="49.7763" lon="2.3579">
        <ele>86.9</ele>
        <time>2023-10-11T12:39:48Z</time>
      </trkpt>
      <trkpt lat="49.7763" lon="2.35789">
        <ele>87</ele>
        <time>2023-10-11T12:39:49Z</time>
      </trkpt>
      <trkpt lat="49.77631" lon="2.35789">
        <ele>87</ele>
        <time>2023-10-11T12:39:50Z</time>
      </trkpt>
      <trkpt lat="49.77632" lon="2.35787">
        <ele>87.1</ele>
        <time>2023-10-11T12:39:51Z</time>
      </trkpt>
      <trkpt lat="49.77632" lon="2.35786">
        <ele>87.2</ele>
        <time>2023-10-11T12:39:52Z</time>
      </trkpt>
      <trkpt lat="49.77633" lon="2.35785">
        <ele>87.2</ele>
        <time>2023-10-11T12:39:54Z</time>
      </trkpt>
      <trkpt lat="49.77633" lon="2.35784">
        <ele>87.3</ele>
        <time>2023-10-11T12:39:55Z</time>
      </trkpt>
      <trkpt lat="49.77634" lon="2.35783">
        <ele>87.3</ele>
        <time>2023-10-11T12:39:56Z</time>
      </trkpt>
      <trkpt lat="49.77634" lon="2.35782">
        <ele>87.4</ele>
        <time>2023-10-11T12:39:57Z</time>
      </trkpt>
      <trkpt lat="49.77635" lon="2.3578">
        <ele>87.5</ele>
        <time>2023-10-11T12:39:58Z</time>
      </trkpt>
      <trkpt lat="49.77636" lon="2.35779">
        <ele>87.6</ele>
        <time>2023-10-11T12:40:00Z</time>
      </trkpt>
      <trkpt lat="49.77636" lon="2.35778">
        <ele>87.7</ele>
        <time>2023-10-11T12:40:02Z</time>
      </trkpt>
      <trkpt lat="49.77637" lon="2.35776">
        <ele>87.8</ele>
        <time>2023-10-11T12:40:03Z</time>
      </trkpt>
      <trkpt lat="49.77638" lon="2.35775">
        <ele>87.8</ele>
        <time>2023-10-11T12:40:05Z</time>
      </trkpt>
      <trkpt lat="49.77638" lon="2.35774">
        <ele>87.9</ele>
        <time>2023-10-11T12:40:06Z</time>
      </trkpt>
      <trkpt lat="49.77639" lon="2.35774">
        <ele>87.9</ele>
        <time>2023-10-11T12:40:07Z</time>
      </trkpt>
      <trkpt lat="49.77639" lon="2.35773">
        <ele>88</ele>
        <time>2023-10-11T12:40:08Z</time>
      </trkpt>
      <trkpt lat="49.7764" lon="2.35772">
        <ele>88</ele>
        <time>2023-10-11T12:40:09Z</time>
      </trkpt>
      <trkpt lat="49.7764" lon="2.35771">
        <ele>88.1</ele>
        <time>2023-10-11T12:40:10Z</time>
      </trkpt>
      <trkpt lat="49.77641" lon="2.3577">
        <ele>88.1</ele>
        <time>2023-10-11T12:40:11Z</time>
      </trkpt>
      <trkpt lat="49.77641" lon="2.35769">
        <ele>88.2</ele>
        <time>2023-10-11T12:40:12Z</time>
      </trkpt>
      <trkpt lat="49.77642" lon="2.35768">
        <ele>88.2</ele>
        <time>2023-10-11T12:40:13Z</time>
      </trkpt>
      <trkpt lat="49.77642" lon="2.35767">
        <ele>88.3</ele>
        <time>2023-10-11T12:40:14Z</time>
      </trkpt>
      <trkpt lat="49.77643" lon="2.35766">
        <ele>88.4</ele>
        <time>2023-10-11T12:40:15Z</time>
      </trkpt>
      <trkpt lat="49.77643" lon="2.35764">
        <ele>88.4</ele>
        <time>2023-10-11T12:40:16Z</time>
      </trkpt>
      <trkpt lat="49.77643" lon="2.35763">
        <ele>88.5</ele>
        <time>2023-10-11T12:40:17Z</time>
      </trkpt>
      <trkpt lat="49.77644" lon="2.35761">
        <ele>88.6</ele>
        <time>2023-10-11T12:40:18Z</time>
      </trkpt>
      <trkpt lat="49.77644" lon="2.35758">
        <ele>88.7</ele>
        <time>2023-10-11T12:40:20Z</time>
      </trkpt>
      <trkpt lat="49.77645" lon="2.35755">
        <ele>88.8</ele>
        <time>2023-10-11T12:40:22Z</time>
      </trkpt>
      <trkpt lat="49.77645" lon="2.35752">
        <ele>88.9</ele>
        <time>2023-10-11T12:40:24Z</time>
      </trkpt>
      <trkpt lat="49.77646" lon="2.35751">
        <ele>89</ele>
        <time>2023-10-11T12:40:26Z</time>
      </trkpt>
      <trkpt lat="49.77646" lon="2.3575">
        <ele>89</ele>
        <time>2023-10-11T12:40:27Z</time>
      </trkpt>
      <trkpt lat="49.77646" lon="2.35748">
        <ele>89</ele>
        <time>2023-10-11T12:40:28Z</time>
      </trkpt>
      <trkpt lat="49.77646" lon="2.35747">
        <ele>89.1</ele>
        <time>2023-10-11T12:40:29Z</time>
      </trkpt>
      <trkpt lat="49.77647" lon="2.35746">
        <ele>89.1</ele>
        <time>2023-10-11T12:40:30Z</time>
      </trkpt>
      <trkpt lat="49.77647" lon="2.35744">
        <ele>89.2</ele>
        <time>2023-10-11T12:40:31Z</time>
      </trkpt>
      <trkpt lat="49.77647" lon="2.35743">
        <ele>89.2</ele>
        <time>2023-10-11T12:40:32Z</time>
      </trkpt>
      <trkpt lat="49.77647" lon="2.35742">
        <ele>89.3</ele>
        <time>2023-10-11T12:40:33Z</time>
      </trkpt>
      <trkpt lat="49.77647" lon="2.3574">
        <ele>89.3</ele>
        <time>2023-10-11T12:40:34Z</time>
      </trkpt>
      <trkpt lat="49.77647" lon="2.35739">
        <ele>89.3</ele>
        <time>2023-10-11T12:40:35Z</time>
      </trkpt>
      <trkpt lat="49.77648" lon="2.35738">
        <ele>89.4</ele>
        <time>2023-10-11T12:40:36Z</time>
      </trkpt>
      <trkpt lat="49.77648" lon="2.35737">
        <ele>89.4</ele>
        <time>2023-10-11T12:40:37Z</time>
      </trkpt>
      <trkpt lat="49.77648" lon="2.35735">
        <ele>89.4</ele>
        <time>2023-10-11T12:40:38Z</time>
      </trkpt>
      <trkpt lat="49.77648" lon="2.35734">
        <ele>89.5</ele>
        <time>2023-10-11T12:40:39Z</time>
      </trkpt>
      <trkpt lat="49.77648" lon="2.35732">
        <ele>89.6</ele>
        <time>2023-10-11T12:40:40Z</time>
      </trkpt>
      <trkpt lat="49.77648" lon="2.35731">
        <ele>89.6</ele>
        <time>2023-10-11T12:40:41Z</time>
      </trkpt>
      <trkpt lat="49.77649" lon="2.3573">
        <ele>89.6</ele>
        <time>2023-10-11T12:40:42Z</time>
      </trkpt>
      <trkpt lat="49.77649" lon="2.35728">
        <ele>89.6</ele>
        <time>2023-10-11T12:40:43Z</time>
      </trkpt>
      <trkpt lat="49.77649" lon="2.35727">
        <ele>89.7</ele>
        <time>2023-10-11T12:40:44Z</time>
      </trkpt>
      <trkpt lat="49.77649" lon="2.35725">
        <ele>89.7</ele>
        <time>2023-10-11T12:40:45Z</time>
      </trkpt>
      <trkpt lat="49.7765" lon="2.35722">
        <ele>89.8</ele>
        <time>2023-10-11T12:40:46Z</time>
      </trkpt>
      <trkpt lat="49.7765" lon="2.35721">
        <ele>89.8</ele>
        <time>2023-10-11T12:40:48Z</time>
      </trkpt>
      <trkpt lat="49.7765" lon="2.35719">
        <ele>89.9</ele>
        <time>2023-10-11T12:40:49Z</time>
      </trkpt>
      <trkpt lat="49.7765" lon="2.35718">
        <ele>89.9</ele>
        <time>2023-10-11T12:40:50Z</time>
      </trkpt>
      <trkpt lat="49.77651" lon="2.35716">
        <ele>89.9</ele>
        <time>2023-10-11T12:40:51Z</time>
      </trkpt>
      <trkpt lat="49.77651" lon="2.35713">
        <ele>90</ele>
        <time>2023-10-11T12:40:52Z</time>
      </trkpt>
      <trkpt lat="49.77652" lon="2.3571">
        <ele>90.1</ele>
        <time>2023-10-11T12:40:54Z</time>
      </trkpt>
      <trkpt lat="49.77652" lon="2.35708">
        <ele>90.1</ele>
        <time>2023-10-11T12:40:55Z</time>
      </trkpt>
      <trkpt lat="49.77652" lon="2.35707">
        <ele>90.1</ele>
        <time>2023-10-11T12:40:57Z</time>
      </trkpt>
      <trkpt lat="49.77652" lon="2.35705">
        <ele>90.2</ele>
        <time>2023-10-11T12:40:58Z</time>
      </trkpt>
      <trkpt lat="49.77653" lon="2.35703">
        <ele>90.2</ele>
        <time>2023-10-11T12:40:59Z</time>
      </trkpt>
      <trkpt lat="49.77653" lon="2.35701">
        <ele>90.2</ele>
        <time>2023-10-11T12:41:00Z</time>
      </trkpt>
      <trkpt lat="49.77653" lon="2.35699">
        <ele>90.3</ele>
        <time>2023-10-11T12:41:01Z</time>
      </trkpt>
      <trkpt lat="49.77653" lon="2.35698">
        <ele>90.3</ele>
        <time>2023-10-11T12:41:02Z</time>
      </trkpt>
      <trkpt lat="49.77653" lon="2.35696">
        <ele>90.3</ele>
        <time>2023-10-11T12:41:03Z</time>
      </trkpt>
      <trkpt lat="49.77653" lon="2.35695">
        <ele>90.3</ele>
        <time>2023-10-11T12:41:04Z</time>
      </trkpt>
      <trkpt lat="49.77653" lon="2.35693">
        <ele>90.4</ele>
        <time>2023-10-11T12:41:05Z</time>
      </trkpt>
      <trkpt lat="49.77653" lon="2.35692">
        <ele>90.4</ele>
        <time>2023-10-11T12:41:06Z</time>
      </trkpt>
      <trkpt lat="49.77653" lon="2.3569">
        <ele>90.4</ele>
        <time>2023-10-11T12:41:07Z</time>
      </trkpt>
      <trkpt lat="49.77653" lon="2.35689">
        <ele>90.4</ele>
        <time>2023-10-11T12:41:08Z</time>
      </trkpt>
      <trkpt lat="49.77653" lon="2.35687">
        <ele>90.4</ele>
        <time>2023-10-11T12:41:09Z</time>
      </trkpt>
      <trkpt lat="49.77653" lon="2.35685">
        <ele>90.5</ele>
        <time>2023-10-11T12:41:10Z</time>
      </trkpt>
      <trkpt lat="49.77654" lon="2.35684">
        <ele>90.5</ele>
        <time>2023-10-11T12:41:11Z</time>
      </trkpt>
      <trkpt lat="49.77654" lon="2.35682">
        <ele>90.5</ele>
        <time>2023-10-11T12:41:12Z</time>
      </trkpt>
      <trkpt lat="49.77654" lon="2.35681">
        <ele>90.5</ele>
        <time>2023-10-11T12:41:13Z</time>
      </trkpt>
      <trkpt lat="49.77654" lon="2.35679">
        <ele>90.5</ele>
        <time>2023-10-11T12:41:14Z</time>
      </trkpt>
      <trkpt lat="49.77654" lon="2.35678">
        <ele>90.5</ele>
        <time>2023-10-11T12:41:15Z</time>
      </trkpt>
      <trkpt lat="49.77654" lon="2.35676">
        <ele>90.5</ele>
        <time>2023-10-11T12:41:16Z</time>
      </trkpt>
      <trkpt lat="49.77654" lon="2.35674">
        <ele>90.6</ele>
        <time>2023-10-11T12:41:17Z</time>
      </trkpt>
      <trkpt lat="49.77654" lon="2.35673">
        <ele>90.6</ele>
        <time>2023-10-11T12:41:18Z</time>
      </trkpt>
      <trkpt lat="49.77654" lon="2.35671">
        <ele>90.6</ele>
        <time>2023-10-11T12:41:19Z</time>
      </trkpt>
      <trkpt lat="49.77654" lon="2.3567">
        <ele>90.6</ele>
        <time>2023-10-11T12:41:20Z</time>
      </trkpt>
      <trkpt lat="49.77654" lon="2.35668">
        <ele>90.6</ele>
        <time>2023-10-11T12:41:21Z</time>
      </trkpt>
      <trkpt lat="49.77655" lon="2.35665">
        <ele>90.6</ele>
        <time>2023-10-11T12:41:22Z</time>
      </trkpt>
      <trkpt lat="49.77655" lon="2.35664">
        <ele>90.6</ele>
        <time>2023-10-11T12:41:24Z</time>
      </trkpt>
      <trkpt lat="49.77655" lon="2.35662">
        <ele>90.6</ele>
        <time>2023-10-11T12:41:25Z</time>
      </trkpt>
      <trkpt lat="49.77655" lon="2.35661">
        <ele>90.6</ele>
        <time>2023-10-11T12:41:26Z</time>
      </trkpt>
      <trkpt lat="49.77656" lon="2.35659">
        <ele>90.7</ele>
        <time>2023-10-11T12:41:27Z</time>
      </trkpt>
      <trkpt lat="49.77656" lon="2.35658">
        <ele>90.7</ele>
        <time>2023-10-11T12:41:28Z</time>
      </trkpt>
      <trkpt lat="49.77656" lon="2.35656">
        <ele>90.7</ele>
        <time>2023-10-11T12:41:29Z</time>
      </trkpt>
      <trkpt lat="49.77656" lon="2.35655">
        <ele>90.7</ele>
        <time>2023-10-11T12:41:30Z</time>
      </trkpt>
      <trkpt lat="49.77657" lon="2.35654">
        <ele>90.7</ele>
        <time>2023-10-11T12:41:31Z</time>
      </trkpt>
      <trkpt lat="49.77657" lon="2.35651">
        <ele>90.7</ele>
        <time>2023-10-11T12:41:32Z</time>
      </trkpt>
      <trkpt lat="49.77657" lon="2.3565">
        <ele>90.7</ele>
        <time>2023-10-11T12:41:33Z</time>
      </trkpt>
      <trkpt lat="49.77657" lon="2.35649">
        <ele>90.7</ele>
        <time>2023-10-11T12:41:34Z</time>
      </trkpt>
      <trkpt lat="49.77657" lon="2.35648">
        <ele>90.7</ele>
        <time>2023-10-11T12:41:35Z</time>
      </trkpt>
      <trkpt lat="49.77658" lon="2.35645">
        <ele>90.7</ele>
        <time>2023-10-11T12:41:36Z</time>
      </trkpt>
      <trkpt lat="49.77658" lon="2.35644">
        <ele>90.7</ele>
        <time>2023-10-11T12:41:38Z</time>
      </trkpt>
      <trkpt lat="49.77658" lon="2.35642">
        <ele>90.7</ele>
        <time>2023-10-11T12:41:39Z</time>
      </trkpt>
      <trkpt lat="49.77658" lon="2.35641">
        <ele>90.7</ele>
        <time>2023-10-11T12:41:40Z</time>
      </trkpt>
      <trkpt lat="49.77659" lon="2.35639">
        <ele>90.7</ele>
        <time>2023-10-11T12:41:41Z</time>
      </trkpt>
      <trkpt lat="49.77659" lon="2.35637">
        <ele>90.7</ele>
        <time>2023-10-11T12:41:42Z</time>
      </trkpt>
      <trkpt lat="49.77659" lon="2.35636">
        <ele>90.7</ele>
        <time>2023-10-11T12:41:43Z</time>
      </trkpt>
      <trkpt lat="49.77659" lon="2.35634">
        <ele>90.7</ele>
        <time>2023-10-11T12:41:44Z</time>
      </trkpt>
      <trkpt lat="49.7766" lon="2.35632">
        <ele>90.7</ele>
        <time>2023-10-11T12:41:45Z</time>
      </trkpt>
      <trkpt lat="49.7766" lon="2.35631">
        <ele>90.7</ele>
        <time>2023-10-11T12:41:46Z</time>
      </trkpt>
      <trkpt lat="49.7766" lon="2.35629">
        <ele>90.7</ele>
        <time>2023-10-11T12:41:47Z</time>
      </trkpt>
      <trkpt lat="49.7766" lon="2.35627">
        <ele>90.7</ele>
        <time>2023-10-11T12:41:48Z</time>
      </trkpt>
      <trkpt lat="49.77661" lon="2.35626">
        <ele>90.7</ele>
        <time>2023-10-11T12:41:49Z</time>
      </trkpt>
      <trkpt lat="49.77661" lon="2.35624">
        <ele>90.7</ele>
        <time>2023-10-11T12:41:50Z</time>
      </trkpt>
      <trkpt lat="49.77662" lon="2.35623">
        <ele>90.7</ele>
        <time>2023-10-11T12:41:51Z</time>
      </trkpt>
      <trkpt lat="49.77662" lon="2.35621">
        <ele>90.7</ele>
        <time>2023-10-11T12:41:52Z</time>
      </trkpt>
      <trkpt lat="49.77662" lon="2.35619">
        <ele>90.7</ele>
        <time>2023-10-11T12:41:53Z</time>
      </trkpt>
      <trkpt lat="49.77663" lon="2.35618">
        <ele>90.7</ele>
        <time>2023-10-11T12:41:54Z</time>
      </trkpt>
      <trkpt lat="49.77663" lon="2.35616">
        <ele>90.6</ele>
        <time>2023-10-11T12:41:55Z</time>
      </trkpt>
      <trkpt lat="49.77664" lon="2.35615">
        <ele>90.6</ele>
        <time>2023-10-11T12:41:56Z</time>
      </trkpt>
      <trkpt lat="49.77664" lon="2.35612">
        <ele>90.6</ele>
        <time>2023-10-11T12:41:57Z</time>
      </trkpt>
      <trkpt lat="49.77664" lon="2.3561">
        <ele>90.6</ele>
        <time>2023-10-11T12:41:58Z</time>
      </trkpt>
      <trkpt lat="49.77665" lon="2.35609">
        <ele>90.6</ele>
        <time>2023-10-11T12:41:59Z</time>
      </trkpt>
      <trkpt lat="49.77665" lon="2.35606">
        <ele>90.6</ele>
        <time>2023-10-11T12:42:00Z</time>
      </trkpt>
      <trkpt lat="49.77665" lon="2.35605">
        <ele>90.6</ele>
        <time>2023-10-11T12:42:01Z</time>
      </trkpt>
      <trkpt lat="49.77666" lon="2.35604">
        <ele>90.6</ele>
        <time>2023-10-11T12:42:02Z</time>
      </trkpt>
      <trkpt lat="49.77666" lon="2.35602">
        <ele>90.6</ele>
        <time>2023-10-11T12:42:03Z</time>
      </trkpt>
      <trkpt lat="49.77666" lon="2.356">
        <ele>90.6</ele>
        <time>2023-10-11T12:42:04Z</time>
      </trkpt>
      <trkpt lat="49.77667" lon="2.35599">
        <ele>90.6</ele>
        <time>2023-10-11T12:42:05Z</time>
      </trkpt>
      <trkpt lat="49.77667" lon="2.35597">
        <ele>90.6</ele>
        <time>2023-10-11T12:42:06Z</time>
      </trkpt>
      <trkpt lat="49.77667" lon="2.35595">
        <ele>90.5</ele>
        <time>2023-10-11T12:42:07Z</time>
      </trkpt>
      <trkpt lat="49.77667" lon="2.35593">
        <ele>90.5</ele>
        <time>2023-10-11T12:42:08Z</time>
      </trkpt>
      <trkpt lat="49.77667" lon="2.35592">
        <ele>90.5</ele>
        <time>2023-10-11T12:42:09Z</time>
      </trkpt>
      <trkpt lat="49.77668" lon="2.35591">
        <ele>90.5</ele>
        <time>2023-10-11T12:42:10Z</time>
      </trkpt>
      <trkpt lat="49.77668" lon="2.35589">
        <ele>90.5</ele>
        <time>2023-10-11T12:42:11Z</time>
      </trkpt>
      <trkpt lat="49.77668" lon="2.35588">
        <ele>90.5</ele>
        <time>2023-10-11T12:42:12Z</time>
      </trkpt>
      <trkpt lat="49.77668" lon="2.35586">
        <ele>90.5</ele>
        <time>2023-10-11T12:42:13Z</time>
      </trkpt>
      <trkpt lat="49.77669" lon="2.35584">
        <ele>90.5</ele>
        <time>2023-10-11T12:42:14Z</time>
      </trkpt>
      <trkpt lat="49.77669" lon="2.35583">
        <ele>90.5</ele>
        <time>2023-10-11T12:42:15Z</time>
      </trkpt>
      <trkpt lat="49.77669" lon="2.35581">
        <ele>90.5</ele>
        <time>2023-10-11T12:42:16Z</time>
      </trkpt>
      <trkpt lat="49.77669" lon="2.3558">
        <ele>90.4</ele>
        <time>2023-10-11T12:42:17Z</time>
      </trkpt>
      <trkpt lat="49.77669" lon="2.35578">
        <ele>90.4</ele>
        <time>2023-10-11T12:42:18Z</time>
      </trkpt>
      <trkpt lat="49.77669" lon="2.35577">
        <ele>90.4</ele>
        <time>2023-10-11T12:42:19Z</time>
      </trkpt>
      <trkpt lat="49.7767" lon="2.35575">
        <ele>90.4</ele>
        <time>2023-10-11T12:42:20Z</time>
      </trkpt>
      <trkpt lat="49.7767" lon="2.35573">
        <ele>90.4</ele>
        <time>2023-10-11T12:42:21Z</time>
      </trkpt>
      <trkpt lat="49.7767" lon="2.3557">
        <ele>90.4</ele>
        <time>2023-10-11T12:42:22Z</time>
      </trkpt>
      <trkpt lat="49.7767" lon="2.35567">
        <ele>90.4</ele>
        <time>2023-10-11T12:42:24Z</time>
      </trkpt>
      <trkpt lat="49.7767" lon="2.35565">
        <ele>90.3</ele>
        <time>2023-10-11T12:42:26Z</time>
      </trkpt>
      <trkpt lat="49.7767" lon="2.35563">
        <ele>90.3</ele>
        <time>2023-10-11T12:42:27Z</time>
      </trkpt>
      <trkpt lat="49.7767" lon="2.35561">
        <ele>90.3</ele>
        <time>2023-10-11T12:42:28Z</time>
      </trkpt>
      <trkpt lat="49.77671" lon="2.3556">
        <ele>90.3</ele>
        <time>2023-10-11T12:42:29Z</time>
      </trkpt>
      <trkpt lat="49.77671" lon="2.35558">
        <ele>90.3</ele>
        <time>2023-10-11T12:42:30Z</time>
      </trkpt>
      <trkpt lat="49.77671" lon="2.35557">
        <ele>90.3</ele>
        <time>2023-10-11T12:42:31Z</time>
      </trkpt>
      <trkpt lat="49.77671" lon="2.35555">
        <ele>90.3</ele>
        <time>2023-10-11T12:42:32Z</time>
      </trkpt>
      <trkpt lat="49.77671" lon="2.35551">
        <ele>90.3</ele>
        <time>2023-10-11T12:42:33Z</time>
      </trkpt>
      <trkpt lat="49.77672" lon="2.35549">
        <ele>90.2</ele>
        <time>2023-10-11T12:42:35Z</time>
      </trkpt>
      <trkpt lat="49.77672" lon="2.35547">
        <ele>90.2</ele>
        <time>2023-10-11T12:42:36Z</time>
      </trkpt>
      <trkpt lat="49.77672" lon="2.35546">
        <ele>90.2</ele>
        <time>2023-10-11T12:42:37Z</time>
      </trkpt>
      <trkpt lat="49.77672" lon="2.35544">
        <ele>90.2</ele>
        <time>2023-10-11T12:42:38Z</time>
      </trkpt>
      <trkpt lat="49.77672" lon="2.35542">
        <ele>90.2</ele>
        <time>2023-10-11T12:42:39Z</time>
      </trkpt>
      <trkpt lat="49.77672" lon="2.35541">
        <ele>90.2</ele>
        <time>2023-10-11T12:42:40Z</time>
      </trkpt>
      <trkpt lat="49.77673" lon="2.35539">
        <ele>90.2</ele>
        <time>2023-10-11T12:42:41Z</time>
      </trkpt>
      <trkpt lat="49.77673" lon="2.35537">
        <ele>90.2</ele>
        <time>2023-10-11T12:42:42Z</time>
      </trkpt>
      <trkpt lat="49.77673" lon="2.35536">
        <ele>90.2</ele>
        <time>2023-10-11T12:42:43Z</time>
      </trkpt>
      <trkpt lat="49.77673" lon="2.35534">
        <ele>90.2</ele>
        <time>2023-10-11T12:42:44Z</time>
      </trkpt>
      <trkpt lat="49.77673" lon="2.35531">
        <ele>90.2</ele>
        <time>2023-10-11T12:42:45Z</time>
      </trkpt>
      <trkpt lat="49.77673" lon="2.3553">
        <ele>90.2</ele>
        <time>2023-10-11T12:42:47Z</time>
      </trkpt>
      <trkpt lat="49.77673" lon="2.35528">
        <ele>90.2</ele>
        <time>2023-10-11T12:42:48Z</time>
      </trkpt>
      <trkpt lat="49.77674" lon="2.35526">
        <ele>90.2</ele>
        <time>2023-10-11T12:42:49Z</time>
      </trkpt>
      <trkpt lat="49.77674" lon="2.35525">
        <ele>90.2</ele>
        <time>2023-10-11T12:42:50Z</time>
      </trkpt>
      <trkpt lat="49.77674" lon="2.35523">
        <ele>90.2</ele>
        <time>2023-10-11T12:42:51Z</time>
      </trkpt>
      <trkpt lat="49.77674" lon="2.35521">
        <ele>90.2</ele>
        <time>2023-10-11T12:42:52Z</time>
      </trkpt>
      <trkpt lat="49.77674" lon="2.3552">
        <ele>90.2</ele>
        <time>2023-10-11T12:42:53Z</time>
      </trkpt>
      <trkpt lat="49.77675" lon="2.35516">
        <ele>90.2</ele>
        <time>2023-10-11T12:42:54Z</time>
      </trkpt>
      <trkpt lat="49.77675" lon="2.35515">
        <ele>90.2</ele>
        <time>2023-10-11T12:42:55Z</time>
      </trkpt>
      <trkpt lat="49.77675" lon="2.35514">
        <ele>90.2</ele>
        <time>2023-10-11T12:42:56Z</time>
      </trkpt>
      <trkpt lat="49.77675" lon="2.35511">
        <ele>90.2</ele>
        <time>2023-10-11T12:42:57Z</time>
      </trkpt>
      <trkpt lat="49.77676" lon="2.3551">
        <ele>90.2</ele>
        <time>2023-10-11T12:42:58Z</time>
      </trkpt>
      <trkpt lat="49.77676" lon="2.35508">
        <ele>90.2</ele>
        <time>2023-10-11T12:42:59Z</time>
      </trkpt>
      <trkpt lat="49.77676" lon="2.35505">
        <ele>90.1</ele>
        <time>2023-10-11T12:43:00Z</time>
      </trkpt>
      <trkpt lat="49.77676" lon="2.35504">
        <ele>90.1</ele>
        <time>2023-10-11T12:43:01Z</time>
      </trkpt>
      <trkpt lat="49.77677" lon="2.35503">
        <ele>90.1</ele>
        <time>2023-10-11T12:43:02Z</time>
      </trkpt>
      <trkpt lat="49.77677" lon="2.35501">
        <ele>90.1</ele>
        <time>2023-10-11T12:43:03Z</time>
      </trkpt>
      <trkpt lat="49.77677" lon="2.355">
        <ele>90.1</ele>
        <time>2023-10-11T12:43:04Z</time>
      </trkpt>
      <trkpt lat="49.77678" lon="2.35498">
        <ele>90.1</ele>
        <time>2023-10-11T12:43:05Z</time>
      </trkpt>
      <trkpt lat="49.77678" lon="2.35496">
        <ele>90.1</ele>
        <time>2023-10-11T12:43:06Z</time>
      </trkpt>
      <trkpt lat="49.77678" lon="2.35495">
        <ele>90.1</ele>
        <time>2023-10-11T12:43:07Z</time>
      </trkpt>
      <trkpt lat="49.77679" lon="2.35493">
        <ele>90.1</ele>
        <time>2023-10-11T12:43:08Z</time>
      </trkpt>
      <trkpt lat="49.77679" lon="2.35491">
        <ele>90.1</ele>
        <time>2023-10-11T12:43:09Z</time>
      </trkpt>
      <trkpt lat="49.7768" lon="2.3549">
        <ele>90.1</ele>
        <time>2023-10-11T12:43:10Z</time>
      </trkpt>
      <trkpt lat="49.7768" lon="2.35489">
        <ele>90.1</ele>
        <time>2023-10-11T12:43:11Z</time>
      </trkpt>
      <trkpt lat="49.7768" lon="2.35487">
        <ele>90.1</ele>
        <time>2023-10-11T12:43:12Z</time>
      </trkpt>
      <trkpt lat="49.77681" lon="2.35486">
        <ele>90.1</ele>
        <time>2023-10-11T12:43:13Z</time>
      </trkpt>
      <trkpt lat="49.77681" lon="2.35484">
        <ele>90.1</ele>
        <time>2023-10-11T12:43:14Z</time>
      </trkpt>
      <trkpt lat="49.77681" lon="2.35483">
        <ele>90.1</ele>
        <time>2023-10-11T12:43:15Z</time>
      </trkpt>
      <trkpt lat="49.77682" lon="2.35481">
        <ele>90.1</ele>
        <time>2023-10-11T12:43:16Z</time>
      </trkpt>
      <trkpt lat="49.77682" lon="2.35479">
        <ele>90.1</ele>
        <time>2023-10-11T12:43:18Z</time>
      </trkpt>
      <trkpt lat="49.77682" lon="2.35478">
        <ele>90.1</ele>
        <time>2023-10-11T12:43:19Z</time>
      </trkpt>
      <trkpt lat="49.77682" lon="2.35476">
        <ele>90.1</ele>
        <time>2023-10-11T12:43:20Z</time>
      </trkpt>
      <trkpt lat="49.77683" lon="2.35473">
        <ele>90.1</ele>
        <time>2023-10-11T12:43:21Z</time>
      </trkpt>
      <trkpt lat="49.77683" lon="2.35471">
        <ele>90.1</ele>
        <time>2023-10-11T12:43:23Z</time>
      </trkpt>
      <trkpt lat="49.77683" lon="2.3547">
        <ele>90.1</ele>
        <time>2023-10-11T12:43:24Z</time>
      </trkpt>
      <trkpt lat="49.77683" lon="2.35469">
        <ele>90.1</ele>
        <time>2023-10-11T12:43:25Z</time>
      </trkpt>
      <trkpt lat="49.77683" lon="2.35467">
        <ele>90.1</ele>
        <time>2023-10-11T12:43:26Z</time>
      </trkpt>
      <trkpt lat="49.77684" lon="2.35464">
        <ele>90.2</ele>
        <time>2023-10-11T12:43:27Z</time>
      </trkpt>
      <trkpt lat="49.77684" lon="2.35462">
        <ele>90.2</ele>
        <time>2023-10-11T12:43:29Z</time>
      </trkpt>
      <trkpt lat="49.77685" lon="2.3546">
        <ele>90.2</ele>
        <time>2023-10-11T12:43:31Z</time>
      </trkpt>
      <trkpt lat="49.77685" lon="2.35457">
        <ele>90.2</ele>
        <time>2023-10-11T12:43:32Z</time>
      </trkpt>
      <trkpt lat="49.77686" lon="2.35455">
        <ele>90.2</ele>
        <time>2023-10-11T12:43:34Z</time>
      </trkpt>
      <trkpt lat="49.77686" lon="2.35453">
        <ele>90.2</ele>
        <time>2023-10-11T12:43:35Z</time>
      </trkpt>
      <trkpt lat="49.77686" lon="2.35452">
        <ele>90.2</ele>
        <time>2023-10-11T12:43:36Z</time>
      </trkpt>
      <trkpt lat="49.77687" lon="2.35449">
        <ele>90.2</ele>
        <time>2023-10-11T12:43:37Z</time>
      </trkpt>
      <trkpt lat="49.77687" lon="2.35448">
        <ele>90.2</ele>
        <time>2023-10-11T12:43:39Z</time>
      </trkpt>
      <trkpt lat="49.77687" lon="2.35446">
        <ele>90.2</ele>
        <time>2023-10-11T12:43:40Z</time>
      </trkpt>
      <trkpt lat="49.77687" lon="2.35445">
        <ele>90.2</ele>
        <time>2023-10-11T12:43:41Z</time>
      </trkpt>
      <trkpt lat="49.77688" lon="2.35443">
        <ele>90.3</ele>
        <time>2023-10-11T12:43:42Z</time>
      </trkpt>
      <trkpt lat="49.77688" lon="2.35442">
        <ele>90.3</ele>
        <time>2023-10-11T12:43:43Z</time>
      </trkpt>
      <trkpt lat="49.77688" lon="2.35441">
        <ele>90.3</ele>
        <time>2023-10-11T12:43:44Z</time>
      </trkpt>
      <trkpt lat="49.77689" lon="2.35439">
        <ele>90.3</ele>
        <time>2023-10-11T12:43:45Z</time>
      </trkpt>
      <trkpt lat="49.77689" lon="2.35438">
        <ele>90.3</ele>
        <time>2023-10-11T12:43:46Z</time>
      </trkpt>
      <trkpt lat="49.77689" lon="2.35437">
        <ele>90.3</ele>
        <time>2023-10-11T12:43:47Z</time>
      </trkpt>
      <trkpt lat="49.7769" lon="2.35435">
        <ele>90.3</ele>
        <time>2023-10-11T12:43:48Z</time>
      </trkpt>
      <trkpt lat="49.7769" lon="2.35434">
        <ele>90.3</ele>
        <time>2023-10-11T12:43:49Z</time>
      </trkpt>
      <trkpt lat="49.7769" lon="2.35433">
        <ele>90.3</ele>
        <time>2023-10-11T12:43:50Z</time>
      </trkpt>
      <trkpt lat="49.77691" lon="2.35431">
        <ele>90.3</ele>
        <time>2023-10-11T12:43:51Z</time>
      </trkpt>
      <trkpt lat="49.77691" lon="2.3543">
        <ele>90.3</ele>
        <time>2023-10-11T12:43:52Z</time>
      </trkpt>
      <trkpt lat="49.77692" lon="2.35429">
        <ele>90.3</ele>
        <time>2023-10-11T12:43:53Z</time>
      </trkpt>
      <trkpt lat="49.77692" lon="2.35427">
        <ele>90.4</ele>
        <time>2023-10-11T12:43:54Z</time>
      </trkpt>
      <trkpt lat="49.77692" lon="2.35426">
        <ele>90.4</ele>
        <time>2023-10-11T12:43:55Z</time>
      </trkpt>
      <trkpt lat="49.77693" lon="2.35424">
        <ele>90.4</ele>
        <time>2023-10-11T12:43:56Z</time>
      </trkpt>
      <trkpt lat="49.77693" lon="2.35423">
        <ele>90.4</ele>
        <time>2023-10-11T12:43:57Z</time>
      </trkpt>
      <trkpt lat="49.77693" lon="2.35422">
        <ele>90.4</ele>
        <time>2023-10-11T12:43:58Z</time>
      </trkpt>
      <trkpt lat="49.77694" lon="2.3542">
        <ele>90.4</ele>
        <time>2023-10-11T12:43:59Z</time>
      </trkpt>
      <trkpt lat="49.77694" lon="2.35419">
        <ele>90.4</ele>
        <time>2023-10-11T12:44:00Z</time>
      </trkpt>
      <trkpt lat="49.77695" lon="2.35416">
        <ele>90.4</ele>
        <time>2023-10-11T12:44:01Z</time>
      </trkpt>
      <trkpt lat="49.77695" lon="2.35414">
        <ele>90.5</ele>
        <time>2023-10-11T12:44:03Z</time>
      </trkpt>
      <trkpt lat="49.77695" lon="2.35413">
        <ele>90.5</ele>
        <time>2023-10-11T12:44:04Z</time>
      </trkpt>
      <trkpt lat="49.77696" lon="2.35412">
        <ele>90.5</ele>
        <time>2023-10-11T12:44:05Z</time>
      </trkpt>
      <trkpt lat="49.77696" lon="2.35411">
        <ele>90.5</ele>
        <time>2023-10-11T12:44:06Z</time>
      </trkpt>
      <trkpt lat="49.77696" lon="2.3541">
        <ele>90.5</ele>
        <time>2023-10-11T12:44:07Z</time>
      </trkpt>
      <trkpt lat="49.77696" lon="2.35408">
        <ele>90.5</ele>
        <time>2023-10-11T12:44:08Z</time>
      </trkpt>
      <trkpt lat="49.77697" lon="2.35407">
        <ele>90.6</ele>
        <time>2023-10-11T12:44:09Z</time>
      </trkpt>
      <trkpt lat="49.77697" lon="2.35404">
        <ele>90.6</ele>
        <time>2023-10-11T12:44:10Z</time>
      </trkpt>
      <trkpt lat="49.77698" lon="2.35403">
        <ele>90.6</ele>
        <time>2023-10-11T12:44:12Z</time>
      </trkpt>
      <trkpt lat="49.77698" lon="2.35401">
        <ele>90.6</ele>
        <time>2023-10-11T12:44:13Z</time>
      </trkpt>
      <trkpt lat="49.77698" lon="2.354">
        <ele>90.6</ele>
        <time>2023-10-11T12:44:14Z</time>
      </trkpt>
      <trkpt lat="49.77698" lon="2.35399">
        <ele>90.7</ele>
        <time>2023-10-11T12:44:15Z</time>
      </trkpt>
      <trkpt lat="49.77698" lon="2.35397">
        <ele>90.7</ele>
        <time>2023-10-11T12:44:16Z</time>
      </trkpt>
      <trkpt lat="49.77698" lon="2.35396">
        <ele>90.7</ele>
        <time>2023-10-11T12:44:17Z</time>
      </trkpt>
      <trkpt lat="49.77698" lon="2.35394">
        <ele>90.7</ele>
        <time>2023-10-11T12:44:18Z</time>
      </trkpt>
      <trkpt lat="49.77699" lon="2.35393">
        <ele>90.7</ele>
        <time>2023-10-11T12:44:19Z</time>
      </trkpt>
      <trkpt lat="49.77699" lon="2.35392">
        <ele>90.7</ele>
        <time>2023-10-11T12:44:20Z</time>
      </trkpt>
      <trkpt lat="49.77699" lon="2.3539">
        <ele>90.8</ele>
        <time>2023-10-11T12:44:21Z</time>
      </trkpt>
      <trkpt lat="49.77699" lon="2.35389">
        <ele>90.8</ele>
        <time>2023-10-11T12:44:22Z</time>
      </trkpt>
      <trkpt lat="49.777" lon="2.35387">
        <ele>90.8</ele>
        <time>2023-10-11T12:44:23Z</time>
      </trkpt>
      <trkpt lat="49.777" lon="2.35386">
        <ele>90.8</ele>
        <time>2023-10-11T12:44:24Z</time>
      </trkpt>
      <trkpt lat="49.777" lon="2.35385">
        <ele>90.8</ele>
        <time>2023-10-11T12:44:25Z</time>
      </trkpt>
      <trkpt lat="49.777" lon="2.35383">
        <ele>90.8</ele>
        <time>2023-10-11T12:44:26Z</time>
      </trkpt>
      <trkpt lat="49.777" lon="2.35382">
        <ele>90.9</ele>
        <time>2023-10-11T12:44:27Z</time>
      </trkpt>
      <trkpt lat="49.77701" lon="2.3538">
        <ele>90.9</ele>
        <time>2023-10-11T12:44:28Z</time>
      </trkpt>
      <trkpt lat="49.77701" lon="2.35379">
        <ele>90.9</ele>
        <time>2023-10-11T12:44:29Z</time>
      </trkpt>
      <trkpt lat="49.77701" lon="2.35377">
        <ele>90.9</ele>
        <time>2023-10-11T12:44:30Z</time>
      </trkpt>
      <trkpt lat="49.77701" lon="2.35375">
        <ele>90.9</ele>
        <time>2023-10-11T12:44:31Z</time>
      </trkpt>
      <trkpt lat="49.77702" lon="2.35373">
        <ele>91</ele>
        <time>2023-10-11T12:44:32Z</time>
      </trkpt>
      <trkpt lat="49.77702" lon="2.35372">
        <ele>91</ele>
        <time>2023-10-11T12:44:33Z</time>
      </trkpt>
      <trkpt lat="49.77702" lon="2.3537">
        <ele>91</ele>
        <time>2023-10-11T12:44:34Z</time>
      </trkpt>
      <trkpt lat="49.77702" lon="2.35368">
        <ele>91</ele>
        <time>2023-10-11T12:44:35Z</time>
      </trkpt>
      <trkpt lat="49.77703" lon="2.35366">
        <ele>91.1</ele>
        <time>2023-10-11T12:44:36Z</time>
      </trkpt>
      <trkpt lat="49.77703" lon="2.35365">
        <ele>91.1</ele>
        <time>2023-10-11T12:44:37Z</time>
      </trkpt>
      <trkpt lat="49.77703" lon="2.35363">
        <ele>91.1</ele>
        <time>2023-10-11T12:44:38Z</time>
      </trkpt>
      <trkpt lat="49.77703" lon="2.35362">
        <ele>91.1</ele>
        <time>2023-10-11T12:44:39Z</time>
      </trkpt>
      <trkpt lat="49.77703" lon="2.3536">
        <ele>91.1</ele>
        <time>2023-10-11T12:44:40Z</time>
      </trkpt>
      <trkpt lat="49.77704" lon="2.35358">
        <ele>91.2</ele>
        <time>2023-10-11T12:44:41Z</time>
      </trkpt>
      <trkpt lat="49.77704" lon="2.35357">
        <ele>91.2</ele>
        <time>2023-10-11T12:44:42Z</time>
      </trkpt>
      <trkpt lat="49.77704" lon="2.35355">
        <ele>91.2</ele>
        <time>2023-10-11T12:44:43Z</time>
      </trkpt>
      <trkpt lat="49.77704" lon="2.35354">
        <ele>91.3</ele>
        <time>2023-10-11T12:44:44Z</time>
      </trkpt>
      <trkpt lat="49.77704" lon="2.35352">
        <ele>91.3</ele>
        <time>2023-10-11T12:44:45Z</time>
      </trkpt>
      <trkpt lat="49.77705" lon="2.35351">
        <ele>91.3</ele>
        <time>2023-10-11T12:44:46Z</time>
      </trkpt>
      <trkpt lat="49.77705" lon="2.35349">
        <ele>91.3</ele>
        <time>2023-10-11T12:44:47Z</time>
      </trkpt>
      <trkpt lat="49.77705" lon="2.35347">
        <ele>91.4</ele>
        <time>2023-10-11T12:44:48Z</time>
      </trkpt>
      <trkpt lat="49.77705" lon="2.35345">
        <ele>91.4</ele>
        <time>2023-10-11T12:44:49Z</time>
      </trkpt>
      <trkpt lat="49.77705" lon="2.35344">
        <ele>91.4</ele>
        <time>2023-10-11T12:44:50Z</time>
      </trkpt>
      <trkpt lat="49.77705" lon="2.35342">
        <ele>91.5</ele>
        <time>2023-10-11T12:44:51Z</time>
      </trkpt>
      <trkpt lat="49.77705" lon="2.35338">
        <ele>91.5</ele>
        <time>2023-10-11T12:44:52Z</time>
      </trkpt>
      <trkpt lat="49.77705" lon="2.35336">
        <ele>91.5</ele>
        <time>2023-10-11T12:44:54Z</time>
      </trkpt>
      <trkpt lat="49.77705" lon="2.35335">
        <ele>91.6</ele>
        <time>2023-10-11T12:44:55Z</time>
      </trkpt>
      <trkpt lat="49.77705" lon="2.35333">
        <ele>91.6</ele>
        <time>2023-10-11T12:44:56Z</time>
      </trkpt>
      <trkpt lat="49.77705" lon="2.35331">
        <ele>91.6</ele>
        <time>2023-10-11T12:44:57Z</time>
      </trkpt>
      <trkpt lat="49.77705" lon="2.35329">
        <ele>91.7</ele>
        <time>2023-10-11T12:44:58Z</time>
      </trkpt>
      <trkpt lat="49.77705" lon="2.35327">
        <ele>91.7</ele>
        <time>2023-10-11T12:44:59Z</time>
      </trkpt>
      <trkpt lat="49.77705" lon="2.35326">
        <ele>91.7</ele>
        <time>2023-10-11T12:45:00Z</time>
      </trkpt>
      <trkpt lat="49.77705" lon="2.35324">
        <ele>91.8</ele>
        <time>2023-10-11T12:45:01Z</time>
      </trkpt>
      <trkpt lat="49.77705" lon="2.35321">
        <ele>91.8</ele>
        <time>2023-10-11T12:45:02Z</time>
      </trkpt>
      <trkpt lat="49.77705" lon="2.3532">
        <ele>91.8</ele>
        <time>2023-10-11T12:45:04Z</time>
      </trkpt>
      <trkpt lat="49.77705" lon="2.35318">
        <ele>91.9</ele>
        <time>2023-10-11T12:45:05Z</time>
      </trkpt>
      <trkpt lat="49.77705" lon="2.35317">
        <ele>91.9</ele>
        <time>2023-10-11T12:45:06Z</time>
      </trkpt>
      <trkpt lat="49.77705" lon="2.35316">
        <ele>91.9</ele>
        <time>2023-10-11T12:45:07Z</time>
      </trkpt>
      <trkpt lat="49.77706" lon="2.35313">
        <ele>91.9</ele>
        <time>2023-10-11T12:45:08Z</time>
      </trkpt>
      <trkpt lat="49.77706" lon="2.35312">
        <ele>92</ele>
        <time>2023-10-11T12:45:10Z</time>
      </trkpt>
      <trkpt lat="49.77706" lon="2.35311">
        <ele>92</ele>
        <time>2023-10-11T12:45:11Z</time>
      </trkpt>
      <trkpt lat="49.77706" lon="2.35309">
        <ele>92</ele>
        <time>2023-10-11T12:45:12Z</time>
      </trkpt>
      <trkpt lat="49.77706" lon="2.35308">
        <ele>92</ele>
        <time>2023-10-11T12:45:13Z</time>
      </trkpt>
      <trkpt lat="49.77706" lon="2.35307">
        <ele>92</ele>
        <time>2023-10-11T12:45:14Z</time>
      </trkpt>
      <trkpt lat="49.77706" lon="2.35305">
        <ele>92.1</ele>
        <time>2023-10-11T12:45:15Z</time>
      </trkpt>
      <trkpt lat="49.77706" lon="2.35304">
        <ele>92.1</ele>
        <time>2023-10-11T12:45:16Z</time>
      </trkpt>
      <trkpt lat="49.77706" lon="2.35303">
        <ele>92.1</ele>
        <time>2023-10-11T12:45:17Z</time>
      </trkpt>
      <trkpt lat="49.77706" lon="2.353">
        <ele>92.2</ele>
        <time>2023-10-11T12:45:18Z</time>
      </trkpt>
      <trkpt lat="49.77706" lon="2.35299">
        <ele>92.2</ele>
        <time>2023-10-11T12:45:19Z</time>
      </trkpt>
      <trkpt lat="49.77707" lon="2.35298">
        <ele>92.2</ele>
        <time>2023-10-11T12:45:20Z</time>
      </trkpt>
      <trkpt lat="49.77707" lon="2.35297">
        <ele>92.2</ele>
        <time>2023-10-11T12:45:21Z</time>
      </trkpt>
      <trkpt lat="49.77707" lon="2.35296">
        <ele>92.2</ele>
        <time>2023-10-11T12:45:22Z</time>
      </trkpt>
      <trkpt lat="49.77707" lon="2.35294">
        <ele>92.3</ele>
        <time>2023-10-11T12:45:23Z</time>
      </trkpt>
      <trkpt lat="49.77707" lon="2.35291">
        <ele>92.3</ele>
        <time>2023-10-11T12:45:24Z</time>
      </trkpt>
      <trkpt lat="49.77708" lon="2.3529">
        <ele>92.3</ele>
        <time>2023-10-11T12:45:26Z</time>
      </trkpt>
      <trkpt lat="49.77708" lon="2.35288">
        <ele>92.4</ele>
        <time>2023-10-11T12:45:27Z</time>
      </trkpt>
      <trkpt lat="49.77708" lon="2.35287">
        <ele>92.4</ele>
        <time>2023-10-11T12:45:28Z</time>
      </trkpt>
      <trkpt lat="49.77708" lon="2.35285">
        <ele>92.4</ele>
        <time>2023-10-11T12:45:29Z</time>
      </trkpt>
      <trkpt lat="49.77708" lon="2.35284">
        <ele>92.4</ele>
        <time>2023-10-11T12:45:30Z</time>
      </trkpt>
      <trkpt lat="49.77708" lon="2.35282">
        <ele>92.5</ele>
        <time>2023-10-11T12:45:31Z</time>
      </trkpt>
      <trkpt lat="49.77709" lon="2.3528">
        <ele>92.5</ele>
        <time>2023-10-11T12:45:32Z</time>
      </trkpt>
      <trkpt lat="49.77709" lon="2.35279">
        <ele>92.5</ele>
        <time>2023-10-11T12:45:33Z</time>
      </trkpt>
      <trkpt lat="49.77709" lon="2.35277">
        <ele>92.5</ele>
        <time>2023-10-11T12:45:34Z</time>
      </trkpt>
      <trkpt lat="49.77709" lon="2.35276">
        <ele>92.6</ele>
        <time>2023-10-11T12:45:35Z</time>
      </trkpt>
      <trkpt lat="49.77709" lon="2.35274">
        <ele>92.6</ele>
        <time>2023-10-11T12:45:36Z</time>
      </trkpt>
      <trkpt lat="49.7771" lon="2.35271">
        <ele>92.7</ele>
        <time>2023-10-11T12:45:37Z</time>
      </trkpt>
      <trkpt lat="49.7771" lon="2.3527">
        <ele>92.7</ele>
        <time>2023-10-11T12:45:39Z</time>
      </trkpt>
      <trkpt lat="49.7771" lon="2.35269">
        <ele>92.7</ele>
        <time>2023-10-11T12:45:40Z</time>
      </trkpt>
      <trkpt lat="49.7771" lon="2.35267">
        <ele>92.7</ele>
        <time>2023-10-11T12:45:41Z</time>
      </trkpt>
      <trkpt lat="49.77711" lon="2.35265">
        <ele>92.8</ele>
        <time>2023-10-11T12:45:42Z</time>
      </trkpt>
      <trkpt lat="49.77711" lon="2.35264">
        <ele>92.8</ele>
        <time>2023-10-11T12:45:43Z</time>
      </trkpt>
      <trkpt lat="49.77711" lon="2.35262">
        <ele>92.8</ele>
        <time>2023-10-11T12:45:44Z</time>
      </trkpt>
      <trkpt lat="49.77711" lon="2.35261">
        <ele>92.8</ele>
        <time>2023-10-11T12:45:45Z</time>
      </trkpt>
      <trkpt lat="49.77711" lon="2.35259">
        <ele>92.9</ele>
        <time>2023-10-11T12:45:46Z</time>
      </trkpt>
      <trkpt lat="49.77712" lon="2.35257">
        <ele>92.9</ele>
        <time>2023-10-11T12:45:47Z</time>
      </trkpt>
      <trkpt lat="49.77712" lon="2.35256">
        <ele>92.9</ele>
        <time>2023-10-11T12:45:48Z</time>
      </trkpt>
      <trkpt lat="49.77712" lon="2.35254">
        <ele>93</ele>
        <time>2023-10-11T12:45:49Z</time>
      </trkpt>
      <trkpt lat="49.77713" lon="2.35253">
        <ele>93</ele>
        <time>2023-10-11T12:45:50Z</time>
      </trkpt>
      <trkpt lat="49.77713" lon="2.35251">
        <ele>93</ele>
        <time>2023-10-11T12:45:51Z</time>
      </trkpt>
      <trkpt lat="49.77713" lon="2.35249">
        <ele>93.1</ele>
        <time>2023-10-11T12:45:52Z</time>
      </trkpt>
      <trkpt lat="49.77714" lon="2.35248">
        <ele>93.1</ele>
        <time>2023-10-11T12:45:53Z</time>
      </trkpt>
      <trkpt lat="49.77714" lon="2.35246">
        <ele>93.1</ele>
        <time>2023-10-11T12:45:54Z</time>
      </trkpt>
      <trkpt lat="49.77714" lon="2.35243">
        <ele>93.2</ele>
        <time>2023-10-11T12:45:55Z</time>
      </trkpt>
      <trkpt lat="49.77714" lon="2.35241">
        <ele>93.2</ele>
        <time>2023-10-11T12:45:57Z</time>
      </trkpt>
      <trkpt lat="49.77715" lon="2.3524">
        <ele>93.3</ele>
        <time>2023-10-11T12:45:58Z</time>
      </trkpt>
      <trkpt lat="49.77715" lon="2.35238">
        <ele>93.3</ele>
        <time>2023-10-11T12:45:59Z</time>
      </trkpt>
      <trkpt lat="49.77715" lon="2.35236">
        <ele>93.4</ele>
        <time>2023-10-11T12:46:00Z</time>
      </trkpt>
      <trkpt lat="49.77715" lon="2.35235">
        <ele>93.4</ele>
        <time>2023-10-11T12:46:01Z</time>
      </trkpt>
      <trkpt lat="49.77716" lon="2.35233">
        <ele>93.4</ele>
        <time>2023-10-11T12:46:02Z</time>
      </trkpt>
      <trkpt lat="49.77716" lon="2.35231">
        <ele>93.5</ele>
        <time>2023-10-11T12:46:03Z</time>
      </trkpt>
      <trkpt lat="49.77716" lon="2.3523">
        <ele>93.5</ele>
        <time>2023-10-11T12:46:04Z</time>
      </trkpt>
      <trkpt lat="49.77716" lon="2.35228">
        <ele>93.5</ele>
        <time>2023-10-11T12:46:05Z</time>
      </trkpt>
      <trkpt lat="49.77716" lon="2.35227">
        <ele>93.6</ele>
        <time>2023-10-11T12:46:06Z</time>
      </trkpt>
      <trkpt lat="49.77717" lon="2.35225">
        <ele>93.6</ele>
        <time>2023-10-11T12:46:07Z</time>
      </trkpt>
      <trkpt lat="49.77717" lon="2.35224">
        <ele>93.7</ele>
        <time>2023-10-11T12:46:08Z</time>
      </trkpt>
      <trkpt lat="49.77717" lon="2.35223">
        <ele>93.7</ele>
        <time>2023-10-11T12:46:09Z</time>
      </trkpt>
      <trkpt lat="49.77717" lon="2.35221">
        <ele>93.7</ele>
        <time>2023-10-11T12:46:10Z</time>
      </trkpt>
      <trkpt lat="49.77717" lon="2.3522">
        <ele>93.8</ele>
        <time>2023-10-11T12:46:11Z</time>
      </trkpt>
      <trkpt lat="49.77718" lon="2.35218">
        <ele>93.8</ele>
        <time>2023-10-11T12:46:12Z</time>
      </trkpt>
      <trkpt lat="49.77718" lon="2.35217">
        <ele>93.8</ele>
        <time>2023-10-11T12:46:13Z</time>
      </trkpt>
      <trkpt lat="49.77718" lon="2.35215">
        <ele>93.9</ele>
        <time>2023-10-11T12:46:14Z</time>
      </trkpt>
      <trkpt lat="49.77718" lon="2.35214">
        <ele>93.9</ele>
        <time>2023-10-11T12:46:15Z</time>
      </trkpt>
      <trkpt lat="49.77718" lon="2.35212">
        <ele>93.9</ele>
        <time>2023-10-11T12:46:16Z</time>
      </trkpt>
      <trkpt lat="49.77718" lon="2.3521">
        <ele>94</ele>
        <time>2023-10-11T12:46:17Z</time>
      </trkpt>
      <trkpt lat="49.77718" lon="2.35209">
        <ele>94</ele>
        <time>2023-10-11T12:46:18Z</time>
      </trkpt>
      <trkpt lat="49.77719" lon="2.35207">
        <ele>94</ele>
        <time>2023-10-11T12:46:19Z</time>
      </trkpt>
      <trkpt lat="49.77719" lon="2.35206">
        <ele>94.1</ele>
        <time>2023-10-11T12:46:20Z</time>
      </trkpt>
      <trkpt lat="49.77719" lon="2.35205">
        <ele>94.1</ele>
        <time>2023-10-11T12:46:21Z</time>
      </trkpt>
      <trkpt lat="49.77719" lon="2.35203">
        <ele>94.1</ele>
        <time>2023-10-11T12:46:22Z</time>
      </trkpt>
      <trkpt lat="49.77719" lon="2.35202">
        <ele>94.2</ele>
        <time>2023-10-11T12:46:23Z</time>
      </trkpt>
      <trkpt lat="49.77719" lon="2.35201">
        <ele>94.2</ele>
        <time>2023-10-11T12:46:24Z</time>
      </trkpt>
      <trkpt lat="49.77719" lon="2.35199">
        <ele>94.2</ele>
        <time>2023-10-11T12:46:25Z</time>
      </trkpt>
      <trkpt lat="49.7772" lon="2.35198">
        <ele>94.3</ele>
        <time>2023-10-11T12:46:26Z</time>
      </trkpt>
      <trkpt lat="49.7772" lon="2.35197">
        <ele>94.3</ele>
        <time>2023-10-11T12:46:27Z</time>
      </trkpt>
      <trkpt lat="49.7772" lon="2.35195">
        <ele>94.3</ele>
        <time>2023-10-11T12:46:28Z</time>
      </trkpt>
      <trkpt lat="49.7772" lon="2.35194">
        <ele>94.4</ele>
        <time>2023-10-11T12:46:29Z</time>
      </trkpt>
      <trkpt lat="49.7772" lon="2.35193">
        <ele>94.4</ele>
        <time>2023-10-11T12:46:30Z</time>
      </trkpt>
      <trkpt lat="49.77721" lon="2.35189">
        <ele>94.5</ele>
        <time>2023-10-11T12:46:31Z</time>
      </trkpt>
      <trkpt lat="49.77721" lon="2.35188">
        <ele>94.5</ele>
        <time>2023-10-11T12:46:33Z</time>
      </trkpt>
      <trkpt lat="49.77721" lon="2.35186">
        <ele>94.5</ele>
        <time>2023-10-11T12:46:34Z</time>
      </trkpt>
      <trkpt lat="49.77721" lon="2.35185">
        <ele>94.6</ele>
        <time>2023-10-11T12:46:35Z</time>
      </trkpt>
      <trkpt lat="49.77721" lon="2.35183">
        <ele>94.6</ele>
        <time>2023-10-11T12:46:36Z</time>
      </trkpt>
      <trkpt lat="49.77722" lon="2.35182">
        <ele>94.6</ele>
        <time>2023-10-11T12:46:37Z</time>
      </trkpt>
      <trkpt lat="49.77722" lon="2.3518">
        <ele>94.7</ele>
        <time>2023-10-11T12:46:38Z</time>
      </trkpt>
      <trkpt lat="49.77722" lon="2.35178">
        <ele>94.8</ele>
        <time>2023-10-11T12:46:39Z</time>
      </trkpt>
      <trkpt lat="49.77722" lon="2.35176">
        <ele>94.8</ele>
        <time>2023-10-11T12:46:41Z</time>
      </trkpt>
      <trkpt lat="49.77722" lon="2.35175">
        <ele>94.8</ele>
        <time>2023-10-11T12:46:42Z</time>
      </trkpt>
      <trkpt lat="49.77723" lon="2.35173">
        <ele>94.9</ele>
        <time>2023-10-11T12:46:43Z</time>
      </trkpt>
      <trkpt lat="49.77723" lon="2.35172">
        <ele>94.9</ele>
        <time>2023-10-11T12:46:44Z</time>
      </trkpt>
      <trkpt lat="49.77723" lon="2.35168">
        <ele>95</ele>
        <time>2023-10-11T12:46:45Z</time>
      </trkpt>
      <trkpt lat="49.77723" lon="2.35167">
        <ele>95</ele>
        <time>2023-10-11T12:46:47Z</time>
      </trkpt>
      <trkpt lat="49.77723" lon="2.35165">
        <ele>95.1</ele>
        <time>2023-10-11T12:46:48Z</time>
      </trkpt>
      <trkpt lat="49.77723" lon="2.35163">
        <ele>95.1</ele>
        <time>2023-10-11T12:46:49Z</time>
      </trkpt>
      <trkpt lat="49.77723" lon="2.35162">
        <ele>95.2</ele>
        <time>2023-10-11T12:46:50Z</time>
      </trkpt>
      <trkpt lat="49.77723" lon="2.35158">
        <ele>95.2</ele>
        <time>2023-10-11T12:46:51Z</time>
      </trkpt>
      <trkpt lat="49.77723" lon="2.35157">
        <ele>95.3</ele>
        <time>2023-10-11T12:46:52Z</time>
      </trkpt>
      <trkpt lat="49.77724" lon="2.35155">
        <ele>95.3</ele>
        <time>2023-10-11T12:46:54Z</time>
      </trkpt>
      <trkpt lat="49.77724" lon="2.35154">
        <ele>95.4</ele>
        <time>2023-10-11T12:46:55Z</time>
      </trkpt>
      <trkpt lat="49.77724" lon="2.35152">
        <ele>95.4</ele>
        <time>2023-10-11T12:46:56Z</time>
      </trkpt>
      <trkpt lat="49.77724" lon="2.35151">
        <ele>95.4</ele>
        <time>2023-10-11T12:46:57Z</time>
      </trkpt>
      <trkpt lat="49.77723" lon="2.35149">
        <ele>95.5</ele>
        <time>2023-10-11T12:46:58Z</time>
      </trkpt>
      <trkpt lat="49.77723" lon="2.35148">
        <ele>95.5</ele>
        <time>2023-10-11T12:46:59Z</time>
      </trkpt>
      <trkpt lat="49.77723" lon="2.35147">
        <ele>95.5</ele>
        <time>2023-10-11T12:47:00Z</time>
      </trkpt>
      <trkpt lat="49.77723" lon="2.35144">
        <ele>95.6</ele>
        <time>2023-10-11T12:47:01Z</time>
      </trkpt>
      <trkpt lat="49.77723" lon="2.35143">
        <ele>95.6</ele>
        <time>2023-10-11T12:47:03Z</time>
      </trkpt>
      <trkpt lat="49.77723" lon="2.35141">
        <ele>95.7</ele>
        <time>2023-10-11T12:47:04Z</time>
      </trkpt>
      <trkpt lat="49.77723" lon="2.3514">
        <ele>95.7</ele>
        <time>2023-10-11T12:47:05Z</time>
      </trkpt>
      <trkpt lat="49.77723" lon="2.35137">
        <ele>95.8</ele>
        <time>2023-10-11T12:47:06Z</time>
      </trkpt>
      <trkpt lat="49.77723" lon="2.35136">
        <ele>95.8</ele>
        <time>2023-10-11T12:47:08Z</time>
      </trkpt>
      <trkpt lat="49.77723" lon="2.35135">
        <ele>95.8</ele>
        <time>2023-10-11T12:47:09Z</time>
      </trkpt>
      <trkpt lat="49.77723" lon="2.35133">
        <ele>95.9</ele>
        <time>2023-10-11T12:47:10Z</time>
      </trkpt>
      <trkpt lat="49.77723" lon="2.35132">
        <ele>95.9</ele>
        <time>2023-10-11T12:47:11Z</time>
      </trkpt>
      <trkpt lat="49.77723" lon="2.35131">
        <ele>95.9</ele>
        <time>2023-10-11T12:47:12Z</time>
      </trkpt>
      <trkpt lat="49.77723" lon="2.35129">
        <ele>96</ele>
        <time>2023-10-11T12:47:13Z</time>
      </trkpt>
      <trkpt lat="49.77723" lon="2.35128">
        <ele>96</ele>
        <time>2023-10-11T12:47:14Z</time>
      </trkpt>
      <trkpt lat="49.77722" lon="2.35127">
        <ele>96</ele>
        <time>2023-10-11T12:47:15Z</time>
      </trkpt>
      <trkpt lat="49.77722" lon="2.35125">
        <ele>96.1</ele>
        <time>2023-10-11T12:47:16Z</time>
      </trkpt>
      <trkpt lat="49.77722" lon="2.35124">
        <ele>96.1</ele>
        <time>2023-10-11T12:47:17Z</time>
      </trkpt>
      <trkpt lat="49.77722" lon="2.35123">
        <ele>96.1</ele>
        <time>2023-10-11T12:47:18Z</time>
      </trkpt>
      <trkpt lat="49.77722" lon="2.35122">
        <ele>96.2</ele>
        <time>2023-10-11T12:47:19Z</time>
      </trkpt>
      <trkpt lat="49.77722" lon="2.35121">
        <ele>96.2</ele>
        <time>2023-10-11T12:47:20Z</time>
      </trkpt>
      <trkpt lat="49.77722" lon="2.35119">
        <ele>96.2</ele>
        <time>2023-10-11T12:47:21Z</time>
      </trkpt>
      <trkpt lat="49.77722" lon="2.35118">
        <ele>96.2</ele>
        <time>2023-10-11T12:47:22Z</time>
      </trkpt>
      <trkpt lat="49.77722" lon="2.35116">
        <ele>96.3</ele>
        <time>2023-10-11T12:47:23Z</time>
      </trkpt>
      <trkpt lat="49.77721" lon="2.35115">
        <ele>96.3</ele>
        <time>2023-10-11T12:47:25Z</time>
      </trkpt>
      <trkpt lat="49.77721" lon="2.35113">
        <ele>96.4</ele>
        <time>2023-10-11T12:47:26Z</time>
      </trkpt>
      <trkpt lat="49.77721" lon="2.35112">
        <ele>96.4</ele>
        <time>2023-10-11T12:47:27Z</time>
      </trkpt>
      <trkpt lat="49.77721" lon="2.35111">
        <ele>96.4</ele>
        <time>2023-10-11T12:47:28Z</time>
      </trkpt>
      <trkpt lat="49.77721" lon="2.35109">
        <ele>96.5</ele>
        <time>2023-10-11T12:47:29Z</time>
      </trkpt>
      <trkpt lat="49.77721" lon="2.35108">
        <ele>96.5</ele>
        <time>2023-10-11T12:47:30Z</time>
      </trkpt>
      <trkpt lat="49.77721" lon="2.35107">
        <ele>96.5</ele>
        <time>2023-10-11T12:47:31Z</time>
      </trkpt>
      <trkpt lat="49.77721" lon="2.35105">
        <ele>96.6</ele>
        <time>2023-10-11T12:47:32Z</time>
      </trkpt>
      <trkpt lat="49.77721" lon="2.35104">
        <ele>96.6</ele>
        <time>2023-10-11T12:47:33Z</time>
      </trkpt>
      <trkpt lat="49.77721" lon="2.35103">
        <ele>96.7</ele>
        <time>2023-10-11T12:47:34Z</time>
      </trkpt>
      <trkpt lat="49.7772" lon="2.35101">
        <ele>96.7</ele>
        <time>2023-10-11T12:47:35Z</time>
      </trkpt>
      <trkpt lat="49.7772" lon="2.351">
        <ele>96.7</ele>
        <time>2023-10-11T12:47:36Z</time>
      </trkpt>
      <trkpt lat="49.7772" lon="2.35099">
        <ele>96.8</ele>
        <time>2023-10-11T12:47:37Z</time>
      </trkpt>
      <trkpt lat="49.7772" lon="2.35096">
        <ele>96.8</ele>
        <time>2023-10-11T12:47:38Z</time>
      </trkpt>
      <trkpt lat="49.7772" lon="2.35095">
        <ele>96.9</ele>
        <time>2023-10-11T12:47:40Z</time>
      </trkpt>
      <trkpt lat="49.77721" lon="2.35093">
        <ele>96.9</ele>
        <time>2023-10-11T12:47:41Z</time>
      </trkpt>
      <trkpt lat="49.77721" lon="2.35092">
        <ele>96.9</ele>
        <time>2023-10-11T12:47:42Z</time>
      </trkpt>
      <trkpt lat="49.77721" lon="2.35091">
        <ele>97</ele>
        <time>2023-10-11T12:47:43Z</time>
      </trkpt>
      <trkpt lat="49.77721" lon="2.35089">
        <ele>97</ele>
        <time>2023-10-11T12:47:44Z</time>
      </trkpt>
      <trkpt lat="49.77721" lon="2.35088">
        <ele>97</ele>
        <time>2023-10-11T12:47:45Z</time>
      </trkpt>
      <trkpt lat="49.77721" lon="2.35087">
        <ele>97.1</ele>
        <time>2023-10-11T12:47:46Z</time>
      </trkpt>
      <trkpt lat="49.77721" lon="2.35086">
        <ele>97.1</ele>
        <time>2023-10-11T12:47:47Z</time>
      </trkpt>
      <trkpt lat="49.77721" lon="2.35084">
        <ele>97.1</ele>
        <time>2023-10-11T12:47:48Z</time>
      </trkpt>
      <trkpt lat="49.77721" lon="2.35083">
        <ele>97.2</ele>
        <time>2023-10-11T12:47:49Z</time>
      </trkpt>
      <trkpt lat="49.77721" lon="2.35082">
        <ele>97.2</ele>
        <time>2023-10-11T12:47:50Z</time>
      </trkpt>
      <trkpt lat="49.77721" lon="2.35081">
        <ele>97.2</ele>
        <time>2023-10-11T12:47:51Z</time>
      </trkpt>
      <trkpt lat="49.77721" lon="2.35079">
        <ele>97.3</ele>
        <time>2023-10-11T12:47:52Z</time>
      </trkpt>
      <trkpt lat="49.77721" lon="2.35078">
        <ele>97.3</ele>
        <time>2023-10-11T12:47:53Z</time>
      </trkpt>
      <trkpt lat="49.77721" lon="2.35077">
        <ele>97.3</ele>
        <time>2023-10-11T12:47:54Z</time>
      </trkpt>
      <trkpt lat="49.77721" lon="2.35075">
        <ele>97.4</ele>
        <time>2023-10-11T12:47:55Z</time>
      </trkpt>
      <trkpt lat="49.77721" lon="2.35074">
        <ele>97.4</ele>
        <time>2023-10-11T12:47:56Z</time>
      </trkpt>
      <trkpt lat="49.77721" lon="2.35073">
        <ele>97.4</ele>
        <time>2023-10-11T12:47:57Z</time>
      </trkpt>
      <trkpt lat="49.77721" lon="2.35071">
        <ele>97.5</ele>
        <time>2023-10-11T12:47:58Z</time>
      </trkpt>
      <trkpt lat="49.77721" lon="2.3507">
        <ele>97.5</ele>
        <time>2023-10-11T12:47:59Z</time>
      </trkpt>
      <trkpt lat="49.77721" lon="2.35068">
        <ele>97.5</ele>
        <time>2023-10-11T12:48:00Z</time>
      </trkpt>
      <trkpt lat="49.77721" lon="2.35067">
        <ele>97.6</ele>
        <time>2023-10-11T12:48:01Z</time>
      </trkpt>
      <trkpt lat="49.77721" lon="2.35065">
        <ele>97.6</ele>
        <time>2023-10-11T12:48:02Z</time>
      </trkpt>
      <trkpt lat="49.77721" lon="2.35064">
        <ele>97.6</ele>
        <time>2023-10-11T12:48:03Z</time>
      </trkpt>
      <trkpt lat="49.77721" lon="2.35061">
        <ele>97.7</ele>
        <time>2023-10-11T12:48:04Z</time>
      </trkpt>
      <trkpt lat="49.77721" lon="2.3506">
        <ele>97.7</ele>
        <time>2023-10-11T12:48:05Z</time>
      </trkpt>
      <trkpt lat="49.77721" lon="2.35059">
        <ele>97.7</ele>
        <time>2023-10-11T12:48:06Z</time>
      </trkpt>
      <trkpt lat="49.77721" lon="2.35058">
        <ele>97.8</ele>
        <time>2023-10-11T12:48:07Z</time>
      </trkpt>
      <trkpt lat="49.77722" lon="2.35056">
        <ele>97.8</ele>
        <time>2023-10-11T12:48:08Z</time>
      </trkpt>
      <trkpt lat="49.77722" lon="2.35054">
        <ele>97.9</ele>
        <time>2023-10-11T12:48:10Z</time>
      </trkpt>
      <trkpt lat="49.77722" lon="2.35053">
        <ele>97.9</ele>
        <time>2023-10-11T12:48:11Z</time>
      </trkpt>
      <trkpt lat="49.77722" lon="2.35052">
        <ele>97.9</ele>
        <time>2023-10-11T12:48:12Z</time>
      </trkpt>
      <trkpt lat="49.77722" lon="2.35051">
        <ele>98</ele>
        <time>2023-10-11T12:48:13Z</time>
      </trkpt>
      <trkpt lat="49.77722" lon="2.35049">
        <ele>98</ele>
        <time>2023-10-11T12:48:14Z</time>
      </trkpt>
      <trkpt lat="49.77722" lon="2.35048">
        <ele>98</ele>
        <time>2023-10-11T12:48:15Z</time>
      </trkpt>
      <trkpt lat="49.77722" lon="2.35047">
        <ele>98.1</ele>
        <time>2023-10-11T12:48:16Z</time>
      </trkpt>
      <trkpt lat="49.77722" lon="2.35045">
        <ele>98.1</ele>
        <time>2023-10-11T12:48:17Z</time>
      </trkpt>
      <trkpt lat="49.77722" lon="2.35044">
        <ele>98.1</ele>
        <time>2023-10-11T12:48:18Z</time>
      </trkpt>
      <trkpt lat="49.77721" lon="2.35043">
        <ele>98.2</ele>
        <time>2023-10-11T12:48:19Z</time>
      </trkpt>
      <trkpt lat="49.77721" lon="2.35041">
        <ele>98.2</ele>
        <time>2023-10-11T12:48:20Z</time>
      </trkpt>
      <trkpt lat="49.77721" lon="2.35039">
        <ele>98.3</ele>
        <time>2023-10-11T12:48:21Z</time>
      </trkpt>
      <trkpt lat="49.77721" lon="2.35038">
        <ele>98.3</ele>
        <time>2023-10-11T12:48:22Z</time>
      </trkpt>
      <trkpt lat="49.77721" lon="2.35037">
        <ele>98.4</ele>
        <time>2023-10-11T12:48:24Z</time>
      </trkpt>
      <trkpt lat="49.77721" lon="2.35036">
        <ele>98.4</ele>
        <time>2023-10-11T12:48:25Z</time>
      </trkpt>
      <trkpt lat="49.77721" lon="2.35034">
        <ele>98.4</ele>
        <time>2023-10-11T12:48:26Z</time>
      </trkpt>
      <trkpt lat="49.7772" lon="2.35032">
        <ele>98.5</ele>
        <time>2023-10-11T12:48:27Z</time>
      </trkpt>
      <trkpt lat="49.7772" lon="2.3503">
        <ele>98.5</ele>
        <time>2023-10-11T12:48:29Z</time>
      </trkpt>
      <trkpt lat="49.7772" lon="2.35029">
        <ele>98.6</ele>
        <time>2023-10-11T12:48:30Z</time>
      </trkpt>
      <trkpt lat="49.7772" lon="2.35028">
        <ele>98.6</ele>
        <time>2023-10-11T12:48:31Z</time>
      </trkpt>
      <trkpt lat="49.7772" lon="2.35026">
        <ele>98.7</ele>
        <time>2023-10-11T12:48:32Z</time>
      </trkpt>
      <trkpt lat="49.7772" lon="2.35025">
        <ele>98.7</ele>
        <time>2023-10-11T12:48:34Z</time>
      </trkpt>
      <trkpt lat="49.7772" lon="2.35023">
        <ele>98.8</ele>
        <time>2023-10-11T12:48:35Z</time>
      </trkpt>
      <trkpt lat="49.7772" lon="2.35022">
        <ele>98.8</ele>
        <time>2023-10-11T12:48:36Z</time>
      </trkpt>
      <trkpt lat="49.77721" lon="2.35022">
        <ele>98.8</ele>
        <time>2023-10-11T12:48:38Z</time>
      </trkpt>
      <trkpt lat="49.77721" lon="2.35022">
        <ele>98.8</ele>
        <time>2023-10-11T12:48:39Z</time>
      </trkpt>
      <trkpt lat="49.77721" lon="2.35022">
        <ele>98.8</ele>
        <time>2023-10-11T12:48:40Z</time>
      </trkpt>
      <trkpt lat="49.77721" lon="2.35021">
        <ele>98.8</ele>
        <time>2023-10-11T12:48:41Z</time>
      </trkpt>
      <trkpt lat="49.77722" lon="2.35021">
        <ele>98.8</ele>
        <time>2023-10-11T12:48:42Z</time>
      </trkpt>
      <trkpt lat="49.77722" lon="2.35021">
        <ele>98.9</ele>
        <time>2023-10-11T12:48:43Z</time>
      </trkpt>
      <trkpt lat="49.77722" lon="2.35021">
        <ele>98.9</ele>
        <time>2023-10-11T12:48:44Z</time>
      </trkpt>
      <trkpt lat="49.77722" lon="2.35021">
        <ele>98.9</ele>
        <time>2023-10-11T12:48:45Z</time>
      </trkpt>
      <trkpt lat="49.77722" lon="2.35021">
        <ele>98.9</ele>
        <time>2023-10-11T12:48:47Z</time>
      </trkpt>
      <trkpt lat="49.77722" lon="2.35021">
        <ele>98.9</ele>
        <time>2023-10-11T12:48:48Z</time>
      </trkpt>
      <trkpt lat="49.77722" lon="2.35021">
        <ele>98.9</ele>
        <time>2023-10-11T12:48:49Z</time>
      </trkpt>
      <trkpt lat="49.77722" lon="2.35021">
        <ele>98.9</ele>
        <time>2023-10-11T12:48:50Z</time>
      </trkpt>
      <trkpt lat="49.77722" lon="2.35021">
        <ele>98.9</ele>
        <time>2023-10-11T12:48:51Z</time>
      </trkpt>
      <trkpt lat="49.77722" lon="2.35021">
        <ele>98.9</ele>
        <time>2023-10-11T12:48:52Z</time>
      </trkpt>
      <trkpt lat="49.77722" lon="2.35021">
        <ele>98.9</ele>
        <time>2023-10-11T12:48:53Z</time>
      </trkpt>
      <trkpt lat="49.77722" lon="2.35021">
        <ele>98.9</ele>
        <time>2023-10-11T12:48:54Z</time>
      </trkpt>
      <trkpt lat="49.77722" lon="2.35021">
        <ele>98.9</ele>
        <time>2023-10-11T12:48:55Z</time>
      </trkpt>
      <trkpt lat="49.77722" lon="2.35021">
        <ele>98.9</ele>
        <time>2023-10-11T12:48:56Z</time>
      </trkpt>
      <trkpt lat="49.77722" lon="2.35021">
        <ele>98.9</ele>
        <time>2023-10-11T12:48:57Z</time>
      </trkpt>
      <trkpt lat="49.77722" lon="2.35022">
        <ele>98.9</ele>
        <time>2023-10-11T12:48:58Z</time>
      </trkpt>
      <trkpt lat="49.77718" lon="2.3502">
        <ele>99</ele>
        <time>2023-10-11T12:49:39Z</time>
      </trkpt>
      <trkpt lat="49.77718" lon="2.35019">
        <ele>99</ele>
        <time>2023-10-11T12:49:40Z</time>
      </trkpt>
      <trkpt lat="49.77718" lon="2.35019">
        <ele>99.1</ele>
        <time>2023-10-11T12:49:41Z</time>
      </trkpt>
      <trkpt lat="49.77718" lon="2.35018">
        <ele>99.1</ele>
        <time>2023-10-11T12:49:42Z</time>
      </trkpt>
      <trkpt lat="49.77718" lon="2.35017">
        <ele>99.1</ele>
        <time>2023-10-11T12:49:43Z</time>
      </trkpt>
      <trkpt lat="49.77718" lon="2.35017">
        <ele>99.1</ele>
        <time>2023-10-11T12:49:44Z</time>
      </trkpt>
      <trkpt lat="49.77718" lon="2.35017">
        <ele>99.1</ele>
        <time>2023-10-11T12:49:45Z</time>
      </trkpt>
      <trkpt lat="49.77718" lon="2.35016">
        <ele>99.1</ele>
        <time>2023-10-11T12:49:46Z</time>
      </trkpt>
      <trkpt lat="49.77718" lon="2.35016">
        <ele>99.1</ele>
        <time>2023-10-11T12:49:47Z</time>
      </trkpt>
      <trkpt lat="49.77718" lon="2.35016">
        <ele>99.2</ele>
        <time>2023-10-11T12:49:48Z</time>
      </trkpt>
      <trkpt lat="49.77718" lon="2.35015">
        <ele>99.2</ele>
        <time>2023-10-11T12:49:49Z</time>
      </trkpt>
      <trkpt lat="49.77718" lon="2.35015">
        <ele>99.2</ele>
        <time>2023-10-11T12:49:50Z</time>
      </trkpt>
      <trkpt lat="49.77718" lon="2.35015">
        <ele>99.2</ele>
        <time>2023-10-11T12:49:51Z</time>
      </trkpt>
      <trkpt lat="49.77718" lon="2.35015">
        <ele>99.2</ele>
        <time>2023-10-11T12:49:52Z</time>
      </trkpt>
      <trkpt lat="49.77718" lon="2.35015">
        <ele>99.2</ele>
        <time>2023-10-11T12:49:54Z</time>
      </trkpt>
      <trkpt lat="49.77718" lon="2.35015">
        <ele>99.2</ele>
        <time>2023-10-11T12:49:55Z</time>
      </trkpt>
      <trkpt lat="49.77718" lon="2.35014">
        <ele>99.2</ele>
        <time>2023-10-11T12:49:56Z</time>
      </trkpt>
      <trkpt lat="49.77718" lon="2.35014">
        <ele>99.2</ele>
        <time>2023-10-11T12:49:57Z</time>
      </trkpt>
      <trkpt lat="49.77718" lon="2.35014">
        <ele>99.2</ele>
        <time>2023-10-11T12:49:58Z</time>
      </trkpt>
      <trkpt lat="49.77718" lon="2.35014">
        <ele>99.2</ele>
        <time>2023-10-11T12:49:59Z</time>
      </trkpt>
      <trkpt lat="49.77718" lon="2.35014">
        <ele>99.2</ele>
        <time>2023-10-11T12:50:00Z</time>
      </trkpt>
      <trkpt lat="49.77718" lon="2.35014">
        <ele>99.2</ele>
        <time>2023-10-11T12:50:01Z</time>
      </trkpt>
      <trkpt lat="49.77718" lon="2.35014">
        <ele>99.2</ele>
        <time>2023-10-11T12:50:02Z</time>
      </trkpt>
      <trkpt lat="49.77718" lon="2.35014">
        <ele>99.2</ele>
        <time>2023-10-11T12:50:03Z</time>
      </trkpt>
      <trkpt lat="49.77718" lon="2.35014">
        <ele>99.2</ele>
        <time>2023-10-11T12:50:04Z</time>
      </trkpt>
      <trkpt lat="49.77718" lon="2.35014">
        <ele>99.2</ele>
        <time>2023-10-11T12:50:05Z</time>
      </trkpt>
      <trkpt lat="49.77718" lon="2.35014">
        <ele>99.2</ele>
        <time>2023-10-11T12:50:06Z</time>
      </trkpt>
      <trkpt lat="49.77718" lon="2.35014">
        <ele>99.2</ele>
        <time>2023-10-11T12:50:07Z</time>
      </trkpt>
      <trkpt lat="49.77718" lon="2.35014">
        <ele>99.2</ele>
        <time>2023-10-11T12:50:08Z</time>
      </trkpt>
      <trkpt lat="49.77718" lon="2.35014">
        <ele>99.2</ele>
        <time>2023-10-11T12:50:09Z</time>
      </trkpt>
      <trkpt lat="49.77718" lon="2.35014">
        <ele>99.2</ele>
        <time>2023-10-11T12:50:10Z</time>
      </trkpt>
      <trkpt lat="49.77723" lon="2.35012">
        <ele>99.4</ele>
        <time>2023-10-11T12:51:25Z</time>
      </trkpt>
      <trkpt lat="49.77723" lon="2.35012">
        <ele>99.4</ele>
        <time>2023-10-11T12:51:26Z</time>
      </trkpt>
      <trkpt lat="49.77723" lon="2.35012">
        <ele>99.4</ele>
        <time>2023-10-11T12:51:27Z</time>
      </trkpt>
      <trkpt lat="49.77723" lon="2.35012">
        <ele>99.4</ele>
        <time>2023-10-11T12:51:28Z</time>
      </trkpt>
      <trkpt lat="49.77724" lon="2.35013">
        <ele>99.4</ele>
        <time>2023-10-11T12:51:29Z</time>
      </trkpt>
      <trkpt lat="49.77724" lon="2.35013">
        <ele>99.5</ele>
        <time>2023-10-11T12:51:30Z</time>
      </trkpt>
      <trkpt lat="49.77724" lon="2.35013">
        <ele>99.5</ele>
        <time>2023-10-11T12:51:31Z</time>
      </trkpt>
      <trkpt lat="49.77724" lon="2.35013">
        <ele>99.5</ele>
        <time>2023-10-11T12:51:32Z</time>
      </trkpt>
      <trkpt lat="49.77724" lon="2.35013">
        <ele>99.5</ele>
        <time>2023-10-11T12:51:33Z</time>
      </trkpt>
      <trkpt lat="49.77724" lon="2.35013">
        <ele>99.5</ele>
        <time>2023-10-11T12:51:35Z</time>
      </trkpt>
      <trkpt lat="49.77724" lon="2.35013">
        <ele>99.5</ele>
        <time>2023-10-11T12:51:36Z</time>
      </trkpt>
      <trkpt lat="49.77724" lon="2.35013">
        <ele>99.5</ele>
        <time>2023-10-11T12:51:37Z</time>
      </trkpt>
      <trkpt lat="49.77724" lon="2.35013">
        <ele>99.5</ele>
        <time>2023-10-11T12:51:38Z</time>
      </trkpt>
      <trkpt lat="49.77724" lon="2.35013">
        <ele>99.5</ele>
        <time>2023-10-11T12:51:39Z</time>
      </trkpt>
      <trkpt lat="49.77724" lon="2.35013">
        <ele>99.5</ele>
        <time>2023-10-11T12:51:40Z</time>
      </trkpt>
      <trkpt lat="49.77724" lon="2.35013">
        <ele>99.5</ele>
        <time>2023-10-11T12:51:41Z</time>
      </trkpt>
      <trkpt lat="49.77724" lon="2.35013">
        <ele>99.5</ele>
        <time>2023-10-11T12:51:42Z</time>
      </trkpt>
      <trkpt lat="49.77724" lon="2.35013">
        <ele>99.5</ele>
        <time>2023-10-11T12:51:43Z</time>
      </trkpt>
      <trkpt lat="49.77724" lon="2.35013">
        <ele>99.5</ele>
        <time>2023-10-11T12:51:44Z</time>
      </trkpt>
      <trkpt lat="49.77721" lon="2.35006">
        <ele>99.7</ele>
        <time>2023-10-11T12:53:52Z</time>
      </trkpt>
      <trkpt lat="49.77721" lon="2.35005">
        <ele>99.8</ele>
        <time>2023-10-11T12:53:54Z</time>
      </trkpt>
      <trkpt lat="49.77721" lon="2.35004">
        <ele>99.8</ele>
        <time>2023-10-11T12:53:56Z</time>
      </trkpt>
      <trkpt lat="49.77721" lon="2.35003">
        <ele>99.8</ele>
        <time>2023-10-11T12:53:57Z</time>
      </trkpt>
      <trkpt lat="49.77722" lon="2.35002">
        <ele>99.8</ele>
        <time>2023-10-11T12:53:58Z</time>
      </trkpt>
      <trkpt lat="49.77722" lon="2.35002">
        <ele>99.9</ele>
        <time>2023-10-11T12:53:59Z</time>
      </trkpt>
      <trkpt lat="49.77721" lon="2.35002">
        <ele>99.9</ele>
        <time>2023-10-11T12:54:00Z</time>
      </trkpt>
      <trkpt lat="49.77721" lon="2.35001">
        <ele>99.9</ele>
        <time>2023-10-11T12:54:01Z</time>
      </trkpt>
      <trkpt lat="49.77722" lon="2.35001">
        <ele>99.9</ele>
        <time>2023-10-11T12:54:02Z</time>
      </trkpt>
      <trkpt lat="49.77722" lon="2.35">
        <ele>99.9</ele>
        <time>2023-10-11T12:54:03Z</time>
      </trkpt>
      <trkpt lat="49.77722" lon="2.35">
        <ele>99.9</ele>
        <time>2023-10-11T12:54:04Z</time>
      </trkpt>
      <trkpt lat="49.77722" lon="2.34999">
        <ele>99.9</ele>
        <time>2023-10-11T12:54:05Z</time>
      </trkpt>
      <trkpt lat="49.77723" lon="2.34999">
        <ele>100</ele>
        <time>2023-10-11T12:54:06Z</time>
      </trkpt>
      <trkpt lat="49.77724" lon="2.34998">
        <ele>100</ele>
        <time>2023-10-11T12:54:07Z</time>
      </trkpt>
      <trkpt lat="49.77724" lon="2.34997">
        <ele>100.1</ele>
        <time>2023-10-11T12:54:08Z</time>
      </trkpt>
      <trkpt lat="49.77725" lon="2.34996">
        <ele>100.1</ele>
        <time>2023-10-11T12:54:09Z</time>
      </trkpt>
      <trkpt lat="49.77725" lon="2.34995">
        <ele>100.1</ele>
        <time>2023-10-11T12:54:10Z</time>
      </trkpt>
      <trkpt lat="49.77725" lon="2.34995">
        <ele>100.1</ele>
        <time>2023-10-11T12:54:11Z</time>
      </trkpt>
      <trkpt lat="49.77725" lon="2.34993">
        <ele>100.2</ele>
        <time>2023-10-11T12:54:12Z</time>
      </trkpt>
      <trkpt lat="49.77725" lon="2.34992">
        <ele>100.2</ele>
        <time>2023-10-11T12:54:14Z</time>
      </trkpt>
      <trkpt lat="49.77726" lon="2.34991">
        <ele>100.2</ele>
        <time>2023-10-11T12:54:15Z</time>
      </trkpt>
      <trkpt lat="49.77726" lon="2.34989">
        <ele>100.3</ele>
        <time>2023-10-11T12:54:16Z</time>
      </trkpt>
      <trkpt lat="49.77726" lon="2.34988">
        <ele>100.3</ele>
        <time>2023-10-11T12:54:17Z</time>
      </trkpt>
      <trkpt lat="49.77727" lon="2.34987">
        <ele>100.4</ele>
        <time>2023-10-11T12:54:18Z</time>
      </trkpt>
      <trkpt lat="49.77727" lon="2.34985">
        <ele>100.4</ele>
        <time>2023-10-11T12:54:19Z</time>
      </trkpt>
      <trkpt lat="49.77727" lon="2.34984">
        <ele>100.5</ele>
        <time>2023-10-11T12:54:20Z</time>
      </trkpt>
      <trkpt lat="49.77728" lon="2.34981">
        <ele>100.5</ele>
        <time>2023-10-11T12:54:21Z</time>
      </trkpt>
      <trkpt lat="49.77728" lon="2.3498">
        <ele>100.6</ele>
        <time>2023-10-11T12:54:23Z</time>
      </trkpt>
      <trkpt lat="49.77729" lon="2.34979">
        <ele>100.6</ele>
        <time>2023-10-11T12:54:24Z</time>
      </trkpt>
      <trkpt lat="49.77729" lon="2.34978">
        <ele>100.7</ele>
        <time>2023-10-11T12:54:25Z</time>
      </trkpt>
      <trkpt lat="49.77729" lon="2.34977">
        <ele>100.7</ele>
        <time>2023-10-11T12:54:26Z</time>
      </trkpt>
      <trkpt lat="49.7773" lon="2.34976">
        <ele>100.7</ele>
        <time>2023-10-11T12:54:27Z</time>
      </trkpt>
      <trkpt lat="49.7773" lon="2.34975">
        <ele>100.8</ele>
        <time>2023-10-11T12:54:28Z</time>
      </trkpt>
      <trkpt lat="49.77731" lon="2.34974">
        <ele>100.8</ele>
        <time>2023-10-11T12:54:29Z</time>
      </trkpt>
      <trkpt lat="49.77731" lon="2.34973">
        <ele>100.8</ele>
        <time>2023-10-11T12:54:30Z</time>
      </trkpt>
      <trkpt lat="49.77731" lon="2.34972">
        <ele>100.9</ele>
        <time>2023-10-11T12:54:31Z</time>
      </trkpt>
      <trkpt lat="49.77731" lon="2.34972">
        <ele>100.9</ele>
        <time>2023-10-11T12:54:32Z</time>
      </trkpt>
      <trkpt lat="49.77731" lon="2.34971">
        <ele>100.9</ele>
        <time>2023-10-11T12:54:33Z</time>
      </trkpt>
      <trkpt lat="49.77731" lon="2.34971">
        <ele>100.9</ele>
        <time>2023-10-11T12:54:34Z</time>
      </trkpt>
      <trkpt lat="49.77731" lon="2.3497">
        <ele>100.9</ele>
        <time>2023-10-11T12:54:35Z</time>
      </trkpt>
      <trkpt lat="49.77731" lon="2.34969">
        <ele>101</ele>
        <time>2023-10-11T12:54:36Z</time>
      </trkpt>
      <trkpt lat="49.77731" lon="2.34968">
        <ele>101</ele>
        <time>2023-10-11T12:54:37Z</time>
      </trkpt>
      <trkpt lat="49.77732" lon="2.34967">
        <ele>101</ele>
        <time>2023-10-11T12:54:38Z</time>
      </trkpt>
      <trkpt lat="49.77732" lon="2.34966">
        <ele>101.1</ele>
        <time>2023-10-11T12:54:39Z</time>
      </trkpt>
      <trkpt lat="49.77732" lon="2.34963">
        <ele>101.2</ele>
        <time>2023-10-11T12:54:40Z</time>
      </trkpt>
      <trkpt lat="49.77732" lon="2.34963">
        <ele>101.2</ele>
        <time>2023-10-11T12:54:42Z</time>
      </trkpt>
      <trkpt lat="49.77732" lon="2.34961">
        <ele>101.2</ele>
        <time>2023-10-11T12:54:43Z</time>
      </trkpt>
      <trkpt lat="49.77732" lon="2.3496">
        <ele>101.3</ele>
        <time>2023-10-11T12:54:44Z</time>
      </trkpt>
      <trkpt lat="49.77732" lon="2.34958">
        <ele>101.3</ele>
        <time>2023-10-11T12:54:45Z</time>
      </trkpt>
      <trkpt lat="49.77732" lon="2.34957">
        <ele>101.4</ele>
        <time>2023-10-11T12:54:46Z</time>
      </trkpt>
      <trkpt lat="49.77732" lon="2.34956">
        <ele>101.4</ele>
        <time>2023-10-11T12:54:47Z</time>
      </trkpt>
      <trkpt lat="49.77732" lon="2.34954">
        <ele>101.4</ele>
        <time>2023-10-11T12:54:48Z</time>
      </trkpt>
      <trkpt lat="49.77732" lon="2.34953">
        <ele>101.5</ele>
        <time>2023-10-11T12:54:49Z</time>
      </trkpt>
      <trkpt lat="49.77733" lon="2.34951">
        <ele>101.5</ele>
        <time>2023-10-11T12:54:50Z</time>
      </trkpt>
      <trkpt lat="49.77733" lon="2.34949">
        <ele>101.6</ele>
        <time>2023-10-11T12:54:51Z</time>
      </trkpt>
      <trkpt lat="49.77733" lon="2.34947">
        <ele>101.7</ele>
        <time>2023-10-11T12:54:52Z</time>
      </trkpt>
      <trkpt lat="49.77734" lon="2.34945">
        <ele>101.7</ele>
        <time>2023-10-11T12:54:53Z</time>
      </trkpt>
      <trkpt lat="49.77735" lon="2.34942">
        <ele>101.9</ele>
        <time>2023-10-11T12:54:54Z</time>
      </trkpt>
      <trkpt lat="49.77736" lon="2.3494">
        <ele>101.9</ele>
        <time>2023-10-11T12:54:55Z</time>
      </trkpt>
      <trkpt lat="49.77738" lon="2.34936">
        <ele>102.1</ele>
        <time>2023-10-11T12:54:56Z</time>
      </trkpt>
      <trkpt lat="49.77739" lon="2.34934">
        <ele>102.1</ele>
        <time>2023-10-11T12:54:57Z</time>
      </trkpt>
      <trkpt lat="49.7774" lon="2.34932">
        <ele>102.2</ele>
        <time>2023-10-11T12:54:58Z</time>
      </trkpt>
      <trkpt lat="49.77741" lon="2.3493">
        <ele>102.3</ele>
        <time>2023-10-11T12:54:59Z</time>
      </trkpt>
      <trkpt lat="49.77742" lon="2.34929">
        <ele>102.4</ele>
        <time>2023-10-11T12:55:00Z</time>
      </trkpt>
      <trkpt lat="49.77742" lon="2.34927">
        <ele>102.4</ele>
        <time>2023-10-11T12:55:01Z</time>
      </trkpt>
      <trkpt lat="49.77743" lon="2.34926">
        <ele>102.5</ele>
        <time>2023-10-11T12:55:02Z</time>
      </trkpt>
      <trkpt lat="49.77743" lon="2.34924">
        <ele>102.5</ele>
        <time>2023-10-11T12:55:03Z</time>
      </trkpt>
      <trkpt lat="49.77744" lon="2.34923">
        <ele>102.6</ele>
        <time>2023-10-11T12:55:04Z</time>
      </trkpt>
      <trkpt lat="49.77744" lon="2.34922">
        <ele>102.6</ele>
        <time>2023-10-11T12:55:05Z</time>
      </trkpt>
      <trkpt lat="49.77745" lon="2.34921">
        <ele>102.7</ele>
        <time>2023-10-11T12:55:06Z</time>
      </trkpt>
      <trkpt lat="49.77745" lon="2.3492">
        <ele>102.7</ele>
        <time>2023-10-11T12:55:07Z</time>
      </trkpt>
      <trkpt lat="49.77746" lon="2.34918">
        <ele>102.8</ele>
        <time>2023-10-11T12:55:08Z</time>
      </trkpt>
      <trkpt lat="49.77746" lon="2.34917">
        <ele>102.8</ele>
        <time>2023-10-11T12:55:09Z</time>
      </trkpt>
      <trkpt lat="49.77747" lon="2.34916">
        <ele>102.8</ele>
        <time>2023-10-11T12:55:10Z</time>
      </trkpt>
      <trkpt lat="49.77747" lon="2.34915">
        <ele>102.9</ele>
        <time>2023-10-11T12:55:11Z</time>
      </trkpt>
      <trkpt lat="49.77748" lon="2.34914">
        <ele>102.9</ele>
        <time>2023-10-11T12:55:12Z</time>
      </trkpt>
      <trkpt lat="49.77748" lon="2.34913">
        <ele>103</ele>
        <time>2023-10-11T12:55:13Z</time>
      </trkpt>
      <trkpt lat="49.77749" lon="2.34912">
        <ele>103</ele>
        <time>2023-10-11T12:55:14Z</time>
      </trkpt>
      <trkpt lat="49.77749" lon="2.3491">
        <ele>103.1</ele>
        <time>2023-10-11T12:55:15Z</time>
      </trkpt>
      <trkpt lat="49.7775" lon="2.34908">
        <ele>103.1</ele>
        <time>2023-10-11T12:55:16Z</time>
      </trkpt>
      <trkpt lat="49.7775" lon="2.34907">
        <ele>103.2</ele>
        <time>2023-10-11T12:55:17Z</time>
      </trkpt>
      <trkpt lat="49.77751" lon="2.34905">
        <ele>103.2</ele>
        <time>2023-10-11T12:55:18Z</time>
      </trkpt>
      <trkpt lat="49.77751" lon="2.34904">
        <ele>103.3</ele>
        <time>2023-10-11T12:55:19Z</time>
      </trkpt>
      <trkpt lat="49.77752" lon="2.34903">
        <ele>103.3</ele>
        <time>2023-10-11T12:55:20Z</time>
      </trkpt>
      <trkpt lat="49.77752" lon="2.34901">
        <ele>103.4</ele>
        <time>2023-10-11T12:55:21Z</time>
      </trkpt>
      <trkpt lat="49.77753" lon="2.34899">
        <ele>103.5</ele>
        <time>2023-10-11T12:55:23Z</time>
      </trkpt>
      <trkpt lat="49.77753" lon="2.34898">
        <ele>103.5</ele>
        <time>2023-10-11T12:55:24Z</time>
      </trkpt>
      <trkpt lat="49.77753" lon="2.34897">
        <ele>103.5</ele>
        <time>2023-10-11T12:55:25Z</time>
      </trkpt>
      <trkpt lat="49.77754" lon="2.34896">
        <ele>103.6</ele>
        <time>2023-10-11T12:55:26Z</time>
      </trkpt>
      <trkpt lat="49.77754" lon="2.34895">
        <ele>103.6</ele>
        <time>2023-10-11T12:55:27Z</time>
      </trkpt>
      <trkpt lat="49.77754" lon="2.34894">
        <ele>103.6</ele>
        <time>2023-10-11T12:55:28Z</time>
      </trkpt>
      <trkpt lat="49.77754" lon="2.34893">
        <ele>103.7</ele>
        <time>2023-10-11T12:55:29Z</time>
      </trkpt>
      <trkpt lat="49.77755" lon="2.34892">
        <ele>103.7</ele>
        <time>2023-10-11T12:55:30Z</time>
      </trkpt>
      <trkpt lat="49.77755" lon="2.3489">
        <ele>103.8</ele>
        <time>2023-10-11T12:55:31Z</time>
      </trkpt>
      <trkpt lat="49.77756" lon="2.34889">
        <ele>103.8</ele>
        <time>2023-10-11T12:55:32Z</time>
      </trkpt>
      <trkpt lat="49.77756" lon="2.34888">
        <ele>103.9</ele>
        <time>2023-10-11T12:55:33Z</time>
      </trkpt>
      <trkpt lat="49.77756" lon="2.34887">
        <ele>103.9</ele>
        <time>2023-10-11T12:55:34Z</time>
      </trkpt>
      <trkpt lat="49.77757" lon="2.34884">
        <ele>104</ele>
        <time>2023-10-11T12:55:35Z</time>
      </trkpt>
      <trkpt lat="49.77757" lon="2.34883">
        <ele>104</ele>
        <time>2023-10-11T12:55:36Z</time>
      </trkpt>
      <trkpt lat="49.77758" lon="2.34881">
        <ele>104.1</ele>
        <time>2023-10-11T12:55:37Z</time>
      </trkpt>
      <trkpt lat="49.77758" lon="2.34878">
        <ele>104.2</ele>
        <time>2023-10-11T12:55:38Z</time>
      </trkpt>
      <trkpt lat="49.77759" lon="2.34877">
        <ele>104.2</ele>
        <time>2023-10-11T12:55:39Z</time>
      </trkpt>
      <trkpt lat="49.77759" lon="2.34875">
        <ele>104.3</ele>
        <time>2023-10-11T12:55:40Z</time>
      </trkpt>
      <trkpt lat="49.7776" lon="2.34873">
        <ele>104.3</ele>
        <time>2023-10-11T12:55:41Z</time>
      </trkpt>
      <trkpt lat="49.7776" lon="2.34871">
        <ele>104.4</ele>
        <time>2023-10-11T12:55:42Z</time>
      </trkpt>
      <trkpt lat="49.77761" lon="2.34869">
        <ele>104.5</ele>
        <time>2023-10-11T12:55:43Z</time>
      </trkpt>
      <trkpt lat="49.77762" lon="2.34867">
        <ele>104.6</ele>
        <time>2023-10-11T12:55:44Z</time>
      </trkpt>
      <trkpt lat="49.77762" lon="2.34865">
        <ele>104.6</ele>
        <time>2023-10-11T12:55:45Z</time>
      </trkpt>
      <trkpt lat="49.77763" lon="2.34863">
        <ele>104.7</ele>
        <time>2023-10-11T12:55:46Z</time>
      </trkpt>
      <trkpt lat="49.77763" lon="2.34861">
        <ele>104.7</ele>
        <time>2023-10-11T12:55:47Z</time>
      </trkpt>
      <trkpt lat="49.77764" lon="2.34859">
        <ele>104.8</ele>
        <time>2023-10-11T12:55:48Z</time>
      </trkpt>
      <trkpt lat="49.77764" lon="2.34855">
        <ele>104.9</ele>
        <time>2023-10-11T12:55:49Z</time>
      </trkpt>
      <trkpt lat="49.77765" lon="2.34854">
        <ele>105</ele>
        <time>2023-10-11T12:55:50Z</time>
      </trkpt>
      <trkpt lat="49.77765" lon="2.34852">
        <ele>105</ele>
        <time>2023-10-11T12:55:51Z</time>
      </trkpt>
      <trkpt lat="49.77766" lon="2.34849">
        <ele>105.1</ele>
        <time>2023-10-11T12:55:53Z</time>
      </trkpt>
      <trkpt lat="49.77767" lon="2.34847">
        <ele>105.1</ele>
        <time>2023-10-11T12:55:55Z</time>
      </trkpt>
      <trkpt lat="49.77767" lon="2.34845">
        <ele>105.2</ele>
        <time>2023-10-11T12:55:56Z</time>
      </trkpt>
      <trkpt lat="49.77768" lon="2.34843">
        <ele>105.3</ele>
        <time>2023-10-11T12:55:58Z</time>
      </trkpt>
      <trkpt lat="49.77768" lon="2.34842">
        <ele>105.3</ele>
        <time>2023-10-11T12:55:59Z</time>
      </trkpt>
      <trkpt lat="49.77769" lon="2.34838">
        <ele>105.4</ele>
        <time>2023-10-11T12:56:00Z</time>
      </trkpt>
      <trkpt lat="49.77769" lon="2.34837">
        <ele>105.4</ele>
        <time>2023-10-11T12:56:02Z</time>
      </trkpt>
      <trkpt lat="49.77769" lon="2.34835">
        <ele>105.5</ele>
        <time>2023-10-11T12:56:03Z</time>
      </trkpt>
      <trkpt lat="49.77769" lon="2.34834">
        <ele>105.5</ele>
        <time>2023-10-11T12:56:04Z</time>
      </trkpt>
      <trkpt lat="49.77769" lon="2.34832">
        <ele>105.6</ele>
        <time>2023-10-11T12:56:05Z</time>
      </trkpt>
      <trkpt lat="49.77769" lon="2.3483">
        <ele>105.6</ele>
        <time>2023-10-11T12:56:06Z</time>
      </trkpt>
      <trkpt lat="49.77769" lon="2.34828">
        <ele>105.7</ele>
        <time>2023-10-11T12:56:07Z</time>
      </trkpt>
      <trkpt lat="49.77769" lon="2.34826">
        <ele>105.7</ele>
        <time>2023-10-11T12:56:08Z</time>
      </trkpt>
      <trkpt lat="49.77769" lon="2.34825">
        <ele>105.7</ele>
        <time>2023-10-11T12:56:09Z</time>
      </trkpt>
      <trkpt lat="49.77769" lon="2.34823">
        <ele>105.8</ele>
        <time>2023-10-11T12:56:10Z</time>
      </trkpt>
      <trkpt lat="49.77769" lon="2.34822">
        <ele>105.8</ele>
        <time>2023-10-11T12:56:11Z</time>
      </trkpt>
      <trkpt lat="49.7777" lon="2.3482">
        <ele>105.9</ele>
        <time>2023-10-11T12:56:12Z</time>
      </trkpt>
      <trkpt lat="49.7777" lon="2.34819">
        <ele>105.9</ele>
        <time>2023-10-11T12:56:13Z</time>
      </trkpt>
      <trkpt lat="49.7777" lon="2.34817">
        <ele>105.9</ele>
        <time>2023-10-11T12:56:14Z</time>
      </trkpt>
      <trkpt lat="49.7777" lon="2.34815">
        <ele>106</ele>
        <time>2023-10-11T12:56:15Z</time>
      </trkpt>
      <trkpt lat="49.7777" lon="2.34814">
        <ele>106</ele>
        <time>2023-10-11T12:56:16Z</time>
      </trkpt>
      <trkpt lat="49.7777" lon="2.34813">
        <ele>106</ele>
        <time>2023-10-11T12:56:17Z</time>
      </trkpt>
      <trkpt lat="49.7777" lon="2.34811">
        <ele>106.1</ele>
        <time>2023-10-11T12:56:18Z</time>
      </trkpt>
      <trkpt lat="49.7777" lon="2.3481">
        <ele>106.1</ele>
        <time>2023-10-11T12:56:19Z</time>
      </trkpt>
      <trkpt lat="49.7777" lon="2.34808">
        <ele>106.1</ele>
        <time>2023-10-11T12:56:20Z</time>
      </trkpt>
      <trkpt lat="49.7777" lon="2.34806">
        <ele>106.2</ele>
        <time>2023-10-11T12:56:21Z</time>
      </trkpt>
      <trkpt lat="49.7777" lon="2.34805">
        <ele>106.2</ele>
        <time>2023-10-11T12:56:22Z</time>
      </trkpt>
      <trkpt lat="49.77771" lon="2.34803">
        <ele>106.2</ele>
        <time>2023-10-11T12:56:23Z</time>
      </trkpt>
      <trkpt lat="49.77771" lon="2.348">
        <ele>106.3</ele>
        <time>2023-10-11T12:56:24Z</time>
      </trkpt>
      <trkpt lat="49.77771" lon="2.34799">
        <ele>106.3</ele>
        <time>2023-10-11T12:56:26Z</time>
      </trkpt>
      <trkpt lat="49.77771" lon="2.34797">
        <ele>106.3</ele>
        <time>2023-10-11T12:56:27Z</time>
      </trkpt>
      <trkpt lat="49.77771" lon="2.34795">
        <ele>106.4</ele>
        <time>2023-10-11T12:56:28Z</time>
      </trkpt>
      <trkpt lat="49.77772" lon="2.34794">
        <ele>106.4</ele>
        <time>2023-10-11T12:56:29Z</time>
      </trkpt>
      <trkpt lat="49.77772" lon="2.34791">
        <ele>106.4</ele>
        <time>2023-10-11T12:56:30Z</time>
      </trkpt>
      <trkpt lat="49.77772" lon="2.34789">
        <ele>106.5</ele>
        <time>2023-10-11T12:56:32Z</time>
      </trkpt>
      <trkpt lat="49.77772" lon="2.34787">
        <ele>106.5</ele>
        <time>2023-10-11T12:56:33Z</time>
      </trkpt>
      <trkpt lat="49.77773" lon="2.34786">
        <ele>106.5</ele>
        <time>2023-10-11T12:56:34Z</time>
      </trkpt>
      <trkpt lat="49.77773" lon="2.34784">
        <ele>106.6</ele>
        <time>2023-10-11T12:56:35Z</time>
      </trkpt>
      <trkpt lat="49.77773" lon="2.3478">
        <ele>106.6</ele>
        <time>2023-10-11T12:56:36Z</time>
      </trkpt>
      <trkpt lat="49.77774" lon="2.34778">
        <ele>106.7</ele>
        <time>2023-10-11T12:56:38Z</time>
      </trkpt>
      <trkpt lat="49.77774" lon="2.34777">
        <ele>106.7</ele>
        <time>2023-10-11T12:56:39Z</time>
      </trkpt>
      <trkpt lat="49.77775" lon="2.34774">
        <ele>106.7</ele>
        <time>2023-10-11T12:56:40Z</time>
      </trkpt>
      <trkpt lat="49.77775" lon="2.34772">
        <ele>106.8</ele>
        <time>2023-10-11T12:56:41Z</time>
      </trkpt>
      <trkpt lat="49.77775" lon="2.34771">
        <ele>106.8</ele>
        <time>2023-10-11T12:56:42Z</time>
      </trkpt>
      <trkpt lat="49.77775" lon="2.34767">
        <ele>106.8</ele>
        <time>2023-10-11T12:56:43Z</time>
      </trkpt>
      <trkpt lat="49.77776" lon="2.34766">
        <ele>106.9</ele>
        <time>2023-10-11T12:56:44Z</time>
      </trkpt>
      <trkpt lat="49.77776" lon="2.34762">
        <ele>106.9</ele>
        <time>2023-10-11T12:56:45Z</time>
      </trkpt>
      <trkpt lat="49.77776" lon="2.34761">
        <ele>106.9</ele>
        <time>2023-10-11T12:56:47Z</time>
      </trkpt>
      <trkpt lat="49.77776" lon="2.3476">
        <ele>107</ele>
        <time>2023-10-11T12:56:48Z</time>
      </trkpt>
      <trkpt lat="49.77777" lon="2.34758">
        <ele>107</ele>
        <time>2023-10-11T12:56:49Z</time>
      </trkpt>
      <trkpt lat="49.77777" lon="2.34757">
        <ele>107</ele>
        <time>2023-10-11T12:56:50Z</time>
      </trkpt>
      <trkpt lat="49.77777" lon="2.34755">
        <ele>107</ele>
        <time>2023-10-11T12:56:51Z</time>
      </trkpt>
      <trkpt lat="49.77778" lon="2.34753">
        <ele>107.1</ele>
        <time>2023-10-11T12:56:52Z</time>
      </trkpt>
      <trkpt lat="49.77778" lon="2.34751">
        <ele>107.1</ele>
        <time>2023-10-11T12:56:53Z</time>
      </trkpt>
      <trkpt lat="49.77778" lon="2.3475">
        <ele>107.1</ele>
        <time>2023-10-11T12:56:54Z</time>
      </trkpt>
      <trkpt lat="49.77779" lon="2.34748">
        <ele>107.1</ele>
        <time>2023-10-11T12:56:55Z</time>
      </trkpt>
      <trkpt lat="49.77779" lon="2.34747">
        <ele>107.2</ele>
        <time>2023-10-11T12:56:56Z</time>
      </trkpt>
      <trkpt lat="49.77779" lon="2.34746">
        <ele>107.2</ele>
        <time>2023-10-11T12:56:57Z</time>
      </trkpt>
      <trkpt lat="49.7778" lon="2.34744">
        <ele>107.2</ele>
        <time>2023-10-11T12:56:58Z</time>
      </trkpt>
      <trkpt lat="49.7778" lon="2.34742">
        <ele>107.2</ele>
        <time>2023-10-11T12:56:59Z</time>
      </trkpt>
      <trkpt lat="49.7778" lon="2.34741">
        <ele>107.3</ele>
        <time>2023-10-11T12:57:00Z</time>
      </trkpt>
      <trkpt lat="49.7778" lon="2.34739">
        <ele>107.3</ele>
        <time>2023-10-11T12:57:01Z</time>
      </trkpt>
      <trkpt lat="49.77781" lon="2.34736">
        <ele>107.3</ele>
        <time>2023-10-11T12:57:02Z</time>
      </trkpt>
      <trkpt lat="49.77781" lon="2.34735">
        <ele>107.3</ele>
        <time>2023-10-11T12:57:04Z</time>
      </trkpt>
      <trkpt lat="49.77781" lon="2.34733">
        <ele>107.3</ele>
        <time>2023-10-11T12:57:05Z</time>
      </trkpt>
      <trkpt lat="49.77781" lon="2.34731">
        <ele>107.4</ele>
        <time>2023-10-11T12:57:06Z</time>
      </trkpt>
      <trkpt lat="49.77781" lon="2.3473">
        <ele>107.4</ele>
        <time>2023-10-11T12:57:07Z</time>
      </trkpt>
      <trkpt lat="49.77782" lon="2.34728">
        <ele>107.4</ele>
        <time>2023-10-11T12:57:08Z</time>
      </trkpt>
      <trkpt lat="49.77782" lon="2.34726">
        <ele>107.4</ele>
        <time>2023-10-11T12:57:09Z</time>
      </trkpt>
      <trkpt lat="49.77782" lon="2.34725">
        <ele>107.4</ele>
        <time>2023-10-11T12:57:10Z</time>
      </trkpt>
      <trkpt lat="49.77782" lon="2.34723">
        <ele>107.5</ele>
        <time>2023-10-11T12:57:11Z</time>
      </trkpt>
      <trkpt lat="49.77782" lon="2.34721">
        <ele>107.5</ele>
        <time>2023-10-11T12:57:12Z</time>
      </trkpt>
      <trkpt lat="49.77782" lon="2.3472">
        <ele>107.5</ele>
        <time>2023-10-11T12:57:13Z</time>
      </trkpt>
      <trkpt lat="49.77783" lon="2.34718">
        <ele>107.5</ele>
        <time>2023-10-11T12:57:14Z</time>
      </trkpt>
      <trkpt lat="49.77783" lon="2.34716">
        <ele>107.5</ele>
        <time>2023-10-11T12:57:15Z</time>
      </trkpt>
      <trkpt lat="49.77783" lon="2.34715">
        <ele>107.6</ele>
        <time>2023-10-11T12:57:16Z</time>
      </trkpt>
      <trkpt lat="49.77783" lon="2.34713">
        <ele>107.6</ele>
        <time>2023-10-11T12:57:17Z</time>
      </trkpt>
      <trkpt lat="49.77784" lon="2.34712">
        <ele>107.6</ele>
        <time>2023-10-11T12:57:18Z</time>
      </trkpt>
      <trkpt lat="49.77784" lon="2.3471">
        <ele>107.6</ele>
        <time>2023-10-11T12:57:19Z</time>
      </trkpt>
      <trkpt lat="49.77784" lon="2.34708">
        <ele>107.6</ele>
        <time>2023-10-11T12:57:20Z</time>
      </trkpt>
      <trkpt lat="49.77784" lon="2.34707">
        <ele>107.6</ele>
        <time>2023-10-11T12:57:21Z</time>
      </trkpt>
      <trkpt lat="49.77785" lon="2.34705">
        <ele>107.7</ele>
        <time>2023-10-11T12:57:22Z</time>
      </trkpt>
      <trkpt lat="49.77785" lon="2.34704">
        <ele>107.7</ele>
        <time>2023-10-11T12:57:23Z</time>
      </trkpt>
      <trkpt lat="49.77785" lon="2.34702">
        <ele>107.7</ele>
        <time>2023-10-11T12:57:24Z</time>
      </trkpt>
      <trkpt lat="49.77785" lon="2.34701">
        <ele>107.7</ele>
        <time>2023-10-11T12:57:25Z</time>
      </trkpt>
      <trkpt lat="49.77785" lon="2.34699">
        <ele>107.7</ele>
        <time>2023-10-11T12:57:26Z</time>
      </trkpt>
      <trkpt lat="49.77786" lon="2.34698">
        <ele>107.7</ele>
        <time>2023-10-11T12:57:27Z</time>
      </trkpt>
      <trkpt lat="49.77786" lon="2.34696">
        <ele>107.8</ele>
        <time>2023-10-11T12:57:28Z</time>
      </trkpt>
      <trkpt lat="49.77786" lon="2.34694">
        <ele>107.8</ele>
        <time>2023-10-11T12:57:29Z</time>
      </trkpt>
      <trkpt lat="49.77786" lon="2.34693">
        <ele>107.8</ele>
        <time>2023-10-11T12:57:30Z</time>
      </trkpt>
      <trkpt lat="49.77786" lon="2.34691">
        <ele>107.8</ele>
        <time>2023-10-11T12:57:31Z</time>
      </trkpt>
      <trkpt lat="49.77787" lon="2.3469">
        <ele>107.8</ele>
        <time>2023-10-11T12:57:32Z</time>
      </trkpt>
      <trkpt lat="49.77787" lon="2.34689">
        <ele>107.8</ele>
        <time>2023-10-11T12:57:33Z</time>
      </trkpt>
      <trkpt lat="49.77787" lon="2.34688">
        <ele>107.8</ele>
        <time>2023-10-11T12:57:34Z</time>
      </trkpt>
      <trkpt lat="49.77787" lon="2.34685">
        <ele>107.9</ele>
        <time>2023-10-11T12:57:35Z</time>
      </trkpt>
      <trkpt lat="49.77788" lon="2.34684">
        <ele>107.9</ele>
        <time>2023-10-11T12:57:37Z</time>
      </trkpt>
      <trkpt lat="49.77788" lon="2.34683">
        <ele>107.9</ele>
        <time>2023-10-11T12:57:38Z</time>
      </trkpt>
      <trkpt lat="49.77788" lon="2.34681">
        <ele>107.9</ele>
        <time>2023-10-11T12:57:39Z</time>
      </trkpt>
      <trkpt lat="49.77788" lon="2.34679">
        <ele>107.9</ele>
        <time>2023-10-11T12:57:40Z</time>
      </trkpt>
      <trkpt lat="49.77788" lon="2.34678">
        <ele>107.9</ele>
        <time>2023-10-11T12:57:41Z</time>
      </trkpt>
      <trkpt lat="49.77789" lon="2.34676">
        <ele>107.9</ele>
        <time>2023-10-11T12:57:42Z</time>
      </trkpt>
      <trkpt lat="49.77789" lon="2.34674">
        <ele>108</ele>
        <time>2023-10-11T12:57:43Z</time>
      </trkpt>
      <trkpt lat="49.7779" lon="2.34672">
        <ele>108</ele>
        <time>2023-10-11T12:57:45Z</time>
      </trkpt>
      <trkpt lat="49.7779" lon="2.34671">
        <ele>108</ele>
        <time>2023-10-11T12:57:46Z</time>
      </trkpt>
      <trkpt lat="49.7779" lon="2.3467">
        <ele>108</ele>
        <time>2023-10-11T12:57:47Z</time>
      </trkpt>
      <trkpt lat="49.77791" lon="2.34668">
        <ele>108</ele>
        <time>2023-10-11T12:57:48Z</time>
      </trkpt>
      <trkpt lat="49.77791" lon="2.34667">
        <ele>108</ele>
        <time>2023-10-11T12:57:49Z</time>
      </trkpt>
      <trkpt lat="49.77792" lon="2.34666">
        <ele>108</ele>
        <time>2023-10-11T12:57:50Z</time>
      </trkpt>
      <trkpt lat="49.77792" lon="2.34665">
        <ele>108.1</ele>
        <time>2023-10-11T12:57:51Z</time>
      </trkpt>
      <trkpt lat="49.77793" lon="2.34664">
        <ele>108.1</ele>
        <time>2023-10-11T12:57:52Z</time>
      </trkpt>
      <trkpt lat="49.77794" lon="2.34664">
        <ele>108.1</ele>
        <time>2023-10-11T12:57:53Z</time>
      </trkpt>
      <trkpt lat="49.77795" lon="2.34663">
        <ele>108.1</ele>
        <time>2023-10-11T12:57:54Z</time>
      </trkpt>
      <trkpt lat="49.77795" lon="2.34662">
        <ele>108.1</ele>
        <time>2023-10-11T12:57:55Z</time>
      </trkpt>
      <trkpt lat="49.77796" lon="2.34661">
        <ele>108.1</ele>
        <time>2023-10-11T12:57:56Z</time>
      </trkpt>
      <trkpt lat="49.77798" lon="2.3466">
        <ele>108.1</ele>
        <time>2023-10-11T12:57:57Z</time>
      </trkpt>
      <trkpt lat="49.77798" lon="2.3466">
        <ele>108.2</ele>
        <time>2023-10-11T12:57:59Z</time>
      </trkpt>
      <trkpt lat="49.77799" lon="2.3466">
        <ele>108.2</ele>
        <time>2023-10-11T12:58:00Z</time>
      </trkpt>
      <trkpt lat="49.778" lon="2.34659">
        <ele>108.2</ele>
        <time>2023-10-11T12:58:01Z</time>
      </trkpt>
      <trkpt lat="49.77801" lon="2.34659">
        <ele>108.2</ele>
        <time>2023-10-11T12:58:02Z</time>
      </trkpt>
      <trkpt lat="49.77802" lon="2.34659">
        <ele>108.2</ele>
        <time>2023-10-11T12:58:04Z</time>
      </trkpt>
      <trkpt lat="49.77803" lon="2.34658">
        <ele>108.2</ele>
        <time>2023-10-11T12:58:05Z</time>
      </trkpt>
      <trkpt lat="49.77804" lon="2.34658">
        <ele>108.2</ele>
        <time>2023-10-11T12:58:06Z</time>
      </trkpt>
      <trkpt lat="49.77805" lon="2.34657">
        <ele>108.3</ele>
        <time>2023-10-11T12:58:07Z</time>
      </trkpt>
      <trkpt lat="49.77805" lon="2.34657">
        <ele>108.3</ele>
        <time>2023-10-11T12:58:08Z</time>
      </trkpt>
      <trkpt lat="49.77806" lon="2.34657">
        <ele>108.3</ele>
        <time>2023-10-11T12:58:09Z</time>
      </trkpt>
      <trkpt lat="49.77807" lon="2.34657">
        <ele>108.3</ele>
        <time>2023-10-11T12:58:10Z</time>
      </trkpt>
      <trkpt lat="49.77807" lon="2.34656">
        <ele>108.3</ele>
        <time>2023-10-11T12:58:11Z</time>
      </trkpt>
      <trkpt lat="49.77808" lon="2.34656">
        <ele>108.3</ele>
        <time>2023-10-11T12:58:12Z</time>
      </trkpt>
      <trkpt lat="49.77809" lon="2.34655">
        <ele>108.3</ele>
        <time>2023-10-11T12:58:13Z</time>
      </trkpt>
      <trkpt lat="49.77809" lon="2.34655">
        <ele>108.3</ele>
        <time>2023-10-11T12:58:14Z</time>
      </trkpt>
      <trkpt lat="49.77809" lon="2.34655">
        <ele>108.3</ele>
        <time>2023-10-11T12:58:15Z</time>
      </trkpt>
      <trkpt lat="49.7781" lon="2.34655">
        <ele>108.3</ele>
        <time>2023-10-11T12:58:16Z</time>
      </trkpt>
      <trkpt lat="49.7781" lon="2.34654">
        <ele>108.3</ele>
        <time>2023-10-11T12:58:17Z</time>
      </trkpt>
      <trkpt lat="49.77811" lon="2.34654">
        <ele>108.3</ele>
        <time>2023-10-11T12:58:18Z</time>
      </trkpt>
      <trkpt lat="49.77811" lon="2.34653">
        <ele>108.3</ele>
        <time>2023-10-11T12:58:19Z</time>
      </trkpt>
      <trkpt lat="49.77811" lon="2.34653">
        <ele>108.3</ele>
        <time>2023-10-11T12:58:20Z</time>
      </trkpt>
      <trkpt lat="49.77811" lon="2.34653">
        <ele>108.4</ele>
        <time>2023-10-11T12:58:21Z</time>
      </trkpt>
      <trkpt lat="49.7781" lon="2.34652">
        <ele>108.4</ele>
        <time>2023-10-11T12:58:22Z</time>
      </trkpt>
      <trkpt lat="49.7781" lon="2.34651">
        <ele>108.4</ele>
        <time>2023-10-11T12:58:24Z</time>
      </trkpt>
      <trkpt lat="49.77811" lon="2.3465">
        <ele>108.4</ele>
        <time>2023-10-11T12:58:25Z</time>
      </trkpt>
      <trkpt lat="49.77811" lon="2.34649">
        <ele>108.4</ele>
        <time>2023-10-11T12:58:26Z</time>
      </trkpt>
      <trkpt lat="49.77812" lon="2.34649">
        <ele>108.4</ele>
        <time>2023-10-11T12:58:27Z</time>
      </trkpt>
      <trkpt lat="49.77813" lon="2.34648">
        <ele>108.4</ele>
        <time>2023-10-11T12:58:28Z</time>
      </trkpt>
      <trkpt lat="49.77813" lon="2.34648">
        <ele>108.4</ele>
        <time>2023-10-11T12:58:29Z</time>
      </trkpt>
      <trkpt lat="49.77814" lon="2.34647">
        <ele>108.4</ele>
        <time>2023-10-11T12:58:30Z</time>
      </trkpt>
      <trkpt lat="49.77815" lon="2.34647">
        <ele>108.4</ele>
        <time>2023-10-11T12:58:31Z</time>
      </trkpt>
      <trkpt lat="49.77815" lon="2.34646">
        <ele>108.4</ele>
        <time>2023-10-11T12:58:32Z</time>
      </trkpt>
      <trkpt lat="49.77816" lon="2.34646">
        <ele>108.4</ele>
        <time>2023-10-11T12:58:33Z</time>
      </trkpt>
      <trkpt lat="49.77817" lon="2.34646">
        <ele>108.4</ele>
        <time>2023-10-11T12:58:34Z</time>
      </trkpt>
      <trkpt lat="49.77817" lon="2.34646">
        <ele>108.5</ele>
        <time>2023-10-11T12:58:35Z</time>
      </trkpt>
      <trkpt lat="49.77818" lon="2.34646">
        <ele>108.5</ele>
        <time>2023-10-11T12:58:36Z</time>
      </trkpt>
      <trkpt lat="49.77819" lon="2.34646">
        <ele>108.5</ele>
        <time>2023-10-11T12:58:37Z</time>
      </trkpt>
      <trkpt lat="49.7782" lon="2.34646">
        <ele>108.5</ele>
        <time>2023-10-11T12:58:38Z</time>
      </trkpt>
      <trkpt lat="49.77822" lon="2.34645">
        <ele>108.5</ele>
        <time>2023-10-11T12:58:39Z</time>
      </trkpt>
      <trkpt lat="49.77823" lon="2.34645">
        <ele>108.5</ele>
        <time>2023-10-11T12:58:41Z</time>
      </trkpt>
      <trkpt lat="49.77824" lon="2.34645">
        <ele>108.5</ele>
        <time>2023-10-11T12:58:42Z</time>
      </trkpt>
      <trkpt lat="49.77825" lon="2.34645">
        <ele>108.5</ele>
        <time>2023-10-11T12:58:43Z</time>
      </trkpt>
      <trkpt lat="49.77826" lon="2.34644">
        <ele>108.5</ele>
        <time>2023-10-11T12:58:44Z</time>
      </trkpt>
      <trkpt lat="49.77827" lon="2.34644">
        <ele>108.5</ele>
        <time>2023-10-11T12:58:45Z</time>
      </trkpt>
      <trkpt lat="49.77828" lon="2.34644">
        <ele>108.6</ele>
        <time>2023-10-11T12:58:46Z</time>
      </trkpt>
      <trkpt lat="49.77829" lon="2.34643">
        <ele>108.6</ele>
        <time>2023-10-11T12:58:47Z</time>
      </trkpt>
      <trkpt lat="49.7783" lon="2.34643">
        <ele>108.6</ele>
        <time>2023-10-11T12:58:48Z</time>
      </trkpt>
      <trkpt lat="49.77831" lon="2.34643">
        <ele>108.6</ele>
        <time>2023-10-11T12:58:49Z</time>
      </trkpt>
      <trkpt lat="49.77832" lon="2.34643">
        <ele>108.6</ele>
        <time>2023-10-11T12:58:50Z</time>
      </trkpt>
      <trkpt lat="49.77833" lon="2.34643">
        <ele>108.6</ele>
        <time>2023-10-11T12:58:51Z</time>
      </trkpt>
      <trkpt lat="49.77833" lon="2.34643">
        <ele>108.6</ele>
        <time>2023-10-11T12:58:52Z</time>
      </trkpt>
      <trkpt lat="49.77835" lon="2.34642">
        <ele>108.6</ele>
        <time>2023-10-11T12:58:53Z</time>
      </trkpt>
      <trkpt lat="49.77836" lon="2.34642">
        <ele>108.6</ele>
        <time>2023-10-11T12:58:54Z</time>
      </trkpt>
      <trkpt lat="49.77837" lon="2.34642">
        <ele>108.6</ele>
        <time>2023-10-11T12:58:55Z</time>
      </trkpt>
      <trkpt lat="49.77837" lon="2.34642">
        <ele>108.6</ele>
        <time>2023-10-11T12:58:56Z</time>
      </trkpt>
      <trkpt lat="49.77839" lon="2.34641">
        <ele>108.6</ele>
        <time>2023-10-11T12:58:57Z</time>
      </trkpt>
      <trkpt lat="49.7784" lon="2.34641">
        <ele>108.6</ele>
        <time>2023-10-11T12:58:58Z</time>
      </trkpt>
      <trkpt lat="49.7784" lon="2.34641">
        <ele>108.6</ele>
        <time>2023-10-11T12:58:59Z</time>
      </trkpt>
      <trkpt lat="49.77841" lon="2.3464">
        <ele>108.6</ele>
        <time>2023-10-11T12:59:00Z</time>
      </trkpt>
      <trkpt lat="49.77842" lon="2.3464">
        <ele>108.6</ele>
        <time>2023-10-11T12:59:01Z</time>
      </trkpt>
      <trkpt lat="49.77843" lon="2.34639">
        <ele>108.6</ele>
        <time>2023-10-11T12:59:02Z</time>
      </trkpt>
      <trkpt lat="49.77844" lon="2.34639">
        <ele>108.6</ele>
        <time>2023-10-11T12:59:03Z</time>
      </trkpt>
      <trkpt lat="49.77845" lon="2.34638">
        <ele>108.6</ele>
        <time>2023-10-11T12:59:04Z</time>
      </trkpt>
      <trkpt lat="49.77846" lon="2.34638">
        <ele>108.6</ele>
        <time>2023-10-11T12:59:05Z</time>
      </trkpt>
      <trkpt lat="49.77847" lon="2.34637">
        <ele>108.6</ele>
        <time>2023-10-11T12:59:06Z</time>
      </trkpt>
      <trkpt lat="49.77849" lon="2.34636">
        <ele>108.6</ele>
        <time>2023-10-11T12:59:07Z</time>
      </trkpt>
      <trkpt lat="49.77849" lon="2.34636">
        <ele>108.6</ele>
        <time>2023-10-11T12:59:08Z</time>
      </trkpt>
      <trkpt lat="49.7785" lon="2.34635">
        <ele>108.6</ele>
        <time>2023-10-11T12:59:09Z</time>
      </trkpt>
      <trkpt lat="49.77852" lon="2.34634">
        <ele>108.6</ele>
        <time>2023-10-11T12:59:10Z</time>
      </trkpt>
      <trkpt lat="49.77853" lon="2.34634">
        <ele>108.6</ele>
        <time>2023-10-11T12:59:11Z</time>
      </trkpt>
      <trkpt lat="49.77854" lon="2.34633">
        <ele>108.6</ele>
        <time>2023-10-11T12:59:12Z</time>
      </trkpt>
      <trkpt lat="49.77855" lon="2.34633">
        <ele>108.6</ele>
        <time>2023-10-11T12:59:13Z</time>
      </trkpt>
      <trkpt lat="49.77856" lon="2.34632">
        <ele>108.6</ele>
        <time>2023-10-11T12:59:14Z</time>
      </trkpt>
      <trkpt lat="49.77858" lon="2.34631">
        <ele>108.6</ele>
        <time>2023-10-11T12:59:15Z</time>
      </trkpt>
      <trkpt lat="49.7786" lon="2.3463">
        <ele>108.6</ele>
        <time>2023-10-11T12:59:17Z</time>
      </trkpt>
      <trkpt lat="49.77861" lon="2.3463">
        <ele>108.6</ele>
        <time>2023-10-11T12:59:18Z</time>
      </trkpt>
      <trkpt lat="49.77862" lon="2.34629">
        <ele>108.6</ele>
        <time>2023-10-11T12:59:19Z</time>
      </trkpt>
      <trkpt lat="49.77864" lon="2.34629">
        <ele>108.6</ele>
        <time>2023-10-11T12:59:20Z</time>
      </trkpt>
      <trkpt lat="49.77865" lon="2.34629">
        <ele>108.6</ele>
        <time>2023-10-11T12:59:21Z</time>
      </trkpt>
      <trkpt lat="49.77867" lon="2.34629">
        <ele>108.6</ele>
        <time>2023-10-11T12:59:22Z</time>
      </trkpt>
      <trkpt lat="49.77869" lon="2.34628">
        <ele>108.6</ele>
        <time>2023-10-11T12:59:23Z</time>
      </trkpt>
      <trkpt lat="49.7787" lon="2.34627">
        <ele>108.6</ele>
        <time>2023-10-11T12:59:24Z</time>
      </trkpt>
      <trkpt lat="49.77871" lon="2.34627">
        <ele>108.6</ele>
        <time>2023-10-11T12:59:25Z</time>
      </trkpt>
      <trkpt lat="49.77873" lon="2.34626">
        <ele>108.6</ele>
        <time>2023-10-11T12:59:26Z</time>
      </trkpt>
      <trkpt lat="49.77873" lon="2.34626">
        <ele>108.6</ele>
        <time>2023-10-11T12:59:27Z</time>
      </trkpt>
      <trkpt lat="49.77874" lon="2.34625">
        <ele>108.6</ele>
        <time>2023-10-11T12:59:28Z</time>
      </trkpt>
      <trkpt lat="49.77876" lon="2.34624">
        <ele>108.6</ele>
        <time>2023-10-11T12:59:29Z</time>
      </trkpt>
      <trkpt lat="49.77877" lon="2.34624">
        <ele>108.6</ele>
        <time>2023-10-11T12:59:30Z</time>
      </trkpt>
      <trkpt lat="49.77878" lon="2.34623">
        <ele>108.6</ele>
        <time>2023-10-11T12:59:31Z</time>
      </trkpt>
      <trkpt lat="49.77879" lon="2.34623">
        <ele>108.6</ele>
        <time>2023-10-11T12:59:32Z</time>
      </trkpt>
      <trkpt lat="49.7788" lon="2.34622">
        <ele>108.6</ele>
        <time>2023-10-11T12:59:33Z</time>
      </trkpt>
      <trkpt lat="49.77882" lon="2.34621">
        <ele>108.6</ele>
        <time>2023-10-11T12:59:34Z</time>
      </trkpt>
      <trkpt lat="49.77883" lon="2.3462">
        <ele>108.6</ele>
        <time>2023-10-11T12:59:35Z</time>
      </trkpt>
      <trkpt lat="49.77885" lon="2.34619">
        <ele>108.6</ele>
        <time>2023-10-11T12:59:36Z</time>
      </trkpt>
      <trkpt lat="49.77886" lon="2.34618">
        <ele>108.6</ele>
        <time>2023-10-11T12:59:37Z</time>
      </trkpt>
      <trkpt lat="49.77887" lon="2.34618">
        <ele>108.6</ele>
        <time>2023-10-11T12:59:38Z</time>
      </trkpt>
      <trkpt lat="49.77889" lon="2.34617">
        <ele>108.7</ele>
        <time>2023-10-11T12:59:39Z</time>
      </trkpt>
      <trkpt lat="49.7789" lon="2.34616">
        <ele>108.7</ele>
        <time>2023-10-11T12:59:40Z</time>
      </trkpt>
      <trkpt lat="49.77891" lon="2.34615">
        <ele>108.7</ele>
        <time>2023-10-11T12:59:41Z</time>
      </trkpt>
      <trkpt lat="49.77893" lon="2.34615">
        <ele>108.9</ele>
        <time>2023-10-11T12:59:42Z</time>
      </trkpt>
      <trkpt lat="49.77895" lon="2.34614">
        <ele>109</ele>
        <time>2023-10-11T12:59:43Z</time>
      </trkpt>
      <trkpt lat="49.77898" lon="2.34614">
        <ele>109.1</ele>
        <time>2023-10-11T12:59:45Z</time>
      </trkpt>
      <trkpt lat="49.77899" lon="2.34613">
        <ele>109.1</ele>
        <time>2023-10-11T12:59:46Z</time>
      </trkpt>
      <trkpt lat="49.77901" lon="2.34613">
        <ele>109.2</ele>
        <time>2023-10-11T12:59:48Z</time>
      </trkpt>
      <trkpt lat="49.77902" lon="2.34613">
        <ele>109.2</ele>
        <time>2023-10-11T12:59:49Z</time>
      </trkpt>
      <trkpt lat="49.77903" lon="2.34611">
        <ele>109.3</ele>
        <time>2023-10-11T12:59:50Z</time>
      </trkpt>
      <trkpt lat="49.77904" lon="2.3461">
        <ele>109.3</ele>
        <time>2023-10-11T12:59:51Z</time>
      </trkpt>
      <trkpt lat="49.77905" lon="2.3461">
        <ele>109.3</ele>
        <time>2023-10-11T12:59:52Z</time>
      </trkpt>
      <trkpt lat="49.77906" lon="2.34609">
        <ele>109.4</ele>
        <time>2023-10-11T12:59:53Z</time>
      </trkpt>
      <trkpt lat="49.77907" lon="2.34608">
        <ele>109.4</ele>
        <time>2023-10-11T12:59:54Z</time>
      </trkpt>
      <trkpt lat="49.77908" lon="2.34607">
        <ele>109.5</ele>
        <time>2023-10-11T12:59:55Z</time>
      </trkpt>
      <trkpt lat="49.77909" lon="2.34607">
        <ele>109.5</ele>
        <time>2023-10-11T12:59:56Z</time>
      </trkpt>
      <trkpt lat="49.7791" lon="2.34606">
        <ele>109.5</ele>
        <time>2023-10-11T12:59:57Z</time>
      </trkpt>
      <trkpt lat="49.77911" lon="2.34606">
        <ele>109.6</ele>
        <time>2023-10-11T12:59:58Z</time>
      </trkpt>
      <trkpt lat="49.77912" lon="2.34605">
        <ele>109.6</ele>
        <time>2023-10-11T12:59:59Z</time>
      </trkpt>
      <trkpt lat="49.77913" lon="2.34605">
        <ele>109.6</ele>
        <time>2023-10-11T13:00:00Z</time>
      </trkpt>
      <trkpt lat="49.77914" lon="2.34605">
        <ele>109.7</ele>
        <time>2023-10-11T13:00:01Z</time>
      </trkpt>
      <trkpt lat="49.77916" lon="2.34605">
        <ele>109.8</ele>
        <time>2023-10-11T13:00:03Z</time>
      </trkpt>
      <trkpt lat="49.77917" lon="2.34605">
        <ele>109.8</ele>
        <time>2023-10-11T13:00:04Z</time>
      </trkpt>
      <trkpt lat="49.77918" lon="2.34605">
        <ele>109.9</ele>
        <time>2023-10-11T13:00:06Z</time>
      </trkpt>
      <trkpt lat="49.77919" lon="2.34605">
        <ele>109.9</ele>
        <time>2023-10-11T13:00:07Z</time>
      </trkpt>
      <trkpt lat="49.7792" lon="2.34606">
        <ele>109.9</ele>
        <time>2023-10-11T13:00:08Z</time>
      </trkpt>
      <trkpt lat="49.7792" lon="2.34606">
        <ele>109.9</ele>
        <time>2023-10-11T13:00:09Z</time>
      </trkpt>
      <trkpt lat="49.77921" lon="2.34606">
        <ele>110</ele>
        <time>2023-10-11T13:00:10Z</time>
      </trkpt>
      <trkpt lat="49.77922" lon="2.34605">
        <ele>110</ele>
        <time>2023-10-11T13:00:11Z</time>
      </trkpt>
      <trkpt lat="49.77922" lon="2.34605">
        <ele>110</ele>
        <time>2023-10-11T13:00:13Z</time>
      </trkpt>
      <trkpt lat="49.77924" lon="2.34605">
        <ele>110.1</ele>
        <time>2023-10-11T13:00:14Z</time>
      </trkpt>
      <trkpt lat="49.77924" lon="2.34606">
        <ele>110.1</ele>
        <time>2023-10-11T13:00:15Z</time>
      </trkpt>
      <trkpt lat="49.77925" lon="2.34606">
        <ele>110.1</ele>
        <time>2023-10-11T13:00:17Z</time>
      </trkpt>
      <trkpt lat="49.77926" lon="2.34606">
        <ele>110.2</ele>
        <time>2023-10-11T13:00:18Z</time>
      </trkpt>
      <trkpt lat="49.77927" lon="2.34606">
        <ele>110.2</ele>
        <time>2023-10-11T13:00:19Z</time>
      </trkpt>
      <trkpt lat="49.77928" lon="2.34606">
        <ele>110.2</ele>
        <time>2023-10-11T13:00:20Z</time>
      </trkpt>
      <trkpt lat="49.77929" lon="2.34606">
        <ele>110.3</ele>
        <time>2023-10-11T13:00:21Z</time>
      </trkpt>
      <trkpt lat="49.7793" lon="2.34607">
        <ele>110.3</ele>
        <time>2023-10-11T13:00:22Z</time>
      </trkpt>
      <trkpt lat="49.77932" lon="2.34607">
        <ele>110.4</ele>
        <time>2023-10-11T13:00:23Z</time>
      </trkpt>
      <trkpt lat="49.77933" lon="2.34607">
        <ele>110.4</ele>
        <time>2023-10-11T13:00:25Z</time>
      </trkpt>
      <trkpt lat="49.77934" lon="2.34607">
        <ele>110.4</ele>
        <time>2023-10-11T13:00:26Z</time>
      </trkpt>
      <trkpt lat="49.77935" lon="2.34607">
        <ele>110.5</ele>
        <time>2023-10-11T13:00:27Z</time>
      </trkpt>
      <trkpt lat="49.77936" lon="2.34607">
        <ele>110.5</ele>
        <time>2023-10-11T13:00:28Z</time>
      </trkpt>
      <trkpt lat="49.77937" lon="2.34607">
        <ele>110.5</ele>
        <time>2023-10-11T13:00:29Z</time>
      </trkpt>
      <trkpt lat="49.77938" lon="2.34607">
        <ele>110.6</ele>
        <time>2023-10-11T13:00:30Z</time>
      </trkpt>
      <trkpt lat="49.77939" lon="2.34607">
        <ele>110.6</ele>
        <time>2023-10-11T13:00:31Z</time>
      </trkpt>
      <trkpt lat="49.7794" lon="2.34607">
        <ele>110.6</ele>
        <time>2023-10-11T13:00:32Z</time>
      </trkpt>
      <trkpt lat="49.77941" lon="2.34607">
        <ele>110.7</ele>
        <time>2023-10-11T13:00:33Z</time>
      </trkpt>
      <trkpt lat="49.77942" lon="2.34607">
        <ele>110.7</ele>
        <time>2023-10-11T13:00:34Z</time>
      </trkpt>
      <trkpt lat="49.77943" lon="2.34607">
        <ele>110.7</ele>
        <time>2023-10-11T13:00:35Z</time>
      </trkpt>
      <trkpt lat="49.77944" lon="2.34607">
        <ele>110.8</ele>
        <time>2023-10-11T13:00:36Z</time>
      </trkpt>
      <trkpt lat="49.77945" lon="2.34607">
        <ele>110.8</ele>
        <time>2023-10-11T13:00:37Z</time>
      </trkpt>
      <trkpt lat="49.77946" lon="2.34607">
        <ele>110.8</ele>
        <time>2023-10-11T13:00:38Z</time>
      </trkpt>
      <trkpt lat="49.77947" lon="2.34608">
        <ele>110.8</ele>
        <time>2023-10-11T13:00:39Z</time>
      </trkpt>
      <trkpt lat="49.77948" lon="2.34608">
        <ele>110.9</ele>
        <time>2023-10-11T13:00:40Z</time>
      </trkpt>
      <trkpt lat="49.77949" lon="2.34608">
        <ele>110.9</ele>
        <time>2023-10-11T13:00:41Z</time>
      </trkpt>
      <trkpt lat="49.7795" lon="2.34608">
        <ele>110.9</ele>
        <time>2023-10-11T13:00:42Z</time>
      </trkpt>
      <trkpt lat="49.77952" lon="2.34608">
        <ele>111</ele>
        <time>2023-10-11T13:00:43Z</time>
      </trkpt>
      <trkpt lat="49.77953" lon="2.34608">
        <ele>111</ele>
        <time>2023-10-11T13:00:44Z</time>
      </trkpt>
      <trkpt lat="49.77954" lon="2.34608">
        <ele>111</ele>
        <time>2023-10-11T13:00:45Z</time>
      </trkpt>
      <trkpt lat="49.77955" lon="2.34608">
        <ele>111</ele>
        <time>2023-10-11T13:00:46Z</time>
      </trkpt>
      <trkpt lat="49.77956" lon="2.34608">
        <ele>111.1</ele>
        <time>2023-10-11T13:00:47Z</time>
      </trkpt>
      <trkpt lat="49.77957" lon="2.34608">
        <ele>111.1</ele>
        <time>2023-10-11T13:00:48Z</time>
      </trkpt>
      <trkpt lat="49.77958" lon="2.34608">
        <ele>111.1</ele>
        <time>2023-10-11T13:00:49Z</time>
      </trkpt>
      <trkpt lat="49.7796" lon="2.34608">
        <ele>111.1</ele>
        <time>2023-10-11T13:00:50Z</time>
      </trkpt>
      <trkpt lat="49.77962" lon="2.34608">
        <ele>111.2</ele>
        <time>2023-10-11T13:00:51Z</time>
      </trkpt>
      <trkpt lat="49.77964" lon="2.34608">
        <ele>111.2</ele>
        <time>2023-10-11T13:00:52Z</time>
      </trkpt>
      <trkpt lat="49.77964" lon="2.34608">
        <ele>111.2</ele>
        <time>2023-10-11T13:00:53Z</time>
      </trkpt>
      <trkpt lat="49.77965" lon="2.34607">
        <ele>111.3</ele>
        <time>2023-10-11T13:00:55Z</time>
      </trkpt>
      <trkpt lat="49.77967" lon="2.34607">
        <ele>111.3</ele>
        <time>2023-10-11T13:00:56Z</time>
      </trkpt>
      <trkpt lat="49.77968" lon="2.34607">
        <ele>111.3</ele>
        <time>2023-10-11T13:00:57Z</time>
      </trkpt>
      <trkpt lat="49.7797" lon="2.34607">
        <ele>111.4</ele>
        <time>2023-10-11T13:00:58Z</time>
      </trkpt>
      <trkpt lat="49.77971" lon="2.34606">
        <ele>111.4</ele>
        <time>2023-10-11T13:00:59Z</time>
      </trkpt>
      <trkpt lat="49.77971" lon="2.34606">
        <ele>111.4</ele>
        <time>2023-10-11T13:01:00Z</time>
      </trkpt>
      <trkpt lat="49.77973" lon="2.34606">
        <ele>111.4</ele>
        <time>2023-10-11T13:01:01Z</time>
      </trkpt>
      <trkpt lat="49.77974" lon="2.34606">
        <ele>111.4</ele>
        <time>2023-10-11T13:01:02Z</time>
      </trkpt>
      <trkpt lat="49.77975" lon="2.34606">
        <ele>111.5</ele>
        <time>2023-10-11T13:01:03Z</time>
      </trkpt>
      <trkpt lat="49.77976" lon="2.34606">
        <ele>111.5</ele>
        <time>2023-10-11T13:01:04Z</time>
      </trkpt>
      <trkpt lat="49.77977" lon="2.34606">
        <ele>111.5</ele>
        <time>2023-10-11T13:01:05Z</time>
      </trkpt>
      <trkpt lat="49.77979" lon="2.34605">
        <ele>111.5</ele>
        <time>2023-10-11T13:01:06Z</time>
      </trkpt>
      <trkpt lat="49.77981" lon="2.34605">
        <ele>111.6</ele>
        <time>2023-10-11T13:01:08Z</time>
      </trkpt>
      <trkpt lat="49.77982" lon="2.34605">
        <ele>111.6</ele>
        <time>2023-10-11T13:01:09Z</time>
      </trkpt>
      <trkpt lat="49.77983" lon="2.34605">
        <ele>111.6</ele>
        <time>2023-10-11T13:01:10Z</time>
      </trkpt>
      <trkpt lat="49.77984" lon="2.34605">
        <ele>111.6</ele>
        <time>2023-10-11T13:01:11Z</time>
      </trkpt>
      <trkpt lat="49.77985" lon="2.34605">
        <ele>111.7</ele>
        <time>2023-10-11T13:01:12Z</time>
      </trkpt>
      <trkpt lat="49.77986" lon="2.34605">
        <ele>111.7</ele>
        <time>2023-10-11T13:01:13Z</time>
      </trkpt>
      <trkpt lat="49.77987" lon="2.34605">
        <ele>111.7</ele>
        <time>2023-10-11T13:01:14Z</time>
      </trkpt>
      <trkpt lat="49.77988" lon="2.34605">
        <ele>111.7</ele>
        <time>2023-10-11T13:01:15Z</time>
      </trkpt>
      <trkpt lat="49.7799" lon="2.34605">
        <ele>111.8</ele>
        <time>2023-10-11T13:01:16Z</time>
      </trkpt>
      <trkpt lat="49.77991" lon="2.34605">
        <ele>111.8</ele>
        <time>2023-10-11T13:01:17Z</time>
      </trkpt>
      <trkpt lat="49.77993" lon="2.34605">
        <ele>111.8</ele>
        <time>2023-10-11T13:01:18Z</time>
      </trkpt>
      <trkpt lat="49.77994" lon="2.34605">
        <ele>111.8</ele>
        <time>2023-10-11T13:01:20Z</time>
      </trkpt>
      <trkpt lat="49.77995" lon="2.34605">
        <ele>111.9</ele>
        <time>2023-10-11T13:01:21Z</time>
      </trkpt>
      <trkpt lat="49.77996" lon="2.34605">
        <ele>111.9</ele>
        <time>2023-10-11T13:01:22Z</time>
      </trkpt>
      <trkpt lat="49.77998" lon="2.34605">
        <ele>111.9</ele>
        <time>2023-10-11T13:01:23Z</time>
      </trkpt>
      <trkpt lat="49.77999" lon="2.34605">
        <ele>111.9</ele>
        <time>2023-10-11T13:01:24Z</time>
      </trkpt>
      <trkpt lat="49.78001" lon="2.34605">
        <ele>112</ele>
        <time>2023-10-11T13:01:25Z</time>
      </trkpt>
      <trkpt lat="49.78002" lon="2.34605">
        <ele>112</ele>
        <time>2023-10-11T13:01:27Z</time>
      </trkpt>
      <trkpt lat="49.78004" lon="2.34605">
        <ele>112</ele>
        <time>2023-10-11T13:01:28Z</time>
      </trkpt>
      <trkpt lat="49.78005" lon="2.34605">
        <ele>112</ele>
        <time>2023-10-11T13:01:29Z</time>
      </trkpt>
      <trkpt lat="49.78006" lon="2.34605">
        <ele>112.1</ele>
        <time>2023-10-11T13:01:30Z</time>
      </trkpt>
      <trkpt lat="49.78007" lon="2.34605">
        <ele>112.1</ele>
        <time>2023-10-11T13:01:31Z</time>
      </trkpt>
      <trkpt lat="49.7801" lon="2.34605">
        <ele>112.1</ele>
        <time>2023-10-11T13:01:32Z</time>
      </trkpt>
      <trkpt lat="49.78012" lon="2.34605">
        <ele>112.1</ele>
        <time>2023-10-11T13:01:34Z</time>
      </trkpt>
      <trkpt lat="49.78012" lon="2.34605">
        <ele>112.1</ele>
        <time>2023-10-11T13:01:35Z</time>
      </trkpt>
      <trkpt lat="49.78014" lon="2.34605">
        <ele>112.2</ele>
        <time>2023-10-11T13:01:36Z</time>
      </trkpt>
      <trkpt lat="49.78015" lon="2.34605">
        <ele>112.2</ele>
        <time>2023-10-11T13:01:37Z</time>
      </trkpt>
      <trkpt lat="49.78016" lon="2.34605">
        <ele>112.2</ele>
        <time>2023-10-11T13:01:38Z</time>
      </trkpt>
      <trkpt lat="49.78017" lon="2.34606">
        <ele>112.2</ele>
        <time>2023-10-11T13:01:39Z</time>
      </trkpt>
      <trkpt lat="49.78018" lon="2.34606">
        <ele>112.2</ele>
        <time>2023-10-11T13:01:40Z</time>
      </trkpt>
      <trkpt lat="49.78019" lon="2.34606">
        <ele>112.2</ele>
        <time>2023-10-11T13:01:41Z</time>
      </trkpt>
      <trkpt lat="49.78022" lon="2.34606">
        <ele>112.2</ele>
        <time>2023-10-11T13:01:42Z</time>
      </trkpt>
      <trkpt lat="49.78022" lon="2.34606">
        <ele>112.3</ele>
        <time>2023-10-11T13:01:43Z</time>
      </trkpt>
      <trkpt lat="49.78023" lon="2.34606">
        <ele>112.3</ele>
        <time>2023-10-11T13:01:44Z</time>
      </trkpt>
      <trkpt lat="49.78025" lon="2.34606">
        <ele>112.3</ele>
        <time>2023-10-11T13:01:45Z</time>
      </trkpt>
      <trkpt lat="49.78026" lon="2.34606">
        <ele>112.3</ele>
        <time>2023-10-11T13:01:46Z</time>
      </trkpt>
      <trkpt lat="49.78027" lon="2.34606">
        <ele>112.3</ele>
        <time>2023-10-11T13:01:47Z</time>
      </trkpt>
      <trkpt lat="49.78028" lon="2.34606">
        <ele>112.3</ele>
        <time>2023-10-11T13:01:48Z</time>
      </trkpt>
      <trkpt lat="49.78029" lon="2.34606">
        <ele>112.3</ele>
        <time>2023-10-11T13:01:49Z</time>
      </trkpt>
      <trkpt lat="49.7803" lon="2.34606">
        <ele>112.3</ele>
        <time>2023-10-11T13:01:50Z</time>
      </trkpt>
      <trkpt lat="49.78032" lon="2.34606">
        <ele>112.3</ele>
        <time>2023-10-11T13:01:51Z</time>
      </trkpt>
      <trkpt lat="49.78033" lon="2.34606">
        <ele>112.3</ele>
        <time>2023-10-11T13:01:52Z</time>
      </trkpt>
      <trkpt lat="49.78034" lon="2.34606">
        <ele>112.3</ele>
        <time>2023-10-11T13:01:53Z</time>
      </trkpt>
      <trkpt lat="49.78035" lon="2.34606">
        <ele>112.4</ele>
        <time>2023-10-11T13:01:54Z</time>
      </trkpt>
      <trkpt lat="49.78036" lon="2.34606">
        <ele>112.4</ele>
        <time>2023-10-11T13:01:55Z</time>
      </trkpt>
      <trkpt lat="49.78037" lon="2.34606">
        <ele>112.4</ele>
        <time>2023-10-11T13:01:56Z</time>
      </trkpt>
      <trkpt lat="49.78039" lon="2.34606">
        <ele>112.4</ele>
        <time>2023-10-11T13:01:57Z</time>
      </trkpt>
      <trkpt lat="49.7804" lon="2.34606">
        <ele>112.4</ele>
        <time>2023-10-11T13:01:58Z</time>
      </trkpt>
      <trkpt lat="49.78041" lon="2.34606">
        <ele>112.4</ele>
        <time>2023-10-11T13:01:59Z</time>
      </trkpt>
      <trkpt lat="49.78043" lon="2.34606">
        <ele>112.4</ele>
        <time>2023-10-11T13:02:00Z</time>
      </trkpt>
      <trkpt lat="49.78044" lon="2.34605">
        <ele>112.4</ele>
        <time>2023-10-11T13:02:01Z</time>
      </trkpt>
      <trkpt lat="49.78045" lon="2.34605">
        <ele>112.4</ele>
        <time>2023-10-11T13:02:02Z</time>
      </trkpt>
      <trkpt lat="49.78046" lon="2.34605">
        <ele>112.4</ele>
        <time>2023-10-11T13:02:03Z</time>
      </trkpt>
      <trkpt lat="49.78047" lon="2.34605">
        <ele>112.4</ele>
        <time>2023-10-11T13:02:04Z</time>
      </trkpt>
      <trkpt lat="49.78048" lon="2.34605">
        <ele>112.5</ele>
        <time>2023-10-11T13:02:05Z</time>
      </trkpt>
      <trkpt lat="49.78049" lon="2.34605">
        <ele>112.5</ele>
        <time>2023-10-11T13:02:06Z</time>
      </trkpt>
      <trkpt lat="49.7805" lon="2.34605">
        <ele>112.5</ele>
        <time>2023-10-11T13:02:07Z</time>
      </trkpt>
      <trkpt lat="49.78051" lon="2.34605">
        <ele>112.5</ele>
        <time>2023-10-11T13:02:08Z</time>
      </trkpt>
      <trkpt lat="49.78053" lon="2.34606">
        <ele>112.5</ele>
        <time>2023-10-11T13:02:09Z</time>
      </trkpt>
      <trkpt lat="49.78054" lon="2.34606">
        <ele>112.5</ele>
        <time>2023-10-11T13:02:10Z</time>
      </trkpt>
      <trkpt lat="49.78056" lon="2.34606">
        <ele>112.5</ele>
        <time>2023-10-11T13:02:11Z</time>
      </trkpt>
      <trkpt lat="49.78057" lon="2.34606">
        <ele>112.5</ele>
        <time>2023-10-11T13:02:13Z</time>
      </trkpt>
      <trkpt lat="49.78058" lon="2.34606">
        <ele>112.5</ele>
        <time>2023-10-11T13:02:14Z</time>
      </trkpt>
      <trkpt lat="49.7806" lon="2.34606">
        <ele>112.5</ele>
        <time>2023-10-11T13:02:15Z</time>
      </trkpt>
      <trkpt lat="49.78062" lon="2.34607">
        <ele>112.6</ele>
        <time>2023-10-11T13:02:16Z</time>
      </trkpt>
      <trkpt lat="49.78063" lon="2.34607">
        <ele>112.6</ele>
        <time>2023-10-11T13:02:18Z</time>
      </trkpt>
      <trkpt lat="49.78064" lon="2.34607">
        <ele>112.6</ele>
        <time>2023-10-11T13:02:19Z</time>
      </trkpt>
      <trkpt lat="49.78065" lon="2.34607">
        <ele>112.6</ele>
        <time>2023-10-11T13:02:20Z</time>
      </trkpt>
      <trkpt lat="49.78066" lon="2.34607">
        <ele>112.6</ele>
        <time>2023-10-11T13:02:21Z</time>
      </trkpt>
      <trkpt lat="49.78067" lon="2.34607">
        <ele>112.6</ele>
        <time>2023-10-11T13:02:22Z</time>
      </trkpt>
      <trkpt lat="49.78068" lon="2.34608">
        <ele>112.7</ele>
        <time>2023-10-11T13:02:23Z</time>
      </trkpt>
      <trkpt lat="49.78069" lon="2.34608">
        <ele>112.7</ele>
        <time>2023-10-11T13:02:24Z</time>
      </trkpt>
      <trkpt lat="49.7807" lon="2.34608">
        <ele>112.7</ele>
        <time>2023-10-11T13:02:25Z</time>
      </trkpt>
      <trkpt lat="49.78071" lon="2.34608">
        <ele>112.7</ele>
        <time>2023-10-11T13:02:26Z</time>
      </trkpt>
      <trkpt lat="49.78073" lon="2.34609">
        <ele>112.7</ele>
        <time>2023-10-11T13:02:27Z</time>
      </trkpt>
      <trkpt lat="49.78074" lon="2.34609">
        <ele>112.7</ele>
        <time>2023-10-11T13:02:29Z</time>
      </trkpt>
      <trkpt lat="49.78075" lon="2.34609">
        <ele>112.8</ele>
        <time>2023-10-11T13:02:30Z</time>
      </trkpt>
      <trkpt lat="49.78076" lon="2.34609">
        <ele>112.8</ele>
        <time>2023-10-11T13:02:31Z</time>
      </trkpt>
      <trkpt lat="49.78077" lon="2.34609">
        <ele>112.8</ele>
        <time>2023-10-11T13:02:32Z</time>
      </trkpt>
      <trkpt lat="49.78078" lon="2.34608">
        <ele>112.8</ele>
        <time>2023-10-11T13:02:33Z</time>
      </trkpt>
      <trkpt lat="49.78079" lon="2.34609">
        <ele>112.8</ele>
        <time>2023-10-11T13:02:34Z</time>
      </trkpt>
      <trkpt lat="49.7808" lon="2.34609">
        <ele>112.8</ele>
        <time>2023-10-11T13:02:35Z</time>
      </trkpt>
      <trkpt lat="49.78082" lon="2.34609">
        <ele>112.9</ele>
        <time>2023-10-11T13:02:36Z</time>
      </trkpt>
      <trkpt lat="49.78083" lon="2.34609">
        <ele>112.9</ele>
        <time>2023-10-11T13:02:37Z</time>
      </trkpt>
      <trkpt lat="49.78084" lon="2.34609">
        <ele>112.9</ele>
        <time>2023-10-11T13:02:38Z</time>
      </trkpt>
      <trkpt lat="49.78085" lon="2.34609">
        <ele>112.9</ele>
        <time>2023-10-11T13:02:39Z</time>
      </trkpt>
      <trkpt lat="49.78086" lon="2.34609">
        <ele>112.9</ele>
        <time>2023-10-11T13:02:40Z</time>
      </trkpt>
      <trkpt lat="49.78087" lon="2.34609">
        <ele>112.9</ele>
        <time>2023-10-11T13:02:41Z</time>
      </trkpt>
      <trkpt lat="49.78088" lon="2.34609">
        <ele>112.9</ele>
        <time>2023-10-11T13:02:42Z</time>
      </trkpt>
      <trkpt lat="49.7809" lon="2.34609">
        <ele>113</ele>
        <time>2023-10-11T13:02:43Z</time>
      </trkpt>
      <trkpt lat="49.78091" lon="2.34609">
        <ele>113</ele>
        <time>2023-10-11T13:02:45Z</time>
      </trkpt>
      <trkpt lat="49.78092" lon="2.34609">
        <ele>113</ele>
        <time>2023-10-11T13:02:46Z</time>
      </trkpt>
      <trkpt lat="49.78093" lon="2.34609">
        <ele>113</ele>
        <time>2023-10-11T13:02:47Z</time>
      </trkpt>
      <trkpt lat="49.78094" lon="2.34609">
        <ele>113</ele>
        <time>2023-10-11T13:02:48Z</time>
      </trkpt>
      <trkpt lat="49.78095" lon="2.34609">
        <ele>113</ele>
        <time>2023-10-11T13:02:49Z</time>
      </trkpt>
      <trkpt lat="49.78096" lon="2.34609">
        <ele>113</ele>
        <time>2023-10-11T13:02:50Z</time>
      </trkpt>
      <trkpt lat="49.78097" lon="2.34609">
        <ele>113.1</ele>
        <time>2023-10-11T13:02:51Z</time>
      </trkpt>
      <trkpt lat="49.78098" lon="2.34609">
        <ele>113.1</ele>
        <time>2023-10-11T13:02:52Z</time>
      </trkpt>
      <trkpt lat="49.78099" lon="2.34609">
        <ele>113.1</ele>
        <time>2023-10-11T13:02:53Z</time>
      </trkpt>
      <trkpt lat="49.781" lon="2.34609">
        <ele>113.1</ele>
        <time>2023-10-11T13:02:54Z</time>
      </trkpt>
      <trkpt lat="49.78101" lon="2.34609">
        <ele>113.1</ele>
        <time>2023-10-11T13:02:55Z</time>
      </trkpt>
      <trkpt lat="49.78102" lon="2.34609">
        <ele>113.1</ele>
        <time>2023-10-11T13:02:56Z</time>
      </trkpt>
      <trkpt lat="49.78103" lon="2.34609">
        <ele>113.1</ele>
        <time>2023-10-11T13:02:57Z</time>
      </trkpt>
      <trkpt lat="49.78104" lon="2.34609">
        <ele>113.1</ele>
        <time>2023-10-11T13:02:58Z</time>
      </trkpt>
      <trkpt lat="49.78105" lon="2.34609">
        <ele>113.2</ele>
        <time>2023-10-11T13:02:59Z</time>
      </trkpt>
      <trkpt lat="49.78106" lon="2.34609">
        <ele>113.2</ele>
        <time>2023-10-11T13:03:00Z</time>
      </trkpt>
      <trkpt lat="49.78107" lon="2.34609">
        <ele>113.2</ele>
        <time>2023-10-11T13:03:01Z</time>
      </trkpt>
      <trkpt lat="49.78108" lon="2.34609">
        <ele>113.2</ele>
        <time>2023-10-11T13:03:02Z</time>
      </trkpt>
      <trkpt lat="49.78109" lon="2.34609">
        <ele>113.2</ele>
        <time>2023-10-11T13:03:03Z</time>
      </trkpt>
      <trkpt lat="49.7811" lon="2.34609">
        <ele>113.2</ele>
        <time>2023-10-11T13:03:04Z</time>
      </trkpt>
      <trkpt lat="49.78111" lon="2.34609">
        <ele>113.2</ele>
        <time>2023-10-11T13:03:05Z</time>
      </trkpt>
      <trkpt lat="49.78112" lon="2.34609">
        <ele>113.2</ele>
        <time>2023-10-11T13:03:06Z</time>
      </trkpt>
      <trkpt lat="49.78113" lon="2.34609">
        <ele>113.2</ele>
        <time>2023-10-11T13:03:07Z</time>
      </trkpt>
      <trkpt lat="49.78114" lon="2.34609">
        <ele>113.3</ele>
        <time>2023-10-11T13:03:08Z</time>
      </trkpt>
      <trkpt lat="49.78115" lon="2.34609">
        <ele>113.3</ele>
        <time>2023-10-11T13:03:09Z</time>
      </trkpt>
      <trkpt lat="49.78116" lon="2.34609">
        <ele>113.3</ele>
        <time>2023-10-11T13:03:10Z</time>
      </trkpt>
      <trkpt lat="49.78117" lon="2.34609">
        <ele>113.3</ele>
        <time>2023-10-11T13:03:11Z</time>
      </trkpt>
      <trkpt lat="49.78118" lon="2.34609">
        <ele>113.3</ele>
        <time>2023-10-11T13:03:12Z</time>
      </trkpt>
      <trkpt lat="49.78119" lon="2.3461">
        <ele>113.3</ele>
        <time>2023-10-11T13:03:13Z</time>
      </trkpt>
      <trkpt lat="49.7812" lon="2.3461">
        <ele>113.3</ele>
        <time>2023-10-11T13:03:14Z</time>
      </trkpt>
      <trkpt lat="49.78121" lon="2.3461">
        <ele>113.4</ele>
        <time>2023-10-11T13:03:15Z</time>
      </trkpt>
      <trkpt lat="49.78122" lon="2.3461">
        <ele>113.4</ele>
        <time>2023-10-11T13:03:16Z</time>
      </trkpt>
      <trkpt lat="49.78124" lon="2.3461">
        <ele>113.4</ele>
        <time>2023-10-11T13:03:17Z</time>
      </trkpt>
      <trkpt lat="49.78125" lon="2.34611">
        <ele>113.4</ele>
        <time>2023-10-11T13:03:18Z</time>
      </trkpt>
      <trkpt lat="49.78126" lon="2.34611">
        <ele>113.4</ele>
        <time>2023-10-11T13:03:19Z</time>
      </trkpt>
      <trkpt lat="49.78127" lon="2.34611">
        <ele>113.4</ele>
        <time>2023-10-11T13:03:20Z</time>
      </trkpt>
      <trkpt lat="49.78129" lon="2.34611">
        <ele>113.5</ele>
        <time>2023-10-11T13:03:21Z</time>
      </trkpt>
      <trkpt lat="49.7813" lon="2.34611">
        <ele>113.5</ele>
        <time>2023-10-11T13:03:23Z</time>
      </trkpt>
      <trkpt lat="49.78131" lon="2.34611">
        <ele>113.5</ele>
        <time>2023-10-11T13:03:24Z</time>
      </trkpt>
      <trkpt lat="49.78132" lon="2.34611">
        <ele>113.5</ele>
        <time>2023-10-11T13:03:25Z</time>
      </trkpt>
      <trkpt lat="49.78133" lon="2.34612">
        <ele>113.5</ele>
        <time>2023-10-11T13:03:26Z</time>
      </trkpt>
      <trkpt lat="49.78134" lon="2.34612">
        <ele>113.6</ele>
        <time>2023-10-11T13:03:27Z</time>
      </trkpt>
      <trkpt lat="49.78135" lon="2.34612">
        <ele>113.6</ele>
        <time>2023-10-11T13:03:28Z</time>
      </trkpt>
      <trkpt lat="49.78136" lon="2.34612">
        <ele>113.6</ele>
        <time>2023-10-11T13:03:29Z</time>
      </trkpt>
      <trkpt lat="49.78137" lon="2.34612">
        <ele>113.6</ele>
        <time>2023-10-11T13:03:30Z</time>
      </trkpt>
      <trkpt lat="49.78138" lon="2.34612">
        <ele>113.6</ele>
        <time>2023-10-11T13:03:31Z</time>
      </trkpt>
      <trkpt lat="49.78139" lon="2.34612">
        <ele>113.6</ele>
        <time>2023-10-11T13:03:32Z</time>
      </trkpt>
      <trkpt lat="49.7814" lon="2.34613">
        <ele>113.7</ele>
        <time>2023-10-11T13:03:33Z</time>
      </trkpt>
      <trkpt lat="49.78141" lon="2.34613">
        <ele>113.7</ele>
        <time>2023-10-11T13:03:34Z</time>
      </trkpt>
      <trkpt lat="49.78142" lon="2.34613">
        <ele>113.7</ele>
        <time>2023-10-11T13:03:35Z</time>
      </trkpt>
      <trkpt lat="49.78144" lon="2.34613">
        <ele>113.7</ele>
        <time>2023-10-11T13:03:36Z</time>
      </trkpt>
      <trkpt lat="49.78145" lon="2.34613">
        <ele>113.8</ele>
        <time>2023-10-11T13:03:37Z</time>
      </trkpt>
      <trkpt lat="49.78146" lon="2.34613">
        <ele>113.8</ele>
        <time>2023-10-11T13:03:38Z</time>
      </trkpt>
      <trkpt lat="49.78148" lon="2.34613">
        <ele>113.8</ele>
        <time>2023-10-11T13:03:39Z</time>
      </trkpt>
      <trkpt lat="49.78149" lon="2.34613">
        <ele>113.8</ele>
        <time>2023-10-11T13:03:41Z</time>
      </trkpt>
      <trkpt lat="49.7815" lon="2.34613">
        <ele>113.9</ele>
        <time>2023-10-11T13:03:42Z</time>
      </trkpt>
      <trkpt lat="49.78151" lon="2.34613">
        <ele>113.9</ele>
        <time>2023-10-11T13:03:43Z</time>
      </trkpt>
      <trkpt lat="49.78152" lon="2.34614">
        <ele>113.9</ele>
        <time>2023-10-11T13:03:44Z</time>
      </trkpt>
      <trkpt lat="49.78153" lon="2.34614">
        <ele>113.9</ele>
        <time>2023-10-11T13:03:45Z</time>
      </trkpt>
      <trkpt lat="49.78155" lon="2.34614">
        <ele>113.9</ele>
        <time>2023-10-11T13:03:46Z</time>
      </trkpt>
      <trkpt lat="49.78156" lon="2.34614">
        <ele>114</ele>
        <time>2023-10-11T13:03:47Z</time>
      </trkpt>
      <trkpt lat="49.78157" lon="2.34614">
        <ele>114</ele>
        <time>2023-10-11T13:03:48Z</time>
      </trkpt>
      <trkpt lat="49.78158" lon="2.34614">
        <ele>114</ele>
        <time>2023-10-11T13:03:49Z</time>
      </trkpt>
      <trkpt lat="49.78159" lon="2.34614">
        <ele>114</ele>
        <time>2023-10-11T13:03:50Z</time>
      </trkpt>
      <trkpt lat="49.7816" lon="2.34614">
        <ele>114</ele>
        <time>2023-10-11T13:03:51Z</time>
      </trkpt>
      <trkpt lat="49.78161" lon="2.34614">
        <ele>114.1</ele>
        <time>2023-10-11T13:03:52Z</time>
      </trkpt>
      <trkpt lat="49.78162" lon="2.34615">
        <ele>114.1</ele>
        <time>2023-10-11T13:03:53Z</time>
      </trkpt>
      <trkpt lat="49.78163" lon="2.34615">
        <ele>114.1</ele>
        <time>2023-10-11T13:03:54Z</time>
      </trkpt>
      <trkpt lat="49.78164" lon="2.34615">
        <ele>114.1</ele>
        <time>2023-10-11T13:03:55Z</time>
      </trkpt>
      <trkpt lat="49.78165" lon="2.34615">
        <ele>114.1</ele>
        <time>2023-10-11T13:03:56Z</time>
      </trkpt>
      <trkpt lat="49.78168" lon="2.34616">
        <ele>114.2</ele>
        <time>2023-10-11T13:03:57Z</time>
      </trkpt>
      <trkpt lat="49.78169" lon="2.34616">
        <ele>114.2</ele>
        <time>2023-10-11T13:03:59Z</time>
      </trkpt>
      <trkpt lat="49.78171" lon="2.34616">
        <ele>114.2</ele>
        <time>2023-10-11T13:04:00Z</time>
      </trkpt>
      <trkpt lat="49.78172" lon="2.34616">
        <ele>114.2</ele>
        <time>2023-10-11T13:04:02Z</time>
      </trkpt>
      <trkpt lat="49.78173" lon="2.34616">
        <ele>114.3</ele>
        <time>2023-10-11T13:04:03Z</time>
      </trkpt>
      <trkpt lat="49.78174" lon="2.34616">
        <ele>114.3</ele>
        <time>2023-10-11T13:04:04Z</time>
      </trkpt>
      <trkpt lat="49.78175" lon="2.34616">
        <ele>114.3</ele>
        <time>2023-10-11T13:04:05Z</time>
      </trkpt>
      <trkpt lat="49.78176" lon="2.34616">
        <ele>114.3</ele>
        <time>2023-10-11T13:04:06Z</time>
      </trkpt>
      <trkpt lat="49.78177" lon="2.34616">
        <ele>114.3</ele>
        <time>2023-10-11T13:04:07Z</time>
      </trkpt>
      <trkpt lat="49.78178" lon="2.34616">
        <ele>114.3</ele>
        <time>2023-10-11T13:04:08Z</time>
      </trkpt>
      <trkpt lat="49.78179" lon="2.34616">
        <ele>114.4</ele>
        <time>2023-10-11T13:04:09Z</time>
      </trkpt>
      <trkpt lat="49.78181" lon="2.34617">
        <ele>114.4</ele>
        <time>2023-10-11T13:04:10Z</time>
      </trkpt>
      <trkpt lat="49.78182" lon="2.34617">
        <ele>114.4</ele>
        <time>2023-10-11T13:04:12Z</time>
      </trkpt>
      <trkpt lat="49.78184" lon="2.34617">
        <ele>114.4</ele>
        <time>2023-10-11T13:04:13Z</time>
      </trkpt>
      <trkpt lat="49.78186" lon="2.34616">
        <ele>114.5</ele>
        <time>2023-10-11T13:04:14Z</time>
      </trkpt>
      <trkpt lat="49.78187" lon="2.34616">
        <ele>114.5</ele>
        <time>2023-10-11T13:04:16Z</time>
      </trkpt>
      <trkpt lat="49.78188" lon="2.34616">
        <ele>114.5</ele>
        <time>2023-10-11T13:04:17Z</time>
      </trkpt>
      <trkpt lat="49.78189" lon="2.34616">
        <ele>114.5</ele>
        <time>2023-10-11T13:04:18Z</time>
      </trkpt>
      <trkpt lat="49.7819" lon="2.34616">
        <ele>114.5</ele>
        <time>2023-10-11T13:04:19Z</time>
      </trkpt>
      <trkpt lat="49.78191" lon="2.34617">
        <ele>114.5</ele>
        <time>2023-10-11T13:04:20Z</time>
      </trkpt>
      <trkpt lat="49.78192" lon="2.34617">
        <ele>114.6</ele>
        <time>2023-10-11T13:04:21Z</time>
      </trkpt>
      <trkpt lat="49.78193" lon="2.34617">
        <ele>114.6</ele>
        <time>2023-10-11T13:04:22Z</time>
      </trkpt>
      <trkpt lat="49.78194" lon="2.34616">
        <ele>114.6</ele>
        <time>2023-10-11T13:04:23Z</time>
      </trkpt>
      <trkpt lat="49.78195" lon="2.34616">
        <ele>114.6</ele>
        <time>2023-10-11T13:04:24Z</time>
      </trkpt>
      <trkpt lat="49.78196" lon="2.34616">
        <ele>114.6</ele>
        <time>2023-10-11T13:04:25Z</time>
      </trkpt>
      <trkpt lat="49.78197" lon="2.34616">
        <ele>114.6</ele>
        <time>2023-10-11T13:04:26Z</time>
      </trkpt>
      <trkpt lat="49.78199" lon="2.34616">
        <ele>114.7</ele>
        <time>2023-10-11T13:04:27Z</time>
      </trkpt>
      <trkpt lat="49.782" lon="2.34616">
        <ele>114.7</ele>
        <time>2023-10-11T13:04:29Z</time>
      </trkpt>
      <trkpt lat="49.78201" lon="2.34616">
        <ele>114.7</ele>
        <time>2023-10-11T13:04:30Z</time>
      </trkpt>
      <trkpt lat="49.78202" lon="2.34617">
        <ele>114.7</ele>
        <time>2023-10-11T13:04:31Z</time>
      </trkpt>
      <trkpt lat="49.78203" lon="2.34617">
        <ele>114.7</ele>
        <time>2023-10-11T13:04:32Z</time>
      </trkpt>
      <trkpt lat="49.78204" lon="2.34617">
        <ele>114.8</ele>
        <time>2023-10-11T13:04:33Z</time>
      </trkpt>
      <trkpt lat="49.78205" lon="2.34617">
        <ele>114.8</ele>
        <time>2023-10-11T13:04:34Z</time>
      </trkpt>
      <trkpt lat="49.78206" lon="2.34617">
        <ele>114.8</ele>
        <time>2023-10-11T13:04:35Z</time>
      </trkpt>
      <trkpt lat="49.78207" lon="2.34617">
        <ele>114.8</ele>
        <time>2023-10-11T13:04:36Z</time>
      </trkpt>
      <trkpt lat="49.78208" lon="2.34616">
        <ele>114.8</ele>
        <time>2023-10-11T13:04:37Z</time>
      </trkpt>
      <trkpt lat="49.78209" lon="2.34616">
        <ele>114.8</ele>
        <time>2023-10-11T13:04:38Z</time>
      </trkpt>
      <trkpt lat="49.7821" lon="2.34616">
        <ele>114.9</ele>
        <time>2023-10-11T13:04:39Z</time>
      </trkpt>
      <trkpt lat="49.78211" lon="2.34616">
        <ele>114.9</ele>
        <time>2023-10-11T13:04:40Z</time>
      </trkpt>
      <trkpt lat="49.78212" lon="2.34616">
        <ele>114.9</ele>
        <time>2023-10-11T13:04:41Z</time>
      </trkpt>
      <trkpt lat="49.78212" lon="2.34616">
        <ele>114.9</ele>
        <time>2023-10-11T13:04:42Z</time>
      </trkpt>
      <trkpt lat="49.78213" lon="2.34616">
        <ele>114.9</ele>
        <time>2023-10-11T13:04:43Z</time>
      </trkpt>
      <trkpt lat="49.78214" lon="2.34616">
        <ele>114.9</ele>
        <time>2023-10-11T13:04:44Z</time>
      </trkpt>
      <trkpt lat="49.78216" lon="2.34616">
        <ele>115</ele>
        <time>2023-10-11T13:04:45Z</time>
      </trkpt>
      <trkpt lat="49.78216" lon="2.34616">
        <ele>115</ele>
        <time>2023-10-11T13:04:47Z</time>
      </trkpt>
      <trkpt lat="49.78217" lon="2.34616">
        <ele>115</ele>
        <time>2023-10-11T13:04:48Z</time>
      </trkpt>
      <trkpt lat="49.78218" lon="2.34616">
        <ele>115</ele>
        <time>2023-10-11T13:04:49Z</time>
      </trkpt>
      <trkpt lat="49.78219" lon="2.34615">
        <ele>115</ele>
        <time>2023-10-11T13:04:50Z</time>
      </trkpt>
      <trkpt lat="49.78219" lon="2.34614">
        <ele>115</ele>
        <time>2023-10-11T13:04:52Z</time>
      </trkpt>
      <trkpt lat="49.78219" lon="2.34614">
        <ele>115</ele>
        <time>2023-10-11T13:04:53Z</time>
      </trkpt>
      <trkpt lat="49.78219" lon="2.34613">
        <ele>115.1</ele>
        <time>2023-10-11T13:04:54Z</time>
      </trkpt>
      <trkpt lat="49.78218" lon="2.34613">
        <ele>115.1</ele>
        <time>2023-10-11T13:04:55Z</time>
      </trkpt>
      <trkpt lat="49.78218" lon="2.34613">
        <ele>115.1</ele>
        <time>2023-10-11T13:04:56Z</time>
      </trkpt>
      <trkpt lat="49.78218" lon="2.34613">
        <ele>115.1</ele>
        <time>2023-10-11T13:04:57Z</time>
      </trkpt>
      <trkpt lat="49.78218" lon="2.34613">
        <ele>115.1</ele>
        <time>2023-10-11T13:04:58Z</time>
      </trkpt>
      <trkpt lat="49.78218" lon="2.34613">
        <ele>115.1</ele>
        <time>2023-10-11T13:04:59Z</time>
      </trkpt>
      <trkpt lat="49.78218" lon="2.34613">
        <ele>115.1</ele>
        <time>2023-10-11T13:05:00Z</time>
      </trkpt>
      <trkpt lat="49.78218" lon="2.34613">
        <ele>115.1</ele>
        <time>2023-10-11T13:05:01Z</time>
      </trkpt>
      <trkpt lat="49.78218" lon="2.34613">
        <ele>115.1</ele>
        <time>2023-10-11T13:05:02Z</time>
      </trkpt>
      <trkpt lat="49.78218" lon="2.34613">
        <ele>115.1</ele>
        <time>2023-10-11T13:05:03Z</time>
      </trkpt>
      <trkpt lat="49.78218" lon="2.34613">
        <ele>115.1</ele>
        <time>2023-10-11T13:05:04Z</time>
      </trkpt>
      <trkpt lat="49.78219" lon="2.3462">
        <ele>115.2</ele>
        <time>2023-10-11T13:09:50Z</time>
      </trkpt>
      <trkpt lat="49.78219" lon="2.3462">
        <ele>115.2</ele>
        <time>2023-10-11T13:09:51Z</time>
      </trkpt>
      <trkpt lat="49.7822" lon="2.3462">
        <ele>115.2</ele>
        <time>2023-10-11T13:09:52Z</time>
      </trkpt>
      <trkpt lat="49.7822" lon="2.3462">
        <ele>115.2</ele>
        <time>2023-10-11T13:09:53Z</time>
      </trkpt>
      <trkpt lat="49.7822" lon="2.3462">
        <ele>115.2</ele>
        <time>2023-10-11T13:09:54Z</time>
      </trkpt>
      <trkpt lat="49.7822" lon="2.3462">
        <ele>115.2</ele>
        <time>2023-10-11T13:09:55Z</time>
      </trkpt>
      <trkpt lat="49.78219" lon="2.3462">
        <ele>115.2</ele>
        <time>2023-10-11T13:09:56Z</time>
      </trkpt>
      <trkpt lat="49.78219" lon="2.3462">
        <ele>115.2</ele>
        <time>2023-10-11T13:09:57Z</time>
      </trkpt>
      <trkpt lat="49.78219" lon="2.3462">
        <ele>115.2</ele>
        <time>2023-10-11T13:09:58Z</time>
      </trkpt>
      <trkpt lat="49.78219" lon="2.3462">
        <ele>115.2</ele>
        <time>2023-10-11T13:09:59Z</time>
      </trkpt>
      <trkpt lat="49.78219" lon="2.3462">
        <ele>115.2</ele>
        <time>2023-10-11T13:10:00Z</time>
      </trkpt>
      <trkpt lat="49.78219" lon="2.3462">
        <ele>115.2</ele>
        <time>2023-10-11T13:10:01Z</time>
      </trkpt>
      <trkpt lat="49.78219" lon="2.3462">
        <ele>115.2</ele>
        <time>2023-10-11T13:10:02Z</time>
      </trkpt>
      <trkpt lat="49.78224" lon="2.34619">
        <ele>115.3</ele>
        <time>2023-10-11T13:10:40Z</time>
      </trkpt>
      <trkpt lat="49.78225" lon="2.34619">
        <ele>115.3</ele>
        <time>2023-10-11T13:10:41Z</time>
      </trkpt>
      <trkpt lat="49.78226" lon="2.34619">
        <ele>115.3</ele>
        <time>2023-10-11T13:10:42Z</time>
      </trkpt>
      <trkpt lat="49.78228" lon="2.34619">
        <ele>115.3</ele>
        <time>2023-10-11T13:10:43Z</time>
      </trkpt>
      <trkpt lat="49.78229" lon="2.34619">
        <ele>115.4</ele>
        <time>2023-10-11T13:10:44Z</time>
      </trkpt>
      <trkpt lat="49.7823" lon="2.34619">
        <ele>115.4</ele>
        <time>2023-10-11T13:10:45Z</time>
      </trkpt>
      <trkpt lat="49.78232" lon="2.34618">
        <ele>115.4</ele>
        <time>2023-10-11T13:10:46Z</time>
      </trkpt>
      <trkpt lat="49.78234" lon="2.34618">
        <ele>115.4</ele>
        <time>2023-10-11T13:10:47Z</time>
      </trkpt>
      <trkpt lat="49.78235" lon="2.34618">
        <ele>115.4</ele>
        <time>2023-10-11T13:10:48Z</time>
      </trkpt>
      <trkpt lat="49.78236" lon="2.34618">
        <ele>115.5</ele>
        <time>2023-10-11T13:10:50Z</time>
      </trkpt>
      <trkpt lat="49.78237" lon="2.34619">
        <ele>115.5</ele>
        <time>2023-10-11T13:10:51Z</time>
      </trkpt>
      <trkpt lat="49.78237" lon="2.3462">
        <ele>115.5</ele>
        <time>2023-10-11T13:10:52Z</time>
      </trkpt>
      <trkpt lat="49.78238" lon="2.34621">
        <ele>115.5</ele>
        <time>2023-10-11T13:10:53Z</time>
      </trkpt>
      <trkpt lat="49.78238" lon="2.34621">
        <ele>115.5</ele>
        <time>2023-10-11T13:10:54Z</time>
      </trkpt>
      <trkpt lat="49.78238" lon="2.34621">
        <ele>115.5</ele>
        <time>2023-10-11T13:10:55Z</time>
      </trkpt>
      <trkpt lat="49.78238" lon="2.34621">
        <ele>115.5</ele>
        <time>2023-10-11T13:10:56Z</time>
      </trkpt>
      <trkpt lat="49.78238" lon="2.34621">
        <ele>115.5</ele>
        <time>2023-10-11T13:10:57Z</time>
      </trkpt>
      <trkpt lat="49.78238" lon="2.34621">
        <ele>115.5</ele>
        <time>2023-10-11T13:10:58Z</time>
      </trkpt>
      <trkpt lat="49.78238" lon="2.34621">
        <ele>115.5</ele>
        <time>2023-10-11T13:10:59Z</time>
      </trkpt>
      <trkpt lat="49.78238" lon="2.34621">
        <ele>115.5</ele>
        <time>2023-10-11T13:11:00Z</time>
      </trkpt>
      <trkpt lat="49.78239" lon="2.34621">
        <ele>115.5</ele>
        <time>2023-10-11T13:11:01Z</time>
      </trkpt>
      <trkpt lat="49.7824" lon="2.34621">
        <ele>115.5</ele>
        <time>2023-10-11T13:11:02Z</time>
      </trkpt>
      <trkpt lat="49.7824" lon="2.34621">
        <ele>115.5</ele>
        <time>2023-10-11T13:11:03Z</time>
      </trkpt>
      <trkpt lat="49.78241" lon="2.3462">
        <ele>115.6</ele>
        <time>2023-10-11T13:11:04Z</time>
      </trkpt>
      <trkpt lat="49.78242" lon="2.3462">
        <ele>115.6</ele>
        <time>2023-10-11T13:11:05Z</time>
      </trkpt>
      <trkpt lat="49.78242" lon="2.34619">
        <ele>115.6</ele>
        <time>2023-10-11T13:11:06Z</time>
      </trkpt>
      <trkpt lat="49.78243" lon="2.34618">
        <ele>115.7</ele>
        <time>2023-10-11T13:11:07Z</time>
      </trkpt>
      <trkpt lat="49.78243" lon="2.34617">
        <ele>115.6</ele>
        <time>2023-10-11T13:11:08Z</time>
      </trkpt>
      <trkpt lat="49.78243" lon="2.34616">
        <ele>115.6</ele>
        <time>2023-10-11T13:11:09Z</time>
      </trkpt>
      <trkpt lat="49.78244" lon="2.34615">
        <ele>115.6</ele>
        <time>2023-10-11T13:11:10Z</time>
      </trkpt>
      <trkpt lat="49.78244" lon="2.34614">
        <ele>115.6</ele>
        <time>2023-10-11T13:11:11Z</time>
      </trkpt>
      <trkpt lat="49.78245" lon="2.34613">
        <ele>115.6</ele>
        <time>2023-10-11T13:11:12Z</time>
      </trkpt>
      <trkpt lat="49.78245" lon="2.34612">
        <ele>115.6</ele>
        <time>2023-10-11T13:11:13Z</time>
      </trkpt>
      <trkpt lat="49.78245" lon="2.34611">
        <ele>115.6</ele>
        <time>2023-10-11T13:11:14Z</time>
      </trkpt>
      <trkpt lat="49.78244" lon="2.3461">
        <ele>115.6</ele>
        <time>2023-10-11T13:11:15Z</time>
      </trkpt>
      <trkpt lat="49.78244" lon="2.34608">
        <ele>115.6</ele>
        <time>2023-10-11T13:11:16Z</time>
      </trkpt>
      <trkpt lat="49.78244" lon="2.34607">
        <ele>115.6</ele>
        <time>2023-10-11T13:11:17Z</time>
      </trkpt>
      <trkpt lat="49.78244" lon="2.34606">
        <ele>115.6</ele>
        <time>2023-10-11T13:11:18Z</time>
      </trkpt>
      <trkpt lat="49.78244" lon="2.34604">
        <ele>115.6</ele>
        <time>2023-10-11T13:11:19Z</time>
      </trkpt>
      <trkpt lat="49.78244" lon="2.34603">
        <ele>115.6</ele>
        <time>2023-10-11T13:11:20Z</time>
      </trkpt>
      <trkpt lat="49.78243" lon="2.34602">
        <ele>115.6</ele>
        <time>2023-10-11T13:11:21Z</time>
      </trkpt>
      <trkpt lat="49.78243" lon="2.346">
        <ele>115.6</ele>
        <time>2023-10-11T13:11:22Z</time>
      </trkpt>
      <trkpt lat="49.78243" lon="2.34599">
        <ele>115.6</ele>
        <time>2023-10-11T13:11:23Z</time>
      </trkpt>
      <trkpt lat="49.78243" lon="2.34597">
        <ele>115.6</ele>
        <time>2023-10-11T13:11:24Z</time>
      </trkpt>
      <trkpt lat="49.78243" lon="2.34596">
        <ele>115.6</ele>
        <time>2023-10-11T13:11:25Z</time>
      </trkpt>
      <trkpt lat="49.78243" lon="2.34593">
        <ele>115.6</ele>
        <time>2023-10-11T13:11:26Z</time>
      </trkpt>
      <trkpt lat="49.78243" lon="2.34592">
        <ele>115.6</ele>
        <time>2023-10-11T13:11:27Z</time>
      </trkpt>
      <trkpt lat="49.78243" lon="2.34591">
        <ele>115.5</ele>
        <time>2023-10-11T13:11:28Z</time>
      </trkpt>
      <trkpt lat="49.78243" lon="2.3459">
        <ele>115.5</ele>
        <time>2023-10-11T13:11:29Z</time>
      </trkpt>
      <trkpt lat="49.78244" lon="2.34589">
        <ele>115.5</ele>
        <time>2023-10-11T13:11:30Z</time>
      </trkpt>
      <trkpt lat="49.78244" lon="2.34586">
        <ele>115.5</ele>
        <time>2023-10-11T13:11:31Z</time>
      </trkpt>
      <trkpt lat="49.78244" lon="2.34585">
        <ele>115.5</ele>
        <time>2023-10-11T13:11:33Z</time>
      </trkpt>
      <trkpt lat="49.78245" lon="2.34583">
        <ele>115.5</ele>
        <time>2023-10-11T13:11:34Z</time>
      </trkpt>
      <trkpt lat="49.78246" lon="2.34582">
        <ele>115.5</ele>
        <time>2023-10-11T13:11:35Z</time>
      </trkpt>
      <trkpt lat="49.78246" lon="2.3458">
        <ele>115.5</ele>
        <time>2023-10-11T13:11:36Z</time>
      </trkpt>
      <trkpt lat="49.78246" lon="2.34579">
        <ele>115.5</ele>
        <time>2023-10-11T13:11:37Z</time>
      </trkpt>
      <trkpt lat="49.78247" lon="2.34577">
        <ele>115.5</ele>
        <time>2023-10-11T13:11:38Z</time>
      </trkpt>
      <trkpt lat="49.78247" lon="2.34576">
        <ele>115.5</ele>
        <time>2023-10-11T13:11:39Z</time>
      </trkpt>
      <trkpt lat="49.78248" lon="2.34575">
        <ele>115.5</ele>
        <time>2023-10-11T13:11:40Z</time>
      </trkpt>
      <trkpt lat="49.78249" lon="2.34574">
        <ele>115.5</ele>
        <time>2023-10-11T13:11:41Z</time>
      </trkpt>
      <trkpt lat="49.78249" lon="2.34572">
        <ele>115.5</ele>
        <time>2023-10-11T13:11:42Z</time>
      </trkpt>
      <trkpt lat="49.7825" lon="2.34571">
        <ele>115.5</ele>
        <time>2023-10-11T13:11:43Z</time>
      </trkpt>
      <trkpt lat="49.7825" lon="2.34569">
        <ele>115.5</ele>
        <time>2023-10-11T13:11:44Z</time>
      </trkpt>
      <trkpt lat="49.78251" lon="2.34566">
        <ele>115.5</ele>
        <time>2023-10-11T13:11:45Z</time>
      </trkpt>
      <trkpt lat="49.78251" lon="2.34565">
        <ele>115.5</ele>
        <time>2023-10-11T13:11:46Z</time>
      </trkpt>
      <trkpt lat="49.78251" lon="2.34564">
        <ele>115.5</ele>
        <time>2023-10-11T13:11:47Z</time>
      </trkpt>
      <trkpt lat="49.78252" lon="2.3456">
        <ele>115.5</ele>
        <time>2023-10-11T13:11:48Z</time>
      </trkpt>
      <trkpt lat="49.78252" lon="2.34559">
        <ele>115.5</ele>
        <time>2023-10-11T13:11:49Z</time>
      </trkpt>
      <trkpt lat="49.78253" lon="2.34558">
        <ele>115.5</ele>
        <time>2023-10-11T13:11:50Z</time>
      </trkpt>
      <trkpt lat="49.78253" lon="2.34556">
        <ele>115.5</ele>
        <time>2023-10-11T13:11:51Z</time>
      </trkpt>
      <trkpt lat="49.78254" lon="2.34555">
        <ele>115.5</ele>
        <time>2023-10-11T13:11:52Z</time>
      </trkpt>
      <trkpt lat="49.78254" lon="2.34553">
        <ele>115.4</ele>
        <time>2023-10-11T13:11:53Z</time>
      </trkpt>
      <trkpt lat="49.78255" lon="2.34552">
        <ele>115.4</ele>
        <time>2023-10-11T13:11:54Z</time>
      </trkpt>
      <trkpt lat="49.78255" lon="2.34551">
        <ele>115.4</ele>
        <time>2023-10-11T13:11:55Z</time>
      </trkpt>
      <trkpt lat="49.78256" lon="2.34549">
        <ele>115.4</ele>
        <time>2023-10-11T13:11:56Z</time>
      </trkpt>
      <trkpt lat="49.78256" lon="2.34548">
        <ele>115.4</ele>
        <time>2023-10-11T13:11:57Z</time>
      </trkpt>
      <trkpt lat="49.78256" lon="2.34547">
        <ele>115.4</ele>
        <time>2023-10-11T13:11:58Z</time>
      </trkpt>
      <trkpt lat="49.78257" lon="2.34546">
        <ele>115.4</ele>
        <time>2023-10-11T13:11:59Z</time>
      </trkpt>
      <trkpt lat="49.78257" lon="2.34544">
        <ele>115.4</ele>
        <time>2023-10-11T13:12:00Z</time>
      </trkpt>
      <trkpt lat="49.78258" lon="2.34543">
        <ele>115.4</ele>
        <time>2023-10-11T13:12:01Z</time>
      </trkpt>
      <trkpt lat="49.78258" lon="2.34542">
        <ele>115.4</ele>
        <time>2023-10-11T13:12:02Z</time>
      </trkpt>
      <trkpt lat="49.78259" lon="2.3454">
        <ele>115.4</ele>
        <time>2023-10-11T13:12:03Z</time>
      </trkpt>
      <trkpt lat="49.78259" lon="2.34539">
        <ele>115.4</ele>
        <time>2023-10-11T13:12:04Z</time>
      </trkpt>
      <trkpt lat="49.78259" lon="2.34537">
        <ele>115.4</ele>
        <time>2023-10-11T13:12:05Z</time>
      </trkpt>
      <trkpt lat="49.7826" lon="2.34534">
        <ele>115.4</ele>
        <time>2023-10-11T13:12:06Z</time>
      </trkpt>
      <trkpt lat="49.7826" lon="2.34533">
        <ele>115.4</ele>
        <time>2023-10-11T13:12:08Z</time>
      </trkpt>
      <trkpt lat="49.78261" lon="2.34531">
        <ele>115.4</ele>
        <time>2023-10-11T13:12:09Z</time>
      </trkpt>
      <trkpt lat="49.78261" lon="2.3453">
        <ele>115.4</ele>
        <time>2023-10-11T13:12:10Z</time>
      </trkpt>
      <trkpt lat="49.78262" lon="2.34529">
        <ele>115.4</ele>
        <time>2023-10-11T13:12:11Z</time>
      </trkpt>
      <trkpt lat="49.78262" lon="2.34527">
        <ele>115.4</ele>
        <time>2023-10-11T13:12:12Z</time>
      </trkpt>
      <trkpt lat="49.78262" lon="2.34526">
        <ele>115.4</ele>
        <time>2023-10-11T13:12:13Z</time>
      </trkpt>
      <trkpt lat="49.78263" lon="2.34524">
        <ele>115.4</ele>
        <time>2023-10-11T13:12:14Z</time>
      </trkpt>
      <trkpt lat="49.78263" lon="2.34523">
        <ele>115.4</ele>
        <time>2023-10-11T13:12:15Z</time>
      </trkpt>
      <trkpt lat="49.78263" lon="2.34522">
        <ele>115.4</ele>
        <time>2023-10-11T13:12:16Z</time>
      </trkpt>
      <trkpt lat="49.78264" lon="2.34521">
        <ele>115.4</ele>
        <time>2023-10-11T13:12:17Z</time>
      </trkpt>
      <trkpt lat="49.78264" lon="2.34518">
        <ele>115.4</ele>
        <time>2023-10-11T13:12:18Z</time>
      </trkpt>
      <trkpt lat="49.78265" lon="2.34516">
        <ele>115.4</ele>
        <time>2023-10-11T13:12:20Z</time>
      </trkpt>
      <trkpt lat="49.78265" lon="2.34514">
        <ele>115.4</ele>
        <time>2023-10-11T13:12:21Z</time>
      </trkpt>
      <trkpt lat="49.78265" lon="2.34513">
        <ele>115.4</ele>
        <time>2023-10-11T13:12:22Z</time>
      </trkpt>
      <trkpt lat="49.78266" lon="2.34511">
        <ele>115.4</ele>
        <time>2023-10-11T13:12:23Z</time>
      </trkpt>
      <trkpt lat="49.78266" lon="2.3451">
        <ele>115.4</ele>
        <time>2023-10-11T13:12:24Z</time>
      </trkpt>
      <trkpt lat="49.78266" lon="2.34509">
        <ele>115.4</ele>
        <time>2023-10-11T13:12:25Z</time>
      </trkpt>
      <trkpt lat="49.78267" lon="2.34507">
        <ele>115.4</ele>
        <time>2023-10-11T13:12:26Z</time>
      </trkpt>
      <trkpt lat="49.78267" lon="2.34506">
        <ele>115.4</ele>
        <time>2023-10-11T13:12:27Z</time>
      </trkpt>
      <trkpt lat="49.78267" lon="2.34504">
        <ele>115.4</ele>
        <time>2023-10-11T13:12:28Z</time>
      </trkpt>
      <trkpt lat="49.78268" lon="2.34503">
        <ele>115.4</ele>
        <time>2023-10-11T13:12:29Z</time>
      </trkpt>
      <trkpt lat="49.78268" lon="2.34501">
        <ele>115.4</ele>
        <time>2023-10-11T13:12:30Z</time>
      </trkpt>
      <trkpt lat="49.78268" lon="2.345">
        <ele>115.4</ele>
        <time>2023-10-11T13:12:31Z</time>
      </trkpt>
      <trkpt lat="49.78269" lon="2.34497">
        <ele>115.4</ele>
        <time>2023-10-11T13:12:32Z</time>
      </trkpt>
      <trkpt lat="49.78269" lon="2.34495">
        <ele>115.4</ele>
        <time>2023-10-11T13:12:34Z</time>
      </trkpt>
      <trkpt lat="49.7827" lon="2.34492">
        <ele>115.4</ele>
        <time>2023-10-11T13:12:35Z</time>
      </trkpt>
      <trkpt lat="49.78271" lon="2.34488">
        <ele>115.4</ele>
        <time>2023-10-11T13:12:37Z</time>
      </trkpt>
      <trkpt lat="49.78271" lon="2.34487">
        <ele>115.4</ele>
        <time>2023-10-11T13:12:38Z</time>
      </trkpt>
      <trkpt lat="49.78272" lon="2.34485">
        <ele>115.4</ele>
        <time>2023-10-11T13:12:39Z</time>
      </trkpt>
      <trkpt lat="49.78273" lon="2.34482">
        <ele>115.4</ele>
        <time>2023-10-11T13:12:41Z</time>
      </trkpt>
      <trkpt lat="49.78274" lon="2.3448">
        <ele>115.4</ele>
        <time>2023-10-11T13:12:43Z</time>
      </trkpt>
      <trkpt lat="49.78274" lon="2.34479">
        <ele>115.4</ele>
        <time>2023-10-11T13:12:44Z</time>
      </trkpt>
      <trkpt lat="49.78274" lon="2.34477">
        <ele>115.4</ele>
        <time>2023-10-11T13:12:45Z</time>
      </trkpt>
      <trkpt lat="49.78274" lon="2.34475">
        <ele>115.4</ele>
        <time>2023-10-11T13:12:46Z</time>
      </trkpt>
      <trkpt lat="49.78274" lon="2.34472">
        <ele>115.4</ele>
        <time>2023-10-11T13:12:47Z</time>
      </trkpt>
      <trkpt lat="49.78274" lon="2.3447">
        <ele>115.4</ele>
        <time>2023-10-11T13:12:48Z</time>
      </trkpt>
      <trkpt lat="49.78274" lon="2.34468">
        <ele>115.4</ele>
        <time>2023-10-11T13:12:50Z</time>
      </trkpt>
      <trkpt lat="49.78273" lon="2.34466">
        <ele>115.4</ele>
        <time>2023-10-11T13:12:51Z</time>
      </trkpt>
      <trkpt lat="49.78273" lon="2.34463">
        <ele>115.4</ele>
        <time>2023-10-11T13:12:52Z</time>
      </trkpt>
      <trkpt lat="49.78273" lon="2.34461">
        <ele>115.4</ele>
        <time>2023-10-11T13:12:53Z</time>
      </trkpt>
      <trkpt lat="49.78273" lon="2.34459">
        <ele>115.4</ele>
        <time>2023-10-11T13:12:55Z</time>
      </trkpt>
      <trkpt lat="49.78273" lon="2.34457">
        <ele>115.4</ele>
        <time>2023-10-11T13:12:56Z</time>
      </trkpt>
      <trkpt lat="49.78273" lon="2.34452">
        <ele>115.4</ele>
        <time>2023-10-11T13:12:57Z</time>
      </trkpt>
      <trkpt lat="49.78273" lon="2.3445">
        <ele>115.4</ele>
        <time>2023-10-11T13:12:58Z</time>
      </trkpt>
      <trkpt lat="49.78273" lon="2.34448">
        <ele>115.4</ele>
        <time>2023-10-11T13:12:59Z</time>
      </trkpt>
      <trkpt lat="49.78274" lon="2.34445">
        <ele>115.4</ele>
        <time>2023-10-11T13:13:01Z</time>
      </trkpt>
      <trkpt lat="49.78274" lon="2.34443">
        <ele>115.4</ele>
        <time>2023-10-11T13:13:02Z</time>
      </trkpt>
      <trkpt lat="49.78274" lon="2.3444">
        <ele>115.4</ele>
        <time>2023-10-11T13:13:04Z</time>
      </trkpt>
      <trkpt lat="49.78274" lon="2.34439">
        <ele>115.4</ele>
        <time>2023-10-11T13:13:05Z</time>
      </trkpt>
      <trkpt lat="49.78275" lon="2.34436">
        <ele>115.4</ele>
        <time>2023-10-11T13:13:06Z</time>
      </trkpt>
      <trkpt lat="49.78275" lon="2.34434">
        <ele>115.4</ele>
        <time>2023-10-11T13:13:07Z</time>
      </trkpt>
      <trkpt lat="49.78275" lon="2.34433">
        <ele>115.4</ele>
        <time>2023-10-11T13:13:08Z</time>
      </trkpt>
      <trkpt lat="49.78275" lon="2.34432">
        <ele>115.4</ele>
        <time>2023-10-11T13:13:09Z</time>
      </trkpt>
      <trkpt lat="49.78275" lon="2.3443">
        <ele>115.4</ele>
        <time>2023-10-11T13:13:10Z</time>
      </trkpt>
      <trkpt lat="49.78276" lon="2.34429">
        <ele>115.4</ele>
        <time>2023-10-11T13:13:11Z</time>
      </trkpt>
      <trkpt lat="49.78276" lon="2.34427">
        <ele>115.4</ele>
        <time>2023-10-11T13:13:12Z</time>
      </trkpt>
      <trkpt lat="49.78276" lon="2.34424">
        <ele>115.4</ele>
        <time>2023-10-11T13:13:13Z</time>
      </trkpt>
      <trkpt lat="49.78277" lon="2.34423">
        <ele>115.4</ele>
        <time>2023-10-11T13:13:15Z</time>
      </trkpt>
      <trkpt lat="49.78277" lon="2.34422">
        <ele>115.4</ele>
        <time>2023-10-11T13:13:16Z</time>
      </trkpt>
      <trkpt lat="49.78277" lon="2.3442">
        <ele>115.4</ele>
        <time>2023-10-11T13:13:17Z</time>
      </trkpt>
      <trkpt lat="49.78278" lon="2.34419">
        <ele>115.4</ele>
        <time>2023-10-11T13:13:18Z</time>
      </trkpt>
      <trkpt lat="49.78278" lon="2.34417">
        <ele>115.4</ele>
        <time>2023-10-11T13:13:19Z</time>
      </trkpt>
      <trkpt lat="49.78278" lon="2.34416">
        <ele>115.4</ele>
        <time>2023-10-11T13:13:20Z</time>
      </trkpt>
      <trkpt lat="49.78279" lon="2.34414">
        <ele>115.4</ele>
        <time>2023-10-11T13:13:21Z</time>
      </trkpt>
      <trkpt lat="49.78279" lon="2.34413">
        <ele>115.4</ele>
        <time>2023-10-11T13:13:22Z</time>
      </trkpt>
      <trkpt lat="49.7828" lon="2.34411">
        <ele>115.4</ele>
        <time>2023-10-11T13:13:23Z</time>
      </trkpt>
      <trkpt lat="49.7828" lon="2.3441">
        <ele>115.4</ele>
        <time>2023-10-11T13:13:24Z</time>
      </trkpt>
      <trkpt lat="49.78281" lon="2.34408">
        <ele>115.4</ele>
        <time>2023-10-11T13:13:25Z</time>
      </trkpt>
      <trkpt lat="49.78281" lon="2.34407">
        <ele>115.4</ele>
        <time>2023-10-11T13:13:26Z</time>
      </trkpt>
      <trkpt lat="49.78282" lon="2.34405">
        <ele>115.4</ele>
        <time>2023-10-11T13:13:27Z</time>
      </trkpt>
      <trkpt lat="49.78282" lon="2.34403">
        <ele>115.4</ele>
        <time>2023-10-11T13:13:28Z</time>
      </trkpt>
      <trkpt lat="49.78283" lon="2.34402">
        <ele>115.4</ele>
        <time>2023-10-11T13:13:29Z</time>
      </trkpt>
      <trkpt lat="49.78283" lon="2.344">
        <ele>115.3</ele>
        <time>2023-10-11T13:13:30Z</time>
      </trkpt>
      <trkpt lat="49.78284" lon="2.34399">
        <ele>115.3</ele>
        <time>2023-10-11T13:13:31Z</time>
      </trkpt>
      <trkpt lat="49.78284" lon="2.34398">
        <ele>115.3</ele>
        <time>2023-10-11T13:13:32Z</time>
      </trkpt>
      <trkpt lat="49.78285" lon="2.34396">
        <ele>115.3</ele>
        <time>2023-10-11T13:13:33Z</time>
      </trkpt>
      <trkpt lat="49.78286" lon="2.34395">
        <ele>115.3</ele>
        <time>2023-10-11T13:13:34Z</time>
      </trkpt>
      <trkpt lat="49.78286" lon="2.34393">
        <ele>115.3</ele>
        <time>2023-10-11T13:13:35Z</time>
      </trkpt>
      <trkpt lat="49.78288" lon="2.34391">
        <ele>115.3</ele>
        <time>2023-10-11T13:13:36Z</time>
      </trkpt>
      <trkpt lat="49.78288" lon="2.34389">
        <ele>115.3</ele>
        <time>2023-10-11T13:13:37Z</time>
      </trkpt>
      <trkpt lat="49.78289" lon="2.34388">
        <ele>115.3</ele>
        <time>2023-10-11T13:13:38Z</time>
      </trkpt>
      <trkpt lat="49.7829" lon="2.34385">
        <ele>115.3</ele>
        <time>2023-10-11T13:13:39Z</time>
      </trkpt>
      <trkpt lat="49.7829" lon="2.34384">
        <ele>115.3</ele>
        <time>2023-10-11T13:13:40Z</time>
      </trkpt>
      <trkpt lat="49.7829" lon="2.34383">
        <ele>115.3</ele>
        <time>2023-10-11T13:13:41Z</time>
      </trkpt>
      <trkpt lat="49.78291" lon="2.34381">
        <ele>115.3</ele>
        <time>2023-10-11T13:13:42Z</time>
      </trkpt>
      <trkpt lat="49.78291" lon="2.34379">
        <ele>115.2</ele>
        <time>2023-10-11T13:13:43Z</time>
      </trkpt>
      <trkpt lat="49.78292" lon="2.34377">
        <ele>115.2</ele>
        <time>2023-10-11T13:13:44Z</time>
      </trkpt>
      <trkpt lat="49.78293" lon="2.34375">
        <ele>115.2</ele>
        <time>2023-10-11T13:13:45Z</time>
      </trkpt>
      <trkpt lat="49.78293" lon="2.34371">
        <ele>115.2</ele>
        <time>2023-10-11T13:13:46Z</time>
      </trkpt>
      <trkpt lat="49.78294" lon="2.3437">
        <ele>115.2</ele>
        <time>2023-10-11T13:13:47Z</time>
      </trkpt>
      <trkpt lat="49.78294" lon="2.34368">
        <ele>115.2</ele>
        <time>2023-10-11T13:13:48Z</time>
      </trkpt>
      <trkpt lat="49.78294" lon="2.34366">
        <ele>115.2</ele>
        <time>2023-10-11T13:13:50Z</time>
      </trkpt>
      <trkpt lat="49.78294" lon="2.34364">
        <ele>115.2</ele>
        <time>2023-10-11T13:13:51Z</time>
      </trkpt>
      <trkpt lat="49.78294" lon="2.34363">
        <ele>115.2</ele>
        <time>2023-10-11T13:13:52Z</time>
      </trkpt>
      <trkpt lat="49.78294" lon="2.34361">
        <ele>115.2</ele>
        <time>2023-10-11T13:13:53Z</time>
      </trkpt>
      <trkpt lat="49.78295" lon="2.3436">
        <ele>115.2</ele>
        <time>2023-10-11T13:13:54Z</time>
      </trkpt>
      <trkpt lat="49.78295" lon="2.34358">
        <ele>115.2</ele>
        <time>2023-10-11T13:13:55Z</time>
      </trkpt>
      <trkpt lat="49.78295" lon="2.34356">
        <ele>115.2</ele>
        <time>2023-10-11T13:13:56Z</time>
      </trkpt>
      <trkpt lat="49.78295" lon="2.34355">
        <ele>115.2</ele>
        <time>2023-10-11T13:13:57Z</time>
      </trkpt>
      <trkpt lat="49.78295" lon="2.34354">
        <ele>115.2</ele>
        <time>2023-10-11T13:13:58Z</time>
      </trkpt>
      <trkpt lat="49.78295" lon="2.34353">
        <ele>115.2</ele>
        <time>2023-10-11T13:13:59Z</time>
      </trkpt>
      <trkpt lat="49.78295" lon="2.34351">
        <ele>115.2</ele>
        <time>2023-10-11T13:14:00Z</time>
      </trkpt>
      <trkpt lat="49.78296" lon="2.34348">
        <ele>115.2</ele>
        <time>2023-10-11T13:14:01Z</time>
      </trkpt>
      <trkpt lat="49.78296" lon="2.34344">
        <ele>115.2</ele>
        <time>2023-10-11T13:14:03Z</time>
      </trkpt>
      <trkpt lat="49.78296" lon="2.34341">
        <ele>115.2</ele>
        <time>2023-10-11T13:14:05Z</time>
      </trkpt>
      <trkpt lat="49.78296" lon="2.34339">
        <ele>115.2</ele>
        <time>2023-10-11T13:14:06Z</time>
      </trkpt>
      <trkpt lat="49.78296" lon="2.34338">
        <ele>115.2</ele>
        <time>2023-10-11T13:14:08Z</time>
      </trkpt>
      <trkpt lat="49.78296" lon="2.34336">
        <ele>115.2</ele>
        <time>2023-10-11T13:14:09Z</time>
      </trkpt>
      <trkpt lat="49.78296" lon="2.34333">
        <ele>115.2</ele>
        <time>2023-10-11T13:14:10Z</time>
      </trkpt>
      <trkpt lat="49.78297" lon="2.34331">
        <ele>115.2</ele>
        <time>2023-10-11T13:14:12Z</time>
      </trkpt>
      <trkpt lat="49.78297" lon="2.3433">
        <ele>115.3</ele>
        <time>2023-10-11T13:14:13Z</time>
      </trkpt>
      <trkpt lat="49.78297" lon="2.34328">
        <ele>115.3</ele>
        <time>2023-10-11T13:14:14Z</time>
      </trkpt>
      <trkpt lat="49.78297" lon="2.34327">
        <ele>115.3</ele>
        <time>2023-10-11T13:14:15Z</time>
      </trkpt>
      <trkpt lat="49.78297" lon="2.34325">
        <ele>115.3</ele>
        <time>2023-10-11T13:14:16Z</time>
      </trkpt>
      <trkpt lat="49.78297" lon="2.34324">
        <ele>115.3</ele>
        <time>2023-10-11T13:14:17Z</time>
      </trkpt>
      <trkpt lat="49.78298" lon="2.34322">
        <ele>115.3</ele>
        <time>2023-10-11T13:14:18Z</time>
      </trkpt>
      <trkpt lat="49.78298" lon="2.34321">
        <ele>115.3</ele>
        <time>2023-10-11T13:14:19Z</time>
      </trkpt>
      <trkpt lat="49.78298" lon="2.34319">
        <ele>115.3</ele>
        <time>2023-10-11T13:14:20Z</time>
      </trkpt>
      <trkpt lat="49.78298" lon="2.34318">
        <ele>115.3</ele>
        <time>2023-10-11T13:14:21Z</time>
      </trkpt>
      <trkpt lat="49.78298" lon="2.34316">
        <ele>115.3</ele>
        <time>2023-10-11T13:14:22Z</time>
      </trkpt>
      <trkpt lat="49.78298" lon="2.34313">
        <ele>115.3</ele>
        <time>2023-10-11T13:14:23Z</time>
      </trkpt>
      <trkpt lat="49.78299" lon="2.34312">
        <ele>115.3</ele>
        <time>2023-10-11T13:14:24Z</time>
      </trkpt>
      <trkpt lat="49.78299" lon="2.3431">
        <ele>115.3</ele>
        <time>2023-10-11T13:14:25Z</time>
      </trkpt>
      <trkpt lat="49.78299" lon="2.34308">
        <ele>115.3</ele>
        <time>2023-10-11T13:14:26Z</time>
      </trkpt>
      <trkpt lat="49.78299" lon="2.34306">
        <ele>115.3</ele>
        <time>2023-10-11T13:14:27Z</time>
      </trkpt>
      <trkpt lat="49.78299" lon="2.34305">
        <ele>115.3</ele>
        <time>2023-10-11T13:14:28Z</time>
      </trkpt>
      <trkpt lat="49.78299" lon="2.34303">
        <ele>115.3</ele>
        <time>2023-10-11T13:14:29Z</time>
      </trkpt>
      <trkpt lat="49.783" lon="2.343">
        <ele>115.3</ele>
        <time>2023-10-11T13:14:30Z</time>
      </trkpt>
      <trkpt lat="49.783" lon="2.34299">
        <ele>115.3</ele>
        <time>2023-10-11T13:14:32Z</time>
      </trkpt>
      <trkpt lat="49.783" lon="2.34297">
        <ele>115.3</ele>
        <time>2023-10-11T13:14:33Z</time>
      </trkpt>
      <trkpt lat="49.783" lon="2.34295">
        <ele>115.3</ele>
        <time>2023-10-11T13:14:34Z</time>
      </trkpt>
      <trkpt lat="49.783" lon="2.34294">
        <ele>115.3</ele>
        <time>2023-10-11T13:14:35Z</time>
      </trkpt>
      <trkpt lat="49.78301" lon="2.34292">
        <ele>115.3</ele>
        <time>2023-10-11T13:14:36Z</time>
      </trkpt>
      <trkpt lat="49.78301" lon="2.34291">
        <ele>115.3</ele>
        <time>2023-10-11T13:14:37Z</time>
      </trkpt>
      <trkpt lat="49.78301" lon="2.34289">
        <ele>115.3</ele>
        <time>2023-10-11T13:14:38Z</time>
      </trkpt>
      <trkpt lat="49.78302" lon="2.34288">
        <ele>115.3</ele>
        <time>2023-10-11T13:14:39Z</time>
      </trkpt>
      <trkpt lat="49.78302" lon="2.34286">
        <ele>115.3</ele>
        <time>2023-10-11T13:14:40Z</time>
      </trkpt>
      <trkpt lat="49.78303" lon="2.34283">
        <ele>115.3</ele>
        <time>2023-10-11T13:14:41Z</time>
      </trkpt>
      <trkpt lat="49.78303" lon="2.34282">
        <ele>115.3</ele>
        <time>2023-10-11T13:14:42Z</time>
      </trkpt>
      <trkpt lat="49.78304" lon="2.3428">
        <ele>115.3</ele>
        <time>2023-10-11T13:14:43Z</time>
      </trkpt>
      <trkpt lat="49.78304" lon="2.34277">
        <ele>115.3</ele>
        <time>2023-10-11T13:14:44Z</time>
      </trkpt>
      <trkpt lat="49.78305" lon="2.34276">
        <ele>115.3</ele>
        <time>2023-10-11T13:14:45Z</time>
      </trkpt>
      <trkpt lat="49.78305" lon="2.34275">
        <ele>115.3</ele>
        <time>2023-10-11T13:14:46Z</time>
      </trkpt>
      <trkpt lat="49.78306" lon="2.34273">
        <ele>115.3</ele>
        <time>2023-10-11T13:14:47Z</time>
      </trkpt>
      <trkpt lat="49.78306" lon="2.34272">
        <ele>115.3</ele>
        <time>2023-10-11T13:14:48Z</time>
      </trkpt>
      <trkpt lat="49.78307" lon="2.3427">
        <ele>115.3</ele>
        <time>2023-10-11T13:14:49Z</time>
      </trkpt>
      <trkpt lat="49.78307" lon="2.34267">
        <ele>115.3</ele>
        <time>2023-10-11T13:14:50Z</time>
      </trkpt>
      <trkpt lat="49.78308" lon="2.34266">
        <ele>115.3</ele>
        <time>2023-10-11T13:14:51Z</time>
      </trkpt>
      <trkpt lat="49.78308" lon="2.34265">
        <ele>115.3</ele>
        <time>2023-10-11T13:14:52Z</time>
      </trkpt>
      <trkpt lat="49.78309" lon="2.34263">
        <ele>115.3</ele>
        <time>2023-10-11T13:14:53Z</time>
      </trkpt>
      <trkpt lat="49.78309" lon="2.34261">
        <ele>115.3</ele>
        <time>2023-10-11T13:14:54Z</time>
      </trkpt>
      <trkpt lat="49.7831" lon="2.3426">
        <ele>115.3</ele>
        <time>2023-10-11T13:14:55Z</time>
      </trkpt>
      <trkpt lat="49.7831" lon="2.34258">
        <ele>115.3</ele>
        <time>2023-10-11T13:14:56Z</time>
      </trkpt>
      <trkpt lat="49.78311" lon="2.34257">
        <ele>115.3</ele>
        <time>2023-10-11T13:14:57Z</time>
      </trkpt>
      <trkpt lat="49.78311" lon="2.34255">
        <ele>115.3</ele>
        <time>2023-10-11T13:14:58Z</time>
      </trkpt>
      <trkpt lat="49.78312" lon="2.34253">
        <ele>115.2</ele>
        <time>2023-10-11T13:14:59Z</time>
      </trkpt>
      <trkpt lat="49.78312" lon="2.34252">
        <ele>115.2</ele>
        <time>2023-10-11T13:15:00Z</time>
      </trkpt>
      <trkpt lat="49.78312" lon="2.3425">
        <ele>115.2</ele>
        <time>2023-10-11T13:15:01Z</time>
      </trkpt>
      <trkpt lat="49.78313" lon="2.34248">
        <ele>115.2</ele>
        <time>2023-10-11T13:15:02Z</time>
      </trkpt>
      <trkpt lat="49.78313" lon="2.34247">
        <ele>115.2</ele>
        <time>2023-10-11T13:15:03Z</time>
      </trkpt>
      <trkpt lat="49.78313" lon="2.34245">
        <ele>115.2</ele>
        <time>2023-10-11T13:15:04Z</time>
      </trkpt>
      <trkpt lat="49.78314" lon="2.34243">
        <ele>115.2</ele>
        <time>2023-10-11T13:15:05Z</time>
      </trkpt>
      <trkpt lat="49.78314" lon="2.34242">
        <ele>115.2</ele>
        <time>2023-10-11T13:15:06Z</time>
      </trkpt>
      <trkpt lat="49.78314" lon="2.3424">
        <ele>115.2</ele>
        <time>2023-10-11T13:15:07Z</time>
      </trkpt>
      <trkpt lat="49.78314" lon="2.34239">
        <ele>115.2</ele>
        <time>2023-10-11T13:15:08Z</time>
      </trkpt>
      <trkpt lat="49.78315" lon="2.34237">
        <ele>115.2</ele>
        <time>2023-10-11T13:15:09Z</time>
      </trkpt>
      <trkpt lat="49.78315" lon="2.34235">
        <ele>115.2</ele>
        <time>2023-10-11T13:15:10Z</time>
      </trkpt>
      <trkpt lat="49.78315" lon="2.34234">
        <ele>115.2</ele>
        <time>2023-10-11T13:15:11Z</time>
      </trkpt>
      <trkpt lat="49.78316" lon="2.34232">
        <ele>115.2</ele>
        <time>2023-10-11T13:15:12Z</time>
      </trkpt>
      <trkpt lat="49.78316" lon="2.3423">
        <ele>115.2</ele>
        <time>2023-10-11T13:15:13Z</time>
      </trkpt>
      <trkpt lat="49.78317" lon="2.34229">
        <ele>115.2</ele>
        <time>2023-10-11T13:15:14Z</time>
      </trkpt>
      <trkpt lat="49.78317" lon="2.34227">
        <ele>115.2</ele>
        <time>2023-10-11T13:15:15Z</time>
      </trkpt>
      <trkpt lat="49.78318" lon="2.34226">
        <ele>115.2</ele>
        <time>2023-10-11T13:15:16Z</time>
      </trkpt>
      <trkpt lat="49.78318" lon="2.34224">
        <ele>115.2</ele>
        <time>2023-10-11T13:15:17Z</time>
      </trkpt>
      <trkpt lat="49.78318" lon="2.34222">
        <ele>115.2</ele>
        <time>2023-10-11T13:15:18Z</time>
      </trkpt>
      <trkpt lat="49.78319" lon="2.34221">
        <ele>115.2</ele>
        <time>2023-10-11T13:15:19Z</time>
      </trkpt>
      <trkpt lat="49.7832" lon="2.34218">
        <ele>115.1</ele>
        <time>2023-10-11T13:15:20Z</time>
      </trkpt>
      <trkpt lat="49.7832" lon="2.34217">
        <ele>115.1</ele>
        <time>2023-10-11T13:15:21Z</time>
      </trkpt>
      <trkpt lat="49.7832" lon="2.34216">
        <ele>115.1</ele>
        <time>2023-10-11T13:15:22Z</time>
      </trkpt>
      <trkpt lat="49.78321" lon="2.34214">
        <ele>115.1</ele>
        <time>2023-10-11T13:15:23Z</time>
      </trkpt>
      <trkpt lat="49.78321" lon="2.34213">
        <ele>115.1</ele>
        <time>2023-10-11T13:15:24Z</time>
      </trkpt>
      <trkpt lat="49.78322" lon="2.34211">
        <ele>115.1</ele>
        <time>2023-10-11T13:15:25Z</time>
      </trkpt>
      <trkpt lat="49.78323" lon="2.3421">
        <ele>115.1</ele>
        <time>2023-10-11T13:15:26Z</time>
      </trkpt>
      <trkpt lat="49.78324" lon="2.34207">
        <ele>115.1</ele>
        <time>2023-10-11T13:15:27Z</time>
      </trkpt>
      <trkpt lat="49.78325" lon="2.34203">
        <ele>115.1</ele>
        <time>2023-10-11T13:15:29Z</time>
      </trkpt>
      <trkpt lat="49.78325" lon="2.34202">
        <ele>115.1</ele>
        <time>2023-10-11T13:15:31Z</time>
      </trkpt>
      <trkpt lat="49.78326" lon="2.342">
        <ele>115.1</ele>
        <time>2023-10-11T13:15:32Z</time>
      </trkpt>
      <trkpt lat="49.78326" lon="2.34198">
        <ele>115</ele>
        <time>2023-10-11T13:15:33Z</time>
      </trkpt>
      <trkpt lat="49.78327" lon="2.34197">
        <ele>115</ele>
        <time>2023-10-11T13:15:34Z</time>
      </trkpt>
      <trkpt lat="49.78327" lon="2.34195">
        <ele>115</ele>
        <time>2023-10-11T13:15:35Z</time>
      </trkpt>
      <trkpt lat="49.78328" lon="2.34194">
        <ele>115</ele>
        <time>2023-10-11T13:15:36Z</time>
      </trkpt>
      <trkpt lat="49.78329" lon="2.34192">
        <ele>115</ele>
        <time>2023-10-11T13:15:37Z</time>
      </trkpt>
      <trkpt lat="49.7833" lon="2.34189">
        <ele>115</ele>
        <time>2023-10-11T13:15:38Z</time>
      </trkpt>
      <trkpt lat="49.7833" lon="2.34188">
        <ele>115</ele>
        <time>2023-10-11T13:15:39Z</time>
      </trkpt>
      <trkpt lat="49.7833" lon="2.34187">
        <ele>115</ele>
        <time>2023-10-11T13:15:40Z</time>
      </trkpt>
      <trkpt lat="49.78331" lon="2.34184">
        <ele>115</ele>
        <time>2023-10-11T13:15:41Z</time>
      </trkpt>
      <trkpt lat="49.78332" lon="2.34182">
        <ele>114.9</ele>
        <time>2023-10-11T13:15:42Z</time>
      </trkpt>
      <trkpt lat="49.78332" lon="2.34181">
        <ele>114.9</ele>
        <time>2023-10-11T13:15:43Z</time>
      </trkpt>
      <trkpt lat="49.78333" lon="2.34178">
        <ele>114.9</ele>
        <time>2023-10-11T13:15:44Z</time>
      </trkpt>
      <trkpt lat="49.78334" lon="2.34177">
        <ele>114.9</ele>
        <time>2023-10-11T13:15:45Z</time>
      </trkpt>
      <trkpt lat="49.78334" lon="2.34176">
        <ele>114.9</ele>
        <time>2023-10-11T13:15:46Z</time>
      </trkpt>
      <trkpt lat="49.78334" lon="2.34174">
        <ele>114.9</ele>
        <time>2023-10-11T13:15:47Z</time>
      </trkpt>
      <trkpt lat="49.78335" lon="2.34173">
        <ele>114.9</ele>
        <time>2023-10-11T13:15:48Z</time>
      </trkpt>
      <trkpt lat="49.78336" lon="2.34171">
        <ele>114.9</ele>
        <time>2023-10-11T13:15:49Z</time>
      </trkpt>
      <trkpt lat="49.78337" lon="2.34168">
        <ele>114.9</ele>
        <time>2023-10-11T13:15:50Z</time>
      </trkpt>
      <trkpt lat="49.78338" lon="2.34165">
        <ele>114.8</ele>
        <time>2023-10-11T13:15:52Z</time>
      </trkpt>
      <trkpt lat="49.78338" lon="2.34164">
        <ele>114.8</ele>
        <time>2023-10-11T13:15:54Z</time>
      </trkpt>
      <trkpt lat="49.78339" lon="2.34163">
        <ele>114.8</ele>
        <time>2023-10-11T13:15:55Z</time>
      </trkpt>
      <trkpt lat="49.7834" lon="2.3416">
        <ele>114.8</ele>
        <time>2023-10-11T13:15:56Z</time>
      </trkpt>
      <trkpt lat="49.7834" lon="2.34159">
        <ele>114.8</ele>
        <time>2023-10-11T13:15:58Z</time>
      </trkpt>
      <trkpt lat="49.78341" lon="2.34156">
        <ele>114.8</ele>
        <time>2023-10-11T13:15:59Z</time>
      </trkpt>
      <trkpt lat="49.78342" lon="2.34154">
        <ele>114.8</ele>
        <time>2023-10-11T13:16:01Z</time>
      </trkpt>
      <trkpt lat="49.78342" lon="2.34153">
        <ele>114.8</ele>
        <time>2023-10-11T13:16:02Z</time>
      </trkpt>
      <trkpt lat="49.78343" lon="2.34151">
        <ele>114.7</ele>
        <time>2023-10-11T13:16:03Z</time>
      </trkpt>
      <trkpt lat="49.78343" lon="2.3415">
        <ele>114.7</ele>
        <time>2023-10-11T13:16:04Z</time>
      </trkpt>
      <trkpt lat="49.78343" lon="2.34148">
        <ele>114.7</ele>
        <time>2023-10-11T13:16:05Z</time>
      </trkpt>
      <trkpt lat="49.78344" lon="2.34147">
        <ele>114.7</ele>
        <time>2023-10-11T13:16:06Z</time>
      </trkpt>
      <trkpt lat="49.78344" lon="2.34145">
        <ele>114.7</ele>
        <time>2023-10-11T13:16:07Z</time>
      </trkpt>
      <trkpt lat="49.78345" lon="2.34144">
        <ele>114.7</ele>
        <time>2023-10-11T13:16:08Z</time>
      </trkpt>
      <trkpt lat="49.78345" lon="2.34142">
        <ele>114.7</ele>
        <time>2023-10-11T13:16:09Z</time>
      </trkpt>
      <trkpt lat="49.78345" lon="2.3414">
        <ele>114.7</ele>
        <time>2023-10-11T13:16:10Z</time>
      </trkpt>
      <trkpt lat="49.78346" lon="2.34138">
        <ele>114.7</ele>
        <time>2023-10-11T13:16:11Z</time>
      </trkpt>
      <trkpt lat="49.78346" lon="2.34137">
        <ele>114.6</ele>
        <time>2023-10-11T13:16:12Z</time>
      </trkpt>
      <trkpt lat="49.78347" lon="2.34135">
        <ele>114.6</ele>
        <time>2023-10-11T13:16:13Z</time>
      </trkpt>
      <trkpt lat="49.78347" lon="2.34134">
        <ele>114.6</ele>
        <time>2023-10-11T13:16:14Z</time>
      </trkpt>
      <trkpt lat="49.78347" lon="2.34132">
        <ele>114.6</ele>
        <time>2023-10-11T13:16:15Z</time>
      </trkpt>
      <trkpt lat="49.78348" lon="2.3413">
        <ele>114.6</ele>
        <time>2023-10-11T13:16:16Z</time>
      </trkpt>
      <trkpt lat="49.78348" lon="2.34129">
        <ele>114.6</ele>
        <time>2023-10-11T13:16:17Z</time>
      </trkpt>
      <trkpt lat="49.78348" lon="2.34127">
        <ele>114.6</ele>
        <time>2023-10-11T13:16:18Z</time>
      </trkpt>
      <trkpt lat="49.78349" lon="2.34125">
        <ele>114.6</ele>
        <time>2023-10-11T13:16:19Z</time>
      </trkpt>
      <trkpt lat="49.7835" lon="2.34122">
        <ele>114.5</ele>
        <time>2023-10-11T13:16:20Z</time>
      </trkpt>
      <trkpt lat="49.7835" lon="2.34121">
        <ele>114.5</ele>
        <time>2023-10-11T13:16:21Z</time>
      </trkpt>
      <trkpt lat="49.7835" lon="2.3412">
        <ele>114.5</ele>
        <time>2023-10-11T13:16:22Z</time>
      </trkpt>
      <trkpt lat="49.78351" lon="2.34116">
        <ele>114.5</ele>
        <time>2023-10-11T13:16:23Z</time>
      </trkpt>
      <trkpt lat="49.78352" lon="2.34114">
        <ele>114.5</ele>
        <time>2023-10-11T13:16:25Z</time>
      </trkpt>
      <trkpt lat="49.78353" lon="2.34111">
        <ele>114.5</ele>
        <time>2023-10-11T13:16:26Z</time>
      </trkpt>
      <trkpt lat="49.78353" lon="2.34109">
        <ele>114.5</ele>
        <time>2023-10-11T13:16:27Z</time>
      </trkpt>
      <trkpt lat="49.78354" lon="2.34108">
        <ele>114.4</ele>
        <time>2023-10-11T13:16:29Z</time>
      </trkpt>
      <trkpt lat="49.78354" lon="2.34106">
        <ele>114.4</ele>
        <time>2023-10-11T13:16:30Z</time>
      </trkpt>
      <trkpt lat="49.78354" lon="2.34105">
        <ele>114.4</ele>
        <time>2023-10-11T13:16:31Z</time>
      </trkpt>
      <trkpt lat="49.78355" lon="2.34103">
        <ele>114.4</ele>
        <time>2023-10-11T13:16:32Z</time>
      </trkpt>
      <trkpt lat="49.78355" lon="2.34101">
        <ele>114.4</ele>
        <time>2023-10-11T13:16:33Z</time>
      </trkpt>
      <trkpt lat="49.78356" lon="2.341">
        <ele>114.4</ele>
        <time>2023-10-11T13:16:34Z</time>
      </trkpt>
      <trkpt lat="49.78356" lon="2.34098">
        <ele>114.4</ele>
        <time>2023-10-11T13:16:35Z</time>
      </trkpt>
      <trkpt lat="49.78357" lon="2.34097">
        <ele>114.4</ele>
        <time>2023-10-11T13:16:36Z</time>
      </trkpt>
      <trkpt lat="49.78358" lon="2.34095">
        <ele>114.4</ele>
        <time>2023-10-11T13:16:37Z</time>
      </trkpt>
      <trkpt lat="49.78358" lon="2.34094">
        <ele>114.4</ele>
        <time>2023-10-11T13:16:38Z</time>
      </trkpt>
      <trkpt lat="49.78359" lon="2.34092">
        <ele>114.3</ele>
        <time>2023-10-11T13:16:39Z</time>
      </trkpt>
      <trkpt lat="49.78359" lon="2.34091">
        <ele>114.3</ele>
        <time>2023-10-11T13:16:40Z</time>
      </trkpt>
      <trkpt lat="49.7836" lon="2.34088">
        <ele>114.3</ele>
        <time>2023-10-11T13:16:41Z</time>
      </trkpt>
      <trkpt lat="49.78361" lon="2.34087">
        <ele>114.3</ele>
        <time>2023-10-11T13:16:42Z</time>
      </trkpt>
      <trkpt lat="49.78361" lon="2.34086">
        <ele>114.3</ele>
        <time>2023-10-11T13:16:43Z</time>
      </trkpt>
      <trkpt lat="49.78362" lon="2.34084">
        <ele>114.3</ele>
        <time>2023-10-11T13:16:44Z</time>
      </trkpt>
      <trkpt lat="49.78362" lon="2.34083">
        <ele>114.3</ele>
        <time>2023-10-11T13:16:45Z</time>
      </trkpt>
      <trkpt lat="49.78363" lon="2.34081">
        <ele>114.3</ele>
        <time>2023-10-11T13:16:46Z</time>
      </trkpt>
      <trkpt lat="49.78363" lon="2.3408">
        <ele>114.3</ele>
        <time>2023-10-11T13:16:47Z</time>
      </trkpt>
      <trkpt lat="49.78364" lon="2.34078">
        <ele>114.3</ele>
        <time>2023-10-11T13:16:48Z</time>
      </trkpt>
      <trkpt lat="49.78364" lon="2.34077">
        <ele>114.2</ele>
        <time>2023-10-11T13:16:49Z</time>
      </trkpt>
      <trkpt lat="49.78365" lon="2.34075">
        <ele>114.2</ele>
        <time>2023-10-11T13:16:50Z</time>
      </trkpt>
      <trkpt lat="49.78365" lon="2.34074">
        <ele>114.2</ele>
        <time>2023-10-11T13:16:51Z</time>
      </trkpt>
      <trkpt lat="49.78366" lon="2.34072">
        <ele>114.2</ele>
        <time>2023-10-11T13:16:52Z</time>
      </trkpt>
      <trkpt lat="49.78367" lon="2.34071">
        <ele>114.2</ele>
        <time>2023-10-11T13:16:53Z</time>
      </trkpt>
      <trkpt lat="49.78367" lon="2.34069">
        <ele>114.2</ele>
        <time>2023-10-11T13:16:54Z</time>
      </trkpt>
      <trkpt lat="49.78368" lon="2.34067">
        <ele>114.2</ele>
        <time>2023-10-11T13:16:55Z</time>
      </trkpt>
      <trkpt lat="49.78369" lon="2.34064">
        <ele>114.2</ele>
        <time>2023-10-11T13:16:56Z</time>
      </trkpt>
      <trkpt lat="49.78369" lon="2.34063">
        <ele>114.2</ele>
        <time>2023-10-11T13:16:58Z</time>
      </trkpt>
      <trkpt lat="49.7837" lon="2.34062">
        <ele>114.1</ele>
        <time>2023-10-11T13:16:59Z</time>
      </trkpt>
      <trkpt lat="49.7837" lon="2.3406">
        <ele>114.1</ele>
        <time>2023-10-11T13:17:00Z</time>
      </trkpt>
      <trkpt lat="49.78371" lon="2.34059">
        <ele>114.1</ele>
        <time>2023-10-11T13:17:01Z</time>
      </trkpt>
      <trkpt lat="49.78371" lon="2.34058">
        <ele>114.1</ele>
        <time>2023-10-11T13:17:02Z</time>
      </trkpt>
      <trkpt lat="49.78371" lon="2.34056">
        <ele>114.1</ele>
        <time>2023-10-11T13:17:03Z</time>
      </trkpt>
      <trkpt lat="49.78372" lon="2.34055">
        <ele>114.1</ele>
        <time>2023-10-11T13:17:04Z</time>
      </trkpt>
      <trkpt lat="49.78372" lon="2.34053">
        <ele>114.1</ele>
        <time>2023-10-11T13:17:05Z</time>
      </trkpt>
      <trkpt lat="49.78373" lon="2.34052">
        <ele>114.1</ele>
        <time>2023-10-11T13:17:06Z</time>
      </trkpt>
      <trkpt lat="49.78373" lon="2.3405">
        <ele>114.1</ele>
        <time>2023-10-11T13:17:07Z</time>
      </trkpt>
      <trkpt lat="49.78374" lon="2.34048">
        <ele>114.1</ele>
        <time>2023-10-11T13:17:08Z</time>
      </trkpt>
      <trkpt lat="49.78374" lon="2.34046">
        <ele>114.1</ele>
        <time>2023-10-11T13:17:10Z</time>
      </trkpt>
      <trkpt lat="49.78374" lon="2.34045">
        <ele>114.1</ele>
        <time>2023-10-11T13:17:11Z</time>
      </trkpt>
      <trkpt lat="49.78375" lon="2.34043">
        <ele>114</ele>
        <time>2023-10-11T13:17:12Z</time>
      </trkpt>
      <trkpt lat="49.78375" lon="2.34042">
        <ele>114</ele>
        <time>2023-10-11T13:17:13Z</time>
      </trkpt>
      <trkpt lat="49.78376" lon="2.3404">
        <ele>114</ele>
        <time>2023-10-11T13:17:14Z</time>
      </trkpt>
      <trkpt lat="49.78376" lon="2.34038">
        <ele>114</ele>
        <time>2023-10-11T13:17:15Z</time>
      </trkpt>
      <trkpt lat="49.78377" lon="2.34037">
        <ele>114</ele>
        <time>2023-10-11T13:17:16Z</time>
      </trkpt>
      <trkpt lat="49.78377" lon="2.34035">
        <ele>114</ele>
        <time>2023-10-11T13:17:17Z</time>
      </trkpt>
      <trkpt lat="49.78377" lon="2.34034">
        <ele>114</ele>
        <time>2023-10-11T13:17:18Z</time>
      </trkpt>
      <trkpt lat="49.78378" lon="2.34031">
        <ele>114</ele>
        <time>2023-10-11T13:17:19Z</time>
      </trkpt>
      <trkpt lat="49.78379" lon="2.34029">
        <ele>114</ele>
        <time>2023-10-11T13:17:21Z</time>
      </trkpt>
      <trkpt lat="49.78379" lon="2.34027">
        <ele>114</ele>
        <time>2023-10-11T13:17:22Z</time>
      </trkpt>
      <trkpt lat="49.7838" lon="2.34024">
        <ele>114</ele>
        <time>2023-10-11T13:17:23Z</time>
      </trkpt>
      <trkpt lat="49.7838" lon="2.34023">
        <ele>113.9</ele>
        <time>2023-10-11T13:17:24Z</time>
      </trkpt>
      <trkpt lat="49.7838" lon="2.34022">
        <ele>113.9</ele>
        <time>2023-10-11T13:17:25Z</time>
      </trkpt>
      <trkpt lat="49.78381" lon="2.3402">
        <ele>113.9</ele>
        <time>2023-10-11T13:17:26Z</time>
      </trkpt>
      <trkpt lat="49.78381" lon="2.34018">
        <ele>113.9</ele>
        <time>2023-10-11T13:17:27Z</time>
      </trkpt>
      <trkpt lat="49.78381" lon="2.34017">
        <ele>113.9</ele>
        <time>2023-10-11T13:17:28Z</time>
      </trkpt>
      <trkpt lat="49.78382" lon="2.34013">
        <ele>113.9</ele>
        <time>2023-10-11T13:17:29Z</time>
      </trkpt>
      <trkpt lat="49.78382" lon="2.34012">
        <ele>113.9</ele>
        <time>2023-10-11T13:17:31Z</time>
      </trkpt>
      <trkpt lat="49.78383" lon="2.3401">
        <ele>113.9</ele>
        <time>2023-10-11T13:17:32Z</time>
      </trkpt>
      <trkpt lat="49.78383" lon="2.34008">
        <ele>113.9</ele>
        <time>2023-10-11T13:17:33Z</time>
      </trkpt>
      <trkpt lat="49.78383" lon="2.34007">
        <ele>113.9</ele>
        <time>2023-10-11T13:17:34Z</time>
      </trkpt>
      <trkpt lat="49.78383" lon="2.34005">
        <ele>113.9</ele>
        <time>2023-10-11T13:17:35Z</time>
      </trkpt>
      <trkpt lat="49.78384" lon="2.34003">
        <ele>113.9</ele>
        <time>2023-10-11T13:17:36Z</time>
      </trkpt>
      <trkpt lat="49.78384" lon="2.34">
        <ele>113.8</ele>
        <time>2023-10-11T13:17:37Z</time>
      </trkpt>
      <trkpt lat="49.78385" lon="2.33998">
        <ele>113.8</ele>
        <time>2023-10-11T13:17:39Z</time>
      </trkpt>
      <trkpt lat="49.78385" lon="2.33997">
        <ele>113.8</ele>
        <time>2023-10-11T13:17:40Z</time>
      </trkpt>
      <trkpt lat="49.78386" lon="2.33993">
        <ele>113.8</ele>
        <time>2023-10-11T13:17:41Z</time>
      </trkpt>
      <trkpt lat="49.78386" lon="2.33992">
        <ele>113.8</ele>
        <time>2023-10-11T13:17:42Z</time>
      </trkpt>
      <trkpt lat="49.78386" lon="2.33991">
        <ele>113.8</ele>
        <time>2023-10-11T13:17:43Z</time>
      </trkpt>
      <trkpt lat="49.78387" lon="2.33989">
        <ele>113.8</ele>
        <time>2023-10-11T13:17:44Z</time>
      </trkpt>
      <trkpt lat="49.78387" lon="2.33987">
        <ele>113.7</ele>
        <time>2023-10-11T13:17:45Z</time>
      </trkpt>
      <trkpt lat="49.78388" lon="2.33985">
        <ele>113.7</ele>
        <time>2023-10-11T13:17:46Z</time>
      </trkpt>
      <trkpt lat="49.78388" lon="2.33981">
        <ele>113.7</ele>
        <time>2023-10-11T13:17:47Z</time>
      </trkpt>
      <trkpt lat="49.78389" lon="2.33979">
        <ele>113.7</ele>
        <time>2023-10-11T13:17:48Z</time>
      </trkpt>
      <trkpt lat="49.78389" lon="2.33976">
        <ele>113.6</ele>
        <time>2023-10-11T13:17:50Z</time>
      </trkpt>
      <trkpt lat="49.7839" lon="2.33974">
        <ele>113.6</ele>
        <time>2023-10-11T13:17:52Z</time>
      </trkpt>
      <trkpt lat="49.7839" lon="2.33972">
        <ele>113.6</ele>
        <time>2023-10-11T13:17:53Z</time>
      </trkpt>
      <trkpt lat="49.78391" lon="2.33968">
        <ele>113.6</ele>
        <time>2023-10-11T13:17:54Z</time>
      </trkpt>
      <trkpt lat="49.78391" lon="2.33967">
        <ele>113.6</ele>
        <time>2023-10-11T13:17:55Z</time>
      </trkpt>
      <trkpt lat="49.78392" lon="2.33965">
        <ele>113.5</ele>
        <time>2023-10-11T13:17:56Z</time>
      </trkpt>
      <trkpt lat="49.78392" lon="2.33963">
        <ele>113.5</ele>
        <time>2023-10-11T13:17:58Z</time>
      </trkpt>
      <trkpt lat="49.78392" lon="2.33961">
        <ele>113.5</ele>
        <time>2023-10-11T13:17:59Z</time>
      </trkpt>
      <trkpt lat="49.78392" lon="2.3396">
        <ele>113.5</ele>
        <time>2023-10-11T13:18:00Z</time>
      </trkpt>
      <trkpt lat="49.78393" lon="2.33959">
        <ele>113.5</ele>
        <time>2023-10-11T13:18:01Z</time>
      </trkpt>
      <trkpt lat="49.78393" lon="2.33957">
        <ele>113.5</ele>
        <time>2023-10-11T13:18:02Z</time>
      </trkpt>
      <trkpt lat="49.78394" lon="2.33954">
        <ele>113.5</ele>
        <time>2023-10-11T13:18:03Z</time>
      </trkpt>
      <trkpt lat="49.78394" lon="2.33953">
        <ele>113.5</ele>
        <time>2023-10-11T13:18:04Z</time>
      </trkpt>
      <trkpt lat="49.78395" lon="2.33952">
        <ele>113.5</ele>
        <time>2023-10-11T13:18:05Z</time>
      </trkpt>
      <trkpt lat="49.78396" lon="2.3395">
        <ele>113.4</ele>
        <time>2023-10-11T13:18:06Z</time>
      </trkpt>
      <trkpt lat="49.78396" lon="2.33948">
        <ele>113.4</ele>
        <time>2023-10-11T13:18:07Z</time>
      </trkpt>
      <trkpt lat="49.78397" lon="2.33947">
        <ele>113.4</ele>
        <time>2023-10-11T13:18:08Z</time>
      </trkpt>
      <trkpt lat="49.78398" lon="2.33945">
        <ele>113.4</ele>
        <time>2023-10-11T13:18:09Z</time>
      </trkpt>
      <trkpt lat="49.78399" lon="2.33942">
        <ele>113.4</ele>
        <time>2023-10-11T13:18:10Z</time>
      </trkpt>
      <trkpt lat="49.78399" lon="2.33941">
        <ele>113.4</ele>
        <time>2023-10-11T13:18:11Z</time>
      </trkpt>
      <trkpt lat="49.78399" lon="2.3394">
        <ele>113.4</ele>
        <time>2023-10-11T13:18:12Z</time>
      </trkpt>
      <trkpt lat="49.784" lon="2.33938">
        <ele>113.4</ele>
        <time>2023-10-11T13:18:13Z</time>
      </trkpt>
      <trkpt lat="49.784" lon="2.33936">
        <ele>113.4</ele>
        <time>2023-10-11T13:18:14Z</time>
      </trkpt>
      <trkpt lat="49.78401" lon="2.33935">
        <ele>113.3</ele>
        <time>2023-10-11T13:18:15Z</time>
      </trkpt>
      <trkpt lat="49.78402" lon="2.33932">
        <ele>113.3</ele>
        <time>2023-10-11T13:18:16Z</time>
      </trkpt>
      <trkpt lat="49.78402" lon="2.3393">
        <ele>113.3</ele>
        <time>2023-10-11T13:18:17Z</time>
      </trkpt>
      <trkpt lat="49.78402" lon="2.33929">
        <ele>113.3</ele>
        <time>2023-10-11T13:18:18Z</time>
      </trkpt>
      <trkpt lat="49.78403" lon="2.33926">
        <ele>113.3</ele>
        <time>2023-10-11T13:18:19Z</time>
      </trkpt>
      <trkpt lat="49.78403" lon="2.33925">
        <ele>113.3</ele>
        <time>2023-10-11T13:18:20Z</time>
      </trkpt>
      <trkpt lat="49.78403" lon="2.33923">
        <ele>113.3</ele>
        <time>2023-10-11T13:18:21Z</time>
      </trkpt>
      <trkpt lat="49.78403" lon="2.33922">
        <ele>113.3</ele>
        <time>2023-10-11T13:18:22Z</time>
      </trkpt>
      <trkpt lat="49.78404" lon="2.3392">
        <ele>113.3</ele>
        <time>2023-10-11T13:18:23Z</time>
      </trkpt>
      <trkpt lat="49.78404" lon="2.33919">
        <ele>113.3</ele>
        <time>2023-10-11T13:18:24Z</time>
      </trkpt>
      <trkpt lat="49.78405" lon="2.33914">
        <ele>113.3</ele>
        <time>2023-10-11T13:18:25Z</time>
      </trkpt>
      <trkpt lat="49.78405" lon="2.33912">
        <ele>113.3</ele>
        <time>2023-10-11T13:18:27Z</time>
      </trkpt>
      <trkpt lat="49.78405" lon="2.33911">
        <ele>113.3</ele>
        <time>2023-10-11T13:18:28Z</time>
      </trkpt>
      <trkpt lat="49.78405" lon="2.33909">
        <ele>113.3</ele>
        <time>2023-10-11T13:18:29Z</time>
      </trkpt>
      <trkpt lat="49.78405" lon="2.33908">
        <ele>113.2</ele>
        <time>2023-10-11T13:18:30Z</time>
      </trkpt>
      <trkpt lat="49.78406" lon="2.33906">
        <ele>113.2</ele>
        <time>2023-10-11T13:18:31Z</time>
      </trkpt>
      <trkpt lat="49.78406" lon="2.33904">
        <ele>113.2</ele>
        <time>2023-10-11T13:18:32Z</time>
      </trkpt>
      <trkpt lat="49.78405" lon="2.33903">
        <ele>113.2</ele>
        <time>2023-10-11T13:18:33Z</time>
      </trkpt>
      <trkpt lat="49.78405" lon="2.33902">
        <ele>113.2</ele>
        <time>2023-10-11T13:18:34Z</time>
      </trkpt>
      <trkpt lat="49.78404" lon="2.33901">
        <ele>113.2</ele>
        <time>2023-10-11T13:18:35Z</time>
      </trkpt>
      <trkpt lat="49.78404" lon="2.339">
        <ele>113.2</ele>
        <time>2023-10-11T13:18:36Z</time>
      </trkpt>
      <trkpt lat="49.78404" lon="2.33898">
        <ele>113.2</ele>
        <time>2023-10-11T13:18:37Z</time>
      </trkpt>
      <trkpt lat="49.78405" lon="2.33895">
        <ele>113.2</ele>
        <time>2023-10-11T13:18:38Z</time>
      </trkpt>
      <trkpt lat="49.78405" lon="2.33893">
        <ele>113.2</ele>
        <time>2023-10-11T13:18:40Z</time>
      </trkpt>
      <trkpt lat="49.78405" lon="2.33894">
        <ele>113.2</ele>
        <time>2023-10-11T13:18:42Z</time>
      </trkpt>
      <trkpt lat="49.78406" lon="2.33894">
        <ele>113.2</ele>
        <time>2023-10-11T13:18:43Z</time>
      </trkpt>
      <trkpt lat="49.78407" lon="2.33894">
        <ele>113.2</ele>
        <time>2023-10-11T13:18:44Z</time>
      </trkpt>
      <trkpt lat="49.78408" lon="2.33893">
        <ele>113.2</ele>
        <time>2023-10-11T13:18:45Z</time>
      </trkpt>
      <trkpt lat="49.78408" lon="2.33892">
        <ele>113.2</ele>
        <time>2023-10-11T13:18:46Z</time>
      </trkpt>
      <trkpt lat="49.78408" lon="2.3389">
        <ele>113.2</ele>
        <time>2023-10-11T13:18:47Z</time>
      </trkpt>
      <trkpt lat="49.78408" lon="2.33888">
        <ele>113.2</ele>
        <time>2023-10-11T13:18:48Z</time>
      </trkpt>
      <trkpt lat="49.78409" lon="2.33884">
        <ele>113.1</ele>
        <time>2023-10-11T13:18:49Z</time>
      </trkpt>
      <trkpt lat="49.78409" lon="2.33883">
        <ele>113.1</ele>
        <time>2023-10-11T13:18:50Z</time>
      </trkpt>
      <trkpt lat="49.78409" lon="2.33881">
        <ele>113.1</ele>
        <time>2023-10-11T13:18:51Z</time>
      </trkpt>
      <trkpt lat="49.78409" lon="2.33878">
        <ele>113.1</ele>
        <time>2023-10-11T13:18:53Z</time>
      </trkpt>
      <trkpt lat="49.7841" lon="2.33877">
        <ele>113.1</ele>
        <time>2023-10-11T13:18:54Z</time>
      </trkpt>
      <trkpt lat="49.7841" lon="2.33874">
        <ele>113.1</ele>
        <time>2023-10-11T13:18:55Z</time>
      </trkpt>
      <trkpt lat="49.7841" lon="2.33872">
        <ele>113.1</ele>
        <time>2023-10-11T13:18:56Z</time>
      </trkpt>
      <trkpt lat="49.7841" lon="2.33871">
        <ele>113.1</ele>
        <time>2023-10-11T13:18:57Z</time>
      </trkpt>
      <trkpt lat="49.7841" lon="2.33869">
        <ele>113.1</ele>
        <time>2023-10-11T13:18:58Z</time>
      </trkpt>
      <trkpt lat="49.7841" lon="2.33867">
        <ele>113.1</ele>
        <time>2023-10-11T13:18:59Z</time>
      </trkpt>
      <trkpt lat="49.78411" lon="2.33863">
        <ele>113</ele>
        <time>2023-10-11T13:19:00Z</time>
      </trkpt>
      <trkpt lat="49.78411" lon="2.33862">
        <ele>113</ele>
        <time>2023-10-11T13:19:01Z</time>
      </trkpt>
      <trkpt lat="49.78411" lon="2.33861">
        <ele>113</ele>
        <time>2023-10-11T13:19:02Z</time>
      </trkpt>
      <trkpt lat="49.78411" lon="2.33859">
        <ele>113</ele>
        <time>2023-10-11T13:19:03Z</time>
      </trkpt>
      <trkpt lat="49.78411" lon="2.33857">
        <ele>113</ele>
        <time>2023-10-11T13:19:04Z</time>
      </trkpt>
      <trkpt lat="49.78411" lon="2.33856">
        <ele>113</ele>
        <time>2023-10-11T13:19:05Z</time>
      </trkpt>
      <trkpt lat="49.78412" lon="2.33855">
        <ele>113</ele>
        <time>2023-10-11T13:19:06Z</time>
      </trkpt>
      <trkpt lat="49.78412" lon="2.33854">
        <ele>113</ele>
        <time>2023-10-11T13:19:07Z</time>
      </trkpt>
      <trkpt lat="49.78412" lon="2.33852">
        <ele>113</ele>
        <time>2023-10-11T13:19:08Z</time>
      </trkpt>
      <trkpt lat="49.78412" lon="2.33851">
        <ele>113</ele>
        <time>2023-10-11T13:19:09Z</time>
      </trkpt>
      <trkpt lat="49.78412" lon="2.33849">
        <ele>112.9</ele>
        <time>2023-10-11T13:19:10Z</time>
      </trkpt>
      <trkpt lat="49.78412" lon="2.33848">
        <ele>112.9</ele>
        <time>2023-10-11T13:19:11Z</time>
      </trkpt>
      <trkpt lat="49.78412" lon="2.33844">
        <ele>112.9</ele>
        <time>2023-10-11T13:19:12Z</time>
      </trkpt>
      <trkpt lat="49.78413" lon="2.33843">
        <ele>112.9</ele>
        <time>2023-10-11T13:19:14Z</time>
      </trkpt>
      <trkpt lat="49.78413" lon="2.33841">
        <ele>112.9</ele>
        <time>2023-10-11T13:19:15Z</time>
      </trkpt>
      <trkpt lat="49.78413" lon="2.33839">
        <ele>112.9</ele>
        <time>2023-10-11T13:19:16Z</time>
      </trkpt>
      <trkpt lat="49.78414" lon="2.33837">
        <ele>112.9</ele>
        <time>2023-10-11T13:19:17Z</time>
      </trkpt>
      <trkpt lat="49.78414" lon="2.33836">
        <ele>112.8</ele>
        <time>2023-10-11T13:19:18Z</time>
      </trkpt>
      <trkpt lat="49.78415" lon="2.33834">
        <ele>112.8</ele>
        <time>2023-10-11T13:19:19Z</time>
      </trkpt>
      <trkpt lat="49.78415" lon="2.33833">
        <ele>112.8</ele>
        <time>2023-10-11T13:19:20Z</time>
      </trkpt>
      <trkpt lat="49.78416" lon="2.33829">
        <ele>112.8</ele>
        <time>2023-10-11T13:19:21Z</time>
      </trkpt>
      <trkpt lat="49.78416" lon="2.33828">
        <ele>112.8</ele>
        <time>2023-10-11T13:19:23Z</time>
      </trkpt>
      <trkpt lat="49.78416" lon="2.33827">
        <ele>112.8</ele>
        <time>2023-10-11T13:19:24Z</time>
      </trkpt>
      <trkpt lat="49.78416" lon="2.33825">
        <ele>112.8</ele>
        <time>2023-10-11T13:19:25Z</time>
      </trkpt>
      <trkpt lat="49.78417" lon="2.33824">
        <ele>112.7</ele>
        <time>2023-10-11T13:19:26Z</time>
      </trkpt>
      <trkpt lat="49.78417" lon="2.33822">
        <ele>112.7</ele>
        <time>2023-10-11T13:19:27Z</time>
      </trkpt>
      <trkpt lat="49.78418" lon="2.33819">
        <ele>112.7</ele>
        <time>2023-10-11T13:19:28Z</time>
      </trkpt>
      <trkpt lat="49.78418" lon="2.33818">
        <ele>112.7</ele>
        <time>2023-10-11T13:19:29Z</time>
      </trkpt>
      <trkpt lat="49.78418" lon="2.33817">
        <ele>112.7</ele>
        <time>2023-10-11T13:19:30Z</time>
      </trkpt>
      <trkpt lat="49.78419" lon="2.33813">
        <ele>112.6</ele>
        <time>2023-10-11T13:19:31Z</time>
      </trkpt>
      <trkpt lat="49.78419" lon="2.33812">
        <ele>112.6</ele>
        <time>2023-10-11T13:19:32Z</time>
      </trkpt>
      <trkpt lat="49.78419" lon="2.33811">
        <ele>112.6</ele>
        <time>2023-10-11T13:19:33Z</time>
      </trkpt>
      <trkpt lat="49.78419" lon="2.33809">
        <ele>112.6</ele>
        <time>2023-10-11T13:19:34Z</time>
      </trkpt>
      <trkpt lat="49.78419" lon="2.33808">
        <ele>112.6</ele>
        <time>2023-10-11T13:19:35Z</time>
      </trkpt>
      <trkpt lat="49.7842" lon="2.33806">
        <ele>112.6</ele>
        <time>2023-10-11T13:19:36Z</time>
      </trkpt>
      <trkpt lat="49.7842" lon="2.33803">
        <ele>112.5</ele>
        <time>2023-10-11T13:19:37Z</time>
      </trkpt>
      <trkpt lat="49.7842" lon="2.33801">
        <ele>112.5</ele>
        <time>2023-10-11T13:19:38Z</time>
      </trkpt>
      <trkpt lat="49.7842" lon="2.338">
        <ele>112.5</ele>
        <time>2023-10-11T13:19:39Z</time>
      </trkpt>
      <trkpt lat="49.78421" lon="2.33797">
        <ele>112.5</ele>
        <time>2023-10-11T13:19:40Z</time>
      </trkpt>
      <trkpt lat="49.78421" lon="2.33796">
        <ele>112.4</ele>
        <time>2023-10-11T13:19:41Z</time>
      </trkpt>
      <trkpt lat="49.78421" lon="2.33794">
        <ele>112.4</ele>
        <time>2023-10-11T13:19:42Z</time>
      </trkpt>
      <trkpt lat="49.78422" lon="2.33791">
        <ele>112.4</ele>
        <time>2023-10-11T13:19:43Z</time>
      </trkpt>
      <trkpt lat="49.78422" lon="2.3379">
        <ele>112.4</ele>
        <time>2023-10-11T13:19:44Z</time>
      </trkpt>
      <trkpt lat="49.78422" lon="2.33789">
        <ele>112.4</ele>
        <time>2023-10-11T13:19:45Z</time>
      </trkpt>
      <trkpt lat="49.78422" lon="2.33787">
        <ele>112.4</ele>
        <time>2023-10-11T13:19:46Z</time>
      </trkpt>
      <trkpt lat="49.78423" lon="2.33786">
        <ele>112.3</ele>
        <time>2023-10-11T13:19:47Z</time>
      </trkpt>
      <trkpt lat="49.78424" lon="2.33784">
        <ele>112.3</ele>
        <time>2023-10-11T13:19:48Z</time>
      </trkpt>
      <trkpt lat="49.78424" lon="2.33782">
        <ele>112.3</ele>
        <time>2023-10-11T13:19:50Z</time>
      </trkpt>
      <trkpt lat="49.78424" lon="2.33781">
        <ele>112.3</ele>
        <time>2023-10-11T13:19:51Z</time>
      </trkpt>
      <trkpt lat="49.78424" lon="2.3378">
        <ele>112.3</ele>
        <time>2023-10-11T13:19:52Z</time>
      </trkpt>
      <trkpt lat="49.78424" lon="2.33778">
        <ele>112.3</ele>
        <time>2023-10-11T13:19:53Z</time>
      </trkpt>
      <trkpt lat="49.78425" lon="2.33776">
        <ele>112.2</ele>
        <time>2023-10-11T13:19:54Z</time>
      </trkpt>
      <trkpt lat="49.78425" lon="2.33775">
        <ele>112.2</ele>
        <time>2023-10-11T13:19:55Z</time>
      </trkpt>
      <trkpt lat="49.78425" lon="2.33771">
        <ele>112.2</ele>
        <time>2023-10-11T13:19:56Z</time>
      </trkpt>
      <trkpt lat="49.78426" lon="2.3377">
        <ele>112.2</ele>
        <time>2023-10-11T13:19:58Z</time>
      </trkpt>
      <trkpt lat="49.78426" lon="2.33768">
        <ele>112.2</ele>
        <time>2023-10-11T13:19:59Z</time>
      </trkpt>
      <trkpt lat="49.78426" lon="2.33767">
        <ele>112.2</ele>
        <time>2023-10-11T13:20:00Z</time>
      </trkpt>
      <trkpt lat="49.78426" lon="2.33765">
        <ele>112.1</ele>
        <time>2023-10-11T13:20:01Z</time>
      </trkpt>
      <trkpt lat="49.78427" lon="2.33764">
        <ele>112.1</ele>
        <time>2023-10-11T13:20:02Z</time>
      </trkpt>
      <trkpt lat="49.78427" lon="2.33762">
        <ele>112.1</ele>
        <time>2023-10-11T13:20:03Z</time>
      </trkpt>
      <trkpt lat="49.78427" lon="2.3376">
        <ele>112.1</ele>
        <time>2023-10-11T13:20:04Z</time>
      </trkpt>
      <trkpt lat="49.78427" lon="2.33759">
        <ele>112.1</ele>
        <time>2023-10-11T13:20:05Z</time>
      </trkpt>
      <trkpt lat="49.78427" lon="2.33756">
        <ele>112.1</ele>
        <time>2023-10-11T13:20:06Z</time>
      </trkpt>
      <trkpt lat="49.78427" lon="2.33753">
        <ele>112.1</ele>
        <time>2023-10-11T13:20:08Z</time>
      </trkpt>
      <trkpt lat="49.78427" lon="2.33752">
        <ele>112.1</ele>
        <time>2023-10-11T13:20:10Z</time>
      </trkpt>
      <trkpt lat="49.78427" lon="2.3375">
        <ele>112</ele>
        <time>2023-10-11T13:20:11Z</time>
      </trkpt>
      <trkpt lat="49.78427" lon="2.33749">
        <ele>112</ele>
        <time>2023-10-11T13:20:12Z</time>
      </trkpt>
      <trkpt lat="49.78427" lon="2.33747">
        <ele>112</ele>
        <time>2023-10-11T13:20:13Z</time>
      </trkpt>
      <trkpt lat="49.78428" lon="2.33745">
        <ele>112</ele>
        <time>2023-10-11T13:20:14Z</time>
      </trkpt>
      <trkpt lat="49.78428" lon="2.33744">
        <ele>112</ele>
        <time>2023-10-11T13:20:15Z</time>
      </trkpt>
      <trkpt lat="49.78428" lon="2.33743">
        <ele>112</ele>
        <time>2023-10-11T13:20:16Z</time>
      </trkpt>
      <trkpt lat="49.78428" lon="2.33742">
        <ele>112</ele>
        <time>2023-10-11T13:20:17Z</time>
      </trkpt>
      <trkpt lat="49.78428" lon="2.3374">
        <ele>112</ele>
        <time>2023-10-11T13:20:18Z</time>
      </trkpt>
      <trkpt lat="49.78428" lon="2.33739">
        <ele>112</ele>
        <time>2023-10-11T13:20:19Z</time>
      </trkpt>
      <trkpt lat="49.78428" lon="2.33737">
        <ele>112</ele>
        <time>2023-10-11T13:20:20Z</time>
      </trkpt>
      <trkpt lat="49.78428" lon="2.33735">
        <ele>112</ele>
        <time>2023-10-11T13:20:21Z</time>
      </trkpt>
      <trkpt lat="49.78429" lon="2.33734">
        <ele>112</ele>
        <time>2023-10-11T13:20:22Z</time>
      </trkpt>
      <trkpt lat="49.78429" lon="2.33733">
        <ele>112</ele>
        <time>2023-10-11T13:20:23Z</time>
      </trkpt>
      <trkpt lat="49.78429" lon="2.33732">
        <ele>112</ele>
        <time>2023-10-11T13:20:24Z</time>
      </trkpt>
      <trkpt lat="49.78429" lon="2.3373">
        <ele>112</ele>
        <time>2023-10-11T13:20:25Z</time>
      </trkpt>
      <trkpt lat="49.78429" lon="2.33729">
        <ele>112</ele>
        <time>2023-10-11T13:20:26Z</time>
      </trkpt>
      <trkpt lat="49.78429" lon="2.33727">
        <ele>112</ele>
        <time>2023-10-11T13:20:27Z</time>
      </trkpt>
      <trkpt lat="49.7843" lon="2.33724">
        <ele>111.9</ele>
        <time>2023-10-11T13:20:28Z</time>
      </trkpt>
      <trkpt lat="49.7843" lon="2.33723">
        <ele>111.9</ele>
        <time>2023-10-11T13:20:30Z</time>
      </trkpt>
      <trkpt lat="49.7843" lon="2.33721">
        <ele>111.9</ele>
        <time>2023-10-11T13:20:31Z</time>
      </trkpt>
      <trkpt lat="49.78431" lon="2.33719">
        <ele>111.9</ele>
        <time>2023-10-11T13:20:32Z</time>
      </trkpt>
      <trkpt lat="49.78431" lon="2.33719">
        <ele>111.9</ele>
        <time>2023-10-11T13:20:34Z</time>
      </trkpt>
      <trkpt lat="49.78431" lon="2.33719">
        <ele>111.9</ele>
        <time>2023-10-11T13:20:35Z</time>
      </trkpt>
      <trkpt lat="49.78431" lon="2.33719">
        <ele>111.9</ele>
        <time>2023-10-11T13:20:36Z</time>
      </trkpt>
      <trkpt lat="49.78431" lon="2.33719">
        <ele>111.9</ele>
        <time>2023-10-11T13:20:37Z</time>
      </trkpt>
      <trkpt lat="49.78431" lon="2.33719">
        <ele>111.9</ele>
        <time>2023-10-11T13:20:38Z</time>
      </trkpt>
      <trkpt lat="49.78431" lon="2.33719">
        <ele>111.9</ele>
        <time>2023-10-11T13:20:39Z</time>
      </trkpt>
      <trkpt lat="49.78431" lon="2.33719">
        <ele>111.9</ele>
        <time>2023-10-11T13:20:40Z</time>
      </trkpt>
      <trkpt lat="49.78432" lon="2.33717">
        <ele>111.9</ele>
        <time>2023-10-11T13:20:41Z</time>
      </trkpt>
      <trkpt lat="49.78432" lon="2.33716">
        <ele>111.9</ele>
        <time>2023-10-11T13:20:42Z</time>
      </trkpt>
      <trkpt lat="49.78432" lon="2.33714">
        <ele>111.9</ele>
        <time>2023-10-11T13:20:43Z</time>
      </trkpt>
      <trkpt lat="49.78432" lon="2.33713">
        <ele>111.9</ele>
        <time>2023-10-11T13:20:44Z</time>
      </trkpt>
      <trkpt lat="49.78432" lon="2.33713">
        <ele>111.9</ele>
        <time>2023-10-11T13:20:45Z</time>
      </trkpt>
      <trkpt lat="49.78432" lon="2.33711">
        <ele>111.9</ele>
        <time>2023-10-11T13:20:46Z</time>
      </trkpt>
      <trkpt lat="49.78432" lon="2.33711">
        <ele>111.9</ele>
        <time>2023-10-11T13:20:48Z</time>
      </trkpt>
      <trkpt lat="49.78432" lon="2.3371">
        <ele>111.9</ele>
        <time>2023-10-11T13:20:49Z</time>
      </trkpt>
      <trkpt lat="49.78432" lon="2.33709">
        <ele>111.9</ele>
        <time>2023-10-11T13:20:50Z</time>
      </trkpt>
      <trkpt lat="49.78432" lon="2.33708">
        <ele>111.9</ele>
        <time>2023-10-11T13:20:51Z</time>
      </trkpt>
      <trkpt lat="49.78433" lon="2.33708">
        <ele>111.9</ele>
        <time>2023-10-11T13:20:52Z</time>
      </trkpt>
      <trkpt lat="49.78433" lon="2.33707">
        <ele>111.9</ele>
        <time>2023-10-11T13:20:53Z</time>
      </trkpt>
      <trkpt lat="49.78433" lon="2.33707">
        <ele>111.9</ele>
        <time>2023-10-11T13:20:54Z</time>
      </trkpt>
      <trkpt lat="49.78433" lon="2.33706">
        <ele>111.9</ele>
        <time>2023-10-11T13:20:55Z</time>
      </trkpt>
      <trkpt lat="49.78433" lon="2.33705">
        <ele>111.9</ele>
        <time>2023-10-11T13:20:56Z</time>
      </trkpt>
      <trkpt lat="49.78433" lon="2.33705">
        <ele>111.9</ele>
        <time>2023-10-11T13:20:58Z</time>
      </trkpt>
      <trkpt lat="49.78433" lon="2.33704">
        <ele>111.9</ele>
        <time>2023-10-11T13:20:59Z</time>
      </trkpt>
      <trkpt lat="49.78433" lon="2.33704">
        <ele>111.9</ele>
        <time>2023-10-11T13:21:00Z</time>
      </trkpt>
      <trkpt lat="49.78433" lon="2.33705">
        <ele>111.9</ele>
        <time>2023-10-11T13:21:01Z</time>
      </trkpt>
      <trkpt lat="49.78433" lon="2.33705">
        <ele>111.9</ele>
        <time>2023-10-11T13:21:02Z</time>
      </trkpt>
      <trkpt lat="49.78433" lon="2.33705">
        <ele>111.9</ele>
        <time>2023-10-11T13:21:03Z</time>
      </trkpt>
      <trkpt lat="49.78433" lon="2.33705">
        <ele>111.9</ele>
        <time>2023-10-11T13:21:04Z</time>
      </trkpt>
      <trkpt lat="49.78433" lon="2.33705">
        <ele>111.9</ele>
        <time>2023-10-11T13:21:05Z</time>
      </trkpt>
      <trkpt lat="49.78433" lon="2.33705">
        <ele>111.9</ele>
        <time>2023-10-11T13:21:06Z</time>
      </trkpt>
      <trkpt lat="49.78433" lon="2.33705">
        <ele>111.9</ele>
        <time>2023-10-11T13:21:08Z</time>
      </trkpt>
      <trkpt lat="49.78433" lon="2.33705">
        <ele>111.9</ele>
        <time>2023-10-11T13:21:09Z</time>
      </trkpt>
      <trkpt lat="49.78433" lon="2.33705">
        <ele>111.9</ele>
        <time>2023-10-11T13:21:10Z</time>
      </trkpt>
      <trkpt lat="49.78433" lon="2.33705">
        <ele>111.9</ele>
        <time>2023-10-11T13:21:12Z</time>
      </trkpt>
      <trkpt lat="49.78436" lon="2.33705">
        <ele>111.9</ele>
        <time>2023-10-11T13:23:26Z</time>
      </trkpt>
      <trkpt lat="49.78437" lon="2.33704">
        <ele>111.9</ele>
        <time>2023-10-11T13:23:27Z</time>
      </trkpt>
      <trkpt lat="49.78437" lon="2.33703">
        <ele>111.9</ele>
        <time>2023-10-11T13:23:28Z</time>
      </trkpt>
      <trkpt lat="49.78439" lon="2.33702">
        <ele>111.9</ele>
        <time>2023-10-11T13:23:29Z</time>
      </trkpt>
      <trkpt lat="49.78439" lon="2.33702">
        <ele>111.9</ele>
        <time>2023-10-11T13:23:30Z</time>
      </trkpt>
      <trkpt lat="49.7844" lon="2.33703">
        <ele>111.9</ele>
        <time>2023-10-11T13:23:32Z</time>
      </trkpt>
      <trkpt lat="49.78441" lon="2.33703">
        <ele>111.8</ele>
        <time>2023-10-11T13:23:33Z</time>
      </trkpt>
      <trkpt lat="49.78442" lon="2.33704">
        <ele>111.8</ele>
        <time>2023-10-11T13:23:34Z</time>
      </trkpt>
      <trkpt lat="49.78443" lon="2.33704">
        <ele>111.8</ele>
        <time>2023-10-11T13:23:35Z</time>
      </trkpt>
      <trkpt lat="49.78443" lon="2.33704">
        <ele>111.8</ele>
        <time>2023-10-11T13:23:36Z</time>
      </trkpt>
      <trkpt lat="49.78444" lon="2.33705">
        <ele>111.8</ele>
        <time>2023-10-11T13:23:37Z</time>
      </trkpt>
      <trkpt lat="49.78445" lon="2.33705">
        <ele>111.8</ele>
        <time>2023-10-11T13:23:38Z</time>
      </trkpt>
      <trkpt lat="49.78446" lon="2.33707">
        <ele>111.7</ele>
        <time>2023-10-11T13:23:39Z</time>
      </trkpt>
      <trkpt lat="49.78446" lon="2.33708">
        <ele>111.7</ele>
        <time>2023-10-11T13:23:41Z</time>
      </trkpt>
      <trkpt lat="49.78447" lon="2.33709">
        <ele>111.7</ele>
        <time>2023-10-11T13:23:42Z</time>
      </trkpt>
      <trkpt lat="49.78447" lon="2.3371">
        <ele>111.7</ele>
        <time>2023-10-11T13:23:43Z</time>
      </trkpt>
      <trkpt lat="49.78448" lon="2.3371">
        <ele>111.7</ele>
        <time>2023-10-11T13:23:44Z</time>
      </trkpt>
      <trkpt lat="49.78448" lon="2.33711">
        <ele>111.7</ele>
        <time>2023-10-11T13:23:45Z</time>
      </trkpt>
      <trkpt lat="49.78449" lon="2.33713">
        <ele>111.7</ele>
        <time>2023-10-11T13:23:46Z</time>
      </trkpt>
      <trkpt lat="49.7845" lon="2.33714">
        <ele>111.7</ele>
        <time>2023-10-11T13:23:47Z</time>
      </trkpt>
      <trkpt lat="49.7845" lon="2.33715">
        <ele>111.7</ele>
        <time>2023-10-11T13:23:48Z</time>
      </trkpt>
      <trkpt lat="49.78451" lon="2.33716">
        <ele>111.6</ele>
        <time>2023-10-11T13:23:49Z</time>
      </trkpt>
      <trkpt lat="49.78451" lon="2.33717">
        <ele>111.6</ele>
        <time>2023-10-11T13:23:50Z</time>
      </trkpt>
      <trkpt lat="49.78452" lon="2.33718">
        <ele>111.6</ele>
        <time>2023-10-11T13:23:51Z</time>
      </trkpt>
      <trkpt lat="49.78453" lon="2.33719">
        <ele>111.6</ele>
        <time>2023-10-11T13:23:52Z</time>
      </trkpt>
      <trkpt lat="49.78454" lon="2.33721">
        <ele>111.6</ele>
        <time>2023-10-11T13:23:53Z</time>
      </trkpt>
      <trkpt lat="49.78454" lon="2.33722">
        <ele>111.6</ele>
        <time>2023-10-11T13:23:54Z</time>
      </trkpt>
      <trkpt lat="49.78455" lon="2.33722">
        <ele>111.6</ele>
        <time>2023-10-11T13:23:55Z</time>
      </trkpt>
      <trkpt lat="49.78455" lon="2.33723">
        <ele>111.6</ele>
        <time>2023-10-11T13:23:56Z</time>
      </trkpt>
      <trkpt lat="49.78456" lon="2.33725">
        <ele>111.6</ele>
        <time>2023-10-11T13:23:57Z</time>
      </trkpt>
      <trkpt lat="49.78456" lon="2.33726">
        <ele>111.5</ele>
        <time>2023-10-11T13:23:58Z</time>
      </trkpt>
      <trkpt lat="49.78457" lon="2.33727">
        <ele>111.5</ele>
        <time>2023-10-11T13:23:59Z</time>
      </trkpt>
      <trkpt lat="49.78458" lon="2.33729">
        <ele>111.5</ele>
        <time>2023-10-11T13:24:00Z</time>
      </trkpt>
      <trkpt lat="49.78459" lon="2.3373">
        <ele>111.5</ele>
        <time>2023-10-11T13:24:01Z</time>
      </trkpt>
      <trkpt lat="49.7846" lon="2.33731">
        <ele>111.5</ele>
        <time>2023-10-11T13:24:02Z</time>
      </trkpt>
      <trkpt lat="49.7846" lon="2.33733">
        <ele>111.5</ele>
        <time>2023-10-11T13:24:04Z</time>
      </trkpt>
      <trkpt lat="49.78461" lon="2.33735">
        <ele>111.5</ele>
        <time>2023-10-11T13:24:05Z</time>
      </trkpt>
      <trkpt lat="49.78462" lon="2.33736">
        <ele>111.5</ele>
        <time>2023-10-11T13:24:06Z</time>
      </trkpt>
      <trkpt lat="49.78462" lon="2.33737">
        <ele>111.5</ele>
        <time>2023-10-11T13:24:07Z</time>
      </trkpt>
      <trkpt lat="49.78463" lon="2.33738">
        <ele>111.5</ele>
        <time>2023-10-11T13:24:08Z</time>
      </trkpt>
      <trkpt lat="49.78463" lon="2.33739">
        <ele>111.4</ele>
        <time>2023-10-11T13:24:09Z</time>
      </trkpt>
      <trkpt lat="49.78464" lon="2.3374">
        <ele>111.4</ele>
        <time>2023-10-11T13:24:10Z</time>
      </trkpt>
      <trkpt lat="49.78465" lon="2.33741">
        <ele>111.4</ele>
        <time>2023-10-11T13:24:11Z</time>
      </trkpt>
      <trkpt lat="49.78465" lon="2.33742">
        <ele>111.4</ele>
        <time>2023-10-11T13:24:12Z</time>
      </trkpt>
      <trkpt lat="49.78466" lon="2.33743">
        <ele>111.4</ele>
        <time>2023-10-11T13:24:13Z</time>
      </trkpt>
      <trkpt lat="49.78467" lon="2.33744">
        <ele>111.4</ele>
        <time>2023-10-11T13:24:14Z</time>
      </trkpt>
      <trkpt lat="49.78467" lon="2.33745">
        <ele>111.4</ele>
        <time>2023-10-11T13:24:15Z</time>
      </trkpt>
      <trkpt lat="49.78468" lon="2.33746">
        <ele>111.4</ele>
        <time>2023-10-11T13:24:16Z</time>
      </trkpt>
      <trkpt lat="49.78469" lon="2.33748">
        <ele>111.4</ele>
        <time>2023-10-11T13:24:17Z</time>
      </trkpt>
      <trkpt lat="49.7847" lon="2.33748">
        <ele>111.4</ele>
        <time>2023-10-11T13:24:18Z</time>
      </trkpt>
      <trkpt lat="49.7847" lon="2.33749">
        <ele>111.4</ele>
        <time>2023-10-11T13:24:19Z</time>
      </trkpt>
      <trkpt lat="49.78471" lon="2.3375">
        <ele>111.4</ele>
        <time>2023-10-11T13:24:20Z</time>
      </trkpt>
      <trkpt lat="49.78473" lon="2.33752">
        <ele>111.4</ele>
        <time>2023-10-11T13:24:21Z</time>
      </trkpt>
      <trkpt lat="49.78473" lon="2.33754">
        <ele>111.4</ele>
        <time>2023-10-11T13:24:23Z</time>
      </trkpt>
      <trkpt lat="49.78474" lon="2.33755">
        <ele>111.4</ele>
        <time>2023-10-11T13:24:24Z</time>
      </trkpt>
      <trkpt lat="49.78475" lon="2.33756">
        <ele>111.4</ele>
        <time>2023-10-11T13:24:25Z</time>
      </trkpt>
      <trkpt lat="49.78476" lon="2.33758">
        <ele>111.4</ele>
        <time>2023-10-11T13:24:26Z</time>
      </trkpt>
      <trkpt lat="49.78477" lon="2.33758">
        <ele>111.3</ele>
        <time>2023-10-11T13:24:27Z</time>
      </trkpt>
      <trkpt lat="49.78477" lon="2.33759">
        <ele>111.3</ele>
        <time>2023-10-11T13:24:28Z</time>
      </trkpt>
      <trkpt lat="49.78478" lon="2.3376">
        <ele>111.3</ele>
        <time>2023-10-11T13:24:29Z</time>
      </trkpt>
      <trkpt lat="49.78479" lon="2.33762">
        <ele>111.3</ele>
        <time>2023-10-11T13:24:30Z</time>
      </trkpt>
      <trkpt lat="49.7848" lon="2.33763">
        <ele>111.3</ele>
        <time>2023-10-11T13:24:32Z</time>
      </trkpt>
      <trkpt lat="49.78481" lon="2.33764">
        <ele>111.3</ele>
        <time>2023-10-11T13:24:33Z</time>
      </trkpt>
      <trkpt lat="49.78481" lon="2.33765">
        <ele>111.3</ele>
        <time>2023-10-11T13:24:34Z</time>
      </trkpt>
      <trkpt lat="49.78482" lon="2.33766">
        <ele>111.3</ele>
        <time>2023-10-11T13:24:35Z</time>
      </trkpt>
      <trkpt lat="49.78483" lon="2.33767">
        <ele>111.3</ele>
        <time>2023-10-11T13:24:36Z</time>
      </trkpt>
      <trkpt lat="49.78484" lon="2.33768">
        <ele>111.3</ele>
        <time>2023-10-11T13:24:37Z</time>
      </trkpt>
      <trkpt lat="49.78485" lon="2.33769">
        <ele>111.3</ele>
        <time>2023-10-11T13:24:38Z</time>
      </trkpt>
      <trkpt lat="49.78486" lon="2.3377">
        <ele>111.3</ele>
        <time>2023-10-11T13:24:39Z</time>
      </trkpt>
      <trkpt lat="49.78486" lon="2.33771">
        <ele>111.3</ele>
        <time>2023-10-11T13:24:40Z</time>
      </trkpt>
      <trkpt lat="49.78487" lon="2.33773">
        <ele>111.3</ele>
        <time>2023-10-11T13:24:41Z</time>
      </trkpt>
      <trkpt lat="49.78488" lon="2.33774">
        <ele>111.2</ele>
        <time>2023-10-11T13:24:42Z</time>
      </trkpt>
      <trkpt lat="49.78488" lon="2.33775">
        <ele>111.2</ele>
        <time>2023-10-11T13:24:43Z</time>
      </trkpt>
      <trkpt lat="49.78489" lon="2.33776">
        <ele>111.2</ele>
        <time>2023-10-11T13:24:44Z</time>
      </trkpt>
      <trkpt lat="49.7849" lon="2.33776">
        <ele>111.2</ele>
        <time>2023-10-11T13:24:45Z</time>
      </trkpt>
      <trkpt lat="49.7849" lon="2.33777">
        <ele>111.2</ele>
        <time>2023-10-11T13:24:46Z</time>
      </trkpt>
      <trkpt lat="49.78491" lon="2.33778">
        <ele>111.2</ele>
        <time>2023-10-11T13:24:47Z</time>
      </trkpt>
      <trkpt lat="49.78492" lon="2.33779">
        <ele>111.2</ele>
        <time>2023-10-11T13:24:48Z</time>
      </trkpt>
      <trkpt lat="49.78493" lon="2.3378">
        <ele>111.2</ele>
        <time>2023-10-11T13:24:49Z</time>
      </trkpt>
      <trkpt lat="49.78494" lon="2.33781">
        <ele>111.2</ele>
        <time>2023-10-11T13:24:50Z</time>
      </trkpt>
      <trkpt lat="49.78495" lon="2.33782">
        <ele>111.2</ele>
        <time>2023-10-11T13:24:51Z</time>
      </trkpt>
      <trkpt lat="49.78497" lon="2.33783">
        <ele>111.2</ele>
        <time>2023-10-11T13:24:52Z</time>
      </trkpt>
      <trkpt lat="49.78498" lon="2.33785">
        <ele>111.2</ele>
        <time>2023-10-11T13:24:53Z</time>
      </trkpt>
      <trkpt lat="49.78499" lon="2.33786">
        <ele>111.2</ele>
        <time>2023-10-11T13:24:54Z</time>
      </trkpt>
      <trkpt lat="49.78499" lon="2.33787">
        <ele>111.2</ele>
        <time>2023-10-11T13:24:55Z</time>
      </trkpt>
      <trkpt lat="49.785" lon="2.33788">
        <ele>111.2</ele>
        <time>2023-10-11T13:24:56Z</time>
      </trkpt>
      <trkpt lat="49.78502" lon="2.3379">
        <ele>111.1</ele>
        <time>2023-10-11T13:24:57Z</time>
      </trkpt>
      <trkpt lat="49.78503" lon="2.33791">
        <ele>111.1</ele>
        <time>2023-10-11T13:24:59Z</time>
      </trkpt>
      <trkpt lat="49.78503" lon="2.33791">
        <ele>111.1</ele>
        <time>2023-10-11T13:25:00Z</time>
      </trkpt>
      <trkpt lat="49.78504" lon="2.33792">
        <ele>111.1</ele>
        <time>2023-10-11T13:25:01Z</time>
      </trkpt>
      <trkpt lat="49.78505" lon="2.33794">
        <ele>111.1</ele>
        <time>2023-10-11T13:25:02Z</time>
      </trkpt>
      <trkpt lat="49.78506" lon="2.33796">
        <ele>111.1</ele>
        <time>2023-10-11T13:25:03Z</time>
      </trkpt>
      <trkpt lat="49.78506" lon="2.33798">
        <ele>111.1</ele>
        <time>2023-10-11T13:25:05Z</time>
      </trkpt>
      <trkpt lat="49.78507" lon="2.338">
        <ele>111.1</ele>
        <time>2023-10-11T13:25:07Z</time>
      </trkpt>
      <trkpt lat="49.78508" lon="2.33801">
        <ele>111.1</ele>
        <time>2023-10-11T13:25:09Z</time>
      </trkpt>
      <trkpt lat="49.78508" lon="2.33802">
        <ele>111.1</ele>
        <time>2023-10-11T13:25:10Z</time>
      </trkpt>
      <trkpt lat="49.78509" lon="2.33803">
        <ele>111.1</ele>
        <time>2023-10-11T13:25:11Z</time>
      </trkpt>
      <trkpt lat="49.7851" lon="2.33804">
        <ele>111.1</ele>
        <time>2023-10-11T13:25:12Z</time>
      </trkpt>
      <trkpt lat="49.78511" lon="2.33805">
        <ele>111.1</ele>
        <time>2023-10-11T13:25:13Z</time>
      </trkpt>
      <trkpt lat="49.78511" lon="2.33806">
        <ele>111.1</ele>
        <time>2023-10-11T13:25:14Z</time>
      </trkpt>
      <trkpt lat="49.78512" lon="2.33807">
        <ele>111</ele>
        <time>2023-10-11T13:25:15Z</time>
      </trkpt>
      <trkpt lat="49.78513" lon="2.33808">
        <ele>111</ele>
        <time>2023-10-11T13:25:16Z</time>
      </trkpt>
      <trkpt lat="49.78514" lon="2.33809">
        <ele>111</ele>
        <time>2023-10-11T13:25:17Z</time>
      </trkpt>
      <trkpt lat="49.78514" lon="2.3381">
        <ele>111</ele>
        <time>2023-10-11T13:25:18Z</time>
      </trkpt>
      <trkpt lat="49.78515" lon="2.3381">
        <ele>111</ele>
        <time>2023-10-11T13:25:19Z</time>
      </trkpt>
      <trkpt lat="49.78516" lon="2.33811">
        <ele>111</ele>
        <time>2023-10-11T13:25:20Z</time>
      </trkpt>
      <trkpt lat="49.78517" lon="2.33812">
        <ele>111</ele>
        <time>2023-10-11T13:25:21Z</time>
      </trkpt>
      <trkpt lat="49.78518" lon="2.33813">
        <ele>111</ele>
        <time>2023-10-11T13:25:22Z</time>
      </trkpt>
      <trkpt lat="49.78518" lon="2.33814">
        <ele>111</ele>
        <time>2023-10-11T13:25:23Z</time>
      </trkpt>
      <trkpt lat="49.7852" lon="2.33816">
        <ele>111</ele>
        <time>2023-10-11T13:25:24Z</time>
      </trkpt>
      <trkpt lat="49.78521" lon="2.33816">
        <ele>111</ele>
        <time>2023-10-11T13:25:26Z</time>
      </trkpt>
      <trkpt lat="49.78522" lon="2.33817">
        <ele>111</ele>
        <time>2023-10-11T13:25:27Z</time>
      </trkpt>
      <trkpt lat="49.78522" lon="2.33818">
        <ele>111</ele>
        <time>2023-10-11T13:25:28Z</time>
      </trkpt>
      <trkpt lat="49.78523" lon="2.33819">
        <ele>111</ele>
        <time>2023-10-11T13:25:29Z</time>
      </trkpt>
      <trkpt lat="49.78524" lon="2.3382">
        <ele>110.9</ele>
        <time>2023-10-11T13:25:30Z</time>
      </trkpt>
      <trkpt lat="49.78525" lon="2.33821">
        <ele>110.9</ele>
        <time>2023-10-11T13:25:31Z</time>
      </trkpt>
      <trkpt lat="49.78525" lon="2.33822">
        <ele>110.9</ele>
        <time>2023-10-11T13:25:32Z</time>
      </trkpt>
      <trkpt lat="49.78526" lon="2.33823">
        <ele>110.9</ele>
        <time>2023-10-11T13:25:33Z</time>
      </trkpt>
      <trkpt lat="49.78527" lon="2.33824">
        <ele>110.9</ele>
        <time>2023-10-11T13:25:34Z</time>
      </trkpt>
      <trkpt lat="49.78528" lon="2.33825">
        <ele>110.9</ele>
        <time>2023-10-11T13:25:35Z</time>
      </trkpt>
      <trkpt lat="49.78529" lon="2.33826">
        <ele>110.9</ele>
        <time>2023-10-11T13:25:36Z</time>
      </trkpt>
      <trkpt lat="49.7853" lon="2.33827">
        <ele>110.9</ele>
        <time>2023-10-11T13:25:37Z</time>
      </trkpt>
      <trkpt lat="49.78531" lon="2.33828">
        <ele>110.9</ele>
        <time>2023-10-11T13:25:38Z</time>
      </trkpt>
      <trkpt lat="49.78532" lon="2.33829">
        <ele>110.9</ele>
        <time>2023-10-11T13:25:39Z</time>
      </trkpt>
      <trkpt lat="49.78532" lon="2.3383">
        <ele>110.9</ele>
        <time>2023-10-11T13:25:40Z</time>
      </trkpt>
      <trkpt lat="49.78533" lon="2.33831">
        <ele>110.8</ele>
        <time>2023-10-11T13:25:41Z</time>
      </trkpt>
      <trkpt lat="49.78534" lon="2.33832">
        <ele>110.8</ele>
        <time>2023-10-11T13:25:42Z</time>
      </trkpt>
      <trkpt lat="49.78534" lon="2.33834">
        <ele>110.8</ele>
        <time>2023-10-11T13:25:43Z</time>
      </trkpt>
      <trkpt lat="49.78535" lon="2.33835">
        <ele>110.8</ele>
        <time>2023-10-11T13:25:44Z</time>
      </trkpt>
      <trkpt lat="49.78535" lon="2.33837">
        <ele>110.8</ele>
        <time>2023-10-11T13:25:45Z</time>
      </trkpt>
      <trkpt lat="49.78536" lon="2.3384">
        <ele>110.8</ele>
        <time>2023-10-11T13:25:46Z</time>
      </trkpt>
      <trkpt lat="49.78537" lon="2.33843">
        <ele>110.8</ele>
        <time>2023-10-11T13:25:48Z</time>
      </trkpt>
      <trkpt lat="49.78538" lon="2.33844">
        <ele>110.8</ele>
        <time>2023-10-11T13:25:49Z</time>
      </trkpt>
      <trkpt lat="49.78538" lon="2.33845">
        <ele>110.8</ele>
        <time>2023-10-11T13:25:50Z</time>
      </trkpt>
      <trkpt lat="49.78539" lon="2.33848">
        <ele>110.7</ele>
        <time>2023-10-11T13:25:51Z</time>
      </trkpt>
      <trkpt lat="49.7854" lon="2.33849">
        <ele>110.7</ele>
        <time>2023-10-11T13:25:52Z</time>
      </trkpt>
      <trkpt lat="49.7854" lon="2.3385">
        <ele>110.7</ele>
        <time>2023-10-11T13:25:53Z</time>
      </trkpt>
      <trkpt lat="49.78541" lon="2.33853">
        <ele>110.7</ele>
        <time>2023-10-11T13:25:54Z</time>
      </trkpt>
      <trkpt lat="49.78541" lon="2.33854">
        <ele>110.7</ele>
        <time>2023-10-11T13:25:55Z</time>
      </trkpt>
      <trkpt lat="49.78542" lon="2.33855">
        <ele>110.7</ele>
        <time>2023-10-11T13:25:56Z</time>
      </trkpt>
      <trkpt lat="49.78543" lon="2.33858">
        <ele>110.7</ele>
        <time>2023-10-11T13:25:57Z</time>
      </trkpt>
      <trkpt lat="49.78543" lon="2.33859">
        <ele>110.7</ele>
        <time>2023-10-11T13:25:58Z</time>
      </trkpt>
      <trkpt lat="49.78544" lon="2.3386">
        <ele>110.7</ele>
        <time>2023-10-11T13:25:59Z</time>
      </trkpt>
      <trkpt lat="49.78545" lon="2.33863">
        <ele>110.6</ele>
        <time>2023-10-11T13:26:00Z</time>
      </trkpt>
      <trkpt lat="49.78545" lon="2.33865">
        <ele>110.6</ele>
        <time>2023-10-11T13:26:01Z</time>
      </trkpt>
      <trkpt lat="49.78546" lon="2.33867">
        <ele>110.6</ele>
        <time>2023-10-11T13:26:03Z</time>
      </trkpt>
      <trkpt lat="49.78546" lon="2.33868">
        <ele>110.6</ele>
        <time>2023-10-11T13:26:04Z</time>
      </trkpt>
      <trkpt lat="49.78547" lon="2.3387">
        <ele>110.6</ele>
        <time>2023-10-11T13:26:05Z</time>
      </trkpt>
      <trkpt lat="49.78547" lon="2.33871">
        <ele>110.6</ele>
        <time>2023-10-11T13:26:06Z</time>
      </trkpt>
      <trkpt lat="49.78548" lon="2.33873">
        <ele>110.6</ele>
        <time>2023-10-11T13:26:07Z</time>
      </trkpt>
      <trkpt lat="49.78549" lon="2.33876">
        <ele>110.5</ele>
        <time>2023-10-11T13:26:08Z</time>
      </trkpt>
      <trkpt lat="49.78549" lon="2.33877">
        <ele>110.5</ele>
        <time>2023-10-11T13:26:10Z</time>
      </trkpt>
      <trkpt lat="49.78549" lon="2.33879">
        <ele>110.5</ele>
        <time>2023-10-11T13:26:11Z</time>
      </trkpt>
      <trkpt lat="49.7855" lon="2.3388">
        <ele>110.5</ele>
        <time>2023-10-11T13:26:12Z</time>
      </trkpt>
      <trkpt lat="49.7855" lon="2.33882">
        <ele>110.5</ele>
        <time>2023-10-11T13:26:13Z</time>
      </trkpt>
      <trkpt lat="49.7855" lon="2.33884">
        <ele>110.5</ele>
        <time>2023-10-11T13:26:14Z</time>
      </trkpt>
      <trkpt lat="49.78551" lon="2.33885">
        <ele>110.4</ele>
        <time>2023-10-11T13:26:15Z</time>
      </trkpt>
      <trkpt lat="49.78551" lon="2.33888">
        <ele>110.4</ele>
        <time>2023-10-11T13:26:16Z</time>
      </trkpt>
      <trkpt lat="49.78551" lon="2.33889">
        <ele>110.4</ele>
        <time>2023-10-11T13:26:18Z</time>
      </trkpt>
      <trkpt lat="49.78551" lon="2.3389">
        <ele>110.4</ele>
        <time>2023-10-11T13:26:19Z</time>
      </trkpt>
      <trkpt lat="49.78552" lon="2.33892">
        <ele>110.4</ele>
        <time>2023-10-11T13:26:20Z</time>
      </trkpt>
      <trkpt lat="49.78552" lon="2.33893">
        <ele>110.4</ele>
        <time>2023-10-11T13:26:21Z</time>
      </trkpt>
      <trkpt lat="49.78552" lon="2.33895">
        <ele>110.4</ele>
        <time>2023-10-11T13:26:22Z</time>
      </trkpt>
      <trkpt lat="49.78552" lon="2.33897">
        <ele>110.4</ele>
        <time>2023-10-11T13:26:23Z</time>
      </trkpt>
      <trkpt lat="49.78552" lon="2.33898">
        <ele>110.3</ele>
        <time>2023-10-11T13:26:24Z</time>
      </trkpt>
      <trkpt lat="49.78552" lon="2.339">
        <ele>110.3</ele>
        <time>2023-10-11T13:26:25Z</time>
      </trkpt>
      <trkpt lat="49.78552" lon="2.33901">
        <ele>110.3</ele>
        <time>2023-10-11T13:26:26Z</time>
      </trkpt>
      <trkpt lat="49.78552" lon="2.33903">
        <ele>110.3</ele>
        <time>2023-10-11T13:26:27Z</time>
      </trkpt>
      <trkpt lat="49.78552" lon="2.33904">
        <ele>110.3</ele>
        <time>2023-10-11T13:26:28Z</time>
      </trkpt>
      <trkpt lat="49.78552" lon="2.33906">
        <ele>110.3</ele>
        <time>2023-10-11T13:26:29Z</time>
      </trkpt>
      <trkpt lat="49.78552" lon="2.33909">
        <ele>110.2</ele>
        <time>2023-10-11T13:26:30Z</time>
      </trkpt>
      <trkpt lat="49.78552" lon="2.3391">
        <ele>110.2</ele>
        <time>2023-10-11T13:26:32Z</time>
      </trkpt>
      <trkpt lat="49.78552" lon="2.33912">
        <ele>110.2</ele>
        <time>2023-10-11T13:26:33Z</time>
      </trkpt>
      <trkpt lat="49.78552" lon="2.33914">
        <ele>110.2</ele>
        <time>2023-10-11T13:26:34Z</time>
      </trkpt>
      <trkpt lat="49.78553" lon="2.33915">
        <ele>110.2</ele>
        <time>2023-10-11T13:26:35Z</time>
      </trkpt>
      <trkpt lat="49.78553" lon="2.33917">
        <ele>110.1</ele>
        <time>2023-10-11T13:26:36Z</time>
      </trkpt>
      <trkpt lat="49.78553" lon="2.33919">
        <ele>110.1</ele>
        <time>2023-10-11T13:26:37Z</time>
      </trkpt>
      <trkpt lat="49.78553" lon="2.3392">
        <ele>110.1</ele>
        <time>2023-10-11T13:26:38Z</time>
      </trkpt>
      <trkpt lat="49.78553" lon="2.33922">
        <ele>110.1</ele>
        <time>2023-10-11T13:26:39Z</time>
      </trkpt>
      <trkpt lat="49.78553" lon="2.33923">
        <ele>110.1</ele>
        <time>2023-10-11T13:26:40Z</time>
      </trkpt>
      <trkpt lat="49.78553" lon="2.33925">
        <ele>110</ele>
        <time>2023-10-11T13:26:41Z</time>
      </trkpt>
      <trkpt lat="49.78553" lon="2.33927">
        <ele>110</ele>
        <time>2023-10-11T13:26:42Z</time>
      </trkpt>
      <trkpt lat="49.78553" lon="2.33928">
        <ele>110</ele>
        <time>2023-10-11T13:26:43Z</time>
      </trkpt>
      <trkpt lat="49.78553" lon="2.3393">
        <ele>110</ele>
        <time>2023-10-11T13:26:44Z</time>
      </trkpt>
      <trkpt lat="49.78553" lon="2.33932">
        <ele>109.9</ele>
        <time>2023-10-11T13:26:45Z</time>
      </trkpt>
      <trkpt lat="49.78553" lon="2.33934">
        <ele>109.9</ele>
        <time>2023-10-11T13:26:46Z</time>
      </trkpt>
      <trkpt lat="49.78553" lon="2.33935">
        <ele>109.9</ele>
        <time>2023-10-11T13:26:47Z</time>
      </trkpt>
      <trkpt lat="49.78553" lon="2.33937">
        <ele>109.9</ele>
        <time>2023-10-11T13:26:48Z</time>
      </trkpt>
      <trkpt lat="49.78553" lon="2.33938">
        <ele>109.9</ele>
        <time>2023-10-11T13:26:49Z</time>
      </trkpt>
      <trkpt lat="49.78553" lon="2.33941">
        <ele>109.8</ele>
        <time>2023-10-11T13:26:50Z</time>
      </trkpt>
      <trkpt lat="49.78554" lon="2.33945">
        <ele>109.7</ele>
        <time>2023-10-11T13:26:51Z</time>
      </trkpt>
      <trkpt lat="49.78554" lon="2.33946">
        <ele>109.7</ele>
        <time>2023-10-11T13:26:53Z</time>
      </trkpt>
      <trkpt lat="49.78555" lon="2.33948">
        <ele>109.7</ele>
        <time>2023-10-11T13:26:54Z</time>
      </trkpt>
      <trkpt lat="49.78555" lon="2.33949">
        <ele>109.7</ele>
        <time>2023-10-11T13:26:55Z</time>
      </trkpt>
      <trkpt lat="49.78555" lon="2.33951">
        <ele>109.6</ele>
        <time>2023-10-11T13:26:56Z</time>
      </trkpt>
      <trkpt lat="49.78556" lon="2.33954">
        <ele>109.6</ele>
        <time>2023-10-11T13:26:57Z</time>
      </trkpt>
      <trkpt lat="49.78557" lon="2.33955">
        <ele>109.6</ele>
        <time>2023-10-11T13:26:58Z</time>
      </trkpt>
      <trkpt lat="49.78557" lon="2.33956">
        <ele>109.5</ele>
        <time>2023-10-11T13:26:59Z</time>
      </trkpt>
      <trkpt lat="49.78558" lon="2.33958">
        <ele>109.5</ele>
        <time>2023-10-11T13:27:00Z</time>
      </trkpt>
      <trkpt lat="49.78559" lon="2.3396">
        <ele>109.5</ele>
        <time>2023-10-11T13:27:01Z</time>
      </trkpt>
      <trkpt lat="49.78559" lon="2.33962">
        <ele>109.4</ele>
        <time>2023-10-11T13:27:02Z</time>
      </trkpt>
      <trkpt lat="49.7856" lon="2.33963">
        <ele>109.4</ele>
        <time>2023-10-11T13:27:03Z</time>
      </trkpt>
      <trkpt lat="49.78561" lon="2.33965">
        <ele>109.4</ele>
        <time>2023-10-11T13:27:04Z</time>
      </trkpt>
      <trkpt lat="49.78562" lon="2.33967">
        <ele>109.3</ele>
        <time>2023-10-11T13:27:05Z</time>
      </trkpt>
      <trkpt lat="49.78563" lon="2.33969">
        <ele>109.3</ele>
        <time>2023-10-11T13:27:06Z</time>
      </trkpt>
      <trkpt lat="49.78564" lon="2.33971">
        <ele>109.3</ele>
        <time>2023-10-11T13:27:07Z</time>
      </trkpt>
      <trkpt lat="49.78564" lon="2.33972">
        <ele>109.3</ele>
        <time>2023-10-11T13:27:08Z</time>
      </trkpt>
      <trkpt lat="49.78565" lon="2.33974">
        <ele>109.2</ele>
        <time>2023-10-11T13:27:09Z</time>
      </trkpt>
      <trkpt lat="49.78566" lon="2.33975">
        <ele>109.2</ele>
        <time>2023-10-11T13:27:10Z</time>
      </trkpt>
      <trkpt lat="49.78566" lon="2.33976">
        <ele>109.2</ele>
        <time>2023-10-11T13:27:11Z</time>
      </trkpt>
      <trkpt lat="49.78567" lon="2.33977">
        <ele>109.2</ele>
        <time>2023-10-11T13:27:12Z</time>
      </trkpt>
      <trkpt lat="49.78568" lon="2.33978">
        <ele>109.1</ele>
        <time>2023-10-11T13:27:13Z</time>
      </trkpt>
      <trkpt lat="49.78569" lon="2.33979">
        <ele>109.1</ele>
        <time>2023-10-11T13:27:14Z</time>
      </trkpt>
      <trkpt lat="49.7857" lon="2.33982">
        <ele>109.1</ele>
        <time>2023-10-11T13:27:15Z</time>
      </trkpt>
      <trkpt lat="49.78571" lon="2.33984">
        <ele>109</ele>
        <time>2023-10-11T13:27:17Z</time>
      </trkpt>
      <trkpt lat="49.78571" lon="2.33985">
        <ele>109</ele>
        <time>2023-10-11T13:27:18Z</time>
      </trkpt>
      <trkpt lat="49.78572" lon="2.33986">
        <ele>109</ele>
        <time>2023-10-11T13:27:19Z</time>
      </trkpt>
      <trkpt lat="49.78573" lon="2.33988">
        <ele>109</ele>
        <time>2023-10-11T13:27:20Z</time>
      </trkpt>
      <trkpt lat="49.78574" lon="2.33989">
        <ele>108.9</ele>
        <time>2023-10-11T13:27:21Z</time>
      </trkpt>
      <trkpt lat="49.78574" lon="2.3399">
        <ele>108.9</ele>
        <time>2023-10-11T13:27:22Z</time>
      </trkpt>
      <trkpt lat="49.78575" lon="2.33991">
        <ele>108.9</ele>
        <time>2023-10-11T13:27:23Z</time>
      </trkpt>
      <trkpt lat="49.78576" lon="2.33992">
        <ele>108.9</ele>
        <time>2023-10-11T13:27:24Z</time>
      </trkpt>
      <trkpt lat="49.78576" lon="2.33994">
        <ele>108.9</ele>
        <time>2023-10-11T13:27:25Z</time>
      </trkpt>
      <trkpt lat="49.78578" lon="2.33996">
        <ele>108.9</ele>
        <time>2023-10-11T13:27:26Z</time>
      </trkpt>
      <trkpt lat="49.78578" lon="2.33997">
        <ele>108.8</ele>
        <time>2023-10-11T13:27:27Z</time>
      </trkpt>
      <trkpt lat="49.78579" lon="2.33998">
        <ele>108.8</ele>
        <time>2023-10-11T13:27:28Z</time>
      </trkpt>
      <trkpt lat="49.78581" lon="2.34001">
        <ele>108.8</ele>
        <time>2023-10-11T13:27:29Z</time>
      </trkpt>
      <trkpt lat="49.78581" lon="2.34002">
        <ele>108.8</ele>
        <time>2023-10-11T13:27:30Z</time>
      </trkpt>
      <trkpt lat="49.78582" lon="2.34004">
        <ele>108.8</ele>
        <time>2023-10-11T13:27:31Z</time>
      </trkpt>
      <trkpt lat="49.78583" lon="2.34005">
        <ele>108.8</ele>
        <time>2023-10-11T13:27:33Z</time>
      </trkpt>
      <trkpt lat="49.78583" lon="2.34006">
        <ele>108.7</ele>
        <time>2023-10-11T13:27:34Z</time>
      </trkpt>
      <trkpt lat="49.78584" lon="2.34007">
        <ele>108.7</ele>
        <time>2023-10-11T13:27:35Z</time>
      </trkpt>
      <trkpt lat="49.78585" lon="2.34009">
        <ele>108.7</ele>
        <time>2023-10-11T13:27:36Z</time>
      </trkpt>
      <trkpt lat="49.78585" lon="2.3401">
        <ele>108.7</ele>
        <time>2023-10-11T13:27:37Z</time>
      </trkpt>
      <trkpt lat="49.78586" lon="2.34011">
        <ele>108.7</ele>
        <time>2023-10-11T13:27:38Z</time>
      </trkpt>
      <trkpt lat="49.78586" lon="2.34013">
        <ele>108.7</ele>
        <time>2023-10-11T13:27:39Z</time>
      </trkpt>
      <trkpt lat="49.78587" lon="2.34014">
        <ele>108.7</ele>
        <time>2023-10-11T13:27:40Z</time>
      </trkpt>
      <trkpt lat="49.78588" lon="2.34016">
        <ele>108.7</ele>
        <time>2023-10-11T13:27:41Z</time>
      </trkpt>
      <trkpt lat="49.78588" lon="2.34017">
        <ele>108.7</ele>
        <time>2023-10-11T13:27:42Z</time>
      </trkpt>
      <trkpt lat="49.78589" lon="2.34018">
        <ele>108.6</ele>
        <time>2023-10-11T13:27:43Z</time>
      </trkpt>
      <trkpt lat="49.7859" lon="2.3402">
        <ele>108.6</ele>
        <time>2023-10-11T13:27:44Z</time>
      </trkpt>
      <trkpt lat="49.78591" lon="2.34022">
        <ele>108.6</ele>
        <time>2023-10-11T13:27:45Z</time>
      </trkpt>
      <trkpt lat="49.78593" lon="2.34024">
        <ele>108.6</ele>
        <time>2023-10-11T13:27:47Z</time>
      </trkpt>
      <trkpt lat="49.78594" lon="2.34025">
        <ele>108.6</ele>
        <time>2023-10-11T13:27:48Z</time>
      </trkpt>
      <trkpt lat="49.78594" lon="2.34026">
        <ele>108.6</ele>
        <time>2023-10-11T13:27:49Z</time>
      </trkpt>
      <trkpt lat="49.78596" lon="2.34028">
        <ele>108.6</ele>
        <time>2023-10-11T13:27:50Z</time>
      </trkpt>
      <trkpt lat="49.78596" lon="2.34029">
        <ele>108.6</ele>
        <time>2023-10-11T13:27:51Z</time>
      </trkpt>
      <trkpt lat="49.78597" lon="2.3403">
        <ele>108.5</ele>
        <time>2023-10-11T13:27:52Z</time>
      </trkpt>
      <trkpt lat="49.78598" lon="2.34031">
        <ele>108.5</ele>
        <time>2023-10-11T13:27:53Z</time>
      </trkpt>
      <trkpt lat="49.78599" lon="2.34032">
        <ele>108.5</ele>
        <time>2023-10-11T13:27:54Z</time>
      </trkpt>
      <trkpt lat="49.78599" lon="2.34033">
        <ele>108.5</ele>
        <time>2023-10-11T13:27:55Z</time>
      </trkpt>
      <trkpt lat="49.786" lon="2.34034">
        <ele>108.5</ele>
        <time>2023-10-11T13:27:56Z</time>
      </trkpt>
      <trkpt lat="49.78601" lon="2.34035">
        <ele>108.5</ele>
        <time>2023-10-11T13:27:57Z</time>
      </trkpt>
      <trkpt lat="49.78601" lon="2.34037">
        <ele>108.5</ele>
        <time>2023-10-11T13:27:58Z</time>
      </trkpt>
      <trkpt lat="49.78602" lon="2.34038">
        <ele>108.5</ele>
        <time>2023-10-11T13:27:59Z</time>
      </trkpt>
      <trkpt lat="49.78603" lon="2.3404">
        <ele>108.5</ele>
        <time>2023-10-11T13:28:00Z</time>
      </trkpt>
      <trkpt lat="49.78603" lon="2.34041">
        <ele>108.4</ele>
        <time>2023-10-11T13:28:01Z</time>
      </trkpt>
      <trkpt lat="49.78605" lon="2.34044">
        <ele>108.4</ele>
        <time>2023-10-11T13:28:02Z</time>
      </trkpt>
      <trkpt lat="49.78605" lon="2.34045">
        <ele>108.4</ele>
        <time>2023-10-11T13:28:03Z</time>
      </trkpt>
      <trkpt lat="49.78606" lon="2.34046">
        <ele>108.4</ele>
        <time>2023-10-11T13:28:04Z</time>
      </trkpt>
      <trkpt lat="49.78606" lon="2.34047">
        <ele>108.4</ele>
        <time>2023-10-11T13:28:05Z</time>
      </trkpt>
      <trkpt lat="49.78607" lon="2.34049">
        <ele>108.4</ele>
        <time>2023-10-11T13:28:06Z</time>
      </trkpt>
      <trkpt lat="49.78608" lon="2.3405">
        <ele>108.4</ele>
        <time>2023-10-11T13:28:07Z</time>
      </trkpt>
      <trkpt lat="49.78609" lon="2.34053">
        <ele>108.3</ele>
        <time>2023-10-11T13:28:08Z</time>
      </trkpt>
      <trkpt lat="49.7861" lon="2.34054">
        <ele>108.3</ele>
        <time>2023-10-11T13:28:10Z</time>
      </trkpt>
      <trkpt lat="49.78611" lon="2.34055">
        <ele>108.3</ele>
        <time>2023-10-11T13:28:11Z</time>
      </trkpt>
      <trkpt lat="49.78612" lon="2.34057">
        <ele>108.3</ele>
        <time>2023-10-11T13:28:12Z</time>
      </trkpt>
      <trkpt lat="49.78613" lon="2.34058">
        <ele>108.3</ele>
        <time>2023-10-11T13:28:13Z</time>
      </trkpt>
      <trkpt lat="49.78613" lon="2.34059">
        <ele>108.3</ele>
        <time>2023-10-11T13:28:14Z</time>
      </trkpt>
      <trkpt lat="49.78614" lon="2.34061">
        <ele>108.2</ele>
        <time>2023-10-11T13:28:15Z</time>
      </trkpt>
      <trkpt lat="49.78614" lon="2.34062">
        <ele>108.2</ele>
        <time>2023-10-11T13:28:16Z</time>
      </trkpt>
      <trkpt lat="49.78615" lon="2.34063">
        <ele>108.2</ele>
        <time>2023-10-11T13:28:17Z</time>
      </trkpt>
      <trkpt lat="49.78615" lon="2.34065">
        <ele>108.2</ele>
        <time>2023-10-11T13:28:18Z</time>
      </trkpt>
      <trkpt lat="49.78616" lon="2.34066">
        <ele>108.2</ele>
        <time>2023-10-11T13:28:19Z</time>
      </trkpt>
      <trkpt lat="49.78616" lon="2.34068">
        <ele>108.2</ele>
        <time>2023-10-11T13:28:20Z</time>
      </trkpt>
      <trkpt lat="49.78617" lon="2.34069">
        <ele>108.2</ele>
        <time>2023-10-11T13:28:21Z</time>
      </trkpt>
      <trkpt lat="49.78617" lon="2.34071">
        <ele>108.2</ele>
        <time>2023-10-11T13:28:22Z</time>
      </trkpt>
      <trkpt lat="49.78618" lon="2.34073">
        <ele>108.2</ele>
        <time>2023-10-11T13:28:23Z</time>
      </trkpt>
      <trkpt lat="49.78618" lon="2.34074">
        <ele>108.1</ele>
        <time>2023-10-11T13:28:24Z</time>
      </trkpt>
      <trkpt lat="49.78619" lon="2.34076">
        <ele>108.1</ele>
        <time>2023-10-11T13:28:25Z</time>
      </trkpt>
      <trkpt lat="49.7862" lon="2.34079">
        <ele>108.1</ele>
        <time>2023-10-11T13:28:26Z</time>
      </trkpt>
      <trkpt lat="49.78621" lon="2.3408">
        <ele>108.1</ele>
        <time>2023-10-11T13:28:28Z</time>
      </trkpt>
      <trkpt lat="49.78622" lon="2.34083">
        <ele>108.1</ele>
        <time>2023-10-11T13:28:29Z</time>
      </trkpt>
      <trkpt lat="49.78623" lon="2.34084">
        <ele>108.1</ele>
        <time>2023-10-11T13:28:31Z</time>
      </trkpt>
      <trkpt lat="49.78623" lon="2.34085">
        <ele>108.1</ele>
        <time>2023-10-11T13:28:32Z</time>
      </trkpt>
      <trkpt lat="49.78625" lon="2.34088">
        <ele>108</ele>
        <time>2023-10-11T13:28:33Z</time>
      </trkpt>
      <trkpt lat="49.78626" lon="2.34089">
        <ele>108</ele>
        <time>2023-10-11T13:28:35Z</time>
      </trkpt>
      <trkpt lat="49.78626" lon="2.34091">
        <ele>108</ele>
        <time>2023-10-11T13:28:36Z</time>
      </trkpt>
      <trkpt lat="49.78627" lon="2.34092">
        <ele>108</ele>
        <time>2023-10-11T13:28:37Z</time>
      </trkpt>
      <trkpt lat="49.78628" lon="2.34093">
        <ele>108</ele>
        <time>2023-10-11T13:28:38Z</time>
      </trkpt>
      <trkpt lat="49.78629" lon="2.34094">
        <ele>108</ele>
        <time>2023-10-11T13:28:39Z</time>
      </trkpt>
      <trkpt lat="49.78631" lon="2.34096">
        <ele>108</ele>
        <time>2023-10-11T13:28:40Z</time>
      </trkpt>
      <trkpt lat="49.78632" lon="2.34098">
        <ele>108</ele>
        <time>2023-10-11T13:28:42Z</time>
      </trkpt>
      <trkpt lat="49.78633" lon="2.34098">
        <ele>108</ele>
        <time>2023-10-11T13:28:43Z</time>
      </trkpt>
      <trkpt lat="49.78634" lon="2.341">
        <ele>107.9</ele>
        <time>2023-10-11T13:28:44Z</time>
      </trkpt>
      <trkpt lat="49.78635" lon="2.34101">
        <ele>107.9</ele>
        <time>2023-10-11T13:28:45Z</time>
      </trkpt>
      <trkpt lat="49.78637" lon="2.34103">
        <ele>107.9</ele>
        <time>2023-10-11T13:28:46Z</time>
      </trkpt>
      <trkpt lat="49.78638" lon="2.34104">
        <ele>107.9</ele>
        <time>2023-10-11T13:28:47Z</time>
      </trkpt>
      <trkpt lat="49.78638" lon="2.34105">
        <ele>107.9</ele>
        <time>2023-10-11T13:28:48Z</time>
      </trkpt>
      <trkpt lat="49.78639" lon="2.34106">
        <ele>107.9</ele>
        <time>2023-10-11T13:28:49Z</time>
      </trkpt>
      <trkpt lat="49.78641" lon="2.34108">
        <ele>107.9</ele>
        <time>2023-10-11T13:28:50Z</time>
      </trkpt>
      <trkpt lat="49.78643" lon="2.34112">
        <ele>107.8</ele>
        <time>2023-10-11T13:28:52Z</time>
      </trkpt>
      <trkpt lat="49.78643" lon="2.34113">
        <ele>107.8</ele>
        <time>2023-10-11T13:28:54Z</time>
      </trkpt>
      <trkpt lat="49.78644" lon="2.34114">
        <ele>107.8</ele>
        <time>2023-10-11T13:28:55Z</time>
      </trkpt>
      <trkpt lat="49.78645" lon="2.34116">
        <ele>107.8</ele>
        <time>2023-10-11T13:28:56Z</time>
      </trkpt>
      <trkpt lat="49.78646" lon="2.34117">
        <ele>107.8</ele>
        <time>2023-10-11T13:28:57Z</time>
      </trkpt>
      <trkpt lat="49.78646" lon="2.34118">
        <ele>107.8</ele>
        <time>2023-10-11T13:28:58Z</time>
      </trkpt>
      <trkpt lat="49.78647" lon="2.3412">
        <ele>107.8</ele>
        <time>2023-10-11T13:28:59Z</time>
      </trkpt>
      <trkpt lat="49.78649" lon="2.34122">
        <ele>107.7</ele>
        <time>2023-10-11T13:29:00Z</time>
      </trkpt>
      <trkpt lat="49.7865" lon="2.34123">
        <ele>107.7</ele>
        <time>2023-10-11T13:29:01Z</time>
      </trkpt>
      <trkpt lat="49.78651" lon="2.34125">
        <ele>107.7</ele>
        <time>2023-10-11T13:29:02Z</time>
      </trkpt>
      <trkpt lat="49.78652" lon="2.34126">
        <ele>107.7</ele>
        <time>2023-10-11T13:29:04Z</time>
      </trkpt>
      <trkpt lat="49.78653" lon="2.34127">
        <ele>107.7</ele>
        <time>2023-10-11T13:29:05Z</time>
      </trkpt>
      <trkpt lat="49.78654" lon="2.34128">
        <ele>107.7</ele>
        <time>2023-10-11T13:29:06Z</time>
      </trkpt>
      <trkpt lat="49.78655" lon="2.34129">
        <ele>107.6</ele>
        <time>2023-10-11T13:29:07Z</time>
      </trkpt>
      <trkpt lat="49.78656" lon="2.3413">
        <ele>107.6</ele>
        <time>2023-10-11T13:29:08Z</time>
      </trkpt>
      <trkpt lat="49.78658" lon="2.34132">
        <ele>107.6</ele>
        <time>2023-10-11T13:29:09Z</time>
      </trkpt>
      <trkpt lat="49.78658" lon="2.34133">
        <ele>107.6</ele>
        <time>2023-10-11T13:29:10Z</time>
      </trkpt>
      <trkpt lat="49.78659" lon="2.34134">
        <ele>107.6</ele>
        <time>2023-10-11T13:29:11Z</time>
      </trkpt>
      <trkpt lat="49.7866" lon="2.34135">
        <ele>107.5</ele>
        <time>2023-10-11T13:29:12Z</time>
      </trkpt>
      <trkpt lat="49.78661" lon="2.34136">
        <ele>107.5</ele>
        <time>2023-10-11T13:29:13Z</time>
      </trkpt>
      <trkpt lat="49.78662" lon="2.34137">
        <ele>107.5</ele>
        <time>2023-10-11T13:29:14Z</time>
      </trkpt>
      <trkpt lat="49.78663" lon="2.34139">
        <ele>107.5</ele>
        <time>2023-10-11T13:29:15Z</time>
      </trkpt>
      <trkpt lat="49.78665" lon="2.34141">
        <ele>107.4</ele>
        <time>2023-10-11T13:29:17Z</time>
      </trkpt>
      <trkpt lat="49.78666" lon="2.34143">
        <ele>107.4</ele>
        <time>2023-10-11T13:29:19Z</time>
      </trkpt>
      <trkpt lat="49.78667" lon="2.34144">
        <ele>107.4</ele>
        <time>2023-10-11T13:29:20Z</time>
      </trkpt>
      <trkpt lat="49.78668" lon="2.34146">
        <ele>107.4</ele>
        <time>2023-10-11T13:29:21Z</time>
      </trkpt>
      <trkpt lat="49.78669" lon="2.34147">
        <ele>107.4</ele>
        <time>2023-10-11T13:29:22Z</time>
      </trkpt>
      <trkpt lat="49.78669" lon="2.34148">
        <ele>107.4</ele>
        <time>2023-10-11T13:29:23Z</time>
      </trkpt>
      <trkpt lat="49.7867" lon="2.3415">
        <ele>107.3</ele>
        <time>2023-10-11T13:29:24Z</time>
      </trkpt>
      <trkpt lat="49.78671" lon="2.34151">
        <ele>107.3</ele>
        <time>2023-10-11T13:29:25Z</time>
      </trkpt>
      <trkpt lat="49.78672" lon="2.34152">
        <ele>107.3</ele>
        <time>2023-10-11T13:29:26Z</time>
      </trkpt>
      <trkpt lat="49.78672" lon="2.34154">
        <ele>107.3</ele>
        <time>2023-10-11T13:29:27Z</time>
      </trkpt>
      <trkpt lat="49.78673" lon="2.34155">
        <ele>107.3</ele>
        <time>2023-10-11T13:29:28Z</time>
      </trkpt>
      <trkpt lat="49.78673" lon="2.34156">
        <ele>107.3</ele>
        <time>2023-10-11T13:29:29Z</time>
      </trkpt>
      <trkpt lat="49.78675" lon="2.34159">
        <ele>107.2</ele>
        <time>2023-10-11T13:29:30Z</time>
      </trkpt>
      <trkpt lat="49.78676" lon="2.3416">
        <ele>107.2</ele>
        <time>2023-10-11T13:29:32Z</time>
      </trkpt>
      <trkpt lat="49.78677" lon="2.34162">
        <ele>107.2</ele>
        <time>2023-10-11T13:29:33Z</time>
      </trkpt>
      <trkpt lat="49.78678" lon="2.34164">
        <ele>107.2</ele>
        <time>2023-10-11T13:29:35Z</time>
      </trkpt>
      <trkpt lat="49.78679" lon="2.34165">
        <ele>107.2</ele>
        <time>2023-10-11T13:29:36Z</time>
      </trkpt>
      <trkpt lat="49.78679" lon="2.34167">
        <ele>107.2</ele>
        <time>2023-10-11T13:29:37Z</time>
      </trkpt>
      <trkpt lat="49.7868" lon="2.34168">
        <ele>107.2</ele>
        <time>2023-10-11T13:29:38Z</time>
      </trkpt>
      <trkpt lat="49.78681" lon="2.34169">
        <ele>107.1</ele>
        <time>2023-10-11T13:29:39Z</time>
      </trkpt>
      <trkpt lat="49.78681" lon="2.3417">
        <ele>107.1</ele>
        <time>2023-10-11T13:29:40Z</time>
      </trkpt>
      <trkpt lat="49.78682" lon="2.34171">
        <ele>107.1</ele>
        <time>2023-10-11T13:29:41Z</time>
      </trkpt>
      <trkpt lat="49.78683" lon="2.34172">
        <ele>107.1</ele>
        <time>2023-10-11T13:29:42Z</time>
      </trkpt>
      <trkpt lat="49.78684" lon="2.34173">
        <ele>107.1</ele>
        <time>2023-10-11T13:29:43Z</time>
      </trkpt>
      <trkpt lat="49.78684" lon="2.34174">
        <ele>107.1</ele>
        <time>2023-10-11T13:29:44Z</time>
      </trkpt>
      <trkpt lat="49.78685" lon="2.34175">
        <ele>107.1</ele>
        <time>2023-10-11T13:29:45Z</time>
      </trkpt>
      <trkpt lat="49.78686" lon="2.34177">
        <ele>107.1</ele>
        <time>2023-10-11T13:29:46Z</time>
      </trkpt>
      <trkpt lat="49.78687" lon="2.34178">
        <ele>107.1</ele>
        <time>2023-10-11T13:29:47Z</time>
      </trkpt>
      <trkpt lat="49.78688" lon="2.34179">
        <ele>107.1</ele>
        <time>2023-10-11T13:29:48Z</time>
      </trkpt>
      <trkpt lat="49.78689" lon="2.3418">
        <ele>107.1</ele>
        <time>2023-10-11T13:29:49Z</time>
      </trkpt>
      <trkpt lat="49.78689" lon="2.34181">
        <ele>107.1</ele>
        <time>2023-10-11T13:29:50Z</time>
      </trkpt>
      <trkpt lat="49.7869" lon="2.34182">
        <ele>107</ele>
        <time>2023-10-11T13:29:51Z</time>
      </trkpt>
      <trkpt lat="49.78691" lon="2.34183">
        <ele>107</ele>
        <time>2023-10-11T13:29:52Z</time>
      </trkpt>
      <trkpt lat="49.78692" lon="2.34185">
        <ele>107</ele>
        <time>2023-10-11T13:29:53Z</time>
      </trkpt>
      <trkpt lat="49.78693" lon="2.34187">
        <ele>107</ele>
        <time>2023-10-11T13:29:54Z</time>
      </trkpt>
      <trkpt lat="49.78694" lon="2.34189">
        <ele>107</ele>
        <time>2023-10-11T13:29:55Z</time>
      </trkpt>
      <trkpt lat="49.78695" lon="2.34191">
        <ele>107</ele>
        <time>2023-10-11T13:29:56Z</time>
      </trkpt>
      <trkpt lat="49.78696" lon="2.34192">
        <ele>107</ele>
        <time>2023-10-11T13:29:58Z</time>
      </trkpt>
      <trkpt lat="49.78696" lon="2.34193">
        <ele>107</ele>
        <time>2023-10-11T13:29:59Z</time>
      </trkpt>
      <trkpt lat="49.78697" lon="2.34194">
        <ele>107</ele>
        <time>2023-10-11T13:30:00Z</time>
      </trkpt>
      <trkpt lat="49.78698" lon="2.34196">
        <ele>107</ele>
        <time>2023-10-11T13:30:01Z</time>
      </trkpt>
      <trkpt lat="49.78698" lon="2.34197">
        <ele>107</ele>
        <time>2023-10-11T13:30:02Z</time>
      </trkpt>
      <trkpt lat="49.78699" lon="2.34198">
        <ele>106.9</ele>
        <time>2023-10-11T13:30:03Z</time>
      </trkpt>
      <trkpt lat="49.787" lon="2.34199">
        <ele>106.9</ele>
        <time>2023-10-11T13:30:04Z</time>
      </trkpt>
      <trkpt lat="49.787" lon="2.342">
        <ele>106.9</ele>
        <time>2023-10-11T13:30:05Z</time>
      </trkpt>
      <trkpt lat="49.78701" lon="2.34202">
        <ele>106.9</ele>
        <time>2023-10-11T13:30:06Z</time>
      </trkpt>
      <trkpt lat="49.78703" lon="2.34204">
        <ele>106.9</ele>
        <time>2023-10-11T13:30:07Z</time>
      </trkpt>
      <trkpt lat="49.78704" lon="2.34205">
        <ele>106.9</ele>
        <time>2023-10-11T13:30:09Z</time>
      </trkpt>
      <trkpt lat="49.78704" lon="2.34207">
        <ele>106.9</ele>
        <time>2023-10-11T13:30:10Z</time>
      </trkpt>
      <trkpt lat="49.78706" lon="2.34209">
        <ele>106.9</ele>
        <time>2023-10-11T13:30:11Z</time>
      </trkpt>
      <trkpt lat="49.78707" lon="2.3421">
        <ele>106.9</ele>
        <time>2023-10-11T13:30:13Z</time>
      </trkpt>
      <trkpt lat="49.78708" lon="2.34211">
        <ele>106.8</ele>
        <time>2023-10-11T13:30:14Z</time>
      </trkpt>
      <trkpt lat="49.78709" lon="2.34212">
        <ele>106.8</ele>
        <time>2023-10-11T13:30:15Z</time>
      </trkpt>
      <trkpt lat="49.7871" lon="2.34214">
        <ele>106.8</ele>
        <time>2023-10-11T13:30:16Z</time>
      </trkpt>
      <trkpt lat="49.78711" lon="2.34215">
        <ele>106.8</ele>
        <time>2023-10-11T13:30:17Z</time>
      </trkpt>
      <trkpt lat="49.78712" lon="2.34216">
        <ele>106.8</ele>
        <time>2023-10-11T13:30:18Z</time>
      </trkpt>
      <trkpt lat="49.78713" lon="2.34217">
        <ele>106.8</ele>
        <time>2023-10-11T13:30:19Z</time>
      </trkpt>
      <trkpt lat="49.78713" lon="2.34218">
        <ele>106.8</ele>
        <time>2023-10-11T13:30:20Z</time>
      </trkpt>
      <trkpt lat="49.78714" lon="2.34219">
        <ele>106.8</ele>
        <time>2023-10-11T13:30:21Z</time>
      </trkpt>
      <trkpt lat="49.78715" lon="2.3422">
        <ele>106.8</ele>
        <time>2023-10-11T13:30:22Z</time>
      </trkpt>
      <trkpt lat="49.78715" lon="2.34221">
        <ele>106.8</ele>
        <time>2023-10-11T13:30:23Z</time>
      </trkpt>
      <trkpt lat="49.78716" lon="2.34222">
        <ele>106.7</ele>
        <time>2023-10-11T13:30:24Z</time>
      </trkpt>
      <trkpt lat="49.78717" lon="2.34223">
        <ele>106.7</ele>
        <time>2023-10-11T13:30:25Z</time>
      </trkpt>
      <trkpt lat="49.78718" lon="2.34224">
        <ele>106.7</ele>
        <time>2023-10-11T13:30:26Z</time>
      </trkpt>
      <trkpt lat="49.78718" lon="2.34226">
        <ele>106.7</ele>
        <time>2023-10-11T13:30:27Z</time>
      </trkpt>
      <trkpt lat="49.78719" lon="2.34227">
        <ele>106.7</ele>
        <time>2023-10-11T13:30:28Z</time>
      </trkpt>
      <trkpt lat="49.7872" lon="2.34228">
        <ele>106.7</ele>
        <time>2023-10-11T13:30:29Z</time>
      </trkpt>
      <trkpt lat="49.78721" lon="2.34229">
        <ele>106.7</ele>
        <time>2023-10-11T13:30:30Z</time>
      </trkpt>
      <trkpt lat="49.78722" lon="2.34231">
        <ele>106.7</ele>
        <time>2023-10-11T13:30:31Z</time>
      </trkpt>
      <trkpt lat="49.78722" lon="2.34233">
        <ele>106.7</ele>
        <time>2023-10-11T13:30:33Z</time>
      </trkpt>
      <trkpt lat="49.78723" lon="2.34234">
        <ele>106.7</ele>
        <time>2023-10-11T13:30:34Z</time>
      </trkpt>
      <trkpt lat="49.78724" lon="2.34235">
        <ele>106.7</ele>
        <time>2023-10-11T13:30:35Z</time>
      </trkpt>
      <trkpt lat="49.78725" lon="2.34236">
        <ele>106.7</ele>
        <time>2023-10-11T13:30:36Z</time>
      </trkpt>
      <trkpt lat="49.78726" lon="2.34239">
        <ele>106.6</ele>
        <time>2023-10-11T13:30:37Z</time>
      </trkpt>
      <trkpt lat="49.78727" lon="2.3424">
        <ele>106.6</ele>
        <time>2023-10-11T13:30:39Z</time>
      </trkpt>
      <trkpt lat="49.78728" lon="2.34241">
        <ele>106.6</ele>
        <time>2023-10-11T13:30:40Z</time>
      </trkpt>
      <trkpt lat="49.78728" lon="2.34242">
        <ele>106.6</ele>
        <time>2023-10-11T13:30:41Z</time>
      </trkpt>
      <trkpt lat="49.78729" lon="2.34243">
        <ele>106.6</ele>
        <time>2023-10-11T13:30:42Z</time>
      </trkpt>
      <trkpt lat="49.7873" lon="2.34244">
        <ele>106.6</ele>
        <time>2023-10-11T13:30:43Z</time>
      </trkpt>
      <trkpt lat="49.7873" lon="2.34246">
        <ele>106.6</ele>
        <time>2023-10-11T13:30:44Z</time>
      </trkpt>
      <trkpt lat="49.78731" lon="2.34247">
        <ele>106.6</ele>
        <time>2023-10-11T13:30:45Z</time>
      </trkpt>
      <trkpt lat="49.78732" lon="2.34248">
        <ele>106.6</ele>
        <time>2023-10-11T13:30:46Z</time>
      </trkpt>
      <trkpt lat="49.78733" lon="2.34249">
        <ele>106.6</ele>
        <time>2023-10-11T13:30:47Z</time>
      </trkpt>
      <trkpt lat="49.78733" lon="2.34251">
        <ele>106.6</ele>
        <time>2023-10-11T13:30:48Z</time>
      </trkpt>
      <trkpt lat="49.78734" lon="2.34252">
        <ele>106.6</ele>
        <time>2023-10-11T13:30:49Z</time>
      </trkpt>
      <trkpt lat="49.78735" lon="2.34253">
        <ele>106.5</ele>
        <time>2023-10-11T13:30:50Z</time>
      </trkpt>
      <trkpt lat="49.78736" lon="2.34254">
        <ele>106.5</ele>
        <time>2023-10-11T13:30:51Z</time>
      </trkpt>
      <trkpt lat="49.78736" lon="2.34255">
        <ele>106.5</ele>
        <time>2023-10-11T13:30:52Z</time>
      </trkpt>
      <trkpt lat="49.78737" lon="2.34257">
        <ele>106.5</ele>
        <time>2023-10-11T13:30:53Z</time>
      </trkpt>
      <trkpt lat="49.78738" lon="2.34259">
        <ele>106.5</ele>
        <time>2023-10-11T13:30:54Z</time>
      </trkpt>
      <trkpt lat="49.78739" lon="2.3426">
        <ele>106.5</ele>
        <time>2023-10-11T13:30:55Z</time>
      </trkpt>
      <trkpt lat="49.78739" lon="2.34261">
        <ele>106.4</ele>
        <time>2023-10-11T13:30:56Z</time>
      </trkpt>
      <trkpt lat="49.78741" lon="2.34264">
        <ele>106.4</ele>
        <time>2023-10-11T13:30:57Z</time>
      </trkpt>
      <trkpt lat="49.78742" lon="2.34265">
        <ele>106.4</ele>
        <time>2023-10-11T13:30:59Z</time>
      </trkpt>
      <trkpt lat="49.78743" lon="2.34268">
        <ele>106.4</ele>
        <time>2023-10-11T13:31:00Z</time>
      </trkpt>
      <trkpt lat="49.78744" lon="2.34269">
        <ele>106.3</ele>
        <time>2023-10-11T13:31:02Z</time>
      </trkpt>
      <trkpt lat="49.78744" lon="2.3427">
        <ele>106.3</ele>
        <time>2023-10-11T13:31:03Z</time>
      </trkpt>
      <trkpt lat="49.78745" lon="2.34272">
        <ele>106.3</ele>
        <time>2023-10-11T13:31:04Z</time>
      </trkpt>
      <trkpt lat="49.78747" lon="2.34274">
        <ele>106.2</ele>
        <time>2023-10-11T13:31:05Z</time>
      </trkpt>
      <trkpt lat="49.78748" lon="2.34276">
        <ele>106.2</ele>
        <time>2023-10-11T13:31:06Z</time>
      </trkpt>
      <trkpt lat="49.78749" lon="2.34277">
        <ele>106.2</ele>
        <time>2023-10-11T13:31:08Z</time>
      </trkpt>
      <trkpt lat="49.78749" lon="2.34278">
        <ele>106.2</ele>
        <time>2023-10-11T13:31:09Z</time>
      </trkpt>
      <trkpt lat="49.7875" lon="2.34279">
        <ele>106.1</ele>
        <time>2023-10-11T13:31:10Z</time>
      </trkpt>
      <trkpt lat="49.78751" lon="2.3428">
        <ele>106.1</ele>
        <time>2023-10-11T13:31:11Z</time>
      </trkpt>
      <trkpt lat="49.78751" lon="2.34281">
        <ele>106.1</ele>
        <time>2023-10-11T13:31:12Z</time>
      </trkpt>
      <trkpt lat="49.78752" lon="2.34282">
        <ele>106.1</ele>
        <time>2023-10-11T13:31:13Z</time>
      </trkpt>
      <trkpt lat="49.78753" lon="2.34283">
        <ele>106.1</ele>
        <time>2023-10-11T13:31:14Z</time>
      </trkpt>
      <trkpt lat="49.78754" lon="2.34284">
        <ele>106</ele>
        <time>2023-10-11T13:31:15Z</time>
      </trkpt>
      <trkpt lat="49.78754" lon="2.34285">
        <ele>106</ele>
        <time>2023-10-11T13:31:16Z</time>
      </trkpt>
      <trkpt lat="49.78755" lon="2.34287">
        <ele>106</ele>
        <time>2023-10-11T13:31:17Z</time>
      </trkpt>
      <trkpt lat="49.78756" lon="2.34288">
        <ele>105.9</ele>
        <time>2023-10-11T13:31:18Z</time>
      </trkpt>
      <trkpt lat="49.78757" lon="2.34289">
        <ele>105.9</ele>
        <time>2023-10-11T13:31:19Z</time>
      </trkpt>
      <trkpt lat="49.78758" lon="2.3429">
        <ele>105.9</ele>
        <time>2023-10-11T13:31:20Z</time>
      </trkpt>
      <trkpt lat="49.78758" lon="2.34291">
        <ele>105.9</ele>
        <time>2023-10-11T13:31:21Z</time>
      </trkpt>
      <trkpt lat="49.78759" lon="2.34292">
        <ele>105.9</ele>
        <time>2023-10-11T13:31:22Z</time>
      </trkpt>
      <trkpt lat="49.78759" lon="2.34292">
        <ele>105.8</ele>
        <time>2023-10-11T13:31:23Z</time>
      </trkpt>
      <trkpt lat="49.7876" lon="2.34293">
        <ele>105.8</ele>
        <time>2023-10-11T13:31:24Z</time>
      </trkpt>
      <trkpt lat="49.78761" lon="2.34294">
        <ele>105.8</ele>
        <time>2023-10-11T13:31:25Z</time>
      </trkpt>
      <trkpt lat="49.78762" lon="2.34295">
        <ele>105.8</ele>
        <time>2023-10-11T13:31:26Z</time>
      </trkpt>
      <trkpt lat="49.78763" lon="2.34297">
        <ele>105.7</ele>
        <time>2023-10-11T13:31:27Z</time>
      </trkpt>
      <trkpt lat="49.78764" lon="2.34298">
        <ele>105.7</ele>
        <time>2023-10-11T13:31:28Z</time>
      </trkpt>
      <trkpt lat="49.78765" lon="2.34298">
        <ele>105.7</ele>
        <time>2023-10-11T13:31:29Z</time>
      </trkpt>
      <trkpt lat="49.78766" lon="2.34299">
        <ele>105.7</ele>
        <time>2023-10-11T13:31:30Z</time>
      </trkpt>
      <trkpt lat="49.78768" lon="2.34301">
        <ele>105.6</ele>
        <time>2023-10-11T13:31:31Z</time>
      </trkpt>
      <trkpt lat="49.78769" lon="2.34302">
        <ele>105.6</ele>
        <time>2023-10-11T13:31:32Z</time>
      </trkpt>
      <trkpt lat="49.7877" lon="2.34303">
        <ele>105.6</ele>
        <time>2023-10-11T13:31:33Z</time>
      </trkpt>
      <trkpt lat="49.78772" lon="2.34305">
        <ele>105.5</ele>
        <time>2023-10-11T13:31:34Z</time>
      </trkpt>
      <trkpt lat="49.78773" lon="2.34306">
        <ele>105.5</ele>
        <time>2023-10-11T13:31:35Z</time>
      </trkpt>
      <trkpt lat="49.78774" lon="2.34307">
        <ele>105.4</ele>
        <time>2023-10-11T13:31:37Z</time>
      </trkpt>
      <trkpt lat="49.78775" lon="2.34308">
        <ele>105.4</ele>
        <time>2023-10-11T13:31:38Z</time>
      </trkpt>
      <trkpt lat="49.78775" lon="2.34309">
        <ele>105.4</ele>
        <time>2023-10-11T13:31:39Z</time>
      </trkpt>
      <trkpt lat="49.78776" lon="2.3431">
        <ele>105.4</ele>
        <time>2023-10-11T13:31:40Z</time>
      </trkpt>
      <trkpt lat="49.78778" lon="2.34312">
        <ele>105.3</ele>
        <time>2023-10-11T13:31:41Z</time>
      </trkpt>
      <trkpt lat="49.78779" lon="2.34313">
        <ele>105.3</ele>
        <time>2023-10-11T13:31:43Z</time>
      </trkpt>
      <trkpt lat="49.78779" lon="2.34314">
        <ele>105.2</ele>
        <time>2023-10-11T13:31:44Z</time>
      </trkpt>
      <trkpt lat="49.78781" lon="2.34316">
        <ele>105.2</ele>
        <time>2023-10-11T13:31:45Z</time>
      </trkpt>
      <trkpt lat="49.78782" lon="2.34318">
        <ele>105.1</ele>
        <time>2023-10-11T13:31:47Z</time>
      </trkpt>
      <trkpt lat="49.78783" lon="2.34319">
        <ele>105.1</ele>
        <time>2023-10-11T13:31:49Z</time>
      </trkpt>
      <trkpt lat="49.78784" lon="2.3432">
        <ele>105.1</ele>
        <time>2023-10-11T13:31:50Z</time>
      </trkpt>
      <trkpt lat="49.78785" lon="2.34322">
        <ele>105</ele>
        <time>2023-10-11T13:31:51Z</time>
      </trkpt>
      <trkpt lat="49.78786" lon="2.34323">
        <ele>105</ele>
        <time>2023-10-11T13:31:52Z</time>
      </trkpt>
      <trkpt lat="49.78787" lon="2.34324">
        <ele>105</ele>
        <time>2023-10-11T13:31:53Z</time>
      </trkpt>
      <trkpt lat="49.78787" lon="2.34325">
        <ele>105</ele>
        <time>2023-10-11T13:31:54Z</time>
      </trkpt>
      <trkpt lat="49.78788" lon="2.34327">
        <ele>104.9</ele>
        <time>2023-10-11T13:31:55Z</time>
      </trkpt>
      <trkpt lat="49.78789" lon="2.34328">
        <ele>104.9</ele>
        <time>2023-10-11T13:31:56Z</time>
      </trkpt>
      <trkpt lat="49.78791" lon="2.3433">
        <ele>104.8</ele>
        <time>2023-10-11T13:31:57Z</time>
      </trkpt>
      <trkpt lat="49.78792" lon="2.34333">
        <ele>104.8</ele>
        <time>2023-10-11T13:31:59Z</time>
      </trkpt>
      <trkpt lat="49.78792" lon="2.34333">
        <ele>104.8</ele>
        <time>2023-10-11T13:32:00Z</time>
      </trkpt>
      <trkpt lat="49.78793" lon="2.34335">
        <ele>104.7</ele>
        <time>2023-10-11T13:32:01Z</time>
      </trkpt>
      <trkpt lat="49.78794" lon="2.34337">
        <ele>104.7</ele>
        <time>2023-10-11T13:32:02Z</time>
      </trkpt>
      <trkpt lat="49.78796" lon="2.3434">
        <ele>104.6</ele>
        <time>2023-10-11T13:32:03Z</time>
      </trkpt>
      <trkpt lat="49.78797" lon="2.34342">
        <ele>104.6</ele>
        <time>2023-10-11T13:32:05Z</time>
      </trkpt>
      <trkpt lat="49.78798" lon="2.34344">
        <ele>104.5</ele>
        <time>2023-10-11T13:32:06Z</time>
      </trkpt>
      <trkpt lat="49.78798" lon="2.34345">
        <ele>104.5</ele>
        <time>2023-10-11T13:32:07Z</time>
      </trkpt>
      <trkpt lat="49.78799" lon="2.34346">
        <ele>104.5</ele>
        <time>2023-10-11T13:32:08Z</time>
      </trkpt>
      <trkpt lat="49.788" lon="2.34348">
        <ele>104.4</ele>
        <time>2023-10-11T13:32:09Z</time>
      </trkpt>
      <trkpt lat="49.78801" lon="2.3435">
        <ele>104.4</ele>
        <time>2023-10-11T13:32:10Z</time>
      </trkpt>
      <trkpt lat="49.78801" lon="2.34352">
        <ele>104.3</ele>
        <time>2023-10-11T13:32:11Z</time>
      </trkpt>
      <trkpt lat="49.78802" lon="2.34353">
        <ele>104.3</ele>
        <time>2023-10-11T13:32:12Z</time>
      </trkpt>
      <trkpt lat="49.78803" lon="2.34355">
        <ele>104.3</ele>
        <time>2023-10-11T13:32:13Z</time>
      </trkpt>
      <trkpt lat="49.78804" lon="2.34357">
        <ele>104.2</ele>
        <time>2023-10-11T13:32:14Z</time>
      </trkpt>
      <trkpt lat="49.78805" lon="2.34359">
        <ele>104.2</ele>
        <time>2023-10-11T13:32:15Z</time>
      </trkpt>
      <trkpt lat="49.78806" lon="2.3436">
        <ele>104.1</ele>
        <time>2023-10-11T13:32:16Z</time>
      </trkpt>
      <trkpt lat="49.78807" lon="2.34362">
        <ele>104.1</ele>
        <time>2023-10-11T13:32:17Z</time>
      </trkpt>
      <trkpt lat="49.78807" lon="2.34364">
        <ele>104.1</ele>
        <time>2023-10-11T13:32:18Z</time>
      </trkpt>
      <trkpt lat="49.78808" lon="2.34365">
        <ele>104.1</ele>
        <time>2023-10-11T13:32:19Z</time>
      </trkpt>
      <trkpt lat="49.78809" lon="2.34366">
        <ele>104</ele>
        <time>2023-10-11T13:32:20Z</time>
      </trkpt>
      <trkpt lat="49.78809" lon="2.34368">
        <ele>104</ele>
        <time>2023-10-11T13:32:21Z</time>
      </trkpt>
      <trkpt lat="49.7881" lon="2.34369">
        <ele>104</ele>
        <time>2023-10-11T13:32:22Z</time>
      </trkpt>
      <trkpt lat="49.7881" lon="2.3437">
        <ele>104</ele>
        <time>2023-10-11T13:32:23Z</time>
      </trkpt>
      <trkpt lat="49.78811" lon="2.34372">
        <ele>103.9</ele>
        <time>2023-10-11T13:32:24Z</time>
      </trkpt>
      <trkpt lat="49.78811" lon="2.34373">
        <ele>103.9</ele>
        <time>2023-10-11T13:32:25Z</time>
      </trkpt>
      <trkpt lat="49.78811" lon="2.34374">
        <ele>103.9</ele>
        <time>2023-10-11T13:32:26Z</time>
      </trkpt>
      <trkpt lat="49.78812" lon="2.34375">
        <ele>103.9</ele>
        <time>2023-10-11T13:32:27Z</time>
      </trkpt>
      <trkpt lat="49.78812" lon="2.34376">
        <ele>103.9</ele>
        <time>2023-10-11T13:32:28Z</time>
      </trkpt>
      <trkpt lat="49.78813" lon="2.34377">
        <ele>103.9</ele>
        <time>2023-10-11T13:32:29Z</time>
      </trkpt>
      <trkpt lat="49.78814" lon="2.3438">
        <ele>103.8</ele>
        <time>2023-10-11T13:32:30Z</time>
      </trkpt>
      <trkpt lat="49.78815" lon="2.34381">
        <ele>103.8</ele>
        <time>2023-10-11T13:32:32Z</time>
      </trkpt>
      <trkpt lat="49.78815" lon="2.34382">
        <ele>103.8</ele>
        <time>2023-10-11T13:32:33Z</time>
      </trkpt>
      <trkpt lat="49.78816" lon="2.34383">
        <ele>103.8</ele>
        <time>2023-10-11T13:32:34Z</time>
      </trkpt>
      <trkpt lat="49.78818" lon="2.34385">
        <ele>103.7</ele>
        <time>2023-10-11T13:32:35Z</time>
      </trkpt>
      <trkpt lat="49.78819" lon="2.34386">
        <ele>103.7</ele>
        <time>2023-10-11T13:32:36Z</time>
      </trkpt>
      <trkpt lat="49.7882" lon="2.34386">
        <ele>103.7</ele>
        <time>2023-10-11T13:32:38Z</time>
      </trkpt>
      <trkpt lat="49.7882" lon="2.34387">
        <ele>103.7</ele>
        <time>2023-10-11T13:32:39Z</time>
      </trkpt>
      <trkpt lat="49.78821" lon="2.34387">
        <ele>103.6</ele>
        <time>2023-10-11T13:32:40Z</time>
      </trkpt>
      <trkpt lat="49.78822" lon="2.34387">
        <ele>103.6</ele>
        <time>2023-10-11T13:32:41Z</time>
      </trkpt>
      <trkpt lat="49.78822" lon="2.34388">
        <ele>103.6</ele>
        <time>2023-10-11T13:32:42Z</time>
      </trkpt>
      <trkpt lat="49.78823" lon="2.34388">
        <ele>103.6</ele>
        <time>2023-10-11T13:32:43Z</time>
      </trkpt>
      <trkpt lat="49.78824" lon="2.34389">
        <ele>103.6</ele>
        <time>2023-10-11T13:32:44Z</time>
      </trkpt>
      <trkpt lat="49.78825" lon="2.3439">
        <ele>103.6</ele>
        <time>2023-10-11T13:32:45Z</time>
      </trkpt>
      <trkpt lat="49.78827" lon="2.3439">
        <ele>103.5</ele>
        <time>2023-10-11T13:32:46Z</time>
      </trkpt>
      <trkpt lat="49.78828" lon="2.34391">
        <ele>103.5</ele>
        <time>2023-10-11T13:32:48Z</time>
      </trkpt>
      <trkpt lat="49.7883" lon="2.34393">
        <ele>103.5</ele>
        <time>2023-10-11T13:32:49Z</time>
      </trkpt>
      <trkpt lat="49.78831" lon="2.34394">
        <ele>103.5</ele>
        <time>2023-10-11T13:32:51Z</time>
      </trkpt>
      <trkpt lat="49.78832" lon="2.34395">
        <ele>103.4</ele>
        <time>2023-10-11T13:32:52Z</time>
      </trkpt>
      <trkpt lat="49.78832" lon="2.34396">
        <ele>103.4</ele>
        <time>2023-10-11T13:32:53Z</time>
      </trkpt>
      <trkpt lat="49.78833" lon="2.34396">
        <ele>103.4</ele>
        <time>2023-10-11T13:32:54Z</time>
      </trkpt>
      <trkpt lat="49.78834" lon="2.34397">
        <ele>103.4</ele>
        <time>2023-10-11T13:32:55Z</time>
      </trkpt>
      <trkpt lat="49.78835" lon="2.34398">
        <ele>103.4</ele>
        <time>2023-10-11T13:32:56Z</time>
      </trkpt>
      <trkpt lat="49.78836" lon="2.34399">
        <ele>103.3</ele>
        <time>2023-10-11T13:32:57Z</time>
      </trkpt>
      <trkpt lat="49.78837" lon="2.344">
        <ele>103.3</ele>
        <time>2023-10-11T13:32:58Z</time>
      </trkpt>
      <trkpt lat="49.78838" lon="2.34401">
        <ele>103.3</ele>
        <time>2023-10-11T13:32:59Z</time>
      </trkpt>
      <trkpt lat="49.78839" lon="2.34401">
        <ele>103.3</ele>
        <time>2023-10-11T13:33:00Z</time>
      </trkpt>
      <trkpt lat="49.7884" lon="2.34402">
        <ele>103.2</ele>
        <time>2023-10-11T13:33:01Z</time>
      </trkpt>
      <trkpt lat="49.78841" lon="2.34403">
        <ele>103.2</ele>
        <time>2023-10-11T13:33:02Z</time>
      </trkpt>
      <trkpt lat="49.78842" lon="2.34404">
        <ele>103.2</ele>
        <time>2023-10-11T13:33:03Z</time>
      </trkpt>
      <trkpt lat="49.78842" lon="2.34405">
        <ele>103.1</ele>
        <time>2023-10-11T13:33:04Z</time>
      </trkpt>
      <trkpt lat="49.78843" lon="2.34405">
        <ele>103.1</ele>
        <time>2023-10-11T13:33:05Z</time>
      </trkpt>
      <trkpt lat="49.78844" lon="2.34406">
        <ele>103.1</ele>
        <time>2023-10-11T13:33:06Z</time>
      </trkpt>
      <trkpt lat="49.78846" lon="2.34407">
        <ele>103</ele>
        <time>2023-10-11T13:33:07Z</time>
      </trkpt>
      <trkpt lat="49.78847" lon="2.34408">
        <ele>103</ele>
        <time>2023-10-11T13:33:09Z</time>
      </trkpt>
      <trkpt lat="49.78848" lon="2.34409">
        <ele>103</ele>
        <time>2023-10-11T13:33:10Z</time>
      </trkpt>
      <trkpt lat="49.78849" lon="2.34409">
        <ele>102.9</ele>
        <time>2023-10-11T13:33:11Z</time>
      </trkpt>
      <trkpt lat="49.7885" lon="2.3441">
        <ele>102.9</ele>
        <time>2023-10-11T13:33:12Z</time>
      </trkpt>
      <trkpt lat="49.78851" lon="2.3441">
        <ele>102.8</ele>
        <time>2023-10-11T13:33:13Z</time>
      </trkpt>
      <trkpt lat="49.78852" lon="2.34411">
        <ele>102.8</ele>
        <time>2023-10-11T13:33:14Z</time>
      </trkpt>
      <trkpt lat="49.78853" lon="2.34412">
        <ele>102.7</ele>
        <time>2023-10-11T13:33:15Z</time>
      </trkpt>
      <trkpt lat="49.78855" lon="2.34413">
        <ele>102.6</ele>
        <time>2023-10-11T13:33:16Z</time>
      </trkpt>
      <trkpt lat="49.78856" lon="2.34414">
        <ele>102.6</ele>
        <time>2023-10-11T13:33:17Z</time>
      </trkpt>
      <trkpt lat="49.78857" lon="2.34414">
        <ele>102.6</ele>
        <time>2023-10-11T13:33:18Z</time>
      </trkpt>
      <trkpt lat="49.78859" lon="2.34416">
        <ele>102.5</ele>
        <time>2023-10-11T13:33:19Z</time>
      </trkpt>
      <trkpt lat="49.7886" lon="2.34416">
        <ele>102.4</ele>
        <time>2023-10-11T13:33:21Z</time>
      </trkpt>
      <trkpt lat="49.78861" lon="2.34417">
        <ele>102.4</ele>
        <time>2023-10-11T13:33:22Z</time>
      </trkpt>
      <trkpt lat="49.78862" lon="2.34418">
        <ele>102.3</ele>
        <time>2023-10-11T13:33:23Z</time>
      </trkpt>
      <trkpt lat="49.78863" lon="2.34419">
        <ele>102.3</ele>
        <time>2023-10-11T13:33:24Z</time>
      </trkpt>
      <trkpt lat="49.78864" lon="2.3442">
        <ele>102.2</ele>
        <time>2023-10-11T13:33:25Z</time>
      </trkpt>
      <trkpt lat="49.78865" lon="2.3442">
        <ele>102.2</ele>
        <time>2023-10-11T13:33:26Z</time>
      </trkpt>
      <trkpt lat="49.78866" lon="2.34422">
        <ele>102.1</ele>
        <time>2023-10-11T13:33:27Z</time>
      </trkpt>
      <trkpt lat="49.78867" lon="2.34423">
        <ele>102</ele>
        <time>2023-10-11T13:33:29Z</time>
      </trkpt>
      <trkpt lat="49.78869" lon="2.34425">
        <ele>101.9</ele>
        <time>2023-10-11T13:33:30Z</time>
      </trkpt>
      <trkpt lat="49.7887" lon="2.34426">
        <ele>101.8</ele>
        <time>2023-10-11T13:33:32Z</time>
      </trkpt>
      <trkpt lat="49.78871" lon="2.34431">
        <ele>101.7</ele>
        <time>2023-10-11T13:33:33Z</time>
      </trkpt>
      <trkpt lat="49.78873" lon="2.34433">
        <ele>101.5</ele>
        <time>2023-10-11T13:33:35Z</time>
      </trkpt>
      <trkpt lat="49.78874" lon="2.34434">
        <ele>101.5</ele>
        <time>2023-10-11T13:33:37Z</time>
      </trkpt>
      <trkpt lat="49.78875" lon="2.34435">
        <ele>101.4</ele>
        <time>2023-10-11T13:33:38Z</time>
      </trkpt>
      <trkpt lat="49.78875" lon="2.34436">
        <ele>101.4</ele>
        <time>2023-10-11T13:33:39Z</time>
      </trkpt>
      <trkpt lat="49.78876" lon="2.34437">
        <ele>101.3</ele>
        <time>2023-10-11T13:33:40Z</time>
      </trkpt>
      <trkpt lat="49.78878" lon="2.3444">
        <ele>101.2</ele>
        <time>2023-10-11T13:33:41Z</time>
      </trkpt>
      <trkpt lat="49.78879" lon="2.34443">
        <ele>101.1</ele>
        <time>2023-10-11T13:33:43Z</time>
      </trkpt>
      <trkpt lat="49.78879" lon="2.34443">
        <ele>101</ele>
        <time>2023-10-11T13:33:44Z</time>
      </trkpt>
      <trkpt lat="49.78881" lon="2.34446">
        <ele>100.9</ele>
        <time>2023-10-11T13:33:45Z</time>
      </trkpt>
      <trkpt lat="49.78881" lon="2.34447">
        <ele>100.9</ele>
        <time>2023-10-11T13:33:46Z</time>
      </trkpt>
      <trkpt lat="49.78882" lon="2.34448">
        <ele>100.8</ele>
        <time>2023-10-11T13:33:47Z</time>
      </trkpt>
      <trkpt lat="49.78883" lon="2.34451">
        <ele>100.7</ele>
        <time>2023-10-11T13:33:48Z</time>
      </trkpt>
      <trkpt lat="49.78884" lon="2.34453">
        <ele>100.7</ele>
        <time>2023-10-11T13:33:49Z</time>
      </trkpt>
      <trkpt lat="49.78885" lon="2.34454">
        <ele>100.6</ele>
        <time>2023-10-11T13:33:50Z</time>
      </trkpt>
      <trkpt lat="49.78885" lon="2.34456">
        <ele>100.5</ele>
        <time>2023-10-11T13:33:52Z</time>
      </trkpt>
      <trkpt lat="49.78886" lon="2.34457">
        <ele>100.5</ele>
        <time>2023-10-11T13:33:53Z</time>
      </trkpt>
      <trkpt lat="49.78887" lon="2.34458">
        <ele>100.4</ele>
        <time>2023-10-11T13:33:54Z</time>
      </trkpt>
      <trkpt lat="49.78887" lon="2.34459">
        <ele>100.4</ele>
        <time>2023-10-11T13:33:55Z</time>
      </trkpt>
      <trkpt lat="49.78889" lon="2.34461">
        <ele>100.3</ele>
        <time>2023-10-11T13:33:56Z</time>
      </trkpt>
      <trkpt lat="49.7889" lon="2.34462">
        <ele>100.2</ele>
        <time>2023-10-11T13:33:57Z</time>
      </trkpt>
      <trkpt lat="49.78891" lon="2.34463">
        <ele>100.1</ele>
        <time>2023-10-11T13:33:58Z</time>
      </trkpt>
      <trkpt lat="49.78892" lon="2.34463">
        <ele>100.1</ele>
        <time>2023-10-11T13:34:00Z</time>
      </trkpt>
      <trkpt lat="49.78893" lon="2.34464">
        <ele>100</ele>
        <time>2023-10-11T13:34:01Z</time>
      </trkpt>
      <trkpt lat="49.78894" lon="2.34464">
        <ele>100</ele>
        <time>2023-10-11T13:34:02Z</time>
      </trkpt>
      <trkpt lat="49.78895" lon="2.34465">
        <ele>99.9</ele>
        <time>2023-10-11T13:34:03Z</time>
      </trkpt>
      <trkpt lat="49.78896" lon="2.34466">
        <ele>99.9</ele>
        <time>2023-10-11T13:34:04Z</time>
      </trkpt>
      <trkpt lat="49.78897" lon="2.34466">
        <ele>99.8</ele>
        <time>2023-10-11T13:34:05Z</time>
      </trkpt>
      <trkpt lat="49.78898" lon="2.34467">
        <ele>99.8</ele>
        <time>2023-10-11T13:34:06Z</time>
      </trkpt>
      <trkpt lat="49.78899" lon="2.34468">
        <ele>99.7</ele>
        <time>2023-10-11T13:34:07Z</time>
      </trkpt>
      <trkpt lat="49.78901" lon="2.34469">
        <ele>99.6</ele>
        <time>2023-10-11T13:34:08Z</time>
      </trkpt>
      <trkpt lat="49.78903" lon="2.3447">
        <ele>99.5</ele>
        <time>2023-10-11T13:34:10Z</time>
      </trkpt>
      <trkpt lat="49.78905" lon="2.3447">
        <ele>99.4</ele>
        <time>2023-10-11T13:34:12Z</time>
      </trkpt>
      <trkpt lat="49.78906" lon="2.3447">
        <ele>99.3</ele>
        <time>2023-10-11T13:34:13Z</time>
      </trkpt>
      <trkpt lat="49.78907" lon="2.34471">
        <ele>99.2</ele>
        <time>2023-10-11T13:34:14Z</time>
      </trkpt>
      <trkpt lat="49.78909" lon="2.34471">
        <ele>99.2</ele>
        <time>2023-10-11T13:34:15Z</time>
      </trkpt>
      <trkpt lat="49.78911" lon="2.34472">
        <ele>99</ele>
        <time>2023-10-11T13:34:16Z</time>
      </trkpt>
      <trkpt lat="49.78913" lon="2.34472">
        <ele>99</ele>
        <time>2023-10-11T13:34:17Z</time>
      </trkpt>
      <trkpt lat="49.78914" lon="2.34472">
        <ele>98.9</ele>
        <time>2023-10-11T13:34:18Z</time>
      </trkpt>
      <trkpt lat="49.78915" lon="2.34472">
        <ele>98.9</ele>
        <time>2023-10-11T13:34:20Z</time>
      </trkpt>
      <trkpt lat="49.78916" lon="2.34472">
        <ele>98.8</ele>
        <time>2023-10-11T13:34:21Z</time>
      </trkpt>
      <trkpt lat="49.78917" lon="2.34473">
        <ele>98.8</ele>
        <time>2023-10-11T13:34:22Z</time>
      </trkpt>
      <trkpt lat="49.78918" lon="2.34473">
        <ele>98.7</ele>
        <time>2023-10-11T13:34:23Z</time>
      </trkpt>
      <trkpt lat="49.78919" lon="2.34474">
        <ele>98.7</ele>
        <time>2023-10-11T13:34:24Z</time>
      </trkpt>
      <trkpt lat="49.7892" lon="2.34474">
        <ele>98.6</ele>
        <time>2023-10-11T13:34:25Z</time>
      </trkpt>
      <trkpt lat="49.78922" lon="2.34475">
        <ele>98.5</ele>
        <time>2023-10-11T13:34:26Z</time>
      </trkpt>
      <trkpt lat="49.78923" lon="2.34476">
        <ele>98.5</ele>
        <time>2023-10-11T13:34:28Z</time>
      </trkpt>
      <trkpt lat="49.78924" lon="2.34476">
        <ele>98.4</ele>
        <time>2023-10-11T13:34:29Z</time>
      </trkpt>
      <trkpt lat="49.78925" lon="2.34477">
        <ele>98.4</ele>
        <time>2023-10-11T13:34:30Z</time>
      </trkpt>
      <trkpt lat="49.78926" lon="2.34477">
        <ele>98.3</ele>
        <time>2023-10-11T13:34:31Z</time>
      </trkpt>
      <trkpt lat="49.78927" lon="2.34478">
        <ele>98.3</ele>
        <time>2023-10-11T13:34:32Z</time>
      </trkpt>
      <trkpt lat="49.78929" lon="2.3448">
        <ele>98.2</ele>
        <time>2023-10-11T13:34:33Z</time>
      </trkpt>
      <trkpt lat="49.78932" lon="2.34481">
        <ele>98.1</ele>
        <time>2023-10-11T13:34:35Z</time>
      </trkpt>
      <trkpt lat="49.78933" lon="2.34481">
        <ele>98</ele>
        <time>2023-10-11T13:34:37Z</time>
      </trkpt>
      <trkpt lat="49.78934" lon="2.34482">
        <ele>98</ele>
        <time>2023-10-11T13:34:38Z</time>
      </trkpt>
      <trkpt lat="49.78935" lon="2.34482">
        <ele>97.9</ele>
        <time>2023-10-11T13:34:39Z</time>
      </trkpt>
      <trkpt lat="49.78936" lon="2.34483">
        <ele>97.9</ele>
        <time>2023-10-11T13:34:40Z</time>
      </trkpt>
      <trkpt lat="49.78937" lon="2.34484">
        <ele>97.8</ele>
        <time>2023-10-11T13:34:41Z</time>
      </trkpt>
      <trkpt lat="49.78938" lon="2.34484">
        <ele>97.7</ele>
        <time>2023-10-11T13:34:42Z</time>
      </trkpt>
      <trkpt lat="49.7894" lon="2.34485">
        <ele>97.7</ele>
        <time>2023-10-11T13:34:43Z</time>
      </trkpt>
      <trkpt lat="49.7894" lon="2.34485">
        <ele>97.6</ele>
        <time>2023-10-11T13:34:45Z</time>
      </trkpt>
      <trkpt lat="49.78941" lon="2.34486">
        <ele>97.6</ele>
        <time>2023-10-11T13:34:46Z</time>
      </trkpt>
      <trkpt lat="49.78942" lon="2.34486">
        <ele>97.5</ele>
        <time>2023-10-11T13:34:47Z</time>
      </trkpt>
      <trkpt lat="49.78944" lon="2.34487">
        <ele>97.4</ele>
        <time>2023-10-11T13:34:48Z</time>
      </trkpt>
      <trkpt lat="49.78947" lon="2.34488">
        <ele>97.3</ele>
        <time>2023-10-11T13:34:50Z</time>
      </trkpt>
      <trkpt lat="49.78949" lon="2.34489">
        <ele>97.2</ele>
        <time>2023-10-11T13:34:51Z</time>
      </trkpt>
      <trkpt lat="49.7895" lon="2.3449">
        <ele>97.1</ele>
        <time>2023-10-11T13:34:53Z</time>
      </trkpt>
      <trkpt lat="49.78951" lon="2.34491">
        <ele>97.1</ele>
        <time>2023-10-11T13:34:54Z</time>
      </trkpt>
      <trkpt lat="49.78953" lon="2.34491">
        <ele>97</ele>
        <time>2023-10-11T13:34:55Z</time>
      </trkpt>
      <trkpt lat="49.78954" lon="2.34492">
        <ele>97</ele>
        <time>2023-10-11T13:34:56Z</time>
      </trkpt>
      <trkpt lat="49.78955" lon="2.34493">
        <ele>96.9</ele>
        <time>2023-10-11T13:34:57Z</time>
      </trkpt>
      <trkpt lat="49.78956" lon="2.34493">
        <ele>96.8</ele>
        <time>2023-10-11T13:34:58Z</time>
      </trkpt>
      <trkpt lat="49.78957" lon="2.34494">
        <ele>96.8</ele>
        <time>2023-10-11T13:34:59Z</time>
      </trkpt>
      <trkpt lat="49.78959" lon="2.34495">
        <ele>96.7</ele>
        <time>2023-10-11T13:35:00Z</time>
      </trkpt>
      <trkpt lat="49.7896" lon="2.34496">
        <ele>96.6</ele>
        <time>2023-10-11T13:35:02Z</time>
      </trkpt>
      <trkpt lat="49.78961" lon="2.34496">
        <ele>96.5</ele>
        <time>2023-10-11T13:35:04Z</time>
      </trkpt>
      <trkpt lat="49.78962" lon="2.34496">
        <ele>96.5</ele>
        <time>2023-10-11T13:35:05Z</time>
      </trkpt>
      <trkpt lat="49.78962" lon="2.34496">
        <ele>96.5</ele>
        <time>2023-10-11T13:35:06Z</time>
      </trkpt>
      <trkpt lat="49.78963" lon="2.34497">
        <ele>96.4</ele>
        <time>2023-10-11T13:35:07Z</time>
      </trkpt>
      <trkpt lat="49.78964" lon="2.34497">
        <ele>96.4</ele>
        <time>2023-10-11T13:35:08Z</time>
      </trkpt>
      <trkpt lat="49.78964" lon="2.34497">
        <ele>96.4</ele>
        <time>2023-10-11T13:35:09Z</time>
      </trkpt>
      <trkpt lat="49.78966" lon="2.34497">
        <ele>96.3</ele>
        <time>2023-10-11T13:35:10Z</time>
      </trkpt>
      <trkpt lat="49.78966" lon="2.34498">
        <ele>96.2</ele>
        <time>2023-10-11T13:35:12Z</time>
      </trkpt>
      <trkpt lat="49.78967" lon="2.34498">
        <ele>96.2</ele>
        <time>2023-10-11T13:35:13Z</time>
      </trkpt>
      <trkpt lat="49.78968" lon="2.34499">
        <ele>96.1</ele>
        <time>2023-10-11T13:35:14Z</time>
      </trkpt>
      <trkpt lat="49.78969" lon="2.345">
        <ele>96.1</ele>
        <time>2023-10-11T13:35:15Z</time>
      </trkpt>
      <trkpt lat="49.78969" lon="2.345">
        <ele>96</ele>
        <time>2023-10-11T13:35:16Z</time>
      </trkpt>
      <trkpt lat="49.7897" lon="2.34501">
        <ele>96</ele>
        <time>2023-10-11T13:35:17Z</time>
      </trkpt>
      <trkpt lat="49.78971" lon="2.34502">
        <ele>95.9</ele>
        <time>2023-10-11T13:35:18Z</time>
      </trkpt>
      <trkpt lat="49.78971" lon="2.34503">
        <ele>95.9</ele>
        <time>2023-10-11T13:35:19Z</time>
      </trkpt>
      <trkpt lat="49.78972" lon="2.34503">
        <ele>95.8</ele>
        <time>2023-10-11T13:35:20Z</time>
      </trkpt>
      <trkpt lat="49.78974" lon="2.34505">
        <ele>95.7</ele>
        <time>2023-10-11T13:35:21Z</time>
      </trkpt>
      <trkpt lat="49.78975" lon="2.34506">
        <ele>95.7</ele>
        <time>2023-10-11T13:35:23Z</time>
      </trkpt>
      <trkpt lat="49.78975" lon="2.34507">
        <ele>95.6</ele>
        <time>2023-10-11T13:35:24Z</time>
      </trkpt>
      <trkpt lat="49.78976" lon="2.34508">
        <ele>95.6</ele>
        <time>2023-10-11T13:35:25Z</time>
      </trkpt>
      <trkpt lat="49.78977" lon="2.34509">
        <ele>95.5</ele>
        <time>2023-10-11T13:35:26Z</time>
      </trkpt>
      <trkpt lat="49.78978" lon="2.3451">
        <ele>95.5</ele>
        <time>2023-10-11T13:35:27Z</time>
      </trkpt>
      <trkpt lat="49.78979" lon="2.3451">
        <ele>95.4</ele>
        <time>2023-10-11T13:35:28Z</time>
      </trkpt>
      <trkpt lat="49.7898" lon="2.34512">
        <ele>95.3</ele>
        <time>2023-10-11T13:35:29Z</time>
      </trkpt>
      <trkpt lat="49.78981" lon="2.34513">
        <ele>95.2</ele>
        <time>2023-10-11T13:35:31Z</time>
      </trkpt>
      <trkpt lat="49.78982" lon="2.34514">
        <ele>95.2</ele>
        <time>2023-10-11T13:35:32Z</time>
      </trkpt>
      <trkpt lat="49.78983" lon="2.34514">
        <ele>95.1</ele>
        <time>2023-10-11T13:35:33Z</time>
      </trkpt>
      <trkpt lat="49.78984" lon="2.34515">
        <ele>95.1</ele>
        <time>2023-10-11T13:35:34Z</time>
      </trkpt>
      <trkpt lat="49.78985" lon="2.34516">
        <ele>95</ele>
        <time>2023-10-11T13:35:35Z</time>
      </trkpt>
      <trkpt lat="49.78987" lon="2.34518">
        <ele>94.9</ele>
        <time>2023-10-11T13:35:36Z</time>
      </trkpt>
      <trkpt lat="49.78988" lon="2.3452">
        <ele>94.8</ele>
        <time>2023-10-11T13:35:38Z</time>
      </trkpt>
      <trkpt lat="49.78989" lon="2.34521">
        <ele>94.7</ele>
        <time>2023-10-11T13:35:40Z</time>
      </trkpt>
      <trkpt lat="49.78991" lon="2.34522">
        <ele>94.6</ele>
        <time>2023-10-11T13:35:41Z</time>
      </trkpt>
      <trkpt lat="49.78992" lon="2.34523">
        <ele>94.5</ele>
        <time>2023-10-11T13:35:43Z</time>
      </trkpt>
      <trkpt lat="49.78993" lon="2.34524">
        <ele>94.5</ele>
        <time>2023-10-11T13:35:44Z</time>
      </trkpt>
      <trkpt lat="49.78994" lon="2.34525">
        <ele>94.4</ele>
        <time>2023-10-11T13:35:45Z</time>
      </trkpt>
      <trkpt lat="49.78994" lon="2.34525">
        <ele>94.4</ele>
        <time>2023-10-11T13:35:46Z</time>
      </trkpt>
      <trkpt lat="49.78995" lon="2.34526">
        <ele>94.3</ele>
        <time>2023-10-11T13:35:47Z</time>
      </trkpt>
      <trkpt lat="49.78996" lon="2.34526">
        <ele>94.3</ele>
        <time>2023-10-11T13:35:48Z</time>
      </trkpt>
      <trkpt lat="49.78997" lon="2.34527">
        <ele>94.2</ele>
        <time>2023-10-11T13:35:49Z</time>
      </trkpt>
      <trkpt lat="49.78998" lon="2.34528">
        <ele>94.1</ele>
        <time>2023-10-11T13:35:51Z</time>
      </trkpt>
      <trkpt lat="49.78999" lon="2.34529">
        <ele>94</ele>
        <time>2023-10-11T13:35:52Z</time>
      </trkpt>
      <trkpt lat="49.79" lon="2.34529">
        <ele>94</ele>
        <time>2023-10-11T13:35:53Z</time>
      </trkpt>
      <trkpt lat="49.79001" lon="2.3453">
        <ele>93.9</ele>
        <time>2023-10-11T13:35:54Z</time>
      </trkpt>
      <trkpt lat="49.79002" lon="2.34531">
        <ele>93.8</ele>
        <time>2023-10-11T13:35:55Z</time>
      </trkpt>
      <trkpt lat="49.79004" lon="2.34531">
        <ele>93.8</ele>
        <time>2023-10-11T13:35:56Z</time>
      </trkpt>
      <trkpt lat="49.79005" lon="2.34532">
        <ele>93.7</ele>
        <time>2023-10-11T13:35:57Z</time>
      </trkpt>
      <trkpt lat="49.79006" lon="2.34532">
        <ele>93.6</ele>
        <time>2023-10-11T13:35:58Z</time>
      </trkpt>
      <trkpt lat="49.79007" lon="2.34533">
        <ele>93.6</ele>
        <time>2023-10-11T13:35:59Z</time>
      </trkpt>
      <trkpt lat="49.79008" lon="2.34533">
        <ele>93.5</ele>
        <time>2023-10-11T13:36:00Z</time>
      </trkpt>
      <trkpt lat="49.79009" lon="2.34533">
        <ele>93.5</ele>
        <time>2023-10-11T13:36:01Z</time>
      </trkpt>
      <trkpt lat="49.7901" lon="2.34534">
        <ele>93.4</ele>
        <time>2023-10-11T13:36:02Z</time>
      </trkpt>
      <trkpt lat="49.79011" lon="2.34534">
        <ele>93.4</ele>
        <time>2023-10-11T13:36:03Z</time>
      </trkpt>
      <trkpt lat="49.79011" lon="2.34534">
        <ele>93.3</ele>
        <time>2023-10-11T13:36:04Z</time>
      </trkpt>
      <trkpt lat="49.79012" lon="2.34534">
        <ele>93.3</ele>
        <time>2023-10-11T13:36:05Z</time>
      </trkpt>
      <trkpt lat="49.79014" lon="2.34535">
        <ele>93.2</ele>
        <time>2023-10-11T13:36:06Z</time>
      </trkpt>
      <trkpt lat="49.79014" lon="2.34535">
        <ele>93.2</ele>
        <time>2023-10-11T13:36:07Z</time>
      </trkpt>
      <trkpt lat="49.79015" lon="2.34536">
        <ele>93.1</ele>
        <time>2023-10-11T13:36:08Z</time>
      </trkpt>
      <trkpt lat="49.79016" lon="2.34536">
        <ele>93.1</ele>
        <time>2023-10-11T13:36:09Z</time>
      </trkpt>
      <trkpt lat="49.79017" lon="2.34536">
        <ele>93.1</ele>
        <time>2023-10-11T13:36:10Z</time>
      </trkpt>
      <trkpt lat="49.79018" lon="2.34537">
        <ele>93</ele>
        <time>2023-10-11T13:36:11Z</time>
      </trkpt>
      <trkpt lat="49.79019" lon="2.34538">
        <ele>93</ele>
        <time>2023-10-11T13:36:12Z</time>
      </trkpt>
      <trkpt lat="49.7902" lon="2.34538">
        <ele>92.9</ele>
        <time>2023-10-11T13:36:13Z</time>
      </trkpt>
      <trkpt lat="49.79021" lon="2.34539">
        <ele>92.9</ele>
        <time>2023-10-11T13:36:14Z</time>
      </trkpt>
      <trkpt lat="49.79023" lon="2.34541">
        <ele>92.8</ele>
        <time>2023-10-11T13:36:15Z</time>
      </trkpt>
      <trkpt lat="49.79024" lon="2.34542">
        <ele>92.7</ele>
        <time>2023-10-11T13:36:17Z</time>
      </trkpt>
      <trkpt lat="49.79024" lon="2.34543">
        <ele>92.7</ele>
        <time>2023-10-11T13:36:18Z</time>
      </trkpt>
      <trkpt lat="49.79025" lon="2.34544">
        <ele>92.6</ele>
        <time>2023-10-11T13:36:19Z</time>
      </trkpt>
      <trkpt lat="49.79026" lon="2.34544">
        <ele>92.6</ele>
        <time>2023-10-11T13:36:20Z</time>
      </trkpt>
      <trkpt lat="49.79027" lon="2.34545">
        <ele>92.5</ele>
        <time>2023-10-11T13:36:21Z</time>
      </trkpt>
      <trkpt lat="49.79028" lon="2.34546">
        <ele>92.5</ele>
        <time>2023-10-11T13:36:22Z</time>
      </trkpt>
      <trkpt lat="49.7903" lon="2.34547">
        <ele>92.4</ele>
        <time>2023-10-11T13:36:23Z</time>
      </trkpt>
      <trkpt lat="49.79032" lon="2.34548">
        <ele>92.3</ele>
        <time>2023-10-11T13:36:25Z</time>
      </trkpt>
      <trkpt lat="49.79034" lon="2.34549">
        <ele>92.2</ele>
        <time>2023-10-11T13:36:27Z</time>
      </trkpt>
      <trkpt lat="49.79035" lon="2.3455">
        <ele>92.1</ele>
        <time>2023-10-11T13:36:29Z</time>
      </trkpt>
      <trkpt lat="49.79035" lon="2.34551">
        <ele>92.1</ele>
        <time>2023-10-11T13:36:30Z</time>
      </trkpt>
      <trkpt lat="49.79036" lon="2.34552">
        <ele>92.1</ele>
        <time>2023-10-11T13:36:31Z</time>
      </trkpt>
      <trkpt lat="49.79037" lon="2.34553">
        <ele>92</ele>
        <time>2023-10-11T13:36:32Z</time>
      </trkpt>
      <trkpt lat="49.79037" lon="2.34553">
        <ele>92</ele>
        <time>2023-10-11T13:36:33Z</time>
      </trkpt>
      <trkpt lat="49.79038" lon="2.34554">
        <ele>91.9</ele>
        <time>2023-10-11T13:36:34Z</time>
      </trkpt>
      <trkpt lat="49.79039" lon="2.34555">
        <ele>91.9</ele>
        <time>2023-10-11T13:36:35Z</time>
      </trkpt>
      <trkpt lat="49.7904" lon="2.34555">
        <ele>91.8</ele>
        <time>2023-10-11T13:36:36Z</time>
      </trkpt>
      <trkpt lat="49.79041" lon="2.34556">
        <ele>91.8</ele>
        <time>2023-10-11T13:36:37Z</time>
      </trkpt>
      <trkpt lat="49.79042" lon="2.34556">
        <ele>91.7</ele>
        <time>2023-10-11T13:36:38Z</time>
      </trkpt>
      <trkpt lat="49.79043" lon="2.34557">
        <ele>91.7</ele>
        <time>2023-10-11T13:36:39Z</time>
      </trkpt>
      <trkpt lat="49.79044" lon="2.34557">
        <ele>91.6</ele>
        <time>2023-10-11T13:36:40Z</time>
      </trkpt>
      <trkpt lat="49.79045" lon="2.34558">
        <ele>91.5</ele>
        <time>2023-10-11T13:36:41Z</time>
      </trkpt>
      <trkpt lat="49.79046" lon="2.34559">
        <ele>91.5</ele>
        <time>2023-10-11T13:36:42Z</time>
      </trkpt>
      <trkpt lat="49.79047" lon="2.34559">
        <ele>91.4</ele>
        <time>2023-10-11T13:36:43Z</time>
      </trkpt>
      <trkpt lat="49.79049" lon="2.34561">
        <ele>91.3</ele>
        <time>2023-10-11T13:36:44Z</time>
      </trkpt>
      <trkpt lat="49.7905" lon="2.34561">
        <ele>91.3</ele>
        <time>2023-10-11T13:36:45Z</time>
      </trkpt>
      <trkpt lat="49.7905" lon="2.34562">
        <ele>91.2</ele>
        <time>2023-10-11T13:36:46Z</time>
      </trkpt>
      <trkpt lat="49.79051" lon="2.34563">
        <ele>91.1</ele>
        <time>2023-10-11T13:36:47Z</time>
      </trkpt>
      <trkpt lat="49.79052" lon="2.34563">
        <ele>91.1</ele>
        <time>2023-10-11T13:36:48Z</time>
      </trkpt>
      <trkpt lat="49.79054" lon="2.34564">
        <ele>91</ele>
        <time>2023-10-11T13:36:49Z</time>
      </trkpt>
      <trkpt lat="49.79055" lon="2.34566">
        <ele>90.9</ele>
        <time>2023-10-11T13:36:50Z</time>
      </trkpt>
      <trkpt lat="49.79056" lon="2.34566">
        <ele>90.9</ele>
        <time>2023-10-11T13:36:51Z</time>
      </trkpt>
      <trkpt lat="49.79057" lon="2.34567">
        <ele>90.8</ele>
        <time>2023-10-11T13:36:52Z</time>
      </trkpt>
      <trkpt lat="49.79059" lon="2.3457">
        <ele>90.7</ele>
        <time>2023-10-11T13:36:53Z</time>
      </trkpt>
      <trkpt lat="49.7906" lon="2.3457">
        <ele>90.6</ele>
        <time>2023-10-11T13:36:54Z</time>
      </trkpt>
      <trkpt lat="49.79061" lon="2.34571">
        <ele>90.5</ele>
        <time>2023-10-11T13:36:56Z</time>
      </trkpt>
      <trkpt lat="49.79062" lon="2.34572">
        <ele>90.5</ele>
        <time>2023-10-11T13:36:57Z</time>
      </trkpt>
      <trkpt lat="49.79063" lon="2.34573">
        <ele>90.4</ele>
        <time>2023-10-11T13:36:58Z</time>
      </trkpt>
      <trkpt lat="49.79064" lon="2.34575">
        <ele>90.3</ele>
        <time>2023-10-11T13:36:59Z</time>
      </trkpt>
      <trkpt lat="49.79065" lon="2.34575">
        <ele>90.3</ele>
        <time>2023-10-11T13:37:00Z</time>
      </trkpt>
      <trkpt lat="49.79066" lon="2.34576">
        <ele>90.2</ele>
        <time>2023-10-11T13:37:01Z</time>
      </trkpt>
      <trkpt lat="49.79068" lon="2.34579">
        <ele>90.1</ele>
        <time>2023-10-11T13:37:02Z</time>
      </trkpt>
      <trkpt lat="49.79069" lon="2.3458">
        <ele>90</ele>
        <time>2023-10-11T13:37:03Z</time>
      </trkpt>
      <trkpt lat="49.7907" lon="2.34581">
        <ele>90</ele>
        <time>2023-10-11T13:37:04Z</time>
      </trkpt>
      <trkpt lat="49.79072" lon="2.34584">
        <ele>89.8</ele>
        <time>2023-10-11T13:37:06Z</time>
      </trkpt>
      <trkpt lat="49.79073" lon="2.34585">
        <ele>89.8</ele>
        <time>2023-10-11T13:37:07Z</time>
      </trkpt>
      <trkpt lat="49.79074" lon="2.34586">
        <ele>89.7</ele>
        <time>2023-10-11T13:37:08Z</time>
      </trkpt>
      <trkpt lat="49.79075" lon="2.34587">
        <ele>89.6</ele>
        <time>2023-10-11T13:37:10Z</time>
      </trkpt>
      <trkpt lat="49.79076" lon="2.34588">
        <ele>89.6</ele>
        <time>2023-10-11T13:37:11Z</time>
      </trkpt>
      <trkpt lat="49.79077" lon="2.34589">
        <ele>89.5</ele>
        <time>2023-10-11T13:37:12Z</time>
      </trkpt>
      <trkpt lat="49.79078" lon="2.3459">
        <ele>89.5</ele>
        <time>2023-10-11T13:37:13Z</time>
      </trkpt>
      <trkpt lat="49.79079" lon="2.34591">
        <ele>89.4</ele>
        <time>2023-10-11T13:37:14Z</time>
      </trkpt>
      <trkpt lat="49.79079" lon="2.34592">
        <ele>89.4</ele>
        <time>2023-10-11T13:37:15Z</time>
      </trkpt>
      <trkpt lat="49.7908" lon="2.34593">
        <ele>89.3</ele>
        <time>2023-10-11T13:37:16Z</time>
      </trkpt>
      <trkpt lat="49.79081" lon="2.34594">
        <ele>89.3</ele>
        <time>2023-10-11T13:37:17Z</time>
      </trkpt>
      <trkpt lat="49.79082" lon="2.34595">
        <ele>89.2</ele>
        <time>2023-10-11T13:37:18Z</time>
      </trkpt>
      <trkpt lat="49.79082" lon="2.34596">
        <ele>89.2</ele>
        <time>2023-10-11T13:37:19Z</time>
      </trkpt>
      <trkpt lat="49.79083" lon="2.34597">
        <ele>89.1</ele>
        <time>2023-10-11T13:37:20Z</time>
      </trkpt>
      <trkpt lat="49.79084" lon="2.34598">
        <ele>89.1</ele>
        <time>2023-10-11T13:37:21Z</time>
      </trkpt>
      <trkpt lat="49.79085" lon="2.34599">
        <ele>89</ele>
        <time>2023-10-11T13:37:22Z</time>
      </trkpt>
      <trkpt lat="49.79086" lon="2.346">
        <ele>89</ele>
        <time>2023-10-11T13:37:23Z</time>
      </trkpt>
      <trkpt lat="49.79086" lon="2.34601">
        <ele>89</ele>
        <time>2023-10-11T13:37:24Z</time>
      </trkpt>
      <trkpt lat="49.79087" lon="2.34602">
        <ele>88.9</ele>
        <time>2023-10-11T13:37:25Z</time>
      </trkpt>
      <trkpt lat="49.79088" lon="2.34603">
        <ele>88.9</ele>
        <time>2023-10-11T13:37:26Z</time>
      </trkpt>
      <trkpt lat="49.79089" lon="2.34604">
        <ele>88.8</ele>
        <time>2023-10-11T13:37:27Z</time>
      </trkpt>
      <trkpt lat="49.7909" lon="2.34605">
        <ele>88.8</ele>
        <time>2023-10-11T13:37:28Z</time>
      </trkpt>
      <trkpt lat="49.79091" lon="2.34605">
        <ele>88.8</ele>
        <time>2023-10-11T13:37:29Z</time>
      </trkpt>
      <trkpt lat="49.79092" lon="2.34606">
        <ele>88.7</ele>
        <time>2023-10-11T13:37:30Z</time>
      </trkpt>
      <trkpt lat="49.79094" lon="2.34607">
        <ele>88.7</ele>
        <time>2023-10-11T13:37:31Z</time>
      </trkpt>
      <trkpt lat="49.79094" lon="2.34606">
        <ele>88.6</ele>
        <time>2023-10-11T13:37:32Z</time>
      </trkpt>
      <trkpt lat="49.79095" lon="2.34607">
        <ele>88.6</ele>
        <time>2023-10-11T13:37:34Z</time>
      </trkpt>
      <trkpt lat="49.79096" lon="2.34608">
        <ele>88.5</ele>
        <time>2023-10-11T13:37:35Z</time>
      </trkpt>
      <trkpt lat="49.79098" lon="2.3461">
        <ele>88.5</ele>
        <time>2023-10-11T13:37:36Z</time>
      </trkpt>
      <trkpt lat="49.79099" lon="2.34611">
        <ele>88.5</ele>
        <time>2023-10-11T13:37:37Z</time>
      </trkpt>
      <trkpt lat="49.791" lon="2.34612">
        <ele>88.4</ele>
        <time>2023-10-11T13:37:38Z</time>
      </trkpt>
      <trkpt lat="49.79101" lon="2.34614">
        <ele>88.4</ele>
        <time>2023-10-11T13:37:39Z</time>
      </trkpt>
      <trkpt lat="49.79103" lon="2.34616">
        <ele>88.3</ele>
        <time>2023-10-11T13:37:40Z</time>
      </trkpt>
      <trkpt lat="49.79105" lon="2.34618">
        <ele>88.2</ele>
        <time>2023-10-11T13:37:42Z</time>
      </trkpt>
      <trkpt lat="49.79105" lon="2.34619">
        <ele>88.2</ele>
        <time>2023-10-11T13:37:44Z</time>
      </trkpt>
      <trkpt lat="49.79106" lon="2.3462">
        <ele>88.2</ele>
        <time>2023-10-11T13:37:45Z</time>
      </trkpt>
      <trkpt lat="49.79107" lon="2.3462">
        <ele>88.2</ele>
        <time>2023-10-11T13:37:46Z</time>
      </trkpt>
      <trkpt lat="49.79107" lon="2.3462">
        <ele>88.1</ele>
        <time>2023-10-11T13:37:47Z</time>
      </trkpt>
      <trkpt lat="49.79108" lon="2.3462">
        <ele>88.1</ele>
        <time>2023-10-11T13:37:49Z</time>
      </trkpt>
      <trkpt lat="49.79109" lon="2.34621">
        <ele>88.1</ele>
        <time>2023-10-11T13:37:50Z</time>
      </trkpt>
      <trkpt lat="49.79111" lon="2.34623">
        <ele>88</ele>
        <time>2023-10-11T13:37:51Z</time>
      </trkpt>
      <trkpt lat="49.79112" lon="2.34624">
        <ele>88</ele>
        <time>2023-10-11T13:37:52Z</time>
      </trkpt>
      <trkpt lat="49.79113" lon="2.34625">
        <ele>87.9</ele>
        <time>2023-10-11T13:37:53Z</time>
      </trkpt>
      <trkpt lat="49.79114" lon="2.34626">
        <ele>87.9</ele>
        <time>2023-10-11T13:37:54Z</time>
      </trkpt>
      <trkpt lat="49.79115" lon="2.34627">
        <ele>87.9</ele>
        <time>2023-10-11T13:37:56Z</time>
      </trkpt>
      <trkpt lat="49.79116" lon="2.34627">
        <ele>87.9</ele>
        <time>2023-10-11T13:37:57Z</time>
      </trkpt>
      <trkpt lat="49.79116" lon="2.34628">
        <ele>87.8</ele>
        <time>2023-10-11T13:37:58Z</time>
      </trkpt>
      <trkpt lat="49.79117" lon="2.34628">
        <ele>87.8</ele>
        <time>2023-10-11T13:37:59Z</time>
      </trkpt>
      <trkpt lat="49.79119" lon="2.34629">
        <ele>87.8</ele>
        <time>2023-10-11T13:38:00Z</time>
      </trkpt>
      <trkpt lat="49.7912" lon="2.34629">
        <ele>87.7</ele>
        <time>2023-10-11T13:38:01Z</time>
      </trkpt>
      <trkpt lat="49.7912" lon="2.3463">
        <ele>87.7</ele>
        <time>2023-10-11T13:38:02Z</time>
      </trkpt>
      <trkpt lat="49.79121" lon="2.34631">
        <ele>87.7</ele>
        <time>2023-10-11T13:38:03Z</time>
      </trkpt>
      <trkpt lat="49.79123" lon="2.34633">
        <ele>87.6</ele>
        <time>2023-10-11T13:38:04Z</time>
      </trkpt>
      <trkpt lat="49.79123" lon="2.34633">
        <ele>87.6</ele>
        <time>2023-10-11T13:38:06Z</time>
      </trkpt>
      <trkpt lat="49.79124" lon="2.34634">
        <ele>87.6</ele>
        <time>2023-10-11T13:38:07Z</time>
      </trkpt>
      <trkpt lat="49.79124" lon="2.34635">
        <ele>87.6</ele>
        <time>2023-10-11T13:38:08Z</time>
      </trkpt>
      <trkpt lat="49.79125" lon="2.34636">
        <ele>87.5</ele>
        <time>2023-10-11T13:38:09Z</time>
      </trkpt>
      <trkpt lat="49.79125" lon="2.34637">
        <ele>87.5</ele>
        <time>2023-10-11T13:38:10Z</time>
      </trkpt>
      <trkpt lat="49.79126" lon="2.34639">
        <ele>87.5</ele>
        <time>2023-10-11T13:38:11Z</time>
      </trkpt>
      <trkpt lat="49.79126" lon="2.3464">
        <ele>87.5</ele>
        <time>2023-10-11T13:38:12Z</time>
      </trkpt>
      <trkpt lat="49.79127" lon="2.34641">
        <ele>87.4</ele>
        <time>2023-10-11T13:38:13Z</time>
      </trkpt>
      <trkpt lat="49.79127" lon="2.34643">
        <ele>87.4</ele>
        <time>2023-10-11T13:38:14Z</time>
      </trkpt>
      <trkpt lat="49.79128" lon="2.34644">
        <ele>87.4</ele>
        <time>2023-10-11T13:38:15Z</time>
      </trkpt>
      <trkpt lat="49.79128" lon="2.34646">
        <ele>87.3</ele>
        <time>2023-10-11T13:38:16Z</time>
      </trkpt>
      <trkpt lat="49.79129" lon="2.34649">
        <ele>87.3</ele>
        <time>2023-10-11T13:38:17Z</time>
      </trkpt>
      <trkpt lat="49.7913" lon="2.3465">
        <ele>87.2</ele>
        <time>2023-10-11T13:38:18Z</time>
      </trkpt>
      <trkpt lat="49.7913" lon="2.34651">
        <ele>87.2</ele>
        <time>2023-10-11T13:38:19Z</time>
      </trkpt>
      <trkpt lat="49.79131" lon="2.34654">
        <ele>87.1</ele>
        <time>2023-10-11T13:38:20Z</time>
      </trkpt>
      <trkpt lat="49.79132" lon="2.34655">
        <ele>87.1</ele>
        <time>2023-10-11T13:38:21Z</time>
      </trkpt>
      <trkpt lat="49.79132" lon="2.34656">
        <ele>87.1</ele>
        <time>2023-10-11T13:38:22Z</time>
      </trkpt>
      <trkpt lat="49.79134" lon="2.34658">
        <ele>87</ele>
        <time>2023-10-11T13:38:23Z</time>
      </trkpt>
      <trkpt lat="49.79134" lon="2.34659">
        <ele>87</ele>
        <time>2023-10-11T13:38:24Z</time>
      </trkpt>
      <trkpt lat="49.79135" lon="2.3466">
        <ele>87</ele>
        <time>2023-10-11T13:38:25Z</time>
      </trkpt>
      <trkpt lat="49.79136" lon="2.34661">
        <ele>86.9</ele>
        <time>2023-10-11T13:38:26Z</time>
      </trkpt>
      <trkpt lat="49.79136" lon="2.34662">
        <ele>86.9</ele>
        <time>2023-10-11T13:38:27Z</time>
      </trkpt>
      <trkpt lat="49.79137" lon="2.34663">
        <ele>86.9</ele>
        <time>2023-10-11T13:38:28Z</time>
      </trkpt>
      <trkpt lat="49.79138" lon="2.34664">
        <ele>86.8</ele>
        <time>2023-10-11T13:38:29Z</time>
      </trkpt>
      <trkpt lat="49.79139" lon="2.34665">
        <ele>86.8</ele>
        <time>2023-10-11T13:38:30Z</time>
      </trkpt>
      <trkpt lat="49.7914" lon="2.34667">
        <ele>86.7</ele>
        <time>2023-10-11T13:38:31Z</time>
      </trkpt>
      <trkpt lat="49.79141" lon="2.34668">
        <ele>86.7</ele>
        <time>2023-10-11T13:38:33Z</time>
      </trkpt>
      <trkpt lat="49.79142" lon="2.34669">
        <ele>86.7</ele>
        <time>2023-10-11T13:38:34Z</time>
      </trkpt>
      <trkpt lat="49.79143" lon="2.34671">
        <ele>86.6</ele>
        <time>2023-10-11T13:38:35Z</time>
      </trkpt>
      <trkpt lat="49.79144" lon="2.34673">
        <ele>86.6</ele>
        <time>2023-10-11T13:38:36Z</time>
      </trkpt>
      <trkpt lat="49.79145" lon="2.34673">
        <ele>86.6</ele>
        <time>2023-10-11T13:38:38Z</time>
      </trkpt>
      <trkpt lat="49.79146" lon="2.34675">
        <ele>86.5</ele>
        <time>2023-10-11T13:38:39Z</time>
      </trkpt>
      <trkpt lat="49.79147" lon="2.34676">
        <ele>86.5</ele>
        <time>2023-10-11T13:38:41Z</time>
      </trkpt>
      <trkpt lat="49.79148" lon="2.34677">
        <ele>86.5</ele>
        <time>2023-10-11T13:38:42Z</time>
      </trkpt>
      <trkpt lat="49.79148" lon="2.34678">
        <ele>86.4</ele>
        <time>2023-10-11T13:38:43Z</time>
      </trkpt>
      <trkpt lat="49.7915" lon="2.3468">
        <ele>86.4</ele>
        <time>2023-10-11T13:38:44Z</time>
      </trkpt>
      <trkpt lat="49.79152" lon="2.34682">
        <ele>86.3</ele>
        <time>2023-10-11T13:38:45Z</time>
      </trkpt>
      <trkpt lat="49.79152" lon="2.34683">
        <ele>86.3</ele>
        <time>2023-10-11T13:38:47Z</time>
      </trkpt>
      <trkpt lat="49.79153" lon="2.34684">
        <ele>86.3</ele>
        <time>2023-10-11T13:38:48Z</time>
      </trkpt>
      <trkpt lat="49.79154" lon="2.34685">
        <ele>86.3</ele>
        <time>2023-10-11T13:38:49Z</time>
      </trkpt>
      <trkpt lat="49.79155" lon="2.34686">
        <ele>86.2</ele>
        <time>2023-10-11T13:38:50Z</time>
      </trkpt>
      <trkpt lat="49.79155" lon="2.34687">
        <ele>86.2</ele>
        <time>2023-10-11T13:38:51Z</time>
      </trkpt>
      <trkpt lat="49.79157" lon="2.3469">
        <ele>86.2</ele>
        <time>2023-10-11T13:38:52Z</time>
      </trkpt>
      <trkpt lat="49.79158" lon="2.34692">
        <ele>86.1</ele>
        <time>2023-10-11T13:38:54Z</time>
      </trkpt>
      <trkpt lat="49.79159" lon="2.34693">
        <ele>86.1</ele>
        <time>2023-10-11T13:38:56Z</time>
      </trkpt>
      <trkpt lat="49.7916" lon="2.34694">
        <ele>86.1</ele>
        <time>2023-10-11T13:38:57Z</time>
      </trkpt>
      <trkpt lat="49.7916" lon="2.34695">
        <ele>86</ele>
        <time>2023-10-11T13:38:58Z</time>
      </trkpt>
      <trkpt lat="49.79161" lon="2.34695">
        <ele>86</ele>
        <time>2023-10-11T13:38:59Z</time>
      </trkpt>
      <trkpt lat="49.79161" lon="2.34696">
        <ele>86</ele>
        <time>2023-10-11T13:39:00Z</time>
      </trkpt>
      <trkpt lat="49.79162" lon="2.34697">
        <ele>86</ele>
        <time>2023-10-11T13:39:01Z</time>
      </trkpt>
      <trkpt lat="49.79163" lon="2.34698">
        <ele>86</ele>
        <time>2023-10-11T13:39:02Z</time>
      </trkpt>
      <trkpt lat="49.79164" lon="2.34699">
        <ele>85.9</ele>
        <time>2023-10-11T13:39:03Z</time>
      </trkpt>
      <trkpt lat="49.79164" lon="2.347">
        <ele>85.9</ele>
        <time>2023-10-11T13:39:04Z</time>
      </trkpt>
      <trkpt lat="49.79165" lon="2.34701">
        <ele>85.9</ele>
        <time>2023-10-11T13:39:05Z</time>
      </trkpt>
      <trkpt lat="49.79165" lon="2.34701">
        <ele>85.9</ele>
        <time>2023-10-11T13:39:06Z</time>
      </trkpt>
      <trkpt lat="49.79166" lon="2.34702">
        <ele>85.9</ele>
        <time>2023-10-11T13:39:07Z</time>
      </trkpt>
      <trkpt lat="49.79167" lon="2.34703">
        <ele>85.8</ele>
        <time>2023-10-11T13:39:08Z</time>
      </trkpt>
      <trkpt lat="49.79167" lon="2.34704">
        <ele>85.8</ele>
        <time>2023-10-11T13:39:09Z</time>
      </trkpt>
      <trkpt lat="49.79168" lon="2.34705">
        <ele>85.8</ele>
        <time>2023-10-11T13:39:10Z</time>
      </trkpt>
      <trkpt lat="49.79169" lon="2.34706">
        <ele>85.8</ele>
        <time>2023-10-11T13:39:11Z</time>
      </trkpt>
      <trkpt lat="49.79169" lon="2.34707">
        <ele>85.7</ele>
        <time>2023-10-11T13:39:13Z</time>
      </trkpt>
      <trkpt lat="49.7917" lon="2.34708">
        <ele>85.7</ele>
        <time>2023-10-11T13:39:14Z</time>
      </trkpt>
      <trkpt lat="49.79171" lon="2.34709">
        <ele>85.7</ele>
        <time>2023-10-11T13:39:15Z</time>
      </trkpt>
      <trkpt lat="49.79171" lon="2.3471">
        <ele>85.7</ele>
        <time>2023-10-11T13:39:16Z</time>
      </trkpt>
      <trkpt lat="49.79172" lon="2.34711">
        <ele>85.6</ele>
        <time>2023-10-11T13:39:18Z</time>
      </trkpt>
      <trkpt lat="49.79172" lon="2.34711">
        <ele>85.6</ele>
        <time>2023-10-11T13:39:19Z</time>
      </trkpt>
      <trkpt lat="49.79173" lon="2.34713">
        <ele>85.6</ele>
        <time>2023-10-11T13:39:20Z</time>
      </trkpt>
      <trkpt lat="49.79174" lon="2.34715">
        <ele>85.6</ele>
        <time>2023-10-11T13:39:21Z</time>
      </trkpt>
      <trkpt lat="49.79175" lon="2.34717">
        <ele>85.5</ele>
        <time>2023-10-11T13:39:23Z</time>
      </trkpt>
      <trkpt lat="49.79175" lon="2.34718">
        <ele>85.5</ele>
        <time>2023-10-11T13:39:24Z</time>
      </trkpt>
      <trkpt lat="49.79176" lon="2.34719">
        <ele>85.5</ele>
        <time>2023-10-11T13:39:25Z</time>
      </trkpt>
      <trkpt lat="49.79176" lon="2.3472">
        <ele>85.4</ele>
        <time>2023-10-11T13:39:26Z</time>
      </trkpt>
      <trkpt lat="49.79177" lon="2.34722">
        <ele>85.4</ele>
        <time>2023-10-11T13:39:27Z</time>
      </trkpt>
      <trkpt lat="49.79179" lon="2.34727">
        <ele>85.3</ele>
        <time>2023-10-11T13:39:28Z</time>
      </trkpt>
      <trkpt lat="49.79181" lon="2.3473">
        <ele>85.2</ele>
        <time>2023-10-11T13:39:30Z</time>
      </trkpt>
      <trkpt lat="49.79181" lon="2.34731">
        <ele>85.2</ele>
        <time>2023-10-11T13:39:31Z</time>
      </trkpt>
      <trkpt lat="49.79182" lon="2.34732">
        <ele>85.2</ele>
        <time>2023-10-11T13:39:32Z</time>
      </trkpt>
      <trkpt lat="49.79182" lon="2.34733">
        <ele>85.2</ele>
        <time>2023-10-11T13:39:33Z</time>
      </trkpt>
      <trkpt lat="49.79184" lon="2.34736">
        <ele>85.1</ele>
        <time>2023-10-11T13:39:34Z</time>
      </trkpt>
      <trkpt lat="49.79185" lon="2.34738">
        <ele>85.1</ele>
        <time>2023-10-11T13:39:36Z</time>
      </trkpt>
      <trkpt lat="49.79186" lon="2.3474">
        <ele>85</ele>
        <time>2023-10-11T13:39:37Z</time>
      </trkpt>
      <trkpt lat="49.79187" lon="2.34741">
        <ele>85</ele>
        <time>2023-10-11T13:39:38Z</time>
      </trkpt>
      <trkpt lat="49.79188" lon="2.34742">
        <ele>85</ele>
        <time>2023-10-11T13:39:39Z</time>
      </trkpt>
      <trkpt lat="49.79189" lon="2.34745">
        <ele>84.9</ele>
        <time>2023-10-11T13:39:40Z</time>
      </trkpt>
      <trkpt lat="49.7919" lon="2.34746">
        <ele>84.9</ele>
        <time>2023-10-11T13:39:41Z</time>
      </trkpt>
      <trkpt lat="49.7919" lon="2.34747">
        <ele>84.8</ele>
        <time>2023-10-11T13:39:42Z</time>
      </trkpt>
      <trkpt lat="49.79191" lon="2.34748">
        <ele>84.8</ele>
        <time>2023-10-11T13:39:43Z</time>
      </trkpt>
      <trkpt lat="49.79192" lon="2.34749">
        <ele>84.8</ele>
        <time>2023-10-11T13:39:44Z</time>
      </trkpt>
      <trkpt lat="49.79192" lon="2.3475">
        <ele>84.8</ele>
        <time>2023-10-11T13:39:45Z</time>
      </trkpt>
      <trkpt lat="49.79193" lon="2.34751">
        <ele>84.7</ele>
        <time>2023-10-11T13:39:46Z</time>
      </trkpt>
      <trkpt lat="49.79194" lon="2.34752">
        <ele>84.7</ele>
        <time>2023-10-11T13:39:47Z</time>
      </trkpt>
      <trkpt lat="49.79195" lon="2.34753">
        <ele>84.7</ele>
        <time>2023-10-11T13:39:48Z</time>
      </trkpt>
      <trkpt lat="49.79195" lon="2.34754">
        <ele>84.6</ele>
        <time>2023-10-11T13:39:49Z</time>
      </trkpt>
      <trkpt lat="49.79196" lon="2.34755">
        <ele>84.6</ele>
        <time>2023-10-11T13:39:50Z</time>
      </trkpt>
      <trkpt lat="49.79197" lon="2.34756">
        <ele>84.6</ele>
        <time>2023-10-11T13:39:51Z</time>
      </trkpt>
      <trkpt lat="49.79198" lon="2.34758">
        <ele>84.5</ele>
        <time>2023-10-11T13:39:52Z</time>
      </trkpt>
      <trkpt lat="49.79199" lon="2.34759">
        <ele>84.5</ele>
        <time>2023-10-11T13:39:53Z</time>
      </trkpt>
      <trkpt lat="49.792" lon="2.34759">
        <ele>84.5</ele>
        <time>2023-10-11T13:39:54Z</time>
      </trkpt>
      <trkpt lat="49.79201" lon="2.34762">
        <ele>84.4</ele>
        <time>2023-10-11T13:39:55Z</time>
      </trkpt>
      <trkpt lat="49.79202" lon="2.34763">
        <ele>84.4</ele>
        <time>2023-10-11T13:39:56Z</time>
      </trkpt>
      <trkpt lat="49.79203" lon="2.34763">
        <ele>84.4</ele>
        <time>2023-10-11T13:39:57Z</time>
      </trkpt>
      <trkpt lat="49.79205" lon="2.34766">
        <ele>84.3</ele>
        <time>2023-10-11T13:39:58Z</time>
      </trkpt>
      <trkpt lat="49.79206" lon="2.34767">
        <ele>84.3</ele>
        <time>2023-10-11T13:39:59Z</time>
      </trkpt>
      <trkpt lat="49.79206" lon="2.34767">
        <ele>84.2</ele>
        <time>2023-10-11T13:40:00Z</time>
      </trkpt>
      <trkpt lat="49.79208" lon="2.3477">
        <ele>84.2</ele>
        <time>2023-10-11T13:40:01Z</time>
      </trkpt>
      <trkpt lat="49.79209" lon="2.34771">
        <ele>84.1</ele>
        <time>2023-10-11T13:40:02Z</time>
      </trkpt>
      <trkpt lat="49.79211" lon="2.34774">
        <ele>84.1</ele>
        <time>2023-10-11T13:40:04Z</time>
      </trkpt>
      <trkpt lat="49.79212" lon="2.34774">
        <ele>84.1</ele>
        <time>2023-10-11T13:40:05Z</time>
      </trkpt>
      <trkpt lat="49.79213" lon="2.34775">
        <ele>84</ele>
        <time>2023-10-11T13:40:06Z</time>
      </trkpt>
      <trkpt lat="49.79214" lon="2.34777">
        <ele>84</ele>
        <time>2023-10-11T13:40:07Z</time>
      </trkpt>
      <trkpt lat="49.79215" lon="2.34778">
        <ele>84</ele>
        <time>2023-10-11T13:40:08Z</time>
      </trkpt>
      <trkpt lat="49.79216" lon="2.3478">
        <ele>83.9</ele>
        <time>2023-10-11T13:40:09Z</time>
      </trkpt>
      <trkpt lat="49.79217" lon="2.34781">
        <ele>83.9</ele>
        <time>2023-10-11T13:40:10Z</time>
      </trkpt>
      <trkpt lat="49.79218" lon="2.34782">
        <ele>83.9</ele>
        <time>2023-10-11T13:40:11Z</time>
      </trkpt>
      <trkpt lat="49.79219" lon="2.34784">
        <ele>83.8</ele>
        <time>2023-10-11T13:40:12Z</time>
      </trkpt>
      <trkpt lat="49.7922" lon="2.34785">
        <ele>83.8</ele>
        <time>2023-10-11T13:40:13Z</time>
      </trkpt>
      <trkpt lat="49.79221" lon="2.34786">
        <ele>83.8</ele>
        <time>2023-10-11T13:40:14Z</time>
      </trkpt>
      <trkpt lat="49.79223" lon="2.34787">
        <ele>83.7</ele>
        <time>2023-10-11T13:40:15Z</time>
      </trkpt>
      <trkpt lat="49.79225" lon="2.3479">
        <ele>83.7</ele>
        <time>2023-10-11T13:40:16Z</time>
      </trkpt>
      <trkpt lat="49.79226" lon="2.34791">
        <ele>83.7</ele>
        <time>2023-10-11T13:40:18Z</time>
      </trkpt>
      <trkpt lat="49.79226" lon="2.34792">
        <ele>83.6</ele>
        <time>2023-10-11T13:40:19Z</time>
      </trkpt>
      <trkpt lat="49.79228" lon="2.34794">
        <ele>83.6</ele>
        <time>2023-10-11T13:40:20Z</time>
      </trkpt>
      <trkpt lat="49.79229" lon="2.34794">
        <ele>83.6</ele>
        <time>2023-10-11T13:40:21Z</time>
      </trkpt>
      <trkpt lat="49.79229" lon="2.34795">
        <ele>83.5</ele>
        <time>2023-10-11T13:40:22Z</time>
      </trkpt>
      <trkpt lat="49.79231" lon="2.34797">
        <ele>83.5</ele>
        <time>2023-10-11T13:40:23Z</time>
      </trkpt>
      <trkpt lat="49.79232" lon="2.34798">
        <ele>83.5</ele>
        <time>2023-10-11T13:40:24Z</time>
      </trkpt>
      <trkpt lat="49.79232" lon="2.34798">
        <ele>83.5</ele>
        <time>2023-10-11T13:40:25Z</time>
      </trkpt>
      <trkpt lat="49.79234" lon="2.348">
        <ele>83.4</ele>
        <time>2023-10-11T13:40:26Z</time>
      </trkpt>
      <trkpt lat="49.79235" lon="2.34801">
        <ele>83.4</ele>
        <time>2023-10-11T13:40:27Z</time>
      </trkpt>
      <trkpt lat="49.79235" lon="2.34802">
        <ele>83.4</ele>
        <time>2023-10-11T13:40:28Z</time>
      </trkpt>
      <trkpt lat="49.79237" lon="2.34804">
        <ele>83.3</ele>
        <time>2023-10-11T13:40:29Z</time>
      </trkpt>
      <trkpt lat="49.79238" lon="2.34804">
        <ele>83.3</ele>
        <time>2023-10-11T13:40:30Z</time>
      </trkpt>
      <trkpt lat="49.79238" lon="2.34805">
        <ele>83.3</ele>
        <time>2023-10-11T13:40:31Z</time>
      </trkpt>
      <trkpt lat="49.7924" lon="2.34807">
        <ele>83.3</ele>
        <time>2023-10-11T13:40:32Z</time>
      </trkpt>
      <trkpt lat="49.79241" lon="2.34808">
        <ele>83.2</ele>
        <time>2023-10-11T13:40:33Z</time>
      </trkpt>
      <trkpt lat="49.79241" lon="2.34809">
        <ele>83.2</ele>
        <time>2023-10-11T13:40:34Z</time>
      </trkpt>
      <trkpt lat="49.79243" lon="2.34811">
        <ele>83.2</ele>
        <time>2023-10-11T13:40:35Z</time>
      </trkpt>
      <trkpt lat="49.79244" lon="2.34812">
        <ele>83.2</ele>
        <time>2023-10-11T13:40:36Z</time>
      </trkpt>
      <trkpt lat="49.79244" lon="2.34813">
        <ele>83.1</ele>
        <time>2023-10-11T13:40:38Z</time>
      </trkpt>
      <trkpt lat="49.79245" lon="2.34815">
        <ele>83.1</ele>
        <time>2023-10-11T13:40:39Z</time>
      </trkpt>
      <trkpt lat="49.79246" lon="2.34816">
        <ele>83.1</ele>
        <time>2023-10-11T13:40:40Z</time>
      </trkpt>
      <trkpt lat="49.79246" lon="2.34817">
        <ele>83.1</ele>
        <time>2023-10-11T13:40:41Z</time>
      </trkpt>
      <trkpt lat="49.79247" lon="2.34819">
        <ele>83.1</ele>
        <time>2023-10-11T13:40:42Z</time>
      </trkpt>
      <trkpt lat="49.79247" lon="2.3482">
        <ele>83</ele>
        <time>2023-10-11T13:40:43Z</time>
      </trkpt>
      <trkpt lat="49.79248" lon="2.34821">
        <ele>83</ele>
        <time>2023-10-11T13:40:44Z</time>
      </trkpt>
      <trkpt lat="49.79249" lon="2.34822">
        <ele>83</ele>
        <time>2023-10-11T13:40:45Z</time>
      </trkpt>
      <trkpt lat="49.7925" lon="2.34823">
        <ele>83</ele>
        <time>2023-10-11T13:40:46Z</time>
      </trkpt>
      <trkpt lat="49.7925" lon="2.34825">
        <ele>83</ele>
        <time>2023-10-11T13:40:47Z</time>
      </trkpt>
      <trkpt lat="49.79251" lon="2.34826">
        <ele>82.9</ele>
        <time>2023-10-11T13:40:48Z</time>
      </trkpt>
      <trkpt lat="49.79252" lon="2.34827">
        <ele>82.9</ele>
        <time>2023-10-11T13:40:49Z</time>
      </trkpt>
      <trkpt lat="49.79252" lon="2.34829">
        <ele>82.9</ele>
        <time>2023-10-11T13:40:50Z</time>
      </trkpt>
      <trkpt lat="49.79253" lon="2.3483">
        <ele>82.9</ele>
        <time>2023-10-11T13:40:52Z</time>
      </trkpt>
      <trkpt lat="49.79253" lon="2.34831">
        <ele>82.9</ele>
        <time>2023-10-11T13:40:53Z</time>
      </trkpt>
      <trkpt lat="49.79253" lon="2.34832">
        <ele>82.9</ele>
        <time>2023-10-11T13:40:54Z</time>
      </trkpt>
      <trkpt lat="49.79254" lon="2.34833">
        <ele>82.9</ele>
        <time>2023-10-11T13:40:55Z</time>
      </trkpt>
      <trkpt lat="49.79254" lon="2.34834">
        <ele>82.8</ele>
        <time>2023-10-11T13:40:56Z</time>
      </trkpt>
      <trkpt lat="49.79255" lon="2.34834">
        <ele>82.8</ele>
        <time>2023-10-11T13:40:57Z</time>
      </trkpt>
      <trkpt lat="49.79256" lon="2.34835">
        <ele>82.8</ele>
        <time>2023-10-11T13:40:58Z</time>
      </trkpt>
      <trkpt lat="49.79256" lon="2.34836">
        <ele>82.8</ele>
        <time>2023-10-11T13:40:59Z</time>
      </trkpt>
      <trkpt lat="49.79257" lon="2.34837">
        <ele>82.8</ele>
        <time>2023-10-11T13:41:00Z</time>
      </trkpt>
      <trkpt lat="49.79258" lon="2.34838">
        <ele>82.8</ele>
        <time>2023-10-11T13:41:01Z</time>
      </trkpt>
      <trkpt lat="49.79259" lon="2.34839">
        <ele>82.7</ele>
        <time>2023-10-11T13:41:02Z</time>
      </trkpt>
      <trkpt lat="49.7926" lon="2.3484">
        <ele>82.7</ele>
        <time>2023-10-11T13:41:03Z</time>
      </trkpt>
      <trkpt lat="49.79261" lon="2.34841">
        <ele>82.7</ele>
        <time>2023-10-11T13:41:04Z</time>
      </trkpt>
      <trkpt lat="49.79262" lon="2.34842">
        <ele>82.7</ele>
        <time>2023-10-11T13:41:05Z</time>
      </trkpt>
      <trkpt lat="49.79262" lon="2.34842">
        <ele>82.7</ele>
        <time>2023-10-11T13:41:06Z</time>
      </trkpt>
      <trkpt lat="49.79263" lon="2.34843">
        <ele>82.7</ele>
        <time>2023-10-11T13:41:07Z</time>
      </trkpt>
      <trkpt lat="49.79264" lon="2.34843">
        <ele>82.6</ele>
        <time>2023-10-11T13:41:08Z</time>
      </trkpt>
      <trkpt lat="49.79265" lon="2.34844">
        <ele>82.6</ele>
        <time>2023-10-11T13:41:09Z</time>
      </trkpt>
      <trkpt lat="49.79266" lon="2.34844">
        <ele>82.6</ele>
        <time>2023-10-11T13:41:10Z</time>
      </trkpt>
      <trkpt lat="49.79268" lon="2.34845">
        <ele>82.6</ele>
        <time>2023-10-11T13:41:11Z</time>
      </trkpt>
      <trkpt lat="49.79269" lon="2.34845">
        <ele>82.6</ele>
        <time>2023-10-11T13:41:12Z</time>
      </trkpt>
      <trkpt lat="49.7927" lon="2.34846">
        <ele>82.6</ele>
        <time>2023-10-11T13:41:13Z</time>
      </trkpt>
      <trkpt lat="49.79271" lon="2.34846">
        <ele>82.5</ele>
        <time>2023-10-11T13:41:14Z</time>
      </trkpt>
      <trkpt lat="49.79272" lon="2.34846">
        <ele>82.5</ele>
        <time>2023-10-11T13:41:15Z</time>
      </trkpt>
      <trkpt lat="49.79273" lon="2.34847">
        <ele>82.5</ele>
        <time>2023-10-11T13:41:16Z</time>
      </trkpt>
      <trkpt lat="49.79274" lon="2.34847">
        <ele>82.5</ele>
        <time>2023-10-11T13:41:17Z</time>
      </trkpt>
      <trkpt lat="49.79275" lon="2.34848">
        <ele>82.5</ele>
        <time>2023-10-11T13:41:18Z</time>
      </trkpt>
      <trkpt lat="49.79276" lon="2.34849">
        <ele>82.5</ele>
        <time>2023-10-11T13:41:19Z</time>
      </trkpt>
      <trkpt lat="49.79278" lon="2.3485">
        <ele>82.4</ele>
        <time>2023-10-11T13:41:20Z</time>
      </trkpt>
      <trkpt lat="49.79279" lon="2.34852">
        <ele>82.4</ele>
        <time>2023-10-11T13:41:22Z</time>
      </trkpt>
      <trkpt lat="49.7928" lon="2.34853">
        <ele>82.4</ele>
        <time>2023-10-11T13:41:23Z</time>
      </trkpt>
      <trkpt lat="49.79281" lon="2.34854">
        <ele>82.4</ele>
        <time>2023-10-11T13:41:24Z</time>
      </trkpt>
      <trkpt lat="49.79283" lon="2.34857">
        <ele>82.3</ele>
        <time>2023-10-11T13:41:25Z</time>
      </trkpt>
      <trkpt lat="49.79284" lon="2.34858">
        <ele>82.3</ele>
        <time>2023-10-11T13:41:27Z</time>
      </trkpt>
      <trkpt lat="49.79285" lon="2.34859">
        <ele>82.3</ele>
        <time>2023-10-11T13:41:28Z</time>
      </trkpt>
      <trkpt lat="49.79286" lon="2.34859">
        <ele>82.3</ele>
        <time>2023-10-11T13:41:29Z</time>
      </trkpt>
      <trkpt lat="49.79287" lon="2.3486">
        <ele>82.3</ele>
        <time>2023-10-11T13:41:30Z</time>
      </trkpt>
      <trkpt lat="49.79288" lon="2.34861">
        <ele>82.2</ele>
        <time>2023-10-11T13:41:31Z</time>
      </trkpt>
      <trkpt lat="49.79289" lon="2.34862">
        <ele>82.2</ele>
        <time>2023-10-11T13:41:32Z</time>
      </trkpt>
      <trkpt lat="49.7929" lon="2.34863">
        <ele>82.2</ele>
        <time>2023-10-11T13:41:33Z</time>
      </trkpt>
      <trkpt lat="49.7929" lon="2.34864">
        <ele>82.2</ele>
        <time>2023-10-11T13:41:34Z</time>
      </trkpt>
      <trkpt lat="49.79291" lon="2.34865">
        <ele>82.2</ele>
        <time>2023-10-11T13:41:35Z</time>
      </trkpt>
      <trkpt lat="49.79292" lon="2.34866">
        <ele>82.2</ele>
        <time>2023-10-11T13:41:36Z</time>
      </trkpt>
      <trkpt lat="49.79295" lon="2.34868">
        <ele>82.1</ele>
        <time>2023-10-11T13:41:37Z</time>
      </trkpt>
      <trkpt lat="49.79295" lon="2.34869">
        <ele>82.1</ele>
        <time>2023-10-11T13:41:39Z</time>
      </trkpt>
      <trkpt lat="49.79296" lon="2.3487">
        <ele>82.1</ele>
        <time>2023-10-11T13:41:40Z</time>
      </trkpt>
      <trkpt lat="49.79297" lon="2.34871">
        <ele>82.1</ele>
        <time>2023-10-11T13:41:41Z</time>
      </trkpt>
      <trkpt lat="49.79298" lon="2.34872">
        <ele>82.1</ele>
        <time>2023-10-11T13:41:42Z</time>
      </trkpt>
      <trkpt lat="49.79299" lon="2.34873">
        <ele>82.1</ele>
        <time>2023-10-11T13:41:43Z</time>
      </trkpt>
      <trkpt lat="49.793" lon="2.34874">
        <ele>82.1</ele>
        <time>2023-10-11T13:41:44Z</time>
      </trkpt>
      <trkpt lat="49.79301" lon="2.34875">
        <ele>82.1</ele>
        <time>2023-10-11T13:41:45Z</time>
      </trkpt>
      <trkpt lat="49.79302" lon="2.34876">
        <ele>82</ele>
        <time>2023-10-11T13:41:46Z</time>
      </trkpt>
      <trkpt lat="49.79303" lon="2.34877">
        <ele>82</ele>
        <time>2023-10-11T13:41:47Z</time>
      </trkpt>
      <trkpt lat="49.79304" lon="2.34877">
        <ele>82</ele>
        <time>2023-10-11T13:41:48Z</time>
      </trkpt>
      <trkpt lat="49.79305" lon="2.34878">
        <ele>82</ele>
        <time>2023-10-11T13:41:49Z</time>
      </trkpt>
      <trkpt lat="49.79306" lon="2.34879">
        <ele>82</ele>
        <time>2023-10-11T13:41:50Z</time>
      </trkpt>
      <trkpt lat="49.79306" lon="2.3488">
        <ele>82</ele>
        <time>2023-10-11T13:41:51Z</time>
      </trkpt>
      <trkpt lat="49.79307" lon="2.3488">
        <ele>82</ele>
        <time>2023-10-11T13:41:52Z</time>
      </trkpt>
      <trkpt lat="49.79309" lon="2.34882">
        <ele>82</ele>
        <time>2023-10-11T13:41:53Z</time>
      </trkpt>
      <trkpt lat="49.7931" lon="2.34882">
        <ele>82</ele>
        <time>2023-10-11T13:41:55Z</time>
      </trkpt>
      <trkpt lat="49.7931" lon="2.34883">
        <ele>81.9</ele>
        <time>2023-10-11T13:41:56Z</time>
      </trkpt>
      <trkpt lat="49.79311" lon="2.34884">
        <ele>81.9</ele>
        <time>2023-10-11T13:41:57Z</time>
      </trkpt>
      <trkpt lat="49.79312" lon="2.34885">
        <ele>81.9</ele>
        <time>2023-10-11T13:41:58Z</time>
      </trkpt>
      <trkpt lat="49.79314" lon="2.34886">
        <ele>81.9</ele>
        <time>2023-10-11T13:41:59Z</time>
      </trkpt>
      <trkpt lat="49.79315" lon="2.34887">
        <ele>81.9</ele>
        <time>2023-10-11T13:42:01Z</time>
      </trkpt>
      <trkpt lat="49.79316" lon="2.34888">
        <ele>81.9</ele>
        <time>2023-10-11T13:42:02Z</time>
      </trkpt>
      <trkpt lat="49.79317" lon="2.34888">
        <ele>81.9</ele>
        <time>2023-10-11T13:42:03Z</time>
      </trkpt>
      <trkpt lat="49.79318" lon="2.34889">
        <ele>81.8</ele>
        <time>2023-10-11T13:42:04Z</time>
      </trkpt>
      <trkpt lat="49.7932" lon="2.34891">
        <ele>81.8</ele>
        <time>2023-10-11T13:42:05Z</time>
      </trkpt>
      <trkpt lat="49.79321" lon="2.34891">
        <ele>81.8</ele>
        <time>2023-10-11T13:42:06Z</time>
      </trkpt>
      <trkpt lat="49.79321" lon="2.34892">
        <ele>81.8</ele>
        <time>2023-10-11T13:42:07Z</time>
      </trkpt>
      <trkpt lat="49.79323" lon="2.34893">
        <ele>81.8</ele>
        <time>2023-10-11T13:42:08Z</time>
      </trkpt>
      <trkpt lat="49.79324" lon="2.34893">
        <ele>81.8</ele>
        <time>2023-10-11T13:42:09Z</time>
      </trkpt>
      <trkpt lat="49.79325" lon="2.34894">
        <ele>81.8</ele>
        <time>2023-10-11T13:42:10Z</time>
      </trkpt>
      <trkpt lat="49.79326" lon="2.34895">
        <ele>81.8</ele>
        <time>2023-10-11T13:42:11Z</time>
      </trkpt>
      <trkpt lat="49.79327" lon="2.34895">
        <ele>81.7</ele>
        <time>2023-10-11T13:42:12Z</time>
      </trkpt>
      <trkpt lat="49.79328" lon="2.34896">
        <ele>81.7</ele>
        <time>2023-10-11T13:42:13Z</time>
      </trkpt>
      <trkpt lat="49.79329" lon="2.34897">
        <ele>81.7</ele>
        <time>2023-10-11T13:42:14Z</time>
      </trkpt>
      <trkpt lat="49.7933" lon="2.34898">
        <ele>81.7</ele>
        <time>2023-10-11T13:42:15Z</time>
      </trkpt>
      <trkpt lat="49.79332" lon="2.349">
        <ele>81.7</ele>
        <time>2023-10-11T13:42:16Z</time>
      </trkpt>
      <trkpt lat="49.79332" lon="2.34901">
        <ele>81.7</ele>
        <time>2023-10-11T13:42:18Z</time>
      </trkpt>
      <trkpt lat="49.79333" lon="2.34902">
        <ele>81.7</ele>
        <time>2023-10-11T13:42:19Z</time>
      </trkpt>
      <trkpt lat="49.79334" lon="2.34903">
        <ele>81.6</ele>
        <time>2023-10-11T13:42:20Z</time>
      </trkpt>
      <trkpt lat="49.79335" lon="2.34904">
        <ele>81.6</ele>
        <time>2023-10-11T13:42:21Z</time>
      </trkpt>
      <trkpt lat="49.79335" lon="2.34904">
        <ele>81.6</ele>
        <time>2023-10-11T13:42:22Z</time>
      </trkpt>
      <trkpt lat="49.79336" lon="2.34905">
        <ele>81.6</ele>
        <time>2023-10-11T13:42:23Z</time>
      </trkpt>
      <trkpt lat="49.79337" lon="2.34907">
        <ele>81.6</ele>
        <time>2023-10-11T13:42:24Z</time>
      </trkpt>
      <trkpt lat="49.79337" lon="2.34908">
        <ele>81.6</ele>
        <time>2023-10-11T13:42:25Z</time>
      </trkpt>
      <trkpt lat="49.79338" lon="2.34909">
        <ele>81.6</ele>
        <time>2023-10-11T13:42:26Z</time>
      </trkpt>
      <trkpt lat="49.79338" lon="2.34909">
        <ele>81.6</ele>
        <time>2023-10-11T13:42:27Z</time>
      </trkpt>
      <trkpt lat="49.79338" lon="2.34909">
        <ele>81.6</ele>
        <time>2023-10-11T13:42:29Z</time>
      </trkpt>
      <trkpt lat="49.79338" lon="2.34909">
        <ele>81.6</ele>
        <time>2023-10-11T13:42:30Z</time>
      </trkpt>
      <trkpt lat="49.79339" lon="2.34909">
        <ele>81.6</ele>
        <time>2023-10-11T13:42:31Z</time>
      </trkpt>
      <trkpt lat="49.79339" lon="2.34909">
        <ele>81.6</ele>
        <time>2023-10-11T13:42:32Z</time>
      </trkpt>
      <trkpt lat="49.7934" lon="2.34909">
        <ele>81.6</ele>
        <time>2023-10-11T13:42:33Z</time>
      </trkpt>
      <trkpt lat="49.7934" lon="2.34908">
        <ele>81.6</ele>
        <time>2023-10-11T13:42:34Z</time>
      </trkpt>
      <trkpt lat="49.79341" lon="2.34908">
        <ele>81.5</ele>
        <time>2023-10-11T13:42:35Z</time>
      </trkpt>
      <trkpt lat="49.79341" lon="2.34908">
        <ele>81.5</ele>
        <time>2023-10-11T13:42:36Z</time>
      </trkpt>
      <trkpt lat="49.79341" lon="2.34909">
        <ele>81.5</ele>
        <time>2023-10-11T13:42:37Z</time>
      </trkpt>
      <trkpt lat="49.79341" lon="2.3491">
        <ele>81.5</ele>
        <time>2023-10-11T13:42:38Z</time>
      </trkpt>
      <trkpt lat="49.7934" lon="2.34911">
        <ele>81.5</ele>
        <time>2023-10-11T13:42:39Z</time>
      </trkpt>
      <trkpt lat="49.79341" lon="2.34912">
        <ele>81.5</ele>
        <time>2023-10-11T13:42:40Z</time>
      </trkpt>
      <trkpt lat="49.79341" lon="2.34913">
        <ele>81.5</ele>
        <time>2023-10-11T13:42:41Z</time>
      </trkpt>
      <trkpt lat="49.79341" lon="2.34914">
        <ele>81.5</ele>
        <time>2023-10-11T13:42:42Z</time>
      </trkpt>
      <trkpt lat="49.79341" lon="2.34915">
        <ele>81.5</ele>
        <time>2023-10-11T13:42:43Z</time>
      </trkpt>
      <trkpt lat="49.79342" lon="2.34915">
        <ele>81.5</ele>
        <time>2023-10-11T13:42:44Z</time>
      </trkpt>
      <trkpt lat="49.79342" lon="2.34916">
        <ele>81.5</ele>
        <time>2023-10-11T13:42:45Z</time>
      </trkpt>
      <trkpt lat="49.79343" lon="2.34916">
        <ele>81.5</ele>
        <time>2023-10-11T13:42:46Z</time>
      </trkpt>
      <trkpt lat="49.79343" lon="2.34916">
        <ele>81.5</ele>
        <time>2023-10-11T13:42:47Z</time>
      </trkpt>
      <trkpt lat="49.79343" lon="2.34913">
        <ele>81.5</ele>
        <time>2023-10-11T13:42:48Z</time>
      </trkpt>
      <trkpt lat="49.79343" lon="2.34914">
        <ele>81.5</ele>
        <time>2023-10-11T13:42:50Z</time>
      </trkpt>
      <trkpt lat="49.79343" lon="2.34913">
        <ele>81.5</ele>
        <time>2023-10-11T13:42:51Z</time>
      </trkpt>
      <trkpt lat="49.79343" lon="2.34913">
        <ele>81.5</ele>
        <time>2023-10-11T13:42:52Z</time>
      </trkpt>
      <trkpt lat="49.79343" lon="2.34913">
        <ele>81.5</ele>
        <time>2023-10-11T13:42:53Z</time>
      </trkpt>
      <trkpt lat="49.79343" lon="2.34913">
        <ele>81.5</ele>
        <time>2023-10-11T13:42:55Z</time>
      </trkpt>
      <trkpt lat="49.79343" lon="2.34914">
        <ele>81.5</ele>
        <time>2023-10-11T13:42:57Z</time>
      </trkpt>
      <trkpt lat="49.79344" lon="2.34915">
        <ele>81.5</ele>
        <time>2023-10-11T13:42:58Z</time>
      </trkpt>
      <trkpt lat="49.79344" lon="2.34916">
        <ele>81.5</ele>
        <time>2023-10-11T13:42:59Z</time>
      </trkpt>
      <trkpt lat="49.79345" lon="2.34916">
        <ele>81.5</ele>
        <time>2023-10-11T13:43:00Z</time>
      </trkpt>
      <trkpt lat="49.79345" lon="2.34915">
        <ele>81.5</ele>
        <time>2023-10-11T13:43:01Z</time>
      </trkpt>
      <trkpt lat="49.79345" lon="2.34915">
        <ele>81.5</ele>
        <time>2023-10-11T13:43:02Z</time>
      </trkpt>
      <trkpt lat="49.79346" lon="2.34916">
        <ele>81.5</ele>
        <time>2023-10-11T13:43:03Z</time>
      </trkpt>
      <trkpt lat="49.79346" lon="2.34916">
        <ele>81.5</ele>
        <time>2023-10-11T13:43:04Z</time>
      </trkpt>
      <trkpt lat="49.79347" lon="2.34915">
        <ele>81.4</ele>
        <time>2023-10-11T13:43:05Z</time>
      </trkpt>
      <trkpt lat="49.79347" lon="2.34915">
        <ele>81.4</ele>
        <time>2023-10-11T13:43:06Z</time>
      </trkpt>
      <trkpt lat="49.79347" lon="2.34916">
        <ele>81.4</ele>
        <time>2023-10-11T13:43:07Z</time>
      </trkpt>
      <trkpt lat="49.79347" lon="2.34916">
        <ele>81.4</ele>
        <time>2023-10-11T13:43:09Z</time>
      </trkpt>
      <trkpt lat="49.79347" lon="2.34916">
        <ele>81.4</ele>
        <time>2023-10-11T13:43:10Z</time>
      </trkpt>
      <trkpt lat="49.79347" lon="2.34916">
        <ele>81.4</ele>
        <time>2023-10-11T13:43:12Z</time>
      </trkpt>
      <trkpt lat="49.79347" lon="2.34916">
        <ele>81.4</ele>
        <time>2023-10-11T13:43:13Z</time>
      </trkpt>
      <trkpt lat="49.79347" lon="2.34916">
        <ele>81.4</ele>
        <time>2023-10-11T13:43:14Z</time>
      </trkpt>
      <trkpt lat="49.79347" lon="2.34916">
        <ele>81.4</ele>
        <time>2023-10-11T13:43:15Z</time>
      </trkpt>
      <trkpt lat="49.79347" lon="2.34916">
        <ele>81.4</ele>
        <time>2023-10-11T13:43:16Z</time>
      </trkpt>
      <trkpt lat="49.79347" lon="2.34916">
        <ele>81.4</ele>
        <time>2023-10-11T13:43:18Z</time>
      </trkpt>
      <trkpt lat="49.79347" lon="2.34916">
        <ele>81.4</ele>
        <time>2023-10-11T13:43:20Z</time>
      </trkpt>
      <trkpt lat="49.79347" lon="2.34916">
        <ele>81.4</ele>
        <time>2023-10-11T13:43:21Z</time>
      </trkpt>
      <trkpt lat="49.79347" lon="2.34916">
        <ele>81.4</ele>
        <time>2023-10-11T13:43:22Z</time>
      </trkpt>
      <trkpt lat="49.79346" lon="2.34921">
        <ele>81.4</ele>
        <time>2023-10-11T13:49:03Z</time>
      </trkpt>
      <trkpt lat="49.79346" lon="2.34922">
        <ele>81.4</ele>
        <time>2023-10-11T13:49:05Z</time>
      </trkpt>
      <trkpt lat="49.79346" lon="2.34923">
        <ele>81.4</ele>
        <time>2023-10-11T13:49:06Z</time>
      </trkpt>
      <trkpt lat="49.79346" lon="2.34923">
        <ele>81.4</ele>
        <time>2023-10-11T13:49:07Z</time>
      </trkpt>
      <trkpt lat="49.79346" lon="2.34923">
        <ele>81.4</ele>
        <time>2023-10-11T13:49:08Z</time>
      </trkpt>
      <trkpt lat="49.79346" lon="2.34924">
        <ele>81.4</ele>
        <time>2023-10-11T13:49:09Z</time>
      </trkpt>
      <trkpt lat="49.79346" lon="2.34925">
        <ele>81.4</ele>
        <time>2023-10-11T13:49:10Z</time>
      </trkpt>
      <trkpt lat="49.79346" lon="2.34926">
        <ele>81.4</ele>
        <time>2023-10-11T13:49:11Z</time>
      </trkpt>
      <trkpt lat="49.79346" lon="2.34927">
        <ele>81.4</ele>
        <time>2023-10-11T13:49:12Z</time>
      </trkpt>
      <trkpt lat="49.79346" lon="2.34928">
        <ele>81.4</ele>
        <time>2023-10-11T13:49:13Z</time>
      </trkpt>
      <trkpt lat="49.79346" lon="2.3493">
        <ele>81.4</ele>
        <time>2023-10-11T13:49:14Z</time>
      </trkpt>
      <trkpt lat="49.79346" lon="2.34932">
        <ele>81.4</ele>
        <time>2023-10-11T13:49:15Z</time>
      </trkpt>
      <trkpt lat="49.79346" lon="2.34933">
        <ele>81.4</ele>
        <time>2023-10-11T13:49:17Z</time>
      </trkpt>
      <trkpt lat="49.79346" lon="2.34934">
        <ele>81.4</ele>
        <time>2023-10-11T13:49:18Z</time>
      </trkpt>
      <trkpt lat="49.79346" lon="2.34935">
        <ele>81.4</ele>
        <time>2023-10-11T13:49:19Z</time>
      </trkpt>
      <trkpt lat="49.79346" lon="2.34936">
        <ele>81.4</ele>
        <time>2023-10-11T13:49:20Z</time>
      </trkpt>
      <trkpt lat="49.79347" lon="2.34937">
        <ele>81.4</ele>
        <time>2023-10-11T13:49:21Z</time>
      </trkpt>
      <trkpt lat="49.79347" lon="2.34938">
        <ele>81.4</ele>
        <time>2023-10-11T13:49:23Z</time>
      </trkpt>
      <trkpt lat="49.79347" lon="2.34939">
        <ele>81.4</ele>
        <time>2023-10-11T13:49:24Z</time>
      </trkpt>
      <trkpt lat="49.79347" lon="2.3494">
        <ele>81.4</ele>
        <time>2023-10-11T13:49:25Z</time>
      </trkpt>
      <trkpt lat="49.79347" lon="2.34942">
        <ele>81.7</ele>
        <time>2023-10-11T13:49:26Z</time>
      </trkpt>
      <trkpt lat="49.79347" lon="2.34943">
        <ele>81.8</ele>
        <time>2023-10-11T13:49:27Z</time>
      </trkpt>
      <trkpt lat="49.79348" lon="2.34944">
        <ele>81.9</ele>
        <time>2023-10-11T13:49:28Z</time>
      </trkpt>
      <trkpt lat="49.79348" lon="2.34946">
        <ele>81.9</ele>
        <time>2023-10-11T13:49:29Z</time>
      </trkpt>
      <trkpt lat="49.79348" lon="2.34947">
        <ele>82</ele>
        <time>2023-10-11T13:49:30Z</time>
      </trkpt>
      <trkpt lat="49.79348" lon="2.34948">
        <ele>82</ele>
        <time>2023-10-11T13:49:31Z</time>
      </trkpt>
      <trkpt lat="49.79348" lon="2.34949">
        <ele>82.1</ele>
        <time>2023-10-11T13:49:32Z</time>
      </trkpt>
      <trkpt lat="49.79348" lon="2.3495">
        <ele>82.1</ele>
        <time>2023-10-11T13:49:33Z</time>
      </trkpt>
      <trkpt lat="49.79348" lon="2.34951">
        <ele>82.2</ele>
        <time>2023-10-11T13:49:34Z</time>
      </trkpt>
      <trkpt lat="49.79348" lon="2.34952">
        <ele>82.2</ele>
        <time>2023-10-11T13:49:35Z</time>
      </trkpt>
      <trkpt lat="49.79349" lon="2.34951">
        <ele>82.2</ele>
        <time>2023-10-11T13:49:36Z</time>
      </trkpt>
      <trkpt lat="49.79348" lon="2.34952">
        <ele>82.3</ele>
        <time>2023-10-11T13:49:37Z</time>
      </trkpt>
      <trkpt lat="49.79348" lon="2.34954">
        <ele>82.4</ele>
        <time>2023-10-11T13:49:38Z</time>
      </trkpt>
      <trkpt lat="49.79348" lon="2.34955">
        <ele>82.4</ele>
        <time>2023-10-11T13:49:39Z</time>
      </trkpt>
      <trkpt lat="49.79348" lon="2.34956">
        <ele>82.5</ele>
        <time>2023-10-11T13:49:40Z</time>
      </trkpt>
      <trkpt lat="49.79347" lon="2.34957">
        <ele>82.5</ele>
        <time>2023-10-11T13:49:41Z</time>
      </trkpt>
      <trkpt lat="49.79347" lon="2.34957">
        <ele>82.6</ele>
        <time>2023-10-11T13:49:42Z</time>
      </trkpt>
      <trkpt lat="49.79347" lon="2.34958">
        <ele>82.6</ele>
        <time>2023-10-11T13:49:43Z</time>
      </trkpt>
      <trkpt lat="49.79347" lon="2.3496">
        <ele>82.7</ele>
        <time>2023-10-11T13:49:44Z</time>
      </trkpt>
      <trkpt lat="49.79346" lon="2.34961">
        <ele>82.8</ele>
        <time>2023-10-11T13:49:45Z</time>
      </trkpt>
      <trkpt lat="49.79346" lon="2.34962">
        <ele>82.8</ele>
        <time>2023-10-11T13:49:46Z</time>
      </trkpt>
      <trkpt lat="49.79345" lon="2.34964">
        <ele>82.9</ele>
        <time>2023-10-11T13:49:47Z</time>
      </trkpt>
      <trkpt lat="49.79345" lon="2.34963">
        <ele>83</ele>
        <time>2023-10-11T13:49:49Z</time>
      </trkpt>
      <trkpt lat="49.79344" lon="2.34963">
        <ele>83</ele>
        <time>2023-10-11T13:49:50Z</time>
      </trkpt>
      <trkpt lat="49.79344" lon="2.34964">
        <ele>83.1</ele>
        <time>2023-10-11T13:49:51Z</time>
      </trkpt>
      <trkpt lat="49.79343" lon="2.34965">
        <ele>83.1</ele>
        <time>2023-10-11T13:49:52Z</time>
      </trkpt>
      <trkpt lat="49.79343" lon="2.34966">
        <ele>83.2</ele>
        <time>2023-10-11T13:49:53Z</time>
      </trkpt>
      <trkpt lat="49.79342" lon="2.34967">
        <ele>83.3</ele>
        <time>2023-10-11T13:49:54Z</time>
      </trkpt>
      <trkpt lat="49.79341" lon="2.34968">
        <ele>83.4</ele>
        <time>2023-10-11T13:49:56Z</time>
      </trkpt>
      <trkpt lat="49.7934" lon="2.34969">
        <ele>83.5</ele>
        <time>2023-10-11T13:49:57Z</time>
      </trkpt>
      <trkpt lat="49.7934" lon="2.3497">
        <ele>83.6</ele>
        <time>2023-10-11T13:49:58Z</time>
      </trkpt>
      <trkpt lat="49.79339" lon="2.34972">
        <ele>83.6</ele>
        <time>2023-10-11T13:49:59Z</time>
      </trkpt>
      <trkpt lat="49.79339" lon="2.34973">
        <ele>83.7</ele>
        <time>2023-10-11T13:50:00Z</time>
      </trkpt>
      <trkpt lat="49.79338" lon="2.34974">
        <ele>83.8</ele>
        <time>2023-10-11T13:50:01Z</time>
      </trkpt>
      <trkpt lat="49.79337" lon="2.34977">
        <ele>84</ele>
        <time>2023-10-11T13:50:02Z</time>
      </trkpt>
      <trkpt lat="49.79336" lon="2.34978">
        <ele>84.1</ele>
        <time>2023-10-11T13:50:03Z</time>
      </trkpt>
      <trkpt lat="49.79336" lon="2.34979">
        <ele>84.2</ele>
        <time>2023-10-11T13:50:04Z</time>
      </trkpt>
      <trkpt lat="49.79335" lon="2.34981">
        <ele>84.3</ele>
        <time>2023-10-11T13:50:05Z</time>
      </trkpt>
      <trkpt lat="49.79334" lon="2.34983">
        <ele>84.5</ele>
        <time>2023-10-11T13:50:06Z</time>
      </trkpt>
      <trkpt lat="49.79333" lon="2.34986">
        <ele>84.6</ele>
        <time>2023-10-11T13:50:07Z</time>
      </trkpt>
      <trkpt lat="49.79333" lon="2.34986">
        <ele>84.7</ele>
        <time>2023-10-11T13:50:08Z</time>
      </trkpt>
      <trkpt lat="49.79332" lon="2.34989">
        <ele>84.8</ele>
        <time>2023-10-11T13:50:10Z</time>
      </trkpt>
      <trkpt lat="49.79332" lon="2.3499">
        <ele>84.9</ele>
        <time>2023-10-11T13:50:11Z</time>
      </trkpt>
      <trkpt lat="49.79332" lon="2.34992">
        <ele>85</ele>
        <time>2023-10-11T13:50:13Z</time>
      </trkpt>
      <trkpt lat="49.79331" lon="2.34995">
        <ele>85.2</ele>
        <time>2023-10-11T13:50:15Z</time>
      </trkpt>
      <trkpt lat="49.79332" lon="2.34997">
        <ele>85.3</ele>
        <time>2023-10-11T13:50:16Z</time>
      </trkpt>
      <trkpt lat="49.79332" lon="2.34999">
        <ele>85.4</ele>
        <time>2023-10-11T13:50:17Z</time>
      </trkpt>
      <trkpt lat="49.79333" lon="2.35002">
        <ele>85.6</ele>
        <time>2023-10-11T13:50:19Z</time>
      </trkpt>
      <trkpt lat="49.79333" lon="2.35004">
        <ele>85.7</ele>
        <time>2023-10-11T13:50:20Z</time>
      </trkpt>
      <trkpt lat="49.79332" lon="2.35006">
        <ele>85.8</ele>
        <time>2023-10-11T13:50:21Z</time>
      </trkpt>
      <trkpt lat="49.79332" lon="2.35007">
        <ele>85.9</ele>
        <time>2023-10-11T13:50:22Z</time>
      </trkpt>
      <trkpt lat="49.79332" lon="2.35009">
        <ele>85.9</ele>
        <time>2023-10-11T13:50:23Z</time>
      </trkpt>
      <trkpt lat="49.79332" lon="2.3501">
        <ele>86</ele>
        <time>2023-10-11T13:50:24Z</time>
      </trkpt>
      <trkpt lat="49.79331" lon="2.35012">
        <ele>86.1</ele>
        <time>2023-10-11T13:50:25Z</time>
      </trkpt>
      <trkpt lat="49.79331" lon="2.35013">
        <ele>86.2</ele>
        <time>2023-10-11T13:50:26Z</time>
      </trkpt>
      <trkpt lat="49.7933" lon="2.35013">
        <ele>86.3</ele>
        <time>2023-10-11T13:50:27Z</time>
      </trkpt>
      <trkpt lat="49.79329" lon="2.35016">
        <ele>86.5</ele>
        <time>2023-10-11T13:50:28Z</time>
      </trkpt>
      <trkpt lat="49.79328" lon="2.35017">
        <ele>86.6</ele>
        <time>2023-10-11T13:50:30Z</time>
      </trkpt>
      <trkpt lat="49.79327" lon="2.35018">
        <ele>86.6</ele>
        <time>2023-10-11T13:50:31Z</time>
      </trkpt>
      <trkpt lat="49.79327" lon="2.35019">
        <ele>86.7</ele>
        <time>2023-10-11T13:50:32Z</time>
      </trkpt>
      <trkpt lat="49.79325" lon="2.35021">
        <ele>86.9</ele>
        <time>2023-10-11T13:50:33Z</time>
      </trkpt>
      <trkpt lat="49.79324" lon="2.35022">
        <ele>87</ele>
        <time>2023-10-11T13:50:34Z</time>
      </trkpt>
      <trkpt lat="49.79324" lon="2.35022">
        <ele>87</ele>
        <time>2023-10-11T13:50:35Z</time>
      </trkpt>
      <trkpt lat="49.79322" lon="2.35024">
        <ele>87.2</ele>
        <time>2023-10-11T13:50:36Z</time>
      </trkpt>
      <trkpt lat="49.79321" lon="2.35025">
        <ele>87.3</ele>
        <time>2023-10-11T13:50:37Z</time>
      </trkpt>
      <trkpt lat="49.7932" lon="2.35026">
        <ele>87.4</ele>
        <time>2023-10-11T13:50:38Z</time>
      </trkpt>
      <trkpt lat="49.7932" lon="2.35027">
        <ele>87.5</ele>
        <time>2023-10-11T13:50:39Z</time>
      </trkpt>
      <trkpt lat="49.79319" lon="2.35028">
        <ele>87.5</ele>
        <time>2023-10-11T13:50:40Z</time>
      </trkpt>
      <trkpt lat="49.79317" lon="2.3503">
        <ele>87.7</ele>
        <time>2023-10-11T13:50:41Z</time>
      </trkpt>
      <trkpt lat="49.79316" lon="2.35031">
        <ele>87.8</ele>
        <time>2023-10-11T13:50:43Z</time>
      </trkpt>
      <trkpt lat="49.79315" lon="2.35032">
        <ele>87.9</ele>
        <time>2023-10-11T13:50:44Z</time>
      </trkpt>
      <trkpt lat="49.79315" lon="2.35033">
        <ele>88</ele>
        <time>2023-10-11T13:50:45Z</time>
      </trkpt>
      <trkpt lat="49.79314" lon="2.35034">
        <ele>88</ele>
        <time>2023-10-11T13:50:46Z</time>
      </trkpt>
      <trkpt lat="49.79314" lon="2.35034">
        <ele>88.1</ele>
        <time>2023-10-11T13:50:47Z</time>
      </trkpt>
      <trkpt lat="49.79313" lon="2.35034">
        <ele>88.1</ele>
        <time>2023-10-11T13:50:48Z</time>
      </trkpt>
      <trkpt lat="49.79313" lon="2.35035">
        <ele>88.1</ele>
        <time>2023-10-11T13:50:49Z</time>
      </trkpt>
      <trkpt lat="49.79313" lon="2.35035">
        <ele>88.2</ele>
        <time>2023-10-11T13:50:50Z</time>
      </trkpt>
      <trkpt lat="49.79312" lon="2.35036">
        <ele>88.2</ele>
        <time>2023-10-11T13:50:51Z</time>
      </trkpt>
      <trkpt lat="49.79312" lon="2.35038">
        <ele>88.3</ele>
        <time>2023-10-11T13:50:52Z</time>
      </trkpt>
      <trkpt lat="49.79312" lon="2.35039">
        <ele>88.3</ele>
        <time>2023-10-11T13:50:53Z</time>
      </trkpt>
      <trkpt lat="49.79311" lon="2.35042">
        <ele>88.5</ele>
        <time>2023-10-11T13:50:54Z</time>
      </trkpt>
      <trkpt lat="49.79311" lon="2.35043">
        <ele>88.6</ele>
        <time>2023-10-11T13:50:55Z</time>
      </trkpt>
      <trkpt lat="49.79311" lon="2.35045">
        <ele>88.6</ele>
        <time>2023-10-11T13:50:56Z</time>
      </trkpt>
      <trkpt lat="49.79311" lon="2.3505">
        <ele>88.9</ele>
        <time>2023-10-11T13:50:57Z</time>
      </trkpt>
      <trkpt lat="49.79311" lon="2.35052">
        <ele>89</ele>
        <time>2023-10-11T13:50:59Z</time>
      </trkpt>
      <trkpt lat="49.79311" lon="2.35056">
        <ele>89.1</ele>
        <time>2023-10-11T13:51:00Z</time>
      </trkpt>
      <trkpt lat="49.79311" lon="2.35058">
        <ele>89.2</ele>
        <time>2023-10-11T13:51:01Z</time>
      </trkpt>
      <trkpt lat="49.79311" lon="2.35059">
        <ele>89.3</ele>
        <time>2023-10-11T13:51:03Z</time>
      </trkpt>
      <trkpt lat="49.79311" lon="2.35062">
        <ele>89.4</ele>
        <time>2023-10-11T13:51:04Z</time>
      </trkpt>
      <trkpt lat="49.79311" lon="2.35063">
        <ele>89.4</ele>
        <time>2023-10-11T13:51:06Z</time>
      </trkpt>
      <trkpt lat="49.7931" lon="2.35065">
        <ele>89.5</ele>
        <time>2023-10-11T13:51:07Z</time>
      </trkpt>
      <trkpt lat="49.7931" lon="2.35066">
        <ele>89.6</ele>
        <time>2023-10-11T13:51:08Z</time>
      </trkpt>
      <trkpt lat="49.7931" lon="2.35068">
        <ele>89.6</ele>
        <time>2023-10-11T13:51:09Z</time>
      </trkpt>
      <trkpt lat="49.7931" lon="2.3507">
        <ele>89.7</ele>
        <time>2023-10-11T13:51:10Z</time>
      </trkpt>
      <trkpt lat="49.79309" lon="2.35071">
        <ele>89.8</ele>
        <time>2023-10-11T13:51:11Z</time>
      </trkpt>
      <trkpt lat="49.79309" lon="2.35073">
        <ele>89.8</ele>
        <time>2023-10-11T13:51:12Z</time>
      </trkpt>
      <trkpt lat="49.79309" lon="2.35074">
        <ele>89.9</ele>
        <time>2023-10-11T13:51:13Z</time>
      </trkpt>
      <trkpt lat="49.79308" lon="2.35077">
        <ele>90</ele>
        <time>2023-10-11T13:51:14Z</time>
      </trkpt>
      <trkpt lat="49.79307" lon="2.35079">
        <ele>90.1</ele>
        <time>2023-10-11T13:51:16Z</time>
      </trkpt>
      <trkpt lat="49.79307" lon="2.3508">
        <ele>90.1</ele>
        <time>2023-10-11T13:51:18Z</time>
      </trkpt>
      <trkpt lat="49.79306" lon="2.35081">
        <ele>90.2</ele>
        <time>2023-10-11T13:51:19Z</time>
      </trkpt>
      <trkpt lat="49.79306" lon="2.35082">
        <ele>90.2</ele>
        <time>2023-10-11T13:51:20Z</time>
      </trkpt>
      <trkpt lat="49.79305" lon="2.35083">
        <ele>90.3</ele>
        <time>2023-10-11T13:51:21Z</time>
      </trkpt>
      <trkpt lat="49.79304" lon="2.35085">
        <ele>90.4</ele>
        <time>2023-10-11T13:51:22Z</time>
      </trkpt>
      <trkpt lat="49.79304" lon="2.35087">
        <ele>90.4</ele>
        <time>2023-10-11T13:51:24Z</time>
      </trkpt>
      <trkpt lat="49.79303" lon="2.35088">
        <ele>90.5</ele>
        <time>2023-10-11T13:51:25Z</time>
      </trkpt>
      <trkpt lat="49.79302" lon="2.35089">
        <ele>90.5</ele>
        <time>2023-10-11T13:51:26Z</time>
      </trkpt>
      <trkpt lat="49.79302" lon="2.35089">
        <ele>90.6</ele>
        <time>2023-10-11T13:51:27Z</time>
      </trkpt>
      <trkpt lat="49.79301" lon="2.35091">
        <ele>90.6</ele>
        <time>2023-10-11T13:51:28Z</time>
      </trkpt>
      <trkpt lat="49.793" lon="2.35092">
        <ele>90.7</ele>
        <time>2023-10-11T13:51:29Z</time>
      </trkpt>
      <trkpt lat="49.79298" lon="2.35094">
        <ele>90.8</ele>
        <time>2023-10-11T13:51:30Z</time>
      </trkpt>
      <trkpt lat="49.79298" lon="2.35095">
        <ele>90.9</ele>
        <time>2023-10-11T13:51:31Z</time>
      </trkpt>
      <trkpt lat="49.79297" lon="2.35096">
        <ele>90.9</ele>
        <time>2023-10-11T13:51:32Z</time>
      </trkpt>
      <trkpt lat="49.79296" lon="2.35097">
        <ele>91</ele>
        <time>2023-10-11T13:51:33Z</time>
      </trkpt>
      <trkpt lat="49.79295" lon="2.35098">
        <ele>91</ele>
        <time>2023-10-11T13:51:34Z</time>
      </trkpt>
      <trkpt lat="49.79295" lon="2.35099">
        <ele>91.1</ele>
        <time>2023-10-11T13:51:35Z</time>
      </trkpt>
      <trkpt lat="49.79294" lon="2.351">
        <ele>91.1</ele>
        <time>2023-10-11T13:51:36Z</time>
      </trkpt>
      <trkpt lat="49.79293" lon="2.35101">
        <ele>91.2</ele>
        <time>2023-10-11T13:51:37Z</time>
      </trkpt>
      <trkpt lat="49.79292" lon="2.35103">
        <ele>91.3</ele>
        <time>2023-10-11T13:51:38Z</time>
      </trkpt>
      <trkpt lat="49.79291" lon="2.35104">
        <ele>91.3</ele>
        <time>2023-10-11T13:51:40Z</time>
      </trkpt>
      <trkpt lat="49.7929" lon="2.35105">
        <ele>91.4</ele>
        <time>2023-10-11T13:51:41Z</time>
      </trkpt>
      <trkpt lat="49.7929" lon="2.35106">
        <ele>91.4</ele>
        <time>2023-10-11T13:51:42Z</time>
      </trkpt>
      <trkpt lat="49.79289" lon="2.35109">
        <ele>91.5</ele>
        <time>2023-10-11T13:51:43Z</time>
      </trkpt>
      <trkpt lat="49.79288" lon="2.3511">
        <ele>91.6</ele>
        <time>2023-10-11T13:51:45Z</time>
      </trkpt>
      <trkpt lat="49.79287" lon="2.35113">
        <ele>91.6</ele>
        <time>2023-10-11T13:51:46Z</time>
      </trkpt>
      <trkpt lat="49.79287" lon="2.35114">
        <ele>91.7</ele>
        <time>2023-10-11T13:51:48Z</time>
      </trkpt>
      <trkpt lat="49.79287" lon="2.35116">
        <ele>91.7</ele>
        <time>2023-10-11T13:51:49Z</time>
      </trkpt>
      <trkpt lat="49.79286" lon="2.35117">
        <ele>91.8</ele>
        <time>2023-10-11T13:51:50Z</time>
      </trkpt>
      <trkpt lat="49.79286" lon="2.35119">
        <ele>91.8</ele>
        <time>2023-10-11T13:51:51Z</time>
      </trkpt>
      <trkpt lat="49.79286" lon="2.3512">
        <ele>91.8</ele>
        <time>2023-10-11T13:51:52Z</time>
      </trkpt>
      <trkpt lat="49.79286" lon="2.35123">
        <ele>91.9</ele>
        <time>2023-10-11T13:51:53Z</time>
      </trkpt>
      <trkpt lat="49.79286" lon="2.35125">
        <ele>92</ele>
        <time>2023-10-11T13:51:55Z</time>
      </trkpt>
      <trkpt lat="49.79286" lon="2.35127">
        <ele>92</ele>
        <time>2023-10-11T13:51:56Z</time>
      </trkpt>
      <trkpt lat="49.79286" lon="2.35129">
        <ele>92.1</ele>
        <time>2023-10-11T13:51:57Z</time>
      </trkpt>
      <trkpt lat="49.79286" lon="2.3513">
        <ele>92.1</ele>
        <time>2023-10-11T13:51:58Z</time>
      </trkpt>
      <trkpt lat="49.79287" lon="2.35134">
        <ele>92.2</ele>
        <time>2023-10-11T13:51:59Z</time>
      </trkpt>
      <trkpt lat="49.79286" lon="2.35135">
        <ele>92.2</ele>
        <time>2023-10-11T13:52:01Z</time>
      </trkpt>
      <trkpt lat="49.79286" lon="2.35137">
        <ele>92.3</ele>
        <time>2023-10-11T13:52:02Z</time>
      </trkpt>
      <trkpt lat="49.79286" lon="2.35138">
        <ele>92.3</ele>
        <time>2023-10-11T13:52:03Z</time>
      </trkpt>
      <trkpt lat="49.79286" lon="2.3514">
        <ele>92.3</ele>
        <time>2023-10-11T13:52:04Z</time>
      </trkpt>
      <trkpt lat="49.79286" lon="2.35141">
        <ele>92.4</ele>
        <time>2023-10-11T13:52:05Z</time>
      </trkpt>
      <trkpt lat="49.79285" lon="2.35143">
        <ele>92.4</ele>
        <time>2023-10-11T13:52:06Z</time>
      </trkpt>
      <trkpt lat="49.79285" lon="2.35144">
        <ele>92.4</ele>
        <time>2023-10-11T13:52:07Z</time>
      </trkpt>
      <trkpt lat="49.79285" lon="2.35146">
        <ele>92.5</ele>
        <time>2023-10-11T13:52:08Z</time>
      </trkpt>
      <trkpt lat="49.79285" lon="2.35148">
        <ele>92.5</ele>
        <time>2023-10-11T13:52:09Z</time>
      </trkpt>
      <trkpt lat="49.79284" lon="2.35149">
        <ele>92.5</ele>
        <time>2023-10-11T13:52:10Z</time>
      </trkpt>
      <trkpt lat="49.79284" lon="2.35151">
        <ele>92.6</ele>
        <time>2023-10-11T13:52:11Z</time>
      </trkpt>
      <trkpt lat="49.79283" lon="2.35154">
        <ele>92.6</ele>
        <time>2023-10-11T13:52:12Z</time>
      </trkpt>
      <trkpt lat="49.79283" lon="2.35156">
        <ele>92.7</ele>
        <time>2023-10-11T13:52:14Z</time>
      </trkpt>
      <trkpt lat="49.79283" lon="2.35158">
        <ele>92.7</ele>
        <time>2023-10-11T13:52:15Z</time>
      </trkpt>
      <trkpt lat="49.79283" lon="2.35159">
        <ele>92.7</ele>
        <time>2023-10-11T13:52:16Z</time>
      </trkpt>
      <trkpt lat="49.79282" lon="2.35161">
        <ele>92.7</ele>
        <time>2023-10-11T13:52:17Z</time>
      </trkpt>
      <trkpt lat="49.79282" lon="2.35163">
        <ele>92.8</ele>
        <time>2023-10-11T13:52:18Z</time>
      </trkpt>
      <trkpt lat="49.79282" lon="2.35164">
        <ele>92.8</ele>
        <time>2023-10-11T13:52:19Z</time>
      </trkpt>
      <trkpt lat="49.79282" lon="2.35166">
        <ele>92.8</ele>
        <time>2023-10-11T13:52:20Z</time>
      </trkpt>
      <trkpt lat="49.79281" lon="2.35167">
        <ele>92.8</ele>
        <time>2023-10-11T13:52:21Z</time>
      </trkpt>
      <trkpt lat="49.79281" lon="2.35169">
        <ele>92.8</ele>
        <time>2023-10-11T13:52:22Z</time>
      </trkpt>
      <trkpt lat="49.79281" lon="2.3517">
        <ele>92.9</ele>
        <time>2023-10-11T13:52:23Z</time>
      </trkpt>
      <trkpt lat="49.79281" lon="2.35172">
        <ele>92.9</ele>
        <time>2023-10-11T13:52:24Z</time>
      </trkpt>
      <trkpt lat="49.7928" lon="2.35174">
        <ele>92.9</ele>
        <time>2023-10-11T13:52:25Z</time>
      </trkpt>
      <trkpt lat="49.79279" lon="2.35176">
        <ele>92.9</ele>
        <time>2023-10-11T13:52:27Z</time>
      </trkpt>
      <trkpt lat="49.79279" lon="2.35177">
        <ele>93</ele>
        <time>2023-10-11T13:52:28Z</time>
      </trkpt>
      <trkpt lat="49.79279" lon="2.35179">
        <ele>93</ele>
        <time>2023-10-11T13:52:29Z</time>
      </trkpt>
      <trkpt lat="49.79278" lon="2.3518">
        <ele>93</ele>
        <time>2023-10-11T13:52:30Z</time>
      </trkpt>
      <trkpt lat="49.79278" lon="2.35182">
        <ele>93</ele>
        <time>2023-10-11T13:52:31Z</time>
      </trkpt>
      <trkpt lat="49.79277" lon="2.35184">
        <ele>93</ele>
        <time>2023-10-11T13:52:32Z</time>
      </trkpt>
      <trkpt lat="49.79277" lon="2.35186">
        <ele>93</ele>
        <time>2023-10-11T13:52:34Z</time>
      </trkpt>
      <trkpt lat="49.79275" lon="2.35188">
        <ele>93.1</ele>
        <time>2023-10-11T13:52:35Z</time>
      </trkpt>
      <trkpt lat="49.79274" lon="2.35189">
        <ele>93.1</ele>
        <time>2023-10-11T13:52:36Z</time>
      </trkpt>
      <trkpt lat="49.79273" lon="2.3519">
        <ele>93.1</ele>
        <time>2023-10-11T13:52:38Z</time>
      </trkpt>
      <trkpt lat="49.79272" lon="2.35191">
        <ele>93.1</ele>
        <time>2023-10-11T13:52:40Z</time>
      </trkpt>
      <trkpt lat="49.79271" lon="2.35193">
        <ele>93.1</ele>
        <time>2023-10-11T13:52:41Z</time>
      </trkpt>
      <trkpt lat="49.7927" lon="2.35194">
        <ele>93.1</ele>
        <time>2023-10-11T13:52:42Z</time>
      </trkpt>
      <trkpt lat="49.7927" lon="2.35195">
        <ele>93.1</ele>
        <time>2023-10-11T13:52:43Z</time>
      </trkpt>
      <trkpt lat="49.79269" lon="2.35196">
        <ele>93.1</ele>
        <time>2023-10-11T13:52:44Z</time>
      </trkpt>
      <trkpt lat="49.79269" lon="2.35197">
        <ele>93.1</ele>
        <time>2023-10-11T13:52:45Z</time>
      </trkpt>
      <trkpt lat="49.79267" lon="2.35199">
        <ele>93.1</ele>
        <time>2023-10-11T13:52:46Z</time>
      </trkpt>
      <trkpt lat="49.79267" lon="2.352">
        <ele>93.1</ele>
        <time>2023-10-11T13:52:48Z</time>
      </trkpt>
      <trkpt lat="49.79266" lon="2.35201">
        <ele>93.1</ele>
        <time>2023-10-11T13:52:49Z</time>
      </trkpt>
      <trkpt lat="49.79266" lon="2.35201">
        <ele>93.1</ele>
        <time>2023-10-11T13:52:50Z</time>
      </trkpt>
      <trkpt lat="49.79265" lon="2.35202">
        <ele>93.1</ele>
        <time>2023-10-11T13:52:51Z</time>
      </trkpt>
      <trkpt lat="49.79264" lon="2.35203">
        <ele>93.1</ele>
        <time>2023-10-11T13:52:52Z</time>
      </trkpt>
      <trkpt lat="49.79264" lon="2.35204">
        <ele>93.1</ele>
        <time>2023-10-11T13:52:53Z</time>
      </trkpt>
      <trkpt lat="49.79263" lon="2.35205">
        <ele>93.1</ele>
        <time>2023-10-11T13:52:54Z</time>
      </trkpt>
      <trkpt lat="49.79263" lon="2.35206">
        <ele>93.1</ele>
        <time>2023-10-11T13:52:55Z</time>
      </trkpt>
      <trkpt lat="49.79262" lon="2.35207">
        <ele>93.1</ele>
        <time>2023-10-11T13:52:56Z</time>
      </trkpt>
      <trkpt lat="49.79262" lon="2.35208">
        <ele>93.1</ele>
        <time>2023-10-11T13:52:57Z</time>
      </trkpt>
      <trkpt lat="49.79261" lon="2.35209">
        <ele>93.1</ele>
        <time>2023-10-11T13:52:58Z</time>
      </trkpt>
      <trkpt lat="49.79261" lon="2.3521">
        <ele>93.1</ele>
        <time>2023-10-11T13:52:59Z</time>
      </trkpt>
      <trkpt lat="49.79261" lon="2.35211">
        <ele>93.1</ele>
        <time>2023-10-11T13:53:00Z</time>
      </trkpt>
      <trkpt lat="49.7926" lon="2.35213">
        <ele>93.1</ele>
        <time>2023-10-11T13:53:01Z</time>
      </trkpt>
      <trkpt lat="49.7926" lon="2.35214">
        <ele>93.1</ele>
        <time>2023-10-11T13:53:02Z</time>
      </trkpt>
      <trkpt lat="49.79259" lon="2.35215">
        <ele>93.1</ele>
        <time>2023-10-11T13:53:03Z</time>
      </trkpt>
      <trkpt lat="49.79259" lon="2.35216">
        <ele>93.1</ele>
        <time>2023-10-11T13:53:04Z</time>
      </trkpt>
      <trkpt lat="49.79259" lon="2.35217">
        <ele>93.1</ele>
        <time>2023-10-11T13:53:05Z</time>
      </trkpt>
      <trkpt lat="49.79259" lon="2.35218">
        <ele>93.1</ele>
        <time>2023-10-11T13:53:06Z</time>
      </trkpt>
      <trkpt lat="49.79259" lon="2.35218">
        <ele>93.1</ele>
        <time>2023-10-11T13:53:07Z</time>
      </trkpt>
      <trkpt lat="49.79259" lon="2.35219">
        <ele>93.1</ele>
        <time>2023-10-11T13:53:08Z</time>
      </trkpt>
      <trkpt lat="49.79259" lon="2.3522">
        <ele>93.1</ele>
        <time>2023-10-11T13:53:09Z</time>
      </trkpt>
      <trkpt lat="49.79259" lon="2.35221">
        <ele>93.1</ele>
        <time>2023-10-11T13:53:10Z</time>
      </trkpt>
      <trkpt lat="49.79259" lon="2.35221">
        <ele>93.1</ele>
        <time>2023-10-11T13:53:11Z</time>
      </trkpt>
      <trkpt lat="49.79258" lon="2.35221">
        <ele>93.1</ele>
        <time>2023-10-11T13:53:12Z</time>
      </trkpt>
      <trkpt lat="49.79258" lon="2.35221">
        <ele>93.1</ele>
        <time>2023-10-11T13:53:13Z</time>
      </trkpt>
      <trkpt lat="49.79258" lon="2.35221">
        <ele>93.1</ele>
        <time>2023-10-11T13:53:14Z</time>
      </trkpt>
      <trkpt lat="49.79258" lon="2.35221">
        <ele>93.1</ele>
        <time>2023-10-11T13:53:15Z</time>
      </trkpt>
      <trkpt lat="49.79258" lon="2.35221">
        <ele>93.1</ele>
        <time>2023-10-11T13:53:16Z</time>
      </trkpt>
      <trkpt lat="49.79258" lon="2.35221">
        <ele>93.1</ele>
        <time>2023-10-11T13:53:17Z</time>
      </trkpt>
      <trkpt lat="49.79258" lon="2.35221">
        <ele>93.1</ele>
        <time>2023-10-11T13:53:19Z</time>
      </trkpt>
      <trkpt lat="49.79258" lon="2.35221">
        <ele>93.1</ele>
        <time>2023-10-11T13:53:20Z</time>
      </trkpt>
      <trkpt lat="49.79258" lon="2.35221">
        <ele>93.1</ele>
        <time>2023-10-11T13:53:21Z</time>
      </trkpt>
      <trkpt lat="49.79258" lon="2.35221">
        <ele>93.1</ele>
        <time>2023-10-11T13:53:22Z</time>
      </trkpt>
      <trkpt lat="49.79258" lon="2.35225">
        <ele>93.1</ele>
        <time>2023-10-11T13:53:27Z</time>
      </trkpt>
      <trkpt lat="49.79258" lon="2.35226">
        <ele>93.1</ele>
        <time>2023-10-11T13:53:28Z</time>
      </trkpt>
      <trkpt lat="49.79258" lon="2.35227">
        <ele>93.1</ele>
        <time>2023-10-11T13:53:29Z</time>
      </trkpt>
      <trkpt lat="49.79258" lon="2.35229">
        <ele>93</ele>
        <time>2023-10-11T13:53:30Z</time>
      </trkpt>
      <trkpt lat="49.79258" lon="2.35231">
        <ele>93</ele>
        <time>2023-10-11T13:53:32Z</time>
      </trkpt>
      <trkpt lat="49.79259" lon="2.35232">
        <ele>93</ele>
        <time>2023-10-11T13:53:33Z</time>
      </trkpt>
      <trkpt lat="49.79259" lon="2.35234">
        <ele>93</ele>
        <time>2023-10-11T13:53:34Z</time>
      </trkpt>
      <trkpt lat="49.7926" lon="2.35235">
        <ele>92.9</ele>
        <time>2023-10-11T13:53:35Z</time>
      </trkpt>
      <trkpt lat="49.7926" lon="2.35237">
        <ele>92.9</ele>
        <time>2023-10-11T13:53:37Z</time>
      </trkpt>
      <trkpt lat="49.7926" lon="2.35238">
        <ele>92.9</ele>
        <time>2023-10-11T13:53:38Z</time>
      </trkpt>
      <trkpt lat="49.79261" lon="2.35239">
        <ele>92.9</ele>
        <time>2023-10-11T13:53:39Z</time>
      </trkpt>
      <trkpt lat="49.79261" lon="2.35241">
        <ele>92.9</ele>
        <time>2023-10-11T13:53:40Z</time>
      </trkpt>
      <trkpt lat="49.79262" lon="2.35242">
        <ele>92.8</ele>
        <time>2023-10-11T13:53:41Z</time>
      </trkpt>
      <trkpt lat="49.79263" lon="2.35244">
        <ele>92.8</ele>
        <time>2023-10-11T13:53:42Z</time>
      </trkpt>
      <trkpt lat="49.79263" lon="2.35245">
        <ele>92.8</ele>
        <time>2023-10-11T13:53:43Z</time>
      </trkpt>
      <trkpt lat="49.79264" lon="2.35247">
        <ele>92.7</ele>
        <time>2023-10-11T13:53:44Z</time>
      </trkpt>
      <trkpt lat="49.79264" lon="2.35248">
        <ele>92.7</ele>
        <time>2023-10-11T13:53:45Z</time>
      </trkpt>
      <trkpt lat="49.79265" lon="2.35251">
        <ele>92.6</ele>
        <time>2023-10-11T13:53:46Z</time>
      </trkpt>
      <trkpt lat="49.79265" lon="2.35252">
        <ele>92.6</ele>
        <time>2023-10-11T13:53:47Z</time>
      </trkpt>
      <trkpt lat="49.79266" lon="2.35254">
        <ele>92.6</ele>
        <time>2023-10-11T13:53:49Z</time>
      </trkpt>
      <trkpt lat="49.79266" lon="2.35257">
        <ele>92.5</ele>
        <time>2023-10-11T13:53:50Z</time>
      </trkpt>
      <trkpt lat="49.79266" lon="2.35259">
        <ele>92.4</ele>
        <time>2023-10-11T13:53:52Z</time>
      </trkpt>
      <trkpt lat="49.79266" lon="2.35259">
        <ele>92.4</ele>
        <time>2023-10-11T13:53:54Z</time>
      </trkpt>
      <trkpt lat="49.79266" lon="2.35259">
        <ele>92.4</ele>
        <time>2023-10-11T13:53:55Z</time>
      </trkpt>
      <trkpt lat="49.79266" lon="2.35259">
        <ele>92.4</ele>
        <time>2023-10-11T13:53:56Z</time>
      </trkpt>
      <trkpt lat="49.79266" lon="2.35259">
        <ele>92.4</ele>
        <time>2023-10-11T13:53:57Z</time>
      </trkpt>
      <trkpt lat="49.79266" lon="2.35259">
        <ele>92.4</ele>
        <time>2023-10-11T13:53:58Z</time>
      </trkpt>
      <trkpt lat="49.79266" lon="2.35259">
        <ele>92.4</ele>
        <time>2023-10-11T13:53:59Z</time>
      </trkpt>
      <trkpt lat="49.79266" lon="2.35259">
        <ele>92.4</ele>
        <time>2023-10-11T13:54:00Z</time>
      </trkpt>
      <trkpt lat="49.79266" lon="2.35259">
        <ele>92.4</ele>
        <time>2023-10-11T13:54:01Z</time>
      </trkpt>
      <trkpt lat="49.79266" lon="2.35259">
        <ele>92.4</ele>
        <time>2023-10-11T13:54:02Z</time>
      </trkpt>
      <trkpt lat="49.79266" lon="2.35259">
        <ele>92.4</ele>
        <time>2023-10-11T13:54:03Z</time>
      </trkpt>
      <trkpt lat="49.79266" lon="2.35259">
        <ele>92.4</ele>
        <time>2023-10-11T13:54:05Z</time>
      </trkpt>
      <trkpt lat="49.79269" lon="2.3526">
        <ele>92.3</ele>
        <time>2023-10-11T13:55:08Z</time>
      </trkpt>
      <trkpt lat="49.79269" lon="2.3526">
        <ele>92.3</ele>
        <time>2023-10-11T13:55:09Z</time>
      </trkpt>
      <trkpt lat="49.79268" lon="2.35262">
        <ele>92.2</ele>
        <time>2023-10-11T13:55:10Z</time>
      </trkpt>
      <trkpt lat="49.79268" lon="2.35263">
        <ele>92.2</ele>
        <time>2023-10-11T13:55:11Z</time>
      </trkpt>
      <trkpt lat="49.79267" lon="2.35265">
        <ele>92.1</ele>
        <time>2023-10-11T13:55:12Z</time>
      </trkpt>
      <trkpt lat="49.79267" lon="2.35266">
        <ele>92.1</ele>
        <time>2023-10-11T13:55:13Z</time>
      </trkpt>
      <trkpt lat="49.79267" lon="2.35268">
        <ele>92.1</ele>
        <time>2023-10-11T13:55:14Z</time>
      </trkpt>
      <trkpt lat="49.79267" lon="2.35269">
        <ele>92</ele>
        <time>2023-10-11T13:55:15Z</time>
      </trkpt>
      <trkpt lat="49.79267" lon="2.3527">
        <ele>92</ele>
        <time>2023-10-11T13:55:16Z</time>
      </trkpt>
      <trkpt lat="49.79266" lon="2.35271">
        <ele>92</ele>
        <time>2023-10-11T13:55:17Z</time>
      </trkpt>
      <trkpt lat="49.79266" lon="2.35273">
        <ele>91.9</ele>
        <time>2023-10-11T13:55:18Z</time>
      </trkpt>
      <trkpt lat="49.79266" lon="2.35274">
        <ele>91.9</ele>
        <time>2023-10-11T13:55:19Z</time>
      </trkpt>
      <trkpt lat="49.79266" lon="2.35276">
        <ele>91.8</ele>
        <time>2023-10-11T13:55:20Z</time>
      </trkpt>
      <trkpt lat="49.79266" lon="2.35278">
        <ele>91.8</ele>
        <time>2023-10-11T13:55:21Z</time>
      </trkpt>
      <trkpt lat="49.79266" lon="2.35279">
        <ele>91.8</ele>
        <time>2023-10-11T13:55:22Z</time>
      </trkpt>
      <trkpt lat="49.79266" lon="2.35281">
        <ele>91.7</ele>
        <time>2023-10-11T13:55:23Z</time>
      </trkpt>
      <trkpt lat="49.79266" lon="2.35282">
        <ele>91.7</ele>
        <time>2023-10-11T13:55:24Z</time>
      </trkpt>
      <trkpt lat="49.79265" lon="2.35283">
        <ele>91.6</ele>
        <time>2023-10-11T13:55:25Z</time>
      </trkpt>
      <trkpt lat="49.79265" lon="2.35285">
        <ele>91.6</ele>
        <time>2023-10-11T13:55:26Z</time>
      </trkpt>
      <trkpt lat="49.79265" lon="2.35286">
        <ele>91.6</ele>
        <time>2023-10-11T13:55:27Z</time>
      </trkpt>
      <trkpt lat="49.79265" lon="2.35287">
        <ele>91.5</ele>
        <time>2023-10-11T13:55:28Z</time>
      </trkpt>
      <trkpt lat="49.79264" lon="2.35289">
        <ele>91.5</ele>
        <time>2023-10-11T13:55:29Z</time>
      </trkpt>
      <trkpt lat="49.79264" lon="2.3529">
        <ele>91.4</ele>
        <time>2023-10-11T13:55:30Z</time>
      </trkpt>
      <trkpt lat="49.79263" lon="2.35292">
        <ele>91.4</ele>
        <time>2023-10-11T13:55:31Z</time>
      </trkpt>
      <trkpt lat="49.79263" lon="2.35294">
        <ele>91.3</ele>
        <time>2023-10-11T13:55:32Z</time>
      </trkpt>
      <trkpt lat="49.79262" lon="2.35295">
        <ele>91.3</ele>
        <time>2023-10-11T13:55:33Z</time>
      </trkpt>
      <trkpt lat="49.79261" lon="2.35298">
        <ele>91.2</ele>
        <time>2023-10-11T13:55:34Z</time>
      </trkpt>
      <trkpt lat="49.79261" lon="2.353">
        <ele>91.1</ele>
        <time>2023-10-11T13:55:36Z</time>
      </trkpt>
      <trkpt lat="49.7926" lon="2.35302">
        <ele>91.1</ele>
        <time>2023-10-11T13:55:37Z</time>
      </trkpt>
      <trkpt lat="49.7926" lon="2.35303">
        <ele>91.1</ele>
        <time>2023-10-11T13:55:38Z</time>
      </trkpt>
      <trkpt lat="49.7926" lon="2.35304">
        <ele>91</ele>
        <time>2023-10-11T13:55:39Z</time>
      </trkpt>
      <trkpt lat="49.79259" lon="2.35306">
        <ele>91</ele>
        <time>2023-10-11T13:55:40Z</time>
      </trkpt>
      <trkpt lat="49.79259" lon="2.35309">
        <ele>90.9</ele>
        <time>2023-10-11T13:55:41Z</time>
      </trkpt>
      <trkpt lat="49.79259" lon="2.3531">
        <ele>90.9</ele>
        <time>2023-10-11T13:55:42Z</time>
      </trkpt>
      <trkpt lat="49.79258" lon="2.35312">
        <ele>90.8</ele>
        <time>2023-10-11T13:55:43Z</time>
      </trkpt>
      <trkpt lat="49.79258" lon="2.35314">
        <ele>90.8</ele>
        <time>2023-10-11T13:55:44Z</time>
      </trkpt>
      <trkpt lat="49.79258" lon="2.35316">
        <ele>90.7</ele>
        <time>2023-10-11T13:55:45Z</time>
      </trkpt>
      <trkpt lat="49.79258" lon="2.35319">
        <ele>90.7</ele>
        <time>2023-10-11T13:55:46Z</time>
      </trkpt>
      <trkpt lat="49.79258" lon="2.35321">
        <ele>90.6</ele>
        <time>2023-10-11T13:55:47Z</time>
      </trkpt>
      <trkpt lat="49.79259" lon="2.35323">
        <ele>90.6</ele>
        <time>2023-10-11T13:55:48Z</time>
      </trkpt>
      <trkpt lat="49.79259" lon="2.35326">
        <ele>90.6</ele>
        <time>2023-10-11T13:55:49Z</time>
      </trkpt>
      <trkpt lat="49.79259" lon="2.35327">
        <ele>90.5</ele>
        <time>2023-10-11T13:55:50Z</time>
      </trkpt>
      <trkpt lat="49.79259" lon="2.35329">
        <ele>90.5</ele>
        <time>2023-10-11T13:55:51Z</time>
      </trkpt>
      <trkpt lat="49.79258" lon="2.3533">
        <ele>90.5</ele>
        <time>2023-10-11T13:55:52Z</time>
      </trkpt>
      <trkpt lat="49.79258" lon="2.35331">
        <ele>90.5</ele>
        <time>2023-10-11T13:55:53Z</time>
      </trkpt>
      <trkpt lat="49.79258" lon="2.35334">
        <ele>90.4</ele>
        <time>2023-10-11T13:55:54Z</time>
      </trkpt>
      <trkpt lat="49.79258" lon="2.35335">
        <ele>90.4</ele>
        <time>2023-10-11T13:55:55Z</time>
      </trkpt>
      <trkpt lat="49.79257" lon="2.35337">
        <ele>90.4</ele>
        <time>2023-10-11T13:55:57Z</time>
      </trkpt>
      <trkpt lat="49.79257" lon="2.35338">
        <ele>90.4</ele>
        <time>2023-10-11T13:55:58Z</time>
      </trkpt>
      <trkpt lat="49.79256" lon="2.3534">
        <ele>90.4</ele>
        <time>2023-10-11T13:55:59Z</time>
      </trkpt>
      <trkpt lat="49.79255" lon="2.35341">
        <ele>90.4</ele>
        <time>2023-10-11T13:56:00Z</time>
      </trkpt>
      <trkpt lat="49.79254" lon="2.35344">
        <ele>90.3</ele>
        <time>2023-10-11T13:56:01Z</time>
      </trkpt>
      <trkpt lat="49.79254" lon="2.35345">
        <ele>90.3</ele>
        <time>2023-10-11T13:56:02Z</time>
      </trkpt>
      <trkpt lat="49.79254" lon="2.35347">
        <ele>90.3</ele>
        <time>2023-10-11T13:56:04Z</time>
      </trkpt>
      <trkpt lat="49.79253" lon="2.35348">
        <ele>90.3</ele>
        <time>2023-10-11T13:56:05Z</time>
      </trkpt>
      <trkpt lat="49.79253" lon="2.3535">
        <ele>90.3</ele>
        <time>2023-10-11T13:56:06Z</time>
      </trkpt>
      <trkpt lat="49.79253" lon="2.35351">
        <ele>90.3</ele>
        <time>2023-10-11T13:56:07Z</time>
      </trkpt>
      <trkpt lat="49.79252" lon="2.35353">
        <ele>90.3</ele>
        <time>2023-10-11T13:56:08Z</time>
      </trkpt>
      <trkpt lat="49.79252" lon="2.35355">
        <ele>90.3</ele>
        <time>2023-10-11T13:56:09Z</time>
      </trkpt>
      <trkpt lat="49.79251" lon="2.35358">
        <ele>90.3</ele>
        <time>2023-10-11T13:56:11Z</time>
      </trkpt>
      <trkpt lat="49.79251" lon="2.35359">
        <ele>90.4</ele>
        <time>2023-10-11T13:56:12Z</time>
      </trkpt>
      <trkpt lat="49.79251" lon="2.3536">
        <ele>90.4</ele>
        <time>2023-10-11T13:56:13Z</time>
      </trkpt>
      <trkpt lat="49.79251" lon="2.35362">
        <ele>90.4</ele>
        <time>2023-10-11T13:56:14Z</time>
      </trkpt>
      <trkpt lat="49.7925" lon="2.35365">
        <ele>90.4</ele>
        <time>2023-10-11T13:56:16Z</time>
      </trkpt>
      <trkpt lat="49.7925" lon="2.35366">
        <ele>90.4</ele>
        <time>2023-10-11T13:56:18Z</time>
      </trkpt>
      <trkpt lat="49.79249" lon="2.35367">
        <ele>90.4</ele>
        <time>2023-10-11T13:56:19Z</time>
      </trkpt>
      <trkpt lat="49.79249" lon="2.35369">
        <ele>90.5</ele>
        <time>2023-10-11T13:56:20Z</time>
      </trkpt>
      <trkpt lat="49.79249" lon="2.3537">
        <ele>90.5</ele>
        <time>2023-10-11T13:56:21Z</time>
      </trkpt>
      <trkpt lat="49.79248" lon="2.35372">
        <ele>90.5</ele>
        <time>2023-10-11T13:56:22Z</time>
      </trkpt>
      <trkpt lat="49.79248" lon="2.35373">
        <ele>90.5</ele>
        <time>2023-10-11T13:56:23Z</time>
      </trkpt>
      <trkpt lat="49.79247" lon="2.35376">
        <ele>90.6</ele>
        <time>2023-10-11T13:56:24Z</time>
      </trkpt>
      <trkpt lat="49.79247" lon="2.35378">
        <ele>90.6</ele>
        <time>2023-10-11T13:56:26Z</time>
      </trkpt>
      <trkpt lat="49.79246" lon="2.3538">
        <ele>90.7</ele>
        <time>2023-10-11T13:56:27Z</time>
      </trkpt>
      <trkpt lat="49.79246" lon="2.35382">
        <ele>90.7</ele>
        <time>2023-10-11T13:56:29Z</time>
      </trkpt>
      <trkpt lat="49.79245" lon="2.35383">
        <ele>90.7</ele>
        <time>2023-10-11T13:56:30Z</time>
      </trkpt>
      <trkpt lat="49.79244" lon="2.35384">
        <ele>90.7</ele>
        <time>2023-10-11T13:56:31Z</time>
      </trkpt>
      <trkpt lat="49.79243" lon="2.35385">
        <ele>90.8</ele>
        <time>2023-10-11T13:56:32Z</time>
      </trkpt>
      <trkpt lat="49.79243" lon="2.35386">
        <ele>90.8</ele>
        <time>2023-10-11T13:56:34Z</time>
      </trkpt>
      <trkpt lat="49.79243" lon="2.35387">
        <ele>90.9</ele>
        <time>2023-10-11T13:56:35Z</time>
      </trkpt>
      <trkpt lat="49.79242" lon="2.35388">
        <ele>90.9</ele>
        <time>2023-10-11T13:56:36Z</time>
      </trkpt>
      <trkpt lat="49.79242" lon="2.35389">
        <ele>90.9</ele>
        <time>2023-10-11T13:56:37Z</time>
      </trkpt>
      <trkpt lat="49.79241" lon="2.3539">
        <ele>91</ele>
        <time>2023-10-11T13:56:38Z</time>
      </trkpt>
      <trkpt lat="49.79241" lon="2.35392">
        <ele>91</ele>
        <time>2023-10-11T13:56:40Z</time>
      </trkpt>
      <trkpt lat="49.79241" lon="2.35392">
        <ele>91</ele>
        <time>2023-10-11T13:56:41Z</time>
      </trkpt>
      <trkpt lat="49.7924" lon="2.35393">
        <ele>91.1</ele>
        <time>2023-10-11T13:56:43Z</time>
      </trkpt>
      <trkpt lat="49.7924" lon="2.35394">
        <ele>91.1</ele>
        <time>2023-10-11T13:56:44Z</time>
      </trkpt>
      <trkpt lat="49.7924" lon="2.35396">
        <ele>91.2</ele>
        <time>2023-10-11T13:56:45Z</time>
      </trkpt>
      <trkpt lat="49.79239" lon="2.35397">
        <ele>91.2</ele>
        <time>2023-10-11T13:56:46Z</time>
      </trkpt>
      <trkpt lat="49.79239" lon="2.35399">
        <ele>91.3</ele>
        <time>2023-10-11T13:56:48Z</time>
      </trkpt>
      <trkpt lat="49.79239" lon="2.354">
        <ele>91.3</ele>
        <time>2023-10-11T13:56:49Z</time>
      </trkpt>
      <trkpt lat="49.79238" lon="2.35401">
        <ele>91.4</ele>
        <time>2023-10-11T13:56:50Z</time>
      </trkpt>
      <trkpt lat="49.79238" lon="2.35402">
        <ele>91.4</ele>
        <time>2023-10-11T13:56:51Z</time>
      </trkpt>
      <trkpt lat="49.79238" lon="2.35403">
        <ele>91.5</ele>
        <time>2023-10-11T13:56:52Z</time>
      </trkpt>
      <trkpt lat="49.79238" lon="2.35404">
        <ele>91.5</ele>
        <time>2023-10-11T13:56:53Z</time>
      </trkpt>
      <trkpt lat="49.79237" lon="2.35406">
        <ele>91.6</ele>
        <time>2023-10-11T13:56:54Z</time>
      </trkpt>
      <trkpt lat="49.79237" lon="2.35407">
        <ele>91.6</ele>
        <time>2023-10-11T13:56:55Z</time>
      </trkpt>
      <trkpt lat="49.79237" lon="2.35408">
        <ele>91.7</ele>
        <time>2023-10-11T13:56:56Z</time>
      </trkpt>
      <trkpt lat="49.79237" lon="2.3541">
        <ele>91.7</ele>
        <time>2023-10-11T13:56:57Z</time>
      </trkpt>
      <trkpt lat="49.79237" lon="2.35412">
        <ele>91.8</ele>
        <time>2023-10-11T13:56:58Z</time>
      </trkpt>
      <trkpt lat="49.79236" lon="2.35415">
        <ele>91.9</ele>
        <time>2023-10-11T13:56:59Z</time>
      </trkpt>
      <trkpt lat="49.79236" lon="2.35416">
        <ele>92</ele>
        <time>2023-10-11T13:57:01Z</time>
      </trkpt>
      <trkpt lat="49.79236" lon="2.35419">
        <ele>92.1</ele>
        <time>2023-10-11T13:57:02Z</time>
      </trkpt>
      <trkpt lat="49.79236" lon="2.35421">
        <ele>92.2</ele>
        <time>2023-10-11T13:57:04Z</time>
      </trkpt>
      <trkpt lat="49.79236" lon="2.35423">
        <ele>92.3</ele>
        <time>2023-10-11T13:57:05Z</time>
      </trkpt>
      <trkpt lat="49.79236" lon="2.35424">
        <ele>92.3</ele>
        <time>2023-10-11T13:57:06Z</time>
      </trkpt>
      <trkpt lat="49.79236" lon="2.35425">
        <ele>92.4</ele>
        <time>2023-10-11T13:57:07Z</time>
      </trkpt>
      <trkpt lat="49.79236" lon="2.35427">
        <ele>92.5</ele>
        <time>2023-10-11T13:57:08Z</time>
      </trkpt>
      <trkpt lat="49.79236" lon="2.35429">
        <ele>92.5</ele>
        <time>2023-10-11T13:57:09Z</time>
      </trkpt>
      <trkpt lat="49.79236" lon="2.3543">
        <ele>92.6</ele>
        <time>2023-10-11T13:57:10Z</time>
      </trkpt>
      <trkpt lat="49.79236" lon="2.35431">
        <ele>92.7</ele>
        <time>2023-10-11T13:57:11Z</time>
      </trkpt>
      <trkpt lat="49.79236" lon="2.35433">
        <ele>92.7</ele>
        <time>2023-10-11T13:57:12Z</time>
      </trkpt>
      <trkpt lat="49.79236" lon="2.35434">
        <ele>92.8</ele>
        <time>2023-10-11T13:57:13Z</time>
      </trkpt>
      <trkpt lat="49.79237" lon="2.35436">
        <ele>92.9</ele>
        <time>2023-10-11T13:57:14Z</time>
      </trkpt>
      <trkpt lat="49.79237" lon="2.35437">
        <ele>92.9</ele>
        <time>2023-10-11T13:57:15Z</time>
      </trkpt>
      <trkpt lat="49.79238" lon="2.35439">
        <ele>93</ele>
        <time>2023-10-11T13:57:16Z</time>
      </trkpt>
      <trkpt lat="49.79239" lon="2.35443">
        <ele>93.2</ele>
        <time>2023-10-11T13:57:17Z</time>
      </trkpt>
      <trkpt lat="49.79239" lon="2.35444">
        <ele>93.2</ele>
        <time>2023-10-11T13:57:19Z</time>
      </trkpt>
      <trkpt lat="49.79239" lon="2.35445">
        <ele>93.3</ele>
        <time>2023-10-11T13:57:20Z</time>
      </trkpt>
      <trkpt lat="49.7924" lon="2.35447">
        <ele>93.4</ele>
        <time>2023-10-11T13:57:21Z</time>
      </trkpt>
      <trkpt lat="49.7924" lon="2.35449">
        <ele>93.4</ele>
        <time>2023-10-11T13:57:22Z</time>
      </trkpt>
      <trkpt lat="49.7924" lon="2.3545">
        <ele>93.5</ele>
        <time>2023-10-11T13:57:23Z</time>
      </trkpt>
      <trkpt lat="49.79241" lon="2.35452">
        <ele>93.5</ele>
        <time>2023-10-11T13:57:24Z</time>
      </trkpt>
      <trkpt lat="49.79241" lon="2.35453">
        <ele>93.6</ele>
        <time>2023-10-11T13:57:25Z</time>
      </trkpt>
      <trkpt lat="49.79241" lon="2.35455">
        <ele>93.7</ele>
        <time>2023-10-11T13:57:26Z</time>
      </trkpt>
      <trkpt lat="49.79241" lon="2.35457">
        <ele>93.7</ele>
        <time>2023-10-11T13:57:27Z</time>
      </trkpt>
      <trkpt lat="49.79242" lon="2.35459">
        <ele>93.8</ele>
        <time>2023-10-11T13:57:28Z</time>
      </trkpt>
      <trkpt lat="49.79242" lon="2.35461">
        <ele>93.9</ele>
        <time>2023-10-11T13:57:29Z</time>
      </trkpt>
      <trkpt lat="49.79242" lon="2.35463">
        <ele>93.9</ele>
        <time>2023-10-11T13:57:30Z</time>
      </trkpt>
      <trkpt lat="49.79243" lon="2.35465">
        <ele>94</ele>
        <time>2023-10-11T13:57:31Z</time>
      </trkpt>
      <trkpt lat="49.79243" lon="2.35467">
        <ele>94.1</ele>
        <time>2023-10-11T13:57:32Z</time>
      </trkpt>
      <trkpt lat="49.79244" lon="2.3547">
        <ele>94.2</ele>
        <time>2023-10-11T13:57:33Z</time>
      </trkpt>
      <trkpt lat="49.79244" lon="2.35472">
        <ele>94.3</ele>
        <time>2023-10-11T13:57:34Z</time>
      </trkpt>
      <trkpt lat="49.79245" lon="2.35474">
        <ele>94.3</ele>
        <time>2023-10-11T13:57:35Z</time>
      </trkpt>
      <trkpt lat="49.79245" lon="2.35476">
        <ele>94.4</ele>
        <time>2023-10-11T13:57:36Z</time>
      </trkpt>
      <trkpt lat="49.79246" lon="2.35478">
        <ele>94.5</ele>
        <time>2023-10-11T13:57:37Z</time>
      </trkpt>
      <trkpt lat="49.79246" lon="2.35481">
        <ele>94.6</ele>
        <time>2023-10-11T13:57:38Z</time>
      </trkpt>
      <trkpt lat="49.79247" lon="2.35483">
        <ele>94.6</ele>
        <time>2023-10-11T13:57:39Z</time>
      </trkpt>
      <trkpt lat="49.79247" lon="2.35486">
        <ele>94.7</ele>
        <time>2023-10-11T13:57:40Z</time>
      </trkpt>
      <trkpt lat="49.79248" lon="2.35488">
        <ele>94.8</ele>
        <time>2023-10-11T13:57:41Z</time>
      </trkpt>
      <trkpt lat="49.79249" lon="2.35492">
        <ele>95</ele>
        <time>2023-10-11T13:57:42Z</time>
      </trkpt>
      <trkpt lat="49.7925" lon="2.35496">
        <ele>95.1</ele>
        <time>2023-10-11T13:57:44Z</time>
      </trkpt>
      <trkpt lat="49.79251" lon="2.35498">
        <ele>95.1</ele>
        <time>2023-10-11T13:57:45Z</time>
      </trkpt>
      <trkpt lat="49.79251" lon="2.35499">
        <ele>95.2</ele>
        <time>2023-10-11T13:57:46Z</time>
      </trkpt>
      <trkpt lat="49.79252" lon="2.35501">
        <ele>95.3</ele>
        <time>2023-10-11T13:57:47Z</time>
      </trkpt>
      <trkpt lat="49.79253" lon="2.35503">
        <ele>95.4</ele>
        <time>2023-10-11T13:57:49Z</time>
      </trkpt>
      <trkpt lat="49.79253" lon="2.35504">
        <ele>95.4</ele>
        <time>2023-10-11T13:57:50Z</time>
      </trkpt>
      <trkpt lat="49.79254" lon="2.35506">
        <ele>95.4</ele>
        <time>2023-10-11T13:57:51Z</time>
      </trkpt>
      <trkpt lat="49.79254" lon="2.35507">
        <ele>95.5</ele>
        <time>2023-10-11T13:57:52Z</time>
      </trkpt>
      <trkpt lat="49.79254" lon="2.35509">
        <ele>95.5</ele>
        <time>2023-10-11T13:57:53Z</time>
      </trkpt>
      <trkpt lat="49.79255" lon="2.3551">
        <ele>95.6</ele>
        <time>2023-10-11T13:57:54Z</time>
      </trkpt>
      <trkpt lat="49.79255" lon="2.35512">
        <ele>95.6</ele>
        <time>2023-10-11T13:57:55Z</time>
      </trkpt>
      <trkpt lat="49.79255" lon="2.35513">
        <ele>95.7</ele>
        <time>2023-10-11T13:57:56Z</time>
      </trkpt>
      <trkpt lat="49.79256" lon="2.35515">
        <ele>95.7</ele>
        <time>2023-10-11T13:57:57Z</time>
      </trkpt>
      <trkpt lat="49.79256" lon="2.35516">
        <ele>95.8</ele>
        <time>2023-10-11T13:57:58Z</time>
      </trkpt>
      <trkpt lat="49.79257" lon="2.35517">
        <ele>95.8</ele>
        <time>2023-10-11T13:57:59Z</time>
      </trkpt>
      <trkpt lat="49.79257" lon="2.35518">
        <ele>95.8</ele>
        <time>2023-10-11T13:58:00Z</time>
      </trkpt>
      <trkpt lat="49.79258" lon="2.35521">
        <ele>95.9</ele>
        <time>2023-10-11T13:58:01Z</time>
      </trkpt>
      <trkpt lat="49.79258" lon="2.35523">
        <ele>96</ele>
        <time>2023-10-11T13:58:03Z</time>
      </trkpt>
      <trkpt lat="49.79259" lon="2.35526">
        <ele>96.1</ele>
        <time>2023-10-11T13:58:04Z</time>
      </trkpt>
      <trkpt lat="49.79259" lon="2.35528">
        <ele>96.1</ele>
        <time>2023-10-11T13:58:06Z</time>
      </trkpt>
      <trkpt lat="49.7926" lon="2.35531">
        <ele>96.2</ele>
        <time>2023-10-11T13:58:07Z</time>
      </trkpt>
      <trkpt lat="49.79261" lon="2.35532">
        <ele>96.3</ele>
        <time>2023-10-11T13:58:09Z</time>
      </trkpt>
      <trkpt lat="49.79261" lon="2.35535">
        <ele>96.4</ele>
        <time>2023-10-11T13:58:10Z</time>
      </trkpt>
      <trkpt lat="49.79262" lon="2.35537">
        <ele>96.4</ele>
        <time>2023-10-11T13:58:12Z</time>
      </trkpt>
      <trkpt lat="49.79262" lon="2.35538">
        <ele>96.5</ele>
        <time>2023-10-11T13:58:13Z</time>
      </trkpt>
      <trkpt lat="49.79262" lon="2.3554">
        <ele>96.5</ele>
        <time>2023-10-11T13:58:14Z</time>
      </trkpt>
      <trkpt lat="49.79263" lon="2.35542">
        <ele>96.6</ele>
        <time>2023-10-11T13:58:15Z</time>
      </trkpt>
      <trkpt lat="49.79263" lon="2.35543">
        <ele>96.6</ele>
        <time>2023-10-11T13:58:16Z</time>
      </trkpt>
      <trkpt lat="49.79264" lon="2.35546">
        <ele>96.7</ele>
        <time>2023-10-11T13:58:17Z</time>
      </trkpt>
      <trkpt lat="49.79264" lon="2.35547">
        <ele>96.8</ele>
        <time>2023-10-11T13:58:19Z</time>
      </trkpt>
      <trkpt lat="49.79264" lon="2.35549">
        <ele>96.8</ele>
        <time>2023-10-11T13:58:20Z</time>
      </trkpt>
      <trkpt lat="49.79265" lon="2.35551">
        <ele>96.9</ele>
        <time>2023-10-11T13:58:21Z</time>
      </trkpt>
      <trkpt lat="49.79265" lon="2.35552">
        <ele>96.9</ele>
        <time>2023-10-11T13:58:22Z</time>
      </trkpt>
      <trkpt lat="49.79265" lon="2.35553">
        <ele>97</ele>
        <time>2023-10-11T13:58:23Z</time>
      </trkpt>
      <trkpt lat="49.79266" lon="2.35554">
        <ele>97</ele>
        <time>2023-10-11T13:58:24Z</time>
      </trkpt>
      <trkpt lat="49.79266" lon="2.35556">
        <ele>97.1</ele>
        <time>2023-10-11T13:58:25Z</time>
      </trkpt>
      <trkpt lat="49.79267" lon="2.35557">
        <ele>97.1</ele>
        <time>2023-10-11T13:58:26Z</time>
      </trkpt>
      <trkpt lat="49.79267" lon="2.35558">
        <ele>97.2</ele>
        <time>2023-10-11T13:58:27Z</time>
      </trkpt>
      <trkpt lat="49.79268" lon="2.35561">
        <ele>97.2</ele>
        <time>2023-10-11T13:58:28Z</time>
      </trkpt>
      <trkpt lat="49.79268" lon="2.35562">
        <ele>97.3</ele>
        <time>2023-10-11T13:58:29Z</time>
      </trkpt>
      <trkpt lat="49.79269" lon="2.35564">
        <ele>97.4</ele>
        <time>2023-10-11T13:58:31Z</time>
      </trkpt>
      <trkpt lat="49.79269" lon="2.35567">
        <ele>97.5</ele>
        <time>2023-10-11T13:58:33Z</time>
      </trkpt>
      <trkpt lat="49.7927" lon="2.35569">
        <ele>97.6</ele>
        <time>2023-10-11T13:58:35Z</time>
      </trkpt>
      <trkpt lat="49.7927" lon="2.3557">
        <ele>97.6</ele>
        <time>2023-10-11T13:58:36Z</time>
      </trkpt>
      <trkpt lat="49.79271" lon="2.35571">
        <ele>97.7</ele>
        <time>2023-10-11T13:58:38Z</time>
      </trkpt>
      <trkpt lat="49.79271" lon="2.35573">
        <ele>97.7</ele>
        <time>2023-10-11T13:58:39Z</time>
      </trkpt>
      <trkpt lat="49.79271" lon="2.35574">
        <ele>97.8</ele>
        <time>2023-10-11T13:58:40Z</time>
      </trkpt>
      <trkpt lat="49.79272" lon="2.35575">
        <ele>97.8</ele>
        <time>2023-10-11T13:58:41Z</time>
      </trkpt>
      <trkpt lat="49.79272" lon="2.35578">
        <ele>97.9</ele>
        <time>2023-10-11T13:58:42Z</time>
      </trkpt>
      <trkpt lat="49.79273" lon="2.35579">
        <ele>98</ele>
        <time>2023-10-11T13:58:43Z</time>
      </trkpt>
      <trkpt lat="49.79273" lon="2.35581">
        <ele>98</ele>
        <time>2023-10-11T13:58:44Z</time>
      </trkpt>
      <trkpt lat="49.79273" lon="2.35582">
        <ele>98.1</ele>
        <time>2023-10-11T13:58:45Z</time>
      </trkpt>
      <trkpt lat="49.79274" lon="2.35583">
        <ele>98.1</ele>
        <time>2023-10-11T13:58:47Z</time>
      </trkpt>
      <trkpt lat="49.79274" lon="2.35585">
        <ele>98.2</ele>
        <time>2023-10-11T13:58:48Z</time>
      </trkpt>
      <trkpt lat="49.79274" lon="2.35586">
        <ele>98.2</ele>
        <time>2023-10-11T13:58:49Z</time>
      </trkpt>
      <trkpt lat="49.79274" lon="2.35587">
        <ele>98.2</ele>
        <time>2023-10-11T13:58:50Z</time>
      </trkpt>
      <trkpt lat="49.79275" lon="2.35589">
        <ele>98.3</ele>
        <time>2023-10-11T13:58:51Z</time>
      </trkpt>
      <trkpt lat="49.79275" lon="2.35591">
        <ele>98.4</ele>
        <time>2023-10-11T13:58:52Z</time>
      </trkpt>
      <trkpt lat="49.79275" lon="2.35592">
        <ele>98.4</ele>
        <time>2023-10-11T13:58:54Z</time>
      </trkpt>
      <trkpt lat="49.79275" lon="2.35594">
        <ele>98.5</ele>
        <time>2023-10-11T13:58:55Z</time>
      </trkpt>
      <trkpt lat="49.79276" lon="2.35595">
        <ele>98.5</ele>
        <time>2023-10-11T13:58:56Z</time>
      </trkpt>
      <trkpt lat="49.79276" lon="2.35597">
        <ele>98.6</ele>
        <time>2023-10-11T13:58:57Z</time>
      </trkpt>
      <trkpt lat="49.79276" lon="2.35598">
        <ele>98.7</ele>
        <time>2023-10-11T13:58:58Z</time>
      </trkpt>
      <trkpt lat="49.79277" lon="2.35602">
        <ele>98.8</ele>
        <time>2023-10-11T13:58:59Z</time>
      </trkpt>
      <trkpt lat="49.79277" lon="2.35603">
        <ele>98.8</ele>
        <time>2023-10-11T13:59:01Z</time>
      </trkpt>
      <trkpt lat="49.79277" lon="2.35605">
        <ele>98.9</ele>
        <time>2023-10-11T13:59:02Z</time>
      </trkpt>
      <trkpt lat="49.79278" lon="2.35607">
        <ele>99</ele>
        <time>2023-10-11T13:59:03Z</time>
      </trkpt>
      <trkpt lat="49.79278" lon="2.3561">
        <ele>99.1</ele>
        <time>2023-10-11T13:59:04Z</time>
      </trkpt>
      <trkpt lat="49.79279" lon="2.35611">
        <ele>99.1</ele>
        <time>2023-10-11T13:59:05Z</time>
      </trkpt>
      <trkpt lat="49.7928" lon="2.35615">
        <ele>99.3</ele>
        <time>2023-10-11T13:59:07Z</time>
      </trkpt>
      <trkpt lat="49.7928" lon="2.35617">
        <ele>99.4</ele>
        <time>2023-10-11T13:59:08Z</time>
      </trkpt>
      <trkpt lat="49.7928" lon="2.35619">
        <ele>99.4</ele>
        <time>2023-10-11T13:59:10Z</time>
      </trkpt>
      <trkpt lat="49.79281" lon="2.3562">
        <ele>99.5</ele>
        <time>2023-10-11T13:59:11Z</time>
      </trkpt>
      <trkpt lat="49.79281" lon="2.35622">
        <ele>99.5</ele>
        <time>2023-10-11T13:59:12Z</time>
      </trkpt>
      <trkpt lat="49.79281" lon="2.35624">
        <ele>99.6</ele>
        <time>2023-10-11T13:59:13Z</time>
      </trkpt>
      <trkpt lat="49.79282" lon="2.35625">
        <ele>99.7</ele>
        <time>2023-10-11T13:59:14Z</time>
      </trkpt>
      <trkpt lat="49.79282" lon="2.35628">
        <ele>99.8</ele>
        <time>2023-10-11T13:59:15Z</time>
      </trkpt>
      <trkpt lat="49.79283" lon="2.3563">
        <ele>99.8</ele>
        <time>2023-10-11T13:59:16Z</time>
      </trkpt>
      <trkpt lat="49.79283" lon="2.35631">
        <ele>99.9</ele>
        <time>2023-10-11T13:59:17Z</time>
      </trkpt>
      <trkpt lat="49.79284" lon="2.35634">
        <ele>100</ele>
        <time>2023-10-11T13:59:18Z</time>
      </trkpt>
      <trkpt lat="49.79284" lon="2.35635">
        <ele>100.1</ele>
        <time>2023-10-11T13:59:19Z</time>
      </trkpt>
      <trkpt lat="49.79284" lon="2.35636">
        <ele>100.1</ele>
        <time>2023-10-11T13:59:20Z</time>
      </trkpt>
      <trkpt lat="49.79285" lon="2.35638">
        <ele>100.2</ele>
        <time>2023-10-11T13:59:21Z</time>
      </trkpt>
      <trkpt lat="49.79285" lon="2.35639">
        <ele>100.2</ele>
        <time>2023-10-11T13:59:22Z</time>
      </trkpt>
      <trkpt lat="49.79285" lon="2.35641">
        <ele>100.3</ele>
        <time>2023-10-11T13:59:23Z</time>
      </trkpt>
      <trkpt lat="49.79286" lon="2.35642">
        <ele>100.3</ele>
        <time>2023-10-11T13:59:24Z</time>
      </trkpt>
      <trkpt lat="49.79286" lon="2.35644">
        <ele>100.4</ele>
        <time>2023-10-11T13:59:25Z</time>
      </trkpt>
      <trkpt lat="49.79287" lon="2.35647">
        <ele>100.5</ele>
        <time>2023-10-11T13:59:26Z</time>
      </trkpt>
      <trkpt lat="49.79288" lon="2.35649">
        <ele>100.6</ele>
        <time>2023-10-11T13:59:28Z</time>
      </trkpt>
      <trkpt lat="49.79289" lon="2.35652">
        <ele>100.7</ele>
        <time>2023-10-11T13:59:30Z</time>
      </trkpt>
      <trkpt lat="49.79289" lon="2.35654">
        <ele>100.8</ele>
        <time>2023-10-11T13:59:31Z</time>
      </trkpt>
      <trkpt lat="49.79289" lon="2.35655">
        <ele>100.8</ele>
        <time>2023-10-11T13:59:32Z</time>
      </trkpt>
      <trkpt lat="49.7929" lon="2.35657">
        <ele>100.9</ele>
        <time>2023-10-11T13:59:33Z</time>
      </trkpt>
      <trkpt lat="49.7929" lon="2.35658">
        <ele>101</ele>
        <time>2023-10-11T13:59:34Z</time>
      </trkpt>
      <trkpt lat="49.79291" lon="2.3566">
        <ele>101</ele>
        <time>2023-10-11T13:59:36Z</time>
      </trkpt>
      <trkpt lat="49.79291" lon="2.35663">
        <ele>101.1</ele>
        <time>2023-10-11T13:59:37Z</time>
      </trkpt>
      <trkpt lat="49.79292" lon="2.35664">
        <ele>101.2</ele>
        <time>2023-10-11T13:59:39Z</time>
      </trkpt>
      <trkpt lat="49.79292" lon="2.35666">
        <ele>101.2</ele>
        <time>2023-10-11T13:59:40Z</time>
      </trkpt>
      <trkpt lat="49.79293" lon="2.35669">
        <ele>101.3</ele>
        <time>2023-10-11T13:59:41Z</time>
      </trkpt>
      <trkpt lat="49.79294" lon="2.3567">
        <ele>101.4</ele>
        <time>2023-10-11T13:59:43Z</time>
      </trkpt>
      <trkpt lat="49.79294" lon="2.35671">
        <ele>101.4</ele>
        <time>2023-10-11T13:59:44Z</time>
      </trkpt>
      <trkpt lat="49.79294" lon="2.35672">
        <ele>101.5</ele>
        <time>2023-10-11T13:59:45Z</time>
      </trkpt>
      <trkpt lat="49.79295" lon="2.35674">
        <ele>101.5</ele>
        <time>2023-10-11T13:59:46Z</time>
      </trkpt>
      <trkpt lat="49.79296" lon="2.35675">
        <ele>101.6</ele>
        <time>2023-10-11T13:59:48Z</time>
      </trkpt>
      <trkpt lat="49.79296" lon="2.35676">
        <ele>101.6</ele>
        <time>2023-10-11T13:59:49Z</time>
      </trkpt>
      <trkpt lat="49.79296" lon="2.35677">
        <ele>101.6</ele>
        <time>2023-10-11T13:59:50Z</time>
      </trkpt>
      <trkpt lat="49.79297" lon="2.35679">
        <ele>101.7</ele>
        <time>2023-10-11T13:59:51Z</time>
      </trkpt>
      <trkpt lat="49.79298" lon="2.35681">
        <ele>101.7</ele>
        <time>2023-10-11T13:59:53Z</time>
      </trkpt>
      <trkpt lat="49.79298" lon="2.35682">
        <ele>101.8</ele>
        <time>2023-10-11T13:59:54Z</time>
      </trkpt>
      <trkpt lat="49.79299" lon="2.35684">
        <ele>101.8</ele>
        <time>2023-10-11T13:59:55Z</time>
      </trkpt>
      <trkpt lat="49.793" lon="2.35686">
        <ele>101.9</ele>
        <time>2023-10-11T13:59:57Z</time>
      </trkpt>
      <trkpt lat="49.793" lon="2.35687">
        <ele>101.9</ele>
        <time>2023-10-11T13:59:59Z</time>
      </trkpt>
      <trkpt lat="49.793" lon="2.35688">
        <ele>102</ele>
        <time>2023-10-11T14:00:00Z</time>
      </trkpt>
      <trkpt lat="49.79301" lon="2.35689">
        <ele>102</ele>
        <time>2023-10-11T14:00:01Z</time>
      </trkpt>
      <trkpt lat="49.79301" lon="2.3569">
        <ele>102</ele>
        <time>2023-10-11T14:00:02Z</time>
      </trkpt>
      <trkpt lat="49.79302" lon="2.35692">
        <ele>102.1</ele>
        <time>2023-10-11T14:00:03Z</time>
      </trkpt>
      <trkpt lat="49.79303" lon="2.35693">
        <ele>102.1</ele>
        <time>2023-10-11T14:00:05Z</time>
      </trkpt>
      <trkpt lat="49.79304" lon="2.35695">
        <ele>102.2</ele>
        <time>2023-10-11T14:00:06Z</time>
      </trkpt>
      <trkpt lat="49.79305" lon="2.35698">
        <ele>102.3</ele>
        <time>2023-10-11T14:00:08Z</time>
      </trkpt>
      <trkpt lat="49.79305" lon="2.35699">
        <ele>102.3</ele>
        <time>2023-10-11T14:00:09Z</time>
      </trkpt>
      <trkpt lat="49.79306" lon="2.357">
        <ele>102.4</ele>
        <time>2023-10-11T14:00:11Z</time>
      </trkpt>
      <trkpt lat="49.79306" lon="2.35702">
        <ele>102.4</ele>
        <time>2023-10-11T14:00:12Z</time>
      </trkpt>
      <trkpt lat="49.79306" lon="2.35703">
        <ele>102.4</ele>
        <time>2023-10-11T14:00:13Z</time>
      </trkpt>
      <trkpt lat="49.79307" lon="2.35704">
        <ele>102.5</ele>
        <time>2023-10-11T14:00:14Z</time>
      </trkpt>
      <trkpt lat="49.79307" lon="2.35705">
        <ele>102.5</ele>
        <time>2023-10-11T14:00:15Z</time>
      </trkpt>
      <trkpt lat="49.79308" lon="2.35708">
        <ele>102.6</ele>
        <time>2023-10-11T14:00:16Z</time>
      </trkpt>
      <trkpt lat="49.79308" lon="2.3571">
        <ele>102.6</ele>
        <time>2023-10-11T14:00:18Z</time>
      </trkpt>
      <trkpt lat="49.79308" lon="2.35711">
        <ele>102.7</ele>
        <time>2023-10-11T14:00:19Z</time>
      </trkpt>
      <trkpt lat="49.79309" lon="2.35714">
        <ele>102.8</ele>
        <time>2023-10-11T14:00:20Z</time>
      </trkpt>
      <trkpt lat="49.7931" lon="2.35716">
        <ele>102.8</ele>
        <time>2023-10-11T14:00:22Z</time>
      </trkpt>
      <trkpt lat="49.7931" lon="2.35717">
        <ele>102.9</ele>
        <time>2023-10-11T14:00:23Z</time>
      </trkpt>
      <trkpt lat="49.7931" lon="2.35718">
        <ele>102.9</ele>
        <time>2023-10-11T14:00:24Z</time>
      </trkpt>
      <trkpt lat="49.79311" lon="2.35721">
        <ele>103</ele>
        <time>2023-10-11T14:00:25Z</time>
      </trkpt>
      <trkpt lat="49.79312" lon="2.35725">
        <ele>103.1</ele>
        <time>2023-10-11T14:00:26Z</time>
      </trkpt>
      <trkpt lat="49.79312" lon="2.35727">
        <ele>103.1</ele>
        <time>2023-10-11T14:00:28Z</time>
      </trkpt>
      <trkpt lat="49.79312" lon="2.35728">
        <ele>103.2</ele>
        <time>2023-10-11T14:00:29Z</time>
      </trkpt>
      <trkpt lat="49.79313" lon="2.3573">
        <ele>103.2</ele>
        <time>2023-10-11T14:00:31Z</time>
      </trkpt>
      <trkpt lat="49.79313" lon="2.35732">
        <ele>103.3</ele>
        <time>2023-10-11T14:00:32Z</time>
      </trkpt>
      <trkpt lat="49.79313" lon="2.35734">
        <ele>103.3</ele>
        <time>2023-10-11T14:00:33Z</time>
      </trkpt>
      <trkpt lat="49.79314" lon="2.35737">
        <ele>103.5</ele>
        <time>2023-10-11T14:00:34Z</time>
      </trkpt>
      <trkpt lat="49.79314" lon="2.35739">
        <ele>103.5</ele>
        <time>2023-10-11T14:00:36Z</time>
      </trkpt>
      <trkpt lat="49.79314" lon="2.3574">
        <ele>103.6</ele>
        <time>2023-10-11T14:00:37Z</time>
      </trkpt>
      <trkpt lat="49.79314" lon="2.35742">
        <ele>103.6</ele>
        <time>2023-10-11T14:00:38Z</time>
      </trkpt>
      <trkpt lat="49.79314" lon="2.35743">
        <ele>103.7</ele>
        <time>2023-10-11T14:00:39Z</time>
      </trkpt>
      <trkpt lat="49.79314" lon="2.35745">
        <ele>103.7</ele>
        <time>2023-10-11T14:00:40Z</time>
      </trkpt>
      <trkpt lat="49.79314" lon="2.35746">
        <ele>103.8</ele>
        <time>2023-10-11T14:00:41Z</time>
      </trkpt>
      <trkpt lat="49.79314" lon="2.35747">
        <ele>103.8</ele>
        <time>2023-10-11T14:00:42Z</time>
      </trkpt>
      <trkpt lat="49.79314" lon="2.35749">
        <ele>103.9</ele>
        <time>2023-10-11T14:00:43Z</time>
      </trkpt>
      <trkpt lat="49.79314" lon="2.3575">
        <ele>103.9</ele>
        <time>2023-10-11T14:00:44Z</time>
      </trkpt>
      <trkpt lat="49.79314" lon="2.35752">
        <ele>104</ele>
        <time>2023-10-11T14:00:45Z</time>
      </trkpt>
      <trkpt lat="49.79314" lon="2.35754">
        <ele>104</ele>
        <time>2023-10-11T14:00:46Z</time>
      </trkpt>
      <trkpt lat="49.79314" lon="2.35755">
        <ele>104.1</ele>
        <time>2023-10-11T14:00:47Z</time>
      </trkpt>
      <trkpt lat="49.79314" lon="2.35756">
        <ele>104.1</ele>
        <time>2023-10-11T14:00:49Z</time>
      </trkpt>
      <trkpt lat="49.79314" lon="2.35757">
        <ele>104.1</ele>
        <time>2023-10-11T14:00:50Z</time>
      </trkpt>
      <trkpt lat="49.79314" lon="2.35758">
        <ele>104.2</ele>
        <time>2023-10-11T14:00:51Z</time>
      </trkpt>
      <trkpt lat="49.79314" lon="2.35759">
        <ele>104.2</ele>
        <time>2023-10-11T14:00:52Z</time>
      </trkpt>
      <trkpt lat="49.79314" lon="2.3576">
        <ele>104.3</ele>
        <time>2023-10-11T14:00:53Z</time>
      </trkpt>
      <trkpt lat="49.79313" lon="2.3576">
        <ele>104.3</ele>
        <time>2023-10-11T14:00:54Z</time>
      </trkpt>
      <trkpt lat="49.79313" lon="2.35761">
        <ele>104.3</ele>
        <time>2023-10-11T14:00:55Z</time>
      </trkpt>
      <trkpt lat="49.79313" lon="2.35761">
        <ele>104.3</ele>
        <time>2023-10-11T14:00:56Z</time>
      </trkpt>
      <trkpt lat="49.79313" lon="2.35762">
        <ele>104.4</ele>
        <time>2023-10-11T14:00:57Z</time>
      </trkpt>
      <trkpt lat="49.79312" lon="2.35763">
        <ele>104.4</ele>
        <time>2023-10-11T14:00:59Z</time>
      </trkpt>
      <trkpt lat="49.79312" lon="2.35765">
        <ele>104.5</ele>
        <time>2023-10-11T14:01:00Z</time>
      </trkpt>
      <trkpt lat="49.79312" lon="2.35764">
        <ele>104.5</ele>
        <time>2023-10-11T14:01:01Z</time>
      </trkpt>
      <trkpt lat="49.79312" lon="2.35765">
        <ele>104.5</ele>
        <time>2023-10-11T14:01:02Z</time>
      </trkpt>
      <trkpt lat="49.79312" lon="2.35766">
        <ele>104.6</ele>
        <time>2023-10-11T14:01:03Z</time>
      </trkpt>
      <trkpt lat="49.79312" lon="2.35767">
        <ele>104.6</ele>
        <time>2023-10-11T14:01:04Z</time>
      </trkpt>
      <trkpt lat="49.79312" lon="2.35767">
        <ele>104.6</ele>
        <time>2023-10-11T14:01:05Z</time>
      </trkpt>
      <trkpt lat="49.79311" lon="2.35768">
        <ele>104.7</ele>
        <time>2023-10-11T14:01:07Z</time>
      </trkpt>
      <trkpt lat="49.79311" lon="2.35769">
        <ele>104.7</ele>
        <time>2023-10-11T14:01:09Z</time>
      </trkpt>
      <trkpt lat="49.79311" lon="2.35771">
        <ele>104.7</ele>
        <time>2023-10-11T14:01:10Z</time>
      </trkpt>
      <trkpt lat="49.79311" lon="2.35772">
        <ele>104.8</ele>
        <time>2023-10-11T14:01:11Z</time>
      </trkpt>
      <trkpt lat="49.79311" lon="2.35772">
        <ele>104.8</ele>
        <time>2023-10-11T14:01:13Z</time>
      </trkpt>
      <trkpt lat="49.79311" lon="2.35773">
        <ele>104.8</ele>
        <time>2023-10-11T14:01:14Z</time>
      </trkpt>
      <trkpt lat="49.79311" lon="2.35774">
        <ele>104.9</ele>
        <time>2023-10-11T14:01:15Z</time>
      </trkpt>
      <trkpt lat="49.7931" lon="2.35775">
        <ele>104.9</ele>
        <time>2023-10-11T14:01:16Z</time>
      </trkpt>
      <trkpt lat="49.7931" lon="2.35776">
        <ele>105</ele>
        <time>2023-10-11T14:01:17Z</time>
      </trkpt>
      <trkpt lat="49.7931" lon="2.35778">
        <ele>105.1</ele>
        <time>2023-10-11T14:01:18Z</time>
      </trkpt>
      <trkpt lat="49.7931" lon="2.35779">
        <ele>105.1</ele>
        <time>2023-10-11T14:01:19Z</time>
      </trkpt>
      <trkpt lat="49.7931" lon="2.35781">
        <ele>105.2</ele>
        <time>2023-10-11T14:01:20Z</time>
      </trkpt>
      <trkpt lat="49.7931" lon="2.35782">
        <ele>105.2</ele>
        <time>2023-10-11T14:01:22Z</time>
      </trkpt>
      <trkpt lat="49.7931" lon="2.35783">
        <ele>105.3</ele>
        <time>2023-10-11T14:01:23Z</time>
      </trkpt>
      <trkpt lat="49.79309" lon="2.35786">
        <ele>105.4</ele>
        <time>2023-10-11T14:01:24Z</time>
      </trkpt>
      <trkpt lat="49.79309" lon="2.35789">
        <ele>105.5</ele>
        <time>2023-10-11T14:01:26Z</time>
      </trkpt>
      <trkpt lat="49.79309" lon="2.35791">
        <ele>105.5</ele>
        <time>2023-10-11T14:01:28Z</time>
      </trkpt>
      <trkpt lat="49.79309" lon="2.35793">
        <ele>105.6</ele>
        <time>2023-10-11T14:01:29Z</time>
      </trkpt>
      <trkpt lat="49.79309" lon="2.35794">
        <ele>105.7</ele>
        <time>2023-10-11T14:01:30Z</time>
      </trkpt>
      <trkpt lat="49.79309" lon="2.35794">
        <ele>105.7</ele>
        <time>2023-10-11T14:01:32Z</time>
      </trkpt>
      <trkpt lat="49.79309" lon="2.35795">
        <ele>105.7</ele>
        <time>2023-10-11T14:01:33Z</time>
      </trkpt>
      <trkpt lat="49.79309" lon="2.35795">
        <ele>105.7</ele>
        <time>2023-10-11T14:01:34Z</time>
      </trkpt>
      <trkpt lat="49.79309" lon="2.35795">
        <ele>105.7</ele>
        <time>2023-10-11T14:01:35Z</time>
      </trkpt>
      <trkpt lat="49.79309" lon="2.35794">
        <ele>105.7</ele>
        <time>2023-10-11T14:01:36Z</time>
      </trkpt>
      <trkpt lat="49.79309" lon="2.35794">
        <ele>105.7</ele>
        <time>2023-10-11T14:01:37Z</time>
      </trkpt>
      <trkpt lat="49.79309" lon="2.35794">
        <ele>105.7</ele>
        <time>2023-10-11T14:01:38Z</time>
      </trkpt>
      <trkpt lat="49.79309" lon="2.35793">
        <ele>105.8</ele>
        <time>2023-10-11T14:01:39Z</time>
      </trkpt>
      <trkpt lat="49.79309" lon="2.35792">
        <ele>105.8</ele>
        <time>2023-10-11T14:01:40Z</time>
      </trkpt>
      <trkpt lat="49.79309" lon="2.35791">
        <ele>105.8</ele>
        <time>2023-10-11T14:01:41Z</time>
      </trkpt>
      <trkpt lat="49.79309" lon="2.35791">
        <ele>105.9</ele>
        <time>2023-10-11T14:01:43Z</time>
      </trkpt>
      <trkpt lat="49.79309" lon="2.3579">
        <ele>105.9</ele>
        <time>2023-10-11T14:01:44Z</time>
      </trkpt>
      <trkpt lat="49.79309" lon="2.3579">
        <ele>105.9</ele>
        <time>2023-10-11T14:01:45Z</time>
      </trkpt>
      <trkpt lat="49.79309" lon="2.3579">
        <ele>105.9</ele>
        <time>2023-10-11T14:01:46Z</time>
      </trkpt>
      <trkpt lat="49.79309" lon="2.3579">
        <ele>105.9</ele>
        <time>2023-10-11T14:01:47Z</time>
      </trkpt>
      <trkpt lat="49.79309" lon="2.3579">
        <ele>105.9</ele>
        <time>2023-10-11T14:01:48Z</time>
      </trkpt>
      <trkpt lat="49.79309" lon="2.3579">
        <ele>105.9</ele>
        <time>2023-10-11T14:01:49Z</time>
      </trkpt>
      <trkpt lat="49.79309" lon="2.3579">
        <ele>105.9</ele>
        <time>2023-10-11T14:01:50Z</time>
      </trkpt>
      <trkpt lat="49.79309" lon="2.3579">
        <ele>105.9</ele>
        <time>2023-10-11T14:01:51Z</time>
      </trkpt>
      <trkpt lat="49.79309" lon="2.3579">
        <ele>105.9</ele>
        <time>2023-10-11T14:01:53Z</time>
      </trkpt>
      <trkpt lat="49.79309" lon="2.3579">
        <ele>105.9</ele>
        <time>2023-10-11T14:01:54Z</time>
      </trkpt>
      <trkpt lat="49.79309" lon="2.3579">
        <ele>105.9</ele>
        <time>2023-10-11T14:01:55Z</time>
      </trkpt>
      <trkpt lat="49.79313" lon="2.35799">
        <ele>106.2</ele>
        <time>2023-10-11T14:02:36Z</time>
      </trkpt>
      <trkpt lat="49.79314" lon="2.35801">
        <ele>106.3</ele>
        <time>2023-10-11T14:02:37Z</time>
      </trkpt>
      <trkpt lat="49.79314" lon="2.35802">
        <ele>106.3</ele>
        <time>2023-10-11T14:02:39Z</time>
      </trkpt>
      <trkpt lat="49.79315" lon="2.35802">
        <ele>106.4</ele>
        <time>2023-10-11T14:02:40Z</time>
      </trkpt>
      <trkpt lat="49.79315" lon="2.35803">
        <ele>106.4</ele>
        <time>2023-10-11T14:02:42Z</time>
      </trkpt>
      <trkpt lat="49.79315" lon="2.35803">
        <ele>106.4</ele>
        <time>2023-10-11T14:02:44Z</time>
      </trkpt>
      <trkpt lat="49.79315" lon="2.35803">
        <ele>106.4</ele>
        <time>2023-10-11T14:02:46Z</time>
      </trkpt>
      <trkpt lat="49.79315" lon="2.35803">
        <ele>106.4</ele>
        <time>2023-10-11T14:02:47Z</time>
      </trkpt>
      <trkpt lat="49.79316" lon="2.35803">
        <ele>106.4</ele>
        <time>2023-10-11T14:02:48Z</time>
      </trkpt>
      <trkpt lat="49.79316" lon="2.35803">
        <ele>106.5</ele>
        <time>2023-10-11T14:02:50Z</time>
      </trkpt>
      <trkpt lat="49.79316" lon="2.35803">
        <ele>106.5</ele>
        <time>2023-10-11T14:02:52Z</time>
      </trkpt>
      <trkpt lat="49.79316" lon="2.35803">
        <ele>106.5</ele>
        <time>2023-10-11T14:02:53Z</time>
      </trkpt>
      <trkpt lat="49.79316" lon="2.35803">
        <ele>106.5</ele>
        <time>2023-10-11T14:02:54Z</time>
      </trkpt>
      <trkpt lat="49.79316" lon="2.35803">
        <ele>106.5</ele>
        <time>2023-10-11T14:02:56Z</time>
      </trkpt>
      <trkpt lat="49.79316" lon="2.35803">
        <ele>106.5</ele>
        <time>2023-10-11T14:02:57Z</time>
      </trkpt>
      <trkpt lat="49.79316" lon="2.35803">
        <ele>106.5</ele>
        <time>2023-10-11T14:02:59Z</time>
      </trkpt>
      <trkpt lat="49.79316" lon="2.35803">
        <ele>106.5</ele>
        <time>2023-10-11T14:03:00Z</time>
      </trkpt>
      <trkpt lat="49.79316" lon="2.35803">
        <ele>106.5</ele>
        <time>2023-10-11T14:03:02Z</time>
      </trkpt>
      <trkpt lat="49.79316" lon="2.35803">
        <ele>106.5</ele>
        <time>2023-10-11T14:03:03Z</time>
      </trkpt>
      <trkpt lat="49.79319" lon="2.35804">
        <ele>106.6</ele>
        <time>2023-10-11T14:06:34Z</time>
      </trkpt>
      <trkpt lat="49.79318" lon="2.35804">
        <ele>106.6</ele>
        <time>2023-10-11T14:06:35Z</time>
      </trkpt>
      <trkpt lat="49.79318" lon="2.35804">
        <ele>106.6</ele>
        <time>2023-10-11T14:06:37Z</time>
      </trkpt>
      <trkpt lat="49.79317" lon="2.35805">
        <ele>106.6</ele>
        <time>2023-10-11T14:06:38Z</time>
      </trkpt>
      <trkpt lat="49.79317" lon="2.35806">
        <ele>106.7</ele>
        <time>2023-10-11T14:06:40Z</time>
      </trkpt>
      <trkpt lat="49.79317" lon="2.35807">
        <ele>106.7</ele>
        <time>2023-10-11T14:06:41Z</time>
      </trkpt>
      <trkpt lat="49.79317" lon="2.35808">
        <ele>106.7</ele>
        <time>2023-10-11T14:06:42Z</time>
      </trkpt>
      <trkpt lat="49.79317" lon="2.35809">
        <ele>106.7</ele>
        <time>2023-10-11T14:06:43Z</time>
      </trkpt>
      <trkpt lat="49.79316" lon="2.35811">
        <ele>106.8</ele>
        <time>2023-10-11T14:06:44Z</time>
      </trkpt>
      <trkpt lat="49.79316" lon="2.35813">
        <ele>106.8</ele>
        <time>2023-10-11T14:06:46Z</time>
      </trkpt>
      <trkpt lat="49.79315" lon="2.35814">
        <ele>107.6</ele>
        <time>2023-10-11T14:06:47Z</time>
      </trkpt>
      <trkpt lat="49.79315" lon="2.35815">
        <ele>107.6</ele>
        <time>2023-10-11T14:06:48Z</time>
      </trkpt>
      <trkpt lat="49.79315" lon="2.35817">
        <ele>107.6</ele>
        <time>2023-10-11T14:06:49Z</time>
      </trkpt>
      <trkpt lat="49.79314" lon="2.35818">
        <ele>107.6</ele>
        <time>2023-10-11T14:06:50Z</time>
      </trkpt>
      <trkpt lat="49.79314" lon="2.35819">
        <ele>107.6</ele>
        <time>2023-10-11T14:06:52Z</time>
      </trkpt>
      <trkpt lat="49.79314" lon="2.3582">
        <ele>107.6</ele>
        <time>2023-10-11T14:06:53Z</time>
      </trkpt>
      <trkpt lat="49.79314" lon="2.35821">
        <ele>107.7</ele>
        <time>2023-10-11T14:06:54Z</time>
      </trkpt>
      <trkpt lat="49.79313" lon="2.35823">
        <ele>107.7</ele>
        <time>2023-10-11T14:06:55Z</time>
      </trkpt>
      <trkpt lat="49.79313" lon="2.35824">
        <ele>107.7</ele>
        <time>2023-10-11T14:06:56Z</time>
      </trkpt>
      <trkpt lat="49.79312" lon="2.35825">
        <ele>107.7</ele>
        <time>2023-10-11T14:06:57Z</time>
      </trkpt>
      <trkpt lat="49.79312" lon="2.35826">
        <ele>107.7</ele>
        <time>2023-10-11T14:06:58Z</time>
      </trkpt>
      <trkpt lat="49.79312" lon="2.35827">
        <ele>107.7</ele>
        <time>2023-10-11T14:06:59Z</time>
      </trkpt>
      <trkpt lat="49.79311" lon="2.3583">
        <ele>107.7</ele>
        <time>2023-10-11T14:07:00Z</time>
      </trkpt>
      <trkpt lat="49.7931" lon="2.35832">
        <ele>107.8</ele>
        <time>2023-10-11T14:07:02Z</time>
      </trkpt>
      <trkpt lat="49.7931" lon="2.35833">
        <ele>107.8</ele>
        <time>2023-10-11T14:07:04Z</time>
      </trkpt>
      <trkpt lat="49.79309" lon="2.35836">
        <ele>107.8</ele>
        <time>2023-10-11T14:07:05Z</time>
      </trkpt>
      <trkpt lat="49.79309" lon="2.35837">
        <ele>107.8</ele>
        <time>2023-10-11T14:07:07Z</time>
      </trkpt>
      <trkpt lat="49.79308" lon="2.35838">
        <ele>107.8</ele>
        <time>2023-10-11T14:07:08Z</time>
      </trkpt>
      <trkpt lat="49.79308" lon="2.35839">
        <ele>107.8</ele>
        <time>2023-10-11T14:07:09Z</time>
      </trkpt>
      <trkpt lat="49.79307" lon="2.35841">
        <ele>107.9</ele>
        <time>2023-10-11T14:07:10Z</time>
      </trkpt>
      <trkpt lat="49.79306" lon="2.35841">
        <ele>107.9</ele>
        <time>2023-10-11T14:07:11Z</time>
      </trkpt>
      <trkpt lat="49.79306" lon="2.35842">
        <ele>107.9</ele>
        <time>2023-10-11T14:07:13Z</time>
      </trkpt>
      <trkpt lat="49.79305" lon="2.35843">
        <ele>107.9</ele>
        <time>2023-10-11T14:07:14Z</time>
      </trkpt>
      <trkpt lat="49.79305" lon="2.35844">
        <ele>107.9</ele>
        <time>2023-10-11T14:07:15Z</time>
      </trkpt>
      <trkpt lat="49.79303" lon="2.35848">
        <ele>107.9</ele>
        <time>2023-10-11T14:07:16Z</time>
      </trkpt>
      <trkpt lat="49.79302" lon="2.3585">
        <ele>108</ele>
        <time>2023-10-11T14:07:18Z</time>
      </trkpt>
      <trkpt lat="49.79301" lon="2.35852">
        <ele>108</ele>
        <time>2023-10-11T14:07:19Z</time>
      </trkpt>
      <trkpt lat="49.793" lon="2.35855">
        <ele>108</ele>
        <time>2023-10-11T14:07:20Z</time>
      </trkpt>
      <trkpt lat="49.79299" lon="2.35857">
        <ele>108</ele>
        <time>2023-10-11T14:07:22Z</time>
      </trkpt>
      <trkpt lat="49.79298" lon="2.35858">
        <ele>108</ele>
        <time>2023-10-11T14:07:23Z</time>
      </trkpt>
      <trkpt lat="49.79298" lon="2.3586">
        <ele>108.1</ele>
        <time>2023-10-11T14:07:24Z</time>
      </trkpt>
      <trkpt lat="49.79297" lon="2.35861">
        <ele>108.1</ele>
        <time>2023-10-11T14:07:25Z</time>
      </trkpt>
      <trkpt lat="49.79297" lon="2.35862">
        <ele>108.1</ele>
        <time>2023-10-11T14:07:26Z</time>
      </trkpt>
      <trkpt lat="49.79296" lon="2.35864">
        <ele>108.1</ele>
        <time>2023-10-11T14:07:27Z</time>
      </trkpt>
      <trkpt lat="49.79295" lon="2.35865">
        <ele>108.1</ele>
        <time>2023-10-11T14:07:28Z</time>
      </trkpt>
      <trkpt lat="49.79295" lon="2.35866">
        <ele>108.1</ele>
        <time>2023-10-11T14:07:29Z</time>
      </trkpt>
      <trkpt lat="49.79294" lon="2.35867">
        <ele>108.2</ele>
        <time>2023-10-11T14:07:30Z</time>
      </trkpt>
      <trkpt lat="49.79293" lon="2.35868">
        <ele>108.2</ele>
        <time>2023-10-11T14:07:31Z</time>
      </trkpt>
      <trkpt lat="49.79293" lon="2.35869">
        <ele>108.2</ele>
        <time>2023-10-11T14:07:32Z</time>
      </trkpt>
      <trkpt lat="49.79292" lon="2.3587">
        <ele>108.2</ele>
        <time>2023-10-11T14:07:33Z</time>
      </trkpt>
      <trkpt lat="49.79292" lon="2.35871">
        <ele>108.2</ele>
        <time>2023-10-11T14:07:34Z</time>
      </trkpt>
      <trkpt lat="49.79291" lon="2.35872">
        <ele>108.2</ele>
        <time>2023-10-11T14:07:35Z</time>
      </trkpt>
      <trkpt lat="49.79291" lon="2.35873">
        <ele>108.2</ele>
        <time>2023-10-11T14:07:36Z</time>
      </trkpt>
      <trkpt lat="49.7929" lon="2.35875">
        <ele>108.3</ele>
        <time>2023-10-11T14:07:37Z</time>
      </trkpt>
      <trkpt lat="49.79289" lon="2.35876">
        <ele>108.3</ele>
        <time>2023-10-11T14:07:39Z</time>
      </trkpt>
      <trkpt lat="49.79289" lon="2.35878">
        <ele>108.3</ele>
        <time>2023-10-11T14:07:40Z</time>
      </trkpt>
      <trkpt lat="49.79288" lon="2.35879">
        <ele>108.3</ele>
        <time>2023-10-11T14:07:41Z</time>
      </trkpt>
      <trkpt lat="49.79288" lon="2.3588">
        <ele>108.3</ele>
        <time>2023-10-11T14:07:42Z</time>
      </trkpt>
      <trkpt lat="49.79287" lon="2.35882">
        <ele>108.3</ele>
        <time>2023-10-11T14:07:43Z</time>
      </trkpt>
      <trkpt lat="49.79287" lon="2.35883">
        <ele>108.3</ele>
        <time>2023-10-11T14:07:44Z</time>
      </trkpt>
      <trkpt lat="49.79286" lon="2.35887">
        <ele>108.4</ele>
        <time>2023-10-11T14:07:45Z</time>
      </trkpt>
      <trkpt lat="49.79285" lon="2.3589">
        <ele>108.4</ele>
        <time>2023-10-11T14:07:47Z</time>
      </trkpt>
      <trkpt lat="49.79285" lon="2.35891">
        <ele>108.4</ele>
        <time>2023-10-11T14:07:48Z</time>
      </trkpt>
      <trkpt lat="49.79284" lon="2.35892">
        <ele>108.4</ele>
        <time>2023-10-11T14:07:49Z</time>
      </trkpt>
      <trkpt lat="49.79284" lon="2.35894">
        <ele>108.5</ele>
        <time>2023-10-11T14:07:50Z</time>
      </trkpt>
      <trkpt lat="49.79284" lon="2.35895">
        <ele>108.5</ele>
        <time>2023-10-11T14:07:51Z</time>
      </trkpt>
      <trkpt lat="49.79283" lon="2.35897">
        <ele>108.5</ele>
        <time>2023-10-11T14:07:52Z</time>
      </trkpt>
      <trkpt lat="49.79282" lon="2.35901">
        <ele>108.5</ele>
        <time>2023-10-11T14:07:53Z</time>
      </trkpt>
      <trkpt lat="49.79281" lon="2.35902">
        <ele>108.5</ele>
        <time>2023-10-11T14:07:55Z</time>
      </trkpt>
      <trkpt lat="49.7928" lon="2.35908">
        <ele>108.6</ele>
        <time>2023-10-11T14:07:56Z</time>
      </trkpt>
      <trkpt lat="49.7928" lon="2.35909">
        <ele>108.6</ele>
        <time>2023-10-11T14:07:58Z</time>
      </trkpt>
      <trkpt lat="49.79279" lon="2.35911">
        <ele>108.6</ele>
        <time>2023-10-11T14:07:59Z</time>
      </trkpt>
      <trkpt lat="49.79279" lon="2.35913">
        <ele>108.6</ele>
        <time>2023-10-11T14:08:00Z</time>
      </trkpt>
      <trkpt lat="49.79278" lon="2.35915">
        <ele>108.6</ele>
        <time>2023-10-11T14:08:01Z</time>
      </trkpt>
      <trkpt lat="49.79278" lon="2.35916">
        <ele>108.7</ele>
        <time>2023-10-11T14:08:02Z</time>
      </trkpt>
      <trkpt lat="49.79278" lon="2.35918">
        <ele>108.7</ele>
        <time>2023-10-11T14:08:03Z</time>
      </trkpt>
      <trkpt lat="49.79277" lon="2.3592">
        <ele>108.7</ele>
        <time>2023-10-11T14:08:05Z</time>
      </trkpt>
      <trkpt lat="49.79277" lon="2.35921">
        <ele>108.7</ele>
        <time>2023-10-11T14:08:06Z</time>
      </trkpt>
      <trkpt lat="49.79277" lon="2.35923">
        <ele>108.7</ele>
        <time>2023-10-11T14:08:07Z</time>
      </trkpt>
      <trkpt lat="49.79276" lon="2.35924">
        <ele>108.7</ele>
        <time>2023-10-11T14:08:08Z</time>
      </trkpt>
      <trkpt lat="49.79276" lon="2.35927">
        <ele>108.7</ele>
        <time>2023-10-11T14:08:09Z</time>
      </trkpt>
      <trkpt lat="49.79276" lon="2.35929">
        <ele>108.8</ele>
        <time>2023-10-11T14:08:11Z</time>
      </trkpt>
      <trkpt lat="49.79275" lon="2.3593">
        <ele>108.8</ele>
        <time>2023-10-11T14:08:12Z</time>
      </trkpt>
      <trkpt lat="49.79275" lon="2.35932">
        <ele>108.8</ele>
        <time>2023-10-11T14:08:13Z</time>
      </trkpt>
      <trkpt lat="49.79275" lon="2.35933">
        <ele>108.8</ele>
        <time>2023-10-11T14:08:14Z</time>
      </trkpt>
      <trkpt lat="49.79274" lon="2.35935">
        <ele>108.8</ele>
        <time>2023-10-11T14:08:15Z</time>
      </trkpt>
      <trkpt lat="49.79274" lon="2.35939">
        <ele>108.8</ele>
        <time>2023-10-11T14:08:16Z</time>
      </trkpt>
      <trkpt lat="49.79273" lon="2.3594">
        <ele>108.8</ele>
        <time>2023-10-11T14:08:18Z</time>
      </trkpt>
      <trkpt lat="49.79273" lon="2.35942">
        <ele>108.9</ele>
        <time>2023-10-11T14:08:19Z</time>
      </trkpt>
      <trkpt lat="49.79272" lon="2.35945">
        <ele>108.9</ele>
        <time>2023-10-11T14:08:20Z</time>
      </trkpt>
      <trkpt lat="49.79272" lon="2.35947">
        <ele>108.9</ele>
        <time>2023-10-11T14:08:22Z</time>
      </trkpt>
      <trkpt lat="49.79272" lon="2.35949">
        <ele>108.9</ele>
        <time>2023-10-11T14:08:23Z</time>
      </trkpt>
      <trkpt lat="49.79271" lon="2.35951">
        <ele>108.9</ele>
        <time>2023-10-11T14:08:24Z</time>
      </trkpt>
      <trkpt lat="49.79271" lon="2.35954">
        <ele>108.9</ele>
        <time>2023-10-11T14:08:25Z</time>
      </trkpt>
      <trkpt lat="49.7927" lon="2.35955">
        <ele>109</ele>
        <time>2023-10-11T14:08:26Z</time>
      </trkpt>
      <trkpt lat="49.7927" lon="2.35957">
        <ele>109</ele>
        <time>2023-10-11T14:08:28Z</time>
      </trkpt>
      <trkpt lat="49.7927" lon="2.35958">
        <ele>109</ele>
        <time>2023-10-11T14:08:29Z</time>
      </trkpt>
      <trkpt lat="49.79269" lon="2.35962">
        <ele>109</ele>
        <time>2023-10-11T14:08:30Z</time>
      </trkpt>
      <trkpt lat="49.79268" lon="2.35963">
        <ele>109</ele>
        <time>2023-10-11T14:08:32Z</time>
      </trkpt>
      <trkpt lat="49.79268" lon="2.35965">
        <ele>109</ele>
        <time>2023-10-11T14:08:33Z</time>
      </trkpt>
      <trkpt lat="49.79268" lon="2.35966">
        <ele>109</ele>
        <time>2023-10-11T14:08:34Z</time>
      </trkpt>
      <trkpt lat="49.79267" lon="2.35968">
        <ele>109</ele>
        <time>2023-10-11T14:08:35Z</time>
      </trkpt>
      <trkpt lat="49.79267" lon="2.35969">
        <ele>109</ele>
        <time>2023-10-11T14:08:36Z</time>
      </trkpt>
      <trkpt lat="49.79266" lon="2.35971">
        <ele>109.1</ele>
        <time>2023-10-11T14:08:37Z</time>
      </trkpt>
      <trkpt lat="49.79265" lon="2.35972">
        <ele>109.1</ele>
        <time>2023-10-11T14:08:39Z</time>
      </trkpt>
      <trkpt lat="49.79265" lon="2.35971">
        <ele>109.1</ele>
        <time>2023-10-11T14:08:40Z</time>
      </trkpt>
      <trkpt lat="49.79265" lon="2.35969">
        <ele>109.1</ele>
        <time>2023-10-11T14:08:41Z</time>
      </trkpt>
      <trkpt lat="49.79265" lon="2.35969">
        <ele>109.1</ele>
        <time>2023-10-11T14:08:42Z</time>
      </trkpt>
      <trkpt lat="49.79266" lon="2.35968">
        <ele>109.1</ele>
        <time>2023-10-11T14:08:44Z</time>
      </trkpt>
      <trkpt lat="49.79266" lon="2.35968">
        <ele>109.1</ele>
        <time>2023-10-11T14:08:45Z</time>
      </trkpt>
      <trkpt lat="49.79266" lon="2.35968">
        <ele>109.1</ele>
        <time>2023-10-11T14:08:46Z</time>
      </trkpt>
      <trkpt lat="49.79266" lon="2.35968">
        <ele>109.1</ele>
        <time>2023-10-11T14:08:47Z</time>
      </trkpt>
      <trkpt lat="49.79266" lon="2.35968">
        <ele>109.1</ele>
        <time>2023-10-11T14:08:48Z</time>
      </trkpt>
      <trkpt lat="49.79266" lon="2.35968">
        <ele>109.1</ele>
        <time>2023-10-11T14:08:49Z</time>
      </trkpt>
      <trkpt lat="49.79265" lon="2.35969">
        <ele>109.1</ele>
        <time>2023-10-11T14:08:50Z</time>
      </trkpt>
      <trkpt lat="49.79265" lon="2.3597">
        <ele>109.1</ele>
        <time>2023-10-11T14:08:51Z</time>
      </trkpt>
      <trkpt lat="49.79265" lon="2.3597">
        <ele>109.1</ele>
        <time>2023-10-11T14:08:52Z</time>
      </trkpt>
      <trkpt lat="49.79265" lon="2.35971">
        <ele>109.1</ele>
        <time>2023-10-11T14:08:53Z</time>
      </trkpt>
      <trkpt lat="49.79265" lon="2.35973">
        <ele>109.1</ele>
        <time>2023-10-11T14:08:54Z</time>
      </trkpt>
      <trkpt lat="49.79264" lon="2.35974">
        <ele>109.1</ele>
        <time>2023-10-11T14:08:55Z</time>
      </trkpt>
      <trkpt lat="49.79264" lon="2.35975">
        <ele>109.1</ele>
        <time>2023-10-11T14:08:56Z</time>
      </trkpt>
      <trkpt lat="49.79264" lon="2.35976">
        <ele>109.1</ele>
        <time>2023-10-11T14:08:57Z</time>
      </trkpt>
      <trkpt lat="49.79263" lon="2.35976">
        <ele>109.2</ele>
        <time>2023-10-11T14:08:59Z</time>
      </trkpt>
      <trkpt lat="49.79263" lon="2.35976">
        <ele>109.2</ele>
        <time>2023-10-11T14:09:00Z</time>
      </trkpt>
      <trkpt lat="49.79263" lon="2.35976">
        <ele>109.2</ele>
        <time>2023-10-11T14:09:02Z</time>
      </trkpt>
      <trkpt lat="49.79263" lon="2.35976">
        <ele>109.2</ele>
        <time>2023-10-11T14:09:03Z</time>
      </trkpt>
      <trkpt lat="49.79264" lon="2.35975">
        <ele>109.2</ele>
        <time>2023-10-11T14:09:04Z</time>
      </trkpt>
      <trkpt lat="49.79264" lon="2.35975">
        <ele>109.2</ele>
        <time>2023-10-11T14:09:05Z</time>
      </trkpt>
      <trkpt lat="49.79264" lon="2.35975">
        <ele>109.2</ele>
        <time>2023-10-11T14:09:06Z</time>
      </trkpt>
      <trkpt lat="49.79264" lon="2.35975">
        <ele>109.2</ele>
        <time>2023-10-11T14:09:07Z</time>
      </trkpt>
      <trkpt lat="49.79265" lon="2.35974">
        <ele>109.2</ele>
        <time>2023-10-11T14:09:08Z</time>
      </trkpt>
      <trkpt lat="49.79265" lon="2.35974">
        <ele>109.2</ele>
        <time>2023-10-11T14:09:10Z</time>
      </trkpt>
      <trkpt lat="49.79265" lon="2.35974">
        <ele>109.2</ele>
        <time>2023-10-11T14:09:11Z</time>
      </trkpt>
      <trkpt lat="49.79265" lon="2.35974">
        <ele>109.2</ele>
        <time>2023-10-11T14:09:13Z</time>
      </trkpt>
      <trkpt lat="49.79266" lon="2.35974">
        <ele>109.2</ele>
        <time>2023-10-11T14:09:14Z</time>
      </trkpt>
      <trkpt lat="49.79266" lon="2.35974">
        <ele>109.2</ele>
        <time>2023-10-11T14:09:15Z</time>
      </trkpt>
      <trkpt lat="49.79266" lon="2.35974">
        <ele>109.2</ele>
        <time>2023-10-11T14:09:16Z</time>
      </trkpt>
      <trkpt lat="49.79266" lon="2.35974">
        <ele>109.2</ele>
        <time>2023-10-11T14:09:17Z</time>
      </trkpt>
      <trkpt lat="49.79267" lon="2.35974">
        <ele>109.2</ele>
        <time>2023-10-11T14:09:18Z</time>
      </trkpt>
      <trkpt lat="49.79267" lon="2.35975">
        <ele>109.2</ele>
        <time>2023-10-11T14:09:20Z</time>
      </trkpt>
      <trkpt lat="49.79267" lon="2.3598">
        <ele>109.2</ele>
        <time>2023-10-11T14:09:21Z</time>
      </trkpt>
      <trkpt lat="49.79268" lon="2.35984">
        <ele>109.2</ele>
        <time>2023-10-11T14:09:22Z</time>
      </trkpt>
      <trkpt lat="49.79267" lon="2.35986">
        <ele>109.2</ele>
        <time>2023-10-11T14:09:24Z</time>
      </trkpt>
      <trkpt lat="49.79267" lon="2.35987">
        <ele>109.2</ele>
        <time>2023-10-11T14:09:25Z</time>
      </trkpt>
      <trkpt lat="49.79267" lon="2.35989">
        <ele>109.3</ele>
        <time>2023-10-11T14:09:26Z</time>
      </trkpt>
      <trkpt lat="49.79267" lon="2.3599">
        <ele>109.3</ele>
        <time>2023-10-11T14:09:27Z</time>
      </trkpt>
      <trkpt lat="49.79267" lon="2.35992">
        <ele>109.3</ele>
        <time>2023-10-11T14:09:28Z</time>
      </trkpt>
      <trkpt lat="49.79267" lon="2.35994">
        <ele>109.3</ele>
        <time>2023-10-11T14:09:29Z</time>
      </trkpt>
      <trkpt lat="49.79266" lon="2.35995">
        <ele>109.3</ele>
        <time>2023-10-11T14:09:31Z</time>
      </trkpt>
      <trkpt lat="49.79266" lon="2.35996">
        <ele>109.3</ele>
        <time>2023-10-11T14:09:32Z</time>
      </trkpt>
      <trkpt lat="49.79266" lon="2.35996">
        <ele>109.3</ele>
        <time>2023-10-11T14:09:34Z</time>
      </trkpt>
      <trkpt lat="49.79266" lon="2.35997">
        <ele>109.3</ele>
        <time>2023-10-11T14:09:35Z</time>
      </trkpt>
      <trkpt lat="49.79266" lon="2.35997">
        <ele>109.3</ele>
        <time>2023-10-11T14:09:36Z</time>
      </trkpt>
      <trkpt lat="49.79267" lon="2.35998">
        <ele>109.3</ele>
        <time>2023-10-11T14:09:37Z</time>
      </trkpt>
      <trkpt lat="49.79267" lon="2.36002">
        <ele>109.3</ele>
        <time>2023-10-11T14:09:39Z</time>
      </trkpt>
      <trkpt lat="49.79266" lon="2.36004">
        <ele>109.3</ele>
        <time>2023-10-11T14:09:40Z</time>
      </trkpt>
      <trkpt lat="49.79266" lon="2.36008">
        <ele>109.3</ele>
        <time>2023-10-11T14:09:42Z</time>
      </trkpt>
      <trkpt lat="49.79266" lon="2.36009">
        <ele>109.3</ele>
        <time>2023-10-11T14:09:43Z</time>
      </trkpt>
      <trkpt lat="49.79265" lon="2.36012">
        <ele>109.3</ele>
        <time>2023-10-11T14:09:45Z</time>
      </trkpt>
      <trkpt lat="49.79265" lon="2.36013">
        <ele>109.3</ele>
        <time>2023-10-11T14:09:47Z</time>
      </trkpt>
      <trkpt lat="49.79265" lon="2.36014">
        <ele>109.3</ele>
        <time>2023-10-11T14:09:48Z</time>
      </trkpt>
      <trkpt lat="49.79264" lon="2.36015">
        <ele>109.3</ele>
        <time>2023-10-11T14:09:49Z</time>
      </trkpt>
      <trkpt lat="49.79264" lon="2.36015">
        <ele>109.3</ele>
        <time>2023-10-11T14:09:50Z</time>
      </trkpt>
      <trkpt lat="49.79264" lon="2.36015">
        <ele>109.3</ele>
        <time>2023-10-11T14:09:51Z</time>
      </trkpt>
      <trkpt lat="49.79264" lon="2.36015">
        <ele>109.3</ele>
        <time>2023-10-11T14:09:52Z</time>
      </trkpt>
      <trkpt lat="49.79264" lon="2.36016">
        <ele>109.3</ele>
        <time>2023-10-11T14:09:53Z</time>
      </trkpt>
      <trkpt lat="49.79263" lon="2.36016">
        <ele>109.3</ele>
        <time>2023-10-11T14:09:54Z</time>
      </trkpt>
      <trkpt lat="49.79263" lon="2.36016">
        <ele>109.3</ele>
        <time>2023-10-11T14:09:55Z</time>
      </trkpt>
      <trkpt lat="49.79264" lon="2.36018">
        <ele>109.3</ele>
        <time>2023-10-11T14:09:56Z</time>
      </trkpt>
      <trkpt lat="49.79264" lon="2.36018">
        <ele>109.3</ele>
        <time>2023-10-11T14:09:58Z</time>
      </trkpt>
      <trkpt lat="49.79264" lon="2.3602">
        <ele>109.3</ele>
        <time>2023-10-11T14:09:59Z</time>
      </trkpt>
      <trkpt lat="49.79263" lon="2.36023">
        <ele>109.3</ele>
        <time>2023-10-11T14:10:01Z</time>
      </trkpt>
      <trkpt lat="49.79263" lon="2.36024">
        <ele>109.3</ele>
        <time>2023-10-11T14:10:02Z</time>
      </trkpt>
      <trkpt lat="49.79263" lon="2.36025">
        <ele>109.3</ele>
        <time>2023-10-11T14:10:04Z</time>
      </trkpt>
      <trkpt lat="49.79263" lon="2.36026">
        <ele>109.3</ele>
        <time>2023-10-11T14:10:05Z</time>
      </trkpt>
      <trkpt lat="49.79263" lon="2.36029">
        <ele>109.3</ele>
        <time>2023-10-11T14:10:06Z</time>
      </trkpt>
      <trkpt lat="49.79262" lon="2.36033">
        <ele>109.3</ele>
        <time>2023-10-11T14:10:08Z</time>
      </trkpt>
      <trkpt lat="49.79262" lon="2.36035">
        <ele>109.3</ele>
        <time>2023-10-11T14:10:09Z</time>
      </trkpt>
      <trkpt lat="49.79261" lon="2.36037">
        <ele>109.3</ele>
        <time>2023-10-11T14:10:10Z</time>
      </trkpt>
      <trkpt lat="49.79261" lon="2.36038">
        <ele>109.3</ele>
        <time>2023-10-11T14:10:12Z</time>
      </trkpt>
      <trkpt lat="49.79261" lon="2.36042">
        <ele>109.3</ele>
        <time>2023-10-11T14:10:13Z</time>
      </trkpt>
      <trkpt lat="49.79261" lon="2.36044">
        <ele>109.3</ele>
        <time>2023-10-11T14:10:14Z</time>
      </trkpt>
      <trkpt lat="49.7926" lon="2.36045">
        <ele>109.3</ele>
        <time>2023-10-11T14:10:15Z</time>
      </trkpt>
      <trkpt lat="49.7926" lon="2.36046">
        <ele>109.3</ele>
        <time>2023-10-11T14:10:16Z</time>
      </trkpt>
      <trkpt lat="49.7926" lon="2.36047">
        <ele>109.3</ele>
        <time>2023-10-11T14:10:17Z</time>
      </trkpt>
      <trkpt lat="49.7926" lon="2.36048">
        <ele>109.3</ele>
        <time>2023-10-11T14:10:18Z</time>
      </trkpt>
      <trkpt lat="49.7926" lon="2.36048">
        <ele>109.3</ele>
        <time>2023-10-11T14:10:20Z</time>
      </trkpt>
      <trkpt lat="49.79259" lon="2.36049">
        <ele>109.3</ele>
        <time>2023-10-11T14:10:21Z</time>
      </trkpt>
      <trkpt lat="49.79259" lon="2.36049">
        <ele>109.3</ele>
        <time>2023-10-11T14:10:22Z</time>
      </trkpt>
      <trkpt lat="49.79259" lon="2.36049">
        <ele>109.3</ele>
        <time>2023-10-11T14:10:23Z</time>
      </trkpt>
      <trkpt lat="49.79259" lon="2.36049">
        <ele>109.3</ele>
        <time>2023-10-11T14:10:24Z</time>
      </trkpt>
      <trkpt lat="49.79259" lon="2.36049">
        <ele>109.3</ele>
        <time>2023-10-11T14:10:25Z</time>
      </trkpt>
      <trkpt lat="49.79259" lon="2.36049">
        <ele>109.3</ele>
        <time>2023-10-11T14:10:26Z</time>
      </trkpt>
      <trkpt lat="49.79259" lon="2.36049">
        <ele>109.3</ele>
        <time>2023-10-11T14:10:27Z</time>
      </trkpt>
      <trkpt lat="49.79259" lon="2.3605">
        <ele>109.3</ele>
        <time>2023-10-11T14:10:28Z</time>
      </trkpt>
      <trkpt lat="49.79259" lon="2.3605">
        <ele>109.3</ele>
        <time>2023-10-11T14:10:29Z</time>
      </trkpt>
      <trkpt lat="49.79259" lon="2.36051">
        <ele>109.3</ele>
        <time>2023-10-11T14:10:30Z</time>
      </trkpt>
      <trkpt lat="49.79259" lon="2.36052">
        <ele>109.3</ele>
        <time>2023-10-11T14:10:31Z</time>
      </trkpt>
      <trkpt lat="49.79259" lon="2.36052">
        <ele>109.3</ele>
        <time>2023-10-11T14:10:33Z</time>
      </trkpt>
      <trkpt lat="49.79259" lon="2.36052">
        <ele>109.3</ele>
        <time>2023-10-11T14:10:34Z</time>
      </trkpt>
      <trkpt lat="49.79259" lon="2.36052">
        <ele>109.3</ele>
        <time>2023-10-11T14:10:35Z</time>
      </trkpt>
      <trkpt lat="49.79259" lon="2.36052">
        <ele>109.3</ele>
        <time>2023-10-11T14:10:36Z</time>
      </trkpt>
      <trkpt lat="49.79259" lon="2.36052">
        <ele>109.3</ele>
        <time>2023-10-11T14:10:37Z</time>
      </trkpt>
      <trkpt lat="49.79259" lon="2.36052">
        <ele>109.3</ele>
        <time>2023-10-11T14:10:38Z</time>
      </trkpt>
      <trkpt lat="49.79259" lon="2.36052">
        <ele>109.3</ele>
        <time>2023-10-11T14:10:39Z</time>
      </trkpt>
      <trkpt lat="49.79257" lon="2.36058">
        <ele>109.3</ele>
        <time>2023-10-11T14:10:45Z</time>
      </trkpt>
      <trkpt lat="49.79256" lon="2.36062">
        <ele>109.3</ele>
        <time>2023-10-11T14:10:47Z</time>
      </trkpt>
      <trkpt lat="49.79256" lon="2.36064">
        <ele>109.3</ele>
        <time>2023-10-11T14:10:48Z</time>
      </trkpt>
      <trkpt lat="49.79255" lon="2.36066">
        <ele>109.3</ele>
        <time>2023-10-11T14:10:49Z</time>
      </trkpt>
      <trkpt lat="49.79255" lon="2.36068">
        <ele>109.3</ele>
        <time>2023-10-11T14:10:51Z</time>
      </trkpt>
      <trkpt lat="49.79255" lon="2.36069">
        <ele>109.3</ele>
        <time>2023-10-11T14:10:52Z</time>
      </trkpt>
      <trkpt lat="49.79255" lon="2.3607">
        <ele>109.3</ele>
        <time>2023-10-11T14:10:54Z</time>
      </trkpt>
      <trkpt lat="49.79255" lon="2.36071">
        <ele>109.3</ele>
        <time>2023-10-11T14:10:55Z</time>
      </trkpt>
      <trkpt lat="49.79255" lon="2.36073">
        <ele>109.3</ele>
        <time>2023-10-11T14:10:56Z</time>
      </trkpt>
      <trkpt lat="49.79255" lon="2.36075">
        <ele>109.3</ele>
        <time>2023-10-11T14:10:57Z</time>
      </trkpt>
      <trkpt lat="49.79255" lon="2.36077">
        <ele>109.3</ele>
        <time>2023-10-11T14:10:58Z</time>
      </trkpt>
      <trkpt lat="49.79255" lon="2.36079">
        <ele>109.3</ele>
        <time>2023-10-11T14:10:59Z</time>
      </trkpt>
      <trkpt lat="49.79255" lon="2.36081">
        <ele>109.3</ele>
        <time>2023-10-11T14:11:01Z</time>
      </trkpt>
      <trkpt lat="49.79255" lon="2.36083">
        <ele>109.3</ele>
        <time>2023-10-11T14:11:02Z</time>
      </trkpt>
      <trkpt lat="49.79255" lon="2.36086">
        <ele>109.3</ele>
        <time>2023-10-11T14:11:03Z</time>
      </trkpt>
      <trkpt lat="49.79255" lon="2.36088">
        <ele>109.3</ele>
        <time>2023-10-11T14:11:04Z</time>
      </trkpt>
      <trkpt lat="49.79255" lon="2.36092">
        <ele>109.3</ele>
        <time>2023-10-11T14:11:06Z</time>
      </trkpt>
      <trkpt lat="49.79254" lon="2.36095">
        <ele>109.3</ele>
        <time>2023-10-11T14:11:07Z</time>
      </trkpt>
      <trkpt lat="49.79254" lon="2.36097">
        <ele>109.3</ele>
        <time>2023-10-11T14:11:09Z</time>
      </trkpt>
      <trkpt lat="49.79254" lon="2.36098">
        <ele>109.3</ele>
        <time>2023-10-11T14:11:10Z</time>
      </trkpt>
      <trkpt lat="49.79254" lon="2.361">
        <ele>109.3</ele>
        <time>2023-10-11T14:11:11Z</time>
      </trkpt>
      <trkpt lat="49.79254" lon="2.36102">
        <ele>109.3</ele>
        <time>2023-10-11T14:11:12Z</time>
      </trkpt>
      <trkpt lat="49.79253" lon="2.36105">
        <ele>109.3</ele>
        <time>2023-10-11T14:11:13Z</time>
      </trkpt>
      <trkpt lat="49.79253" lon="2.36106">
        <ele>109.3</ele>
        <time>2023-10-11T14:11:15Z</time>
      </trkpt>
      <trkpt lat="49.79252" lon="2.36108">
        <ele>109.3</ele>
        <time>2023-10-11T14:11:16Z</time>
      </trkpt>
      <trkpt lat="49.79252" lon="2.36109">
        <ele>109.3</ele>
        <time>2023-10-11T14:11:18Z</time>
      </trkpt>
      <trkpt lat="49.79252" lon="2.36111">
        <ele>109.3</ele>
        <time>2023-10-11T14:11:19Z</time>
      </trkpt>
      <trkpt lat="49.79251" lon="2.36112">
        <ele>109.3</ele>
        <time>2023-10-11T14:11:20Z</time>
      </trkpt>
      <trkpt lat="49.7925" lon="2.36114">
        <ele>109.3</ele>
        <time>2023-10-11T14:11:21Z</time>
      </trkpt>
      <trkpt lat="49.7925" lon="2.36115">
        <ele>109.2</ele>
        <time>2023-10-11T14:11:23Z</time>
      </trkpt>
      <trkpt lat="49.7925" lon="2.36118">
        <ele>109.2</ele>
        <time>2023-10-11T14:11:24Z</time>
      </trkpt>
      <trkpt lat="49.79249" lon="2.3612">
        <ele>109.2</ele>
        <time>2023-10-11T14:11:26Z</time>
      </trkpt>
      <trkpt lat="49.79249" lon="2.36121">
        <ele>109.2</ele>
        <time>2023-10-11T14:11:27Z</time>
      </trkpt>
      <trkpt lat="49.79248" lon="2.36123">
        <ele>109.2</ele>
        <time>2023-10-11T14:11:28Z</time>
      </trkpt>
      <trkpt lat="49.79248" lon="2.36125">
        <ele>109.2</ele>
        <time>2023-10-11T14:11:29Z</time>
      </trkpt>
      <trkpt lat="49.79248" lon="2.36126">
        <ele>109.2</ele>
        <time>2023-10-11T14:11:30Z</time>
      </trkpt>
      <trkpt lat="49.79248" lon="2.36127">
        <ele>109.2</ele>
        <time>2023-10-11T14:11:31Z</time>
      </trkpt>
      <trkpt lat="49.79247" lon="2.36129">
        <ele>109.2</ele>
        <time>2023-10-11T14:11:32Z</time>
      </trkpt>
      <trkpt lat="49.79247" lon="2.36131">
        <ele>109.2</ele>
        <time>2023-10-11T14:11:33Z</time>
      </trkpt>
      <trkpt lat="49.79247" lon="2.36132">
        <ele>109.2</ele>
        <time>2023-10-11T14:11:34Z</time>
      </trkpt>
      <trkpt lat="49.79246" lon="2.36134">
        <ele>109.2</ele>
        <time>2023-10-11T14:11:35Z</time>
      </trkpt>
      <trkpt lat="49.79246" lon="2.36135">
        <ele>109.2</ele>
        <time>2023-10-11T14:11:36Z</time>
      </trkpt>
      <trkpt lat="49.79246" lon="2.36137">
        <ele>109.2</ele>
        <time>2023-10-11T14:11:37Z</time>
      </trkpt>
      <trkpt lat="49.79246" lon="2.3614">
        <ele>109.2</ele>
        <time>2023-10-11T14:11:38Z</time>
      </trkpt>
      <trkpt lat="49.79246" lon="2.36143">
        <ele>109.2</ele>
        <time>2023-10-11T14:11:40Z</time>
      </trkpt>
      <trkpt lat="49.79245" lon="2.36145">
        <ele>109.2</ele>
        <time>2023-10-11T14:11:42Z</time>
      </trkpt>
      <trkpt lat="49.79245" lon="2.36146">
        <ele>109.2</ele>
        <time>2023-10-11T14:11:43Z</time>
      </trkpt>
      <trkpt lat="49.79245" lon="2.36148">
        <ele>109.2</ele>
        <time>2023-10-11T14:11:44Z</time>
      </trkpt>
      <trkpt lat="49.79244" lon="2.36149">
        <ele>109.2</ele>
        <time>2023-10-11T14:11:45Z</time>
      </trkpt>
      <trkpt lat="49.79244" lon="2.36151">
        <ele>109.2</ele>
        <time>2023-10-11T14:11:46Z</time>
      </trkpt>
      <trkpt lat="49.79244" lon="2.36152">
        <ele>109.2</ele>
        <time>2023-10-11T14:11:47Z</time>
      </trkpt>
      <trkpt lat="49.79243" lon="2.36156">
        <ele>109.2</ele>
        <time>2023-10-11T14:11:48Z</time>
      </trkpt>
      <trkpt lat="49.79243" lon="2.36157">
        <ele>109.2</ele>
        <time>2023-10-11T14:11:49Z</time>
      </trkpt>
      <trkpt lat="49.79242" lon="2.36159">
        <ele>109.2</ele>
        <time>2023-10-11T14:11:50Z</time>
      </trkpt>
      <trkpt lat="49.79242" lon="2.36161">
        <ele>109.2</ele>
        <time>2023-10-11T14:11:52Z</time>
      </trkpt>
      <trkpt lat="49.79241" lon="2.36162">
        <ele>109.2</ele>
        <time>2023-10-11T14:11:53Z</time>
      </trkpt>
      <trkpt lat="49.79241" lon="2.36164">
        <ele>109.2</ele>
        <time>2023-10-11T14:11:54Z</time>
      </trkpt>
      <trkpt lat="49.79241" lon="2.36166">
        <ele>109.2</ele>
        <time>2023-10-11T14:11:55Z</time>
      </trkpt>
      <trkpt lat="49.7924" lon="2.36168">
        <ele>109.2</ele>
        <time>2023-10-11T14:11:56Z</time>
      </trkpt>
      <trkpt lat="49.7924" lon="2.36171">
        <ele>109.2</ele>
        <time>2023-10-11T14:11:57Z</time>
      </trkpt>
      <trkpt lat="49.7924" lon="2.36172">
        <ele>109.2</ele>
        <time>2023-10-11T14:11:58Z</time>
      </trkpt>
      <trkpt lat="49.7924" lon="2.36173">
        <ele>109.2</ele>
        <time>2023-10-11T14:11:59Z</time>
      </trkpt>
      <trkpt lat="49.79239" lon="2.36175">
        <ele>109.2</ele>
        <time>2023-10-11T14:12:00Z</time>
      </trkpt>
      <trkpt lat="49.79239" lon="2.36177">
        <ele>109.2</ele>
        <time>2023-10-11T14:12:01Z</time>
      </trkpt>
      <trkpt lat="49.79239" lon="2.36178">
        <ele>109.2</ele>
        <time>2023-10-11T14:12:02Z</time>
      </trkpt>
      <trkpt lat="49.79239" lon="2.3618">
        <ele>109.2</ele>
        <time>2023-10-11T14:12:03Z</time>
      </trkpt>
      <trkpt lat="49.79239" lon="2.36182">
        <ele>109.2</ele>
        <time>2023-10-11T14:12:04Z</time>
      </trkpt>
      <trkpt lat="49.79238" lon="2.36184">
        <ele>109.2</ele>
        <time>2023-10-11T14:12:05Z</time>
      </trkpt>
      <trkpt lat="49.79238" lon="2.36185">
        <ele>109.2</ele>
        <time>2023-10-11T14:12:06Z</time>
      </trkpt>
      <trkpt lat="49.79238" lon="2.36187">
        <ele>109.2</ele>
        <time>2023-10-11T14:12:07Z</time>
      </trkpt>
      <trkpt lat="49.79237" lon="2.36188">
        <ele>109.2</ele>
        <time>2023-10-11T14:12:08Z</time>
      </trkpt>
      <trkpt lat="49.79237" lon="2.3619">
        <ele>109.2</ele>
        <time>2023-10-11T14:12:09Z</time>
      </trkpt>
      <trkpt lat="49.79237" lon="2.36191">
        <ele>109.2</ele>
        <time>2023-10-11T14:12:10Z</time>
      </trkpt>
      <trkpt lat="49.79236" lon="2.36193">
        <ele>109.2</ele>
        <time>2023-10-11T14:12:11Z</time>
      </trkpt>
      <trkpt lat="49.79236" lon="2.36194">
        <ele>109.2</ele>
        <time>2023-10-11T14:12:12Z</time>
      </trkpt>
      <trkpt lat="49.79235" lon="2.36197">
        <ele>109.2</ele>
        <time>2023-10-11T14:12:13Z</time>
      </trkpt>
      <trkpt lat="49.79235" lon="2.36198">
        <ele>109.2</ele>
        <time>2023-10-11T14:12:15Z</time>
      </trkpt>
      <trkpt lat="49.79234" lon="2.362">
        <ele>109.2</ele>
        <time>2023-10-11T14:12:16Z</time>
      </trkpt>
      <trkpt lat="49.79234" lon="2.36201">
        <ele>109.2</ele>
        <time>2023-10-11T14:12:17Z</time>
      </trkpt>
      <trkpt lat="49.79234" lon="2.36202">
        <ele>109.2</ele>
        <time>2023-10-11T14:12:18Z</time>
      </trkpt>
      <trkpt lat="49.79233" lon="2.36204">
        <ele>109.3</ele>
        <time>2023-10-11T14:12:19Z</time>
      </trkpt>
      <trkpt lat="49.79232" lon="2.36205">
        <ele>109.3</ele>
        <time>2023-10-11T14:12:20Z</time>
      </trkpt>
      <trkpt lat="49.79231" lon="2.36208">
        <ele>109.3</ele>
        <time>2023-10-11T14:12:21Z</time>
      </trkpt>
      <trkpt lat="49.7923" lon="2.36211">
        <ele>109.3</ele>
        <time>2023-10-11T14:12:23Z</time>
      </trkpt>
      <trkpt lat="49.79229" lon="2.36213">
        <ele>109.3</ele>
        <time>2023-10-11T14:12:24Z</time>
      </trkpt>
      <trkpt lat="49.79228" lon="2.36214">
        <ele>109.3</ele>
        <time>2023-10-11T14:12:26Z</time>
      </trkpt>
      <trkpt lat="49.79228" lon="2.36215">
        <ele>109.3</ele>
        <time>2023-10-11T14:12:27Z</time>
      </trkpt>
      <trkpt lat="49.79227" lon="2.36217">
        <ele>109.3</ele>
        <time>2023-10-11T14:12:28Z</time>
      </trkpt>
      <trkpt lat="49.79227" lon="2.36218">
        <ele>109.3</ele>
        <time>2023-10-11T14:12:29Z</time>
      </trkpt>
      <trkpt lat="49.79225" lon="2.36221">
        <ele>109.4</ele>
        <time>2023-10-11T14:12:30Z</time>
      </trkpt>
      <trkpt lat="49.79225" lon="2.36223">
        <ele>109.4</ele>
        <time>2023-10-11T14:12:32Z</time>
      </trkpt>
      <trkpt lat="49.79224" lon="2.36224">
        <ele>109.4</ele>
        <time>2023-10-11T14:12:33Z</time>
      </trkpt>
      <trkpt lat="49.79224" lon="2.36225">
        <ele>109.4</ele>
        <time>2023-10-11T14:12:35Z</time>
      </trkpt>
      <trkpt lat="49.79223" lon="2.36227">
        <ele>109.4</ele>
        <time>2023-10-11T14:12:36Z</time>
      </trkpt>
      <trkpt lat="49.79222" lon="2.36229">
        <ele>109.4</ele>
        <time>2023-10-11T14:12:38Z</time>
      </trkpt>
      <trkpt lat="49.79221" lon="2.36231">
        <ele>109.5</ele>
        <time>2023-10-11T14:12:39Z</time>
      </trkpt>
      <trkpt lat="49.7922" lon="2.36233">
        <ele>109.5</ele>
        <time>2023-10-11T14:12:41Z</time>
      </trkpt>
      <trkpt lat="49.7922" lon="2.36234">
        <ele>109.5</ele>
        <time>2023-10-11T14:12:43Z</time>
      </trkpt>
      <trkpt lat="49.79219" lon="2.36234">
        <ele>109.5</ele>
        <time>2023-10-11T14:12:44Z</time>
      </trkpt>
      <trkpt lat="49.79218" lon="2.36233">
        <ele>109.5</ele>
        <time>2023-10-11T14:12:46Z</time>
      </trkpt>
      <trkpt lat="49.79218" lon="2.36233">
        <ele>109.5</ele>
        <time>2023-10-11T14:12:48Z</time>
      </trkpt>
      <trkpt lat="49.79218" lon="2.36233">
        <ele>109.5</ele>
        <time>2023-10-11T14:12:49Z</time>
      </trkpt>
      <trkpt lat="49.79218" lon="2.36233">
        <ele>109.5</ele>
        <time>2023-10-11T14:12:50Z</time>
      </trkpt>
      <trkpt lat="49.79218" lon="2.36233">
        <ele>109.5</ele>
        <time>2023-10-11T14:12:51Z</time>
      </trkpt>
      <trkpt lat="49.79218" lon="2.36233">
        <ele>109.5</ele>
        <time>2023-10-11T14:12:52Z</time>
      </trkpt>
      <trkpt lat="49.79217" lon="2.36234">
        <ele>109.5</ele>
        <time>2023-10-11T14:12:54Z</time>
      </trkpt>
      <trkpt lat="49.79217" lon="2.36235">
        <ele>109.5</ele>
        <time>2023-10-11T14:12:55Z</time>
      </trkpt>
      <trkpt lat="49.79217" lon="2.36235">
        <ele>109.5</ele>
        <time>2023-10-11T14:12:56Z</time>
      </trkpt>
      <trkpt lat="49.79216" lon="2.36237">
        <ele>109.5</ele>
        <time>2023-10-11T14:12:57Z</time>
      </trkpt>
      <trkpt lat="49.79215" lon="2.36238">
        <ele>109.5</ele>
        <time>2023-10-11T14:12:58Z</time>
      </trkpt>
      <trkpt lat="49.79215" lon="2.3624">
        <ele>109.6</ele>
        <time>2023-10-11T14:13:00Z</time>
      </trkpt>
      <trkpt lat="49.79215" lon="2.36241">
        <ele>109.6</ele>
        <time>2023-10-11T14:13:01Z</time>
      </trkpt>
      <trkpt lat="49.79214" lon="2.36242">
        <ele>109.6</ele>
        <time>2023-10-11T14:13:02Z</time>
      </trkpt>
      <trkpt lat="49.79214" lon="2.36243">
        <ele>109.6</ele>
        <time>2023-10-11T14:13:03Z</time>
      </trkpt>
      <trkpt lat="49.79213" lon="2.36244">
        <ele>109.6</ele>
        <time>2023-10-11T14:13:04Z</time>
      </trkpt>
      <trkpt lat="49.79212" lon="2.36246">
        <ele>109.7</ele>
        <time>2023-10-11T14:13:05Z</time>
      </trkpt>
      <trkpt lat="49.79212" lon="2.36247">
        <ele>109.7</ele>
        <time>2023-10-11T14:13:07Z</time>
      </trkpt>
      <trkpt lat="49.79211" lon="2.36248">
        <ele>109.7</ele>
        <time>2023-10-11T14:13:08Z</time>
      </trkpt>
      <trkpt lat="49.79211" lon="2.36249">
        <ele>109.7</ele>
        <time>2023-10-11T14:13:09Z</time>
      </trkpt>
      <trkpt lat="49.7921" lon="2.3625">
        <ele>109.7</ele>
        <time>2023-10-11T14:13:10Z</time>
      </trkpt>
      <trkpt lat="49.79209" lon="2.36251">
        <ele>109.9</ele>
        <time>2023-10-11T14:13:11Z</time>
      </trkpt>
      <trkpt lat="49.79209" lon="2.36252">
        <ele>109.9</ele>
        <time>2023-10-11T14:13:12Z</time>
      </trkpt>
      <trkpt lat="49.79208" lon="2.36253">
        <ele>109.9</ele>
        <time>2023-10-11T14:13:13Z</time>
      </trkpt>
      <trkpt lat="49.79208" lon="2.36254">
        <ele>110</ele>
        <time>2023-10-11T14:13:14Z</time>
      </trkpt>
      <trkpt lat="49.79207" lon="2.36255">
        <ele>110.1</ele>
        <time>2023-10-11T14:13:15Z</time>
      </trkpt>
      <trkpt lat="49.79206" lon="2.36257">
        <ele>110.1</ele>
        <time>2023-10-11T14:13:16Z</time>
      </trkpt>
      <trkpt lat="49.79205" lon="2.36257">
        <ele>110.1</ele>
        <time>2023-10-11T14:13:18Z</time>
      </trkpt>
      <trkpt lat="49.79204" lon="2.36259">
        <ele>110.4</ele>
        <time>2023-10-11T14:13:19Z</time>
      </trkpt>
      <trkpt lat="49.79203" lon="2.3626">
        <ele>110.4</ele>
        <time>2023-10-11T14:13:21Z</time>
      </trkpt>
      <trkpt lat="49.79202" lon="2.36262">
        <ele>110.4</ele>
        <time>2023-10-11T14:13:22Z</time>
      </trkpt>
      <trkpt lat="49.79202" lon="2.36263">
        <ele>110.6</ele>
        <time>2023-10-11T14:13:23Z</time>
      </trkpt>
      <trkpt lat="49.792" lon="2.36265">
        <ele>110.8</ele>
        <time>2023-10-11T14:13:24Z</time>
      </trkpt>
      <trkpt lat="49.792" lon="2.36266">
        <ele>110.8</ele>
        <time>2023-10-11T14:13:25Z</time>
      </trkpt>
      <trkpt lat="49.79199" lon="2.36267">
        <ele>110.9</ele>
        <time>2023-10-11T14:13:26Z</time>
      </trkpt>
      <trkpt lat="49.79198" lon="2.36268">
        <ele>111.1</ele>
        <time>2023-10-11T14:13:28Z</time>
      </trkpt>
      <trkpt lat="49.79198" lon="2.36269">
        <ele>111.1</ele>
        <time>2023-10-11T14:13:29Z</time>
      </trkpt>
      <trkpt lat="49.79197" lon="2.36271">
        <ele>111.3</ele>
        <time>2023-10-11T14:13:30Z</time>
      </trkpt>
      <trkpt lat="49.79195" lon="2.36273">
        <ele>111.4</ele>
        <time>2023-10-11T14:13:32Z</time>
      </trkpt>
      <trkpt lat="49.79195" lon="2.36274">
        <ele>111.4</ele>
        <time>2023-10-11T14:13:33Z</time>
      </trkpt>
      <trkpt lat="49.79195" lon="2.36274">
        <ele>111.4</ele>
        <time>2023-10-11T14:13:34Z</time>
      </trkpt>
      <trkpt lat="49.79194" lon="2.36276">
        <ele>111.5</ele>
        <time>2023-10-11T14:13:35Z</time>
      </trkpt>
      <trkpt lat="49.79193" lon="2.36277">
        <ele>111.5</ele>
        <time>2023-10-11T14:13:36Z</time>
      </trkpt>
      <trkpt lat="49.79193" lon="2.36278">
        <ele>111.6</ele>
        <time>2023-10-11T14:13:37Z</time>
      </trkpt>
      <trkpt lat="49.79192" lon="2.36279">
        <ele>111.6</ele>
        <time>2023-10-11T14:13:38Z</time>
      </trkpt>
      <trkpt lat="49.79191" lon="2.36281">
        <ele>111.8</ele>
        <time>2023-10-11T14:13:39Z</time>
      </trkpt>
      <trkpt lat="49.7919" lon="2.36282">
        <ele>111.8</ele>
        <time>2023-10-11T14:13:41Z</time>
      </trkpt>
      <trkpt lat="49.7919" lon="2.36283">
        <ele>111.8</ele>
        <time>2023-10-11T14:13:42Z</time>
      </trkpt>
      <trkpt lat="49.79189" lon="2.36284">
        <ele>112</ele>
        <time>2023-10-11T14:13:43Z</time>
      </trkpt>
      <trkpt lat="49.79189" lon="2.36285">
        <ele>112</ele>
        <time>2023-10-11T14:13:44Z</time>
      </trkpt>
      <trkpt lat="49.79189" lon="2.36286">
        <ele>112</ele>
        <time>2023-10-11T14:13:46Z</time>
      </trkpt>
      <trkpt lat="49.79188" lon="2.36287">
        <ele>112</ele>
        <time>2023-10-11T14:13:47Z</time>
      </trkpt>
      <trkpt lat="49.79188" lon="2.36289">
        <ele>112.1</ele>
        <time>2023-10-11T14:13:48Z</time>
      </trkpt>
      <trkpt lat="49.79187" lon="2.3629">
        <ele>112.1</ele>
        <time>2023-10-11T14:13:50Z</time>
      </trkpt>
      <trkpt lat="49.79187" lon="2.36291">
        <ele>112.1</ele>
        <time>2023-10-11T14:13:51Z</time>
      </trkpt>
      <trkpt lat="49.79186" lon="2.36291">
        <ele>112.1</ele>
        <time>2023-10-11T14:13:52Z</time>
      </trkpt>
      <trkpt lat="49.79186" lon="2.36292">
        <ele>112.2</ele>
        <time>2023-10-11T14:13:53Z</time>
      </trkpt>
      <trkpt lat="49.79185" lon="2.36293">
        <ele>112.2</ele>
        <time>2023-10-11T14:13:54Z</time>
      </trkpt>
      <trkpt lat="49.79185" lon="2.36295">
        <ele>112.2</ele>
        <time>2023-10-11T14:13:55Z</time>
      </trkpt>
      <trkpt lat="49.79184" lon="2.36296">
        <ele>112.2</ele>
        <time>2023-10-11T14:13:57Z</time>
      </trkpt>
      <trkpt lat="49.79184" lon="2.36297">
        <ele>112.3</ele>
        <time>2023-10-11T14:13:58Z</time>
      </trkpt>
      <trkpt lat="49.79184" lon="2.36297">
        <ele>112.3</ele>
        <time>2023-10-11T14:13:59Z</time>
      </trkpt>
      <trkpt lat="49.79184" lon="2.36298">
        <ele>112.3</ele>
        <time>2023-10-11T14:14:00Z</time>
      </trkpt>
      <trkpt lat="49.79183" lon="2.36299">
        <ele>112.3</ele>
        <time>2023-10-11T14:14:01Z</time>
      </trkpt>
      <trkpt lat="49.79184" lon="2.36299">
        <ele>112.3</ele>
        <time>2023-10-11T14:14:03Z</time>
      </trkpt>
      <trkpt lat="49.79184" lon="2.36298">
        <ele>112.3</ele>
        <time>2023-10-11T14:14:05Z</time>
      </trkpt>
      <trkpt lat="49.79183" lon="2.36299">
        <ele>112.3</ele>
        <time>2023-10-11T14:14:07Z</time>
      </trkpt>
      <trkpt lat="49.79183" lon="2.36299">
        <ele>112.3</ele>
        <time>2023-10-11T14:14:08Z</time>
      </trkpt>
      <trkpt lat="49.79182" lon="2.363">
        <ele>112.3</ele>
        <time>2023-10-11T14:14:10Z</time>
      </trkpt>
      <trkpt lat="49.79182" lon="2.36301">
        <ele>112.4</ele>
        <time>2023-10-11T14:14:11Z</time>
      </trkpt>
      <trkpt lat="49.79181" lon="2.36302">
        <ele>112.4</ele>
        <time>2023-10-11T14:14:13Z</time>
      </trkpt>
      <trkpt lat="49.79181" lon="2.36303">
        <ele>112.4</ele>
        <time>2023-10-11T14:14:14Z</time>
      </trkpt>
      <trkpt lat="49.7918" lon="2.36303">
        <ele>112.4</ele>
        <time>2023-10-11T14:14:15Z</time>
      </trkpt>
      <trkpt lat="49.7918" lon="2.36304">
        <ele>112.4</ele>
        <time>2023-10-11T14:14:16Z</time>
      </trkpt>
      <trkpt lat="49.7918" lon="2.36304">
        <ele>112.4</ele>
        <time>2023-10-11T14:14:17Z</time>
      </trkpt>
      <trkpt lat="49.79179" lon="2.36305">
        <ele>112.4</ele>
        <time>2023-10-11T14:14:18Z</time>
      </trkpt>
      <trkpt lat="49.79178" lon="2.36306">
        <ele>112.5</ele>
        <time>2023-10-11T14:14:19Z</time>
      </trkpt>
      <trkpt lat="49.79177" lon="2.36308">
        <ele>112.5</ele>
        <time>2023-10-11T14:14:21Z</time>
      </trkpt>
      <trkpt lat="49.79176" lon="2.36308">
        <ele>112.5</ele>
        <time>2023-10-11T14:14:23Z</time>
      </trkpt>
      <trkpt lat="49.79176" lon="2.36309">
        <ele>112.6</ele>
        <time>2023-10-11T14:14:24Z</time>
      </trkpt>
      <trkpt lat="49.79175" lon="2.3631">
        <ele>112.6</ele>
        <time>2023-10-11T14:14:25Z</time>
      </trkpt>
      <trkpt lat="49.79174" lon="2.36311">
        <ele>112.6</ele>
        <time>2023-10-11T14:14:26Z</time>
      </trkpt>
      <trkpt lat="49.79173" lon="2.36313">
        <ele>112.6</ele>
        <time>2023-10-11T14:14:27Z</time>
      </trkpt>
      <trkpt lat="49.79172" lon="2.36314">
        <ele>112.7</ele>
        <time>2023-10-11T14:14:29Z</time>
      </trkpt>
      <trkpt lat="49.79172" lon="2.36315">
        <ele>112.7</ele>
        <time>2023-10-11T14:14:30Z</time>
      </trkpt>
      <trkpt lat="49.79171" lon="2.36315">
        <ele>112.7</ele>
        <time>2023-10-11T14:14:31Z</time>
      </trkpt>
      <trkpt lat="49.7917" lon="2.36316">
        <ele>112.7</ele>
        <time>2023-10-11T14:14:32Z</time>
      </trkpt>
      <trkpt lat="49.7917" lon="2.36316">
        <ele>112.7</ele>
        <time>2023-10-11T14:14:33Z</time>
      </trkpt>
      <trkpt lat="49.79169" lon="2.36316">
        <ele>112.7</ele>
        <time>2023-10-11T14:14:34Z</time>
      </trkpt>
      <trkpt lat="49.79169" lon="2.36316">
        <ele>112.7</ele>
        <time>2023-10-11T14:14:35Z</time>
      </trkpt>
      <trkpt lat="49.79168" lon="2.36317">
        <ele>112.8</ele>
        <time>2023-10-11T14:14:36Z</time>
      </trkpt>
      <trkpt lat="49.79168" lon="2.36317">
        <ele>112.8</ele>
        <time>2023-10-11T14:14:38Z</time>
      </trkpt>
      <trkpt lat="49.79168" lon="2.36317">
        <ele>112.8</ele>
        <time>2023-10-11T14:14:39Z</time>
      </trkpt>
      <trkpt lat="49.79168" lon="2.36318">
        <ele>112.8</ele>
        <time>2023-10-11T14:14:40Z</time>
      </trkpt>
      <trkpt lat="49.79168" lon="2.36318">
        <ele>112.8</ele>
        <time>2023-10-11T14:14:41Z</time>
      </trkpt>
      <trkpt lat="49.79168" lon="2.36318">
        <ele>112.8</ele>
        <time>2023-10-11T14:14:42Z</time>
      </trkpt>
      <trkpt lat="49.79167" lon="2.36318">
        <ele>112.8</ele>
        <time>2023-10-11T14:14:44Z</time>
      </trkpt>
      <trkpt lat="49.79167" lon="2.36318">
        <ele>112.8</ele>
        <time>2023-10-11T14:14:45Z</time>
      </trkpt>
      <trkpt lat="49.79168" lon="2.36317">
        <ele>112.8</ele>
        <time>2023-10-11T14:14:46Z</time>
      </trkpt>
      <trkpt lat="49.79168" lon="2.36317">
        <ele>112.8</ele>
        <time>2023-10-11T14:14:47Z</time>
      </trkpt>
      <trkpt lat="49.79168" lon="2.36317">
        <ele>112.8</ele>
        <time>2023-10-11T14:14:49Z</time>
      </trkpt>
      <trkpt lat="49.79168" lon="2.36317">
        <ele>112.8</ele>
        <time>2023-10-11T14:14:50Z</time>
      </trkpt>
      <trkpt lat="49.79168" lon="2.36317">
        <ele>112.8</ele>
        <time>2023-10-11T14:14:51Z</time>
      </trkpt>
      <trkpt lat="49.79168" lon="2.36317">
        <ele>112.8</ele>
        <time>2023-10-11T14:14:52Z</time>
      </trkpt>
      <trkpt lat="49.79168" lon="2.36317">
        <ele>112.8</ele>
        <time>2023-10-11T14:14:53Z</time>
      </trkpt>
      <trkpt lat="49.79168" lon="2.36317">
        <ele>112.8</ele>
        <time>2023-10-11T14:14:54Z</time>
      </trkpt>
      <trkpt lat="49.79169" lon="2.36316">
        <ele>112.8</ele>
        <time>2023-10-11T14:14:55Z</time>
      </trkpt>
      <trkpt lat="49.79169" lon="2.36316">
        <ele>112.8</ele>
        <time>2023-10-11T14:14:56Z</time>
      </trkpt>
      <trkpt lat="49.79169" lon="2.36316">
        <ele>112.8</ele>
        <time>2023-10-11T14:14:57Z</time>
      </trkpt>
      <trkpt lat="49.79168" lon="2.36317">
        <ele>112.8</ele>
        <time>2023-10-11T14:14:58Z</time>
      </trkpt>
      <trkpt lat="49.79168" lon="2.36318">
        <ele>112.9</ele>
        <time>2023-10-11T14:14:59Z</time>
      </trkpt>
      <trkpt lat="49.79168" lon="2.36319">
        <ele>112.9</ele>
        <time>2023-10-11T14:15:01Z</time>
      </trkpt>
      <trkpt lat="49.79167" lon="2.36319">
        <ele>112.9</ele>
        <time>2023-10-11T14:15:02Z</time>
      </trkpt>
      <trkpt lat="49.79167" lon="2.36319">
        <ele>112.9</ele>
        <time>2023-10-11T14:15:03Z</time>
      </trkpt>
      <trkpt lat="49.79166" lon="2.3632">
        <ele>112.9</ele>
        <time>2023-10-11T14:15:04Z</time>
      </trkpt>
      <trkpt lat="49.79165" lon="2.36321">
        <ele>112.9</ele>
        <time>2023-10-11T14:15:05Z</time>
      </trkpt>
      <trkpt lat="49.79164" lon="2.36322">
        <ele>113</ele>
        <time>2023-10-11T14:15:07Z</time>
      </trkpt>
      <trkpt lat="49.79163" lon="2.36323">
        <ele>113</ele>
        <time>2023-10-11T14:15:09Z</time>
      </trkpt>
      <trkpt lat="49.79163" lon="2.36324">
        <ele>113</ele>
        <time>2023-10-11T14:15:10Z</time>
      </trkpt>
      <trkpt lat="49.79161" lon="2.36325">
        <ele>113</ele>
        <time>2023-10-11T14:15:11Z</time>
      </trkpt>
      <trkpt lat="49.79161" lon="2.36326">
        <ele>113</ele>
        <time>2023-10-11T14:15:12Z</time>
      </trkpt>
      <trkpt lat="49.7916" lon="2.36326">
        <ele>113</ele>
        <time>2023-10-11T14:15:13Z</time>
      </trkpt>
      <trkpt lat="49.7916" lon="2.36327">
        <ele>113.1</ele>
        <time>2023-10-11T14:15:14Z</time>
      </trkpt>
      <trkpt lat="49.79159" lon="2.3633">
        <ele>113.1</ele>
        <time>2023-10-11T14:15:15Z</time>
      </trkpt>
      <trkpt lat="49.79158" lon="2.36331">
        <ele>113.1</ele>
        <time>2023-10-11T14:15:16Z</time>
      </trkpt>
      <trkpt lat="49.79158" lon="2.36332">
        <ele>113.1</ele>
        <time>2023-10-11T14:15:17Z</time>
      </trkpt>
      <trkpt lat="49.79156" lon="2.36335">
        <ele>113.2</ele>
        <time>2023-10-11T14:15:18Z</time>
      </trkpt>
      <trkpt lat="49.79156" lon="2.36336">
        <ele>113.2</ele>
        <time>2023-10-11T14:15:19Z</time>
      </trkpt>
      <trkpt lat="49.79155" lon="2.36337">
        <ele>113.2</ele>
        <time>2023-10-11T14:15:20Z</time>
      </trkpt>
      <trkpt lat="49.79155" lon="2.36339">
        <ele>113.2</ele>
        <time>2023-10-11T14:15:21Z</time>
      </trkpt>
      <trkpt lat="49.79154" lon="2.36341">
        <ele>113.3</ele>
        <time>2023-10-11T14:15:22Z</time>
      </trkpt>
      <trkpt lat="49.79153" lon="2.36343">
        <ele>113.3</ele>
        <time>2023-10-11T14:15:23Z</time>
      </trkpt>
      <trkpt lat="49.79152" lon="2.36346">
        <ele>113.3</ele>
        <time>2023-10-11T14:15:24Z</time>
      </trkpt>
      <trkpt lat="49.79151" lon="2.3635">
        <ele>113.4</ele>
        <time>2023-10-11T14:15:25Z</time>
      </trkpt>
      <trkpt lat="49.79151" lon="2.36351">
        <ele>113.4</ele>
        <time>2023-10-11T14:15:26Z</time>
      </trkpt>
      <trkpt lat="49.79149" lon="2.36354">
        <ele>113.4</ele>
        <time>2023-10-11T14:15:27Z</time>
      </trkpt>
      <trkpt lat="49.79148" lon="2.36356">
        <ele>113.5</ele>
        <time>2023-10-11T14:15:28Z</time>
      </trkpt>
      <trkpt lat="49.79147" lon="2.36358">
        <ele>113.5</ele>
        <time>2023-10-11T14:15:29Z</time>
      </trkpt>
      <trkpt lat="49.79146" lon="2.36359">
        <ele>113.6</ele>
        <time>2023-10-11T14:15:31Z</time>
      </trkpt>
      <trkpt lat="49.79145" lon="2.36361">
        <ele>113.6</ele>
        <time>2023-10-11T14:15:32Z</time>
      </trkpt>
      <trkpt lat="49.79144" lon="2.36362">
        <ele>113.6</ele>
        <time>2023-10-11T14:15:34Z</time>
      </trkpt>
      <trkpt lat="49.79143" lon="2.36363">
        <ele>113.6</ele>
        <time>2023-10-11T14:15:35Z</time>
      </trkpt>
      <trkpt lat="49.79142" lon="2.36366">
        <ele>113.6</ele>
        <time>2023-10-11T14:15:36Z</time>
      </trkpt>
      <trkpt lat="49.79141" lon="2.36368">
        <ele>113.6</ele>
        <time>2023-10-11T14:15:38Z</time>
      </trkpt>
      <trkpt lat="49.7914" lon="2.36371">
        <ele>113.7</ele>
        <time>2023-10-11T14:15:39Z</time>
      </trkpt>
      <trkpt lat="49.79139" lon="2.36372">
        <ele>113.7</ele>
        <time>2023-10-11T14:15:40Z</time>
      </trkpt>
      <trkpt lat="49.79137" lon="2.36375">
        <ele>113.7</ele>
        <time>2023-10-11T14:15:42Z</time>
      </trkpt>
      <trkpt lat="49.79136" lon="2.36377">
        <ele>113.7</ele>
        <time>2023-10-11T14:15:44Z</time>
      </trkpt>
      <trkpt lat="49.79136" lon="2.36378">
        <ele>113.7</ele>
        <time>2023-10-11T14:15:46Z</time>
      </trkpt>
      <trkpt lat="49.79135" lon="2.36379">
        <ele>113.7</ele>
        <time>2023-10-11T14:15:47Z</time>
      </trkpt>
      <trkpt lat="49.79135" lon="2.3638">
        <ele>113.7</ele>
        <time>2023-10-11T14:15:48Z</time>
      </trkpt>
      <trkpt lat="49.79134" lon="2.36381">
        <ele>113.7</ele>
        <time>2023-10-11T14:15:49Z</time>
      </trkpt>
      <trkpt lat="49.79133" lon="2.36383">
        <ele>113.7</ele>
        <time>2023-10-11T14:15:50Z</time>
      </trkpt>
      <trkpt lat="49.79132" lon="2.36384">
        <ele>113.7</ele>
        <time>2023-10-11T14:15:52Z</time>
      </trkpt>
      <trkpt lat="49.79131" lon="2.36385">
        <ele>113.7</ele>
        <time>2023-10-11T14:15:54Z</time>
      </trkpt>
      <trkpt lat="49.7913" lon="2.36386">
        <ele>113.7</ele>
        <time>2023-10-11T14:15:55Z</time>
      </trkpt>
      <trkpt lat="49.7913" lon="2.36386">
        <ele>113.7</ele>
        <time>2023-10-11T14:15:56Z</time>
      </trkpt>
      <trkpt lat="49.79129" lon="2.36387">
        <ele>113.7</ele>
        <time>2023-10-11T14:15:57Z</time>
      </trkpt>
      <trkpt lat="49.79129" lon="2.36387">
        <ele>113.7</ele>
        <time>2023-10-11T14:15:58Z</time>
      </trkpt>
      <trkpt lat="49.79128" lon="2.36389">
        <ele>113.7</ele>
        <time>2023-10-11T14:15:59Z</time>
      </trkpt>
      <trkpt lat="49.79127" lon="2.36389">
        <ele>113.7</ele>
        <time>2023-10-11T14:16:00Z</time>
      </trkpt>
      <trkpt lat="49.79126" lon="2.3639">
        <ele>113.6</ele>
        <time>2023-10-11T14:16:02Z</time>
      </trkpt>
      <trkpt lat="49.79125" lon="2.36392">
        <ele>113.7</ele>
        <time>2023-10-11T14:16:03Z</time>
      </trkpt>
      <trkpt lat="49.79124" lon="2.36394">
        <ele>113.7</ele>
        <time>2023-10-11T14:16:05Z</time>
      </trkpt>
      <trkpt lat="49.79123" lon="2.36395">
        <ele>113.6</ele>
        <time>2023-10-11T14:16:07Z</time>
      </trkpt>
      <trkpt lat="49.79122" lon="2.36396">
        <ele>113.6</ele>
        <time>2023-10-11T14:16:08Z</time>
      </trkpt>
      <trkpt lat="49.79121" lon="2.36397">
        <ele>113.6</ele>
        <time>2023-10-11T14:16:10Z</time>
      </trkpt>
      <trkpt lat="49.7912" lon="2.36399">
        <ele>113.6</ele>
        <time>2023-10-11T14:16:11Z</time>
      </trkpt>
      <trkpt lat="49.79119" lon="2.364">
        <ele>113.6</ele>
        <time>2023-10-11T14:16:12Z</time>
      </trkpt>
      <trkpt lat="49.79118" lon="2.36401">
        <ele>113.6</ele>
        <time>2023-10-11T14:16:13Z</time>
      </trkpt>
      <trkpt lat="49.79117" lon="2.36402">
        <ele>113.6</ele>
        <time>2023-10-11T14:16:14Z</time>
      </trkpt>
      <trkpt lat="49.79115" lon="2.36405">
        <ele>113.6</ele>
        <time>2023-10-11T14:16:15Z</time>
      </trkpt>
      <trkpt lat="49.79113" lon="2.36406">
        <ele>113.6</ele>
        <time>2023-10-11T14:16:17Z</time>
      </trkpt>
      <trkpt lat="49.79111" lon="2.36407">
        <ele>113.5</ele>
        <time>2023-10-11T14:16:18Z</time>
      </trkpt>
      <trkpt lat="49.7911" lon="2.36408">
        <ele>113.5</ele>
        <time>2023-10-11T14:16:19Z</time>
      </trkpt>
      <trkpt lat="49.79109" lon="2.36408">
        <ele>113.5</ele>
        <time>2023-10-11T14:16:20Z</time>
      </trkpt>
      <trkpt lat="49.79108" lon="2.36409">
        <ele>113.5</ele>
        <time>2023-10-11T14:16:21Z</time>
      </trkpt>
      <trkpt lat="49.79107" lon="2.3641">
        <ele>113.5</ele>
        <time>2023-10-11T14:16:22Z</time>
      </trkpt>
      <trkpt lat="49.79105" lon="2.36411">
        <ele>113.5</ele>
        <time>2023-10-11T14:16:23Z</time>
      </trkpt>
      <trkpt lat="49.79103" lon="2.36413">
        <ele>113.5</ele>
        <time>2023-10-11T14:16:25Z</time>
      </trkpt>
      <trkpt lat="49.79102" lon="2.36413">
        <ele>113.5</ele>
        <time>2023-10-11T14:16:26Z</time>
      </trkpt>
      <trkpt lat="49.79102" lon="2.36413">
        <ele>113.5</ele>
        <time>2023-10-11T14:16:27Z</time>
      </trkpt>
      <trkpt lat="49.79101" lon="2.36414">
        <ele>113.5</ele>
        <time>2023-10-11T14:16:29Z</time>
      </trkpt>
      <trkpt lat="49.791" lon="2.36414">
        <ele>113.5</ele>
        <time>2023-10-11T14:16:30Z</time>
      </trkpt>
      <trkpt lat="49.79099" lon="2.36414">
        <ele>113.5</ele>
        <time>2023-10-11T14:16:31Z</time>
      </trkpt>
      <trkpt lat="49.79098" lon="2.36414">
        <ele>113.4</ele>
        <time>2023-10-11T14:16:32Z</time>
      </trkpt>
      <trkpt lat="49.79097" lon="2.36415">
        <ele>113.4</ele>
        <time>2023-10-11T14:16:33Z</time>
      </trkpt>
      <trkpt lat="49.79096" lon="2.36415">
        <ele>113.4</ele>
        <time>2023-10-11T14:16:34Z</time>
      </trkpt>
      <trkpt lat="49.79096" lon="2.36416">
        <ele>113.4</ele>
        <time>2023-10-11T14:16:35Z</time>
      </trkpt>
      <trkpt lat="49.79095" lon="2.36416">
        <ele>113.4</ele>
        <time>2023-10-11T14:16:36Z</time>
      </trkpt>
      <trkpt lat="49.79094" lon="2.36417">
        <ele>113.5</ele>
        <time>2023-10-11T14:16:37Z</time>
      </trkpt>
      <trkpt lat="49.79093" lon="2.36417">
        <ele>113.4</ele>
        <time>2023-10-11T14:16:38Z</time>
      </trkpt>
      <trkpt lat="49.79093" lon="2.36417">
        <ele>113.4</ele>
        <time>2023-10-11T14:16:39Z</time>
      </trkpt>
      <trkpt lat="49.79092" lon="2.36418">
        <ele>113.4</ele>
        <time>2023-10-11T14:16:40Z</time>
      </trkpt>
      <trkpt lat="49.79091" lon="2.36418">
        <ele>113.4</ele>
        <time>2023-10-11T14:16:41Z</time>
      </trkpt>
      <trkpt lat="49.7909" lon="2.36419">
        <ele>113.4</ele>
        <time>2023-10-11T14:16:42Z</time>
      </trkpt>
      <trkpt lat="49.79089" lon="2.3642">
        <ele>113.4</ele>
        <time>2023-10-11T14:16:43Z</time>
      </trkpt>
      <trkpt lat="49.79088" lon="2.36421">
        <ele>113.4</ele>
        <time>2023-10-11T14:16:44Z</time>
      </trkpt>
      <trkpt lat="49.79086" lon="2.36422">
        <ele>113.5</ele>
        <time>2023-10-11T14:16:45Z</time>
      </trkpt>
      <trkpt lat="49.79086" lon="2.36423">
        <ele>113.5</ele>
        <time>2023-10-11T14:16:46Z</time>
      </trkpt>
      <trkpt lat="49.79085" lon="2.36424">
        <ele>113.5</ele>
        <time>2023-10-11T14:16:48Z</time>
      </trkpt>
      <trkpt lat="49.79084" lon="2.36425">
        <ele>113.5</ele>
        <time>2023-10-11T14:16:49Z</time>
      </trkpt>
      <trkpt lat="49.79083" lon="2.36425">
        <ele>113.5</ele>
        <time>2023-10-11T14:16:50Z</time>
      </trkpt>
      <trkpt lat="49.79082" lon="2.36426">
        <ele>113.5</ele>
        <time>2023-10-11T14:16:51Z</time>
      </trkpt>
      <trkpt lat="49.79081" lon="2.36427">
        <ele>113.5</ele>
        <time>2023-10-11T14:16:52Z</time>
      </trkpt>
      <trkpt lat="49.7908" lon="2.36427">
        <ele>113.5</ele>
        <time>2023-10-11T14:16:53Z</time>
      </trkpt>
      <trkpt lat="49.7908" lon="2.36428">
        <ele>113.5</ele>
        <time>2023-10-11T14:16:54Z</time>
      </trkpt>
      <trkpt lat="49.79079" lon="2.36428">
        <ele>113.5</ele>
        <time>2023-10-11T14:16:55Z</time>
      </trkpt>
      <trkpt lat="49.79078" lon="2.36429">
        <ele>113.5</ele>
        <time>2023-10-11T14:16:56Z</time>
      </trkpt>
      <trkpt lat="49.79077" lon="2.36429">
        <ele>113.6</ele>
        <time>2023-10-11T14:16:57Z</time>
      </trkpt>
      <trkpt lat="49.79076" lon="2.3643">
        <ele>113.6</ele>
        <time>2023-10-11T14:16:58Z</time>
      </trkpt>
      <trkpt lat="49.79074" lon="2.36431">
        <ele>113.6</ele>
        <time>2023-10-11T14:16:59Z</time>
      </trkpt>
      <trkpt lat="49.79074" lon="2.36431">
        <ele>113.6</ele>
        <time>2023-10-11T14:17:00Z</time>
      </trkpt>
      <trkpt lat="49.79073" lon="2.36432">
        <ele>113.6</ele>
        <time>2023-10-11T14:17:01Z</time>
      </trkpt>
      <trkpt lat="49.79072" lon="2.36433">
        <ele>113.6</ele>
        <time>2023-10-11T14:17:02Z</time>
      </trkpt>
      <trkpt lat="49.7907" lon="2.36434">
        <ele>113.6</ele>
        <time>2023-10-11T14:17:03Z</time>
      </trkpt>
      <trkpt lat="49.79069" lon="2.36435">
        <ele>113.7</ele>
        <time>2023-10-11T14:17:04Z</time>
      </trkpt>
      <trkpt lat="49.79068" lon="2.36436">
        <ele>113.7</ele>
        <time>2023-10-11T14:17:05Z</time>
      </trkpt>
      <trkpt lat="49.79066" lon="2.36437">
        <ele>113.7</ele>
        <time>2023-10-11T14:17:06Z</time>
      </trkpt>
      <trkpt lat="49.79065" lon="2.36438">
        <ele>113.8</ele>
        <time>2023-10-11T14:17:07Z</time>
      </trkpt>
      <trkpt lat="49.79063" lon="2.3644">
        <ele>113.8</ele>
        <time>2023-10-11T14:17:08Z</time>
      </trkpt>
      <trkpt lat="49.79062" lon="2.36441">
        <ele>113.9</ele>
        <time>2023-10-11T14:17:09Z</time>
      </trkpt>
      <trkpt lat="49.79061" lon="2.36442">
        <ele>113.9</ele>
        <time>2023-10-11T14:17:11Z</time>
      </trkpt>
      <trkpt lat="49.79061" lon="2.36443">
        <ele>113.9</ele>
        <time>2023-10-11T14:17:12Z</time>
      </trkpt>
      <trkpt lat="49.7906" lon="2.36444">
        <ele>113.9</ele>
        <time>2023-10-11T14:17:13Z</time>
      </trkpt>
      <trkpt lat="49.7906" lon="2.36445">
        <ele>114</ele>
        <time>2023-10-11T14:17:14Z</time>
      </trkpt>
      <trkpt lat="49.79059" lon="2.36446">
        <ele>114</ele>
        <time>2023-10-11T14:17:15Z</time>
      </trkpt>
      <trkpt lat="49.79059" lon="2.36447">
        <ele>114</ele>
        <time>2023-10-11T14:17:16Z</time>
      </trkpt>
      <trkpt lat="49.79058" lon="2.3645">
        <ele>114</ele>
        <time>2023-10-11T14:17:17Z</time>
      </trkpt>
      <trkpt lat="49.79057" lon="2.36451">
        <ele>114.1</ele>
        <time>2023-10-11T14:17:19Z</time>
      </trkpt>
      <trkpt lat="49.79057" lon="2.36452">
        <ele>114.1</ele>
        <time>2023-10-11T14:17:20Z</time>
      </trkpt>
      <trkpt lat="49.79056" lon="2.36455">
        <ele>114.1</ele>
        <time>2023-10-11T14:17:21Z</time>
      </trkpt>
      <trkpt lat="49.79056" lon="2.36456">
        <ele>114.2</ele>
        <time>2023-10-11T14:17:23Z</time>
      </trkpt>
      <trkpt lat="49.79055" lon="2.36459">
        <ele>114.2</ele>
        <time>2023-10-11T14:17:24Z</time>
      </trkpt>
      <trkpt lat="49.79054" lon="2.36461">
        <ele>114.2</ele>
        <time>2023-10-11T14:17:26Z</time>
      </trkpt>
      <trkpt lat="49.79053" lon="2.36462">
        <ele>114.2</ele>
        <time>2023-10-11T14:17:28Z</time>
      </trkpt>
      <trkpt lat="49.79052" lon="2.36463">
        <ele>114.3</ele>
        <time>2023-10-11T14:17:29Z</time>
      </trkpt>
      <trkpt lat="49.79051" lon="2.36465">
        <ele>114.3</ele>
        <time>2023-10-11T14:17:30Z</time>
      </trkpt>
      <trkpt lat="49.79051" lon="2.36466">
        <ele>114.3</ele>
        <time>2023-10-11T14:17:31Z</time>
      </trkpt>
      <trkpt lat="49.7905" lon="2.36467">
        <ele>114.3</ele>
        <time>2023-10-11T14:17:32Z</time>
      </trkpt>
      <trkpt lat="49.79049" lon="2.36468">
        <ele>114.4</ele>
        <time>2023-10-11T14:17:33Z</time>
      </trkpt>
      <trkpt lat="49.79048" lon="2.36468">
        <ele>114.4</ele>
        <time>2023-10-11T14:17:34Z</time>
      </trkpt>
      <trkpt lat="49.79047" lon="2.36469">
        <ele>114.4</ele>
        <time>2023-10-11T14:17:35Z</time>
      </trkpt>
      <trkpt lat="49.79046" lon="2.3647">
        <ele>114.5</ele>
        <time>2023-10-11T14:17:36Z</time>
      </trkpt>
      <trkpt lat="49.79044" lon="2.36471">
        <ele>114.5</ele>
        <time>2023-10-11T14:17:37Z</time>
      </trkpt>
      <trkpt lat="49.79043" lon="2.36471">
        <ele>114.5</ele>
        <time>2023-10-11T14:17:39Z</time>
      </trkpt>
      <trkpt lat="49.79041" lon="2.36471">
        <ele>114.5</ele>
        <time>2023-10-11T14:17:40Z</time>
      </trkpt>
      <trkpt lat="49.7904" lon="2.36472">
        <ele>114.6</ele>
        <time>2023-10-11T14:17:41Z</time>
      </trkpt>
      <trkpt lat="49.79039" lon="2.36473">
        <ele>114.6</ele>
        <time>2023-10-11T14:17:43Z</time>
      </trkpt>
      <trkpt lat="49.79038" lon="2.36474">
        <ele>114.6</ele>
        <time>2023-10-11T14:17:44Z</time>
      </trkpt>
      <trkpt lat="49.79037" lon="2.36474">
        <ele>114.6</ele>
        <time>2023-10-11T14:17:45Z</time>
      </trkpt>
      <trkpt lat="49.79037" lon="2.36475">
        <ele>114.6</ele>
        <time>2023-10-11T14:17:46Z</time>
      </trkpt>
      <trkpt lat="49.79036" lon="2.36476">
        <ele>114.6</ele>
        <time>2023-10-11T14:17:47Z</time>
      </trkpt>
      <trkpt lat="49.79036" lon="2.36476">
        <ele>114.6</ele>
        <time>2023-10-11T14:17:48Z</time>
      </trkpt>
      <trkpt lat="49.79035" lon="2.36477">
        <ele>114.7</ele>
        <time>2023-10-11T14:17:49Z</time>
      </trkpt>
      <trkpt lat="49.79035" lon="2.36478">
        <ele>114.7</ele>
        <time>2023-10-11T14:17:50Z</time>
      </trkpt>
      <trkpt lat="49.79034" lon="2.36479">
        <ele>114.7</ele>
        <time>2023-10-11T14:17:51Z</time>
      </trkpt>
      <trkpt lat="49.79034" lon="2.3648">
        <ele>114.7</ele>
        <time>2023-10-11T14:17:53Z</time>
      </trkpt>
      <trkpt lat="49.79033" lon="2.36481">
        <ele>114.8</ele>
        <time>2023-10-11T14:17:54Z</time>
      </trkpt>
      <trkpt lat="49.79032" lon="2.36483">
        <ele>114.8</ele>
        <time>2023-10-11T14:17:55Z</time>
      </trkpt>
      <trkpt lat="49.79032" lon="2.36485">
        <ele>114.8</ele>
        <time>2023-10-11T14:17:56Z</time>
      </trkpt>
      <trkpt lat="49.79032" lon="2.36486">
        <ele>114.8</ele>
        <time>2023-10-11T14:17:57Z</time>
      </trkpt>
      <trkpt lat="49.79031" lon="2.36487">
        <ele>114.8</ele>
        <time>2023-10-11T14:17:59Z</time>
      </trkpt>
      <trkpt lat="49.79031" lon="2.36488">
        <ele>114.8</ele>
        <time>2023-10-11T14:18:00Z</time>
      </trkpt>
      <trkpt lat="49.7903" lon="2.3649">
        <ele>114.9</ele>
        <time>2023-10-11T14:18:01Z</time>
      </trkpt>
      <trkpt lat="49.79029" lon="2.36493">
        <ele>114.9</ele>
        <time>2023-10-11T14:18:03Z</time>
      </trkpt>
      <trkpt lat="49.79028" lon="2.36495">
        <ele>115</ele>
        <time>2023-10-11T14:18:05Z</time>
      </trkpt>
      <trkpt lat="49.79027" lon="2.36496">
        <ele>115</ele>
        <time>2023-10-11T14:18:07Z</time>
      </trkpt>
      <trkpt lat="49.79026" lon="2.36498">
        <ele>115.1</ele>
        <time>2023-10-11T14:18:08Z</time>
      </trkpt>
      <trkpt lat="49.79026" lon="2.36499">
        <ele>115.1</ele>
        <time>2023-10-11T14:18:09Z</time>
      </trkpt>
      <trkpt lat="49.79025" lon="2.36501">
        <ele>115.1</ele>
        <time>2023-10-11T14:18:10Z</time>
      </trkpt>
      <trkpt lat="49.79025" lon="2.36502">
        <ele>115.1</ele>
        <time>2023-10-11T14:18:11Z</time>
      </trkpt>
      <trkpt lat="49.79024" lon="2.36504">
        <ele>115.2</ele>
        <time>2023-10-11T14:18:12Z</time>
      </trkpt>
      <trkpt lat="49.79023" lon="2.36507">
        <ele>115.2</ele>
        <time>2023-10-11T14:18:13Z</time>
      </trkpt>
      <trkpt lat="49.79022" lon="2.36508">
        <ele>115.2</ele>
        <time>2023-10-11T14:18:14Z</time>
      </trkpt>
      <trkpt lat="49.79022" lon="2.36509">
        <ele>115.2</ele>
        <time>2023-10-11T14:18:15Z</time>
      </trkpt>
      <trkpt lat="49.79021" lon="2.36513">
        <ele>115.3</ele>
        <time>2023-10-11T14:18:16Z</time>
      </trkpt>
      <trkpt lat="49.7902" lon="2.36514">
        <ele>115.3</ele>
        <time>2023-10-11T14:18:18Z</time>
      </trkpt>
      <trkpt lat="49.79019" lon="2.36515">
        <ele>115.4</ele>
        <time>2023-10-11T14:18:19Z</time>
      </trkpt>
      <trkpt lat="49.79018" lon="2.36518">
        <ele>115.4</ele>
        <time>2023-10-11T14:18:20Z</time>
      </trkpt>
      <trkpt lat="49.79017" lon="2.36519">
        <ele>115.4</ele>
        <time>2023-10-11T14:18:22Z</time>
      </trkpt>
      <trkpt lat="49.79017" lon="2.3652">
        <ele>115.4</ele>
        <time>2023-10-11T14:18:23Z</time>
      </trkpt>
      <trkpt lat="49.79016" lon="2.36522">
        <ele>115.4</ele>
        <time>2023-10-11T14:18:24Z</time>
      </trkpt>
      <trkpt lat="49.79016" lon="2.36523">
        <ele>115.5</ele>
        <time>2023-10-11T14:18:25Z</time>
      </trkpt>
      <trkpt lat="49.79015" lon="2.36526">
        <ele>115.5</ele>
        <time>2023-10-11T14:18:26Z</time>
      </trkpt>
      <trkpt lat="49.79015" lon="2.36527">
        <ele>115.5</ele>
        <time>2023-10-11T14:18:27Z</time>
      </trkpt>
      <trkpt lat="49.79014" lon="2.36528">
        <ele>115.5</ele>
        <time>2023-10-11T14:18:29Z</time>
      </trkpt>
      <trkpt lat="49.79014" lon="2.36528">
        <ele>115.5</ele>
        <time>2023-10-11T14:18:30Z</time>
      </trkpt>
      <trkpt lat="49.79014" lon="2.36529">
        <ele>115.5</ele>
        <time>2023-10-11T14:18:31Z</time>
      </trkpt>
      <trkpt lat="49.79014" lon="2.3653">
        <ele>115.5</ele>
        <time>2023-10-11T14:18:32Z</time>
      </trkpt>
      <trkpt lat="49.79013" lon="2.3653">
        <ele>115.5</ele>
        <time>2023-10-11T14:18:33Z</time>
      </trkpt>
      <trkpt lat="49.79013" lon="2.3653">
        <ele>115.6</ele>
        <time>2023-10-11T14:18:34Z</time>
      </trkpt>
      <trkpt lat="49.79012" lon="2.3653">
        <ele>115.6</ele>
        <time>2023-10-11T14:18:35Z</time>
      </trkpt>
      <trkpt lat="49.79011" lon="2.36531">
        <ele>115.6</ele>
        <time>2023-10-11T14:18:36Z</time>
      </trkpt>
      <trkpt lat="49.79011" lon="2.36531">
        <ele>115.6</ele>
        <time>2023-10-11T14:18:38Z</time>
      </trkpt>
      <trkpt lat="49.79011" lon="2.36532">
        <ele>115.6</ele>
        <time>2023-10-11T14:18:39Z</time>
      </trkpt>
      <trkpt lat="49.7901" lon="2.36533">
        <ele>115.6</ele>
        <time>2023-10-11T14:18:40Z</time>
      </trkpt>
      <trkpt lat="49.7901" lon="2.36534">
        <ele>115.6</ele>
        <time>2023-10-11T14:18:41Z</time>
      </trkpt>
      <trkpt lat="49.79011" lon="2.36536">
        <ele>115.6</ele>
        <time>2023-10-11T14:18:42Z</time>
      </trkpt>
      <trkpt lat="49.7901" lon="2.36537">
        <ele>115.6</ele>
        <time>2023-10-11T14:18:43Z</time>
      </trkpt>
      <trkpt lat="49.7901" lon="2.36539">
        <ele>115.6</ele>
        <time>2023-10-11T14:18:44Z</time>
      </trkpt>
      <trkpt lat="49.7901" lon="2.3654">
        <ele>115.6</ele>
        <time>2023-10-11T14:18:45Z</time>
      </trkpt>
      <trkpt lat="49.7901" lon="2.36543">
        <ele>115.6</ele>
        <time>2023-10-11T14:18:46Z</time>
      </trkpt>
      <trkpt lat="49.7901" lon="2.36544">
        <ele>115.6</ele>
        <time>2023-10-11T14:18:48Z</time>
      </trkpt>
      <trkpt lat="49.7901" lon="2.36546">
        <ele>115.5</ele>
        <time>2023-10-11T14:18:49Z</time>
      </trkpt>
      <trkpt lat="49.79009" lon="2.36547">
        <ele>115.5</ele>
        <time>2023-10-11T14:18:50Z</time>
      </trkpt>
      <trkpt lat="49.79009" lon="2.36549">
        <ele>115.5</ele>
        <time>2023-10-11T14:18:51Z</time>
      </trkpt>
      <trkpt lat="49.79009" lon="2.3655">
        <ele>115.5</ele>
        <time>2023-10-11T14:18:52Z</time>
      </trkpt>
      <trkpt lat="49.79008" lon="2.36553">
        <ele>115.5</ele>
        <time>2023-10-11T14:18:53Z</time>
      </trkpt>
      <trkpt lat="49.79008" lon="2.36554">
        <ele>115.4</ele>
        <time>2023-10-11T14:18:54Z</time>
      </trkpt>
      <trkpt lat="49.79007" lon="2.36556">
        <ele>115.5</ele>
        <time>2023-10-11T14:18:56Z</time>
      </trkpt>
      <trkpt lat="49.79006" lon="2.36557">
        <ele>115.5</ele>
        <time>2023-10-11T14:18:58Z</time>
      </trkpt>
      <trkpt lat="49.79005" lon="2.36559">
        <ele>115.4</ele>
        <time>2023-10-11T14:18:59Z</time>
      </trkpt>
      <trkpt lat="49.79005" lon="2.3656">
        <ele>115.5</ele>
        <time>2023-10-11T14:19:00Z</time>
      </trkpt>
      <trkpt lat="49.79004" lon="2.36561">
        <ele>115.5</ele>
        <time>2023-10-11T14:19:02Z</time>
      </trkpt>
      <trkpt lat="49.79003" lon="2.36562">
        <ele>115.5</ele>
        <time>2023-10-11T14:19:03Z</time>
      </trkpt>
      <trkpt lat="49.79002" lon="2.36563">
        <ele>115.4</ele>
        <time>2023-10-11T14:19:04Z</time>
      </trkpt>
      <trkpt lat="49.79002" lon="2.36564">
        <ele>115.5</ele>
        <time>2023-10-11T14:19:05Z</time>
      </trkpt>
      <trkpt lat="49.79" lon="2.36565">
        <ele>115.5</ele>
        <time>2023-10-11T14:19:06Z</time>
      </trkpt>
      <trkpt lat="49.78999" lon="2.36566">
        <ele>115.5</ele>
        <time>2023-10-11T14:19:08Z</time>
      </trkpt>
      <trkpt lat="49.78998" lon="2.36568">
        <ele>115.5</ele>
        <time>2023-10-11T14:19:09Z</time>
      </trkpt>
      <trkpt lat="49.78997" lon="2.36569">
        <ele>115.5</ele>
        <time>2023-10-11T14:19:11Z</time>
      </trkpt>
      <trkpt lat="49.78996" lon="2.36571">
        <ele>115.7</ele>
        <time>2023-10-11T14:19:12Z</time>
      </trkpt>
      <trkpt lat="49.78996" lon="2.36572">
        <ele>115.6</ele>
        <time>2023-10-11T14:19:14Z</time>
      </trkpt>
      <trkpt lat="49.78995" lon="2.36573">
        <ele>115.6</ele>
        <time>2023-10-11T14:19:15Z</time>
      </trkpt>
      <trkpt lat="49.78995" lon="2.36574">
        <ele>115.6</ele>
        <time>2023-10-11T14:19:16Z</time>
      </trkpt>
      <trkpt lat="49.78994" lon="2.36575">
        <ele>115.5</ele>
        <time>2023-10-11T14:19:17Z</time>
      </trkpt>
      <trkpt lat="49.78992" lon="2.36578">
        <ele>115.6</ele>
        <time>2023-10-11T14:19:18Z</time>
      </trkpt>
      <trkpt lat="49.78992" lon="2.36579">
        <ele>115.6</ele>
        <time>2023-10-11T14:19:20Z</time>
      </trkpt>
      <trkpt lat="49.78991" lon="2.3658">
        <ele>115.7</ele>
        <time>2023-10-11T14:19:21Z</time>
      </trkpt>
      <trkpt lat="49.7899" lon="2.36582">
        <ele>115.7</ele>
        <time>2023-10-11T14:19:22Z</time>
      </trkpt>
      <trkpt lat="49.7899" lon="2.36583">
        <ele>115.7</ele>
        <time>2023-10-11T14:19:23Z</time>
      </trkpt>
      <trkpt lat="49.78989" lon="2.36584">
        <ele>115.6</ele>
        <time>2023-10-11T14:19:24Z</time>
      </trkpt>
      <trkpt lat="49.78988" lon="2.36586">
        <ele>115.6</ele>
        <time>2023-10-11T14:19:25Z</time>
      </trkpt>
      <trkpt lat="49.78988" lon="2.36587">
        <ele>115.7</ele>
        <time>2023-10-11T14:19:26Z</time>
      </trkpt>
      <trkpt lat="49.78987" lon="2.36589">
        <ele>115.6</ele>
        <time>2023-10-11T14:19:27Z</time>
      </trkpt>
      <trkpt lat="49.78986" lon="2.3659">
        <ele>115.6</ele>
        <time>2023-10-11T14:19:29Z</time>
      </trkpt>
      <trkpt lat="49.78986" lon="2.36592">
        <ele>115.6</ele>
        <time>2023-10-11T14:19:30Z</time>
      </trkpt>
      <trkpt lat="49.78985" lon="2.36593">
        <ele>115.7</ele>
        <time>2023-10-11T14:19:32Z</time>
      </trkpt>
      <trkpt lat="49.78984" lon="2.36595">
        <ele>115.7</ele>
        <time>2023-10-11T14:19:33Z</time>
      </trkpt>
      <trkpt lat="49.78984" lon="2.36596">
        <ele>115.7</ele>
        <time>2023-10-11T14:19:35Z</time>
      </trkpt>
      <trkpt lat="49.78984" lon="2.36598">
        <ele>115.6</ele>
        <time>2023-10-11T14:19:36Z</time>
      </trkpt>
      <trkpt lat="49.78984" lon="2.36599">
        <ele>115.6</ele>
        <time>2023-10-11T14:19:37Z</time>
      </trkpt>
      <trkpt lat="49.78984" lon="2.366">
        <ele>115.6</ele>
        <time>2023-10-11T14:19:38Z</time>
      </trkpt>
      <trkpt lat="49.78984" lon="2.36601">
        <ele>115.6</ele>
        <time>2023-10-11T14:19:39Z</time>
      </trkpt>
      <trkpt lat="49.78985" lon="2.36603">
        <ele>115.6</ele>
        <time>2023-10-11T14:19:40Z</time>
      </trkpt>
      <trkpt lat="49.78985" lon="2.36603">
        <ele>115.6</ele>
        <time>2023-10-11T14:19:41Z</time>
      </trkpt>
      <trkpt lat="49.78985" lon="2.36604">
        <ele>115.6</ele>
        <time>2023-10-11T14:19:42Z</time>
      </trkpt>
      <trkpt lat="49.78985" lon="2.36604">
        <ele>115.6</ele>
        <time>2023-10-11T14:19:43Z</time>
      </trkpt>
      <trkpt lat="49.78985" lon="2.36604">
        <ele>115.6</ele>
        <time>2023-10-11T14:19:45Z</time>
      </trkpt>
      <trkpt lat="49.78985" lon="2.36604">
        <ele>115.6</ele>
        <time>2023-10-11T14:19:47Z</time>
      </trkpt>
      <trkpt lat="49.78985" lon="2.36604">
        <ele>115.6</ele>
        <time>2023-10-11T14:19:49Z</time>
      </trkpt>
      <trkpt lat="49.78985" lon="2.36604">
        <ele>115.6</ele>
        <time>2023-10-11T14:19:50Z</time>
      </trkpt>
      <trkpt lat="49.78985" lon="2.36604">
        <ele>115.6</ele>
        <time>2023-10-11T14:19:51Z</time>
      </trkpt>
      <trkpt lat="49.78985" lon="2.36604">
        <ele>115.6</ele>
        <time>2023-10-11T14:19:52Z</time>
      </trkpt>
      <trkpt lat="49.78985" lon="2.36604">
        <ele>115.6</ele>
        <time>2023-10-11T14:19:54Z</time>
      </trkpt>
      <trkpt lat="49.78985" lon="2.36603">
        <ele>115.6</ele>
        <time>2023-10-11T14:19:55Z</time>
      </trkpt>
      <trkpt lat="49.78984" lon="2.36601">
        <ele>115.6</ele>
        <time>2023-10-11T14:19:57Z</time>
      </trkpt>
      <trkpt lat="49.78984" lon="2.366">
        <ele>115.7</ele>
        <time>2023-10-11T14:19:58Z</time>
      </trkpt>
      <trkpt lat="49.78983" lon="2.366">
        <ele>115.7</ele>
        <time>2023-10-11T14:19:59Z</time>
      </trkpt>
      <trkpt lat="49.78983" lon="2.366">
        <ele>115.7</ele>
        <time>2023-10-11T14:20:00Z</time>
      </trkpt>
      <trkpt lat="49.78983" lon="2.366">
        <ele>115.7</ele>
        <time>2023-10-11T14:20:01Z</time>
      </trkpt>
      <trkpt lat="49.78983" lon="2.366">
        <ele>115.7</ele>
        <time>2023-10-11T14:20:02Z</time>
      </trkpt>
      <trkpt lat="49.78983" lon="2.36601">
        <ele>115.7</ele>
        <time>2023-10-11T14:20:03Z</time>
      </trkpt>
      <trkpt lat="49.78983" lon="2.36609">
        <ele>115.6</ele>
        <time>2023-10-11T14:20:16Z</time>
      </trkpt>
      <trkpt lat="49.78983" lon="2.36611">
        <ele>115.6</ele>
        <time>2023-10-11T14:20:18Z</time>
      </trkpt>
      <trkpt lat="49.78984" lon="2.36613">
        <ele>115.6</ele>
        <time>2023-10-11T14:20:19Z</time>
      </trkpt>
      <trkpt lat="49.78984" lon="2.36615">
        <ele>115.5</ele>
        <time>2023-10-11T14:20:20Z</time>
      </trkpt>
      <trkpt lat="49.78984" lon="2.36616">
        <ele>115.5</ele>
        <time>2023-10-11T14:20:21Z</time>
      </trkpt>
      <trkpt lat="49.78984" lon="2.36618">
        <ele>115.5</ele>
        <time>2023-10-11T14:20:22Z</time>
      </trkpt>
      <trkpt lat="49.78983" lon="2.36619">
        <ele>115.5</ele>
        <time>2023-10-11T14:20:23Z</time>
      </trkpt>
      <trkpt lat="49.78983" lon="2.3662">
        <ele>115.5</ele>
        <time>2023-10-11T14:20:24Z</time>
      </trkpt>
      <trkpt lat="49.78983" lon="2.36621">
        <ele>115.7</ele>
        <time>2023-10-11T14:20:25Z</time>
      </trkpt>
      <trkpt lat="49.78982" lon="2.36622">
        <ele>115.7</ele>
        <time>2023-10-11T14:20:26Z</time>
      </trkpt>
      <trkpt lat="49.78982" lon="2.36623">
        <ele>115.7</ele>
        <time>2023-10-11T14:20:28Z</time>
      </trkpt>
      <trkpt lat="49.78982" lon="2.36624">
        <ele>115.7</ele>
        <time>2023-10-11T14:20:29Z</time>
      </trkpt>
      <trkpt lat="49.78981" lon="2.36625">
        <ele>115.7</ele>
        <time>2023-10-11T14:20:31Z</time>
      </trkpt>
      <trkpt lat="49.78982" lon="2.36626">
        <ele>115.7</ele>
        <time>2023-10-11T14:20:33Z</time>
      </trkpt>
      <trkpt lat="49.78982" lon="2.36626">
        <ele>115.7</ele>
        <time>2023-10-11T14:20:34Z</time>
      </trkpt>
      <trkpt lat="49.78983" lon="2.36626">
        <ele>115.7</ele>
        <time>2023-10-11T14:20:36Z</time>
      </trkpt>
      <trkpt lat="49.78983" lon="2.36626">
        <ele>115.7</ele>
        <time>2023-10-11T14:20:38Z</time>
      </trkpt>
      <trkpt lat="49.78982" lon="2.36626">
        <ele>115.7</ele>
        <time>2023-10-11T14:20:39Z</time>
      </trkpt>
      <trkpt lat="49.78982" lon="2.36626">
        <ele>115.7</ele>
        <time>2023-10-11T14:20:40Z</time>
      </trkpt>
      <trkpt lat="49.78982" lon="2.36626">
        <ele>115.7</ele>
        <time>2023-10-11T14:20:41Z</time>
      </trkpt>
      <trkpt lat="49.78982" lon="2.36626">
        <ele>115.7</ele>
        <time>2023-10-11T14:20:42Z</time>
      </trkpt>
      <trkpt lat="49.78981" lon="2.36625">
        <ele>115.7</ele>
        <time>2023-10-11T14:20:43Z</time>
      </trkpt>
      <trkpt lat="49.78981" lon="2.36625">
        <ele>115.7</ele>
        <time>2023-10-11T14:20:44Z</time>
      </trkpt>
      <trkpt lat="49.78981" lon="2.36624">
        <ele>115.7</ele>
        <time>2023-10-11T14:20:45Z</time>
      </trkpt>
      <trkpt lat="49.78981" lon="2.36624">
        <ele>115.7</ele>
        <time>2023-10-11T14:20:47Z</time>
      </trkpt>
      <trkpt lat="49.78981" lon="2.36624">
        <ele>115.7</ele>
        <time>2023-10-11T14:20:48Z</time>
      </trkpt>
      <trkpt lat="49.78981" lon="2.36624">
        <ele>115.8</ele>
        <time>2023-10-11T14:20:49Z</time>
      </trkpt>
      <trkpt lat="49.78981" lon="2.36624">
        <ele>115.8</ele>
        <time>2023-10-11T14:20:51Z</time>
      </trkpt>
      <trkpt lat="49.78979" lon="2.36622">
        <ele>115.9</ele>
        <time>2023-10-11T14:21:25Z</time>
      </trkpt>
      <trkpt lat="49.78979" lon="2.36622">
        <ele>115.9</ele>
        <time>2023-10-11T14:21:26Z</time>
      </trkpt>
      <trkpt lat="49.78979" lon="2.36622">
        <ele>116</ele>
        <time>2023-10-11T14:21:28Z</time>
      </trkpt>
      <trkpt lat="49.7898" lon="2.36623">
        <ele>116</ele>
        <time>2023-10-11T14:21:29Z</time>
      </trkpt>
      <trkpt lat="49.7898" lon="2.36626">
        <ele>115.8</ele>
        <time>2023-10-11T14:21:30Z</time>
      </trkpt>
      <trkpt lat="49.7898" lon="2.36627">
        <ele>115.8</ele>
        <time>2023-10-11T14:21:32Z</time>
      </trkpt>
      <trkpt lat="49.7898" lon="2.36628">
        <ele>115.8</ele>
        <time>2023-10-11T14:21:33Z</time>
      </trkpt>
      <trkpt lat="49.7898" lon="2.36629">
        <ele>115.8</ele>
        <time>2023-10-11T14:21:34Z</time>
      </trkpt>
      <trkpt lat="49.7898" lon="2.36631">
        <ele>115.8</ele>
        <time>2023-10-11T14:21:35Z</time>
      </trkpt>
      <trkpt lat="49.78981" lon="2.36634">
        <ele>115.8</ele>
        <time>2023-10-11T14:21:36Z</time>
      </trkpt>
      <trkpt lat="49.78981" lon="2.36636">
        <ele>115.8</ele>
        <time>2023-10-11T14:21:38Z</time>
      </trkpt>
      <trkpt lat="49.78981" lon="2.36639">
        <ele>115.8</ele>
        <time>2023-10-11T14:21:39Z</time>
      </trkpt>
      <trkpt lat="49.78981" lon="2.36641">
        <ele>115.9</ele>
        <time>2023-10-11T14:21:40Z</time>
      </trkpt>
      <trkpt lat="49.78982" lon="2.36643">
        <ele>115.9</ele>
        <time>2023-10-11T14:21:41Z</time>
      </trkpt>
      <trkpt lat="49.78982" lon="2.36645">
        <ele>115.9</ele>
        <time>2023-10-11T14:21:42Z</time>
      </trkpt>
      <trkpt lat="49.78981" lon="2.36646">
        <ele>115.9</ele>
        <time>2023-10-11T14:21:43Z</time>
      </trkpt>
      <trkpt lat="49.78981" lon="2.36648">
        <ele>115.9</ele>
        <time>2023-10-11T14:21:44Z</time>
      </trkpt>
      <trkpt lat="49.78981" lon="2.3665">
        <ele>116</ele>
        <time>2023-10-11T14:21:45Z</time>
      </trkpt>
      <trkpt lat="49.7898" lon="2.36652">
        <ele>116</ele>
        <time>2023-10-11T14:21:47Z</time>
      </trkpt>
      <trkpt lat="49.7898" lon="2.36655">
        <ele>116</ele>
        <time>2023-10-11T14:21:49Z</time>
      </trkpt>
      <trkpt lat="49.7898" lon="2.36655">
        <ele>116.2</ele>
        <time>2023-10-11T14:21:51Z</time>
      </trkpt>
      <trkpt lat="49.78979" lon="2.36656">
        <ele>116.2</ele>
        <time>2023-10-11T14:21:52Z</time>
      </trkpt>
      <trkpt lat="49.78979" lon="2.36657">
        <ele>116.3</ele>
        <time>2023-10-11T14:21:53Z</time>
      </trkpt>
      <trkpt lat="49.78979" lon="2.36658">
        <ele>116.3</ele>
        <time>2023-10-11T14:21:54Z</time>
      </trkpt>
      <trkpt lat="49.78979" lon="2.36659">
        <ele>116.3</ele>
        <time>2023-10-11T14:21:55Z</time>
      </trkpt>
      <trkpt lat="49.78979" lon="2.36661">
        <ele>116.3</ele>
        <time>2023-10-11T14:21:56Z</time>
      </trkpt>
      <trkpt lat="49.78979" lon="2.36662">
        <ele>116.3</ele>
        <time>2023-10-11T14:21:58Z</time>
      </trkpt>
      <trkpt lat="49.78978" lon="2.36664">
        <ele>116.3</ele>
        <time>2023-10-11T14:21:59Z</time>
      </trkpt>
      <trkpt lat="49.78978" lon="2.36667">
        <ele>116.4</ele>
        <time>2023-10-11T14:22:00Z</time>
      </trkpt>
      <trkpt lat="49.78978" lon="2.36668">
        <ele>116.4</ele>
        <time>2023-10-11T14:22:02Z</time>
      </trkpt>
      <trkpt lat="49.78978" lon="2.36672">
        <ele>116.4</ele>
        <time>2023-10-11T14:22:03Z</time>
      </trkpt>
      <trkpt lat="49.78977" lon="2.36674">
        <ele>116.4</ele>
        <time>2023-10-11T14:22:05Z</time>
      </trkpt>
      <trkpt lat="49.78977" lon="2.36675">
        <ele>116.7</ele>
        <time>2023-10-11T14:22:06Z</time>
      </trkpt>
      <trkpt lat="49.78976" lon="2.36677">
        <ele>116.7</ele>
        <time>2023-10-11T14:22:07Z</time>
      </trkpt>
      <trkpt lat="49.78976" lon="2.36678">
        <ele>116.7</ele>
        <time>2023-10-11T14:22:08Z</time>
      </trkpt>
      <trkpt lat="49.78975" lon="2.3668">
        <ele>116.7</ele>
        <time>2023-10-11T14:22:09Z</time>
      </trkpt>
      <trkpt lat="49.78974" lon="2.36683">
        <ele>117</ele>
        <time>2023-10-11T14:22:11Z</time>
      </trkpt>
      <trkpt lat="49.78974" lon="2.36683">
        <ele>117</ele>
        <time>2023-10-11T14:22:13Z</time>
      </trkpt>
      <trkpt lat="49.78973" lon="2.36684">
        <ele>117</ele>
        <time>2023-10-11T14:22:14Z</time>
      </trkpt>
      <trkpt lat="49.78973" lon="2.36686">
        <ele>117</ele>
        <time>2023-10-11T14:22:15Z</time>
      </trkpt>
      <trkpt lat="49.78972" lon="2.36687">
        <ele>117</ele>
        <time>2023-10-11T14:22:17Z</time>
      </trkpt>
      <trkpt lat="49.78972" lon="2.36688">
        <ele>117</ele>
        <time>2023-10-11T14:22:18Z</time>
      </trkpt>
      <trkpt lat="49.78972" lon="2.36689">
        <ele>117</ele>
        <time>2023-10-11T14:22:19Z</time>
      </trkpt>
      <trkpt lat="49.78972" lon="2.36689">
        <ele>117</ele>
        <time>2023-10-11T14:22:20Z</time>
      </trkpt>
      <trkpt lat="49.78972" lon="2.36692">
        <ele>117</ele>
        <time>2023-10-11T14:22:21Z</time>
      </trkpt>
      <trkpt lat="49.78973" lon="2.36693">
        <ele>117</ele>
        <time>2023-10-11T14:22:22Z</time>
      </trkpt>
      <trkpt lat="49.78973" lon="2.36694">
        <ele>117</ele>
        <time>2023-10-11T14:22:23Z</time>
      </trkpt>
      <trkpt lat="49.78973" lon="2.36695">
        <ele>117</ele>
        <time>2023-10-11T14:22:25Z</time>
      </trkpt>
      <trkpt lat="49.78973" lon="2.36697">
        <ele>117</ele>
        <time>2023-10-11T14:22:26Z</time>
      </trkpt>
      <trkpt lat="49.78973" lon="2.36699">
        <ele>117</ele>
        <time>2023-10-11T14:22:27Z</time>
      </trkpt>
      <trkpt lat="49.78973" lon="2.367">
        <ele>117</ele>
        <time>2023-10-11T14:22:28Z</time>
      </trkpt>
      <trkpt lat="49.78973" lon="2.36701">
        <ele>117</ele>
        <time>2023-10-11T14:22:29Z</time>
      </trkpt>
      <trkpt lat="49.78972" lon="2.36703">
        <ele>117</ele>
        <time>2023-10-11T14:22:30Z</time>
      </trkpt>
      <trkpt lat="49.78972" lon="2.36704">
        <ele>117</ele>
        <time>2023-10-11T14:22:32Z</time>
      </trkpt>
      <trkpt lat="49.78972" lon="2.36705">
        <ele>117.3</ele>
        <time>2023-10-11T14:22:33Z</time>
      </trkpt>
      <trkpt lat="49.78971" lon="2.36707">
        <ele>117.3</ele>
        <time>2023-10-11T14:22:34Z</time>
      </trkpt>
      <trkpt lat="49.78971" lon="2.3671">
        <ele>117.3</ele>
        <time>2023-10-11T14:22:35Z</time>
      </trkpt>
      <trkpt lat="49.78971" lon="2.36711">
        <ele>117.3</ele>
        <time>2023-10-11T14:22:36Z</time>
      </trkpt>
      <trkpt lat="49.78971" lon="2.36713">
        <ele>117.3</ele>
        <time>2023-10-11T14:22:38Z</time>
      </trkpt>
      <trkpt lat="49.7897" lon="2.36716">
        <ele>117.4</ele>
        <time>2023-10-11T14:22:39Z</time>
      </trkpt>
      <trkpt lat="49.7897" lon="2.36717">
        <ele>117.4</ele>
        <time>2023-10-11T14:22:40Z</time>
      </trkpt>
      <trkpt lat="49.78969" lon="2.36719">
        <ele>117.4</ele>
        <time>2023-10-11T14:22:41Z</time>
      </trkpt>
      <trkpt lat="49.78969" lon="2.36721">
        <ele>117.4</ele>
        <time>2023-10-11T14:22:43Z</time>
      </trkpt>
      <trkpt lat="49.78968" lon="2.36725">
        <ele>117.6</ele>
        <time>2023-10-11T14:22:44Z</time>
      </trkpt>
      <trkpt lat="49.78968" lon="2.36726">
        <ele>117.6</ele>
        <time>2023-10-11T14:22:46Z</time>
      </trkpt>
      <trkpt lat="49.78967" lon="2.3673">
        <ele>117.6</ele>
        <time>2023-10-11T14:22:47Z</time>
      </trkpt>
      <trkpt lat="49.78966" lon="2.36733">
        <ele>117.6</ele>
        <time>2023-10-11T14:22:49Z</time>
      </trkpt>
      <trkpt lat="49.78965" lon="2.36737">
        <ele>117.7</ele>
        <time>2023-10-11T14:22:51Z</time>
      </trkpt>
      <trkpt lat="49.78963" lon="2.36741">
        <ele>117.7</ele>
        <time>2023-10-11T14:22:53Z</time>
      </trkpt>
      <trkpt lat="49.78963" lon="2.36744">
        <ele>117.8</ele>
        <time>2023-10-11T14:22:55Z</time>
      </trkpt>
      <trkpt lat="49.78962" lon="2.36746">
        <ele>117.8</ele>
        <time>2023-10-11T14:22:57Z</time>
      </trkpt>
      <trkpt lat="49.78962" lon="2.36747">
        <ele>117.7</ele>
        <time>2023-10-11T14:22:58Z</time>
      </trkpt>
      <trkpt lat="49.78961" lon="2.36749">
        <ele>117.7</ele>
        <time>2023-10-11T14:22:59Z</time>
      </trkpt>
      <trkpt lat="49.78961" lon="2.3675">
        <ele>117.7</ele>
        <time>2023-10-11T14:23:00Z</time>
      </trkpt>
      <trkpt lat="49.7896" lon="2.36752">
        <ele>117.8</ele>
        <time>2023-10-11T14:23:01Z</time>
      </trkpt>
      <trkpt lat="49.7896" lon="2.36753">
        <ele>117.8</ele>
        <time>2023-10-11T14:23:02Z</time>
      </trkpt>
      <trkpt lat="49.78959" lon="2.36755">
        <ele>117.8</ele>
        <time>2023-10-11T14:23:03Z</time>
      </trkpt>
      <trkpt lat="49.78958" lon="2.36756">
        <ele>117.8</ele>
        <time>2023-10-11T14:23:05Z</time>
      </trkpt>
      <trkpt lat="49.78957" lon="2.36758">
        <ele>117.9</ele>
        <time>2023-10-11T14:23:06Z</time>
      </trkpt>
      <trkpt lat="49.78956" lon="2.36761">
        <ele>117.9</ele>
        <time>2023-10-11T14:23:08Z</time>
      </trkpt>
      <trkpt lat="49.78955" lon="2.36762">
        <ele>117.9</ele>
        <time>2023-10-11T14:23:09Z</time>
      </trkpt>
      <trkpt lat="49.78955" lon="2.36764">
        <ele>118</ele>
        <time>2023-10-11T14:23:11Z</time>
      </trkpt>
      <trkpt lat="49.78954" lon="2.36765">
        <ele>118</ele>
        <time>2023-10-11T14:23:12Z</time>
      </trkpt>
      <trkpt lat="49.78954" lon="2.36766">
        <ele>118</ele>
        <time>2023-10-11T14:23:13Z</time>
      </trkpt>
      <trkpt lat="49.78953" lon="2.36768">
        <ele>118</ele>
        <time>2023-10-11T14:23:14Z</time>
      </trkpt>
      <trkpt lat="49.78952" lon="2.36769">
        <ele>118</ele>
        <time>2023-10-11T14:23:15Z</time>
      </trkpt>
      <trkpt lat="49.78951" lon="2.36772">
        <ele>118</ele>
        <time>2023-10-11T14:23:16Z</time>
      </trkpt>
      <trkpt lat="49.7895" lon="2.36773">
        <ele>118</ele>
        <time>2023-10-11T14:23:18Z</time>
      </trkpt>
      <trkpt lat="49.78949" lon="2.36775">
        <ele>118</ele>
        <time>2023-10-11T14:23:19Z</time>
      </trkpt>
      <trkpt lat="49.78949" lon="2.36776">
        <ele>118.1</ele>
        <time>2023-10-11T14:23:20Z</time>
      </trkpt>
      <trkpt lat="49.78948" lon="2.36777">
        <ele>118</ele>
        <time>2023-10-11T14:23:21Z</time>
      </trkpt>
      <trkpt lat="49.78947" lon="2.36778">
        <ele>118</ele>
        <time>2023-10-11T14:23:22Z</time>
      </trkpt>
      <trkpt lat="49.78946" lon="2.36779">
        <ele>118</ele>
        <time>2023-10-11T14:23:23Z</time>
      </trkpt>
      <trkpt lat="49.78946" lon="2.3678">
        <ele>118</ele>
        <time>2023-10-11T14:23:24Z</time>
      </trkpt>
      <trkpt lat="49.78945" lon="2.36781">
        <ele>118</ele>
        <time>2023-10-11T14:23:25Z</time>
      </trkpt>
      <trkpt lat="49.78943" lon="2.36782">
        <ele>118</ele>
        <time>2023-10-11T14:23:26Z</time>
      </trkpt>
      <trkpt lat="49.78942" lon="2.36784">
        <ele>118</ele>
        <time>2023-10-11T14:23:28Z</time>
      </trkpt>
      <trkpt lat="49.7894" lon="2.36786">
        <ele>117.9</ele>
        <time>2023-10-11T14:23:30Z</time>
      </trkpt>
      <trkpt lat="49.78939" lon="2.36787">
        <ele>118</ele>
        <time>2023-10-11T14:23:32Z</time>
      </trkpt>
      <trkpt lat="49.78938" lon="2.36787">
        <ele>118</ele>
        <time>2023-10-11T14:23:33Z</time>
      </trkpt>
      <trkpt lat="49.78938" lon="2.36788">
        <ele>117.9</ele>
        <time>2023-10-11T14:23:34Z</time>
      </trkpt>
      <trkpt lat="49.78937" lon="2.36789">
        <ele>117.9</ele>
        <time>2023-10-11T14:23:35Z</time>
      </trkpt>
      <trkpt lat="49.78936" lon="2.3679">
        <ele>118</ele>
        <time>2023-10-11T14:23:36Z</time>
      </trkpt>
      <trkpt lat="49.78935" lon="2.36791">
        <ele>117.9</ele>
        <time>2023-10-11T14:23:37Z</time>
      </trkpt>
      <trkpt lat="49.78934" lon="2.36793">
        <ele>117.9</ele>
        <time>2023-10-11T14:23:38Z</time>
      </trkpt>
      <trkpt lat="49.78933" lon="2.36795">
        <ele>117.8</ele>
        <time>2023-10-11T14:23:40Z</time>
      </trkpt>
      <trkpt lat="49.78933" lon="2.36796">
        <ele>117.9</ele>
        <time>2023-10-11T14:23:42Z</time>
      </trkpt>
      <trkpt lat="49.78932" lon="2.36797">
        <ele>117.9</ele>
        <time>2023-10-11T14:23:43Z</time>
      </trkpt>
      <trkpt lat="49.78932" lon="2.36798">
        <ele>117.9</ele>
        <time>2023-10-11T14:23:44Z</time>
      </trkpt>
      <trkpt lat="49.78931" lon="2.36799">
        <ele>117.8</ele>
        <time>2023-10-11T14:23:45Z</time>
      </trkpt>
      <trkpt lat="49.7893" lon="2.36801">
        <ele>117.8</ele>
        <time>2023-10-11T14:23:46Z</time>
      </trkpt>
      <trkpt lat="49.7893" lon="2.36803">
        <ele>117.8</ele>
        <time>2023-10-11T14:23:48Z</time>
      </trkpt>
      <trkpt lat="49.78929" lon="2.36804">
        <ele>117.8</ele>
        <time>2023-10-11T14:23:49Z</time>
      </trkpt>
      <trkpt lat="49.78928" lon="2.36806">
        <ele>117.8</ele>
        <time>2023-10-11T14:23:50Z</time>
      </trkpt>
      <trkpt lat="49.78927" lon="2.36807">
        <ele>117.7</ele>
        <time>2023-10-11T14:23:51Z</time>
      </trkpt>
      <trkpt lat="49.78926" lon="2.3681">
        <ele>117.8</ele>
        <time>2023-10-11T14:23:52Z</time>
      </trkpt>
      <trkpt lat="49.78924" lon="2.36814">
        <ele>117.8</ele>
        <time>2023-10-11T14:23:54Z</time>
      </trkpt>
      <trkpt lat="49.78923" lon="2.36816">
        <ele>117.7</ele>
        <time>2023-10-11T14:23:56Z</time>
      </trkpt>
      <trkpt lat="49.78923" lon="2.36817">
        <ele>117.7</ele>
        <time>2023-10-11T14:23:58Z</time>
      </trkpt>
      <trkpt lat="49.78922" lon="2.36819">
        <ele>117.7</ele>
        <time>2023-10-11T14:23:59Z</time>
      </trkpt>
      <trkpt lat="49.78921" lon="2.36822">
        <ele>117.7</ele>
        <time>2023-10-11T14:24:00Z</time>
      </trkpt>
      <trkpt lat="49.7892" lon="2.36823">
        <ele>117.7</ele>
        <time>2023-10-11T14:24:01Z</time>
      </trkpt>
      <trkpt lat="49.7892" lon="2.36824">
        <ele>117.6</ele>
        <time>2023-10-11T14:24:03Z</time>
      </trkpt>
      <trkpt lat="49.78919" lon="2.36826">
        <ele>117.6</ele>
        <time>2023-10-11T14:24:04Z</time>
      </trkpt>
      <trkpt lat="49.78918" lon="2.36829">
        <ele>117.5</ele>
        <time>2023-10-11T14:24:05Z</time>
      </trkpt>
      <trkpt lat="49.78917" lon="2.36833">
        <ele>117.4</ele>
        <time>2023-10-11T14:24:07Z</time>
      </trkpt>
      <trkpt lat="49.78917" lon="2.36834">
        <ele>117.4</ele>
        <time>2023-10-11T14:24:08Z</time>
      </trkpt>
      <trkpt lat="49.78917" lon="2.36836">
        <ele>117.4</ele>
        <time>2023-10-11T14:24:10Z</time>
      </trkpt>
      <trkpt lat="49.78916" lon="2.36838">
        <ele>117.3</ele>
        <time>2023-10-11T14:24:11Z</time>
      </trkpt>
      <trkpt lat="49.78916" lon="2.36839">
        <ele>117.3</ele>
        <time>2023-10-11T14:24:12Z</time>
      </trkpt>
      <trkpt lat="49.78915" lon="2.36841">
        <ele>117.3</ele>
        <time>2023-10-11T14:24:13Z</time>
      </trkpt>
      <trkpt lat="49.78914" lon="2.36844">
        <ele>117.2</ele>
        <time>2023-10-11T14:24:14Z</time>
      </trkpt>
      <trkpt lat="49.78913" lon="2.36846">
        <ele>117</ele>
        <time>2023-10-11T14:24:16Z</time>
      </trkpt>
      <trkpt lat="49.78912" lon="2.36847">
        <ele>117.1</ele>
        <time>2023-10-11T14:24:17Z</time>
      </trkpt>
      <trkpt lat="49.78911" lon="2.3685">
        <ele>116.9</ele>
        <time>2023-10-11T14:24:18Z</time>
      </trkpt>
      <trkpt lat="49.7891" lon="2.36852">
        <ele>116.9</ele>
        <time>2023-10-11T14:24:19Z</time>
      </trkpt>
      <trkpt lat="49.78909" lon="2.36854">
        <ele>116.7</ele>
        <time>2023-10-11T14:24:21Z</time>
      </trkpt>
      <trkpt lat="49.78908" lon="2.36855">
        <ele>116.7</ele>
        <time>2023-10-11T14:24:22Z</time>
      </trkpt>
      <trkpt lat="49.78908" lon="2.36856">
        <ele>116.7</ele>
        <time>2023-10-11T14:24:23Z</time>
      </trkpt>
      <trkpt lat="49.78907" lon="2.36858">
        <ele>116.7</ele>
        <time>2023-10-11T14:24:24Z</time>
      </trkpt>
      <trkpt lat="49.78905" lon="2.3686">
        <ele>116.5</ele>
        <time>2023-10-11T14:24:25Z</time>
      </trkpt>
      <trkpt lat="49.78905" lon="2.36862">
        <ele>116.5</ele>
        <time>2023-10-11T14:24:27Z</time>
      </trkpt>
      <trkpt lat="49.78904" lon="2.36863">
        <ele>116.3</ele>
        <time>2023-10-11T14:24:28Z</time>
      </trkpt>
      <trkpt lat="49.78902" lon="2.36865">
        <ele>116.3</ele>
        <time>2023-10-11T14:24:29Z</time>
      </trkpt>
      <trkpt lat="49.78902" lon="2.36866">
        <ele>116.3</ele>
        <time>2023-10-11T14:24:31Z</time>
      </trkpt>
      <trkpt lat="49.78901" lon="2.36867">
        <ele>116.3</ele>
        <time>2023-10-11T14:24:32Z</time>
      </trkpt>
      <trkpt lat="49.789" lon="2.36868">
        <ele>116.1</ele>
        <time>2023-10-11T14:24:33Z</time>
      </trkpt>
      <trkpt lat="49.78899" lon="2.36869">
        <ele>116</ele>
        <time>2023-10-11T14:24:34Z</time>
      </trkpt>
      <trkpt lat="49.78899" lon="2.3687">
        <ele>116</ele>
        <time>2023-10-11T14:24:35Z</time>
      </trkpt>
      <trkpt lat="49.78898" lon="2.36871">
        <ele>116</ele>
        <time>2023-10-11T14:24:36Z</time>
      </trkpt>
      <trkpt lat="49.78898" lon="2.36872">
        <ele>115.8</ele>
        <time>2023-10-11T14:24:37Z</time>
      </trkpt>
      <trkpt lat="49.78897" lon="2.36874">
        <ele>115.8</ele>
        <time>2023-10-11T14:24:38Z</time>
      </trkpt>
      <trkpt lat="49.78897" lon="2.36875">
        <ele>115.8</ele>
        <time>2023-10-11T14:24:39Z</time>
      </trkpt>
      <trkpt lat="49.78896" lon="2.36877">
        <ele>115.5</ele>
        <time>2023-10-11T14:24:40Z</time>
      </trkpt>
      <trkpt lat="49.78896" lon="2.36878">
        <ele>115.5</ele>
        <time>2023-10-11T14:24:41Z</time>
      </trkpt>
      <trkpt lat="49.78895" lon="2.3688">
        <ele>115.2</ele>
        <time>2023-10-11T14:24:42Z</time>
      </trkpt>
      <trkpt lat="49.78895" lon="2.36882">
        <ele>115.2</ele>
        <time>2023-10-11T14:24:43Z</time>
      </trkpt>
      <trkpt lat="49.78894" lon="2.36883">
        <ele>115.2</ele>
        <time>2023-10-11T14:24:45Z</time>
      </trkpt>
      <trkpt lat="49.78893" lon="2.36886">
        <ele>114.7</ele>
        <time>2023-10-11T14:24:46Z</time>
      </trkpt>
      <trkpt lat="49.78893" lon="2.36887">
        <ele>114.7</ele>
        <time>2023-10-11T14:24:47Z</time>
      </trkpt>
      <trkpt lat="49.78892" lon="2.36889">
        <ele>114.3</ele>
        <time>2023-10-11T14:24:49Z</time>
      </trkpt>
      <trkpt lat="49.78891" lon="2.36891">
        <ele>114.1</ele>
        <time>2023-10-11T14:24:50Z</time>
      </trkpt>
      <trkpt lat="49.78891" lon="2.36892">
        <ele>114.1</ele>
        <time>2023-10-11T14:24:52Z</time>
      </trkpt>
      <trkpt lat="49.7889" lon="2.36893">
        <ele>113.6</ele>
        <time>2023-10-11T14:24:53Z</time>
      </trkpt>
      <trkpt lat="49.7889" lon="2.36895">
        <ele>113.6</ele>
        <time>2023-10-11T14:24:54Z</time>
      </trkpt>
      <trkpt lat="49.78889" lon="2.36896">
        <ele>113.6</ele>
        <time>2023-10-11T14:24:55Z</time>
      </trkpt>
      <trkpt lat="49.78888" lon="2.36898">
        <ele>113.2</ele>
        <time>2023-10-11T14:24:56Z</time>
      </trkpt>
      <trkpt lat="49.78888" lon="2.36899">
        <ele>112.9</ele>
        <time>2023-10-11T14:24:57Z</time>
      </trkpt>
      <trkpt lat="49.78887" lon="2.36901">
        <ele>112.9</ele>
        <time>2023-10-11T14:24:58Z</time>
      </trkpt>
      <trkpt lat="49.78887" lon="2.36902">
        <ele>112.5</ele>
        <time>2023-10-11T14:24:59Z</time>
      </trkpt>
      <trkpt lat="49.78886" lon="2.36903">
        <ele>112.5</ele>
        <time>2023-10-11T14:25:00Z</time>
      </trkpt>
      <trkpt lat="49.78886" lon="2.36905">
        <ele>112.5</ele>
        <time>2023-10-11T14:25:01Z</time>
      </trkpt>
      <trkpt lat="49.78885" lon="2.36906">
        <ele>111.8</ele>
        <time>2023-10-11T14:25:02Z</time>
      </trkpt>
      <trkpt lat="49.78885" lon="2.36908">
        <ele>111.8</ele>
        <time>2023-10-11T14:25:03Z</time>
      </trkpt>
      <trkpt lat="49.78884" lon="2.3691">
        <ele>111.8</ele>
        <time>2023-10-11T14:25:04Z</time>
      </trkpt>
      <trkpt lat="49.78884" lon="2.36911">
        <ele>111.4</ele>
        <time>2023-10-11T14:25:05Z</time>
      </trkpt>
      <trkpt lat="49.78883" lon="2.36913">
        <ele>111.5</ele>
        <time>2023-10-11T14:25:06Z</time>
      </trkpt>
      <trkpt lat="49.78882" lon="2.36915">
        <ele>110.9</ele>
        <time>2023-10-11T14:25:07Z</time>
      </trkpt>
      <trkpt lat="49.78881" lon="2.36917">
        <ele>110.9</ele>
        <time>2023-10-11T14:25:09Z</time>
      </trkpt>
      <trkpt lat="49.78881" lon="2.36918">
        <ele>110.9</ele>
        <time>2023-10-11T14:25:10Z</time>
      </trkpt>
      <trkpt lat="49.7888" lon="2.3692">
        <ele>110.4</ele>
        <time>2023-10-11T14:25:11Z</time>
      </trkpt>
      <trkpt lat="49.78879" lon="2.36921">
        <ele>110.4</ele>
        <time>2023-10-11T14:25:13Z</time>
      </trkpt>
      <trkpt lat="49.78878" lon="2.36924">
        <ele>110.1</ele>
        <time>2023-10-11T14:25:14Z</time>
      </trkpt>
      <trkpt lat="49.78877" lon="2.36925">
        <ele>109.9</ele>
        <time>2023-10-11T14:25:16Z</time>
      </trkpt>
      <trkpt lat="49.78876" lon="2.36927">
        <ele>109.6</ele>
        <time>2023-10-11T14:25:17Z</time>
      </trkpt>
      <trkpt lat="49.78875" lon="2.36929">
        <ele>109.6</ele>
        <time>2023-10-11T14:25:18Z</time>
      </trkpt>
      <trkpt lat="49.78875" lon="2.3693">
        <ele>109.6</ele>
        <time>2023-10-11T14:25:20Z</time>
      </trkpt>
      <trkpt lat="49.78874" lon="2.36931">
        <ele>109.4</ele>
        <time>2023-10-11T14:25:21Z</time>
      </trkpt>
      <trkpt lat="49.78873" lon="2.36934">
        <ele>109</ele>
        <time>2023-10-11T14:25:22Z</time>
      </trkpt>
      <trkpt lat="49.78873" lon="2.36936">
        <ele>108.7</ele>
        <time>2023-10-11T14:25:23Z</time>
      </trkpt>
      <trkpt lat="49.78872" lon="2.36939">
        <ele>108.4</ele>
        <time>2023-10-11T14:25:25Z</time>
      </trkpt>
      <trkpt lat="49.78871" lon="2.3694">
        <ele>108.4</ele>
        <time>2023-10-11T14:25:26Z</time>
      </trkpt>
      <trkpt lat="49.78871" lon="2.36941">
        <ele>108</ele>
        <time>2023-10-11T14:25:27Z</time>
      </trkpt>
      <trkpt lat="49.7887" lon="2.36943">
        <ele>108</ele>
        <time>2023-10-11T14:25:28Z</time>
      </trkpt>
      <trkpt lat="49.7887" lon="2.36944">
        <ele>107.6</ele>
        <time>2023-10-11T14:25:29Z</time>
      </trkpt>
      <trkpt lat="49.78869" lon="2.36947">
        <ele>107.3</ele>
        <time>2023-10-11T14:25:30Z</time>
      </trkpt>
      <trkpt lat="49.78868" lon="2.36948">
        <ele>107.3</ele>
        <time>2023-10-11T14:25:32Z</time>
      </trkpt>
      <trkpt lat="49.78868" lon="2.3695">
        <ele>106.9</ele>
        <time>2023-10-11T14:25:33Z</time>
      </trkpt>
      <trkpt lat="49.78867" lon="2.36953">
        <ele>106.5</ele>
        <time>2023-10-11T14:25:34Z</time>
      </trkpt>
      <trkpt lat="49.78867" lon="2.36955">
        <ele>106.5</ele>
        <time>2023-10-11T14:25:36Z</time>
      </trkpt>
      <trkpt lat="49.78866" lon="2.36956">
        <ele>106.5</ele>
        <time>2023-10-11T14:25:37Z</time>
      </trkpt>
      <trkpt lat="49.78866" lon="2.36958">
        <ele>105.9</ele>
        <time>2023-10-11T14:25:38Z</time>
      </trkpt>
      <trkpt lat="49.78865" lon="2.36959">
        <ele>105.9</ele>
        <time>2023-10-11T14:25:39Z</time>
      </trkpt>
      <trkpt lat="49.78865" lon="2.36961">
        <ele>105.6</ele>
        <time>2023-10-11T14:25:40Z</time>
      </trkpt>
      <trkpt lat="49.78864" lon="2.36966">
        <ele>105.3</ele>
        <time>2023-10-11T14:25:41Z</time>
      </trkpt>
      <trkpt lat="49.78863" lon="2.36969">
        <ele>105.1</ele>
        <time>2023-10-11T14:25:43Z</time>
      </trkpt>
      <trkpt lat="49.78862" lon="2.36971">
        <ele>104.9</ele>
        <time>2023-10-11T14:25:44Z</time>
      </trkpt>
      <trkpt lat="49.78861" lon="2.36973">
        <ele>104.9</ele>
        <time>2023-10-11T14:25:45Z</time>
      </trkpt>
      <trkpt lat="49.78861" lon="2.36975">
        <ele>104.4</ele>
        <time>2023-10-11T14:25:46Z</time>
      </trkpt>
      <trkpt lat="49.7886" lon="2.36976">
        <ele>104.4</ele>
        <time>2023-10-11T14:25:47Z</time>
      </trkpt>
      <trkpt lat="49.7886" lon="2.36978">
        <ele>104.5</ele>
        <time>2023-10-11T14:25:48Z</time>
      </trkpt>
      <trkpt lat="49.78859" lon="2.36979">
        <ele>104.2</ele>
        <time>2023-10-11T14:25:49Z</time>
      </trkpt>
      <trkpt lat="49.78859" lon="2.36981">
        <ele>104.2</ele>
        <time>2023-10-11T14:25:50Z</time>
      </trkpt>
      <trkpt lat="49.78858" lon="2.36984">
        <ele>103.9</ele>
        <time>2023-10-11T14:25:51Z</time>
      </trkpt>
      <trkpt lat="49.78858" lon="2.36986">
        <ele>103.7</ele>
        <time>2023-10-11T14:25:53Z</time>
      </trkpt>
      <trkpt lat="49.78857" lon="2.36988">
        <ele>103.4</ele>
        <time>2023-10-11T14:25:54Z</time>
      </trkpt>
      <trkpt lat="49.78856" lon="2.36991">
        <ele>103.4</ele>
        <time>2023-10-11T14:25:55Z</time>
      </trkpt>
      <trkpt lat="49.78856" lon="2.36993">
        <ele>103.1</ele>
        <time>2023-10-11T14:25:56Z</time>
      </trkpt>
      <trkpt lat="49.78855" lon="2.36995">
        <ele>103.1</ele>
        <time>2023-10-11T14:25:57Z</time>
      </trkpt>
      <trkpt lat="49.78855" lon="2.36997">
        <ele>102.5</ele>
        <time>2023-10-11T14:25:58Z</time>
      </trkpt>
      <trkpt lat="49.78854" lon="2.36998">
        <ele>102.5</ele>
        <time>2023-10-11T14:25:59Z</time>
      </trkpt>
      <trkpt lat="49.78853" lon="2.37001">
        <ele>102.2</ele>
        <time>2023-10-11T14:26:01Z</time>
      </trkpt>
      <trkpt lat="49.78853" lon="2.37003">
        <ele>102.2</ele>
        <time>2023-10-11T14:26:02Z</time>
      </trkpt>
      <trkpt lat="49.78852" lon="2.37006">
        <ele>101.6</ele>
        <time>2023-10-11T14:26:04Z</time>
      </trkpt>
      <trkpt lat="49.78852" lon="2.37007">
        <ele>101.6</ele>
        <time>2023-10-11T14:26:05Z</time>
      </trkpt>
      <trkpt lat="49.78851" lon="2.37009">
        <ele>101.2</ele>
        <time>2023-10-11T14:26:07Z</time>
      </trkpt>
      <trkpt lat="49.78851" lon="2.3701">
        <ele>101.2</ele>
        <time>2023-10-11T14:26:08Z</time>
      </trkpt>
      <trkpt lat="49.78851" lon="2.37011">
        <ele>101.2</ele>
        <time>2023-10-11T14:26:09Z</time>
      </trkpt>
      <trkpt lat="49.7885" lon="2.37012">
        <ele>101.2</ele>
        <time>2023-10-11T14:26:10Z</time>
      </trkpt>
      <trkpt lat="49.7885" lon="2.37014">
        <ele>100.8</ele>
        <time>2023-10-11T14:26:11Z</time>
      </trkpt>
      <trkpt lat="49.7885" lon="2.37015">
        <ele>100.6</ele>
        <time>2023-10-11T14:26:12Z</time>
      </trkpt>
      <trkpt lat="49.78849" lon="2.37016">
        <ele>100.6</ele>
        <time>2023-10-11T14:26:13Z</time>
      </trkpt>
      <trkpt lat="49.78849" lon="2.37016">
        <ele>100.6</ele>
        <time>2023-10-11T14:26:14Z</time>
      </trkpt>
      <trkpt lat="49.78849" lon="2.37017">
        <ele>100.6</ele>
        <time>2023-10-11T14:26:16Z</time>
      </trkpt>
      <trkpt lat="49.78849" lon="2.37017">
        <ele>100.2</ele>
        <time>2023-10-11T14:26:17Z</time>
      </trkpt>
      <trkpt lat="49.78849" lon="2.37018">
        <ele>100.2</ele>
        <time>2023-10-11T14:26:18Z</time>
      </trkpt>
      <trkpt lat="49.78849" lon="2.37019">
        <ele>100.2</ele>
        <time>2023-10-11T14:26:19Z</time>
      </trkpt>
      <trkpt lat="49.78849" lon="2.37019">
        <ele>100.2</ele>
        <time>2023-10-11T14:26:21Z</time>
      </trkpt>
      <trkpt lat="49.78849" lon="2.3702">
        <ele>100.2</ele>
        <time>2023-10-11T14:26:22Z</time>
      </trkpt>
      <trkpt lat="49.7885" lon="2.3702">
        <ele>100.5</ele>
        <time>2023-10-11T14:26:23Z</time>
      </trkpt>
      <trkpt lat="49.7885" lon="2.3702">
        <ele>100.5</ele>
        <time>2023-10-11T14:26:24Z</time>
      </trkpt>
      <trkpt lat="49.7885" lon="2.3702">
        <ele>100.5</ele>
        <time>2023-10-11T14:26:25Z</time>
      </trkpt>
      <trkpt lat="49.7885" lon="2.3702">
        <ele>100.5</ele>
        <time>2023-10-11T14:26:26Z</time>
      </trkpt>
      <trkpt lat="49.7885" lon="2.37021">
        <ele>100.6</ele>
        <time>2023-10-11T14:26:27Z</time>
      </trkpt>
      <trkpt lat="49.7885" lon="2.3702">
        <ele>100.6</ele>
        <time>2023-10-11T14:26:28Z</time>
      </trkpt>
      <trkpt lat="49.7885" lon="2.37021">
        <ele>100.6</ele>
        <time>2023-10-11T14:26:29Z</time>
      </trkpt>
      <trkpt lat="49.7885" lon="2.37022">
        <ele>100.2</ele>
        <time>2023-10-11T14:26:30Z</time>
      </trkpt>
      <trkpt lat="49.78849" lon="2.37023">
        <ele>99.9</ele>
        <time>2023-10-11T14:26:31Z</time>
      </trkpt>
      <trkpt lat="49.78849" lon="2.37024">
        <ele>99.9</ele>
        <time>2023-10-11T14:26:32Z</time>
      </trkpt>
      <trkpt lat="49.78849" lon="2.37025">
        <ele>99.9</ele>
        <time>2023-10-11T14:26:33Z</time>
      </trkpt>
      <trkpt lat="49.78848" lon="2.37026">
        <ele>99.6</ele>
        <time>2023-10-11T14:26:35Z</time>
      </trkpt>
      <trkpt lat="49.78848" lon="2.37027">
        <ele>99.6</ele>
        <time>2023-10-11T14:26:36Z</time>
      </trkpt>
      <trkpt lat="49.78847" lon="2.37029">
        <ele>99.6</ele>
        <time>2023-10-11T14:26:37Z</time>
      </trkpt>
      <trkpt lat="49.78846" lon="2.37032">
        <ele>99</ele>
        <time>2023-10-11T14:26:38Z</time>
      </trkpt>
      <trkpt lat="49.78845" lon="2.37034">
        <ele>99</ele>
        <time>2023-10-11T14:26:39Z</time>
      </trkpt>
      <trkpt lat="49.78845" lon="2.37036">
        <ele>98.7</ele>
        <time>2023-10-11T14:26:40Z</time>
      </trkpt>
      <trkpt lat="49.78843" lon="2.3704">
        <ele>98.2</ele>
        <time>2023-10-11T14:26:42Z</time>
      </trkpt>
      <trkpt lat="49.78842" lon="2.37043">
        <ele>98.2</ele>
        <time>2023-10-11T14:26:43Z</time>
      </trkpt>
      <trkpt lat="49.78841" lon="2.37046">
        <ele>97.7</ele>
        <time>2023-10-11T14:26:45Z</time>
      </trkpt>
      <trkpt lat="49.7884" lon="2.37048">
        <ele>97.5</ele>
        <time>2023-10-11T14:26:46Z</time>
      </trkpt>
      <trkpt lat="49.7884" lon="2.3705">
        <ele>97.5</ele>
        <time>2023-10-11T14:26:47Z</time>
      </trkpt>
      <trkpt lat="49.78839" lon="2.37051">
        <ele>97.5</ele>
        <time>2023-10-11T14:26:48Z</time>
      </trkpt>
      <trkpt lat="49.78839" lon="2.37053">
        <ele>96.9</ele>
        <time>2023-10-11T14:26:50Z</time>
      </trkpt>
      <trkpt lat="49.78838" lon="2.37055">
        <ele>96.9</ele>
        <time>2023-10-11T14:26:51Z</time>
      </trkpt>
      <trkpt lat="49.78837" lon="2.37057">
        <ele>96.8</ele>
        <time>2023-10-11T14:26:52Z</time>
      </trkpt>
      <trkpt lat="49.78837" lon="2.37058">
        <ele>96.8</ele>
        <time>2023-10-11T14:26:54Z</time>
      </trkpt>
      <trkpt lat="49.78836" lon="2.3706">
        <ele>96.8</ele>
        <time>2023-10-11T14:26:55Z</time>
      </trkpt>
      <trkpt lat="49.78836" lon="2.37062">
        <ele>96.6</ele>
        <time>2023-10-11T14:26:56Z</time>
      </trkpt>
      <trkpt lat="49.78836" lon="2.37063">
        <ele>96</ele>
        <time>2023-10-11T14:26:57Z</time>
      </trkpt>
      <trkpt lat="49.78835" lon="2.37064">
        <ele>96</ele>
        <time>2023-10-11T14:26:58Z</time>
      </trkpt>
      <trkpt lat="49.78835" lon="2.37065">
        <ele>95.8</ele>
        <time>2023-10-11T14:26:59Z</time>
      </trkpt>
      <trkpt lat="49.78834" lon="2.37066">
        <ele>95.8</ele>
        <time>2023-10-11T14:27:00Z</time>
      </trkpt>
      <trkpt lat="49.78834" lon="2.37068">
        <ele>95.8</ele>
        <time>2023-10-11T14:27:01Z</time>
      </trkpt>
      <trkpt lat="49.78833" lon="2.37069">
        <ele>95.6</ele>
        <time>2023-10-11T14:27:02Z</time>
      </trkpt>
      <trkpt lat="49.78833" lon="2.37072">
        <ele>95.3</ele>
        <time>2023-10-11T14:27:03Z</time>
      </trkpt>
      <trkpt lat="49.78832" lon="2.37074">
        <ele>95.1</ele>
        <time>2023-10-11T14:27:05Z</time>
      </trkpt>
      <trkpt lat="49.78832" lon="2.37075">
        <ele>95.1</ele>
        <time>2023-10-11T14:27:06Z</time>
      </trkpt>
      <trkpt lat="49.78831" lon="2.37077">
        <ele>95.1</ele>
        <time>2023-10-11T14:27:07Z</time>
      </trkpt>
      <trkpt lat="49.7883" lon="2.37081">
        <ele>94.6</ele>
        <time>2023-10-11T14:27:08Z</time>
      </trkpt>
      <trkpt lat="49.7883" lon="2.37083">
        <ele>94.4</ele>
        <time>2023-10-11T14:27:09Z</time>
      </trkpt>
      <trkpt lat="49.78828" lon="2.37087">
        <ele>94.3</ele>
        <time>2023-10-11T14:27:11Z</time>
      </trkpt>
      <trkpt lat="49.78828" lon="2.37088">
        <ele>94.3</ele>
        <time>2023-10-11T14:27:12Z</time>
      </trkpt>
      <trkpt lat="49.78828" lon="2.37089">
        <ele>94.3</ele>
        <time>2023-10-11T14:27:13Z</time>
      </trkpt>
      <trkpt lat="49.78827" lon="2.37091">
        <ele>93.9</ele>
        <time>2023-10-11T14:27:14Z</time>
      </trkpt>
      <trkpt lat="49.78827" lon="2.37093">
        <ele>93.9</ele>
        <time>2023-10-11T14:27:15Z</time>
      </trkpt>
      <trkpt lat="49.78826" lon="2.37094">
        <ele>93.9</ele>
        <time>2023-10-11T14:27:16Z</time>
      </trkpt>
      <trkpt lat="49.78826" lon="2.37095">
        <ele>93.7</ele>
        <time>2023-10-11T14:27:17Z</time>
      </trkpt>
      <trkpt lat="49.78825" lon="2.37097">
        <ele>93.7</ele>
        <time>2023-10-11T14:27:18Z</time>
      </trkpt>
      <trkpt lat="49.78825" lon="2.37099">
        <ele>93.2</ele>
        <time>2023-10-11T14:27:19Z</time>
      </trkpt>
      <trkpt lat="49.78824" lon="2.371">
        <ele>93.2</ele>
        <time>2023-10-11T14:27:20Z</time>
      </trkpt>
      <trkpt lat="49.78824" lon="2.37101">
        <ele>93.2</ele>
        <time>2023-10-11T14:27:21Z</time>
      </trkpt>
      <trkpt lat="49.78824" lon="2.37102">
        <ele>93.2</ele>
        <time>2023-10-11T14:27:22Z</time>
      </trkpt>
      <trkpt lat="49.78823" lon="2.37103">
        <ele>93.2</ele>
        <time>2023-10-11T14:27:23Z</time>
      </trkpt>
      <trkpt lat="49.78823" lon="2.37104">
        <ele>92.9</ele>
        <time>2023-10-11T14:27:24Z</time>
      </trkpt>
      <trkpt lat="49.78822" lon="2.37106">
        <ele>92.9</ele>
        <time>2023-10-11T14:27:25Z</time>
      </trkpt>
      <trkpt lat="49.78822" lon="2.37107">
        <ele>92.6</ele>
        <time>2023-10-11T14:27:27Z</time>
      </trkpt>
      <trkpt lat="49.78821" lon="2.3711">
        <ele>92.2</ele>
        <time>2023-10-11T14:27:28Z</time>
      </trkpt>
      <trkpt lat="49.7882" lon="2.37111">
        <ele>92.2</ele>
        <time>2023-10-11T14:27:30Z</time>
      </trkpt>
      <trkpt lat="49.78819" lon="2.37114">
        <ele>91.3</ele>
        <time>2023-10-11T14:27:31Z</time>
      </trkpt>
      <trkpt lat="49.78818" lon="2.37115">
        <ele>91.3</ele>
        <time>2023-10-11T14:27:33Z</time>
      </trkpt>
      <trkpt lat="49.78818" lon="2.37117">
        <ele>90.8</ele>
        <time>2023-10-11T14:27:34Z</time>
      </trkpt>
      <trkpt lat="49.78816" lon="2.3712">
        <ele>90.4</ele>
        <time>2023-10-11T14:27:35Z</time>
      </trkpt>
      <trkpt lat="49.78815" lon="2.37125">
        <ele>89.3</ele>
        <time>2023-10-11T14:27:37Z</time>
      </trkpt>
      <trkpt lat="49.78814" lon="2.37127">
        <ele>89.3</ele>
        <time>2023-10-11T14:27:39Z</time>
      </trkpt>
      <trkpt lat="49.78814" lon="2.37129">
        <ele>89.3</ele>
        <time>2023-10-11T14:27:41Z</time>
      </trkpt>
      <trkpt lat="49.78813" lon="2.37131">
        <ele>88.3</ele>
        <time>2023-10-11T14:27:43Z</time>
      </trkpt>
      <trkpt lat="49.78813" lon="2.37133">
        <ele>88.3</ele>
        <time>2023-10-11T14:27:44Z</time>
      </trkpt>
      <trkpt lat="49.78812" lon="2.37136">
        <ele>87.8</ele>
        <time>2023-10-11T14:27:45Z</time>
      </trkpt>
      <trkpt lat="49.78811" lon="2.37138">
        <ele>87.3</ele>
        <time>2023-10-11T14:27:47Z</time>
      </trkpt>
      <trkpt lat="49.78811" lon="2.37139">
        <ele>86.7</ele>
        <time>2023-10-11T14:27:48Z</time>
      </trkpt>
      <trkpt lat="49.7881" lon="2.3714">
        <ele>86.7</ele>
        <time>2023-10-11T14:27:49Z</time>
      </trkpt>
      <trkpt lat="49.7881" lon="2.37143">
        <ele>86.3</ele>
        <time>2023-10-11T14:27:50Z</time>
      </trkpt>
      <trkpt lat="49.7881" lon="2.37144">
        <ele>86.3</ele>
        <time>2023-10-11T14:27:52Z</time>
      </trkpt>
      <trkpt lat="49.78809" lon="2.37145">
        <ele>86.3</ele>
        <time>2023-10-11T14:27:53Z</time>
      </trkpt>
      <trkpt lat="49.78809" lon="2.37147">
        <ele>85.8</ele>
        <time>2023-10-11T14:27:54Z</time>
      </trkpt>
      <trkpt lat="49.78808" lon="2.37149">
        <ele>85.8</ele>
        <time>2023-10-11T14:27:56Z</time>
      </trkpt>
      <trkpt lat="49.78808" lon="2.3715">
        <ele>85.2</ele>
        <time>2023-10-11T14:27:57Z</time>
      </trkpt>
      <trkpt lat="49.78808" lon="2.37151">
        <ele>84.7</ele>
        <time>2023-10-11T14:27:58Z</time>
      </trkpt>
      <trkpt lat="49.78807" lon="2.37152">
        <ele>84.7</ele>
        <time>2023-10-11T14:27:59Z</time>
      </trkpt>
      <trkpt lat="49.78806" lon="2.37155">
        <ele>84.2</ele>
        <time>2023-10-11T14:28:00Z</time>
      </trkpt>
      <trkpt lat="49.78805" lon="2.37157">
        <ele>83.6</ele>
        <time>2023-10-11T14:28:01Z</time>
      </trkpt>
      <trkpt lat="49.78805" lon="2.37158">
        <ele>83.6</ele>
        <time>2023-10-11T14:28:03Z</time>
      </trkpt>
      <trkpt lat="49.78804" lon="2.3716">
        <ele>83</ele>
        <time>2023-10-11T14:28:04Z</time>
      </trkpt>
      <trkpt lat="49.78803" lon="2.37161">
        <ele>83</ele>
        <time>2023-10-11T14:28:05Z</time>
      </trkpt>
      <trkpt lat="49.78803" lon="2.37163">
        <ele>83</ele>
        <time>2023-10-11T14:28:07Z</time>
      </trkpt>
      <trkpt lat="49.78802" lon="2.37164">
        <ele>81.7</ele>
        <time>2023-10-11T14:28:08Z</time>
      </trkpt>
      <trkpt lat="49.78801" lon="2.37167">
        <ele>81.7</ele>
        <time>2023-10-11T14:28:09Z</time>
      </trkpt>
      <trkpt lat="49.78801" lon="2.37169">
        <ele>81</ele>
        <time>2023-10-11T14:28:11Z</time>
      </trkpt>
      <trkpt lat="49.78801" lon="2.3717">
        <ele>81</ele>
        <time>2023-10-11T14:28:12Z</time>
      </trkpt>
      <trkpt lat="49.788" lon="2.37172">
        <ele>81</ele>
        <time>2023-10-11T14:28:13Z</time>
      </trkpt>
      <trkpt lat="49.788" lon="2.37173">
        <ele>79.8</ele>
        <time>2023-10-11T14:28:14Z</time>
      </trkpt>
      <trkpt lat="49.78799" lon="2.37175">
        <ele>79.8</ele>
        <time>2023-10-11T14:28:15Z</time>
      </trkpt>
      <trkpt lat="49.78799" lon="2.37177">
        <ele>79.2</ele>
        <time>2023-10-11T14:28:16Z</time>
      </trkpt>
      <trkpt lat="49.78799" lon="2.37179">
        <ele>79.2</ele>
        <time>2023-10-11T14:28:17Z</time>
      </trkpt>
      <trkpt lat="49.78798" lon="2.37181">
        <ele>78.7</ele>
        <time>2023-10-11T14:28:18Z</time>
      </trkpt>
      <trkpt lat="49.78798" lon="2.37183">
        <ele>78.7</ele>
        <time>2023-10-11T14:28:19Z</time>
      </trkpt>
      <trkpt lat="49.78797" lon="2.37184">
        <ele>78.7</ele>
        <time>2023-10-11T14:28:20Z</time>
      </trkpt>
      <trkpt lat="49.78797" lon="2.37186">
        <ele>77.8</ele>
        <time>2023-10-11T14:28:21Z</time>
      </trkpt>
      <trkpt lat="49.78796" lon="2.37187">
        <ele>77.8</ele>
        <time>2023-10-11T14:28:22Z</time>
      </trkpt>
      <trkpt lat="49.78796" lon="2.37189">
        <ele>77.4</ele>
        <time>2023-10-11T14:28:23Z</time>
      </trkpt>
      <trkpt lat="49.78795" lon="2.37193">
        <ele>77.4</ele>
        <time>2023-10-11T14:28:24Z</time>
      </trkpt>
      <trkpt lat="49.78794" lon="2.37194">
        <ele>77.1</ele>
        <time>2023-10-11T14:28:25Z</time>
      </trkpt>
      <trkpt lat="49.78794" lon="2.37196">
        <ele>76.8</ele>
        <time>2023-10-11T14:28:26Z</time>
      </trkpt>
      <trkpt lat="49.78793" lon="2.372">
        <ele>76.5</ele>
        <time>2023-10-11T14:28:28Z</time>
      </trkpt>
      <trkpt lat="49.78792" lon="2.37201">
        <ele>76.5</ele>
        <time>2023-10-11T14:28:29Z</time>
      </trkpt>
      <trkpt lat="49.78792" lon="2.37202">
        <ele>76.2</ele>
        <time>2023-10-11T14:28:30Z</time>
      </trkpt>
      <trkpt lat="49.78791" lon="2.37204">
        <ele>75.9</ele>
        <time>2023-10-11T14:28:31Z</time>
      </trkpt>
      <trkpt lat="49.78791" lon="2.37207">
        <ele>75.6</ele>
        <time>2023-10-11T14:28:32Z</time>
      </trkpt>
      <trkpt lat="49.7879" lon="2.37208">
        <ele>75.6</ele>
        <time>2023-10-11T14:28:33Z</time>
      </trkpt>
      <trkpt lat="49.7879" lon="2.3721">
        <ele>75.6</ele>
        <time>2023-10-11T14:28:34Z</time>
      </trkpt>
      <trkpt lat="49.7879" lon="2.37211">
        <ele>75.2</ele>
        <time>2023-10-11T14:28:35Z</time>
      </trkpt>
      <trkpt lat="49.78789" lon="2.37214">
        <ele>75.2</ele>
        <time>2023-10-11T14:28:36Z</time>
      </trkpt>
      <trkpt lat="49.78788" lon="2.37217">
        <ele>74.5</ele>
        <time>2023-10-11T14:28:37Z</time>
      </trkpt>
      <trkpt lat="49.78788" lon="2.37219">
        <ele>74.5</ele>
        <time>2023-10-11T14:28:38Z</time>
      </trkpt>
      <trkpt lat="49.78788" lon="2.3722">
        <ele>74</ele>
        <time>2023-10-11T14:28:40Z</time>
      </trkpt>
      <trkpt lat="49.78787" lon="2.37222">
        <ele>74</ele>
        <time>2023-10-11T14:28:41Z</time>
      </trkpt>
      <trkpt lat="49.78787" lon="2.37224">
        <ele>73.5</ele>
        <time>2023-10-11T14:28:42Z</time>
      </trkpt>
      <trkpt lat="49.78786" lon="2.37227">
        <ele>73.5</ele>
        <time>2023-10-11T14:28:44Z</time>
      </trkpt>
      <trkpt lat="49.78786" lon="2.37228">
        <ele>73</ele>
        <time>2023-10-11T14:28:46Z</time>
      </trkpt>
      <trkpt lat="49.78786" lon="2.37229">
        <ele>73</ele>
        <time>2023-10-11T14:28:47Z</time>
      </trkpt>
      <trkpt lat="49.78786" lon="2.3723">
        <ele>72.7</ele>
        <time>2023-10-11T14:28:48Z</time>
      </trkpt>
      <trkpt lat="49.78786" lon="2.37231">
        <ele>73</ele>
        <time>2023-10-11T14:28:49Z</time>
      </trkpt>
      <trkpt lat="49.78786" lon="2.37232">
        <ele>72.3</ele>
        <time>2023-10-11T14:28:50Z</time>
      </trkpt>
      <trkpt lat="49.78786" lon="2.37234">
        <ele>72.3</ele>
        <time>2023-10-11T14:28:51Z</time>
      </trkpt>
      <trkpt lat="49.78786" lon="2.37235">
        <ele>72.3</ele>
        <time>2023-10-11T14:28:52Z</time>
      </trkpt>
      <trkpt lat="49.78786" lon="2.37237">
        <ele>71.9</ele>
        <time>2023-10-11T14:28:53Z</time>
      </trkpt>
      <trkpt lat="49.78786" lon="2.37238">
        <ele>71.9</ele>
        <time>2023-10-11T14:28:54Z</time>
      </trkpt>
      <trkpt lat="49.78786" lon="2.3724">
        <ele>71.9</ele>
        <time>2023-10-11T14:28:55Z</time>
      </trkpt>
      <trkpt lat="49.78786" lon="2.37242">
        <ele>71.6</ele>
        <time>2023-10-11T14:28:56Z</time>
      </trkpt>
      <trkpt lat="49.78786" lon="2.37243">
        <ele>71.6</ele>
        <time>2023-10-11T14:28:57Z</time>
      </trkpt>
      <trkpt lat="49.78786" lon="2.37245">
        <ele>71.3</ele>
        <time>2023-10-11T14:28:58Z</time>
      </trkpt>
      <trkpt lat="49.78786" lon="2.37248">
        <ele>71.7</ele>
        <time>2023-10-11T14:28:59Z</time>
      </trkpt>
      <trkpt lat="49.78786" lon="2.3725">
        <ele>71.4</ele>
        <time>2023-10-11T14:29:01Z</time>
      </trkpt>
      <trkpt lat="49.78787" lon="2.37252">
        <ele>71.4</ele>
        <time>2023-10-11T14:29:02Z</time>
      </trkpt>
      <trkpt lat="49.78787" lon="2.37253">
        <ele>71.1</ele>
        <time>2023-10-11T14:29:03Z</time>
      </trkpt>
      <trkpt lat="49.78787" lon="2.37255">
        <ele>70.9</ele>
        <time>2023-10-11T14:29:04Z</time>
      </trkpt>
      <trkpt lat="49.78787" lon="2.37258">
        <ele>70.6</ele>
        <time>2023-10-11T14:29:05Z</time>
      </trkpt>
      <trkpt lat="49.78788" lon="2.37261">
        <ele>70.3</ele>
        <time>2023-10-11T14:29:06Z</time>
      </trkpt>
      <trkpt lat="49.78788" lon="2.37263">
        <ele>70.2</ele>
        <time>2023-10-11T14:29:08Z</time>
      </trkpt>
      <trkpt lat="49.78788" lon="2.37264">
        <ele>70</ele>
        <time>2023-10-11T14:29:09Z</time>
      </trkpt>
      <trkpt lat="49.78788" lon="2.37266">
        <ele>69.9</ele>
        <time>2023-10-11T14:29:10Z</time>
      </trkpt>
      <trkpt lat="49.78788" lon="2.37267">
        <ele>69.7</ele>
        <time>2023-10-11T14:29:11Z</time>
      </trkpt>
      <trkpt lat="49.78788" lon="2.37269">
        <ele>69.6</ele>
        <time>2023-10-11T14:29:12Z</time>
      </trkpt>
      <trkpt lat="49.78787" lon="2.37273">
        <ele>69.2</ele>
        <time>2023-10-11T14:29:13Z</time>
      </trkpt>
      <trkpt lat="49.78787" lon="2.37274">
        <ele>69.1</ele>
        <time>2023-10-11T14:29:15Z</time>
      </trkpt>
      <trkpt lat="49.78787" lon="2.37278">
        <ele>68.7</ele>
        <time>2023-10-11T14:29:16Z</time>
      </trkpt>
      <trkpt lat="49.78787" lon="2.3728">
        <ele>68.5</ele>
        <time>2023-10-11T14:29:18Z</time>
      </trkpt>
      <trkpt lat="49.78787" lon="2.37282">
        <ele>68.4</ele>
        <time>2023-10-11T14:29:19Z</time>
      </trkpt>
      <trkpt lat="49.78787" lon="2.37283">
        <ele>68.2</ele>
        <time>2023-10-11T14:29:20Z</time>
      </trkpt>
      <trkpt lat="49.78787" lon="2.37285">
        <ele>68</ele>
        <time>2023-10-11T14:29:21Z</time>
      </trkpt>
      <trkpt lat="49.78787" lon="2.37287">
        <ele>67.9</ele>
        <time>2023-10-11T14:29:22Z</time>
      </trkpt>
      <trkpt lat="49.78786" lon="2.3729">
        <ele>67.6</ele>
        <time>2023-10-11T14:29:23Z</time>
      </trkpt>
      <trkpt lat="49.78786" lon="2.37291">
        <ele>67.4</ele>
        <time>2023-10-11T14:29:25Z</time>
      </trkpt>
      <trkpt lat="49.78786" lon="2.37293">
        <ele>67.3</ele>
        <time>2023-10-11T14:29:26Z</time>
      </trkpt>
      <trkpt lat="49.78786" lon="2.37295">
        <ele>67.2</ele>
        <time>2023-10-11T14:29:27Z</time>
      </trkpt>
      <trkpt lat="49.78786" lon="2.37298">
        <ele>66.8</ele>
        <time>2023-10-11T14:29:28Z</time>
      </trkpt>
      <trkpt lat="49.78786" lon="2.373">
        <ele>66.7</ele>
        <time>2023-10-11T14:29:30Z</time>
      </trkpt>
      <trkpt lat="49.78786" lon="2.37302">
        <ele>66.5</ele>
        <time>2023-10-11T14:29:31Z</time>
      </trkpt>
      <trkpt lat="49.78786" lon="2.37304">
        <ele>66.3</ele>
        <time>2023-10-11T14:29:32Z</time>
      </trkpt>
      <trkpt lat="49.78786" lon="2.37309">
        <ele>65.9</ele>
        <time>2023-10-11T14:29:33Z</time>
      </trkpt>
      <trkpt lat="49.78786" lon="2.37311">
        <ele>65.7</ele>
        <time>2023-10-11T14:29:35Z</time>
      </trkpt>
      <trkpt lat="49.78786" lon="2.37313">
        <ele>65.6</ele>
        <time>2023-10-11T14:29:36Z</time>
      </trkpt>
      <trkpt lat="49.78786" lon="2.37315">
        <ele>65.4</ele>
        <time>2023-10-11T14:29:37Z</time>
      </trkpt>
      <trkpt lat="49.78786" lon="2.37316">
        <ele>65.3</ele>
        <time>2023-10-11T14:29:38Z</time>
      </trkpt>
      <trkpt lat="49.78786" lon="2.37318">
        <ele>65.1</ele>
        <time>2023-10-11T14:29:39Z</time>
      </trkpt>
      <trkpt lat="49.78787" lon="2.3732">
        <ele>65</ele>
        <time>2023-10-11T14:29:41Z</time>
      </trkpt>
      <trkpt lat="49.78787" lon="2.37322">
        <ele>64.8</ele>
        <time>2023-10-11T14:29:42Z</time>
      </trkpt>
      <trkpt lat="49.78787" lon="2.37324">
        <ele>64.7</ele>
        <time>2023-10-11T14:29:43Z</time>
      </trkpt>
      <trkpt lat="49.78787" lon="2.37325">
        <ele>64.6</ele>
        <time>2023-10-11T14:29:44Z</time>
      </trkpt>
      <trkpt lat="49.78787" lon="2.37329">
        <ele>64.3</ele>
        <time>2023-10-11T14:29:45Z</time>
      </trkpt>
      <trkpt lat="49.78787" lon="2.3733">
        <ele>64.2</ele>
        <time>2023-10-11T14:29:46Z</time>
      </trkpt>
      <trkpt lat="49.78787" lon="2.37331">
        <ele>64.1</ele>
        <time>2023-10-11T14:29:47Z</time>
      </trkpt>
      <trkpt lat="49.78788" lon="2.37335">
        <ele>63.9</ele>
        <time>2023-10-11T14:29:48Z</time>
      </trkpt>
      <trkpt lat="49.78788" lon="2.37336">
        <ele>63.8</ele>
        <time>2023-10-11T14:29:49Z</time>
      </trkpt>
      <trkpt lat="49.78788" lon="2.37337">
        <ele>63.7</ele>
        <time>2023-10-11T14:29:50Z</time>
      </trkpt>
      <trkpt lat="49.78788" lon="2.37339">
        <ele>63.5</ele>
        <time>2023-10-11T14:29:51Z</time>
      </trkpt>
      <trkpt lat="49.78788" lon="2.37341">
        <ele>63.4</ele>
        <time>2023-10-11T14:29:52Z</time>
      </trkpt>
      <trkpt lat="49.78788" lon="2.37343">
        <ele>63.3</ele>
        <time>2023-10-11T14:29:53Z</time>
      </trkpt>
      <trkpt lat="49.78788" lon="2.37346">
        <ele>63.1</ele>
        <time>2023-10-11T14:29:54Z</time>
      </trkpt>
      <trkpt lat="49.78788" lon="2.37349">
        <ele>62.9</ele>
        <time>2023-10-11T14:29:56Z</time>
      </trkpt>
      <trkpt lat="49.78788" lon="2.37351">
        <ele>62.7</ele>
        <time>2023-10-11T14:29:58Z</time>
      </trkpt>
      <trkpt lat="49.78788" lon="2.37353">
        <ele>62.6</ele>
        <time>2023-10-11T14:29:59Z</time>
      </trkpt>
      <trkpt lat="49.78788" lon="2.37356">
        <ele>62.4</ele>
        <time>2023-10-11T14:30:00Z</time>
      </trkpt>
      <trkpt lat="49.78788" lon="2.37359">
        <ele>62.2</ele>
        <time>2023-10-11T14:30:02Z</time>
      </trkpt>
      <trkpt lat="49.78788" lon="2.37362">
        <ele>62</ele>
        <time>2023-10-11T14:30:04Z</time>
      </trkpt>
      <trkpt lat="49.78788" lon="2.37365">
        <ele>61.7</ele>
        <time>2023-10-11T14:30:06Z</time>
      </trkpt>
      <trkpt lat="49.78788" lon="2.37367">
        <ele>61.6</ele>
        <time>2023-10-11T14:30:07Z</time>
      </trkpt>
      <trkpt lat="49.78788" lon="2.37371">
        <ele>61.4</ele>
        <time>2023-10-11T14:30:09Z</time>
      </trkpt>
      <trkpt lat="49.78788" lon="2.37372">
        <ele>61.3</ele>
        <time>2023-10-11T14:30:10Z</time>
      </trkpt>
      <trkpt lat="49.78789" lon="2.37373">
        <ele>61.2</ele>
        <time>2023-10-11T14:30:11Z</time>
      </trkpt>
      <trkpt lat="49.78789" lon="2.37377">
        <ele>60.9</ele>
        <time>2023-10-11T14:30:12Z</time>
      </trkpt>
      <trkpt lat="49.78789" lon="2.37379">
        <ele>60.8</ele>
        <time>2023-10-11T14:30:13Z</time>
      </trkpt>
      <trkpt lat="49.78789" lon="2.37382">
        <ele>60.6</ele>
        <time>2023-10-11T14:30:15Z</time>
      </trkpt>
      <trkpt lat="49.7879" lon="2.37384">
        <ele>60.5</ele>
        <time>2023-10-11T14:30:16Z</time>
      </trkpt>
      <trkpt lat="49.7879" lon="2.37385">
        <ele>60.4</ele>
        <time>2023-10-11T14:30:17Z</time>
      </trkpt>
      <trkpt lat="49.7879" lon="2.37387">
        <ele>60.3</ele>
        <time>2023-10-11T14:30:18Z</time>
      </trkpt>
      <trkpt lat="49.78791" lon="2.37391">
        <ele>60</ele>
        <time>2023-10-11T14:30:19Z</time>
      </trkpt>
      <trkpt lat="49.78791" lon="2.37394">
        <ele>59.8</ele>
        <time>2023-10-11T14:30:21Z</time>
      </trkpt>
      <trkpt lat="49.78791" lon="2.37396">
        <ele>59.7</ele>
        <time>2023-10-11T14:30:22Z</time>
      </trkpt>
      <trkpt lat="49.78791" lon="2.37398">
        <ele>59.5</ele>
        <time>2023-10-11T14:30:23Z</time>
      </trkpt>
      <trkpt lat="49.78792" lon="2.37399">
        <ele>59.4</ele>
        <time>2023-10-11T14:30:25Z</time>
      </trkpt>
      <trkpt lat="49.78792" lon="2.37401">
        <ele>59.3</ele>
        <time>2023-10-11T14:30:26Z</time>
      </trkpt>
      <trkpt lat="49.78792" lon="2.37402">
        <ele>59.2</ele>
        <time>2023-10-11T14:30:27Z</time>
      </trkpt>
      <trkpt lat="49.78793" lon="2.37406">
        <ele>59</ele>
        <time>2023-10-11T14:30:28Z</time>
      </trkpt>
      <trkpt lat="49.78793" lon="2.37407">
        <ele>58.9</ele>
        <time>2023-10-11T14:30:29Z</time>
      </trkpt>
      <trkpt lat="49.78793" lon="2.37409">
        <ele>58.8</ele>
        <time>2023-10-11T14:30:31Z</time>
      </trkpt>
      <trkpt lat="49.78794" lon="2.37412">
        <ele>58.5</ele>
        <time>2023-10-11T14:30:32Z</time>
      </trkpt>
      <trkpt lat="49.78794" lon="2.37414">
        <ele>58.4</ele>
        <time>2023-10-11T14:30:34Z</time>
      </trkpt>
      <trkpt lat="49.78794" lon="2.37415">
        <ele>58.3</ele>
        <time>2023-10-11T14:30:35Z</time>
      </trkpt>
      <trkpt lat="49.78794" lon="2.37419">
        <ele>58.1</ele>
        <time>2023-10-11T14:30:36Z</time>
      </trkpt>
      <trkpt lat="49.78795" lon="2.37422">
        <ele>57.8</ele>
        <time>2023-10-11T14:30:38Z</time>
      </trkpt>
      <trkpt lat="49.78795" lon="2.37426">
        <ele>57.6</ele>
        <time>2023-10-11T14:30:40Z</time>
      </trkpt>
      <trkpt lat="49.78795" lon="2.37427">
        <ele>57.5</ele>
        <time>2023-10-11T14:30:41Z</time>
      </trkpt>
      <trkpt lat="49.78795" lon="2.37429">
        <ele>57.3</ele>
        <time>2023-10-11T14:30:42Z</time>
      </trkpt>
      <trkpt lat="49.78795" lon="2.37432">
        <ele>57.1</ele>
        <time>2023-10-11T14:30:44Z</time>
      </trkpt>
      <trkpt lat="49.78794" lon="2.37434">
        <ele>57</ele>
        <time>2023-10-11T14:30:45Z</time>
      </trkpt>
      <trkpt lat="49.78794" lon="2.37438">
        <ele>56.8</ele>
        <time>2023-10-11T14:30:46Z</time>
      </trkpt>
      <trkpt lat="49.78794" lon="2.37439">
        <ele>56.6</ele>
        <time>2023-10-11T14:30:47Z</time>
      </trkpt>
      <trkpt lat="49.78794" lon="2.37441">
        <ele>56.5</ele>
        <time>2023-10-11T14:30:49Z</time>
      </trkpt>
      <trkpt lat="49.78794" lon="2.37443">
        <ele>56.4</ele>
        <time>2023-10-11T14:30:50Z</time>
      </trkpt>
      <trkpt lat="49.78794" lon="2.37445">
        <ele>56.2</ele>
        <time>2023-10-11T14:30:51Z</time>
      </trkpt>
      <trkpt lat="49.78795" lon="2.37447">
        <ele>56.1</ele>
        <time>2023-10-11T14:30:53Z</time>
      </trkpt>
      <trkpt lat="49.78795" lon="2.3745">
        <ele>55.8</ele>
        <time>2023-10-11T14:30:54Z</time>
      </trkpt>
      <trkpt lat="49.78795" lon="2.37455">
        <ele>55.5</ele>
        <time>2023-10-11T14:30:56Z</time>
      </trkpt>
      <trkpt lat="49.78795" lon="2.37456">
        <ele>55.4</ele>
        <time>2023-10-11T14:30:57Z</time>
      </trkpt>
      <trkpt lat="49.78795" lon="2.37458">
        <ele>55.3</ele>
        <time>2023-10-11T14:30:58Z</time>
      </trkpt>
      <trkpt lat="49.78795" lon="2.3746">
        <ele>55.1</ele>
        <time>2023-10-11T14:30:59Z</time>
      </trkpt>
      <trkpt lat="49.78795" lon="2.37463">
        <ele>54.9</ele>
        <time>2023-10-11T14:31:01Z</time>
      </trkpt>
      <trkpt lat="49.78795" lon="2.37464">
        <ele>54.8</ele>
        <time>2023-10-11T14:31:02Z</time>
      </trkpt>
      <trkpt lat="49.78794" lon="2.37466">
        <ele>54.7</ele>
        <time>2023-10-11T14:31:04Z</time>
      </trkpt>
      <trkpt lat="49.78794" lon="2.37468">
        <ele>54.5</ele>
        <time>2023-10-11T14:31:05Z</time>
      </trkpt>
      <trkpt lat="49.78794" lon="2.37471">
        <ele>54.2</ele>
        <time>2023-10-11T14:31:07Z</time>
      </trkpt>
      <trkpt lat="49.78794" lon="2.37474">
        <ele>54</ele>
        <time>2023-10-11T14:31:09Z</time>
      </trkpt>
      <trkpt lat="49.78794" lon="2.37476">
        <ele>53.9</ele>
        <time>2023-10-11T14:31:11Z</time>
      </trkpt>
      <trkpt lat="49.78794" lon="2.37477">
        <ele>53.8</ele>
        <time>2023-10-11T14:31:12Z</time>
      </trkpt>
      <trkpt lat="49.78794" lon="2.37478">
        <ele>53.7</ele>
        <time>2023-10-11T14:31:13Z</time>
      </trkpt>
      <trkpt lat="49.78794" lon="2.3748">
        <ele>53.6</ele>
        <time>2023-10-11T14:31:14Z</time>
      </trkpt>
      <trkpt lat="49.78794" lon="2.37481">
        <ele>53.5</ele>
        <time>2023-10-11T14:31:15Z</time>
      </trkpt>
      <trkpt lat="49.78794" lon="2.37483">
        <ele>53.4</ele>
        <time>2023-10-11T14:31:16Z</time>
      </trkpt>
      <trkpt lat="49.78794" lon="2.37484">
        <ele>53.3</ele>
        <time>2023-10-11T14:31:17Z</time>
      </trkpt>
      <trkpt lat="49.78793" lon="2.37486">
        <ele>53.1</ele>
        <time>2023-10-11T14:31:18Z</time>
      </trkpt>
      <trkpt lat="49.78793" lon="2.37487">
        <ele>53</ele>
        <time>2023-10-11T14:31:19Z</time>
      </trkpt>
      <trkpt lat="49.78793" lon="2.37489">
        <ele>52.9</ele>
        <time>2023-10-11T14:31:20Z</time>
      </trkpt>
      <trkpt lat="49.78793" lon="2.37491">
        <ele>52.7</ele>
        <time>2023-10-11T14:31:21Z</time>
      </trkpt>
      <trkpt lat="49.78793" lon="2.37493">
        <ele>52.6</ele>
        <time>2023-10-11T14:31:22Z</time>
      </trkpt>
      <trkpt lat="49.78793" lon="2.37494">
        <ele>52.5</ele>
        <time>2023-10-11T14:31:23Z</time>
      </trkpt>
      <trkpt lat="49.78793" lon="2.37496">
        <ele>52.4</ele>
        <time>2023-10-11T14:31:24Z</time>
      </trkpt>
      <trkpt lat="49.78793" lon="2.37498">
        <ele>52.2</ele>
        <time>2023-10-11T14:31:25Z</time>
      </trkpt>
      <trkpt lat="49.78793" lon="2.37499">
        <ele>52.1</ele>
        <time>2023-10-11T14:31:26Z</time>
      </trkpt>
      <trkpt lat="49.78793" lon="2.37501">
        <ele>52</ele>
        <time>2023-10-11T14:31:27Z</time>
      </trkpt>
      <trkpt lat="49.78792" lon="2.37503">
        <ele>51.8</ele>
        <time>2023-10-11T14:31:28Z</time>
      </trkpt>
      <trkpt lat="49.78792" lon="2.37505">
        <ele>51.7</ele>
        <time>2023-10-11T14:31:29Z</time>
      </trkpt>
      <trkpt lat="49.78792" lon="2.37508">
        <ele>51.5</ele>
        <time>2023-10-11T14:31:30Z</time>
      </trkpt>
      <trkpt lat="49.78792" lon="2.37509">
        <ele>51.4</ele>
        <time>2023-10-11T14:31:31Z</time>
      </trkpt>
      <trkpt lat="49.78792" lon="2.37511">
        <ele>51.3</ele>
        <time>2023-10-11T14:31:32Z</time>
      </trkpt>
      <trkpt lat="49.78792" lon="2.37513">
        <ele>51.2</ele>
        <time>2023-10-11T14:31:33Z</time>
      </trkpt>
      <trkpt lat="49.78792" lon="2.37514">
        <ele>51.1</ele>
        <time>2023-10-11T14:31:34Z</time>
      </trkpt>
      <trkpt lat="49.78792" lon="2.37516">
        <ele>50.9</ele>
        <time>2023-10-11T14:31:35Z</time>
      </trkpt>
      <trkpt lat="49.78792" lon="2.37518">
        <ele>50.8</ele>
        <time>2023-10-11T14:31:36Z</time>
      </trkpt>
      <trkpt lat="49.78792" lon="2.37519">
        <ele>50.7</ele>
        <time>2023-10-11T14:31:37Z</time>
      </trkpt>
      <trkpt lat="49.78792" lon="2.37521">
        <ele>50.6</ele>
        <time>2023-10-11T14:31:38Z</time>
      </trkpt>
      <trkpt lat="49.78792" lon="2.37523">
        <ele>50.5</ele>
        <time>2023-10-11T14:31:39Z</time>
      </trkpt>
      <trkpt lat="49.78792" lon="2.37525">
        <ele>50.4</ele>
        <time>2023-10-11T14:31:40Z</time>
      </trkpt>
      <trkpt lat="49.78792" lon="2.37528">
        <ele>50.1</ele>
        <time>2023-10-11T14:31:41Z</time>
      </trkpt>
      <trkpt lat="49.78792" lon="2.37531">
        <ele>49.9</ele>
        <time>2023-10-11T14:31:43Z</time>
      </trkpt>
      <trkpt lat="49.78792" lon="2.37533">
        <ele>49.8</ele>
        <time>2023-10-11T14:31:45Z</time>
      </trkpt>
      <trkpt lat="49.78791" lon="2.37534">
        <ele>49.7</ele>
        <time>2023-10-11T14:31:46Z</time>
      </trkpt>
      <trkpt lat="49.78791" lon="2.37536">
        <ele>49.6</ele>
        <time>2023-10-11T14:31:47Z</time>
      </trkpt>
      <trkpt lat="49.78791" lon="2.37537">
        <ele>49.5</ele>
        <time>2023-10-11T14:31:48Z</time>
      </trkpt>
      <trkpt lat="49.78791" lon="2.37539">
        <ele>49.4</ele>
        <time>2023-10-11T14:31:49Z</time>
      </trkpt>
      <trkpt lat="49.78791" lon="2.37542">
        <ele>49.2</ele>
        <time>2023-10-11T14:31:50Z</time>
      </trkpt>
      <trkpt lat="49.78791" lon="2.37543">
        <ele>49</ele>
        <time>2023-10-11T14:31:52Z</time>
      </trkpt>
      <trkpt lat="49.7879" lon="2.37545">
        <ele>48.9</ele>
        <time>2023-10-11T14:31:53Z</time>
      </trkpt>
      <trkpt lat="49.7879" lon="2.37548">
        <ele>48.7</ele>
        <time>2023-10-11T14:31:54Z</time>
      </trkpt>
      <trkpt lat="49.7879" lon="2.37549">
        <ele>48.6</ele>
        <time>2023-10-11T14:31:55Z</time>
      </trkpt>
      <trkpt lat="49.7879" lon="2.37551">
        <ele>48.5</ele>
        <time>2023-10-11T14:31:56Z</time>
      </trkpt>
      <trkpt lat="49.78789" lon="2.37554">
        <ele>48.3</ele>
        <time>2023-10-11T14:31:58Z</time>
      </trkpt>
      <trkpt lat="49.78789" lon="2.37555">
        <ele>48.2</ele>
        <time>2023-10-11T14:31:59Z</time>
      </trkpt>
      <trkpt lat="49.78789" lon="2.37557">
        <ele>48.1</ele>
        <time>2023-10-11T14:32:01Z</time>
      </trkpt>
      <trkpt lat="49.78789" lon="2.37558">
        <ele>48</ele>
        <time>2023-10-11T14:32:02Z</time>
      </trkpt>
      <trkpt lat="49.78788" lon="2.3756">
        <ele>47.9</ele>
        <time>2023-10-11T14:32:03Z</time>
      </trkpt>
      <trkpt lat="49.78788" lon="2.37562">
        <ele>47.7</ele>
        <time>2023-10-11T14:32:04Z</time>
      </trkpt>
      <trkpt lat="49.78788" lon="2.37563">
        <ele>47.6</ele>
        <time>2023-10-11T14:32:06Z</time>
      </trkpt>
      <trkpt lat="49.78787" lon="2.37565">
        <ele>47.5</ele>
        <time>2023-10-11T14:32:07Z</time>
      </trkpt>
      <trkpt lat="49.78787" lon="2.37566">
        <ele>47.4</ele>
        <time>2023-10-11T14:32:08Z</time>
      </trkpt>
      <trkpt lat="49.78786" lon="2.3757">
        <ele>47.1</ele>
        <time>2023-10-11T14:32:09Z</time>
      </trkpt>
      <trkpt lat="49.78786" lon="2.37571">
        <ele>47</ele>
        <time>2023-10-11T14:32:11Z</time>
      </trkpt>
      <trkpt lat="49.78786" lon="2.37575">
        <ele>46.8</ele>
        <time>2023-10-11T14:32:12Z</time>
      </trkpt>
      <trkpt lat="49.78785" lon="2.37576">
        <ele>46.7</ele>
        <time>2023-10-11T14:32:14Z</time>
      </trkpt>
      <trkpt lat="49.78785" lon="2.37578">
        <ele>46.6</ele>
        <time>2023-10-11T14:32:15Z</time>
      </trkpt>
      <trkpt lat="49.78785" lon="2.37579">
        <ele>46.5</ele>
        <time>2023-10-11T14:32:16Z</time>
      </trkpt>
      <trkpt lat="49.78784" lon="2.37583">
        <ele>46.2</ele>
        <time>2023-10-11T14:32:17Z</time>
      </trkpt>
      <trkpt lat="49.78784" lon="2.37585">
        <ele>46.1</ele>
        <time>2023-10-11T14:32:19Z</time>
      </trkpt>
      <trkpt lat="49.78784" lon="2.37588">
        <ele>45.8</ele>
        <time>2023-10-11T14:32:20Z</time>
      </trkpt>
      <trkpt lat="49.78783" lon="2.37591">
        <ele>45.6</ele>
        <time>2023-10-11T14:32:22Z</time>
      </trkpt>
      <trkpt lat="49.78783" lon="2.37593">
        <ele>45.5</ele>
        <time>2023-10-11T14:32:23Z</time>
      </trkpt>
      <trkpt lat="49.78783" lon="2.37594">
        <ele>45.4</ele>
        <time>2023-10-11T14:32:24Z</time>
      </trkpt>
      <trkpt lat="49.78782" lon="2.37596">
        <ele>45.3</ele>
        <time>2023-10-11T14:32:25Z</time>
      </trkpt>
      <trkpt lat="49.78782" lon="2.37598">
        <ele>45.2</ele>
        <time>2023-10-11T14:32:26Z</time>
      </trkpt>
      <trkpt lat="49.78782" lon="2.37601">
        <ele>45</ele>
        <time>2023-10-11T14:32:27Z</time>
      </trkpt>
      <trkpt lat="49.78781" lon="2.37603">
        <ele>44.8</ele>
        <time>2023-10-11T14:32:28Z</time>
      </trkpt>
      <trkpt lat="49.78781" lon="2.37605">
        <ele>44.7</ele>
        <time>2023-10-11T14:32:30Z</time>
      </trkpt>
      <trkpt lat="49.78781" lon="2.37606">
        <ele>44.6</ele>
        <time>2023-10-11T14:32:31Z</time>
      </trkpt>
      <trkpt lat="49.78781" lon="2.37608">
        <ele>44.5</ele>
        <time>2023-10-11T14:32:32Z</time>
      </trkpt>
      <trkpt lat="49.78781" lon="2.37609">
        <ele>44.5</ele>
        <time>2023-10-11T14:32:33Z</time>
      </trkpt>
      <trkpt lat="49.7878" lon="2.37611">
        <ele>44.4</ele>
        <time>2023-10-11T14:32:34Z</time>
      </trkpt>
      <trkpt lat="49.7878" lon="2.37612">
        <ele>44.3</ele>
        <time>2023-10-11T14:32:35Z</time>
      </trkpt>
      <trkpt lat="49.7878" lon="2.37614">
        <ele>44.2</ele>
        <time>2023-10-11T14:32:36Z</time>
      </trkpt>
      <trkpt lat="49.7878" lon="2.37615">
        <ele>44.1</ele>
        <time>2023-10-11T14:32:37Z</time>
      </trkpt>
      <trkpt lat="49.7878" lon="2.37618">
        <ele>43.9</ele>
        <time>2023-10-11T14:32:38Z</time>
      </trkpt>
      <trkpt lat="49.78779" lon="2.37619">
        <ele>43.8</ele>
        <time>2023-10-11T14:32:40Z</time>
      </trkpt>
      <trkpt lat="49.78779" lon="2.37621">
        <ele>43.7</ele>
        <time>2023-10-11T14:32:41Z</time>
      </trkpt>
      <trkpt lat="49.78779" lon="2.37622">
        <ele>43.6</ele>
        <time>2023-10-11T14:32:42Z</time>
      </trkpt>
      <trkpt lat="49.78779" lon="2.37624">
        <ele>43.6</ele>
        <time>2023-10-11T14:32:43Z</time>
      </trkpt>
      <trkpt lat="49.78778" lon="2.37627">
        <ele>43.4</ele>
        <time>2023-10-11T14:32:44Z</time>
      </trkpt>
      <trkpt lat="49.78778" lon="2.37628">
        <ele>43.3</ele>
        <time>2023-10-11T14:32:46Z</time>
      </trkpt>
      <trkpt lat="49.78778" lon="2.3763">
        <ele>43.2</ele>
        <time>2023-10-11T14:32:47Z</time>
      </trkpt>
      <trkpt lat="49.78777" lon="2.37631">
        <ele>43.1</ele>
        <time>2023-10-11T14:32:48Z</time>
      </trkpt>
      <trkpt lat="49.78777" lon="2.37632">
        <ele>43.1</ele>
        <time>2023-10-11T14:32:49Z</time>
      </trkpt>
      <trkpt lat="49.78777" lon="2.37635">
        <ele>42.9</ele>
        <time>2023-10-11T14:32:50Z</time>
      </trkpt>
      <trkpt lat="49.78776" lon="2.37636">
        <ele>42.9</ele>
        <time>2023-10-11T14:32:52Z</time>
      </trkpt>
      <trkpt lat="49.78776" lon="2.37637">
        <ele>42.8</ele>
        <time>2023-10-11T14:32:53Z</time>
      </trkpt>
      <trkpt lat="49.78776" lon="2.37638">
        <ele>42.8</ele>
        <time>2023-10-11T14:32:54Z</time>
      </trkpt>
      <trkpt lat="49.78775" lon="2.37639">
        <ele>42.7</ele>
        <time>2023-10-11T14:32:55Z</time>
      </trkpt>
      <trkpt lat="49.78775" lon="2.37638">
        <ele>42.7</ele>
        <time>2023-10-11T14:32:56Z</time>
      </trkpt>
      <trkpt lat="49.78774" lon="2.37638">
        <ele>42.7</ele>
        <time>2023-10-11T14:32:57Z</time>
      </trkpt>
      <trkpt lat="49.78774" lon="2.37638">
        <ele>42.6</ele>
        <time>2023-10-11T14:32:58Z</time>
      </trkpt>
      <trkpt lat="49.78773" lon="2.37637">
        <ele>42.6</ele>
        <time>2023-10-11T14:32:59Z</time>
      </trkpt>
      <trkpt lat="49.78773" lon="2.37636">
        <ele>42.6</ele>
        <time>2023-10-11T14:33:00Z</time>
      </trkpt>
      <trkpt lat="49.78773" lon="2.37636">
        <ele>42.6</ele>
        <time>2023-10-11T14:33:02Z</time>
      </trkpt>
      <trkpt lat="49.78773" lon="2.37636">
        <ele>42.6</ele>
        <time>2023-10-11T14:33:03Z</time>
      </trkpt>
      <trkpt lat="49.78773" lon="2.37636">
        <ele>42.6</ele>
        <time>2023-10-11T14:33:04Z</time>
      </trkpt>
      <trkpt lat="49.78773" lon="2.37636">
        <ele>42.6</ele>
        <time>2023-10-11T14:33:05Z</time>
      </trkpt>
      <trkpt lat="49.78773" lon="2.37636">
        <ele>42.6</ele>
        <time>2023-10-11T14:33:06Z</time>
      </trkpt>
      <trkpt lat="49.78773" lon="2.37636">
        <ele>42.5</ele>
        <time>2023-10-11T14:33:07Z</time>
      </trkpt>
      <trkpt lat="49.78773" lon="2.37636">
        <ele>42.5</ele>
        <time>2023-10-11T14:33:08Z</time>
      </trkpt>
      <trkpt lat="49.78773" lon="2.37636">
        <ele>42.5</ele>
        <time>2023-10-11T14:33:10Z</time>
      </trkpt>
      <trkpt lat="49.78774" lon="2.37644">
        <ele>42.3</ele>
        <time>2023-10-11T14:37:21Z</time>
      </trkpt>
      <trkpt lat="49.78774" lon="2.37645">
        <ele>42.2</ele>
        <time>2023-10-11T14:37:22Z</time>
      </trkpt>
      <trkpt lat="49.78774" lon="2.37646">
        <ele>42.2</ele>
        <time>2023-10-11T14:37:23Z</time>
      </trkpt>
      <trkpt lat="49.78773" lon="2.37647">
        <ele>42.1</ele>
        <time>2023-10-11T14:37:24Z</time>
      </trkpt>
      <trkpt lat="49.78773" lon="2.37649">
        <ele>42.1</ele>
        <time>2023-10-11T14:37:25Z</time>
      </trkpt>
      <trkpt lat="49.78772" lon="2.37651">
        <ele>41.9</ele>
        <time>2023-10-11T14:37:26Z</time>
      </trkpt>
      <trkpt lat="49.78772" lon="2.37652">
        <ele>41.9</ele>
        <time>2023-10-11T14:37:28Z</time>
      </trkpt>
      <trkpt lat="49.78772" lon="2.37653">
        <ele>41.9</ele>
        <time>2023-10-11T14:37:29Z</time>
      </trkpt>
      <trkpt lat="49.78772" lon="2.37654">
        <ele>41.8</ele>
        <time>2023-10-11T14:37:30Z</time>
      </trkpt>
      <trkpt lat="49.78771" lon="2.37655">
        <ele>41.8</ele>
        <time>2023-10-11T14:37:31Z</time>
      </trkpt>
      <trkpt lat="49.78771" lon="2.37656">
        <ele>41.8</ele>
        <time>2023-10-11T14:37:32Z</time>
      </trkpt>
      <trkpt lat="49.78771" lon="2.37657">
        <ele>41.7</ele>
        <time>2023-10-11T14:37:33Z</time>
      </trkpt>
      <trkpt lat="49.7877" lon="2.37658">
        <ele>41.7</ele>
        <time>2023-10-11T14:37:34Z</time>
      </trkpt>
      <trkpt lat="49.7877" lon="2.37659">
        <ele>41.7</ele>
        <time>2023-10-11T14:37:35Z</time>
      </trkpt>
      <trkpt lat="49.7877" lon="2.37662">
        <ele>41.6</ele>
        <time>2023-10-11T14:37:36Z</time>
      </trkpt>
      <trkpt lat="49.7877" lon="2.37663">
        <ele>41.6</ele>
        <time>2023-10-11T14:37:37Z</time>
      </trkpt>
      <trkpt lat="49.7877" lon="2.37665">
        <ele>41.5</ele>
        <time>2023-10-11T14:37:39Z</time>
      </trkpt>
      <trkpt lat="49.78769" lon="2.37666">
        <ele>41.5</ele>
        <time>2023-10-11T14:37:40Z</time>
      </trkpt>
      <trkpt lat="49.78769" lon="2.37667">
        <ele>41.5</ele>
        <time>2023-10-11T14:37:41Z</time>
      </trkpt>
      <trkpt lat="49.78769" lon="2.37669">
        <ele>41.5</ele>
        <time>2023-10-11T14:37:42Z</time>
      </trkpt>
      <trkpt lat="49.78769" lon="2.3767">
        <ele>41.4</ele>
        <time>2023-10-11T14:37:43Z</time>
      </trkpt>
      <trkpt lat="49.78769" lon="2.37673">
        <ele>41.4</ele>
        <time>2023-10-11T14:37:44Z</time>
      </trkpt>
      <trkpt lat="49.78768" lon="2.37674">
        <ele>41.3</ele>
        <time>2023-10-11T14:37:45Z</time>
      </trkpt>
      <trkpt lat="49.78768" lon="2.37675">
        <ele>41.3</ele>
        <time>2023-10-11T14:37:46Z</time>
      </trkpt>
      <trkpt lat="49.78768" lon="2.37676">
        <ele>41.3</ele>
        <time>2023-10-11T14:37:48Z</time>
      </trkpt>
      <trkpt lat="49.78768" lon="2.37678">
        <ele>41.2</ele>
        <time>2023-10-11T14:37:49Z</time>
      </trkpt>
      <trkpt lat="49.78768" lon="2.3768">
        <ele>41.2</ele>
        <time>2023-10-11T14:37:50Z</time>
      </trkpt>
      <trkpt lat="49.78768" lon="2.37682">
        <ele>41.2</ele>
        <time>2023-10-11T14:37:51Z</time>
      </trkpt>
      <trkpt lat="49.78768" lon="2.37683">
        <ele>41.1</ele>
        <time>2023-10-11T14:37:53Z</time>
      </trkpt>
      <trkpt lat="49.78768" lon="2.37684">
        <ele>41.1</ele>
        <time>2023-10-11T14:37:54Z</time>
      </trkpt>
      <trkpt lat="49.78767" lon="2.37686">
        <ele>41.1</ele>
        <time>2023-10-11T14:37:55Z</time>
      </trkpt>
      <trkpt lat="49.78767" lon="2.37687">
        <ele>41.1</ele>
        <time>2023-10-11T14:37:56Z</time>
      </trkpt>
      <trkpt lat="49.78767" lon="2.37688">
        <ele>41</ele>
        <time>2023-10-11T14:37:57Z</time>
      </trkpt>
      <trkpt lat="49.78767" lon="2.3769">
        <ele>41</ele>
        <time>2023-10-11T14:37:58Z</time>
      </trkpt>
      <trkpt lat="49.78767" lon="2.37691">
        <ele>41</ele>
        <time>2023-10-11T14:37:59Z</time>
      </trkpt>
      <trkpt lat="49.78766" lon="2.37694">
        <ele>40.9</ele>
        <time>2023-10-11T14:38:00Z</time>
      </trkpt>
      <trkpt lat="49.78766" lon="2.37695">
        <ele>40.9</ele>
        <time>2023-10-11T14:38:02Z</time>
      </trkpt>
      <trkpt lat="49.78765" lon="2.37698">
        <ele>40.8</ele>
        <time>2023-10-11T14:38:03Z</time>
      </trkpt>
      <trkpt lat="49.78764" lon="2.37701">
        <ele>40.8</ele>
        <time>2023-10-11T14:38:05Z</time>
      </trkpt>
      <trkpt lat="49.78763" lon="2.37702">
        <ele>40.7</ele>
        <time>2023-10-11T14:38:06Z</time>
      </trkpt>
      <trkpt lat="49.78763" lon="2.37704">
        <ele>40.7</ele>
        <time>2023-10-11T14:38:08Z</time>
      </trkpt>
      <trkpt lat="49.78762" lon="2.37705">
        <ele>40.7</ele>
        <time>2023-10-11T14:38:09Z</time>
      </trkpt>
      <trkpt lat="49.78762" lon="2.37707">
        <ele>40.6</ele>
        <time>2023-10-11T14:38:10Z</time>
      </trkpt>
      <trkpt lat="49.78761" lon="2.37708">
        <ele>40.6</ele>
        <time>2023-10-11T14:38:11Z</time>
      </trkpt>
      <trkpt lat="49.7876" lon="2.37711">
        <ele>40.6</ele>
        <time>2023-10-11T14:38:12Z</time>
      </trkpt>
      <trkpt lat="49.78758" lon="2.37714">
        <ele>40.5</ele>
        <time>2023-10-11T14:38:14Z</time>
      </trkpt>
      <trkpt lat="49.78758" lon="2.37715">
        <ele>40.5</ele>
        <time>2023-10-11T14:38:15Z</time>
      </trkpt>
      <trkpt lat="49.78758" lon="2.37716">
        <ele>40.4</ele>
        <time>2023-10-11T14:38:17Z</time>
      </trkpt>
      <trkpt lat="49.78757" lon="2.37718">
        <ele>40.4</ele>
        <time>2023-10-11T14:38:18Z</time>
      </trkpt>
      <trkpt lat="49.78757" lon="2.37719">
        <ele>40.4</ele>
        <time>2023-10-11T14:38:19Z</time>
      </trkpt>
      <trkpt lat="49.78756" lon="2.3772">
        <ele>40.4</ele>
        <time>2023-10-11T14:38:20Z</time>
      </trkpt>
      <trkpt lat="49.78756" lon="2.37722">
        <ele>40.3</ele>
        <time>2023-10-11T14:38:21Z</time>
      </trkpt>
      <trkpt lat="49.78755" lon="2.37723">
        <ele>40.3</ele>
        <time>2023-10-11T14:38:22Z</time>
      </trkpt>
      <trkpt lat="49.78754" lon="2.37726">
        <ele>40.3</ele>
        <time>2023-10-11T14:38:23Z</time>
      </trkpt>
      <trkpt lat="49.78754" lon="2.37728">
        <ele>40.2</ele>
        <time>2023-10-11T14:38:24Z</time>
      </trkpt>
      <trkpt lat="49.78753" lon="2.3773">
        <ele>40.2</ele>
        <time>2023-10-11T14:38:26Z</time>
      </trkpt>
      <trkpt lat="49.78753" lon="2.37731">
        <ele>40.2</ele>
        <time>2023-10-11T14:38:27Z</time>
      </trkpt>
      <trkpt lat="49.78753" lon="2.37733">
        <ele>40.1</ele>
        <time>2023-10-11T14:38:28Z</time>
      </trkpt>
      <trkpt lat="49.78752" lon="2.37734">
        <ele>40.1</ele>
        <time>2023-10-11T14:38:29Z</time>
      </trkpt>
      <trkpt lat="49.78752" lon="2.37736">
        <ele>40.1</ele>
        <time>2023-10-11T14:38:30Z</time>
      </trkpt>
      <trkpt lat="49.78752" lon="2.37737">
        <ele>40.1</ele>
        <time>2023-10-11T14:38:31Z</time>
      </trkpt>
      <trkpt lat="49.78752" lon="2.37739">
        <ele>40</ele>
        <time>2023-10-11T14:38:32Z</time>
      </trkpt>
      <trkpt lat="49.78751" lon="2.37742">
        <ele>40</ele>
        <time>2023-10-11T14:38:33Z</time>
      </trkpt>
      <trkpt lat="49.78751" lon="2.37744">
        <ele>39.9</ele>
        <time>2023-10-11T14:38:34Z</time>
      </trkpt>
      <trkpt lat="49.7875" lon="2.37747">
        <ele>39.9</ele>
        <time>2023-10-11T14:38:36Z</time>
      </trkpt>
      <trkpt lat="49.7875" lon="2.37748">
        <ele>39.9</ele>
        <time>2023-10-11T14:38:38Z</time>
      </trkpt>
      <trkpt lat="49.7875" lon="2.3775">
        <ele>39.8</ele>
        <time>2023-10-11T14:38:39Z</time>
      </trkpt>
      <trkpt lat="49.78749" lon="2.37753">
        <ele>39.8</ele>
        <time>2023-10-11T14:38:40Z</time>
      </trkpt>
      <trkpt lat="49.78749" lon="2.37755">
        <ele>39.7</ele>
        <time>2023-10-11T14:38:41Z</time>
      </trkpt>
      <trkpt lat="49.78748" lon="2.37757">
        <ele>39.7</ele>
        <time>2023-10-11T14:38:43Z</time>
      </trkpt>
      <trkpt lat="49.78748" lon="2.37758">
        <ele>39.7</ele>
        <time>2023-10-11T14:38:44Z</time>
      </trkpt>
      <trkpt lat="49.78748" lon="2.3776">
        <ele>39.7</ele>
        <time>2023-10-11T14:38:45Z</time>
      </trkpt>
      <trkpt lat="49.78747" lon="2.37761">
        <ele>39.6</ele>
        <time>2023-10-11T14:38:46Z</time>
      </trkpt>
      <trkpt lat="49.78747" lon="2.37763">
        <ele>39.6</ele>
        <time>2023-10-11T14:38:47Z</time>
      </trkpt>
      <trkpt lat="49.78747" lon="2.37764">
        <ele>39.6</ele>
        <time>2023-10-11T14:38:48Z</time>
      </trkpt>
      <trkpt lat="49.78746" lon="2.37766">
        <ele>39.6</ele>
        <time>2023-10-11T14:38:49Z</time>
      </trkpt>
      <trkpt lat="49.78746" lon="2.37769">
        <ele>39.5</ele>
        <time>2023-10-11T14:38:50Z</time>
      </trkpt>
      <trkpt lat="49.78745" lon="2.3777">
        <ele>39.5</ele>
        <time>2023-10-11T14:38:52Z</time>
      </trkpt>
      <trkpt lat="49.78745" lon="2.37772">
        <ele>39.5</ele>
        <time>2023-10-11T14:38:53Z</time>
      </trkpt>
      <trkpt lat="49.78745" lon="2.37773">
        <ele>39.5</ele>
        <time>2023-10-11T14:38:54Z</time>
      </trkpt>
      <trkpt lat="49.78744" lon="2.37774">
        <ele>39.5</ele>
        <time>2023-10-11T14:38:55Z</time>
      </trkpt>
      <trkpt lat="49.78744" lon="2.37775">
        <ele>39.4</ele>
        <time>2023-10-11T14:38:56Z</time>
      </trkpt>
      <trkpt lat="49.78743" lon="2.37776">
        <ele>39.4</ele>
        <time>2023-10-11T14:38:57Z</time>
      </trkpt>
      <trkpt lat="49.78743" lon="2.37777">
        <ele>39.4</ele>
        <time>2023-10-11T14:38:58Z</time>
      </trkpt>
      <trkpt lat="49.78743" lon="2.37779">
        <ele>39.4</ele>
        <time>2023-10-11T14:38:59Z</time>
      </trkpt>
      <trkpt lat="49.78742" lon="2.3778">
        <ele>39.4</ele>
        <time>2023-10-11T14:39:00Z</time>
      </trkpt>
      <trkpt lat="49.78742" lon="2.37782">
        <ele>39.3</ele>
        <time>2023-10-11T14:39:01Z</time>
      </trkpt>
      <trkpt lat="49.78742" lon="2.37784">
        <ele>39.3</ele>
        <time>2023-10-11T14:39:02Z</time>
      </trkpt>
      <trkpt lat="49.78741" lon="2.37787">
        <ele>39.3</ele>
        <time>2023-10-11T14:39:04Z</time>
      </trkpt>
      <trkpt lat="49.7874" lon="2.3779">
        <ele>39.2</ele>
        <time>2023-10-11T14:39:06Z</time>
      </trkpt>
      <trkpt lat="49.78739" lon="2.37793">
        <ele>39.2</ele>
        <time>2023-10-11T14:39:08Z</time>
      </trkpt>
      <trkpt lat="49.78738" lon="2.37795">
        <ele>39.2</ele>
        <time>2023-10-11T14:39:10Z</time>
      </trkpt>
      <trkpt lat="49.78738" lon="2.37797">
        <ele>39.1</ele>
        <time>2023-10-11T14:39:11Z</time>
      </trkpt>
      <trkpt lat="49.78737" lon="2.37798">
        <ele>39.1</ele>
        <time>2023-10-11T14:39:12Z</time>
      </trkpt>
      <trkpt lat="49.78737" lon="2.378">
        <ele>39.1</ele>
        <time>2023-10-11T14:39:13Z</time>
      </trkpt>
      <trkpt lat="49.78737" lon="2.37801">
        <ele>39.1</ele>
        <time>2023-10-11T14:39:14Z</time>
      </trkpt>
      <trkpt lat="49.78736" lon="2.37803">
        <ele>39.1</ele>
        <time>2023-10-11T14:39:15Z</time>
      </trkpt>
      <trkpt lat="49.78736" lon="2.37806">
        <ele>39</ele>
        <time>2023-10-11T14:39:16Z</time>
      </trkpt>
      <trkpt lat="49.78735" lon="2.37807">
        <ele>39</ele>
        <time>2023-10-11T14:39:18Z</time>
      </trkpt>
      <trkpt lat="49.78735" lon="2.37809">
        <ele>39</ele>
        <time>2023-10-11T14:39:19Z</time>
      </trkpt>
      <trkpt lat="49.78735" lon="2.3781">
        <ele>39</ele>
        <time>2023-10-11T14:39:20Z</time>
      </trkpt>
      <trkpt lat="49.78734" lon="2.37811">
        <ele>39</ele>
        <time>2023-10-11T14:39:21Z</time>
      </trkpt>
      <trkpt lat="49.78734" lon="2.37814">
        <ele>38.9</ele>
        <time>2023-10-11T14:39:22Z</time>
      </trkpt>
      <trkpt lat="49.78734" lon="2.37815">
        <ele>38.9</ele>
        <time>2023-10-11T14:39:24Z</time>
      </trkpt>
      <trkpt lat="49.78733" lon="2.37816">
        <ele>38.9</ele>
        <time>2023-10-11T14:39:25Z</time>
      </trkpt>
      <trkpt lat="49.78733" lon="2.37818">
        <ele>38.9</ele>
        <time>2023-10-11T14:39:26Z</time>
      </trkpt>
      <trkpt lat="49.78733" lon="2.37819">
        <ele>38.9</ele>
        <time>2023-10-11T14:39:27Z</time>
      </trkpt>
      <trkpt lat="49.78732" lon="2.37823">
        <ele>38.9</ele>
        <time>2023-10-11T14:39:28Z</time>
      </trkpt>
      <trkpt lat="49.78732" lon="2.37825">
        <ele>38.8</ele>
        <time>2023-10-11T14:39:30Z</time>
      </trkpt>
      <trkpt lat="49.78731" lon="2.37826">
        <ele>38.8</ele>
        <time>2023-10-11T14:39:32Z</time>
      </trkpt>
      <trkpt lat="49.78731" lon="2.37828">
        <ele>38.8</ele>
        <time>2023-10-11T14:39:33Z</time>
      </trkpt>
      <trkpt lat="49.7873" lon="2.37829">
        <ele>38.8</ele>
        <time>2023-10-11T14:39:34Z</time>
      </trkpt>
      <trkpt lat="49.7873" lon="2.37832">
        <ele>38.8</ele>
        <time>2023-10-11T14:39:35Z</time>
      </trkpt>
      <trkpt lat="49.78729" lon="2.37833">
        <ele>38.8</ele>
        <time>2023-10-11T14:39:37Z</time>
      </trkpt>
      <trkpt lat="49.78729" lon="2.37835">
        <ele>38.8</ele>
        <time>2023-10-11T14:39:38Z</time>
      </trkpt>
      <trkpt lat="49.78729" lon="2.37837">
        <ele>38.7</ele>
        <time>2023-10-11T14:39:39Z</time>
      </trkpt>
      <trkpt lat="49.78729" lon="2.37839">
        <ele>38.7</ele>
        <time>2023-10-11T14:39:41Z</time>
      </trkpt>
      <trkpt lat="49.78729" lon="2.3784">
        <ele>38.7</ele>
        <time>2023-10-11T14:39:42Z</time>
      </trkpt>
      <trkpt lat="49.78728" lon="2.37841">
        <ele>38.7</ele>
        <time>2023-10-11T14:39:43Z</time>
      </trkpt>
      <trkpt lat="49.78728" lon="2.37842">
        <ele>38.7</ele>
        <time>2023-10-11T14:39:44Z</time>
      </trkpt>
      <trkpt lat="49.78728" lon="2.37843">
        <ele>38.7</ele>
        <time>2023-10-11T14:39:45Z</time>
      </trkpt>
      <trkpt lat="49.78727" lon="2.37844">
        <ele>38.7</ele>
        <time>2023-10-11T14:39:46Z</time>
      </trkpt>
      <trkpt lat="49.78727" lon="2.37845">
        <ele>38.7</ele>
        <time>2023-10-11T14:39:47Z</time>
      </trkpt>
      <trkpt lat="49.78726" lon="2.37846">
        <ele>38.7</ele>
        <time>2023-10-11T14:39:48Z</time>
      </trkpt>
      <trkpt lat="49.78725" lon="2.37846">
        <ele>38.6</ele>
        <time>2023-10-11T14:39:49Z</time>
      </trkpt>
      <trkpt lat="49.78724" lon="2.37846">
        <ele>38.6</ele>
        <time>2023-10-11T14:39:51Z</time>
      </trkpt>
      <trkpt lat="49.78724" lon="2.37845">
        <ele>38.6</ele>
        <time>2023-10-11T14:39:52Z</time>
      </trkpt>
      <trkpt lat="49.78724" lon="2.37845">
        <ele>38.6</ele>
        <time>2023-10-11T14:39:53Z</time>
      </trkpt>
      <trkpt lat="49.78724" lon="2.37845">
        <ele>38.6</ele>
        <time>2023-10-11T14:39:54Z</time>
      </trkpt>
      <trkpt lat="49.78724" lon="2.37845">
        <ele>38.6</ele>
        <time>2023-10-11T14:39:56Z</time>
      </trkpt>
      <trkpt lat="49.78724" lon="2.37845">
        <ele>38.6</ele>
        <time>2023-10-11T14:39:57Z</time>
      </trkpt>
      <trkpt lat="49.78724" lon="2.37845">
        <ele>38.6</ele>
        <time>2023-10-11T14:39:58Z</time>
      </trkpt>
      <trkpt lat="49.78724" lon="2.37845">
        <ele>38.6</ele>
        <time>2023-10-11T14:39:59Z</time>
      </trkpt>
      <trkpt lat="49.78724" lon="2.37845">
        <ele>38.6</ele>
        <time>2023-10-11T14:40:00Z</time>
      </trkpt>
      <trkpt lat="49.78724" lon="2.37845">
        <ele>38.6</ele>
        <time>2023-10-11T14:40:01Z</time>
      </trkpt>
      <trkpt lat="49.78724" lon="2.37845">
        <ele>38.6</ele>
        <time>2023-10-11T14:40:02Z</time>
      </trkpt>
      <trkpt lat="49.78729" lon="2.37853">
        <ele>38.6</ele>
        <time>2023-10-11T14:41:12Z</time>
      </trkpt>
      <trkpt lat="49.78729" lon="2.37855">
        <ele>38.6</ele>
        <time>2023-10-11T14:41:14Z</time>
      </trkpt>
      <trkpt lat="49.78729" lon="2.37856">
        <ele>38.6</ele>
        <time>2023-10-11T14:41:15Z</time>
      </trkpt>
      <trkpt lat="49.78729" lon="2.37859">
        <ele>38.6</ele>
        <time>2023-10-11T14:41:16Z</time>
      </trkpt>
      <trkpt lat="49.78729" lon="2.37861">
        <ele>38.6</ele>
        <time>2023-10-11T14:41:17Z</time>
      </trkpt>
      <trkpt lat="49.78728" lon="2.37862">
        <ele>38.6</ele>
        <time>2023-10-11T14:41:19Z</time>
      </trkpt>
      <trkpt lat="49.78727" lon="2.37864">
        <ele>38.6</ele>
        <time>2023-10-11T14:41:20Z</time>
      </trkpt>
      <trkpt lat="49.78726" lon="2.37865">
        <ele>38.6</ele>
        <time>2023-10-11T14:41:21Z</time>
      </trkpt>
      <trkpt lat="49.78725" lon="2.37867">
        <ele>38.6</ele>
        <time>2023-10-11T14:41:22Z</time>
      </trkpt>
      <trkpt lat="49.78724" lon="2.37868">
        <ele>38.6</ele>
        <time>2023-10-11T14:41:23Z</time>
      </trkpt>
      <trkpt lat="49.78722" lon="2.37869">
        <ele>38.6</ele>
        <time>2023-10-11T14:41:24Z</time>
      </trkpt>
      <trkpt lat="49.7872" lon="2.37871">
        <ele>38.6</ele>
        <time>2023-10-11T14:41:25Z</time>
      </trkpt>
      <trkpt lat="49.78718" lon="2.37873">
        <ele>38.6</ele>
        <time>2023-10-11T14:41:27Z</time>
      </trkpt>
      <trkpt lat="49.78717" lon="2.37874">
        <ele>38.6</ele>
        <time>2023-10-11T14:41:29Z</time>
      </trkpt>
      <trkpt lat="49.78717" lon="2.37876">
        <ele>38.7</ele>
        <time>2023-10-11T14:41:30Z</time>
      </trkpt>
      <trkpt lat="49.78716" lon="2.37877">
        <ele>38.7</ele>
        <time>2023-10-11T14:41:31Z</time>
      </trkpt>
      <trkpt lat="49.78716" lon="2.37879">
        <ele>38.7</ele>
        <time>2023-10-11T14:41:32Z</time>
      </trkpt>
      <trkpt lat="49.78715" lon="2.37881">
        <ele>38.7</ele>
        <time>2023-10-11T14:41:33Z</time>
      </trkpt>
      <trkpt lat="49.78715" lon="2.37882">
        <ele>38.7</ele>
        <time>2023-10-11T14:41:34Z</time>
      </trkpt>
      <trkpt lat="49.78715" lon="2.37884">
        <ele>38.7</ele>
        <time>2023-10-11T14:41:35Z</time>
      </trkpt>
      <trkpt lat="49.78714" lon="2.37886">
        <ele>38.6</ele>
        <time>2023-10-11T14:41:36Z</time>
      </trkpt>
      <trkpt lat="49.78713" lon="2.37889">
        <ele>38.6</ele>
        <time>2023-10-11T14:41:37Z</time>
      </trkpt>
      <trkpt lat="49.78713" lon="2.37891">
        <ele>38.6</ele>
        <time>2023-10-11T14:41:38Z</time>
      </trkpt>
      <trkpt lat="49.78712" lon="2.37893">
        <ele>38.6</ele>
        <time>2023-10-11T14:41:39Z</time>
      </trkpt>
      <trkpt lat="49.78712" lon="2.37894">
        <ele>38.6</ele>
        <time>2023-10-11T14:41:41Z</time>
      </trkpt>
      <trkpt lat="49.78712" lon="2.37896">
        <ele>38.6</ele>
        <time>2023-10-11T14:41:42Z</time>
      </trkpt>
      <trkpt lat="49.78711" lon="2.37898">
        <ele>38.5</ele>
        <time>2023-10-11T14:41:43Z</time>
      </trkpt>
      <trkpt lat="49.7871" lon="2.37899">
        <ele>38.5</ele>
        <time>2023-10-11T14:41:44Z</time>
      </trkpt>
      <trkpt lat="49.78709" lon="2.37899">
        <ele>38.6</ele>
        <time>2023-10-11T14:41:46Z</time>
      </trkpt>
      <trkpt lat="49.78709" lon="2.37901">
        <ele>38.6</ele>
        <time>2023-10-11T14:41:47Z</time>
      </trkpt>
      <trkpt lat="49.78708" lon="2.37902">
        <ele>38.6</ele>
        <time>2023-10-11T14:41:49Z</time>
      </trkpt>
      <trkpt lat="49.78708" lon="2.37903">
        <ele>38.6</ele>
        <time>2023-10-11T14:41:50Z</time>
      </trkpt>
      <trkpt lat="49.78707" lon="2.37904">
        <ele>38.6</ele>
        <time>2023-10-11T14:41:51Z</time>
      </trkpt>
      <trkpt lat="49.78707" lon="2.37905">
        <ele>38.6</ele>
        <time>2023-10-11T14:41:52Z</time>
      </trkpt>
      <trkpt lat="49.78706" lon="2.37907">
        <ele>38.6</ele>
        <time>2023-10-11T14:41:53Z</time>
      </trkpt>
      <trkpt lat="49.78705" lon="2.37908">
        <ele>38.6</ele>
        <time>2023-10-11T14:41:55Z</time>
      </trkpt>
      <trkpt lat="49.78705" lon="2.37909">
        <ele>38.6</ele>
        <time>2023-10-11T14:41:56Z</time>
      </trkpt>
      <trkpt lat="49.78705" lon="2.3791">
        <ele>38.6</ele>
        <time>2023-10-11T14:41:57Z</time>
      </trkpt>
      <trkpt lat="49.78704" lon="2.37912">
        <ele>38.6</ele>
        <time>2023-10-11T14:41:58Z</time>
      </trkpt>
      <trkpt lat="49.78704" lon="2.37913">
        <ele>38.6</ele>
        <time>2023-10-11T14:41:59Z</time>
      </trkpt>
      <trkpt lat="49.78704" lon="2.37914">
        <ele>38.6</ele>
        <time>2023-10-11T14:42:00Z</time>
      </trkpt>
      <trkpt lat="49.78703" lon="2.37916">
        <ele>38.6</ele>
        <time>2023-10-11T14:42:01Z</time>
      </trkpt>
      <trkpt lat="49.78703" lon="2.37917">
        <ele>38.6</ele>
        <time>2023-10-11T14:42:02Z</time>
      </trkpt>
      <trkpt lat="49.78703" lon="2.37918">
        <ele>38.6</ele>
        <time>2023-10-11T14:42:03Z</time>
      </trkpt>
      <trkpt lat="49.78702" lon="2.3792">
        <ele>38.6</ele>
        <time>2023-10-11T14:42:04Z</time>
      </trkpt>
      <trkpt lat="49.78702" lon="2.37921">
        <ele>38.7</ele>
        <time>2023-10-11T14:42:05Z</time>
      </trkpt>
      <trkpt lat="49.78701" lon="2.37924">
        <ele>38.7</ele>
        <time>2023-10-11T14:42:06Z</time>
      </trkpt>
      <trkpt lat="49.78701" lon="2.37926">
        <ele>38.7</ele>
        <time>2023-10-11T14:42:08Z</time>
      </trkpt>
      <trkpt lat="49.787" lon="2.37927">
        <ele>38.7</ele>
        <time>2023-10-11T14:42:09Z</time>
      </trkpt>
      <trkpt lat="49.787" lon="2.37928">
        <ele>38.7</ele>
        <time>2023-10-11T14:42:10Z</time>
      </trkpt>
      <trkpt lat="49.78699" lon="2.37931">
        <ele>38.7</ele>
        <time>2023-10-11T14:42:11Z</time>
      </trkpt>
      <trkpt lat="49.78699" lon="2.37933">
        <ele>38.7</ele>
        <time>2023-10-11T14:42:12Z</time>
      </trkpt>
      <trkpt lat="49.78698" lon="2.37936">
        <ele>38.7</ele>
        <time>2023-10-11T14:42:14Z</time>
      </trkpt>
      <trkpt lat="49.78698" lon="2.37938">
        <ele>38.7</ele>
        <time>2023-10-11T14:42:16Z</time>
      </trkpt>
      <trkpt lat="49.78697" lon="2.3794">
        <ele>38.6</ele>
        <time>2023-10-11T14:42:17Z</time>
      </trkpt>
      <trkpt lat="49.78697" lon="2.37943">
        <ele>38.6</ele>
        <time>2023-10-11T14:42:18Z</time>
      </trkpt>
      <trkpt lat="49.78696" lon="2.37946">
        <ele>38.6</ele>
        <time>2023-10-11T14:42:20Z</time>
      </trkpt>
      <trkpt lat="49.78696" lon="2.37947">
        <ele>38.6</ele>
        <time>2023-10-11T14:42:21Z</time>
      </trkpt>
      <trkpt lat="49.78695" lon="2.37949">
        <ele>38.6</ele>
        <time>2023-10-11T14:42:23Z</time>
      </trkpt>
      <trkpt lat="49.78695" lon="2.3795">
        <ele>38.5</ele>
        <time>2023-10-11T14:42:24Z</time>
      </trkpt>
      <trkpt lat="49.78695" lon="2.37951">
        <ele>38.5</ele>
        <time>2023-10-11T14:42:25Z</time>
      </trkpt>
      <trkpt lat="49.78694" lon="2.37955">
        <ele>38.5</ele>
        <time>2023-10-11T14:42:26Z</time>
      </trkpt>
      <trkpt lat="49.78693" lon="2.37956">
        <ele>38.5</ele>
        <time>2023-10-11T14:42:28Z</time>
      </trkpt>
      <trkpt lat="49.78693" lon="2.37957">
        <ele>38.5</ele>
        <time>2023-10-11T14:42:29Z</time>
      </trkpt>
      <trkpt lat="49.78693" lon="2.37959">
        <ele>38.5</ele>
        <time>2023-10-11T14:42:30Z</time>
      </trkpt>
      <trkpt lat="49.78693" lon="2.3796">
        <ele>38.5</ele>
        <time>2023-10-11T14:42:31Z</time>
      </trkpt>
      <trkpt lat="49.78692" lon="2.37961">
        <ele>38.5</ele>
        <time>2023-10-11T14:42:32Z</time>
      </trkpt>
      <trkpt lat="49.78692" lon="2.37962">
        <ele>38.4</ele>
        <time>2023-10-11T14:42:33Z</time>
      </trkpt>
      <trkpt lat="49.78692" lon="2.37964">
        <ele>38.4</ele>
        <time>2023-10-11T14:42:34Z</time>
      </trkpt>
      <trkpt lat="49.78691" lon="2.37967">
        <ele>38.4</ele>
        <time>2023-10-11T14:42:35Z</time>
      </trkpt>
      <trkpt lat="49.7869" lon="2.37969">
        <ele>38.4</ele>
        <time>2023-10-11T14:42:37Z</time>
      </trkpt>
      <trkpt lat="49.7869" lon="2.3797">
        <ele>38.4</ele>
        <time>2023-10-11T14:42:38Z</time>
      </trkpt>
      <trkpt lat="49.78689" lon="2.37973">
        <ele>38.4</ele>
        <time>2023-10-11T14:42:39Z</time>
      </trkpt>
      <trkpt lat="49.78688" lon="2.37975">
        <ele>38.3</ele>
        <time>2023-10-11T14:42:40Z</time>
      </trkpt>
      <trkpt lat="49.78687" lon="2.37977">
        <ele>38.3</ele>
        <time>2023-10-11T14:42:42Z</time>
      </trkpt>
      <trkpt lat="49.78687" lon="2.37978">
        <ele>38.3</ele>
        <time>2023-10-11T14:42:43Z</time>
      </trkpt>
      <trkpt lat="49.78687" lon="2.37979">
        <ele>38.3</ele>
        <time>2023-10-11T14:42:44Z</time>
      </trkpt>
      <trkpt lat="49.78686" lon="2.37981">
        <ele>38.3</ele>
        <time>2023-10-11T14:42:45Z</time>
      </trkpt>
      <trkpt lat="49.78686" lon="2.37982">
        <ele>38.3</ele>
        <time>2023-10-11T14:42:46Z</time>
      </trkpt>
      <trkpt lat="49.78686" lon="2.37984">
        <ele>38.3</ele>
        <time>2023-10-11T14:42:47Z</time>
      </trkpt>
      <trkpt lat="49.78685" lon="2.37986">
        <ele>38.3</ele>
        <time>2023-10-11T14:42:48Z</time>
      </trkpt>
      <trkpt lat="49.78685" lon="2.37987">
        <ele>38.2</ele>
        <time>2023-10-11T14:42:49Z</time>
      </trkpt>
      <trkpt lat="49.78685" lon="2.37989">
        <ele>38.2</ele>
        <time>2023-10-11T14:42:50Z</time>
      </trkpt>
      <trkpt lat="49.78684" lon="2.3799">
        <ele>38.2</ele>
        <time>2023-10-11T14:42:51Z</time>
      </trkpt>
      <trkpt lat="49.78684" lon="2.37992">
        <ele>38.2</ele>
        <time>2023-10-11T14:42:52Z</time>
      </trkpt>
      <trkpt lat="49.78684" lon="2.37993">
        <ele>38.2</ele>
        <time>2023-10-11T14:42:53Z</time>
      </trkpt>
      <trkpt lat="49.78683" lon="2.37997">
        <ele>38.2</ele>
        <time>2023-10-11T14:42:54Z</time>
      </trkpt>
      <trkpt lat="49.78683" lon="2.37999">
        <ele>38.2</ele>
        <time>2023-10-11T14:42:55Z</time>
      </trkpt>
      <trkpt lat="49.78682" lon="2.38001">
        <ele>38.2</ele>
        <time>2023-10-11T14:42:56Z</time>
      </trkpt>
      <trkpt lat="49.78682" lon="2.38002">
        <ele>38.2</ele>
        <time>2023-10-11T14:42:57Z</time>
      </trkpt>
      <trkpt lat="49.78681" lon="2.38004">
        <ele>38.2</ele>
        <time>2023-10-11T14:42:59Z</time>
      </trkpt>
      <trkpt lat="49.78681" lon="2.38005">
        <ele>38.2</ele>
        <time>2023-10-11T14:43:00Z</time>
      </trkpt>
      <trkpt lat="49.7868" lon="2.38008">
        <ele>38.2</ele>
        <time>2023-10-11T14:43:01Z</time>
      </trkpt>
      <trkpt lat="49.78678" lon="2.38011">
        <ele>38.2</ele>
        <time>2023-10-11T14:43:03Z</time>
      </trkpt>
      <trkpt lat="49.78678" lon="2.38012">
        <ele>38.2</ele>
        <time>2023-10-11T14:43:05Z</time>
      </trkpt>
      <trkpt lat="49.78676" lon="2.38015">
        <ele>38.2</ele>
        <time>2023-10-11T14:43:06Z</time>
      </trkpt>
      <trkpt lat="49.78676" lon="2.38016">
        <ele>38.2</ele>
        <time>2023-10-11T14:43:08Z</time>
      </trkpt>
      <trkpt lat="49.78675" lon="2.38017">
        <ele>38.2</ele>
        <time>2023-10-11T14:43:09Z</time>
      </trkpt>
      <trkpt lat="49.78674" lon="2.38019">
        <ele>38.2</ele>
        <time>2023-10-11T14:43:10Z</time>
      </trkpt>
      <trkpt lat="49.78673" lon="2.38021">
        <ele>38.2</ele>
        <time>2023-10-11T14:43:11Z</time>
      </trkpt>
      <trkpt lat="49.78672" lon="2.38023">
        <ele>38.2</ele>
        <time>2023-10-11T14:43:13Z</time>
      </trkpt>
      <trkpt lat="49.78672" lon="2.38024">
        <ele>38.2</ele>
        <time>2023-10-11T14:43:15Z</time>
      </trkpt>
      <trkpt lat="49.78672" lon="2.38025">
        <ele>38.2</ele>
        <time>2023-10-11T14:43:16Z</time>
      </trkpt>
      <trkpt lat="49.78671" lon="2.38026">
        <ele>38.2</ele>
        <time>2023-10-11T14:43:17Z</time>
      </trkpt>
      <trkpt lat="49.78671" lon="2.38028">
        <ele>38.2</ele>
        <time>2023-10-11T14:43:18Z</time>
      </trkpt>
      <trkpt lat="49.7867" lon="2.3803">
        <ele>38.3</ele>
        <time>2023-10-11T14:43:19Z</time>
      </trkpt>
      <trkpt lat="49.78669" lon="2.38031">
        <ele>38.3</ele>
        <time>2023-10-11T14:43:20Z</time>
      </trkpt>
      <trkpt lat="49.78669" lon="2.38032">
        <ele>38.3</ele>
        <time>2023-10-11T14:43:22Z</time>
      </trkpt>
      <trkpt lat="49.78668" lon="2.38033">
        <ele>38.3</ele>
        <time>2023-10-11T14:43:23Z</time>
      </trkpt>
      <trkpt lat="49.78668" lon="2.38034">
        <ele>38.3</ele>
        <time>2023-10-11T14:43:24Z</time>
      </trkpt>
      <trkpt lat="49.78667" lon="2.38035">
        <ele>38.3</ele>
        <time>2023-10-11T14:43:25Z</time>
      </trkpt>
      <trkpt lat="49.78666" lon="2.38037">
        <ele>38.3</ele>
        <time>2023-10-11T14:43:26Z</time>
      </trkpt>
      <trkpt lat="49.78665" lon="2.38038">
        <ele>38.3</ele>
        <time>2023-10-11T14:43:27Z</time>
      </trkpt>
      <trkpt lat="49.78664" lon="2.38039">
        <ele>38.3</ele>
        <time>2023-10-11T14:43:28Z</time>
      </trkpt>
      <trkpt lat="49.78664" lon="2.3804">
        <ele>38.3</ele>
        <time>2023-10-11T14:43:29Z</time>
      </trkpt>
      <trkpt lat="49.78663" lon="2.38042">
        <ele>38.3</ele>
        <time>2023-10-11T14:43:30Z</time>
      </trkpt>
      <trkpt lat="49.78662" lon="2.38043">
        <ele>38.3</ele>
        <time>2023-10-11T14:43:31Z</time>
      </trkpt>
      <trkpt lat="49.7866" lon="2.38045">
        <ele>38.3</ele>
        <time>2023-10-11T14:43:32Z</time>
      </trkpt>
      <trkpt lat="49.7866" lon="2.38046">
        <ele>38.3</ele>
        <time>2023-10-11T14:43:33Z</time>
      </trkpt>
      <trkpt lat="49.78659" lon="2.38046">
        <ele>38.3</ele>
        <time>2023-10-11T14:43:34Z</time>
      </trkpt>
      <trkpt lat="49.78658" lon="2.38048">
        <ele>38.3</ele>
        <time>2023-10-11T14:43:35Z</time>
      </trkpt>
      <trkpt lat="49.78658" lon="2.38049">
        <ele>38.4</ele>
        <time>2023-10-11T14:43:36Z</time>
      </trkpt>
      <trkpt lat="49.78657" lon="2.3805">
        <ele>38.4</ele>
        <time>2023-10-11T14:43:37Z</time>
      </trkpt>
      <trkpt lat="49.78656" lon="2.38051">
        <ele>38.4</ele>
        <time>2023-10-11T14:43:38Z</time>
      </trkpt>
      <trkpt lat="49.78655" lon="2.38053">
        <ele>38.4</ele>
        <time>2023-10-11T14:43:39Z</time>
      </trkpt>
      <trkpt lat="49.78654" lon="2.38054">
        <ele>38.4</ele>
        <time>2023-10-11T14:43:40Z</time>
      </trkpt>
      <trkpt lat="49.78653" lon="2.38055">
        <ele>38.4</ele>
        <time>2023-10-11T14:43:41Z</time>
      </trkpt>
      <trkpt lat="49.78653" lon="2.38056">
        <ele>38.4</ele>
        <time>2023-10-11T14:43:42Z</time>
      </trkpt>
      <trkpt lat="49.78652" lon="2.38058">
        <ele>38.4</ele>
        <time>2023-10-11T14:43:43Z</time>
      </trkpt>
      <trkpt lat="49.78651" lon="2.38059">
        <ele>38.4</ele>
        <time>2023-10-11T14:43:44Z</time>
      </trkpt>
      <trkpt lat="49.7865" lon="2.3806">
        <ele>38.4</ele>
        <time>2023-10-11T14:43:45Z</time>
      </trkpt>
      <trkpt lat="49.78649" lon="2.38062">
        <ele>38.4</ele>
        <time>2023-10-11T14:43:46Z</time>
      </trkpt>
      <trkpt lat="49.78648" lon="2.38064">
        <ele>38.4</ele>
        <time>2023-10-11T14:43:47Z</time>
      </trkpt>
      <trkpt lat="49.78647" lon="2.38066">
        <ele>38.4</ele>
        <time>2023-10-11T14:43:48Z</time>
      </trkpt>
      <trkpt lat="49.78645" lon="2.38068">
        <ele>38.4</ele>
        <time>2023-10-11T14:43:50Z</time>
      </trkpt>
      <trkpt lat="49.78645" lon="2.38069">
        <ele>38.4</ele>
        <time>2023-10-11T14:43:52Z</time>
      </trkpt>
      <trkpt lat="49.78643" lon="2.38072">
        <ele>38.5</ele>
        <time>2023-10-11T14:43:53Z</time>
      </trkpt>
      <trkpt lat="49.78643" lon="2.38073">
        <ele>38.5</ele>
        <time>2023-10-11T14:43:55Z</time>
      </trkpt>
      <trkpt lat="49.78642" lon="2.38074">
        <ele>38.5</ele>
        <time>2023-10-11T14:43:56Z</time>
      </trkpt>
      <trkpt lat="49.78641" lon="2.38075">
        <ele>38.5</ele>
        <time>2023-10-11T14:43:57Z</time>
      </trkpt>
      <trkpt lat="49.78641" lon="2.38076">
        <ele>38.5</ele>
        <time>2023-10-11T14:43:58Z</time>
      </trkpt>
      <trkpt lat="49.78639" lon="2.38078">
        <ele>38.5</ele>
        <time>2023-10-11T14:43:59Z</time>
      </trkpt>
      <trkpt lat="49.78639" lon="2.38079">
        <ele>38.5</ele>
        <time>2023-10-11T14:44:00Z</time>
      </trkpt>
      <trkpt lat="49.78638" lon="2.38082">
        <ele>38.5</ele>
        <time>2023-10-11T14:44:02Z</time>
      </trkpt>
      <trkpt lat="49.78637" lon="2.38084">
        <ele>38.5</ele>
        <time>2023-10-11T14:44:04Z</time>
      </trkpt>
      <trkpt lat="49.78637" lon="2.38085">
        <ele>38.5</ele>
        <time>2023-10-11T14:44:05Z</time>
      </trkpt>
      <trkpt lat="49.78636" lon="2.38086">
        <ele>38.5</ele>
        <time>2023-10-11T14:44:06Z</time>
      </trkpt>
      <trkpt lat="49.78635" lon="2.38088">
        <ele>38.5</ele>
        <time>2023-10-11T14:44:07Z</time>
      </trkpt>
      <trkpt lat="49.78635" lon="2.38089">
        <ele>38.5</ele>
        <time>2023-10-11T14:44:08Z</time>
      </trkpt>
      <trkpt lat="49.78634" lon="2.38092">
        <ele>38.5</ele>
        <time>2023-10-11T14:44:09Z</time>
      </trkpt>
      <trkpt lat="49.78633" lon="2.38094">
        <ele>38.5</ele>
        <time>2023-10-11T14:44:11Z</time>
      </trkpt>
      <trkpt lat="49.78632" lon="2.38096">
        <ele>38.5</ele>
        <time>2023-10-11T14:44:12Z</time>
      </trkpt>
      <trkpt lat="49.78631" lon="2.38097">
        <ele>38.5</ele>
        <time>2023-10-11T14:44:13Z</time>
      </trkpt>
      <trkpt lat="49.78631" lon="2.38098">
        <ele>38.5</ele>
        <time>2023-10-11T14:44:14Z</time>
      </trkpt>
      <trkpt lat="49.7863" lon="2.381">
        <ele>38.5</ele>
        <time>2023-10-11T14:44:15Z</time>
      </trkpt>
      <trkpt lat="49.78629" lon="2.38101">
        <ele>38.5</ele>
        <time>2023-10-11T14:44:16Z</time>
      </trkpt>
      <trkpt lat="49.78629" lon="2.38102">
        <ele>38.5</ele>
        <time>2023-10-11T14:44:17Z</time>
      </trkpt>
      <trkpt lat="49.78628" lon="2.38103">
        <ele>38.5</ele>
        <time>2023-10-11T14:44:18Z</time>
      </trkpt>
      <trkpt lat="49.78627" lon="2.38104">
        <ele>38.6</ele>
        <time>2023-10-11T14:44:19Z</time>
      </trkpt>
      <trkpt lat="49.78626" lon="2.38105">
        <ele>38.6</ele>
        <time>2023-10-11T14:44:20Z</time>
      </trkpt>
      <trkpt lat="49.78625" lon="2.38106">
        <ele>38.6</ele>
        <time>2023-10-11T14:44:21Z</time>
      </trkpt>
      <trkpt lat="49.78624" lon="2.38107">
        <ele>38.6</ele>
        <time>2023-10-11T14:44:22Z</time>
      </trkpt>
      <trkpt lat="49.78623" lon="2.38109">
        <ele>38.6</ele>
        <time>2023-10-11T14:44:23Z</time>
      </trkpt>
      <trkpt lat="49.78622" lon="2.38111">
        <ele>38.6</ele>
        <time>2023-10-11T14:44:24Z</time>
      </trkpt>
      <trkpt lat="49.78621" lon="2.38112">
        <ele>38.6</ele>
        <time>2023-10-11T14:44:26Z</time>
      </trkpt>
      <trkpt lat="49.7862" lon="2.38113">
        <ele>38.6</ele>
        <time>2023-10-11T14:44:27Z</time>
      </trkpt>
      <trkpt lat="49.78619" lon="2.38114">
        <ele>38.6</ele>
        <time>2023-10-11T14:44:28Z</time>
      </trkpt>
      <trkpt lat="49.78617" lon="2.38116">
        <ele>38.6</ele>
        <time>2023-10-11T14:44:29Z</time>
      </trkpt>
      <trkpt lat="49.78617" lon="2.38117">
        <ele>38.6</ele>
        <time>2023-10-11T14:44:31Z</time>
      </trkpt>
      <trkpt lat="49.78616" lon="2.38118">
        <ele>38.7</ele>
        <time>2023-10-11T14:44:32Z</time>
      </trkpt>
      <trkpt lat="49.78615" lon="2.38119">
        <ele>38.7</ele>
        <time>2023-10-11T14:44:33Z</time>
      </trkpt>
      <trkpt lat="49.78614" lon="2.3812">
        <ele>38.7</ele>
        <time>2023-10-11T14:44:34Z</time>
      </trkpt>
      <trkpt lat="49.78613" lon="2.38121">
        <ele>38.7</ele>
        <time>2023-10-11T14:44:35Z</time>
      </trkpt>
      <trkpt lat="49.78613" lon="2.38122">
        <ele>38.7</ele>
        <time>2023-10-11T14:44:36Z</time>
      </trkpt>
      <trkpt lat="49.78611" lon="2.38124">
        <ele>38.7</ele>
        <time>2023-10-11T14:44:37Z</time>
      </trkpt>
      <trkpt lat="49.7861" lon="2.38125">
        <ele>38.7</ele>
        <time>2023-10-11T14:44:39Z</time>
      </trkpt>
      <trkpt lat="49.78609" lon="2.38126">
        <ele>38.7</ele>
        <time>2023-10-11T14:44:40Z</time>
      </trkpt>
      <trkpt lat="49.78608" lon="2.38126">
        <ele>38.7</ele>
        <time>2023-10-11T14:44:42Z</time>
      </trkpt>
      <trkpt lat="49.78608" lon="2.38127">
        <ele>38.8</ele>
        <time>2023-10-11T14:44:43Z</time>
      </trkpt>
      <trkpt lat="49.78607" lon="2.38127">
        <ele>38.8</ele>
        <time>2023-10-11T14:44:44Z</time>
      </trkpt>
      <trkpt lat="49.78606" lon="2.38128">
        <ele>38.8</ele>
        <time>2023-10-11T14:44:45Z</time>
      </trkpt>
      <trkpt lat="49.78604" lon="2.38129">
        <ele>38.8</ele>
        <time>2023-10-11T14:44:46Z</time>
      </trkpt>
      <trkpt lat="49.78603" lon="2.3813">
        <ele>38.8</ele>
        <time>2023-10-11T14:44:48Z</time>
      </trkpt>
      <trkpt lat="49.78602" lon="2.3813">
        <ele>38.8</ele>
        <time>2023-10-11T14:44:49Z</time>
      </trkpt>
      <trkpt lat="49.78602" lon="2.3813">
        <ele>38.8</ele>
        <time>2023-10-11T14:44:50Z</time>
      </trkpt>
      <trkpt lat="49.78601" lon="2.3813">
        <ele>38.8</ele>
        <time>2023-10-11T14:44:51Z</time>
      </trkpt>
      <trkpt lat="49.78598" lon="2.38131">
        <ele>38.9</ele>
        <time>2023-10-11T14:44:52Z</time>
      </trkpt>
      <trkpt lat="49.78596" lon="2.38131">
        <ele>38.9</ele>
        <time>2023-10-11T14:44:54Z</time>
      </trkpt>
      <trkpt lat="49.78594" lon="2.38131">
        <ele>38.9</ele>
        <time>2023-10-11T14:44:55Z</time>
      </trkpt>
      <trkpt lat="49.78593" lon="2.38131">
        <ele>38.9</ele>
        <time>2023-10-11T14:44:56Z</time>
      </trkpt>
      <trkpt lat="49.78591" lon="2.38131">
        <ele>38.9</ele>
        <time>2023-10-11T14:44:58Z</time>
      </trkpt>
      <trkpt lat="49.78591" lon="2.38131">
        <ele>38.9</ele>
        <time>2023-10-11T14:44:59Z</time>
      </trkpt>
      <trkpt lat="49.78588" lon="2.38131">
        <ele>39</ele>
        <time>2023-10-11T14:45:00Z</time>
      </trkpt>
      <trkpt lat="49.78587" lon="2.38131">
        <ele>39</ele>
        <time>2023-10-11T14:45:01Z</time>
      </trkpt>
      <trkpt lat="49.78585" lon="2.38131">
        <ele>39</ele>
        <time>2023-10-11T14:45:03Z</time>
      </trkpt>
      <trkpt lat="49.78584" lon="2.38131">
        <ele>39</ele>
        <time>2023-10-11T14:45:04Z</time>
      </trkpt>
      <trkpt lat="49.78583" lon="2.38131">
        <ele>39</ele>
        <time>2023-10-11T14:45:05Z</time>
      </trkpt>
      <trkpt lat="49.78581" lon="2.3813">
        <ele>39.1</ele>
        <time>2023-10-11T14:45:06Z</time>
      </trkpt>
      <trkpt lat="49.7858" lon="2.3813">
        <ele>39.1</ele>
        <time>2023-10-11T14:45:07Z</time>
      </trkpt>
      <trkpt lat="49.78579" lon="2.3813">
        <ele>39.1</ele>
        <time>2023-10-11T14:45:08Z</time>
      </trkpt>
      <trkpt lat="49.78578" lon="2.3813">
        <ele>39.1</ele>
        <time>2023-10-11T14:45:10Z</time>
      </trkpt>
      <trkpt lat="49.78576" lon="2.38129">
        <ele>39.1</ele>
        <time>2023-10-11T14:45:11Z</time>
      </trkpt>
      <trkpt lat="49.78575" lon="2.38129">
        <ele>39.1</ele>
        <time>2023-10-11T14:45:13Z</time>
      </trkpt>
      <trkpt lat="49.78574" lon="2.38129">
        <ele>39.2</ele>
        <time>2023-10-11T14:45:14Z</time>
      </trkpt>
      <trkpt lat="49.78573" lon="2.38128">
        <ele>39.2</ele>
        <time>2023-10-11T14:45:15Z</time>
      </trkpt>
      <trkpt lat="49.78572" lon="2.38128">
        <ele>39.2</ele>
        <time>2023-10-11T14:45:16Z</time>
      </trkpt>
      <trkpt lat="49.78571" lon="2.38128">
        <ele>39.2</ele>
        <time>2023-10-11T14:45:17Z</time>
      </trkpt>
      <trkpt lat="49.78569" lon="2.38127">
        <ele>39.2</ele>
        <time>2023-10-11T14:45:19Z</time>
      </trkpt>
      <trkpt lat="49.78568" lon="2.38127">
        <ele>39.2</ele>
        <time>2023-10-11T14:45:20Z</time>
      </trkpt>
      <trkpt lat="49.78568" lon="2.38128">
        <ele>39.3</ele>
        <time>2023-10-11T14:45:21Z</time>
      </trkpt>
      <trkpt lat="49.78567" lon="2.38128">
        <ele>39.3</ele>
        <time>2023-10-11T14:45:22Z</time>
      </trkpt>
      <trkpt lat="49.78566" lon="2.3813">
        <ele>39.3</ele>
        <time>2023-10-11T14:45:24Z</time>
      </trkpt>
      <trkpt lat="49.78566" lon="2.38131">
        <ele>39.3</ele>
        <time>2023-10-11T14:45:25Z</time>
      </trkpt>
      <trkpt lat="49.78564" lon="2.38133">
        <ele>39.3</ele>
        <time>2023-10-11T14:45:26Z</time>
      </trkpt>
      <trkpt lat="49.78563" lon="2.38134">
        <ele>39.6</ele>
        <time>2023-10-11T14:45:28Z</time>
      </trkpt>
      <trkpt lat="49.78562" lon="2.38136">
        <ele>39.6</ele>
        <time>2023-10-11T14:45:29Z</time>
      </trkpt>
      <trkpt lat="49.78561" lon="2.38138">
        <ele>39.7</ele>
        <time>2023-10-11T14:45:31Z</time>
      </trkpt>
      <trkpt lat="49.7856" lon="2.38138">
        <ele>39.7</ele>
        <time>2023-10-11T14:45:33Z</time>
      </trkpt>
      <trkpt lat="49.7856" lon="2.3814">
        <ele>39.7</ele>
        <time>2023-10-11T14:45:34Z</time>
      </trkpt>
      <trkpt lat="49.7856" lon="2.3814">
        <ele>39.7</ele>
        <time>2023-10-11T14:45:36Z</time>
      </trkpt>
      <trkpt lat="49.7856" lon="2.3814">
        <ele>39.7</ele>
        <time>2023-10-11T14:45:37Z</time>
      </trkpt>
      <trkpt lat="49.7856" lon="2.3814">
        <ele>39.7</ele>
        <time>2023-10-11T14:45:39Z</time>
      </trkpt>
      <trkpt lat="49.7856" lon="2.3814">
        <ele>39.7</ele>
        <time>2023-10-11T14:45:40Z</time>
      </trkpt>
      <trkpt lat="49.7856" lon="2.3814">
        <ele>39.7</ele>
        <time>2023-10-11T14:45:41Z</time>
      </trkpt>
      <trkpt lat="49.7856" lon="2.3814">
        <ele>39.7</ele>
        <time>2023-10-11T14:45:42Z</time>
      </trkpt>
      <trkpt lat="49.7856" lon="2.3814">
        <ele>39.7</ele>
        <time>2023-10-11T14:45:43Z</time>
      </trkpt>
      <trkpt lat="49.7856" lon="2.3814">
        <ele>39.7</ele>
        <time>2023-10-11T14:45:45Z</time>
      </trkpt>
      <trkpt lat="49.7856" lon="2.3814">
        <ele>39.7</ele>
        <time>2023-10-11T14:45:46Z</time>
      </trkpt>
      <trkpt lat="49.78559" lon="2.3814">
        <ele>39.7</ele>
        <time>2023-10-11T14:45:47Z</time>
      </trkpt>
      <trkpt lat="49.78559" lon="2.38141">
        <ele>39.7</ele>
        <time>2023-10-11T14:45:48Z</time>
      </trkpt>
      <trkpt lat="49.78559" lon="2.38141">
        <ele>39.7</ele>
        <time>2023-10-11T14:45:49Z</time>
      </trkpt>
      <trkpt lat="49.78558" lon="2.38142">
        <ele>39.7</ele>
        <time>2023-10-11T14:45:50Z</time>
      </trkpt>
      <trkpt lat="49.78558" lon="2.38142">
        <ele>39.7</ele>
        <time>2023-10-11T14:45:51Z</time>
      </trkpt>
      <trkpt lat="49.78558" lon="2.38143">
        <ele>39.7</ele>
        <time>2023-10-11T14:45:52Z</time>
      </trkpt>
      <trkpt lat="49.78558" lon="2.38143">
        <ele>39.7</ele>
        <time>2023-10-11T14:45:53Z</time>
      </trkpt>
      <trkpt lat="49.78557" lon="2.38144">
        <ele>39.7</ele>
        <time>2023-10-11T14:45:54Z</time>
      </trkpt>
      <trkpt lat="49.78557" lon="2.38145">
        <ele>39.7</ele>
        <time>2023-10-11T14:45:56Z</time>
      </trkpt>
      <trkpt lat="49.78556" lon="2.38146">
        <ele>39.8</ele>
        <time>2023-10-11T14:45:57Z</time>
      </trkpt>
      <trkpt lat="49.78555" lon="2.38147">
        <ele>39.8</ele>
        <time>2023-10-11T14:45:59Z</time>
      </trkpt>
      <trkpt lat="49.78555" lon="2.38149">
        <ele>39.8</ele>
        <time>2023-10-11T14:46:00Z</time>
      </trkpt>
      <trkpt lat="49.78554" lon="2.3815">
        <ele>39.8</ele>
        <time>2023-10-11T14:46:01Z</time>
      </trkpt>
      <trkpt lat="49.78553" lon="2.38151">
        <ele>39.8</ele>
        <time>2023-10-11T14:46:02Z</time>
      </trkpt>
      <trkpt lat="49.78553" lon="2.38151">
        <ele>39.8</ele>
        <time>2023-10-11T14:46:03Z</time>
      </trkpt>
      <trkpt lat="49.78552" lon="2.38152">
        <ele>39.8</ele>
        <time>2023-10-11T14:46:04Z</time>
      </trkpt>
      <trkpt lat="49.78552" lon="2.38153">
        <ele>39.8</ele>
        <time>2023-10-11T14:46:05Z</time>
      </trkpt>
      <trkpt lat="49.78551" lon="2.38156">
        <ele>39.9</ele>
        <time>2023-10-11T14:46:06Z</time>
      </trkpt>
      <trkpt lat="49.7855" lon="2.38157">
        <ele>39.9</ele>
        <time>2023-10-11T14:46:07Z</time>
      </trkpt>
      <trkpt lat="49.78549" lon="2.38158">
        <ele>39.9</ele>
        <time>2023-10-11T14:46:09Z</time>
      </trkpt>
      <trkpt lat="49.78549" lon="2.38159">
        <ele>39.9</ele>
        <time>2023-10-11T14:46:10Z</time>
      </trkpt>
      <trkpt lat="49.78548" lon="2.3816">
        <ele>39.9</ele>
        <time>2023-10-11T14:46:11Z</time>
      </trkpt>
      <trkpt lat="49.78547" lon="2.38163">
        <ele>39.9</ele>
        <time>2023-10-11T14:46:12Z</time>
      </trkpt>
      <trkpt lat="49.78547" lon="2.38165">
        <ele>39.9</ele>
        <time>2023-10-11T14:46:13Z</time>
      </trkpt>
      <trkpt lat="49.78546" lon="2.38166">
        <ele>40</ele>
        <time>2023-10-11T14:46:15Z</time>
      </trkpt>
      <trkpt lat="49.78546" lon="2.38169">
        <ele>40</ele>
        <time>2023-10-11T14:46:16Z</time>
      </trkpt>
      <trkpt lat="49.78545" lon="2.38171">
        <ele>40</ele>
        <time>2023-10-11T14:46:18Z</time>
      </trkpt>
      <trkpt lat="49.78545" lon="2.38173">
        <ele>40</ele>
        <time>2023-10-11T14:46:19Z</time>
      </trkpt>
      <trkpt lat="49.78544" lon="2.38176">
        <ele>40.1</ele>
        <time>2023-10-11T14:46:20Z</time>
      </trkpt>
      <trkpt lat="49.78544" lon="2.38178">
        <ele>40.1</ele>
        <time>2023-10-11T14:46:22Z</time>
      </trkpt>
      <trkpt lat="49.78544" lon="2.38179">
        <ele>40.1</ele>
        <time>2023-10-11T14:46:23Z</time>
      </trkpt>
      <trkpt lat="49.78544" lon="2.38181">
        <ele>40.1</ele>
        <time>2023-10-11T14:46:24Z</time>
      </trkpt>
      <trkpt lat="49.78543" lon="2.38184">
        <ele>40.2</ele>
        <time>2023-10-11T14:46:25Z</time>
      </trkpt>
      <trkpt lat="49.78543" lon="2.38186">
        <ele>40.2</ele>
        <time>2023-10-11T14:46:26Z</time>
      </trkpt>
      <trkpt lat="49.78543" lon="2.3819">
        <ele>40.3</ele>
        <time>2023-10-11T14:46:28Z</time>
      </trkpt>
      <trkpt lat="49.78543" lon="2.38191">
        <ele>40.3</ele>
        <time>2023-10-11T14:46:29Z</time>
      </trkpt>
      <trkpt lat="49.78542" lon="2.38193">
        <ele>40.3</ele>
        <time>2023-10-11T14:46:31Z</time>
      </trkpt>
      <trkpt lat="49.78542" lon="2.38194">
        <ele>40.3</ele>
        <time>2023-10-11T14:46:32Z</time>
      </trkpt>
      <trkpt lat="49.78542" lon="2.38196">
        <ele>40.4</ele>
        <time>2023-10-11T14:46:33Z</time>
      </trkpt>
      <trkpt lat="49.78542" lon="2.382">
        <ele>40.4</ele>
        <time>2023-10-11T14:46:34Z</time>
      </trkpt>
      <trkpt lat="49.78542" lon="2.38201">
        <ele>40.4</ele>
        <time>2023-10-11T14:46:35Z</time>
      </trkpt>
      <trkpt lat="49.78541" lon="2.38203">
        <ele>40.5</ele>
        <time>2023-10-11T14:46:36Z</time>
      </trkpt>
      <trkpt lat="49.78541" lon="2.38205">
        <ele>40.5</ele>
        <time>2023-10-11T14:46:38Z</time>
      </trkpt>
      <trkpt lat="49.78541" lon="2.38206">
        <ele>40.5</ele>
        <time>2023-10-11T14:46:39Z</time>
      </trkpt>
      <trkpt lat="49.78541" lon="2.38208">
        <ele>40.6</ele>
        <time>2023-10-11T14:46:40Z</time>
      </trkpt>
      <trkpt lat="49.7854" lon="2.3821">
        <ele>40.6</ele>
        <time>2023-10-11T14:46:41Z</time>
      </trkpt>
      <trkpt lat="49.7854" lon="2.38212">
        <ele>40.6</ele>
        <time>2023-10-11T14:46:42Z</time>
      </trkpt>
      <trkpt lat="49.7854" lon="2.38213">
        <ele>40.7</ele>
        <time>2023-10-11T14:46:43Z</time>
      </trkpt>
      <trkpt lat="49.7854" lon="2.38215">
        <ele>40.7</ele>
        <time>2023-10-11T14:46:44Z</time>
      </trkpt>
      <trkpt lat="49.78539" lon="2.38218">
        <ele>40.8</ele>
        <time>2023-10-11T14:46:45Z</time>
      </trkpt>
      <trkpt lat="49.78539" lon="2.3822">
        <ele>40.8</ele>
        <time>2023-10-11T14:46:46Z</time>
      </trkpt>
      <trkpt lat="49.78538" lon="2.38222">
        <ele>40.8</ele>
        <time>2023-10-11T14:46:48Z</time>
      </trkpt>
      <trkpt lat="49.78538" lon="2.38223">
        <ele>40.9</ele>
        <time>2023-10-11T14:46:49Z</time>
      </trkpt>
      <trkpt lat="49.78538" lon="2.38225">
        <ele>40.9</ele>
        <time>2023-10-11T14:46:50Z</time>
      </trkpt>
      <trkpt lat="49.78538" lon="2.38227">
        <ele>40.9</ele>
        <time>2023-10-11T14:46:51Z</time>
      </trkpt>
      <trkpt lat="49.78537" lon="2.38228">
        <ele>40.9</ele>
        <time>2023-10-11T14:46:52Z</time>
      </trkpt>
      <trkpt lat="49.78537" lon="2.3823">
        <ele>41</ele>
        <time>2023-10-11T14:46:53Z</time>
      </trkpt>
      <trkpt lat="49.78537" lon="2.38231">
        <ele>41</ele>
        <time>2023-10-11T14:46:54Z</time>
      </trkpt>
      <trkpt lat="49.78536" lon="2.38232">
        <ele>41</ele>
        <time>2023-10-11T14:46:55Z</time>
      </trkpt>
      <trkpt lat="49.78536" lon="2.38234">
        <ele>41.1</ele>
        <time>2023-10-11T14:46:56Z</time>
      </trkpt>
      <trkpt lat="49.78536" lon="2.38235">
        <ele>41.1</ele>
        <time>2023-10-11T14:46:57Z</time>
      </trkpt>
      <trkpt lat="49.78535" lon="2.38238">
        <ele>41.1</ele>
        <time>2023-10-11T14:46:58Z</time>
      </trkpt>
      <trkpt lat="49.78535" lon="2.3824">
        <ele>41.2</ele>
        <time>2023-10-11T14:47:00Z</time>
      </trkpt>
      <trkpt lat="49.78534" lon="2.38241">
        <ele>41.2</ele>
        <time>2023-10-11T14:47:02Z</time>
      </trkpt>
      <trkpt lat="49.78534" lon="2.38244">
        <ele>41.2</ele>
        <time>2023-10-11T14:47:03Z</time>
      </trkpt>
      <trkpt lat="49.78534" lon="2.38245">
        <ele>41.2</ele>
        <time>2023-10-11T14:47:05Z</time>
      </trkpt>
      <trkpt lat="49.78534" lon="2.38247">
        <ele>41.2</ele>
        <time>2023-10-11T14:47:06Z</time>
      </trkpt>
      <trkpt lat="49.78533" lon="2.38248">
        <ele>41.3</ele>
        <time>2023-10-11T14:47:07Z</time>
      </trkpt>
      <trkpt lat="49.78533" lon="2.38249">
        <ele>41.3</ele>
        <time>2023-10-11T14:47:08Z</time>
      </trkpt>
      <trkpt lat="49.78533" lon="2.38252">
        <ele>41.3</ele>
        <time>2023-10-11T14:47:09Z</time>
      </trkpt>
      <trkpt lat="49.78532" lon="2.38253">
        <ele>41.3</ele>
        <time>2023-10-11T14:47:11Z</time>
      </trkpt>
      <trkpt lat="49.78532" lon="2.38254">
        <ele>41.3</ele>
        <time>2023-10-11T14:47:12Z</time>
      </trkpt>
      <trkpt lat="49.78532" lon="2.38256">
        <ele>41.4</ele>
        <time>2023-10-11T14:47:13Z</time>
      </trkpt>
      <trkpt lat="49.78531" lon="2.38258">
        <ele>41.4</ele>
        <time>2023-10-11T14:47:14Z</time>
      </trkpt>
      <trkpt lat="49.78531" lon="2.38259">
        <ele>41.4</ele>
        <time>2023-10-11T14:47:16Z</time>
      </trkpt>
      <trkpt lat="49.78531" lon="2.38261">
        <ele>41.4</ele>
        <time>2023-10-11T14:47:17Z</time>
      </trkpt>
      <trkpt lat="49.7853" lon="2.38262">
        <ele>41.4</ele>
        <time>2023-10-11T14:47:18Z</time>
      </trkpt>
      <trkpt lat="49.7853" lon="2.38263">
        <ele>41.5</ele>
        <time>2023-10-11T14:47:19Z</time>
      </trkpt>
      <trkpt lat="49.7853" lon="2.38264">
        <ele>41.5</ele>
        <time>2023-10-11T14:47:20Z</time>
      </trkpt>
      <trkpt lat="49.7853" lon="2.38265">
        <ele>41.5</ele>
        <time>2023-10-11T14:47:21Z</time>
      </trkpt>
      <trkpt lat="49.7853" lon="2.38266">
        <ele>41.5</ele>
        <time>2023-10-11T14:47:22Z</time>
      </trkpt>
      <trkpt lat="49.7853" lon="2.38267">
        <ele>41.5</ele>
        <time>2023-10-11T14:47:23Z</time>
      </trkpt>
      <trkpt lat="49.7853" lon="2.38268">
        <ele>41.5</ele>
        <time>2023-10-11T14:47:24Z</time>
      </trkpt>
      <trkpt lat="49.7853" lon="2.38269">
        <ele>41.5</ele>
        <time>2023-10-11T14:47:25Z</time>
      </trkpt>
      <trkpt lat="49.7853" lon="2.38269">
        <ele>41.5</ele>
        <time>2023-10-11T14:47:26Z</time>
      </trkpt>
      <trkpt lat="49.78531" lon="2.38272">
        <ele>41.6</ele>
        <time>2023-10-11T14:47:27Z</time>
      </trkpt>
      <trkpt lat="49.78531" lon="2.38273">
        <ele>41.6</ele>
        <time>2023-10-11T14:47:29Z</time>
      </trkpt>
      <trkpt lat="49.78531" lon="2.38275">
        <ele>41.6</ele>
        <time>2023-10-11T14:47:30Z</time>
      </trkpt>
      <trkpt lat="49.78531" lon="2.38277">
        <ele>41.6</ele>
        <time>2023-10-11T14:47:32Z</time>
      </trkpt>
      <trkpt lat="49.78532" lon="2.38279">
        <ele>41.7</ele>
        <time>2023-10-11T14:47:33Z</time>
      </trkpt>
      <trkpt lat="49.78532" lon="2.3828">
        <ele>41.7</ele>
        <time>2023-10-11T14:47:35Z</time>
      </trkpt>
      <trkpt lat="49.78532" lon="2.38281">
        <ele>41.7</ele>
        <time>2023-10-11T14:47:36Z</time>
      </trkpt>
      <trkpt lat="49.78532" lon="2.38282">
        <ele>41.7</ele>
        <time>2023-10-11T14:47:37Z</time>
      </trkpt>
      <trkpt lat="49.78532" lon="2.38282">
        <ele>41.7</ele>
        <time>2023-10-11T14:47:38Z</time>
      </trkpt>
      <trkpt lat="49.78532" lon="2.38283">
        <ele>41.7</ele>
        <time>2023-10-11T14:47:39Z</time>
      </trkpt>
      <trkpt lat="49.78533" lon="2.38283">
        <ele>41.7</ele>
        <time>2023-10-11T14:47:40Z</time>
      </trkpt>
      <trkpt lat="49.78533" lon="2.38283">
        <ele>41.7</ele>
        <time>2023-10-11T14:47:41Z</time>
      </trkpt>
      <trkpt lat="49.78533" lon="2.38283">
        <ele>41.7</ele>
        <time>2023-10-11T14:47:42Z</time>
      </trkpt>
      <trkpt lat="49.78533" lon="2.38283">
        <ele>41.7</ele>
        <time>2023-10-11T14:47:43Z</time>
      </trkpt>
      <trkpt lat="49.78533" lon="2.38283">
        <ele>41.7</ele>
        <time>2023-10-11T14:47:44Z</time>
      </trkpt>
      <trkpt lat="49.78533" lon="2.38283">
        <ele>41.7</ele>
        <time>2023-10-11T14:47:45Z</time>
      </trkpt>
      <trkpt lat="49.78533" lon="2.38283">
        <ele>41.7</ele>
        <time>2023-10-11T14:47:46Z</time>
      </trkpt>
      <trkpt lat="49.78533" lon="2.38283">
        <ele>41.7</ele>
        <time>2023-10-11T14:47:49Z</time>
      </trkpt>
      <trkpt lat="49.78533" lon="2.38283">
        <ele>41.7</ele>
        <time>2023-10-11T14:47:51Z</time>
      </trkpt>
      <trkpt lat="49.78533" lon="2.38283">
        <ele>41.7</ele>
        <time>2023-10-11T14:47:52Z</time>
      </trkpt>
      <trkpt lat="49.78533" lon="2.38283">
        <ele>41.7</ele>
        <time>2023-10-11T14:47:53Z</time>
      </trkpt>
      <trkpt lat="49.78533" lon="2.38282">
        <ele>41.7</ele>
        <time>2023-10-11T14:47:54Z</time>
      </trkpt>
      <trkpt lat="49.78531" lon="2.38287">
        <ele>41.8</ele>
        <time>2023-10-11T14:48:04Z</time>
      </trkpt>
      <trkpt lat="49.7853" lon="2.38287">
        <ele>41.8</ele>
        <time>2023-10-11T14:48:05Z</time>
      </trkpt>
      <trkpt lat="49.7853" lon="2.38288">
        <ele>41.8</ele>
        <time>2023-10-11T14:48:06Z</time>
      </trkpt>
      <trkpt lat="49.78529" lon="2.38289">
        <ele>41.8</ele>
        <time>2023-10-11T14:48:07Z</time>
      </trkpt>
      <trkpt lat="49.78528" lon="2.3829">
        <ele>41.9</ele>
        <time>2023-10-11T14:48:08Z</time>
      </trkpt>
      <trkpt lat="49.78528" lon="2.38291">
        <ele>41.9</ele>
        <time>2023-10-11T14:48:10Z</time>
      </trkpt>
      <trkpt lat="49.78527" lon="2.38291">
        <ele>41.9</ele>
        <time>2023-10-11T14:48:11Z</time>
      </trkpt>
      <trkpt lat="49.78527" lon="2.38292">
        <ele>41.9</ele>
        <time>2023-10-11T14:48:12Z</time>
      </trkpt>
      <trkpt lat="49.78526" lon="2.38293">
        <ele>41.9</ele>
        <time>2023-10-11T14:48:13Z</time>
      </trkpt>
      <trkpt lat="49.78526" lon="2.38294">
        <ele>41.9</ele>
        <time>2023-10-11T14:48:14Z</time>
      </trkpt>
      <trkpt lat="49.78525" lon="2.38294">
        <ele>41.9</ele>
        <time>2023-10-11T14:48:15Z</time>
      </trkpt>
      <trkpt lat="49.78525" lon="2.38294">
        <ele>41.9</ele>
        <time>2023-10-11T14:48:16Z</time>
      </trkpt>
      <trkpt lat="49.78525" lon="2.38294">
        <ele>41.9</ele>
        <time>2023-10-11T14:48:17Z</time>
      </trkpt>
      <trkpt lat="49.78524" lon="2.38295">
        <ele>42</ele>
        <time>2023-10-11T14:48:18Z</time>
      </trkpt>
      <trkpt lat="49.78524" lon="2.38296">
        <ele>42</ele>
        <time>2023-10-11T14:48:19Z</time>
      </trkpt>
      <trkpt lat="49.78524" lon="2.38297">
        <ele>42</ele>
        <time>2023-10-11T14:48:20Z</time>
      </trkpt>
      <trkpt lat="49.78523" lon="2.38301">
        <ele>42</ele>
        <time>2023-10-11T14:48:22Z</time>
      </trkpt>
      <trkpt lat="49.78523" lon="2.38302">
        <ele>42</ele>
        <time>2023-10-11T14:48:23Z</time>
      </trkpt>
      <trkpt lat="49.78522" lon="2.38306">
        <ele>42</ele>
        <time>2023-10-11T14:48:24Z</time>
      </trkpt>
      <trkpt lat="49.78522" lon="2.38308">
        <ele>42</ele>
        <time>2023-10-11T14:48:26Z</time>
      </trkpt>
      <trkpt lat="49.78522" lon="2.3831">
        <ele>42.1</ele>
        <time>2023-10-11T14:48:27Z</time>
      </trkpt>
      <trkpt lat="49.78521" lon="2.38313">
        <ele>42.1</ele>
        <time>2023-10-11T14:48:29Z</time>
      </trkpt>
      <trkpt lat="49.7852" lon="2.38316">
        <ele>42.2</ele>
        <time>2023-10-11T14:48:31Z</time>
      </trkpt>
      <trkpt lat="49.7852" lon="2.38318">
        <ele>42.3</ele>
        <time>2023-10-11T14:48:33Z</time>
      </trkpt>
      <trkpt lat="49.78519" lon="2.3832">
        <ele>42.3</ele>
        <time>2023-10-11T14:48:34Z</time>
      </trkpt>
      <trkpt lat="49.78518" lon="2.38323">
        <ele>42.4</ele>
        <time>2023-10-11T14:48:35Z</time>
      </trkpt>
      <trkpt lat="49.78518" lon="2.38325">
        <ele>42.5</ele>
        <time>2023-10-11T14:48:36Z</time>
      </trkpt>
      <trkpt lat="49.78517" lon="2.38327">
        <ele>42.5</ele>
        <time>2023-10-11T14:48:37Z</time>
      </trkpt>
      <trkpt lat="49.78516" lon="2.38329">
        <ele>42.6</ele>
        <time>2023-10-11T14:48:38Z</time>
      </trkpt>
      <trkpt lat="49.78514" lon="2.38334">
        <ele>42.7</ele>
        <time>2023-10-11T14:48:40Z</time>
      </trkpt>
      <trkpt lat="49.78513" lon="2.38339">
        <ele>42.9</ele>
        <time>2023-10-11T14:48:42Z</time>
      </trkpt>
      <trkpt lat="49.78512" lon="2.38341">
        <ele>42.9</ele>
        <time>2023-10-11T14:48:43Z</time>
      </trkpt>
      <trkpt lat="49.78512" lon="2.38343">
        <ele>43</ele>
        <time>2023-10-11T14:48:44Z</time>
      </trkpt>
      <trkpt lat="49.78511" lon="2.38345">
        <ele>43.1</ele>
        <time>2023-10-11T14:48:45Z</time>
      </trkpt>
      <trkpt lat="49.78511" lon="2.38347">
        <ele>43.1</ele>
        <time>2023-10-11T14:48:46Z</time>
      </trkpt>
      <trkpt lat="49.78511" lon="2.38349">
        <ele>43.2</ele>
        <time>2023-10-11T14:48:48Z</time>
      </trkpt>
      <trkpt lat="49.7851" lon="2.38353">
        <ele>43.3</ele>
        <time>2023-10-11T14:48:49Z</time>
      </trkpt>
      <trkpt lat="49.7851" lon="2.38356">
        <ele>43.4</ele>
        <time>2023-10-11T14:48:50Z</time>
      </trkpt>
      <trkpt lat="49.78509" lon="2.38357">
        <ele>43.4</ele>
        <time>2023-10-11T14:48:51Z</time>
      </trkpt>
      <trkpt lat="49.78509" lon="2.38358">
        <ele>43.5</ele>
        <time>2023-10-11T14:48:53Z</time>
      </trkpt>
      <trkpt lat="49.78509" lon="2.3836">
        <ele>43.6</ele>
        <time>2023-10-11T14:48:54Z</time>
      </trkpt>
      <trkpt lat="49.78508" lon="2.38362">
        <ele>43.6</ele>
        <time>2023-10-11T14:48:55Z</time>
      </trkpt>
      <trkpt lat="49.78507" lon="2.38365">
        <ele>43.7</ele>
        <time>2023-10-11T14:48:56Z</time>
      </trkpt>
      <trkpt lat="49.78507" lon="2.38366">
        <ele>43.8</ele>
        <time>2023-10-11T14:48:57Z</time>
      </trkpt>
      <trkpt lat="49.78506" lon="2.38368">
        <ele>43.8</ele>
        <time>2023-10-11T14:48:58Z</time>
      </trkpt>
      <trkpt lat="49.78506" lon="2.38369">
        <ele>43.9</ele>
        <time>2023-10-11T14:49:00Z</time>
      </trkpt>
      <trkpt lat="49.78505" lon="2.38372">
        <ele>44</ele>
        <time>2023-10-11T14:49:01Z</time>
      </trkpt>
      <trkpt lat="49.78505" lon="2.38373">
        <ele>44</ele>
        <time>2023-10-11T14:49:03Z</time>
      </trkpt>
      <trkpt lat="49.78504" lon="2.38375">
        <ele>44.1</ele>
        <time>2023-10-11T14:49:04Z</time>
      </trkpt>
      <trkpt lat="49.78504" lon="2.38376">
        <ele>44.1</ele>
        <time>2023-10-11T14:49:05Z</time>
      </trkpt>
      <trkpt lat="49.78503" lon="2.38379">
        <ele>44.2</ele>
        <time>2023-10-11T14:49:06Z</time>
      </trkpt>
      <trkpt lat="49.78503" lon="2.38381">
        <ele>44.3</ele>
        <time>2023-10-11T14:49:08Z</time>
      </trkpt>
      <trkpt lat="49.78502" lon="2.38384">
        <ele>44.4</ele>
        <time>2023-10-11T14:49:10Z</time>
      </trkpt>
      <trkpt lat="49.78502" lon="2.38385">
        <ele>44.5</ele>
        <time>2023-10-11T14:49:11Z</time>
      </trkpt>
      <trkpt lat="49.78502" lon="2.38387">
        <ele>44.6</ele>
        <time>2023-10-11T14:49:13Z</time>
      </trkpt>
      <trkpt lat="49.78502" lon="2.38389">
        <ele>44.6</ele>
        <time>2023-10-11T14:49:14Z</time>
      </trkpt>
      <trkpt lat="49.78502" lon="2.3839">
        <ele>44.7</ele>
        <time>2023-10-11T14:49:15Z</time>
      </trkpt>
      <trkpt lat="49.78502" lon="2.38393">
        <ele>44.8</ele>
        <time>2023-10-11T14:49:16Z</time>
      </trkpt>
      <trkpt lat="49.78501" lon="2.38395">
        <ele>44.9</ele>
        <time>2023-10-11T14:49:17Z</time>
      </trkpt>
      <trkpt lat="49.78501" lon="2.38397">
        <ele>44.9</ele>
        <time>2023-10-11T14:49:18Z</time>
      </trkpt>
      <trkpt lat="49.78501" lon="2.38399">
        <ele>45</ele>
        <time>2023-10-11T14:49:20Z</time>
      </trkpt>
      <trkpt lat="49.78501" lon="2.38403">
        <ele>45.2</ele>
        <time>2023-10-11T14:49:21Z</time>
      </trkpt>
      <trkpt lat="49.78501" lon="2.38405">
        <ele>45.2</ele>
        <time>2023-10-11T14:49:22Z</time>
      </trkpt>
      <trkpt lat="49.78501" lon="2.38407">
        <ele>45.3</ele>
        <time>2023-10-11T14:49:23Z</time>
      </trkpt>
      <trkpt lat="49.785" lon="2.3841">
        <ele>45.4</ele>
        <time>2023-10-11T14:49:25Z</time>
      </trkpt>
      <trkpt lat="49.785" lon="2.38411">
        <ele>45.5</ele>
        <time>2023-10-11T14:49:27Z</time>
      </trkpt>
      <trkpt lat="49.785" lon="2.38413">
        <ele>45.5</ele>
        <time>2023-10-11T14:49:28Z</time>
      </trkpt>
      <trkpt lat="49.78499" lon="2.38414">
        <ele>45.6</ele>
        <time>2023-10-11T14:49:29Z</time>
      </trkpt>
      <trkpt lat="49.78499" lon="2.38417">
        <ele>45.7</ele>
        <time>2023-10-11T14:49:30Z</time>
      </trkpt>
      <trkpt lat="49.78499" lon="2.38418">
        <ele>45.7</ele>
        <time>2023-10-11T14:49:32Z</time>
      </trkpt>
      <trkpt lat="49.78499" lon="2.38421">
        <ele>45.8</ele>
        <time>2023-10-11T14:49:33Z</time>
      </trkpt>
      <trkpt lat="49.78499" lon="2.38422">
        <ele>45.9</ele>
        <time>2023-10-11T14:49:35Z</time>
      </trkpt>
      <trkpt lat="49.78499" lon="2.38424">
        <ele>45.9</ele>
        <time>2023-10-11T14:49:36Z</time>
      </trkpt>
      <trkpt lat="49.78499" lon="2.38426">
        <ele>46</ele>
        <time>2023-10-11T14:49:37Z</time>
      </trkpt>
      <trkpt lat="49.78499" lon="2.38428">
        <ele>46.1</ele>
        <time>2023-10-11T14:49:38Z</time>
      </trkpt>
      <trkpt lat="49.78499" lon="2.38429">
        <ele>46.1</ele>
        <time>2023-10-11T14:49:40Z</time>
      </trkpt>
      <trkpt lat="49.78498" lon="2.38431">
        <ele>46.2</ele>
        <time>2023-10-11T14:49:41Z</time>
      </trkpt>
      <trkpt lat="49.78498" lon="2.38432">
        <ele>46.2</ele>
        <time>2023-10-11T14:49:42Z</time>
      </trkpt>
      <trkpt lat="49.78498" lon="2.38434">
        <ele>46.3</ele>
        <time>2023-10-11T14:49:43Z</time>
      </trkpt>
      <trkpt lat="49.78498" lon="2.38435">
        <ele>46.4</ele>
        <time>2023-10-11T14:49:44Z</time>
      </trkpt>
      <trkpt lat="49.78498" lon="2.38437">
        <ele>46.4</ele>
        <time>2023-10-11T14:49:45Z</time>
      </trkpt>
      <trkpt lat="49.78497" lon="2.38438">
        <ele>46.5</ele>
        <time>2023-10-11T14:49:46Z</time>
      </trkpt>
      <trkpt lat="49.78497" lon="2.38441">
        <ele>46.6</ele>
        <time>2023-10-11T14:49:47Z</time>
      </trkpt>
      <trkpt lat="49.78497" lon="2.38443">
        <ele>46.6</ele>
        <time>2023-10-11T14:49:49Z</time>
      </trkpt>
      <trkpt lat="49.78497" lon="2.38444">
        <ele>46.7</ele>
        <time>2023-10-11T14:49:50Z</time>
      </trkpt>
      <trkpt lat="49.78497" lon="2.38446">
        <ele>46.8</ele>
        <time>2023-10-11T14:49:51Z</time>
      </trkpt>
      <trkpt lat="49.78497" lon="2.38447">
        <ele>46.8</ele>
        <time>2023-10-11T14:49:52Z</time>
      </trkpt>
      <trkpt lat="49.78496" lon="2.38449">
        <ele>46.9</ele>
        <time>2023-10-11T14:49:53Z</time>
      </trkpt>
      <trkpt lat="49.78496" lon="2.38452">
        <ele>47</ele>
        <time>2023-10-11T14:49:54Z</time>
      </trkpt>
      <trkpt lat="49.78496" lon="2.38454">
        <ele>47.1</ele>
        <time>2023-10-11T14:49:55Z</time>
      </trkpt>
      <trkpt lat="49.78496" lon="2.38455">
        <ele>47.2</ele>
        <time>2023-10-11T14:49:57Z</time>
      </trkpt>
      <trkpt lat="49.78496" lon="2.38457">
        <ele>47.2</ele>
        <time>2023-10-11T14:49:58Z</time>
      </trkpt>
      <trkpt lat="49.78495" lon="2.3846">
        <ele>47.4</ele>
        <time>2023-10-11T14:49:59Z</time>
      </trkpt>
      <trkpt lat="49.78495" lon="2.38461">
        <ele>47.4</ele>
        <time>2023-10-11T14:50:00Z</time>
      </trkpt>
      <trkpt lat="49.78495" lon="2.38463">
        <ele>47.5</ele>
        <time>2023-10-11T14:50:02Z</time>
      </trkpt>
      <trkpt lat="49.78495" lon="2.38464">
        <ele>47.6</ele>
        <time>2023-10-11T14:50:03Z</time>
      </trkpt>
      <trkpt lat="49.78495" lon="2.38466">
        <ele>47.6</ele>
        <time>2023-10-11T14:50:04Z</time>
      </trkpt>
      <trkpt lat="49.78494" lon="2.38467">
        <ele>47.7</ele>
        <time>2023-10-11T14:50:05Z</time>
      </trkpt>
      <trkpt lat="49.78494" lon="2.38468">
        <ele>47.8</ele>
        <time>2023-10-11T14:50:06Z</time>
      </trkpt>
      <trkpt lat="49.78494" lon="2.3847">
        <ele>47.8</ele>
        <time>2023-10-11T14:50:07Z</time>
      </trkpt>
      <trkpt lat="49.78493" lon="2.38473">
        <ele>48</ele>
        <time>2023-10-11T14:50:08Z</time>
      </trkpt>
      <trkpt lat="49.78493" lon="2.38475">
        <ele>48.1</ele>
        <time>2023-10-11T14:50:10Z</time>
      </trkpt>
      <trkpt lat="49.78493" lon="2.38478">
        <ele>48.2</ele>
        <time>2023-10-11T14:50:11Z</time>
      </trkpt>
      <trkpt lat="49.78492" lon="2.3848">
        <ele>48.3</ele>
        <time>2023-10-11T14:50:13Z</time>
      </trkpt>
      <trkpt lat="49.78492" lon="2.38482">
        <ele>48.4</ele>
        <time>2023-10-11T14:50:14Z</time>
      </trkpt>
      <trkpt lat="49.78492" lon="2.38483">
        <ele>48.5</ele>
        <time>2023-10-11T14:50:15Z</time>
      </trkpt>
      <trkpt lat="49.78492" lon="2.38486">
        <ele>48.6</ele>
        <time>2023-10-11T14:50:16Z</time>
      </trkpt>
      <trkpt lat="49.78491" lon="2.38488">
        <ele>48.7</ele>
        <time>2023-10-11T14:50:18Z</time>
      </trkpt>
      <trkpt lat="49.7849" lon="2.38491">
        <ele>48.8</ele>
        <time>2023-10-11T14:50:19Z</time>
      </trkpt>
      <trkpt lat="49.7849" lon="2.38493">
        <ele>49</ele>
        <time>2023-10-11T14:50:21Z</time>
      </trkpt>
      <trkpt lat="49.78489" lon="2.38496">
        <ele>49.1</ele>
        <time>2023-10-11T14:50:23Z</time>
      </trkpt>
      <trkpt lat="49.78489" lon="2.38497">
        <ele>49.2</ele>
        <time>2023-10-11T14:50:24Z</time>
      </trkpt>
      <trkpt lat="49.78489" lon="2.38498">
        <ele>49.2</ele>
        <time>2023-10-11T14:50:26Z</time>
      </trkpt>
      <trkpt lat="49.78488" lon="2.385">
        <ele>49.3</ele>
        <time>2023-10-11T14:50:27Z</time>
      </trkpt>
      <trkpt lat="49.78488" lon="2.38501">
        <ele>49.3</ele>
        <time>2023-10-11T14:50:28Z</time>
      </trkpt>
      <trkpt lat="49.78488" lon="2.38502">
        <ele>49.4</ele>
        <time>2023-10-11T14:50:29Z</time>
      </trkpt>
      <trkpt lat="49.78488" lon="2.38505">
        <ele>49.5</ele>
        <time>2023-10-11T14:50:30Z</time>
      </trkpt>
      <trkpt lat="49.78487" lon="2.38506">
        <ele>49.6</ele>
        <time>2023-10-11T14:50:31Z</time>
      </trkpt>
      <trkpt lat="49.78487" lon="2.38508">
        <ele>49.7</ele>
        <time>2023-10-11T14:50:33Z</time>
      </trkpt>
      <trkpt lat="49.78487" lon="2.38509">
        <ele>49.8</ele>
        <time>2023-10-11T14:50:34Z</time>
      </trkpt>
      <trkpt lat="49.78487" lon="2.3851">
        <ele>49.8</ele>
        <time>2023-10-11T14:50:35Z</time>
      </trkpt>
      <trkpt lat="49.78487" lon="2.38512">
        <ele>49.9</ele>
        <time>2023-10-11T14:50:37Z</time>
      </trkpt>
      <trkpt lat="49.78486" lon="2.38513">
        <ele>50</ele>
        <time>2023-10-11T14:50:38Z</time>
      </trkpt>
      <trkpt lat="49.78486" lon="2.38515">
        <ele>50</ele>
        <time>2023-10-11T14:50:39Z</time>
      </trkpt>
      <trkpt lat="49.78486" lon="2.38516">
        <ele>50.1</ele>
        <time>2023-10-11T14:50:41Z</time>
      </trkpt>
      <trkpt lat="49.78486" lon="2.38518">
        <ele>50.2</ele>
        <time>2023-10-11T14:50:42Z</time>
      </trkpt>
      <trkpt lat="49.78486" lon="2.38519">
        <ele>50.3</ele>
        <time>2023-10-11T14:50:43Z</time>
      </trkpt>
      <trkpt lat="49.78485" lon="2.3852">
        <ele>50.3</ele>
        <time>2023-10-11T14:50:45Z</time>
      </trkpt>
      <trkpt lat="49.78485" lon="2.38522">
        <ele>50.4</ele>
        <time>2023-10-11T14:50:46Z</time>
      </trkpt>
      <trkpt lat="49.78485" lon="2.38523">
        <ele>50.5</ele>
        <time>2023-10-11T14:50:47Z</time>
      </trkpt>
      <trkpt lat="49.78485" lon="2.38525">
        <ele>50.5</ele>
        <time>2023-10-11T14:50:48Z</time>
      </trkpt>
      <trkpt lat="49.78484" lon="2.38526">
        <ele>50.6</ele>
        <time>2023-10-11T14:50:49Z</time>
      </trkpt>
      <trkpt lat="49.78484" lon="2.38529">
        <ele>50.8</ele>
        <time>2023-10-11T14:50:50Z</time>
      </trkpt>
      <trkpt lat="49.78484" lon="2.38531">
        <ele>50.8</ele>
        <time>2023-10-11T14:50:51Z</time>
      </trkpt>
      <trkpt lat="49.78484" lon="2.38532">
        <ele>50.9</ele>
        <time>2023-10-11T14:50:53Z</time>
      </trkpt>
      <trkpt lat="49.78484" lon="2.38534">
        <ele>51</ele>
        <time>2023-10-11T14:50:54Z</time>
      </trkpt>
      <trkpt lat="49.78483" lon="2.38537">
        <ele>51.1</ele>
        <time>2023-10-11T14:50:55Z</time>
      </trkpt>
      <trkpt lat="49.78483" lon="2.38538">
        <ele>51.2</ele>
        <time>2023-10-11T14:50:57Z</time>
      </trkpt>
      <trkpt lat="49.78483" lon="2.38539">
        <ele>51.3</ele>
        <time>2023-10-11T14:50:58Z</time>
      </trkpt>
      <trkpt lat="49.78483" lon="2.38541">
        <ele>51.4</ele>
        <time>2023-10-11T14:50:59Z</time>
      </trkpt>
      <trkpt lat="49.78483" lon="2.38542">
        <ele>51.4</ele>
        <time>2023-10-11T14:51:00Z</time>
      </trkpt>
      <trkpt lat="49.78482" lon="2.38545">
        <ele>51.6</ele>
        <time>2023-10-11T14:51:01Z</time>
      </trkpt>
      <trkpt lat="49.78482" lon="2.38546">
        <ele>51.7</ele>
        <time>2023-10-11T14:51:03Z</time>
      </trkpt>
      <trkpt lat="49.78482" lon="2.38548">
        <ele>51.7</ele>
        <time>2023-10-11T14:51:04Z</time>
      </trkpt>
      <trkpt lat="49.78482" lon="2.38549">
        <ele>51.8</ele>
        <time>2023-10-11T14:51:05Z</time>
      </trkpt>
      <trkpt lat="49.78482" lon="2.38552">
        <ele>52</ele>
        <time>2023-10-11T14:51:06Z</time>
      </trkpt>
      <trkpt lat="49.78482" lon="2.38553">
        <ele>52.1</ele>
        <time>2023-10-11T14:51:08Z</time>
      </trkpt>
      <trkpt lat="49.78482" lon="2.38555">
        <ele>52.2</ele>
        <time>2023-10-11T14:51:09Z</time>
      </trkpt>
      <trkpt lat="49.78481" lon="2.38557">
        <ele>52.3</ele>
        <time>2023-10-11T14:51:10Z</time>
      </trkpt>
      <trkpt lat="49.78481" lon="2.38558">
        <ele>52.4</ele>
        <time>2023-10-11T14:51:11Z</time>
      </trkpt>
      <trkpt lat="49.78481" lon="2.38559">
        <ele>52.4</ele>
        <time>2023-10-11T14:51:12Z</time>
      </trkpt>
      <trkpt lat="49.78481" lon="2.38561">
        <ele>52.5</ele>
        <time>2023-10-11T14:51:13Z</time>
      </trkpt>
      <trkpt lat="49.7848" lon="2.38562">
        <ele>52.6</ele>
        <time>2023-10-11T14:51:14Z</time>
      </trkpt>
      <trkpt lat="49.7848" lon="2.38563">
        <ele>52.7</ele>
        <time>2023-10-11T14:51:15Z</time>
      </trkpt>
      <trkpt lat="49.7848" lon="2.38565">
        <ele>52.8</ele>
        <time>2023-10-11T14:51:16Z</time>
      </trkpt>
      <trkpt lat="49.78479" lon="2.38566">
        <ele>52.9</ele>
        <time>2023-10-11T14:51:17Z</time>
      </trkpt>
      <trkpt lat="49.78479" lon="2.38567">
        <ele>53</ele>
        <time>2023-10-11T14:51:18Z</time>
      </trkpt>
      <trkpt lat="49.78478" lon="2.38569">
        <ele>53.1</ele>
        <time>2023-10-11T14:51:19Z</time>
      </trkpt>
      <trkpt lat="49.78478" lon="2.3857">
        <ele>53.2</ele>
        <time>2023-10-11T14:51:20Z</time>
      </trkpt>
      <trkpt lat="49.78477" lon="2.38573">
        <ele>53.4</ele>
        <time>2023-10-11T14:51:21Z</time>
      </trkpt>
      <trkpt lat="49.78475" lon="2.38575">
        <ele>53.6</ele>
        <time>2023-10-11T14:51:22Z</time>
      </trkpt>
      <trkpt lat="49.78474" lon="2.38576">
        <ele>53.7</ele>
        <time>2023-10-11T14:51:24Z</time>
      </trkpt>
      <trkpt lat="49.78473" lon="2.38577">
        <ele>53.8</ele>
        <time>2023-10-11T14:51:25Z</time>
      </trkpt>
      <trkpt lat="49.78472" lon="2.38579">
        <ele>53.9</ele>
        <time>2023-10-11T14:51:27Z</time>
      </trkpt>
      <trkpt lat="49.78471" lon="2.3858">
        <ele>54</ele>
        <time>2023-10-11T14:51:29Z</time>
      </trkpt>
      <trkpt lat="49.7847" lon="2.38581">
        <ele>54.7</ele>
        <time>2023-10-11T14:51:31Z</time>
      </trkpt>
      <trkpt lat="49.78469" lon="2.38582">
        <ele>54.8</ele>
        <time>2023-10-11T14:51:33Z</time>
      </trkpt>
      <trkpt lat="49.78468" lon="2.38583">
        <ele>54.8</ele>
        <time>2023-10-11T14:51:34Z</time>
      </trkpt>
      <trkpt lat="49.78467" lon="2.38583">
        <ele>54.8</ele>
        <time>2023-10-11T14:51:35Z</time>
      </trkpt>
      <trkpt lat="49.78466" lon="2.38583">
        <ele>54.8</ele>
        <time>2023-10-11T14:51:36Z</time>
      </trkpt>
      <trkpt lat="49.78466" lon="2.38583">
        <ele>54.8</ele>
        <time>2023-10-11T14:51:37Z</time>
      </trkpt>
      <trkpt lat="49.78465" lon="2.38582">
        <ele>54.8</ele>
        <time>2023-10-11T14:51:38Z</time>
      </trkpt>
      <trkpt lat="49.78464" lon="2.38582">
        <ele>54.8</ele>
        <time>2023-10-11T14:51:39Z</time>
      </trkpt>
      <trkpt lat="49.78463" lon="2.38582">
        <ele>54.8</ele>
        <time>2023-10-11T14:51:40Z</time>
      </trkpt>
      <trkpt lat="49.78462" lon="2.38581">
        <ele>54.8</ele>
        <time>2023-10-11T14:51:41Z</time>
      </trkpt>
      <trkpt lat="49.78461" lon="2.38581">
        <ele>54.8</ele>
        <time>2023-10-11T14:51:43Z</time>
      </trkpt>
      <trkpt lat="49.7846" lon="2.3858">
        <ele>54.8</ele>
        <time>2023-10-11T14:51:44Z</time>
      </trkpt>
      <trkpt lat="49.78459" lon="2.38579">
        <ele>54.8</ele>
        <time>2023-10-11T14:51:45Z</time>
      </trkpt>
      <trkpt lat="49.78458" lon="2.38579">
        <ele>54.8</ele>
        <time>2023-10-11T14:51:46Z</time>
      </trkpt>
      <trkpt lat="49.78457" lon="2.38578">
        <ele>54.8</ele>
        <time>2023-10-11T14:51:48Z</time>
      </trkpt>
      <trkpt lat="49.78456" lon="2.38577">
        <ele>54.8</ele>
        <time>2023-10-11T14:51:50Z</time>
      </trkpt>
      <trkpt lat="49.78454" lon="2.38576">
        <ele>54.8</ele>
        <time>2023-10-11T14:51:51Z</time>
      </trkpt>
      <trkpt lat="49.78453" lon="2.38576">
        <ele>54.8</ele>
        <time>2023-10-11T14:51:53Z</time>
      </trkpt>
      <trkpt lat="49.78452" lon="2.38575">
        <ele>54.8</ele>
        <time>2023-10-11T14:51:54Z</time>
      </trkpt>
      <trkpt lat="49.78451" lon="2.38575">
        <ele>54.8</ele>
        <time>2023-10-11T14:51:55Z</time>
      </trkpt>
      <trkpt lat="49.78451" lon="2.38575">
        <ele>54.8</ele>
        <time>2023-10-11T14:51:56Z</time>
      </trkpt>
      <trkpt lat="49.7845" lon="2.38574">
        <ele>54.8</ele>
        <time>2023-10-11T14:51:57Z</time>
      </trkpt>
      <trkpt lat="49.78448" lon="2.38573">
        <ele>54.8</ele>
        <time>2023-10-11T14:51:58Z</time>
      </trkpt>
      <trkpt lat="49.78445" lon="2.38572">
        <ele>54.8</ele>
        <time>2023-10-11T14:52:00Z</time>
      </trkpt>
      <trkpt lat="49.78444" lon="2.38572">
        <ele>54.8</ele>
        <time>2023-10-11T14:52:02Z</time>
      </trkpt>
      <trkpt lat="49.78443" lon="2.38571">
        <ele>54.8</ele>
        <time>2023-10-11T14:52:03Z</time>
      </trkpt>
      <trkpt lat="49.78442" lon="2.38571">
        <ele>54.8</ele>
        <time>2023-10-11T14:52:04Z</time>
      </trkpt>
      <trkpt lat="49.78441" lon="2.3857">
        <ele>54.8</ele>
        <time>2023-10-11T14:52:05Z</time>
      </trkpt>
      <trkpt lat="49.7844" lon="2.38569">
        <ele>54.8</ele>
        <time>2023-10-11T14:52:06Z</time>
      </trkpt>
      <trkpt lat="49.78439" lon="2.38569">
        <ele>54.8</ele>
        <time>2023-10-11T14:52:07Z</time>
      </trkpt>
      <trkpt lat="49.78438" lon="2.38568">
        <ele>54.8</ele>
        <time>2023-10-11T14:52:08Z</time>
      </trkpt>
      <trkpt lat="49.78437" lon="2.38567">
        <ele>54.8</ele>
        <time>2023-10-11T14:52:09Z</time>
      </trkpt>
      <trkpt lat="49.78435" lon="2.38566">
        <ele>54.8</ele>
        <time>2023-10-11T14:52:10Z</time>
      </trkpt>
      <trkpt lat="49.78433" lon="2.38564">
        <ele>54.8</ele>
        <time>2023-10-11T14:52:12Z</time>
      </trkpt>
      <trkpt lat="49.78432" lon="2.38563">
        <ele>54.8</ele>
        <time>2023-10-11T14:52:14Z</time>
      </trkpt>
      <trkpt lat="49.78431" lon="2.38562">
        <ele>54.8</ele>
        <time>2023-10-11T14:52:15Z</time>
      </trkpt>
      <trkpt lat="49.78431" lon="2.38561">
        <ele>54.8</ele>
        <time>2023-10-11T14:52:16Z</time>
      </trkpt>
      <trkpt lat="49.7843" lon="2.38561">
        <ele>54.8</ele>
        <time>2023-10-11T14:52:17Z</time>
      </trkpt>
      <trkpt lat="49.78429" lon="2.3856">
        <ele>54.8</ele>
        <time>2023-10-11T14:52:18Z</time>
      </trkpt>
      <trkpt lat="49.78428" lon="2.38559">
        <ele>54.8</ele>
        <time>2023-10-11T14:52:19Z</time>
      </trkpt>
      <trkpt lat="49.78427" lon="2.38559">
        <ele>54.8</ele>
        <time>2023-10-11T14:52:20Z</time>
      </trkpt>
      <trkpt lat="49.78426" lon="2.38558">
        <ele>54.8</ele>
        <time>2023-10-11T14:52:21Z</time>
      </trkpt>
      <trkpt lat="49.78425" lon="2.38558">
        <ele>54.8</ele>
        <time>2023-10-11T14:52:22Z</time>
      </trkpt>
      <trkpt lat="49.78424" lon="2.38557">
        <ele>54.8</ele>
        <time>2023-10-11T14:52:23Z</time>
      </trkpt>
      <trkpt lat="49.78423" lon="2.38557">
        <ele>54.8</ele>
        <time>2023-10-11T14:52:24Z</time>
      </trkpt>
      <trkpt lat="49.78423" lon="2.38556">
        <ele>54.8</ele>
        <time>2023-10-11T14:52:25Z</time>
      </trkpt>
      <trkpt lat="49.78421" lon="2.38555">
        <ele>54.8</ele>
        <time>2023-10-11T14:52:26Z</time>
      </trkpt>
      <trkpt lat="49.7842" lon="2.38554">
        <ele>54.8</ele>
        <time>2023-10-11T14:52:28Z</time>
      </trkpt>
      <trkpt lat="49.78419" lon="2.38554">
        <ele>54.8</ele>
        <time>2023-10-11T14:52:29Z</time>
      </trkpt>
      <trkpt lat="49.78418" lon="2.38553">
        <ele>54.8</ele>
        <time>2023-10-11T14:52:30Z</time>
      </trkpt>
      <trkpt lat="49.78417" lon="2.38553">
        <ele>54.8</ele>
        <time>2023-10-11T14:52:31Z</time>
      </trkpt>
      <trkpt lat="49.78417" lon="2.38552">
        <ele>54.9</ele>
        <time>2023-10-11T14:52:32Z</time>
      </trkpt>
      <trkpt lat="49.78415" lon="2.3855">
        <ele>54.9</ele>
        <time>2023-10-11T14:52:33Z</time>
      </trkpt>
      <trkpt lat="49.78414" lon="2.3855">
        <ele>54.9</ele>
        <time>2023-10-11T14:52:35Z</time>
      </trkpt>
      <trkpt lat="49.78413" lon="2.38548">
        <ele>54.9</ele>
        <time>2023-10-11T14:52:36Z</time>
      </trkpt>
      <trkpt lat="49.78411" lon="2.38546">
        <ele>54.9</ele>
        <time>2023-10-11T14:52:38Z</time>
      </trkpt>
      <trkpt lat="49.7841" lon="2.38544">
        <ele>54.9</ele>
        <time>2023-10-11T14:52:40Z</time>
      </trkpt>
      <trkpt lat="49.7841" lon="2.38543">
        <ele>54.9</ele>
        <time>2023-10-11T14:52:41Z</time>
      </trkpt>
      <trkpt lat="49.78409" lon="2.38542">
        <ele>54.9</ele>
        <time>2023-10-11T14:52:42Z</time>
      </trkpt>
      <trkpt lat="49.78408" lon="2.38541">
        <ele>54.9</ele>
        <time>2023-10-11T14:52:43Z</time>
      </trkpt>
      <trkpt lat="49.78406" lon="2.3854">
        <ele>54.9</ele>
        <time>2023-10-11T14:52:44Z</time>
      </trkpt>
      <trkpt lat="49.78405" lon="2.38539">
        <ele>54.9</ele>
        <time>2023-10-11T14:52:46Z</time>
      </trkpt>
      <trkpt lat="49.78404" lon="2.38538">
        <ele>54.9</ele>
        <time>2023-10-11T14:52:47Z</time>
      </trkpt>
      <trkpt lat="49.78403" lon="2.38537">
        <ele>54.9</ele>
        <time>2023-10-11T14:52:48Z</time>
      </trkpt>
      <trkpt lat="49.78402" lon="2.38537">
        <ele>54.9</ele>
        <time>2023-10-11T14:52:49Z</time>
      </trkpt>
      <trkpt lat="49.78401" lon="2.38536">
        <ele>55</ele>
        <time>2023-10-11T14:52:50Z</time>
      </trkpt>
      <trkpt lat="49.78399" lon="2.38535">
        <ele>55</ele>
        <time>2023-10-11T14:52:51Z</time>
      </trkpt>
      <trkpt lat="49.78398" lon="2.38534">
        <ele>55</ele>
        <time>2023-10-11T14:52:53Z</time>
      </trkpt>
      <trkpt lat="49.78397" lon="2.38534">
        <ele>55</ele>
        <time>2023-10-11T14:52:54Z</time>
      </trkpt>
      <trkpt lat="49.78396" lon="2.38533">
        <ele>55</ele>
        <time>2023-10-11T14:52:55Z</time>
      </trkpt>
      <trkpt lat="49.78394" lon="2.38533">
        <ele>55</ele>
        <time>2023-10-11T14:52:56Z</time>
      </trkpt>
      <trkpt lat="49.78393" lon="2.38532">
        <ele>55</ele>
        <time>2023-10-11T14:52:57Z</time>
      </trkpt>
      <trkpt lat="49.7839" lon="2.38532">
        <ele>55</ele>
        <time>2023-10-11T14:52:59Z</time>
      </trkpt>
      <trkpt lat="49.78389" lon="2.38531">
        <ele>55</ele>
        <time>2023-10-11T14:53:01Z</time>
      </trkpt>
      <trkpt lat="49.78388" lon="2.38531">
        <ele>55</ele>
        <time>2023-10-11T14:53:02Z</time>
      </trkpt>
      <trkpt lat="49.78386" lon="2.3853">
        <ele>55</ele>
        <time>2023-10-11T14:53:03Z</time>
      </trkpt>
      <trkpt lat="49.78385" lon="2.38529">
        <ele>55</ele>
        <time>2023-10-11T14:53:05Z</time>
      </trkpt>
      <trkpt lat="49.78384" lon="2.38529">
        <ele>55</ele>
        <time>2023-10-11T14:53:06Z</time>
      </trkpt>
      <trkpt lat="49.78383" lon="2.38528">
        <ele>55</ele>
        <time>2023-10-11T14:53:07Z</time>
      </trkpt>
      <trkpt lat="49.78382" lon="2.38527">
        <ele>55.1</ele>
        <time>2023-10-11T14:53:08Z</time>
      </trkpt>
      <trkpt lat="49.78381" lon="2.38527">
        <ele>55.1</ele>
        <time>2023-10-11T14:53:09Z</time>
      </trkpt>
      <trkpt lat="49.78381" lon="2.38526">
        <ele>55.1</ele>
        <time>2023-10-11T14:53:10Z</time>
      </trkpt>
      <trkpt lat="49.7838" lon="2.38525">
        <ele>55.1</ele>
        <time>2023-10-11T14:53:11Z</time>
      </trkpt>
      <trkpt lat="49.78379" lon="2.38525">
        <ele>55.1</ele>
        <time>2023-10-11T14:53:12Z</time>
      </trkpt>
      <trkpt lat="49.78378" lon="2.38524">
        <ele>55.1</ele>
        <time>2023-10-11T14:53:13Z</time>
      </trkpt>
      <trkpt lat="49.78377" lon="2.38523">
        <ele>55.1</ele>
        <time>2023-10-11T14:53:14Z</time>
      </trkpt>
      <trkpt lat="49.78376" lon="2.38522">
        <ele>55.1</ele>
        <time>2023-10-11T14:53:15Z</time>
      </trkpt>
      <trkpt lat="49.78375" lon="2.38521">
        <ele>55.1</ele>
        <time>2023-10-11T14:53:16Z</time>
      </trkpt>
      <trkpt lat="49.78374" lon="2.3852">
        <ele>55.1</ele>
        <time>2023-10-11T14:53:17Z</time>
      </trkpt>
      <trkpt lat="49.78372" lon="2.38519">
        <ele>55.1</ele>
        <time>2023-10-11T14:53:19Z</time>
      </trkpt>
      <trkpt lat="49.78371" lon="2.38518">
        <ele>55.1</ele>
        <time>2023-10-11T14:53:21Z</time>
      </trkpt>
      <trkpt lat="49.7837" lon="2.38517">
        <ele>55.1</ele>
        <time>2023-10-11T14:53:22Z</time>
      </trkpt>
      <trkpt lat="49.7837" lon="2.38516">
        <ele>55.1</ele>
        <time>2023-10-11T14:53:23Z</time>
      </trkpt>
      <trkpt lat="49.78368" lon="2.38515">
        <ele>55.2</ele>
        <time>2023-10-11T14:53:24Z</time>
      </trkpt>
      <trkpt lat="49.78367" lon="2.38514">
        <ele>55.2</ele>
        <time>2023-10-11T14:53:26Z</time>
      </trkpt>
      <trkpt lat="49.78366" lon="2.38513">
        <ele>55.2</ele>
        <time>2023-10-11T14:53:27Z</time>
      </trkpt>
      <trkpt lat="49.78366" lon="2.38512">
        <ele>55.2</ele>
        <time>2023-10-11T14:53:28Z</time>
      </trkpt>
      <trkpt lat="49.78365" lon="2.38512">
        <ele>55.2</ele>
        <time>2023-10-11T14:53:29Z</time>
      </trkpt>
      <trkpt lat="49.78364" lon="2.38511">
        <ele>55.2</ele>
        <time>2023-10-11T14:53:30Z</time>
      </trkpt>
      <trkpt lat="49.78363" lon="2.3851">
        <ele>55.2</ele>
        <time>2023-10-11T14:53:31Z</time>
      </trkpt>
      <trkpt lat="49.78362" lon="2.38509">
        <ele>55.2</ele>
        <time>2023-10-11T14:53:32Z</time>
      </trkpt>
      <trkpt lat="49.7836" lon="2.38507">
        <ele>55.2</ele>
        <time>2023-10-11T14:53:33Z</time>
      </trkpt>
      <trkpt lat="49.78359" lon="2.38506">
        <ele>55.2</ele>
        <time>2023-10-11T14:53:35Z</time>
      </trkpt>
      <trkpt lat="49.78358" lon="2.38505">
        <ele>55.2</ele>
        <time>2023-10-11T14:53:37Z</time>
      </trkpt>
      <trkpt lat="49.78357" lon="2.38504">
        <ele>55.2</ele>
        <time>2023-10-11T14:53:38Z</time>
      </trkpt>
      <trkpt lat="49.78356" lon="2.38504">
        <ele>55.3</ele>
        <time>2023-10-11T14:53:39Z</time>
      </trkpt>
      <trkpt lat="49.78355" lon="2.38502">
        <ele>55.3</ele>
        <time>2023-10-11T14:53:40Z</time>
      </trkpt>
      <trkpt lat="49.78354" lon="2.38501">
        <ele>55.3</ele>
        <time>2023-10-11T14:53:42Z</time>
      </trkpt>
      <trkpt lat="49.78353" lon="2.385">
        <ele>55.3</ele>
        <time>2023-10-11T14:53:43Z</time>
      </trkpt>
      <trkpt lat="49.78353" lon="2.38499">
        <ele>55.3</ele>
        <time>2023-10-11T14:53:44Z</time>
      </trkpt>
      <trkpt lat="49.78352" lon="2.38498">
        <ele>55.3</ele>
        <time>2023-10-11T14:53:45Z</time>
      </trkpt>
      <trkpt lat="49.7835" lon="2.38496">
        <ele>55.3</ele>
        <time>2023-10-11T14:53:46Z</time>
      </trkpt>
      <trkpt lat="49.78349" lon="2.38495">
        <ele>55.3</ele>
        <time>2023-10-11T14:53:47Z</time>
      </trkpt>
      <trkpt lat="49.78347" lon="2.38493">
        <ele>55.3</ele>
        <time>2023-10-11T14:53:49Z</time>
      </trkpt>
      <trkpt lat="49.78347" lon="2.38492">
        <ele>55.3</ele>
        <time>2023-10-11T14:53:50Z</time>
      </trkpt>
      <trkpt lat="49.78346" lon="2.38491">
        <ele>55.3</ele>
        <time>2023-10-11T14:53:51Z</time>
      </trkpt>
      <trkpt lat="49.78343" lon="2.38488">
        <ele>55.4</ele>
        <time>2023-10-11T14:53:52Z</time>
      </trkpt>
      <trkpt lat="49.78343" lon="2.38488">
        <ele>55.4</ele>
        <time>2023-10-11T14:53:53Z</time>
      </trkpt>
      <trkpt lat="49.78341" lon="2.38486">
        <ele>55.4</ele>
        <time>2023-10-11T14:53:55Z</time>
      </trkpt>
      <trkpt lat="49.7834" lon="2.38484">
        <ele>55.4</ele>
        <time>2023-10-11T14:53:57Z</time>
      </trkpt>
      <trkpt lat="49.78339" lon="2.38483">
        <ele>55.4</ele>
        <time>2023-10-11T14:53:59Z</time>
      </trkpt>
      <trkpt lat="49.78338" lon="2.38482">
        <ele>55.4</ele>
        <time>2023-10-11T14:54:00Z</time>
      </trkpt>
      <trkpt lat="49.78338" lon="2.38481">
        <ele>55.4</ele>
        <time>2023-10-11T14:54:01Z</time>
      </trkpt>
      <trkpt lat="49.78337" lon="2.3848">
        <ele>55.4</ele>
        <time>2023-10-11T14:54:02Z</time>
      </trkpt>
      <trkpt lat="49.78336" lon="2.38479">
        <ele>55.4</ele>
        <time>2023-10-11T14:54:03Z</time>
      </trkpt>
      <trkpt lat="49.78335" lon="2.38477">
        <ele>55.4</ele>
        <time>2023-10-11T14:54:04Z</time>
      </trkpt>
      <trkpt lat="49.78333" lon="2.38475">
        <ele>55.5</ele>
        <time>2023-10-11T14:54:06Z</time>
      </trkpt>
      <trkpt lat="49.78331" lon="2.38472">
        <ele>55.5</ele>
        <time>2023-10-11T14:54:08Z</time>
      </trkpt>
      <trkpt lat="49.7833" lon="2.38471">
        <ele>55.5</ele>
        <time>2023-10-11T14:54:09Z</time>
      </trkpt>
      <trkpt lat="49.78329" lon="2.3847">
        <ele>55.5</ele>
        <time>2023-10-11T14:54:11Z</time>
      </trkpt>
      <trkpt lat="49.78329" lon="2.38469">
        <ele>55.5</ele>
        <time>2023-10-11T14:54:12Z</time>
      </trkpt>
      <trkpt lat="49.78328" lon="2.38468">
        <ele>55.5</ele>
        <time>2023-10-11T14:54:13Z</time>
      </trkpt>
      <trkpt lat="49.78327" lon="2.38467">
        <ele>55.5</ele>
        <time>2023-10-11T14:54:14Z</time>
      </trkpt>
      <trkpt lat="49.78326" lon="2.38466">
        <ele>55.5</ele>
        <time>2023-10-11T14:54:15Z</time>
      </trkpt>
      <trkpt lat="49.78324" lon="2.38464">
        <ele>55.5</ele>
        <time>2023-10-11T14:54:16Z</time>
      </trkpt>
      <trkpt lat="49.78323" lon="2.38462">
        <ele>55.5</ele>
        <time>2023-10-11T14:54:18Z</time>
      </trkpt>
      <trkpt lat="49.78322" lon="2.38462">
        <ele>55.5</ele>
        <time>2023-10-11T14:54:19Z</time>
      </trkpt>
      <trkpt lat="49.78321" lon="2.38461">
        <ele>55.5</ele>
        <time>2023-10-11T14:54:20Z</time>
      </trkpt>
      <trkpt lat="49.78319" lon="2.38459">
        <ele>55.5</ele>
        <time>2023-10-11T14:54:22Z</time>
      </trkpt>
      <trkpt lat="49.78318" lon="2.38458">
        <ele>55.5</ele>
        <time>2023-10-11T14:54:23Z</time>
      </trkpt>
      <trkpt lat="49.78317" lon="2.38457">
        <ele>55.6</ele>
        <time>2023-10-11T14:54:25Z</time>
      </trkpt>
      <trkpt lat="49.78316" lon="2.38456">
        <ele>55.6</ele>
        <time>2023-10-11T14:54:26Z</time>
      </trkpt>
      <trkpt lat="49.78315" lon="2.38456">
        <ele>55.6</ele>
        <time>2023-10-11T14:54:27Z</time>
      </trkpt>
      <trkpt lat="49.78314" lon="2.38455">
        <ele>55.6</ele>
        <time>2023-10-11T14:54:29Z</time>
      </trkpt>
      <trkpt lat="49.78313" lon="2.38455">
        <ele>55.6</ele>
        <time>2023-10-11T14:54:30Z</time>
      </trkpt>
      <trkpt lat="49.78312" lon="2.38454">
        <ele>55.6</ele>
        <time>2023-10-11T14:54:31Z</time>
      </trkpt>
      <trkpt lat="49.78311" lon="2.38454">
        <ele>55.6</ele>
        <time>2023-10-11T14:54:32Z</time>
      </trkpt>
      <trkpt lat="49.7831" lon="2.38453">
        <ele>55.6</ele>
        <time>2023-10-11T14:54:33Z</time>
      </trkpt>
      <trkpt lat="49.78309" lon="2.38453">
        <ele>55.6</ele>
        <time>2023-10-11T14:54:34Z</time>
      </trkpt>
      <trkpt lat="49.78308" lon="2.38452">
        <ele>55.6</ele>
        <time>2023-10-11T14:54:35Z</time>
      </trkpt>
      <trkpt lat="49.78307" lon="2.38452">
        <ele>55.6</ele>
        <time>2023-10-11T14:54:36Z</time>
      </trkpt>
      <trkpt lat="49.78306" lon="2.38451">
        <ele>55.6</ele>
        <time>2023-10-11T14:54:37Z</time>
      </trkpt>
      <trkpt lat="49.78305" lon="2.38451">
        <ele>55.6</ele>
        <time>2023-10-11T14:54:39Z</time>
      </trkpt>
      <trkpt lat="49.78304" lon="2.3845">
        <ele>55.6</ele>
        <time>2023-10-11T14:54:40Z</time>
      </trkpt>
      <trkpt lat="49.78304" lon="2.3845">
        <ele>55.6</ele>
        <time>2023-10-11T14:54:41Z</time>
      </trkpt>
      <trkpt lat="49.78303" lon="2.38449">
        <ele>55.6</ele>
        <time>2023-10-11T14:54:42Z</time>
      </trkpt>
      <trkpt lat="49.78302" lon="2.38449">
        <ele>55.6</ele>
        <time>2023-10-11T14:54:43Z</time>
      </trkpt>
      <trkpt lat="49.78301" lon="2.38448">
        <ele>55.6</ele>
        <time>2023-10-11T14:54:44Z</time>
      </trkpt>
      <trkpt lat="49.783" lon="2.38447">
        <ele>55.6</ele>
        <time>2023-10-11T14:54:45Z</time>
      </trkpt>
      <trkpt lat="49.78298" lon="2.38445">
        <ele>55.6</ele>
        <time>2023-10-11T14:54:46Z</time>
      </trkpt>
      <trkpt lat="49.78297" lon="2.38444">
        <ele>55.6</ele>
        <time>2023-10-11T14:54:48Z</time>
      </trkpt>
      <trkpt lat="49.78296" lon="2.38443">
        <ele>55.6</ele>
        <time>2023-10-11T14:54:49Z</time>
      </trkpt>
      <trkpt lat="49.78294" lon="2.38441">
        <ele>55.6</ele>
        <time>2023-10-11T14:54:50Z</time>
      </trkpt>
      <trkpt lat="49.78293" lon="2.3844">
        <ele>55.6</ele>
        <time>2023-10-11T14:54:51Z</time>
      </trkpt>
      <trkpt lat="49.78292" lon="2.38439">
        <ele>55.6</ele>
        <time>2023-10-11T14:54:52Z</time>
      </trkpt>
      <trkpt lat="49.7829" lon="2.38436">
        <ele>55.6</ele>
        <time>2023-10-11T14:54:54Z</time>
      </trkpt>
      <trkpt lat="49.78289" lon="2.38434">
        <ele>55.6</ele>
        <time>2023-10-11T14:54:56Z</time>
      </trkpt>
      <trkpt lat="49.78288" lon="2.38433">
        <ele>55.7</ele>
        <time>2023-10-11T14:54:57Z</time>
      </trkpt>
      <trkpt lat="49.78287" lon="2.38432">
        <ele>55.7</ele>
        <time>2023-10-11T14:54:58Z</time>
      </trkpt>
      <trkpt lat="49.78286" lon="2.3843">
        <ele>55.7</ele>
        <time>2023-10-11T14:54:59Z</time>
      </trkpt>
      <trkpt lat="49.78285" lon="2.38429">
        <ele>55.7</ele>
        <time>2023-10-11T14:55:00Z</time>
      </trkpt>
      <trkpt lat="49.78284" lon="2.38429">
        <ele>55.7</ele>
        <time>2023-10-11T14:55:01Z</time>
      </trkpt>
      <trkpt lat="49.78282" lon="2.38426">
        <ele>55.7</ele>
        <time>2023-10-11T14:55:02Z</time>
      </trkpt>
      <trkpt lat="49.7828" lon="2.38424">
        <ele>55.7</ele>
        <time>2023-10-11T14:55:04Z</time>
      </trkpt>
      <trkpt lat="49.7828" lon="2.38423">
        <ele>55.7</ele>
        <time>2023-10-11T14:55:05Z</time>
      </trkpt>
      <trkpt lat="49.78278" lon="2.38421">
        <ele>55.7</ele>
        <time>2023-10-11T14:55:07Z</time>
      </trkpt>
      <trkpt lat="49.78278" lon="2.3842">
        <ele>55.7</ele>
        <time>2023-10-11T14:55:08Z</time>
      </trkpt>
      <trkpt lat="49.78277" lon="2.38419">
        <ele>55.7</ele>
        <time>2023-10-11T14:55:10Z</time>
      </trkpt>
      <trkpt lat="49.78277" lon="2.38418">
        <ele>55.7</ele>
        <time>2023-10-11T14:55:11Z</time>
      </trkpt>
      <trkpt lat="49.78275" lon="2.38416">
        <ele>55.7</ele>
        <time>2023-10-11T14:55:12Z</time>
      </trkpt>
      <trkpt lat="49.78275" lon="2.38415">
        <ele>55.8</ele>
        <time>2023-10-11T14:55:14Z</time>
      </trkpt>
      <trkpt lat="49.78274" lon="2.38413">
        <ele>55.8</ele>
        <time>2023-10-11T14:55:15Z</time>
      </trkpt>
      <trkpt lat="49.78273" lon="2.38411">
        <ele>55.8</ele>
        <time>2023-10-11T14:55:16Z</time>
      </trkpt>
      <trkpt lat="49.78273" lon="2.3841">
        <ele>55.8</ele>
        <time>2023-10-11T14:55:17Z</time>
      </trkpt>
      <trkpt lat="49.78272" lon="2.38409">
        <ele>55.8</ele>
        <time>2023-10-11T14:55:18Z</time>
      </trkpt>
      <trkpt lat="49.78272" lon="2.38408">
        <ele>55.8</ele>
        <time>2023-10-11T14:55:19Z</time>
      </trkpt>
      <trkpt lat="49.78271" lon="2.38406">
        <ele>55.8</ele>
        <time>2023-10-11T14:55:21Z</time>
      </trkpt>
      <trkpt lat="49.7827" lon="2.38405">
        <ele>55.8</ele>
        <time>2023-10-11T14:55:23Z</time>
      </trkpt>
      <trkpt lat="49.78269" lon="2.38404">
        <ele>55.8</ele>
        <time>2023-10-11T14:55:24Z</time>
      </trkpt>
      <trkpt lat="49.78268" lon="2.38403">
        <ele>55.8</ele>
        <time>2023-10-11T14:55:25Z</time>
      </trkpt>
      <trkpt lat="49.78268" lon="2.38402">
        <ele>55.8</ele>
        <time>2023-10-11T14:55:26Z</time>
      </trkpt>
      <trkpt lat="49.78267" lon="2.38401">
        <ele>55.8</ele>
        <time>2023-10-11T14:55:27Z</time>
      </trkpt>
      <trkpt lat="49.78266" lon="2.384">
        <ele>55.8</ele>
        <time>2023-10-11T14:55:28Z</time>
      </trkpt>
      <trkpt lat="49.78265" lon="2.38397">
        <ele>55.8</ele>
        <time>2023-10-11T14:55:29Z</time>
      </trkpt>
      <trkpt lat="49.78264" lon="2.38396">
        <ele>55.8</ele>
        <time>2023-10-11T14:55:31Z</time>
      </trkpt>
      <trkpt lat="49.78263" lon="2.38395">
        <ele>55.8</ele>
        <time>2023-10-11T14:55:32Z</time>
      </trkpt>
      <trkpt lat="49.78262" lon="2.38394">
        <ele>55.8</ele>
        <time>2023-10-11T14:55:33Z</time>
      </trkpt>
      <trkpt lat="49.78261" lon="2.38393">
        <ele>55.8</ele>
        <time>2023-10-11T14:55:34Z</time>
      </trkpt>
      <trkpt lat="49.78259" lon="2.38391">
        <ele>55.8</ele>
        <time>2023-10-11T14:55:35Z</time>
      </trkpt>
      <trkpt lat="49.78257" lon="2.3839">
        <ele>55.8</ele>
        <time>2023-10-11T14:55:37Z</time>
      </trkpt>
      <trkpt lat="49.78257" lon="2.38389">
        <ele>55.8</ele>
        <time>2023-10-11T14:55:38Z</time>
      </trkpt>
      <trkpt lat="49.78255" lon="2.38388">
        <ele>55.8</ele>
        <time>2023-10-11T14:55:39Z</time>
      </trkpt>
      <trkpt lat="49.78254" lon="2.38387">
        <ele>55.8</ele>
        <time>2023-10-11T14:55:40Z</time>
      </trkpt>
      <trkpt lat="49.78253" lon="2.38386">
        <ele>55.8</ele>
        <time>2023-10-11T14:55:41Z</time>
      </trkpt>
      <trkpt lat="49.78252" lon="2.38386">
        <ele>55.8</ele>
        <time>2023-10-11T14:55:42Z</time>
      </trkpt>
      <trkpt lat="49.78251" lon="2.38385">
        <ele>55.8</ele>
        <time>2023-10-11T14:55:43Z</time>
      </trkpt>
      <trkpt lat="49.7825" lon="2.38384">
        <ele>55.8</ele>
        <time>2023-10-11T14:55:44Z</time>
      </trkpt>
      <trkpt lat="49.78249" lon="2.38383">
        <ele>55.8</ele>
        <time>2023-10-11T14:55:45Z</time>
      </trkpt>
      <trkpt lat="49.78248" lon="2.38382">
        <ele>55.8</ele>
        <time>2023-10-11T14:55:46Z</time>
      </trkpt>
      <trkpt lat="49.78247" lon="2.38381">
        <ele>55.8</ele>
        <time>2023-10-11T14:55:47Z</time>
      </trkpt>
      <trkpt lat="49.78245" lon="2.38379">
        <ele>55.8</ele>
        <time>2023-10-11T14:55:48Z</time>
      </trkpt>
      <trkpt lat="49.78244" lon="2.38378">
        <ele>55.8</ele>
        <time>2023-10-11T14:55:50Z</time>
      </trkpt>
      <trkpt lat="49.78242" lon="2.38376">
        <ele>55.8</ele>
        <time>2023-10-11T14:55:52Z</time>
      </trkpt>
      <trkpt lat="49.78241" lon="2.38375">
        <ele>55.8</ele>
        <time>2023-10-11T14:55:54Z</time>
      </trkpt>
      <trkpt lat="49.78239" lon="2.38374">
        <ele>55.8</ele>
        <time>2023-10-11T14:55:55Z</time>
      </trkpt>
      <trkpt lat="49.78238" lon="2.38373">
        <ele>55.8</ele>
        <time>2023-10-11T14:55:56Z</time>
      </trkpt>
      <trkpt lat="49.78237" lon="2.38372">
        <ele>55.8</ele>
        <time>2023-10-11T14:55:57Z</time>
      </trkpt>
      <trkpt lat="49.78236" lon="2.38371">
        <ele>55.8</ele>
        <time>2023-10-11T14:55:59Z</time>
      </trkpt>
      <trkpt lat="49.78235" lon="2.38369">
        <ele>55.8</ele>
        <time>2023-10-11T14:56:00Z</time>
      </trkpt>
      <trkpt lat="49.78234" lon="2.38369">
        <ele>55.8</ele>
        <time>2023-10-11T14:56:02Z</time>
      </trkpt>
      <trkpt lat="49.78233" lon="2.38368">
        <ele>55.8</ele>
        <time>2023-10-11T14:56:03Z</time>
      </trkpt>
      <trkpt lat="49.78231" lon="2.38366">
        <ele>55.8</ele>
        <time>2023-10-11T14:56:04Z</time>
      </trkpt>
      <trkpt lat="49.7823" lon="2.38366">
        <ele>55.8</ele>
        <time>2023-10-11T14:56:06Z</time>
      </trkpt>
      <trkpt lat="49.78229" lon="2.38365">
        <ele>55.8</ele>
        <time>2023-10-11T14:56:07Z</time>
      </trkpt>
      <trkpt lat="49.78228" lon="2.38364">
        <ele>55.7</ele>
        <time>2023-10-11T14:56:08Z</time>
      </trkpt>
      <trkpt lat="49.78227" lon="2.38363">
        <ele>55.7</ele>
        <time>2023-10-11T14:56:09Z</time>
      </trkpt>
      <trkpt lat="49.78226" lon="2.38361">
        <ele>55.7</ele>
        <time>2023-10-11T14:56:11Z</time>
      </trkpt>
      <trkpt lat="49.78225" lon="2.38361">
        <ele>55.7</ele>
        <time>2023-10-11T14:56:13Z</time>
      </trkpt>
      <trkpt lat="49.78224" lon="2.3836">
        <ele>55.7</ele>
        <time>2023-10-11T14:56:14Z</time>
      </trkpt>
      <trkpt lat="49.78223" lon="2.38359">
        <ele>55.7</ele>
        <time>2023-10-11T14:56:15Z</time>
      </trkpt>
      <trkpt lat="49.78222" lon="2.38358">
        <ele>55.7</ele>
        <time>2023-10-11T14:56:16Z</time>
      </trkpt>
      <trkpt lat="49.78221" lon="2.38357">
        <ele>55.7</ele>
        <time>2023-10-11T14:56:17Z</time>
      </trkpt>
      <trkpt lat="49.7822" lon="2.38356">
        <ele>55.6</ele>
        <time>2023-10-11T14:56:18Z</time>
      </trkpt>
      <trkpt lat="49.78218" lon="2.38355">
        <ele>55.6</ele>
        <time>2023-10-11T14:56:19Z</time>
      </trkpt>
      <trkpt lat="49.78217" lon="2.38354">
        <ele>55.6</ele>
        <time>2023-10-11T14:56:21Z</time>
      </trkpt>
      <trkpt lat="49.78215" lon="2.38352">
        <ele>55.5</ele>
        <time>2023-10-11T14:56:22Z</time>
      </trkpt>
      <trkpt lat="49.78214" lon="2.38351">
        <ele>55.5</ele>
        <time>2023-10-11T14:56:23Z</time>
      </trkpt>
      <trkpt lat="49.78214" lon="2.3835">
        <ele>55.5</ele>
        <time>2023-10-11T14:56:24Z</time>
      </trkpt>
      <trkpt lat="49.78213" lon="2.3835">
        <ele>55.4</ele>
        <time>2023-10-11T14:56:25Z</time>
      </trkpt>
      <trkpt lat="49.78212" lon="2.38349">
        <ele>55.4</ele>
        <time>2023-10-11T14:56:27Z</time>
      </trkpt>
      <trkpt lat="49.78211" lon="2.38347">
        <ele>55.4</ele>
        <time>2023-10-11T14:56:28Z</time>
      </trkpt>
      <trkpt lat="49.7821" lon="2.38345">
        <ele>55.4</ele>
        <time>2023-10-11T14:56:30Z</time>
      </trkpt>
      <trkpt lat="49.7821" lon="2.38344">
        <ele>55.4</ele>
        <time>2023-10-11T14:56:31Z</time>
      </trkpt>
      <trkpt lat="49.78209" lon="2.38343">
        <ele>55.4</ele>
        <time>2023-10-11T14:56:32Z</time>
      </trkpt>
      <trkpt lat="49.78209" lon="2.38342">
        <ele>55.4</ele>
        <time>2023-10-11T14:56:33Z</time>
      </trkpt>
      <trkpt lat="49.78209" lon="2.38341">
        <ele>55.4</ele>
        <time>2023-10-11T14:56:34Z</time>
      </trkpt>
      <trkpt lat="49.78208" lon="2.38339">
        <ele>55.7</ele>
        <time>2023-10-11T14:56:35Z</time>
      </trkpt>
      <trkpt lat="49.78208" lon="2.38337">
        <ele>55.8</ele>
        <time>2023-10-11T14:56:36Z</time>
      </trkpt>
      <trkpt lat="49.78208" lon="2.38335">
        <ele>55.7</ele>
        <time>2023-10-11T14:56:38Z</time>
      </trkpt>
      <trkpt lat="49.78209" lon="2.38334">
        <ele>55.6</ele>
        <time>2023-10-11T14:56:39Z</time>
      </trkpt>
      <trkpt lat="49.78209" lon="2.38333">
        <ele>55.5</ele>
        <time>2023-10-11T14:56:40Z</time>
      </trkpt>
      <trkpt lat="49.7821" lon="2.38331">
        <ele>55.5</ele>
        <time>2023-10-11T14:56:41Z</time>
      </trkpt>
      <trkpt lat="49.7821" lon="2.3833">
        <ele>55.4</ele>
        <time>2023-10-11T14:56:42Z</time>
      </trkpt>
      <trkpt lat="49.78211" lon="2.38328">
        <ele>55.3</ele>
        <time>2023-10-11T14:56:43Z</time>
      </trkpt>
      <trkpt lat="49.78211" lon="2.38327">
        <ele>55.2</ele>
        <time>2023-10-11T14:56:44Z</time>
      </trkpt>
      <trkpt lat="49.78211" lon="2.38326">
        <ele>55.2</ele>
        <time>2023-10-11T14:56:45Z</time>
      </trkpt>
      <trkpt lat="49.78212" lon="2.38325">
        <ele>55.1</ele>
        <time>2023-10-11T14:56:46Z</time>
      </trkpt>
      <trkpt lat="49.78212" lon="2.38324">
        <ele>55</ele>
        <time>2023-10-11T14:56:47Z</time>
      </trkpt>
      <trkpt lat="49.78212" lon="2.38323">
        <ele>55</ele>
        <time>2023-10-11T14:56:48Z</time>
      </trkpt>
      <trkpt lat="49.78212" lon="2.38323">
        <ele>55</ele>
        <time>2023-10-11T14:56:49Z</time>
      </trkpt>
      <trkpt lat="49.78212" lon="2.38323">
        <ele>55</ele>
        <time>2023-10-11T14:56:50Z</time>
      </trkpt>
      <trkpt lat="49.78212" lon="2.38323">
        <ele>54.9</ele>
        <time>2023-10-11T14:56:51Z</time>
      </trkpt>
      <trkpt lat="49.78212" lon="2.38322">
        <ele>54.9</ele>
        <time>2023-10-11T14:56:52Z</time>
      </trkpt>
      <trkpt lat="49.78212" lon="2.38321">
        <ele>54.8</ele>
        <time>2023-10-11T14:56:54Z</time>
      </trkpt>
      <trkpt lat="49.78212" lon="2.3832">
        <ele>54.8</ele>
        <time>2023-10-11T14:56:55Z</time>
      </trkpt>
      <trkpt lat="49.78212" lon="2.38319">
        <ele>54.7</ele>
        <time>2023-10-11T14:56:56Z</time>
      </trkpt>
      <trkpt lat="49.78212" lon="2.38318">
        <ele>54.7</ele>
        <time>2023-10-11T14:56:57Z</time>
      </trkpt>
      <trkpt lat="49.78212" lon="2.38315">
        <ele>54.5</ele>
        <time>2023-10-11T14:56:58Z</time>
      </trkpt>
      <trkpt lat="49.7821" lon="2.38313">
        <ele>54.4</ele>
        <time>2023-10-11T14:57:00Z</time>
      </trkpt>
      <trkpt lat="49.7821" lon="2.38312">
        <ele>54.3</ele>
        <time>2023-10-11T14:57:02Z</time>
      </trkpt>
      <trkpt lat="49.7821" lon="2.3831">
        <ele>54.2</ele>
        <time>2023-10-11T14:57:03Z</time>
      </trkpt>
      <trkpt lat="49.78211" lon="2.38308">
        <ele>54</ele>
        <time>2023-10-11T14:57:04Z</time>
      </trkpt>
      <trkpt lat="49.78212" lon="2.38306">
        <ele>53.9</ele>
        <time>2023-10-11T14:57:05Z</time>
      </trkpt>
      <trkpt lat="49.78212" lon="2.38304">
        <ele>53.8</ele>
        <time>2023-10-11T14:57:06Z</time>
      </trkpt>
      <trkpt lat="49.78214" lon="2.38302">
        <ele>53.7</ele>
        <time>2023-10-11T14:57:07Z</time>
      </trkpt>
      <trkpt lat="49.78215" lon="2.38299">
        <ele>53.5</ele>
        <time>2023-10-11T14:57:09Z</time>
      </trkpt>
      <trkpt lat="49.78216" lon="2.38297">
        <ele>53.4</ele>
        <time>2023-10-11T14:57:11Z</time>
      </trkpt>
      <trkpt lat="49.78216" lon="2.38296">
        <ele>53.3</ele>
        <time>2023-10-11T14:57:12Z</time>
      </trkpt>
      <trkpt lat="49.78217" lon="2.38294">
        <ele>53.2</ele>
        <time>2023-10-11T14:57:13Z</time>
      </trkpt>
      <trkpt lat="49.78217" lon="2.38293">
        <ele>53.2</ele>
        <time>2023-10-11T14:57:14Z</time>
      </trkpt>
      <trkpt lat="49.78217" lon="2.38292">
        <ele>53.1</ele>
        <time>2023-10-11T14:57:15Z</time>
      </trkpt>
      <trkpt lat="49.78218" lon="2.38291">
        <ele>53.1</ele>
        <time>2023-10-11T14:57:16Z</time>
      </trkpt>
      <trkpt lat="49.78218" lon="2.38289">
        <ele>53</ele>
        <time>2023-10-11T14:57:17Z</time>
      </trkpt>
      <trkpt lat="49.78219" lon="2.38286">
        <ele>52.8</ele>
        <time>2023-10-11T14:57:18Z</time>
      </trkpt>
      <trkpt lat="49.78219" lon="2.38285">
        <ele>52.8</ele>
        <time>2023-10-11T14:57:20Z</time>
      </trkpt>
      <trkpt lat="49.7822" lon="2.38283">
        <ele>52.7</ele>
        <time>2023-10-11T14:57:21Z</time>
      </trkpt>
      <trkpt lat="49.7822" lon="2.38282">
        <ele>52.6</ele>
        <time>2023-10-11T14:57:23Z</time>
      </trkpt>
      <trkpt lat="49.7822" lon="2.38281">
        <ele>52.6</ele>
        <time>2023-10-11T14:57:24Z</time>
      </trkpt>
      <trkpt lat="49.78221" lon="2.38281">
        <ele>52.6</ele>
        <time>2023-10-11T14:57:25Z</time>
      </trkpt>
      <trkpt lat="49.78221" lon="2.3828">
        <ele>52.5</ele>
        <time>2023-10-11T14:57:26Z</time>
      </trkpt>
      <trkpt lat="49.78222" lon="2.38279">
        <ele>52.5</ele>
        <time>2023-10-11T14:57:27Z</time>
      </trkpt>
      <trkpt lat="49.78222" lon="2.38279">
        <ele>52.4</ele>
        <time>2023-10-11T14:57:28Z</time>
      </trkpt>
      <trkpt lat="49.78222" lon="2.38277">
        <ele>52.4</ele>
        <time>2023-10-11T14:57:29Z</time>
      </trkpt>
      <trkpt lat="49.78223" lon="2.38276">
        <ele>52.3</ele>
        <time>2023-10-11T14:57:30Z</time>
      </trkpt>
      <trkpt lat="49.78223" lon="2.38273">
        <ele>52.2</ele>
        <time>2023-10-11T14:57:31Z</time>
      </trkpt>
      <trkpt lat="49.78224" lon="2.38272">
        <ele>52.1</ele>
        <time>2023-10-11T14:57:33Z</time>
      </trkpt>
      <trkpt lat="49.78224" lon="2.38271">
        <ele>52.1</ele>
        <time>2023-10-11T14:57:34Z</time>
      </trkpt>
      <trkpt lat="49.78224" lon="2.38269">
        <ele>52</ele>
        <time>2023-10-11T14:57:35Z</time>
      </trkpt>
      <trkpt lat="49.78224" lon="2.38267">
        <ele>51.9</ele>
        <time>2023-10-11T14:57:36Z</time>
      </trkpt>
      <trkpt lat="49.78224" lon="2.38266">
        <ele>51.9</ele>
        <time>2023-10-11T14:57:38Z</time>
      </trkpt>
      <trkpt lat="49.78225" lon="2.38266">
        <ele>51.9</ele>
        <time>2023-10-11T14:57:40Z</time>
      </trkpt>
      <trkpt lat="49.78225" lon="2.38265">
        <ele>51.8</ele>
        <time>2023-10-11T14:57:41Z</time>
      </trkpt>
      <trkpt lat="49.78225" lon="2.38265">
        <ele>51.8</ele>
        <time>2023-10-11T14:57:42Z</time>
      </trkpt>
      <trkpt lat="49.78225" lon="2.38264">
        <ele>51.8</ele>
        <time>2023-10-11T14:57:43Z</time>
      </trkpt>
      <trkpt lat="49.78226" lon="2.38263">
        <ele>51.7</ele>
        <time>2023-10-11T14:57:44Z</time>
      </trkpt>
      <trkpt lat="49.78226" lon="2.38261">
        <ele>51.6</ele>
        <time>2023-10-11T14:57:45Z</time>
      </trkpt>
      <trkpt lat="49.78226" lon="2.3826">
        <ele>51.6</ele>
        <time>2023-10-11T14:57:46Z</time>
      </trkpt>
      <trkpt lat="49.78227" lon="2.38258">
        <ele>51.5</ele>
        <time>2023-10-11T14:57:47Z</time>
      </trkpt>
      <trkpt lat="49.78227" lon="2.38257">
        <ele>51.5</ele>
        <time>2023-10-11T14:57:48Z</time>
      </trkpt>
      <trkpt lat="49.78227" lon="2.38256">
        <ele>51.4</ele>
        <time>2023-10-11T14:57:49Z</time>
      </trkpt>
      <trkpt lat="49.78228" lon="2.38254">
        <ele>51.3</ele>
        <time>2023-10-11T14:57:50Z</time>
      </trkpt>
      <trkpt lat="49.78228" lon="2.38253">
        <ele>51.3</ele>
        <time>2023-10-11T14:57:51Z</time>
      </trkpt>
      <trkpt lat="49.78229" lon="2.38252">
        <ele>51.2</ele>
        <time>2023-10-11T14:57:52Z</time>
      </trkpt>
      <trkpt lat="49.7823" lon="2.3825">
        <ele>51.1</ele>
        <time>2023-10-11T14:57:53Z</time>
      </trkpt>
      <trkpt lat="49.7823" lon="2.38249">
        <ele>51.1</ele>
        <time>2023-10-11T14:57:54Z</time>
      </trkpt>
      <trkpt lat="49.78231" lon="2.38249">
        <ele>51</ele>
        <time>2023-10-11T14:57:55Z</time>
      </trkpt>
      <trkpt lat="49.78232" lon="2.38249">
        <ele>50.9</ele>
        <time>2023-10-11T14:57:56Z</time>
      </trkpt>
      <trkpt lat="49.78233" lon="2.38249">
        <ele>50.9</ele>
        <time>2023-10-11T14:57:57Z</time>
      </trkpt>
      <trkpt lat="49.78234" lon="2.38249">
        <ele>50.8</ele>
        <time>2023-10-11T14:57:58Z</time>
      </trkpt>
      <trkpt lat="49.78235" lon="2.38249">
        <ele>50.7</ele>
        <time>2023-10-11T14:57:59Z</time>
      </trkpt>
      <trkpt lat="49.78235" lon="2.38248">
        <ele>50.7</ele>
        <time>2023-10-11T14:58:00Z</time>
      </trkpt>
      <trkpt lat="49.78236" lon="2.38246">
        <ele>50.6</ele>
        <time>2023-10-11T14:58:01Z</time>
      </trkpt>
      <trkpt lat="49.78236" lon="2.38244">
        <ele>50.5</ele>
        <time>2023-10-11T14:58:02Z</time>
      </trkpt>
      <trkpt lat="49.78236" lon="2.38243">
        <ele>50.5</ele>
        <time>2023-10-11T14:58:03Z</time>
      </trkpt>
      <trkpt lat="49.78236" lon="2.38241">
        <ele>50.4</ele>
        <time>2023-10-11T14:58:04Z</time>
      </trkpt>
      <trkpt lat="49.78236" lon="2.38238">
        <ele>50.3</ele>
        <time>2023-10-11T14:58:05Z</time>
      </trkpt>
      <trkpt lat="49.78235" lon="2.38237">
        <ele>50.2</ele>
        <time>2023-10-11T14:58:07Z</time>
      </trkpt>
      <trkpt lat="49.78235" lon="2.38235">
        <ele>50.1</ele>
        <time>2023-10-11T14:58:08Z</time>
      </trkpt>
      <trkpt lat="49.78234" lon="2.38235">
        <ele>50.1</ele>
        <time>2023-10-11T14:58:09Z</time>
      </trkpt>
      <trkpt lat="49.78233" lon="2.38235">
        <ele>50</ele>
        <time>2023-10-11T14:58:10Z</time>
      </trkpt>
      <trkpt lat="49.78233" lon="2.38235">
        <ele>50</ele>
        <time>2023-10-11T14:58:12Z</time>
      </trkpt>
      <trkpt lat="49.78232" lon="2.38235">
        <ele>50</ele>
        <time>2023-10-11T14:58:13Z</time>
      </trkpt>
      <trkpt lat="49.78232" lon="2.38236">
        <ele>50</ele>
        <time>2023-10-11T14:58:14Z</time>
      </trkpt>
      <trkpt lat="49.78232" lon="2.38236">
        <ele>49.9</ele>
        <time>2023-10-11T14:58:15Z</time>
      </trkpt>
      <trkpt lat="49.78232" lon="2.38236">
        <ele>49.9</ele>
        <time>2023-10-11T14:58:16Z</time>
      </trkpt>
      <trkpt lat="49.78232" lon="2.38237">
        <ele>49.9</ele>
        <time>2023-10-11T14:58:17Z</time>
      </trkpt>
      <trkpt lat="49.78232" lon="2.38237">
        <ele>49.9</ele>
        <time>2023-10-11T14:58:19Z</time>
      </trkpt>
      <trkpt lat="49.78232" lon="2.38237">
        <ele>49.9</ele>
        <time>2023-10-11T14:58:20Z</time>
      </trkpt>
    </trkseg>
  </trk>
</gpx>